<?xml version="1.0" encoding="UTF-8"?>
<gpx version="1.1" creator="https://www.youtrack.es" xsi:schemaLocation="http://www.topografix.com/GPX/1/1 http://www.topografix.com/GPX/1/1/gpx.xsd http://www.garmin.com/xmlschemas/GpxExtensions/v3 http://www.garmin.com/xmlschemas/GpxExtensionsv3.xsd http://www.garmin.com/xmlschemas/TrackPointExtension/v1 http://www.garmin.com/xmlschemas/TrackPointExtensionv1.xsd" xmlns:gpxtpx="http://www.garmin.com/xmlschemas/TrackPointExtension/v1" xmlns:gpxx="http://www.garmin.com/xmlschemas/GpxExtensions/v3" xmlns:xsi="http://www.w3.org/2001/XMLSchema-instance">
  <metadata>
    <link href="https://www.youtrack.es">
      <text>YouTrack.es</text>
    </link>
    <time>2026-05-08T14:46:21Z</time>
  </metadata>
  <trk>
    <src>https://www.youtrack.es</src>
    <link href="https://www.youtrack.es/ruta/16593-gran-fondo-a-xorret-de-cati-con-the-gravellers">
      <text>YouTrack.es</text>
    </link>
    <trkseg>
      <trkpt lat="38.0948370" lon="-1.1670730">
        <ele>177.8</ele>
        <time>2020-10-12T05:22:27Z</time>
      </trkpt>
      <trkpt lat="38.0948380" lon="-1.1670710">
        <ele>178.0</ele>
        <time>2020-10-12T05:22:28Z</time>
      </trkpt>
      <trkpt lat="38.0948400" lon="-1.1670690">
        <ele>178.6</ele>
        <time>2020-10-12T05:22:29Z</time>
      </trkpt>
      <trkpt lat="38.0948410" lon="-1.1670670">
        <ele>179.2</ele>
        <time>2020-10-12T05:22:30Z</time>
      </trkpt>
      <trkpt lat="38.0948420" lon="-1.1670650">
        <ele>179.2</ele>
        <time>2020-10-12T05:22:31Z</time>
      </trkpt>
      <trkpt lat="38.0948440" lon="-1.1670630">
        <ele>179.2</ele>
        <time>2020-10-12T05:22:32Z</time>
      </trkpt>
      <trkpt lat="38.0948450" lon="-1.1670610">
        <ele>179.4</ele>
        <time>2020-10-12T05:22:33Z</time>
      </trkpt>
      <trkpt lat="38.0948460" lon="-1.1670580">
        <ele>179.4</ele>
        <time>2020-10-12T05:22:34Z</time>
      </trkpt>
      <trkpt lat="38.0948480" lon="-1.1670560">
        <ele>179.4</ele>
        <time>2020-10-12T05:22:35Z</time>
      </trkpt>
      <trkpt lat="38.0948490" lon="-1.1670540">
        <ele>179.4</ele>
        <time>2020-10-12T05:22:36Z</time>
      </trkpt>
      <trkpt lat="38.0948500" lon="-1.1670520">
        <ele>179.4</ele>
        <time>2020-10-12T05:22:37Z</time>
      </trkpt>
      <trkpt lat="38.0948520" lon="-1.1670500">
        <ele>179.4</ele>
        <time>2020-10-12T05:22:38Z</time>
      </trkpt>
      <trkpt lat="38.0948530" lon="-1.1670480">
        <ele>179.4</ele>
        <time>2020-10-12T05:22:39Z</time>
      </trkpt>
      <trkpt lat="38.0948540" lon="-1.1670460">
        <ele>179.4</ele>
        <time>2020-10-12T05:22:40Z</time>
      </trkpt>
      <trkpt lat="38.0948560" lon="-1.1670440">
        <ele>179.6</ele>
        <time>2020-10-12T05:22:41Z</time>
      </trkpt>
      <trkpt lat="38.0948570" lon="-1.1670420">
        <ele>179.8</ele>
        <time>2020-10-12T05:22:42Z</time>
      </trkpt>
      <trkpt lat="38.0948580" lon="-1.1670400">
        <ele>180.0</ele>
        <time>2020-10-12T05:22:43Z</time>
      </trkpt>
      <trkpt lat="38.0948600" lon="-1.1670380">
        <ele>180.2</ele>
        <time>2020-10-12T05:22:44Z</time>
      </trkpt>
      <trkpt lat="38.0948610" lon="-1.1670360">
        <ele>180.4</ele>
        <time>2020-10-12T05:22:45Z</time>
      </trkpt>
      <trkpt lat="38.0948620" lon="-1.1670330">
        <ele>180.6</ele>
        <time>2020-10-12T05:22:46Z</time>
      </trkpt>
      <trkpt lat="38.0948630" lon="-1.1670310">
        <ele>180.8</ele>
        <time>2020-10-12T05:22:47Z</time>
      </trkpt>
      <trkpt lat="38.0948650" lon="-1.1670290">
        <ele>181.0</ele>
        <time>2020-10-12T05:22:48Z</time>
      </trkpt>
      <trkpt lat="38.0948660" lon="-1.1670270">
        <ele>181.2</ele>
        <time>2020-10-12T05:22:49Z</time>
      </trkpt>
      <trkpt lat="38.0948670" lon="-1.1670250">
        <ele>181.2</ele>
        <time>2020-10-12T05:22:50Z</time>
      </trkpt>
      <trkpt lat="38.0948690" lon="-1.1670230">
        <ele>181.4</ele>
        <time>2020-10-12T05:22:51Z</time>
      </trkpt>
      <trkpt lat="38.0948700" lon="-1.1670210">
        <ele>181.6</ele>
        <time>2020-10-12T05:22:52Z</time>
      </trkpt>
      <trkpt lat="38.0948710" lon="-1.1670190">
        <ele>181.6</ele>
        <time>2020-10-12T05:22:53Z</time>
      </trkpt>
      <trkpt lat="38.0948730" lon="-1.1670170">
        <ele>181.8</ele>
        <time>2020-10-12T05:22:54Z</time>
      </trkpt>
      <trkpt lat="38.0948740" lon="-1.1670150">
        <ele>181.8</ele>
        <time>2020-10-12T05:22:55Z</time>
      </trkpt>
      <trkpt lat="38.0948750" lon="-1.1670130">
        <ele>181.8</ele>
        <time>2020-10-12T05:22:56Z</time>
      </trkpt>
      <trkpt lat="38.0948770" lon="-1.1670110">
        <ele>181.6</ele>
        <time>2020-10-12T05:22:57Z</time>
      </trkpt>
      <trkpt lat="38.0948780" lon="-1.1670080">
        <ele>181.6</ele>
        <time>2020-10-12T05:22:58Z</time>
      </trkpt>
      <trkpt lat="38.0948790" lon="-1.1670060">
        <ele>181.6</ele>
        <time>2020-10-12T05:22:59Z</time>
      </trkpt>
      <trkpt lat="38.0948810" lon="-1.1670040">
        <ele>181.6</ele>
        <time>2020-10-12T05:23:00Z</time>
      </trkpt>
      <trkpt lat="38.0948820" lon="-1.1670020">
        <ele>181.8</ele>
        <time>2020-10-12T05:23:01Z</time>
      </trkpt>
      <trkpt lat="38.0948830" lon="-1.1670000">
        <ele>182.0</ele>
        <time>2020-10-12T05:23:31Z</time>
      </trkpt>
      <trkpt lat="38.0948850" lon="-1.1669980">
        <ele>182.4</ele>
        <time>2020-10-12T05:23:32Z</time>
      </trkpt>
      <trkpt lat="38.0948860" lon="-1.1669960">
        <ele>182.8</ele>
        <time>2020-10-12T05:23:33Z</time>
      </trkpt>
      <trkpt lat="38.0949350" lon="-1.1669190">
        <ele>183.0</ele>
        <time>2020-10-12T05:23:34Z</time>
      </trkpt>
      <trkpt lat="38.0949480" lon="-1.1668590">
        <ele>183.2</ele>
        <time>2020-10-12T05:23:35Z</time>
      </trkpt>
      <trkpt lat="38.0949770" lon="-1.1668090">
        <ele>183.2</ele>
        <time>2020-10-12T05:23:36Z</time>
      </trkpt>
      <trkpt lat="38.0949980" lon="-1.1667520">
        <ele>183.2</ele>
        <time>2020-10-12T05:23:37Z</time>
      </trkpt>
      <trkpt lat="38.0950250" lon="-1.1666990">
        <ele>183.2</ele>
        <time>2020-10-12T05:23:38Z</time>
      </trkpt>
      <trkpt lat="38.0950610" lon="-1.1666560">
        <ele>183.0</ele>
        <time>2020-10-12T05:23:39Z</time>
      </trkpt>
      <trkpt lat="38.0950980" lon="-1.1666160">
        <ele>183.0</ele>
        <time>2020-10-12T05:23:40Z</time>
      </trkpt>
      <trkpt lat="38.0951130" lon="-1.1665640">
        <ele>183.2</ele>
        <time>2020-10-12T05:23:41Z</time>
      </trkpt>
      <trkpt lat="38.0951300" lon="-1.1665140">
        <ele>183.2</ele>
        <time>2020-10-12T05:23:42Z</time>
      </trkpt>
      <trkpt lat="38.0951370" lon="-1.1664640">
        <ele>183.4</ele>
        <time>2020-10-12T05:23:43Z</time>
      </trkpt>
      <trkpt lat="38.0951460" lon="-1.1664140">
        <ele>183.8</ele>
        <time>2020-10-12T05:23:44Z</time>
      </trkpt>
      <trkpt lat="38.0951610" lon="-1.1663690">
        <ele>184.6</ele>
        <time>2020-10-12T05:23:45Z</time>
      </trkpt>
      <trkpt lat="38.0951790" lon="-1.1663270">
        <ele>185.4</ele>
        <time>2020-10-12T05:23:46Z</time>
      </trkpt>
      <trkpt lat="38.0951920" lon="-1.1662840">
        <ele>186.4</ele>
        <time>2020-10-12T05:23:47Z</time>
      </trkpt>
      <trkpt lat="38.0951910" lon="-1.1662350">
        <ele>187.0</ele>
        <time>2020-10-12T05:23:48Z</time>
      </trkpt>
      <trkpt lat="38.0951970" lon="-1.1661940">
        <ele>187.4</ele>
        <time>2020-10-12T05:23:49Z</time>
      </trkpt>
      <trkpt lat="38.0952250" lon="-1.1661600">
        <ele>187.6</ele>
        <time>2020-10-12T05:23:50Z</time>
      </trkpt>
      <trkpt lat="38.0952590" lon="-1.1661460">
        <ele>187.8</ele>
        <time>2020-10-12T05:23:51Z</time>
      </trkpt>
      <trkpt lat="38.0952880" lon="-1.1661520">
        <ele>187.8</ele>
        <time>2020-10-12T05:23:52Z</time>
      </trkpt>
      <trkpt lat="38.0953260" lon="-1.1661840">
        <ele>187.6</ele>
        <time>2020-10-12T05:23:53Z</time>
      </trkpt>
      <trkpt lat="38.0953590" lon="-1.1662180">
        <ele>187.6</ele>
        <time>2020-10-12T05:23:54Z</time>
      </trkpt>
      <trkpt lat="38.0953990" lon="-1.1662580">
        <ele>187.4</ele>
        <time>2020-10-12T05:23:55Z</time>
      </trkpt>
      <trkpt lat="38.0954350" lon="-1.1662920">
        <ele>187.2</ele>
        <time>2020-10-12T05:23:56Z</time>
      </trkpt>
      <trkpt lat="38.0954990" lon="-1.1663470">
        <ele>187.0</ele>
        <time>2020-10-12T05:23:57Z</time>
      </trkpt>
      <trkpt lat="38.0955610" lon="-1.1663970">
        <ele>187.0</ele>
        <time>2020-10-12T05:23:58Z</time>
      </trkpt>
      <trkpt lat="38.0956140" lon="-1.1664370">
        <ele>187.0</ele>
        <time>2020-10-12T05:23:59Z</time>
      </trkpt>
      <trkpt lat="38.0956730" lon="-1.1664830">
        <ele>187.0</ele>
        <time>2020-10-12T05:24:00Z</time>
      </trkpt>
      <trkpt lat="38.0957290" lon="-1.1665320">
        <ele>186.8</ele>
        <time>2020-10-12T05:24:01Z</time>
      </trkpt>
      <trkpt lat="38.0957840" lon="-1.1665810">
        <ele>186.8</ele>
        <time>2020-10-12T05:24:02Z</time>
      </trkpt>
      <trkpt lat="38.0958420" lon="-1.1666290">
        <ele>186.6</ele>
        <time>2020-10-12T05:24:03Z</time>
      </trkpt>
      <trkpt lat="38.0959010" lon="-1.1666710">
        <ele>186.4</ele>
        <time>2020-10-12T05:24:04Z</time>
      </trkpt>
      <trkpt lat="38.0959470" lon="-1.1667030">
        <ele>186.2</ele>
        <time>2020-10-12T05:24:05Z</time>
      </trkpt>
      <trkpt lat="38.0960110" lon="-1.1667540">
        <ele>186.0</ele>
        <time>2020-10-12T05:24:06Z</time>
      </trkpt>
      <trkpt lat="38.0960700" lon="-1.1668010">
        <ele>186.0</ele>
        <time>2020-10-12T05:24:07Z</time>
      </trkpt>
      <trkpt lat="38.0961430" lon="-1.1668600">
        <ele>186.0</ele>
        <time>2020-10-12T05:24:08Z</time>
      </trkpt>
      <trkpt lat="38.0961990" lon="-1.1669040">
        <ele>186.2</ele>
        <time>2020-10-12T05:24:09Z</time>
      </trkpt>
      <trkpt lat="38.0962630" lon="-1.1669590">
        <ele>186.4</ele>
        <time>2020-10-12T05:24:10Z</time>
      </trkpt>
      <trkpt lat="38.0963220" lon="-1.1670090">
        <ele>186.6</ele>
        <time>2020-10-12T05:24:11Z</time>
      </trkpt>
      <trkpt lat="38.0963840" lon="-1.1670600">
        <ele>187.0</ele>
        <time>2020-10-12T05:24:12Z</time>
      </trkpt>
      <trkpt lat="38.0964420" lon="-1.1671070">
        <ele>187.4</ele>
        <time>2020-10-12T05:24:13Z</time>
      </trkpt>
      <trkpt lat="38.0965030" lon="-1.1671560">
        <ele>187.6</ele>
        <time>2020-10-12T05:24:14Z</time>
      </trkpt>
      <trkpt lat="38.0965590" lon="-1.1672030">
        <ele>187.6</ele>
        <time>2020-10-12T05:24:15Z</time>
      </trkpt>
      <trkpt lat="38.0966160" lon="-1.1672510">
        <ele>187.6</ele>
        <time>2020-10-12T05:24:16Z</time>
      </trkpt>
      <trkpt lat="38.0966720" lon="-1.1673000">
        <ele>187.6</ele>
        <time>2020-10-12T05:24:17Z</time>
      </trkpt>
      <trkpt lat="38.0967290" lon="-1.1673470">
        <ele>187.6</ele>
        <time>2020-10-12T05:24:18Z</time>
      </trkpt>
      <trkpt lat="38.0968200" lon="-1.1674200">
        <ele>187.4</ele>
        <time>2020-10-12T05:24:19Z</time>
      </trkpt>
      <trkpt lat="38.0968870" lon="-1.1674720">
        <ele>187.0</ele>
        <time>2020-10-12T05:24:20Z</time>
      </trkpt>
      <trkpt lat="38.0969520" lon="-1.1675220">
        <ele>186.6</ele>
        <time>2020-10-12T05:24:21Z</time>
      </trkpt>
      <trkpt lat="38.0970140" lon="-1.1675710">
        <ele>186.2</ele>
        <time>2020-10-12T05:24:22Z</time>
      </trkpt>
      <trkpt lat="38.0970790" lon="-1.1676190">
        <ele>185.4</ele>
        <time>2020-10-12T05:24:23Z</time>
      </trkpt>
      <trkpt lat="38.0971410" lon="-1.1676670">
        <ele>184.6</ele>
        <time>2020-10-12T05:24:24Z</time>
      </trkpt>
      <trkpt lat="38.0972070" lon="-1.1677180">
        <ele>183.6</ele>
        <time>2020-10-12T05:24:25Z</time>
      </trkpt>
      <trkpt lat="38.0972730" lon="-1.1677720">
        <ele>183.0</ele>
        <time>2020-10-12T05:24:26Z</time>
      </trkpt>
      <trkpt lat="38.0973360" lon="-1.1678210">
        <ele>182.4</ele>
        <time>2020-10-12T05:24:27Z</time>
      </trkpt>
      <trkpt lat="38.0973960" lon="-1.1678670">
        <ele>182.0</ele>
        <time>2020-10-12T05:24:28Z</time>
      </trkpt>
      <trkpt lat="38.0974610" lon="-1.1679170">
        <ele>182.0</ele>
        <time>2020-10-12T05:24:29Z</time>
      </trkpt>
      <trkpt lat="38.0975270" lon="-1.1679710">
        <ele>181.8</ele>
        <time>2020-10-12T05:24:30Z</time>
      </trkpt>
      <trkpt lat="38.0975900" lon="-1.1680220">
        <ele>182.4</ele>
        <time>2020-10-12T05:24:31Z</time>
      </trkpt>
      <trkpt lat="38.0976530" lon="-1.1680710">
        <ele>182.6</ele>
        <time>2020-10-12T05:24:32Z</time>
      </trkpt>
      <trkpt lat="38.0977170" lon="-1.1681200">
        <ele>183.6</ele>
        <time>2020-10-12T05:24:33Z</time>
      </trkpt>
      <trkpt lat="38.0977750" lon="-1.1681730">
        <ele>184.2</ele>
        <time>2020-10-12T05:24:34Z</time>
      </trkpt>
      <trkpt lat="38.0978310" lon="-1.1682290">
        <ele>184.6</ele>
        <time>2020-10-12T05:24:35Z</time>
      </trkpt>
      <trkpt lat="38.0978850" lon="-1.1682870">
        <ele>183.8</ele>
        <time>2020-10-12T05:24:36Z</time>
      </trkpt>
      <trkpt lat="38.0979380" lon="-1.1683490">
        <ele>182.8</ele>
        <time>2020-10-12T05:24:37Z</time>
      </trkpt>
      <trkpt lat="38.0979910" lon="-1.1684130">
        <ele>182.0</ele>
        <time>2020-10-12T05:24:38Z</time>
      </trkpt>
      <trkpt lat="38.0980430" lon="-1.1684830">
        <ele>181.6</ele>
        <time>2020-10-12T05:24:39Z</time>
      </trkpt>
      <trkpt lat="38.0980890" lon="-1.1685560">
        <ele>181.2</ele>
        <time>2020-10-12T05:24:40Z</time>
      </trkpt>
      <trkpt lat="38.0981320" lon="-1.1686330">
        <ele>180.8</ele>
        <time>2020-10-12T05:24:41Z</time>
      </trkpt>
      <trkpt lat="38.0981740" lon="-1.1687120">
        <ele>180.6</ele>
        <time>2020-10-12T05:24:42Z</time>
      </trkpt>
      <trkpt lat="38.0982140" lon="-1.1687950">
        <ele>180.2</ele>
        <time>2020-10-12T05:24:43Z</time>
      </trkpt>
      <trkpt lat="38.0982530" lon="-1.1688800">
        <ele>180.0</ele>
        <time>2020-10-12T05:24:44Z</time>
      </trkpt>
      <trkpt lat="38.0982900" lon="-1.1689730">
        <ele>179.8</ele>
        <time>2020-10-12T05:24:45Z</time>
      </trkpt>
      <trkpt lat="38.0983260" lon="-1.1690690">
        <ele>179.6</ele>
        <time>2020-10-12T05:24:46Z</time>
      </trkpt>
      <trkpt lat="38.0983590" lon="-1.1691690">
        <ele>179.6</ele>
        <time>2020-10-12T05:24:47Z</time>
      </trkpt>
      <trkpt lat="38.0983920" lon="-1.1692690">
        <ele>179.6</ele>
        <time>2020-10-12T05:24:48Z</time>
      </trkpt>
      <trkpt lat="38.0984230" lon="-1.1693760">
        <ele>179.8</ele>
        <time>2020-10-12T05:24:49Z</time>
      </trkpt>
      <trkpt lat="38.0984530" lon="-1.1694810">
        <ele>180.0</ele>
        <time>2020-10-12T05:24:50Z</time>
      </trkpt>
      <trkpt lat="38.0984860" lon="-1.1695830">
        <ele>180.0</ele>
        <time>2020-10-12T05:24:51Z</time>
      </trkpt>
      <trkpt lat="38.0985150" lon="-1.1696840">
        <ele>180.0</ele>
        <time>2020-10-12T05:24:52Z</time>
      </trkpt>
      <trkpt lat="38.0985440" lon="-1.1697850">
        <ele>180.6</ele>
        <time>2020-10-12T05:24:53Z</time>
      </trkpt>
      <trkpt lat="38.0985740" lon="-1.1698870">
        <ele>181.0</ele>
        <time>2020-10-12T05:24:54Z</time>
      </trkpt>
      <trkpt lat="38.0986010" lon="-1.1699900">
        <ele>181.0</ele>
        <time>2020-10-12T05:24:55Z</time>
      </trkpt>
      <trkpt lat="38.0986260" lon="-1.1700930">
        <ele>181.4</ele>
        <time>2020-10-12T05:24:56Z</time>
      </trkpt>
      <trkpt lat="38.0986550" lon="-1.1701970">
        <ele>181.8</ele>
        <time>2020-10-12T05:24:57Z</time>
      </trkpt>
      <trkpt lat="38.0986830" lon="-1.1702980">
        <ele>182.0</ele>
        <time>2020-10-12T05:24:58Z</time>
      </trkpt>
      <trkpt lat="38.0987130" lon="-1.1704030">
        <ele>182.2</ele>
        <time>2020-10-12T05:24:59Z</time>
      </trkpt>
      <trkpt lat="38.0987360" lon="-1.1705100">
        <ele>182.4</ele>
        <time>2020-10-12T05:25:00Z</time>
      </trkpt>
      <trkpt lat="38.0987620" lon="-1.1706170">
        <ele>182.4</ele>
        <time>2020-10-12T05:25:01Z</time>
      </trkpt>
      <trkpt lat="38.0987880" lon="-1.1707220">
        <ele>182.0</ele>
        <time>2020-10-12T05:25:02Z</time>
      </trkpt>
      <trkpt lat="38.0988140" lon="-1.1708280">
        <ele>181.6</ele>
        <time>2020-10-12T05:25:03Z</time>
      </trkpt>
      <trkpt lat="38.0988410" lon="-1.1709320">
        <ele>180.8</ele>
        <time>2020-10-12T05:25:04Z</time>
      </trkpt>
      <trkpt lat="38.0988670" lon="-1.1710340">
        <ele>179.4</ele>
        <time>2020-10-12T05:25:05Z</time>
      </trkpt>
      <trkpt lat="38.0988970" lon="-1.1711380">
        <ele>177.6</ele>
        <time>2020-10-12T05:25:06Z</time>
      </trkpt>
      <trkpt lat="38.0989240" lon="-1.1712410">
        <ele>176.2</ele>
        <time>2020-10-12T05:25:07Z</time>
      </trkpt>
      <trkpt lat="38.0989520" lon="-1.1713400">
        <ele>175.6</ele>
        <time>2020-10-12T05:25:08Z</time>
      </trkpt>
      <trkpt lat="38.0989750" lon="-1.1714400">
        <ele>175.0</ele>
        <time>2020-10-12T05:25:09Z</time>
      </trkpt>
      <trkpt lat="38.0989930" lon="-1.1715440">
        <ele>174.8</ele>
        <time>2020-10-12T05:25:10Z</time>
      </trkpt>
      <trkpt lat="38.0990100" lon="-1.1716470">
        <ele>174.6</ele>
        <time>2020-10-12T05:25:11Z</time>
      </trkpt>
      <trkpt lat="38.0990230" lon="-1.1717490">
        <ele>174.0</ele>
        <time>2020-10-12T05:25:12Z</time>
      </trkpt>
      <trkpt lat="38.0990300" lon="-1.1718490">
        <ele>173.8</ele>
        <time>2020-10-12T05:25:13Z</time>
      </trkpt>
      <trkpt lat="38.0990330" lon="-1.1719510">
        <ele>173.4</ele>
        <time>2020-10-12T05:25:14Z</time>
      </trkpt>
      <trkpt lat="38.0990330" lon="-1.1720560">
        <ele>173.2</ele>
        <time>2020-10-12T05:25:15Z</time>
      </trkpt>
      <trkpt lat="38.0990290" lon="-1.1721610">
        <ele>173.0</ele>
        <time>2020-10-12T05:25:16Z</time>
      </trkpt>
      <trkpt lat="38.0990230" lon="-1.1722670">
        <ele>173.2</ele>
        <time>2020-10-12T05:25:17Z</time>
      </trkpt>
      <trkpt lat="38.0990150" lon="-1.1723750">
        <ele>173.2</ele>
        <time>2020-10-12T05:25:18Z</time>
      </trkpt>
      <trkpt lat="38.0990090" lon="-1.1724850">
        <ele>173.6</ele>
        <time>2020-10-12T05:25:19Z</time>
      </trkpt>
      <trkpt lat="38.0989980" lon="-1.1725950">
        <ele>174.0</ele>
        <time>2020-10-12T05:25:20Z</time>
      </trkpt>
      <trkpt lat="38.0989840" lon="-1.1726990">
        <ele>174.6</ele>
        <time>2020-10-12T05:25:21Z</time>
      </trkpt>
      <trkpt lat="38.0989850" lon="-1.1727980">
        <ele>175.4</ele>
        <time>2020-10-12T05:25:22Z</time>
      </trkpt>
      <trkpt lat="38.0990120" lon="-1.1728810">
        <ele>175.8</ele>
        <time>2020-10-12T05:25:23Z</time>
      </trkpt>
      <trkpt lat="38.0990690" lon="-1.1729330">
        <ele>176.0</ele>
        <time>2020-10-12T05:25:24Z</time>
      </trkpt>
      <trkpt lat="38.0991480" lon="-1.1729460">
        <ele>175.8</ele>
        <time>2020-10-12T05:25:25Z</time>
      </trkpt>
      <trkpt lat="38.0992310" lon="-1.1729360">
        <ele>175.6</ele>
        <time>2020-10-12T05:25:26Z</time>
      </trkpt>
      <trkpt lat="38.0993100" lon="-1.1729120">
        <ele>175.4</ele>
        <time>2020-10-12T05:25:27Z</time>
      </trkpt>
      <trkpt lat="38.0993860" lon="-1.1728780">
        <ele>175.4</ele>
        <time>2020-10-12T05:25:28Z</time>
      </trkpt>
      <trkpt lat="38.0994620" lon="-1.1728330">
        <ele>175.2</ele>
        <time>2020-10-12T05:25:29Z</time>
      </trkpt>
      <trkpt lat="38.0995350" lon="-1.1727860">
        <ele>175.2</ele>
        <time>2020-10-12T05:25:30Z</time>
      </trkpt>
      <trkpt lat="38.0996050" lon="-1.1727400">
        <ele>175.2</ele>
        <time>2020-10-12T05:25:31Z</time>
      </trkpt>
      <trkpt lat="38.0996770" lon="-1.1726980">
        <ele>175.2</ele>
        <time>2020-10-12T05:25:32Z</time>
      </trkpt>
      <trkpt lat="38.0997500" lon="-1.1726570">
        <ele>175.0</ele>
        <time>2020-10-12T05:25:33Z</time>
      </trkpt>
      <trkpt lat="38.0998270" lon="-1.1726140">
        <ele>175.0</ele>
        <time>2020-10-12T05:25:34Z</time>
      </trkpt>
      <trkpt lat="38.0999030" lon="-1.1725720">
        <ele>174.6</ele>
        <time>2020-10-12T05:25:35Z</time>
      </trkpt>
      <trkpt lat="38.0999780" lon="-1.1725290">
        <ele>174.2</ele>
        <time>2020-10-12T05:25:36Z</time>
      </trkpt>
      <trkpt lat="38.1000490" lon="-1.1724860">
        <ele>173.4</ele>
        <time>2020-10-12T05:25:37Z</time>
      </trkpt>
      <trkpt lat="38.1001210" lon="-1.1724440">
        <ele>172.8</ele>
        <time>2020-10-12T05:25:38Z</time>
      </trkpt>
      <trkpt lat="38.1001930" lon="-1.1724020">
        <ele>172.6</ele>
        <time>2020-10-12T05:25:39Z</time>
      </trkpt>
      <trkpt lat="38.1002640" lon="-1.1723600">
        <ele>172.4</ele>
        <time>2020-10-12T05:25:40Z</time>
      </trkpt>
      <trkpt lat="38.1003320" lon="-1.1723180">
        <ele>172.4</ele>
        <time>2020-10-12T05:25:41Z</time>
      </trkpt>
      <trkpt lat="38.1004010" lon="-1.1722740">
        <ele>172.6</ele>
        <time>2020-10-12T05:25:42Z</time>
      </trkpt>
      <trkpt lat="38.1004710" lon="-1.1722320">
        <ele>173.0</ele>
        <time>2020-10-12T05:25:43Z</time>
      </trkpt>
      <trkpt lat="38.1005440" lon="-1.1721910">
        <ele>173.2</ele>
        <time>2020-10-12T05:25:44Z</time>
      </trkpt>
      <trkpt lat="38.1006180" lon="-1.1721530">
        <ele>173.2</ele>
        <time>2020-10-12T05:25:45Z</time>
      </trkpt>
      <trkpt lat="38.1006930" lon="-1.1721140">
        <ele>173.2</ele>
        <time>2020-10-12T05:25:46Z</time>
      </trkpt>
      <trkpt lat="38.1007640" lon="-1.1720730">
        <ele>173.0</ele>
        <time>2020-10-12T05:25:47Z</time>
      </trkpt>
      <trkpt lat="38.1008360" lon="-1.1720330">
        <ele>172.8</ele>
        <time>2020-10-12T05:25:48Z</time>
      </trkpt>
      <trkpt lat="38.1009070" lon="-1.1719930">
        <ele>172.6</ele>
        <time>2020-10-12T05:25:49Z</time>
      </trkpt>
      <trkpt lat="38.1009770" lon="-1.1719520">
        <ele>172.4</ele>
        <time>2020-10-12T05:25:50Z</time>
      </trkpt>
      <trkpt lat="38.1010470" lon="-1.1719110">
        <ele>172.4</ele>
        <time>2020-10-12T05:25:51Z</time>
      </trkpt>
      <trkpt lat="38.1011170" lon="-1.1718720">
        <ele>172.4</ele>
        <time>2020-10-12T05:25:52Z</time>
      </trkpt>
      <trkpt lat="38.1011870" lon="-1.1718310">
        <ele>172.2</ele>
        <time>2020-10-12T05:25:53Z</time>
      </trkpt>
      <trkpt lat="38.1012570" lon="-1.1717890">
        <ele>172.2</ele>
        <time>2020-10-12T05:25:54Z</time>
      </trkpt>
      <trkpt lat="38.1013270" lon="-1.1717490">
        <ele>172.2</ele>
        <time>2020-10-12T05:25:55Z</time>
      </trkpt>
      <trkpt lat="38.1013950" lon="-1.1717110">
        <ele>172.0</ele>
        <time>2020-10-12T05:25:56Z</time>
      </trkpt>
      <trkpt lat="38.1014640" lon="-1.1716700">
        <ele>171.6</ele>
        <time>2020-10-12T05:25:57Z</time>
      </trkpt>
      <trkpt lat="38.1015330" lon="-1.1716300">
        <ele>171.4</ele>
        <time>2020-10-12T05:25:58Z</time>
      </trkpt>
      <trkpt lat="38.1016040" lon="-1.1715880">
        <ele>171.4</ele>
        <time>2020-10-12T05:25:59Z</time>
      </trkpt>
      <trkpt lat="38.1016750" lon="-1.1715460">
        <ele>171.6</ele>
        <time>2020-10-12T05:26:00Z</time>
      </trkpt>
      <trkpt lat="38.1017460" lon="-1.1715070">
        <ele>171.6</ele>
        <time>2020-10-12T05:26:01Z</time>
      </trkpt>
      <trkpt lat="38.1018170" lon="-1.1714690">
        <ele>171.6</ele>
        <time>2020-10-12T05:26:02Z</time>
      </trkpt>
      <trkpt lat="38.1018870" lon="-1.1714310">
        <ele>171.8</ele>
        <time>2020-10-12T05:26:03Z</time>
      </trkpt>
      <trkpt lat="38.1019540" lon="-1.1713940">
        <ele>172.2</ele>
        <time>2020-10-12T05:26:04Z</time>
      </trkpt>
      <trkpt lat="38.1020200" lon="-1.1713580">
        <ele>172.4</ele>
        <time>2020-10-12T05:26:05Z</time>
      </trkpt>
      <trkpt lat="38.1020880" lon="-1.1713210">
        <ele>172.6</ele>
        <time>2020-10-12T05:26:06Z</time>
      </trkpt>
      <trkpt lat="38.1021570" lon="-1.1712860">
        <ele>172.6</ele>
        <time>2020-10-12T05:26:07Z</time>
      </trkpt>
      <trkpt lat="38.1022230" lon="-1.1712520">
        <ele>172.8</ele>
        <time>2020-10-12T05:26:08Z</time>
      </trkpt>
      <trkpt lat="38.1022890" lon="-1.1712170">
        <ele>172.8</ele>
        <time>2020-10-12T05:26:09Z</time>
      </trkpt>
      <trkpt lat="38.1023560" lon="-1.1711820">
        <ele>173.0</ele>
        <time>2020-10-12T05:26:10Z</time>
      </trkpt>
      <trkpt lat="38.1024240" lon="-1.1711460">
        <ele>173.2</ele>
        <time>2020-10-12T05:26:11Z</time>
      </trkpt>
      <trkpt lat="38.1024920" lon="-1.1711130">
        <ele>173.2</ele>
        <time>2020-10-12T05:26:12Z</time>
      </trkpt>
      <trkpt lat="38.1025610" lon="-1.1710810">
        <ele>173.2</ele>
        <time>2020-10-12T05:26:13Z</time>
      </trkpt>
      <trkpt lat="38.1026270" lon="-1.1710500">
        <ele>173.2</ele>
        <time>2020-10-12T05:26:14Z</time>
      </trkpt>
      <trkpt lat="38.1026920" lon="-1.1710200">
        <ele>173.4</ele>
        <time>2020-10-12T05:26:15Z</time>
      </trkpt>
      <trkpt lat="38.1027550" lon="-1.1709930">
        <ele>173.4</ele>
        <time>2020-10-12T05:26:16Z</time>
      </trkpt>
      <trkpt lat="38.1028190" lon="-1.1709640">
        <ele>173.4</ele>
        <time>2020-10-12T05:26:17Z</time>
      </trkpt>
      <trkpt lat="38.1028820" lon="-1.1709350">
        <ele>173.6</ele>
        <time>2020-10-12T05:26:18Z</time>
      </trkpt>
      <trkpt lat="38.1029440" lon="-1.1709060">
        <ele>173.6</ele>
        <time>2020-10-12T05:26:19Z</time>
      </trkpt>
      <trkpt lat="38.1030060" lon="-1.1708770">
        <ele>173.8</ele>
        <time>2020-10-12T05:26:20Z</time>
      </trkpt>
      <trkpt lat="38.1030670" lon="-1.1708480">
        <ele>174.0</ele>
        <time>2020-10-12T05:26:21Z</time>
      </trkpt>
      <trkpt lat="38.1031270" lon="-1.1708190">
        <ele>174.2</ele>
        <time>2020-10-12T05:26:22Z</time>
      </trkpt>
      <trkpt lat="38.1031850" lon="-1.1707880">
        <ele>174.6</ele>
        <time>2020-10-12T05:26:23Z</time>
      </trkpt>
      <trkpt lat="38.1032400" lon="-1.1707560">
        <ele>175.0</ele>
        <time>2020-10-12T05:26:24Z</time>
      </trkpt>
      <trkpt lat="38.1032950" lon="-1.1707250">
        <ele>175.6</ele>
        <time>2020-10-12T05:26:25Z</time>
      </trkpt>
      <trkpt lat="38.1033460" lon="-1.1706930">
        <ele>176.2</ele>
        <time>2020-10-12T05:26:26Z</time>
      </trkpt>
      <trkpt lat="38.1033960" lon="-1.1706610">
        <ele>176.8</ele>
        <time>2020-10-12T05:26:27Z</time>
      </trkpt>
      <trkpt lat="38.1034430" lon="-1.1706300">
        <ele>177.2</ele>
        <time>2020-10-12T05:26:28Z</time>
      </trkpt>
      <trkpt lat="38.1034890" lon="-1.1705990">
        <ele>177.6</ele>
        <time>2020-10-12T05:26:29Z</time>
      </trkpt>
      <trkpt lat="38.1035320" lon="-1.1705680">
        <ele>177.8</ele>
        <time>2020-10-12T05:26:30Z</time>
      </trkpt>
      <trkpt lat="38.1035730" lon="-1.1705370">
        <ele>178.2</ele>
        <time>2020-10-12T05:26:31Z</time>
      </trkpt>
      <trkpt lat="38.1036130" lon="-1.1705050">
        <ele>178.4</ele>
        <time>2020-10-12T05:26:32Z</time>
      </trkpt>
      <trkpt lat="38.1036510" lon="-1.1704730">
        <ele>179.0</ele>
        <time>2020-10-12T05:26:33Z</time>
      </trkpt>
      <trkpt lat="38.1036890" lon="-1.1704420">
        <ele>179.8</ele>
        <time>2020-10-12T05:26:34Z</time>
      </trkpt>
      <trkpt lat="38.1037290" lon="-1.1704130">
        <ele>180.6</ele>
        <time>2020-10-12T05:26:35Z</time>
      </trkpt>
      <trkpt lat="38.1037670" lon="-1.1703830">
        <ele>181.2</ele>
        <time>2020-10-12T05:26:36Z</time>
      </trkpt>
      <trkpt lat="38.1038050" lon="-1.1703520">
        <ele>181.4</ele>
        <time>2020-10-12T05:26:37Z</time>
      </trkpt>
      <trkpt lat="38.1038440" lon="-1.1703200">
        <ele>181.6</ele>
        <time>2020-10-12T05:26:38Z</time>
      </trkpt>
      <trkpt lat="38.1038830" lon="-1.1702900">
        <ele>181.8</ele>
        <time>2020-10-12T05:26:39Z</time>
      </trkpt>
      <trkpt lat="38.1039210" lon="-1.1702610">
        <ele>182.0</ele>
        <time>2020-10-12T05:26:40Z</time>
      </trkpt>
      <trkpt lat="38.1039590" lon="-1.1702310">
        <ele>182.2</ele>
        <time>2020-10-12T05:26:41Z</time>
      </trkpt>
      <trkpt lat="38.1039970" lon="-1.1702010">
        <ele>182.6</ele>
        <time>2020-10-12T05:26:42Z</time>
      </trkpt>
      <trkpt lat="38.1040350" lon="-1.1701720">
        <ele>182.8</ele>
        <time>2020-10-12T05:26:43Z</time>
      </trkpt>
      <trkpt lat="38.1040740" lon="-1.1701410">
        <ele>183.2</ele>
        <time>2020-10-12T05:26:44Z</time>
      </trkpt>
      <trkpt lat="38.1041130" lon="-1.1701090">
        <ele>183.6</ele>
        <time>2020-10-12T05:26:45Z</time>
      </trkpt>
      <trkpt lat="38.1041530" lon="-1.1700790">
        <ele>184.0</ele>
        <time>2020-10-12T05:26:46Z</time>
      </trkpt>
      <trkpt lat="38.1041940" lon="-1.1700480">
        <ele>184.4</ele>
        <time>2020-10-12T05:26:47Z</time>
      </trkpt>
      <trkpt lat="38.1042340" lon="-1.1700170">
        <ele>184.6</ele>
        <time>2020-10-12T05:26:48Z</time>
      </trkpt>
      <trkpt lat="38.1042750" lon="-1.1699860">
        <ele>184.6</ele>
        <time>2020-10-12T05:26:49Z</time>
      </trkpt>
      <trkpt lat="38.1043160" lon="-1.1699570">
        <ele>184.6</ele>
        <time>2020-10-12T05:26:50Z</time>
      </trkpt>
      <trkpt lat="38.1043590" lon="-1.1699280">
        <ele>184.6</ele>
        <time>2020-10-12T05:26:51Z</time>
      </trkpt>
      <trkpt lat="38.1044040" lon="-1.1699020">
        <ele>184.2</ele>
        <time>2020-10-12T05:26:52Z</time>
      </trkpt>
      <trkpt lat="38.1044500" lon="-1.1698770">
        <ele>184.0</ele>
        <time>2020-10-12T05:26:53Z</time>
      </trkpt>
      <trkpt lat="38.1044960" lon="-1.1698530">
        <ele>184.0</ele>
        <time>2020-10-12T05:26:54Z</time>
      </trkpt>
      <trkpt lat="38.1045460" lon="-1.1698290">
        <ele>184.0</ele>
        <time>2020-10-12T05:26:55Z</time>
      </trkpt>
      <trkpt lat="38.1045950" lon="-1.1698050">
        <ele>184.2</ele>
        <time>2020-10-12T05:26:56Z</time>
      </trkpt>
      <trkpt lat="38.1046470" lon="-1.1697820">
        <ele>184.2</ele>
        <time>2020-10-12T05:26:57Z</time>
      </trkpt>
      <trkpt lat="38.1047020" lon="-1.1697570">
        <ele>184.2</ele>
        <time>2020-10-12T05:26:58Z</time>
      </trkpt>
      <trkpt lat="38.1047580" lon="-1.1697320">
        <ele>184.2</ele>
        <time>2020-10-12T05:26:59Z</time>
      </trkpt>
      <trkpt lat="38.1048150" lon="-1.1697050">
        <ele>184.0</ele>
        <time>2020-10-12T05:27:00Z</time>
      </trkpt>
      <trkpt lat="38.1048740" lon="-1.1696780">
        <ele>184.0</ele>
        <time>2020-10-12T05:27:01Z</time>
      </trkpt>
      <trkpt lat="38.1049340" lon="-1.1696500">
        <ele>183.6</ele>
        <time>2020-10-12T05:27:02Z</time>
      </trkpt>
      <trkpt lat="38.1049930" lon="-1.1696220">
        <ele>183.6</ele>
        <time>2020-10-12T05:27:03Z</time>
      </trkpt>
      <trkpt lat="38.1050510" lon="-1.1695930">
        <ele>183.4</ele>
        <time>2020-10-12T05:27:04Z</time>
      </trkpt>
      <trkpt lat="38.1051090" lon="-1.1695620">
        <ele>183.2</ele>
        <time>2020-10-12T05:27:05Z</time>
      </trkpt>
      <trkpt lat="38.1051670" lon="-1.1695270">
        <ele>183.2</ele>
        <time>2020-10-12T05:27:06Z</time>
      </trkpt>
      <trkpt lat="38.1052280" lon="-1.1694910">
        <ele>183.2</ele>
        <time>2020-10-12T05:27:07Z</time>
      </trkpt>
      <trkpt lat="38.1052900" lon="-1.1694540">
        <ele>183.0</ele>
        <time>2020-10-12T05:27:08Z</time>
      </trkpt>
      <trkpt lat="38.1053530" lon="-1.1694140">
        <ele>182.8</ele>
        <time>2020-10-12T05:27:09Z</time>
      </trkpt>
      <trkpt lat="38.1054160" lon="-1.1693740">
        <ele>182.6</ele>
        <time>2020-10-12T05:27:10Z</time>
      </trkpt>
      <trkpt lat="38.1054780" lon="-1.1693320">
        <ele>182.6</ele>
        <time>2020-10-12T05:27:11Z</time>
      </trkpt>
      <trkpt lat="38.1055410" lon="-1.1692870">
        <ele>183.0</ele>
        <time>2020-10-12T05:27:12Z</time>
      </trkpt>
      <trkpt lat="38.1056010" lon="-1.1692390">
        <ele>183.2</ele>
        <time>2020-10-12T05:27:13Z</time>
      </trkpt>
      <trkpt lat="38.1056600" lon="-1.1691890">
        <ele>183.6</ele>
        <time>2020-10-12T05:27:14Z</time>
      </trkpt>
      <trkpt lat="38.1057190" lon="-1.1691340">
        <ele>184.0</ele>
        <time>2020-10-12T05:27:15Z</time>
      </trkpt>
      <trkpt lat="38.1057750" lon="-1.1690720">
        <ele>184.4</ele>
        <time>2020-10-12T05:27:16Z</time>
      </trkpt>
      <trkpt lat="38.1058300" lon="-1.1690060">
        <ele>184.8</ele>
        <time>2020-10-12T05:27:17Z</time>
      </trkpt>
      <trkpt lat="38.1058810" lon="-1.1689350">
        <ele>184.8</ele>
        <time>2020-10-12T05:27:18Z</time>
      </trkpt>
      <trkpt lat="38.1059310" lon="-1.1688580">
        <ele>184.6</ele>
        <time>2020-10-12T05:27:19Z</time>
      </trkpt>
      <trkpt lat="38.1059780" lon="-1.1687780">
        <ele>184.2</ele>
        <time>2020-10-12T05:27:20Z</time>
      </trkpt>
      <trkpt lat="38.1060220" lon="-1.1686940">
        <ele>183.6</ele>
        <time>2020-10-12T05:27:21Z</time>
      </trkpt>
      <trkpt lat="38.1060650" lon="-1.1686070">
        <ele>182.8</ele>
        <time>2020-10-12T05:27:22Z</time>
      </trkpt>
      <trkpt lat="38.1061070" lon="-1.1685170">
        <ele>182.4</ele>
        <time>2020-10-12T05:27:23Z</time>
      </trkpt>
      <trkpt lat="38.1061470" lon="-1.1684270">
        <ele>182.2</ele>
        <time>2020-10-12T05:27:24Z</time>
      </trkpt>
      <trkpt lat="38.1061870" lon="-1.1683360">
        <ele>182.2</ele>
        <time>2020-10-12T05:27:25Z</time>
      </trkpt>
      <trkpt lat="38.1062250" lon="-1.1682450">
        <ele>182.2</ele>
        <time>2020-10-12T05:27:26Z</time>
      </trkpt>
      <trkpt lat="38.1062610" lon="-1.1681520">
        <ele>182.4</ele>
        <time>2020-10-12T05:27:27Z</time>
      </trkpt>
      <trkpt lat="38.1062970" lon="-1.1680590">
        <ele>182.4</ele>
        <time>2020-10-12T05:27:28Z</time>
      </trkpt>
      <trkpt lat="38.1063320" lon="-1.1679650">
        <ele>182.4</ele>
        <time>2020-10-12T05:27:29Z</time>
      </trkpt>
      <trkpt lat="38.1063680" lon="-1.1678700">
        <ele>182.4</ele>
        <time>2020-10-12T05:27:30Z</time>
      </trkpt>
      <trkpt lat="38.1064030" lon="-1.1677750">
        <ele>182.4</ele>
        <time>2020-10-12T05:27:31Z</time>
      </trkpt>
      <trkpt lat="38.1064390" lon="-1.1676810">
        <ele>182.4</ele>
        <time>2020-10-12T05:27:32Z</time>
      </trkpt>
      <trkpt lat="38.1064770" lon="-1.1675880">
        <ele>182.2</ele>
        <time>2020-10-12T05:27:33Z</time>
      </trkpt>
      <trkpt lat="38.1065120" lon="-1.1674920">
        <ele>182.0</ele>
        <time>2020-10-12T05:27:34Z</time>
      </trkpt>
      <trkpt lat="38.1065470" lon="-1.1673950">
        <ele>182.0</ele>
        <time>2020-10-12T05:27:35Z</time>
      </trkpt>
      <trkpt lat="38.1065830" lon="-1.1672980">
        <ele>181.8</ele>
        <time>2020-10-12T05:27:36Z</time>
      </trkpt>
      <trkpt lat="38.1066210" lon="-1.1672020">
        <ele>181.6</ele>
        <time>2020-10-12T05:27:37Z</time>
      </trkpt>
      <trkpt lat="38.1066610" lon="-1.1671080">
        <ele>181.6</ele>
        <time>2020-10-12T05:27:38Z</time>
      </trkpt>
      <trkpt lat="38.1066990" lon="-1.1670150">
        <ele>181.6</ele>
        <time>2020-10-12T05:27:39Z</time>
      </trkpt>
      <trkpt lat="38.1067390" lon="-1.1669220">
        <ele>181.6</ele>
        <time>2020-10-12T05:27:40Z</time>
      </trkpt>
      <trkpt lat="38.1067760" lon="-1.1668290">
        <ele>181.8</ele>
        <time>2020-10-12T05:27:41Z</time>
      </trkpt>
      <trkpt lat="38.1068130" lon="-1.1667340">
        <ele>181.8</ele>
        <time>2020-10-12T05:27:42Z</time>
      </trkpt>
      <trkpt lat="38.1068480" lon="-1.1666400">
        <ele>181.8</ele>
        <time>2020-10-12T05:27:43Z</time>
      </trkpt>
      <trkpt lat="38.1068870" lon="-1.1665450">
        <ele>181.8</ele>
        <time>2020-10-12T05:27:44Z</time>
      </trkpt>
      <trkpt lat="38.1069270" lon="-1.1664510">
        <ele>181.4</ele>
        <time>2020-10-12T05:27:45Z</time>
      </trkpt>
      <trkpt lat="38.1069680" lon="-1.1663540">
        <ele>181.0</ele>
        <time>2020-10-12T05:27:46Z</time>
      </trkpt>
      <trkpt lat="38.1070090" lon="-1.1662570">
        <ele>180.6</ele>
        <time>2020-10-12T05:27:47Z</time>
      </trkpt>
      <trkpt lat="38.1070550" lon="-1.1661610">
        <ele>180.2</ele>
        <time>2020-10-12T05:27:48Z</time>
      </trkpt>
      <trkpt lat="38.1071010" lon="-1.1660660">
        <ele>180.0</ele>
        <time>2020-10-12T05:27:49Z</time>
      </trkpt>
      <trkpt lat="38.1071520" lon="-1.1659730">
        <ele>179.8</ele>
        <time>2020-10-12T05:27:50Z</time>
      </trkpt>
      <trkpt lat="38.1072020" lon="-1.1658820">
        <ele>179.6</ele>
        <time>2020-10-12T05:27:51Z</time>
      </trkpt>
      <trkpt lat="38.1072550" lon="-1.1657940">
        <ele>179.6</ele>
        <time>2020-10-12T05:27:52Z</time>
      </trkpt>
      <trkpt lat="38.1073110" lon="-1.1657100">
        <ele>179.4</ele>
        <time>2020-10-12T05:27:53Z</time>
      </trkpt>
      <trkpt lat="38.1073680" lon="-1.1656300">
        <ele>179.0</ele>
        <time>2020-10-12T05:27:54Z</time>
      </trkpt>
      <trkpt lat="38.1074260" lon="-1.1655550">
        <ele>178.6</ele>
        <time>2020-10-12T05:27:55Z</time>
      </trkpt>
      <trkpt lat="38.1074860" lon="-1.1654840">
        <ele>178.4</ele>
        <time>2020-10-12T05:27:56Z</time>
      </trkpt>
      <trkpt lat="38.1075470" lon="-1.1654140">
        <ele>178.2</ele>
        <time>2020-10-12T05:27:57Z</time>
      </trkpt>
      <trkpt lat="38.1076100" lon="-1.1653470">
        <ele>178.0</ele>
        <time>2020-10-12T05:27:58Z</time>
      </trkpt>
      <trkpt lat="38.1076740" lon="-1.1652820">
        <ele>178.0</ele>
        <time>2020-10-12T05:27:59Z</time>
      </trkpt>
      <trkpt lat="38.1077390" lon="-1.1652210">
        <ele>178.0</ele>
        <time>2020-10-12T05:28:00Z</time>
      </trkpt>
      <trkpt lat="38.1078050" lon="-1.1651600">
        <ele>178.0</ele>
        <time>2020-10-12T05:28:01Z</time>
      </trkpt>
      <trkpt lat="38.1078730" lon="-1.1651010">
        <ele>178.0</ele>
        <time>2020-10-12T05:28:02Z</time>
      </trkpt>
      <trkpt lat="38.1079380" lon="-1.1650440">
        <ele>178.0</ele>
        <time>2020-10-12T05:28:03Z</time>
      </trkpt>
      <trkpt lat="38.1080040" lon="-1.1649900">
        <ele>178.0</ele>
        <time>2020-10-12T05:28:04Z</time>
      </trkpt>
      <trkpt lat="38.1080730" lon="-1.1649370">
        <ele>177.8</ele>
        <time>2020-10-12T05:28:05Z</time>
      </trkpt>
      <trkpt lat="38.1081430" lon="-1.1648890">
        <ele>177.8</ele>
        <time>2020-10-12T05:28:06Z</time>
      </trkpt>
      <trkpt lat="38.1082150" lon="-1.1648450">
        <ele>177.8</ele>
        <time>2020-10-12T05:28:07Z</time>
      </trkpt>
      <trkpt lat="38.1082900" lon="-1.1648070">
        <ele>178.0</ele>
        <time>2020-10-12T05:28:08Z</time>
      </trkpt>
      <trkpt lat="38.1083630" lon="-1.1647710">
        <ele>178.2</ele>
        <time>2020-10-12T05:28:09Z</time>
      </trkpt>
      <trkpt lat="38.1084380" lon="-1.1647370">
        <ele>178.4</ele>
        <time>2020-10-12T05:28:10Z</time>
      </trkpt>
      <trkpt lat="38.1085120" lon="-1.1647040">
        <ele>178.8</ele>
        <time>2020-10-12T05:28:11Z</time>
      </trkpt>
      <trkpt lat="38.1085840" lon="-1.1646720">
        <ele>179.0</ele>
        <time>2020-10-12T05:28:12Z</time>
      </trkpt>
      <trkpt lat="38.1086530" lon="-1.1646400">
        <ele>179.2</ele>
        <time>2020-10-12T05:28:13Z</time>
      </trkpt>
      <trkpt lat="38.1087210" lon="-1.1646100">
        <ele>179.6</ele>
        <time>2020-10-12T05:28:14Z</time>
      </trkpt>
      <trkpt lat="38.1087880" lon="-1.1645780">
        <ele>179.6</ele>
        <time>2020-10-12T05:28:15Z</time>
      </trkpt>
      <trkpt lat="38.1088540" lon="-1.1645470">
        <ele>179.8</ele>
        <time>2020-10-12T05:28:16Z</time>
      </trkpt>
      <trkpt lat="38.1089150" lon="-1.1645130">
        <ele>180.0</ele>
        <time>2020-10-12T05:28:17Z</time>
      </trkpt>
      <trkpt lat="38.1089750" lon="-1.1644790">
        <ele>180.0</ele>
        <time>2020-10-12T05:28:18Z</time>
      </trkpt>
      <trkpt lat="38.1090360" lon="-1.1644460">
        <ele>180.4</ele>
        <time>2020-10-12T05:28:19Z</time>
      </trkpt>
      <trkpt lat="38.1090990" lon="-1.1644150">
        <ele>180.6</ele>
        <time>2020-10-12T05:28:20Z</time>
      </trkpt>
      <trkpt lat="38.1091600" lon="-1.1643830">
        <ele>180.8</ele>
        <time>2020-10-12T05:28:21Z</time>
      </trkpt>
      <trkpt lat="38.1092170" lon="-1.1643500">
        <ele>181.0</ele>
        <time>2020-10-12T05:28:22Z</time>
      </trkpt>
      <trkpt lat="38.1092710" lon="-1.1643130">
        <ele>181.0</ele>
        <time>2020-10-12T05:28:23Z</time>
      </trkpt>
      <trkpt lat="38.1093210" lon="-1.1642770">
        <ele>181.4</ele>
        <time>2020-10-12T05:28:24Z</time>
      </trkpt>
      <trkpt lat="38.1093740" lon="-1.1642370">
        <ele>181.6</ele>
        <time>2020-10-12T05:28:25Z</time>
      </trkpt>
      <trkpt lat="38.1094270" lon="-1.1641960">
        <ele>182.2</ele>
        <time>2020-10-12T05:28:26Z</time>
      </trkpt>
      <trkpt lat="38.1094790" lon="-1.1641530">
        <ele>183.0</ele>
        <time>2020-10-12T05:28:27Z</time>
      </trkpt>
      <trkpt lat="38.1095300" lon="-1.1641080">
        <ele>184.0</ele>
        <time>2020-10-12T05:28:28Z</time>
      </trkpt>
      <trkpt lat="38.1095770" lon="-1.1640600">
        <ele>184.8</ele>
        <time>2020-10-12T05:28:29Z</time>
      </trkpt>
      <trkpt lat="38.1096230" lon="-1.1640120">
        <ele>185.0</ele>
        <time>2020-10-12T05:28:30Z</time>
      </trkpt>
      <trkpt lat="38.1096730" lon="-1.1639620">
        <ele>185.2</ele>
        <time>2020-10-12T05:28:31Z</time>
      </trkpt>
      <trkpt lat="38.1097160" lon="-1.1639100">
        <ele>185.4</ele>
        <time>2020-10-12T05:28:32Z</time>
      </trkpt>
      <trkpt lat="38.1097620" lon="-1.1638560">
        <ele>185.6</ele>
        <time>2020-10-12T05:28:33Z</time>
      </trkpt>
      <trkpt lat="38.1098060" lon="-1.1638030">
        <ele>185.6</ele>
        <time>2020-10-12T05:28:34Z</time>
      </trkpt>
      <trkpt lat="38.1098510" lon="-1.1637490">
        <ele>185.6</ele>
        <time>2020-10-12T05:28:35Z</time>
      </trkpt>
      <trkpt lat="38.1098930" lon="-1.1636920">
        <ele>185.4</ele>
        <time>2020-10-12T05:28:36Z</time>
      </trkpt>
      <trkpt lat="38.1099350" lon="-1.1636380">
        <ele>185.6</ele>
        <time>2020-10-12T05:28:37Z</time>
      </trkpt>
      <trkpt lat="38.1099760" lon="-1.1635810">
        <ele>185.6</ele>
        <time>2020-10-12T05:28:38Z</time>
      </trkpt>
      <trkpt lat="38.1100190" lon="-1.1635280">
        <ele>185.6</ele>
        <time>2020-10-12T05:28:39Z</time>
      </trkpt>
      <trkpt lat="38.1100610" lon="-1.1634720">
        <ele>185.6</ele>
        <time>2020-10-12T05:28:40Z</time>
      </trkpt>
      <trkpt lat="38.1101040" lon="-1.1634130">
        <ele>185.8</ele>
        <time>2020-10-12T05:28:41Z</time>
      </trkpt>
      <trkpt lat="38.1101470" lon="-1.1633520">
        <ele>186.2</ele>
        <time>2020-10-12T05:28:42Z</time>
      </trkpt>
      <trkpt lat="38.1101920" lon="-1.1632930">
        <ele>187.0</ele>
        <time>2020-10-12T05:28:43Z</time>
      </trkpt>
      <trkpt lat="38.1102350" lon="-1.1632330">
        <ele>187.2</ele>
        <time>2020-10-12T05:28:44Z</time>
      </trkpt>
      <trkpt lat="38.1102790" lon="-1.1631760">
        <ele>187.4</ele>
        <time>2020-10-12T05:28:45Z</time>
      </trkpt>
      <trkpt lat="38.1103220" lon="-1.1631180">
        <ele>187.6</ele>
        <time>2020-10-12T05:28:46Z</time>
      </trkpt>
      <trkpt lat="38.1103630" lon="-1.1630590">
        <ele>187.6</ele>
        <time>2020-10-12T05:28:47Z</time>
      </trkpt>
      <trkpt lat="38.1104040" lon="-1.1629990">
        <ele>187.6</ele>
        <time>2020-10-12T05:28:48Z</time>
      </trkpt>
      <trkpt lat="38.1104410" lon="-1.1629390">
        <ele>187.6</ele>
        <time>2020-10-12T05:28:49Z</time>
      </trkpt>
      <trkpt lat="38.1104800" lon="-1.1628810">
        <ele>187.6</ele>
        <time>2020-10-12T05:28:50Z</time>
      </trkpt>
      <trkpt lat="38.1105200" lon="-1.1628230">
        <ele>187.8</ele>
        <time>2020-10-12T05:28:51Z</time>
      </trkpt>
      <trkpt lat="38.1105580" lon="-1.1627650">
        <ele>188.0</ele>
        <time>2020-10-12T05:28:52Z</time>
      </trkpt>
      <trkpt lat="38.1105970" lon="-1.1627070">
        <ele>188.4</ele>
        <time>2020-10-12T05:28:53Z</time>
      </trkpt>
      <trkpt lat="38.1106350" lon="-1.1626500">
        <ele>188.8</ele>
        <time>2020-10-12T05:28:54Z</time>
      </trkpt>
      <trkpt lat="38.1106730" lon="-1.1625930">
        <ele>189.4</ele>
        <time>2020-10-12T05:28:55Z</time>
      </trkpt>
      <trkpt lat="38.1107130" lon="-1.1625360">
        <ele>189.6</ele>
        <time>2020-10-12T05:28:56Z</time>
      </trkpt>
      <trkpt lat="38.1107540" lon="-1.1624780">
        <ele>189.8</ele>
        <time>2020-10-12T05:28:57Z</time>
      </trkpt>
      <trkpt lat="38.1107950" lon="-1.1624200">
        <ele>190.0</ele>
        <time>2020-10-12T05:28:58Z</time>
      </trkpt>
      <trkpt lat="38.1108360" lon="-1.1623640">
        <ele>190.0</ele>
        <time>2020-10-12T05:28:59Z</time>
      </trkpt>
      <trkpt lat="38.1108760" lon="-1.1623080">
        <ele>190.0</ele>
        <time>2020-10-12T05:29:00Z</time>
      </trkpt>
      <trkpt lat="38.1109160" lon="-1.1622530">
        <ele>190.0</ele>
        <time>2020-10-12T05:29:01Z</time>
      </trkpt>
      <trkpt lat="38.1109560" lon="-1.1621980">
        <ele>190.0</ele>
        <time>2020-10-12T05:29:02Z</time>
      </trkpt>
      <trkpt lat="38.1109990" lon="-1.1621450">
        <ele>190.0</ele>
        <time>2020-10-12T05:29:03Z</time>
      </trkpt>
      <trkpt lat="38.1110400" lon="-1.1620910">
        <ele>190.4</ele>
        <time>2020-10-12T05:29:04Z</time>
      </trkpt>
      <trkpt lat="38.1110810" lon="-1.1620390">
        <ele>190.6</ele>
        <time>2020-10-12T05:29:05Z</time>
      </trkpt>
      <trkpt lat="38.1111200" lon="-1.1619860">
        <ele>190.8</ele>
        <time>2020-10-12T05:29:06Z</time>
      </trkpt>
      <trkpt lat="38.1111600" lon="-1.1619350">
        <ele>190.8</ele>
        <time>2020-10-12T05:29:07Z</time>
      </trkpt>
      <trkpt lat="38.1111990" lon="-1.1618820">
        <ele>191.0</ele>
        <time>2020-10-12T05:29:08Z</time>
      </trkpt>
      <trkpt lat="38.1112410" lon="-1.1618280">
        <ele>191.0</ele>
        <time>2020-10-12T05:29:09Z</time>
      </trkpt>
      <trkpt lat="38.1112830" lon="-1.1617770">
        <ele>191.2</ele>
        <time>2020-10-12T05:29:10Z</time>
      </trkpt>
      <trkpt lat="38.1113280" lon="-1.1617250">
        <ele>191.4</ele>
        <time>2020-10-12T05:29:11Z</time>
      </trkpt>
      <trkpt lat="38.1113730" lon="-1.1616770">
        <ele>191.4</ele>
        <time>2020-10-12T05:29:12Z</time>
      </trkpt>
      <trkpt lat="38.1114220" lon="-1.1616300">
        <ele>191.4</ele>
        <time>2020-10-12T05:29:13Z</time>
      </trkpt>
      <trkpt lat="38.1114720" lon="-1.1615820">
        <ele>191.2</ele>
        <time>2020-10-12T05:29:14Z</time>
      </trkpt>
      <trkpt lat="38.1115260" lon="-1.1615370">
        <ele>191.2</ele>
        <time>2020-10-12T05:29:15Z</time>
      </trkpt>
      <trkpt lat="38.1115820" lon="-1.1614950">
        <ele>190.8</ele>
        <time>2020-10-12T05:29:16Z</time>
      </trkpt>
      <trkpt lat="38.1116430" lon="-1.1614570">
        <ele>190.2</ele>
        <time>2020-10-12T05:29:17Z</time>
      </trkpt>
      <trkpt lat="38.1117030" lon="-1.1614200">
        <ele>190.0</ele>
        <time>2020-10-12T05:29:18Z</time>
      </trkpt>
      <trkpt lat="38.1117660" lon="-1.1613850">
        <ele>189.6</ele>
        <time>2020-10-12T05:29:19Z</time>
      </trkpt>
      <trkpt lat="38.1118300" lon="-1.1613560">
        <ele>189.4</ele>
        <time>2020-10-12T05:29:20Z</time>
      </trkpt>
      <trkpt lat="38.1118970" lon="-1.1613270">
        <ele>189.2</ele>
        <time>2020-10-12T05:29:21Z</time>
      </trkpt>
      <trkpt lat="38.1119660" lon="-1.1613010">
        <ele>189.0</ele>
        <time>2020-10-12T05:29:22Z</time>
      </trkpt>
      <trkpt lat="38.1120380" lon="-1.1612800">
        <ele>188.6</ele>
        <time>2020-10-12T05:29:23Z</time>
      </trkpt>
      <trkpt lat="38.1121100" lon="-1.1612580">
        <ele>188.2</ele>
        <time>2020-10-12T05:29:24Z</time>
      </trkpt>
      <trkpt lat="38.1121820" lon="-1.1612400">
        <ele>187.6</ele>
        <time>2020-10-12T05:29:25Z</time>
      </trkpt>
      <trkpt lat="38.1122580" lon="-1.1612220">
        <ele>187.4</ele>
        <time>2020-10-12T05:29:26Z</time>
      </trkpt>
      <trkpt lat="38.1123360" lon="-1.1612050">
        <ele>187.0</ele>
        <time>2020-10-12T05:29:27Z</time>
      </trkpt>
      <trkpt lat="38.1124140" lon="-1.1611880">
        <ele>186.4</ele>
        <time>2020-10-12T05:29:28Z</time>
      </trkpt>
      <trkpt lat="38.1124910" lon="-1.1611700">
        <ele>186.2</ele>
        <time>2020-10-12T05:29:29Z</time>
      </trkpt>
      <trkpt lat="38.1125700" lon="-1.1611520">
        <ele>186.0</ele>
        <time>2020-10-12T05:29:30Z</time>
      </trkpt>
      <trkpt lat="38.1126520" lon="-1.1611350">
        <ele>185.8</ele>
        <time>2020-10-12T05:29:31Z</time>
      </trkpt>
      <trkpt lat="38.1127320" lon="-1.1611160">
        <ele>185.2</ele>
        <time>2020-10-12T05:29:32Z</time>
      </trkpt>
      <trkpt lat="38.1128090" lon="-1.1610980">
        <ele>185.2</ele>
        <time>2020-10-12T05:29:33Z</time>
      </trkpt>
      <trkpt lat="38.1128880" lon="-1.1610800">
        <ele>185.6</ele>
        <time>2020-10-12T05:29:34Z</time>
      </trkpt>
      <trkpt lat="38.1129710" lon="-1.1610630">
        <ele>185.8</ele>
        <time>2020-10-12T05:29:35Z</time>
      </trkpt>
      <trkpt lat="38.1130540" lon="-1.1610450">
        <ele>185.8</ele>
        <time>2020-10-12T05:29:36Z</time>
      </trkpt>
      <trkpt lat="38.1131380" lon="-1.1610270">
        <ele>186.0</ele>
        <time>2020-10-12T05:29:37Z</time>
      </trkpt>
      <trkpt lat="38.1132220" lon="-1.1610090">
        <ele>186.6</ele>
        <time>2020-10-12T05:29:38Z</time>
      </trkpt>
      <trkpt lat="38.1133070" lon="-1.1609880">
        <ele>186.8</ele>
        <time>2020-10-12T05:29:39Z</time>
      </trkpt>
      <trkpt lat="38.1133940" lon="-1.1609660">
        <ele>186.8</ele>
        <time>2020-10-12T05:29:40Z</time>
      </trkpt>
      <trkpt lat="38.1134810" lon="-1.1609420">
        <ele>186.6</ele>
        <time>2020-10-12T05:29:41Z</time>
      </trkpt>
      <trkpt lat="38.1135700" lon="-1.1609140">
        <ele>186.6</ele>
        <time>2020-10-12T05:29:42Z</time>
      </trkpt>
      <trkpt lat="38.1136580" lon="-1.1608850">
        <ele>186.2</ele>
        <time>2020-10-12T05:29:43Z</time>
      </trkpt>
      <trkpt lat="38.1137480" lon="-1.1608500">
        <ele>185.6</ele>
        <time>2020-10-12T05:29:44Z</time>
      </trkpt>
      <trkpt lat="38.1138420" lon="-1.1608080">
        <ele>184.4</ele>
        <time>2020-10-12T05:29:45Z</time>
      </trkpt>
      <trkpt lat="38.1139320" lon="-1.1607640">
        <ele>183.2</ele>
        <time>2020-10-12T05:29:46Z</time>
      </trkpt>
      <trkpt lat="38.1140200" lon="-1.1607150">
        <ele>181.8</ele>
        <time>2020-10-12T05:29:47Z</time>
      </trkpt>
      <trkpt lat="38.1141070" lon="-1.1606610">
        <ele>181.2</ele>
        <time>2020-10-12T05:29:48Z</time>
      </trkpt>
      <trkpt lat="38.1141950" lon="-1.1606030">
        <ele>181.0</ele>
        <time>2020-10-12T05:29:49Z</time>
      </trkpt>
      <trkpt lat="38.1142810" lon="-1.1605390">
        <ele>180.6</ele>
        <time>2020-10-12T05:29:50Z</time>
      </trkpt>
      <trkpt lat="38.1143670" lon="-1.1604680">
        <ele>180.4</ele>
        <time>2020-10-12T05:29:51Z</time>
      </trkpt>
      <trkpt lat="38.1144510" lon="-1.1603940">
        <ele>180.0</ele>
        <time>2020-10-12T05:29:52Z</time>
      </trkpt>
      <trkpt lat="38.1145350" lon="-1.1603160">
        <ele>179.6</ele>
        <time>2020-10-12T05:29:53Z</time>
      </trkpt>
      <trkpt lat="38.1146210" lon="-1.1602390">
        <ele>179.0</ele>
        <time>2020-10-12T05:29:54Z</time>
      </trkpt>
      <trkpt lat="38.1147070" lon="-1.1601590">
        <ele>178.2</ele>
        <time>2020-10-12T05:29:55Z</time>
      </trkpt>
      <trkpt lat="38.1147940" lon="-1.1600800">
        <ele>177.4</ele>
        <time>2020-10-12T05:29:56Z</time>
      </trkpt>
      <trkpt lat="38.1148820" lon="-1.1600000">
        <ele>176.6</ele>
        <time>2020-10-12T05:29:57Z</time>
      </trkpt>
      <trkpt lat="38.1149700" lon="-1.1599180">
        <ele>176.2</ele>
        <time>2020-10-12T05:29:58Z</time>
      </trkpt>
      <trkpt lat="38.1150590" lon="-1.1598350">
        <ele>175.8</ele>
        <time>2020-10-12T05:29:59Z</time>
      </trkpt>
      <trkpt lat="38.1151470" lon="-1.1597520">
        <ele>175.8</ele>
        <time>2020-10-12T05:30:00Z</time>
      </trkpt>
      <trkpt lat="38.1152360" lon="-1.1596710">
        <ele>175.4</ele>
        <time>2020-10-12T05:30:01Z</time>
      </trkpt>
      <trkpt lat="38.1153260" lon="-1.1595880">
        <ele>175.0</ele>
        <time>2020-10-12T05:30:02Z</time>
      </trkpt>
      <trkpt lat="38.1154150" lon="-1.1595050">
        <ele>174.6</ele>
        <time>2020-10-12T05:30:03Z</time>
      </trkpt>
      <trkpt lat="38.1155060" lon="-1.1594210">
        <ele>173.6</ele>
        <time>2020-10-12T05:30:04Z</time>
      </trkpt>
      <trkpt lat="38.1155970" lon="-1.1593350">
        <ele>172.6</ele>
        <time>2020-10-12T05:30:05Z</time>
      </trkpt>
      <trkpt lat="38.1156880" lon="-1.1592490">
        <ele>171.6</ele>
        <time>2020-10-12T05:30:06Z</time>
      </trkpt>
      <trkpt lat="38.1157770" lon="-1.1591580">
        <ele>171.0</ele>
        <time>2020-10-12T05:30:07Z</time>
      </trkpt>
      <trkpt lat="38.1158630" lon="-1.1590630">
        <ele>170.6</ele>
        <time>2020-10-12T05:30:08Z</time>
      </trkpt>
      <trkpt lat="38.1159440" lon="-1.1589630">
        <ele>170.6</ele>
        <time>2020-10-12T05:30:09Z</time>
      </trkpt>
      <trkpt lat="38.1160170" lon="-1.1588560">
        <ele>170.0</ele>
        <time>2020-10-12T05:30:10Z</time>
      </trkpt>
      <trkpt lat="38.1160810" lon="-1.1587430">
        <ele>169.8</ele>
        <time>2020-10-12T05:30:11Z</time>
      </trkpt>
      <trkpt lat="38.1161390" lon="-1.1586260">
        <ele>169.2</ele>
        <time>2020-10-12T05:30:12Z</time>
      </trkpt>
      <trkpt lat="38.1161940" lon="-1.1585070">
        <ele>168.8</ele>
        <time>2020-10-12T05:30:13Z</time>
      </trkpt>
      <trkpt lat="38.1162440" lon="-1.1583870">
        <ele>168.2</ele>
        <time>2020-10-12T05:30:14Z</time>
      </trkpt>
      <trkpt lat="38.1162900" lon="-1.1582660">
        <ele>167.6</ele>
        <time>2020-10-12T05:30:15Z</time>
      </trkpt>
      <trkpt lat="38.1163320" lon="-1.1581430">
        <ele>167.4</ele>
        <time>2020-10-12T05:30:16Z</time>
      </trkpt>
      <trkpt lat="38.1163730" lon="-1.1580210">
        <ele>167.2</ele>
        <time>2020-10-12T05:30:17Z</time>
      </trkpt>
      <trkpt lat="38.1164150" lon="-1.1578990">
        <ele>166.8</ele>
        <time>2020-10-12T05:30:18Z</time>
      </trkpt>
      <trkpt lat="38.1164610" lon="-1.1577820">
        <ele>166.6</ele>
        <time>2020-10-12T05:30:19Z</time>
      </trkpt>
      <trkpt lat="38.1165090" lon="-1.1576680">
        <ele>166.4</ele>
        <time>2020-10-12T05:30:20Z</time>
      </trkpt>
      <trkpt lat="38.1165590" lon="-1.1575570">
        <ele>166.6</ele>
        <time>2020-10-12T05:30:21Z</time>
      </trkpt>
      <trkpt lat="38.1166150" lon="-1.1574530">
        <ele>166.6</ele>
        <time>2020-10-12T05:30:22Z</time>
      </trkpt>
      <trkpt lat="38.1166750" lon="-1.1573530">
        <ele>166.6</ele>
        <time>2020-10-12T05:30:23Z</time>
      </trkpt>
      <trkpt lat="38.1167370" lon="-1.1572600">
        <ele>166.4</ele>
        <time>2020-10-12T05:30:24Z</time>
      </trkpt>
      <trkpt lat="38.1168010" lon="-1.1571730">
        <ele>166.0</ele>
        <time>2020-10-12T05:30:25Z</time>
      </trkpt>
      <trkpt lat="38.1168670" lon="-1.1570890">
        <ele>166.2</ele>
        <time>2020-10-12T05:30:26Z</time>
      </trkpt>
      <trkpt lat="38.1169370" lon="-1.1570110">
        <ele>165.8</ele>
        <time>2020-10-12T05:30:27Z</time>
      </trkpt>
      <trkpt lat="38.1170090" lon="-1.1569390">
        <ele>165.6</ele>
        <time>2020-10-12T05:30:28Z</time>
      </trkpt>
      <trkpt lat="38.1170830" lon="-1.1568730">
        <ele>165.6</ele>
        <time>2020-10-12T05:30:29Z</time>
      </trkpt>
      <trkpt lat="38.1171580" lon="-1.1568130">
        <ele>165.6</ele>
        <time>2020-10-12T05:30:30Z</time>
      </trkpt>
      <trkpt lat="38.1172370" lon="-1.1567590">
        <ele>165.6</ele>
        <time>2020-10-12T05:30:31Z</time>
      </trkpt>
      <trkpt lat="38.1173220" lon="-1.1567100">
        <ele>165.8</ele>
        <time>2020-10-12T05:30:32Z</time>
      </trkpt>
      <trkpt lat="38.1174070" lon="-1.1566630">
        <ele>165.8</ele>
        <time>2020-10-12T05:30:33Z</time>
      </trkpt>
      <trkpt lat="38.1174900" lon="-1.1566150">
        <ele>165.8</ele>
        <time>2020-10-12T05:30:34Z</time>
      </trkpt>
      <trkpt lat="38.1175730" lon="-1.1565680">
        <ele>165.6</ele>
        <time>2020-10-12T05:30:35Z</time>
      </trkpt>
      <trkpt lat="38.1176560" lon="-1.1565240">
        <ele>165.2</ele>
        <time>2020-10-12T05:30:36Z</time>
      </trkpt>
      <trkpt lat="38.1177380" lon="-1.1564790">
        <ele>164.8</ele>
        <time>2020-10-12T05:30:37Z</time>
      </trkpt>
      <trkpt lat="38.1178210" lon="-1.1564330">
        <ele>164.2</ele>
        <time>2020-10-12T05:30:38Z</time>
      </trkpt>
      <trkpt lat="38.1179050" lon="-1.1563890">
        <ele>163.6</ele>
        <time>2020-10-12T05:30:39Z</time>
      </trkpt>
      <trkpt lat="38.1179890" lon="-1.1563450">
        <ele>163.4</ele>
        <time>2020-10-12T05:30:40Z</time>
      </trkpt>
      <trkpt lat="38.1180740" lon="-1.1563010">
        <ele>162.8</ele>
        <time>2020-10-12T05:30:41Z</time>
      </trkpt>
      <trkpt lat="38.1181570" lon="-1.1562560">
        <ele>162.2</ele>
        <time>2020-10-12T05:30:42Z</time>
      </trkpt>
      <trkpt lat="38.1182420" lon="-1.1562100">
        <ele>161.8</ele>
        <time>2020-10-12T05:30:43Z</time>
      </trkpt>
      <trkpt lat="38.1183250" lon="-1.1561640">
        <ele>161.4</ele>
        <time>2020-10-12T05:30:44Z</time>
      </trkpt>
      <trkpt lat="38.1184090" lon="-1.1561190">
        <ele>161.0</ele>
        <time>2020-10-12T05:30:45Z</time>
      </trkpt>
      <trkpt lat="38.1184920" lon="-1.1560740">
        <ele>160.8</ele>
        <time>2020-10-12T05:30:46Z</time>
      </trkpt>
      <trkpt lat="38.1185770" lon="-1.1560300">
        <ele>160.8</ele>
        <time>2020-10-12T05:30:47Z</time>
      </trkpt>
      <trkpt lat="38.1186600" lon="-1.1559860">
        <ele>160.8</ele>
        <time>2020-10-12T05:30:48Z</time>
      </trkpt>
      <trkpt lat="38.1187440" lon="-1.1559400">
        <ele>160.8</ele>
        <time>2020-10-12T05:30:49Z</time>
      </trkpt>
      <trkpt lat="38.1188260" lon="-1.1558940">
        <ele>161.2</ele>
        <time>2020-10-12T05:30:50Z</time>
      </trkpt>
      <trkpt lat="38.1189100" lon="-1.1558490">
        <ele>161.2</ele>
        <time>2020-10-12T05:30:51Z</time>
      </trkpt>
      <trkpt lat="38.1189940" lon="-1.1558030">
        <ele>161.2</ele>
        <time>2020-10-12T05:30:52Z</time>
      </trkpt>
      <trkpt lat="38.1190780" lon="-1.1557560">
        <ele>161.0</ele>
        <time>2020-10-12T05:30:53Z</time>
      </trkpt>
      <trkpt lat="38.1191610" lon="-1.1557100">
        <ele>160.4</ele>
        <time>2020-10-12T05:30:54Z</time>
      </trkpt>
      <trkpt lat="38.1192450" lon="-1.1556640">
        <ele>160.2</ele>
        <time>2020-10-12T05:30:55Z</time>
      </trkpt>
      <trkpt lat="38.1193290" lon="-1.1556180">
        <ele>160.2</ele>
        <time>2020-10-12T05:30:56Z</time>
      </trkpt>
      <trkpt lat="38.1194140" lon="-1.1555720">
        <ele>160.2</ele>
        <time>2020-10-12T05:30:57Z</time>
      </trkpt>
      <trkpt lat="38.1194990" lon="-1.1555270">
        <ele>160.0</ele>
        <time>2020-10-12T05:30:58Z</time>
      </trkpt>
      <trkpt lat="38.1195840" lon="-1.1554810">
        <ele>159.8</ele>
        <time>2020-10-12T05:30:59Z</time>
      </trkpt>
      <trkpt lat="38.1196660" lon="-1.1554320">
        <ele>159.6</ele>
        <time>2020-10-12T05:31:00Z</time>
      </trkpt>
      <trkpt lat="38.1197500" lon="-1.1553830">
        <ele>159.4</ele>
        <time>2020-10-12T05:31:01Z</time>
      </trkpt>
      <trkpt lat="38.1198330" lon="-1.1553370">
        <ele>159.0</ele>
        <time>2020-10-12T05:31:02Z</time>
      </trkpt>
      <trkpt lat="38.1199170" lon="-1.1552890">
        <ele>158.8</ele>
        <time>2020-10-12T05:31:03Z</time>
      </trkpt>
      <trkpt lat="38.1200020" lon="-1.1552420">
        <ele>158.6</ele>
        <time>2020-10-12T05:31:04Z</time>
      </trkpt>
      <trkpt lat="38.1200870" lon="-1.1551950">
        <ele>158.2</ele>
        <time>2020-10-12T05:31:05Z</time>
      </trkpt>
      <trkpt lat="38.1201720" lon="-1.1551480">
        <ele>157.8</ele>
        <time>2020-10-12T05:31:06Z</time>
      </trkpt>
      <trkpt lat="38.1202570" lon="-1.1551010">
        <ele>157.6</ele>
        <time>2020-10-12T05:31:07Z</time>
      </trkpt>
      <trkpt lat="38.1203420" lon="-1.1550550">
        <ele>157.4</ele>
        <time>2020-10-12T05:31:08Z</time>
      </trkpt>
      <trkpt lat="38.1204290" lon="-1.1550070">
        <ele>157.4</ele>
        <time>2020-10-12T05:31:09Z</time>
      </trkpt>
      <trkpt lat="38.1205140" lon="-1.1549600">
        <ele>157.4</ele>
        <time>2020-10-12T05:31:10Z</time>
      </trkpt>
      <trkpt lat="38.1205990" lon="-1.1549130">
        <ele>157.4</ele>
        <time>2020-10-12T05:31:11Z</time>
      </trkpt>
      <trkpt lat="38.1206840" lon="-1.1548650">
        <ele>157.4</ele>
        <time>2020-10-12T05:31:12Z</time>
      </trkpt>
      <trkpt lat="38.1207700" lon="-1.1548180">
        <ele>157.4</ele>
        <time>2020-10-12T05:31:13Z</time>
      </trkpt>
      <trkpt lat="38.1208550" lon="-1.1547700">
        <ele>156.8</ele>
        <time>2020-10-12T05:31:14Z</time>
      </trkpt>
      <trkpt lat="38.1209410" lon="-1.1547220">
        <ele>156.2</ele>
        <time>2020-10-12T05:31:15Z</time>
      </trkpt>
      <trkpt lat="38.1210280" lon="-1.1546730">
        <ele>155.8</ele>
        <time>2020-10-12T05:31:16Z</time>
      </trkpt>
      <trkpt lat="38.1211150" lon="-1.1546260">
        <ele>155.2</ele>
        <time>2020-10-12T05:31:17Z</time>
      </trkpt>
      <trkpt lat="38.1212010" lon="-1.1545800">
        <ele>154.6</ele>
        <time>2020-10-12T05:31:18Z</time>
      </trkpt>
      <trkpt lat="38.1212880" lon="-1.1545330">
        <ele>154.0</ele>
        <time>2020-10-12T05:31:19Z</time>
      </trkpt>
      <trkpt lat="38.1213740" lon="-1.1544860">
        <ele>153.8</ele>
        <time>2020-10-12T05:31:20Z</time>
      </trkpt>
      <trkpt lat="38.1214600" lon="-1.1544380">
        <ele>153.6</ele>
        <time>2020-10-12T05:31:21Z</time>
      </trkpt>
      <trkpt lat="38.1215440" lon="-1.1543890">
        <ele>153.4</ele>
        <time>2020-10-12T05:31:22Z</time>
      </trkpt>
      <trkpt lat="38.1216300" lon="-1.1543420">
        <ele>153.2</ele>
        <time>2020-10-12T05:31:23Z</time>
      </trkpt>
      <trkpt lat="38.1217150" lon="-1.1542950">
        <ele>153.2</ele>
        <time>2020-10-12T05:31:24Z</time>
      </trkpt>
      <trkpt lat="38.1218010" lon="-1.1542470">
        <ele>153.0</ele>
        <time>2020-10-12T05:31:25Z</time>
      </trkpt>
      <trkpt lat="38.1218860" lon="-1.1542000">
        <ele>152.6</ele>
        <time>2020-10-12T05:31:26Z</time>
      </trkpt>
      <trkpt lat="38.1219710" lon="-1.1541520">
        <ele>152.4</ele>
        <time>2020-10-12T05:31:27Z</time>
      </trkpt>
      <trkpt lat="38.1220570" lon="-1.1541070">
        <ele>152.2</ele>
        <time>2020-10-12T05:31:28Z</time>
      </trkpt>
      <trkpt lat="38.1221420" lon="-1.1540620">
        <ele>152.0</ele>
        <time>2020-10-12T05:31:29Z</time>
      </trkpt>
      <trkpt lat="38.1222240" lon="-1.1540170">
        <ele>151.8</ele>
        <time>2020-10-12T05:31:30Z</time>
      </trkpt>
      <trkpt lat="38.1223080" lon="-1.1539700">
        <ele>151.8</ele>
        <time>2020-10-12T05:31:31Z</time>
      </trkpt>
      <trkpt lat="38.1223940" lon="-1.1539240">
        <ele>151.6</ele>
        <time>2020-10-12T05:31:32Z</time>
      </trkpt>
      <trkpt lat="38.1224790" lon="-1.1538770">
        <ele>151.6</ele>
        <time>2020-10-12T05:31:33Z</time>
      </trkpt>
      <trkpt lat="38.1225630" lon="-1.1538290">
        <ele>151.6</ele>
        <time>2020-10-12T05:31:34Z</time>
      </trkpt>
      <trkpt lat="38.1226480" lon="-1.1537810">
        <ele>151.6</ele>
        <time>2020-10-12T05:31:35Z</time>
      </trkpt>
      <trkpt lat="38.1227340" lon="-1.1537330">
        <ele>151.2</ele>
        <time>2020-10-12T05:31:36Z</time>
      </trkpt>
      <trkpt lat="38.1228190" lon="-1.1536870">
        <ele>151.0</ele>
        <time>2020-10-12T05:31:37Z</time>
      </trkpt>
      <trkpt lat="38.1229060" lon="-1.1536410">
        <ele>150.4</ele>
        <time>2020-10-12T05:31:38Z</time>
      </trkpt>
      <trkpt lat="38.1229930" lon="-1.1535940">
        <ele>150.2</ele>
        <time>2020-10-12T05:31:39Z</time>
      </trkpt>
      <trkpt lat="38.1230810" lon="-1.1535450">
        <ele>149.6</ele>
        <time>2020-10-12T05:31:40Z</time>
      </trkpt>
      <trkpt lat="38.1231710" lon="-1.1534940">
        <ele>149.2</ele>
        <time>2020-10-12T05:31:41Z</time>
      </trkpt>
      <trkpt lat="38.1232620" lon="-1.1534440">
        <ele>148.6</ele>
        <time>2020-10-12T05:31:42Z</time>
      </trkpt>
      <trkpt lat="38.1233520" lon="-1.1533930">
        <ele>148.0</ele>
        <time>2020-10-12T05:31:43Z</time>
      </trkpt>
      <trkpt lat="38.1234410" lon="-1.1533410">
        <ele>147.4</ele>
        <time>2020-10-12T05:31:44Z</time>
      </trkpt>
      <trkpt lat="38.1235320" lon="-1.1532880">
        <ele>147.0</ele>
        <time>2020-10-12T05:31:45Z</time>
      </trkpt>
      <trkpt lat="38.1236260" lon="-1.1532350">
        <ele>146.8</ele>
        <time>2020-10-12T05:31:46Z</time>
      </trkpt>
      <trkpt lat="38.1237220" lon="-1.1531820">
        <ele>146.6</ele>
        <time>2020-10-12T05:31:47Z</time>
      </trkpt>
      <trkpt lat="38.1238210" lon="-1.1531290">
        <ele>146.4</ele>
        <time>2020-10-12T05:31:48Z</time>
      </trkpt>
      <trkpt lat="38.1239220" lon="-1.1530760">
        <ele>146.0</ele>
        <time>2020-10-12T05:31:49Z</time>
      </trkpt>
      <trkpt lat="38.1240220" lon="-1.1530190">
        <ele>145.8</ele>
        <time>2020-10-12T05:31:50Z</time>
      </trkpt>
      <trkpt lat="38.1241200" lon="-1.1529610">
        <ele>145.2</ele>
        <time>2020-10-12T05:31:51Z</time>
      </trkpt>
      <trkpt lat="38.1242220" lon="-1.1529010">
        <ele>144.6</ele>
        <time>2020-10-12T05:31:52Z</time>
      </trkpt>
      <trkpt lat="38.1243210" lon="-1.1528350">
        <ele>143.8</ele>
        <time>2020-10-12T05:31:53Z</time>
      </trkpt>
      <trkpt lat="38.1244200" lon="-1.1527620">
        <ele>143.2</ele>
        <time>2020-10-12T05:31:54Z</time>
      </trkpt>
      <trkpt lat="38.1245150" lon="-1.1526820">
        <ele>143.0</ele>
        <time>2020-10-12T05:31:55Z</time>
      </trkpt>
      <trkpt lat="38.1246080" lon="-1.1525980">
        <ele>142.6</ele>
        <time>2020-10-12T05:31:56Z</time>
      </trkpt>
      <trkpt lat="38.1246960" lon="-1.1525090">
        <ele>142.2</ele>
        <time>2020-10-12T05:31:57Z</time>
      </trkpt>
      <trkpt lat="38.1247780" lon="-1.1524190">
        <ele>142.0</ele>
        <time>2020-10-12T05:31:58Z</time>
      </trkpt>
      <trkpt lat="38.1248530" lon="-1.1523250">
        <ele>141.8</ele>
        <time>2020-10-12T05:31:59Z</time>
      </trkpt>
      <trkpt lat="38.1249240" lon="-1.1522290">
        <ele>142.0</ele>
        <time>2020-10-12T05:32:00Z</time>
      </trkpt>
      <trkpt lat="38.1249860" lon="-1.1521300">
        <ele>142.0</ele>
        <time>2020-10-12T05:32:01Z</time>
      </trkpt>
      <trkpt lat="38.1250440" lon="-1.1520300">
        <ele>142.4</ele>
        <time>2020-10-12T05:32:02Z</time>
      </trkpt>
      <trkpt lat="38.1250950" lon="-1.1519320">
        <ele>142.8</ele>
        <time>2020-10-12T05:32:03Z</time>
      </trkpt>
      <trkpt lat="38.1251460" lon="-1.1518330">
        <ele>143.4</ele>
        <time>2020-10-12T05:32:04Z</time>
      </trkpt>
      <trkpt lat="38.1251920" lon="-1.1517350">
        <ele>143.6</ele>
        <time>2020-10-12T05:32:05Z</time>
      </trkpt>
      <trkpt lat="38.1252360" lon="-1.1516380">
        <ele>144.0</ele>
        <time>2020-10-12T05:32:06Z</time>
      </trkpt>
      <trkpt lat="38.1252740" lon="-1.1515420">
        <ele>144.2</ele>
        <time>2020-10-12T05:32:07Z</time>
      </trkpt>
      <trkpt lat="38.1253100" lon="-1.1514480">
        <ele>144.6</ele>
        <time>2020-10-12T05:32:08Z</time>
      </trkpt>
      <trkpt lat="38.1253440" lon="-1.1513550">
        <ele>145.0</ele>
        <time>2020-10-12T05:32:09Z</time>
      </trkpt>
      <trkpt lat="38.1253780" lon="-1.1512650">
        <ele>145.2</ele>
        <time>2020-10-12T05:32:10Z</time>
      </trkpt>
      <trkpt lat="38.1254120" lon="-1.1511740">
        <ele>145.8</ele>
        <time>2020-10-12T05:32:11Z</time>
      </trkpt>
      <trkpt lat="38.1254470" lon="-1.1510850">
        <ele>146.6</ele>
        <time>2020-10-12T05:32:12Z</time>
      </trkpt>
      <trkpt lat="38.1254810" lon="-1.1509970">
        <ele>147.4</ele>
        <time>2020-10-12T05:32:13Z</time>
      </trkpt>
      <trkpt lat="38.1255150" lon="-1.1509080">
        <ele>148.0</ele>
        <time>2020-10-12T05:32:14Z</time>
      </trkpt>
      <trkpt lat="38.1255500" lon="-1.1508220">
        <ele>148.6</ele>
        <time>2020-10-12T05:32:15Z</time>
      </trkpt>
      <trkpt lat="38.1255870" lon="-1.1507380">
        <ele>149.0</ele>
        <time>2020-10-12T05:32:16Z</time>
      </trkpt>
      <trkpt lat="38.1256280" lon="-1.1506580">
        <ele>149.6</ele>
        <time>2020-10-12T05:32:17Z</time>
      </trkpt>
      <trkpt lat="38.1256710" lon="-1.1505780">
        <ele>149.8</ele>
        <time>2020-10-12T05:32:18Z</time>
      </trkpt>
      <trkpt lat="38.1257170" lon="-1.1505000">
        <ele>150.0</ele>
        <time>2020-10-12T05:32:19Z</time>
      </trkpt>
      <trkpt lat="38.1257610" lon="-1.1504200">
        <ele>150.2</ele>
        <time>2020-10-12T05:32:20Z</time>
      </trkpt>
      <trkpt lat="38.1258080" lon="-1.1503410">
        <ele>150.2</ele>
        <time>2020-10-12T05:32:21Z</time>
      </trkpt>
      <trkpt lat="38.1258540" lon="-1.1502630">
        <ele>150.2</ele>
        <time>2020-10-12T05:32:22Z</time>
      </trkpt>
      <trkpt lat="38.1259020" lon="-1.1501820">
        <ele>150.2</ele>
        <time>2020-10-12T05:32:23Z</time>
      </trkpt>
      <trkpt lat="38.1259510" lon="-1.1501050">
        <ele>150.4</ele>
        <time>2020-10-12T05:32:24Z</time>
      </trkpt>
      <trkpt lat="38.1260020" lon="-1.1500290">
        <ele>150.2</ele>
        <time>2020-10-12T05:32:25Z</time>
      </trkpt>
      <trkpt lat="38.1260500" lon="-1.1499520">
        <ele>150.0</ele>
        <time>2020-10-12T05:32:26Z</time>
      </trkpt>
      <trkpt lat="38.1261030" lon="-1.1498770">
        <ele>149.6</ele>
        <time>2020-10-12T05:32:27Z</time>
      </trkpt>
      <trkpt lat="38.1261570" lon="-1.1498050">
        <ele>149.0</ele>
        <time>2020-10-12T05:32:28Z</time>
      </trkpt>
      <trkpt lat="38.1262130" lon="-1.1497340">
        <ele>148.6</ele>
        <time>2020-10-12T05:32:29Z</time>
      </trkpt>
      <trkpt lat="38.1262710" lon="-1.1496640">
        <ele>148.2</ele>
        <time>2020-10-12T05:32:30Z</time>
      </trkpt>
      <trkpt lat="38.1263300" lon="-1.1495950">
        <ele>148.0</ele>
        <time>2020-10-12T05:32:31Z</time>
      </trkpt>
      <trkpt lat="38.1263920" lon="-1.1495260">
        <ele>148.0</ele>
        <time>2020-10-12T05:32:32Z</time>
      </trkpt>
      <trkpt lat="38.1264590" lon="-1.1494570">
        <ele>147.8</ele>
        <time>2020-10-12T05:32:33Z</time>
      </trkpt>
      <trkpt lat="38.1265240" lon="-1.1493870">
        <ele>147.8</ele>
        <time>2020-10-12T05:32:34Z</time>
      </trkpt>
      <trkpt lat="38.1265910" lon="-1.1493170">
        <ele>147.6</ele>
        <time>2020-10-12T05:32:35Z</time>
      </trkpt>
      <trkpt lat="38.1266600" lon="-1.1492480">
        <ele>147.4</ele>
        <time>2020-10-12T05:32:36Z</time>
      </trkpt>
      <trkpt lat="38.1267290" lon="-1.1491750">
        <ele>147.2</ele>
        <time>2020-10-12T05:32:37Z</time>
      </trkpt>
      <trkpt lat="38.1267960" lon="-1.1490990">
        <ele>146.8</ele>
        <time>2020-10-12T05:32:38Z</time>
      </trkpt>
      <trkpt lat="38.1268600" lon="-1.1490210">
        <ele>146.4</ele>
        <time>2020-10-12T05:32:39Z</time>
      </trkpt>
      <trkpt lat="38.1269210" lon="-1.1489410">
        <ele>145.8</ele>
        <time>2020-10-12T05:32:40Z</time>
      </trkpt>
      <trkpt lat="38.1269720" lon="-1.1488530">
        <ele>145.4</ele>
        <time>2020-10-12T05:32:41Z</time>
      </trkpt>
      <trkpt lat="38.1270180" lon="-1.1487550">
        <ele>145.0</ele>
        <time>2020-10-12T05:32:42Z</time>
      </trkpt>
      <trkpt lat="38.1270580" lon="-1.1486510">
        <ele>144.6</ele>
        <time>2020-10-12T05:32:43Z</time>
      </trkpt>
      <trkpt lat="38.1270920" lon="-1.1485460">
        <ele>144.6</ele>
        <time>2020-10-12T05:32:44Z</time>
      </trkpt>
      <trkpt lat="38.1271200" lon="-1.1484390">
        <ele>144.6</ele>
        <time>2020-10-12T05:32:45Z</time>
      </trkpt>
      <trkpt lat="38.1271440" lon="-1.1483300">
        <ele>144.6</ele>
        <time>2020-10-12T05:32:46Z</time>
      </trkpt>
      <trkpt lat="38.1271640" lon="-1.1482180">
        <ele>144.8</ele>
        <time>2020-10-12T05:32:47Z</time>
      </trkpt>
      <trkpt lat="38.1271810" lon="-1.1481060">
        <ele>144.8</ele>
        <time>2020-10-12T05:32:48Z</time>
      </trkpt>
      <trkpt lat="38.1271890" lon="-1.1479920">
        <ele>145.0</ele>
        <time>2020-10-12T05:32:49Z</time>
      </trkpt>
      <trkpt lat="38.1271870" lon="-1.1478780">
        <ele>145.2</ele>
        <time>2020-10-12T05:32:50Z</time>
      </trkpt>
      <trkpt lat="38.1271760" lon="-1.1477640">
        <ele>145.2</ele>
        <time>2020-10-12T05:32:51Z</time>
      </trkpt>
      <trkpt lat="38.1271640" lon="-1.1476500">
        <ele>145.2</ele>
        <time>2020-10-12T05:32:52Z</time>
      </trkpt>
      <trkpt lat="38.1271480" lon="-1.1475390">
        <ele>145.2</ele>
        <time>2020-10-12T05:32:53Z</time>
      </trkpt>
      <trkpt lat="38.1271320" lon="-1.1474250">
        <ele>145.2</ele>
        <time>2020-10-12T05:32:54Z</time>
      </trkpt>
      <trkpt lat="38.1271140" lon="-1.1473140">
        <ele>145.2</ele>
        <time>2020-10-12T05:32:55Z</time>
      </trkpt>
      <trkpt lat="38.1270950" lon="-1.1472040">
        <ele>145.0</ele>
        <time>2020-10-12T05:32:56Z</time>
      </trkpt>
      <trkpt lat="38.1270740" lon="-1.1470940">
        <ele>145.0</ele>
        <time>2020-10-12T05:32:57Z</time>
      </trkpt>
      <trkpt lat="38.1270520" lon="-1.1469810">
        <ele>144.6</ele>
        <time>2020-10-12T05:32:58Z</time>
      </trkpt>
      <trkpt lat="38.1270300" lon="-1.1468670">
        <ele>144.2</ele>
        <time>2020-10-12T05:32:59Z</time>
      </trkpt>
      <trkpt lat="38.1270090" lon="-1.1467530">
        <ele>143.6</ele>
        <time>2020-10-12T05:33:00Z</time>
      </trkpt>
      <trkpt lat="38.1269900" lon="-1.1466370">
        <ele>143.4</ele>
        <time>2020-10-12T05:33:01Z</time>
      </trkpt>
      <trkpt lat="38.1269710" lon="-1.1465210">
        <ele>143.0</ele>
        <time>2020-10-12T05:33:02Z</time>
      </trkpt>
      <trkpt lat="38.1269540" lon="-1.1464050">
        <ele>142.8</ele>
        <time>2020-10-12T05:33:03Z</time>
      </trkpt>
      <trkpt lat="38.1269410" lon="-1.1462860">
        <ele>142.6</ele>
        <time>2020-10-12T05:33:04Z</time>
      </trkpt>
      <trkpt lat="38.1269340" lon="-1.1461690">
        <ele>142.6</ele>
        <time>2020-10-12T05:33:05Z</time>
      </trkpt>
      <trkpt lat="38.1269280" lon="-1.1460540">
        <ele>142.6</ele>
        <time>2020-10-12T05:33:06Z</time>
      </trkpt>
      <trkpt lat="38.1269270" lon="-1.1459400">
        <ele>142.6</ele>
        <time>2020-10-12T05:33:07Z</time>
      </trkpt>
      <trkpt lat="38.1269310" lon="-1.1458230">
        <ele>142.4</ele>
        <time>2020-10-12T05:33:08Z</time>
      </trkpt>
      <trkpt lat="38.1269400" lon="-1.1457120">
        <ele>142.2</ele>
        <time>2020-10-12T05:33:09Z</time>
      </trkpt>
      <trkpt lat="38.1269560" lon="-1.1455990">
        <ele>142.2</ele>
        <time>2020-10-12T05:33:10Z</time>
      </trkpt>
      <trkpt lat="38.1269790" lon="-1.1454880">
        <ele>142.2</ele>
        <time>2020-10-12T05:33:11Z</time>
      </trkpt>
      <trkpt lat="38.1270060" lon="-1.1453780">
        <ele>142.0</ele>
        <time>2020-10-12T05:33:12Z</time>
      </trkpt>
      <trkpt lat="38.1270360" lon="-1.1452690">
        <ele>141.8</ele>
        <time>2020-10-12T05:33:13Z</time>
      </trkpt>
      <trkpt lat="38.1270700" lon="-1.1451620">
        <ele>141.6</ele>
        <time>2020-10-12T05:33:14Z</time>
      </trkpt>
      <trkpt lat="38.1271050" lon="-1.1450540">
        <ele>141.4</ele>
        <time>2020-10-12T05:33:15Z</time>
      </trkpt>
      <trkpt lat="38.1271390" lon="-1.1449490">
        <ele>141.2</ele>
        <time>2020-10-12T05:33:16Z</time>
      </trkpt>
      <trkpt lat="38.1271720" lon="-1.1448450">
        <ele>141.0</ele>
        <time>2020-10-12T05:33:17Z</time>
      </trkpt>
      <trkpt lat="38.1272050" lon="-1.1447410">
        <ele>141.0</ele>
        <time>2020-10-12T05:33:18Z</time>
      </trkpt>
      <trkpt lat="38.1272390" lon="-1.1446400">
        <ele>140.8</ele>
        <time>2020-10-12T05:33:19Z</time>
      </trkpt>
      <trkpt lat="38.1272770" lon="-1.1445400">
        <ele>140.6</ele>
        <time>2020-10-12T05:33:20Z</time>
      </trkpt>
      <trkpt lat="38.1273100" lon="-1.1444380">
        <ele>140.6</ele>
        <time>2020-10-12T05:33:21Z</time>
      </trkpt>
      <trkpt lat="38.1273450" lon="-1.1443380">
        <ele>140.8</ele>
        <time>2020-10-12T05:33:22Z</time>
      </trkpt>
      <trkpt lat="38.1273830" lon="-1.1442390">
        <ele>141.0</ele>
        <time>2020-10-12T05:33:23Z</time>
      </trkpt>
      <trkpt lat="38.1274230" lon="-1.1441410">
        <ele>141.4</ele>
        <time>2020-10-12T05:33:24Z</time>
      </trkpt>
      <trkpt lat="38.1274670" lon="-1.1440430">
        <ele>141.6</ele>
        <time>2020-10-12T05:33:25Z</time>
      </trkpt>
      <trkpt lat="38.1275160" lon="-1.1439470">
        <ele>141.8</ele>
        <time>2020-10-12T05:33:26Z</time>
      </trkpt>
      <trkpt lat="38.1275730" lon="-1.1438570">
        <ele>141.8</ele>
        <time>2020-10-12T05:33:27Z</time>
      </trkpt>
      <trkpt lat="38.1276330" lon="-1.1437710">
        <ele>141.8</ele>
        <time>2020-10-12T05:33:28Z</time>
      </trkpt>
      <trkpt lat="38.1276930" lon="-1.1436850">
        <ele>141.8</ele>
        <time>2020-10-12T05:33:29Z</time>
      </trkpt>
      <trkpt lat="38.1277560" lon="-1.1436040">
        <ele>141.4</ele>
        <time>2020-10-12T05:33:30Z</time>
      </trkpt>
      <trkpt lat="38.1278200" lon="-1.1435240">
        <ele>141.2</ele>
        <time>2020-10-12T05:33:31Z</time>
      </trkpt>
      <trkpt lat="38.1278840" lon="-1.1434440">
        <ele>141.0</ele>
        <time>2020-10-12T05:33:32Z</time>
      </trkpt>
      <trkpt lat="38.1279490" lon="-1.1433630">
        <ele>140.8</ele>
        <time>2020-10-12T05:33:33Z</time>
      </trkpt>
      <trkpt lat="38.1280130" lon="-1.1432810">
        <ele>140.8</ele>
        <time>2020-10-12T05:33:34Z</time>
      </trkpt>
      <trkpt lat="38.1280800" lon="-1.1432010">
        <ele>140.4</ele>
        <time>2020-10-12T05:33:35Z</time>
      </trkpt>
      <trkpt lat="38.1281460" lon="-1.1431210">
        <ele>140.2</ele>
        <time>2020-10-12T05:33:36Z</time>
      </trkpt>
      <trkpt lat="38.1282110" lon="-1.1430400">
        <ele>140.2</ele>
        <time>2020-10-12T05:33:37Z</time>
      </trkpt>
      <trkpt lat="38.1282750" lon="-1.1429600">
        <ele>140.0</ele>
        <time>2020-10-12T05:33:38Z</time>
      </trkpt>
      <trkpt lat="38.1283350" lon="-1.1428780">
        <ele>139.8</ele>
        <time>2020-10-12T05:33:39Z</time>
      </trkpt>
      <trkpt lat="38.1283950" lon="-1.1427970">
        <ele>139.6</ele>
        <time>2020-10-12T05:33:40Z</time>
      </trkpt>
      <trkpt lat="38.1284520" lon="-1.1427140">
        <ele>139.6</ele>
        <time>2020-10-12T05:33:41Z</time>
      </trkpt>
      <trkpt lat="38.1285100" lon="-1.1426330">
        <ele>139.4</ele>
        <time>2020-10-12T05:33:42Z</time>
      </trkpt>
      <trkpt lat="38.1285640" lon="-1.1425460">
        <ele>139.4</ele>
        <time>2020-10-12T05:33:43Z</time>
      </trkpt>
      <trkpt lat="38.1286150" lon="-1.1424550">
        <ele>139.4</ele>
        <time>2020-10-12T05:33:44Z</time>
      </trkpt>
      <trkpt lat="38.1286630" lon="-1.1423580">
        <ele>139.4</ele>
        <time>2020-10-12T05:33:45Z</time>
      </trkpt>
      <trkpt lat="38.1287080" lon="-1.1422580">
        <ele>139.4</ele>
        <time>2020-10-12T05:33:46Z</time>
      </trkpt>
      <trkpt lat="38.1287500" lon="-1.1421550">
        <ele>139.4</ele>
        <time>2020-10-12T05:33:47Z</time>
      </trkpt>
      <trkpt lat="38.1287860" lon="-1.1420500">
        <ele>139.2</ele>
        <time>2020-10-12T05:33:48Z</time>
      </trkpt>
      <trkpt lat="38.1288200" lon="-1.1419440">
        <ele>139.2</ele>
        <time>2020-10-12T05:33:49Z</time>
      </trkpt>
      <trkpt lat="38.1288490" lon="-1.1418310">
        <ele>139.0</ele>
        <time>2020-10-12T05:33:50Z</time>
      </trkpt>
      <trkpt lat="38.1288760" lon="-1.1417160">
        <ele>138.8</ele>
        <time>2020-10-12T05:33:51Z</time>
      </trkpt>
      <trkpt lat="38.1289070" lon="-1.1416010">
        <ele>138.6</ele>
        <time>2020-10-12T05:33:52Z</time>
      </trkpt>
      <trkpt lat="38.1289360" lon="-1.1414860">
        <ele>138.4</ele>
        <time>2020-10-12T05:33:53Z</time>
      </trkpt>
      <trkpt lat="38.1289660" lon="-1.1413720">
        <ele>138.0</ele>
        <time>2020-10-12T05:33:54Z</time>
      </trkpt>
      <trkpt lat="38.1289980" lon="-1.1412570">
        <ele>137.8</ele>
        <time>2020-10-12T05:33:55Z</time>
      </trkpt>
      <trkpt lat="38.1290300" lon="-1.1411410">
        <ele>137.6</ele>
        <time>2020-10-12T05:33:56Z</time>
      </trkpt>
      <trkpt lat="38.1290640" lon="-1.1410240">
        <ele>137.4</ele>
        <time>2020-10-12T05:33:57Z</time>
      </trkpt>
      <trkpt lat="38.1290990" lon="-1.1409060">
        <ele>137.0</ele>
        <time>2020-10-12T05:33:58Z</time>
      </trkpt>
      <trkpt lat="38.1291390" lon="-1.1407870">
        <ele>136.8</ele>
        <time>2020-10-12T05:33:59Z</time>
      </trkpt>
      <trkpt lat="38.1291870" lon="-1.1406740">
        <ele>136.6</ele>
        <time>2020-10-12T05:34:00Z</time>
      </trkpt>
      <trkpt lat="38.1292420" lon="-1.1405670">
        <ele>136.0</ele>
        <time>2020-10-12T05:34:01Z</time>
      </trkpt>
      <trkpt lat="38.1293020" lon="-1.1404650">
        <ele>135.6</ele>
        <time>2020-10-12T05:34:02Z</time>
      </trkpt>
      <trkpt lat="38.1293630" lon="-1.1403650">
        <ele>135.2</ele>
        <time>2020-10-12T05:34:03Z</time>
      </trkpt>
      <trkpt lat="38.1294260" lon="-1.1402660">
        <ele>135.0</ele>
        <time>2020-10-12T05:34:04Z</time>
      </trkpt>
      <trkpt lat="38.1294910" lon="-1.1401680">
        <ele>134.6</ele>
        <time>2020-10-12T05:34:05Z</time>
      </trkpt>
      <trkpt lat="38.1295590" lon="-1.1400720">
        <ele>134.2</ele>
        <time>2020-10-12T05:34:06Z</time>
      </trkpt>
      <trkpt lat="38.1296280" lon="-1.1399790">
        <ele>133.8</ele>
        <time>2020-10-12T05:34:07Z</time>
      </trkpt>
      <trkpt lat="38.1296990" lon="-1.1398880">
        <ele>133.4</ele>
        <time>2020-10-12T05:34:08Z</time>
      </trkpt>
      <trkpt lat="38.1297720" lon="-1.1398000">
        <ele>133.0</ele>
        <time>2020-10-12T05:34:09Z</time>
      </trkpt>
      <trkpt lat="38.1298480" lon="-1.1397170">
        <ele>132.8</ele>
        <time>2020-10-12T05:34:10Z</time>
      </trkpt>
      <trkpt lat="38.1299280" lon="-1.1396420">
        <ele>132.4</ele>
        <time>2020-10-12T05:34:11Z</time>
      </trkpt>
      <trkpt lat="38.1300130" lon="-1.1395700">
        <ele>132.0</ele>
        <time>2020-10-12T05:34:12Z</time>
      </trkpt>
      <trkpt lat="38.1300990" lon="-1.1395010">
        <ele>131.6</ele>
        <time>2020-10-12T05:34:13Z</time>
      </trkpt>
      <trkpt lat="38.1301880" lon="-1.1394360">
        <ele>131.2</ele>
        <time>2020-10-12T05:34:14Z</time>
      </trkpt>
      <trkpt lat="38.1302800" lon="-1.1393740">
        <ele>130.8</ele>
        <time>2020-10-12T05:34:15Z</time>
      </trkpt>
      <trkpt lat="38.1303740" lon="-1.1393130">
        <ele>130.0</ele>
        <time>2020-10-12T05:34:16Z</time>
      </trkpt>
      <trkpt lat="38.1304670" lon="-1.1392510">
        <ele>129.0</ele>
        <time>2020-10-12T05:34:17Z</time>
      </trkpt>
      <trkpt lat="38.1305610" lon="-1.1391870">
        <ele>128.2</ele>
        <time>2020-10-12T05:34:18Z</time>
      </trkpt>
      <trkpt lat="38.1306540" lon="-1.1391230">
        <ele>127.6</ele>
        <time>2020-10-12T05:34:19Z</time>
      </trkpt>
      <trkpt lat="38.1307470" lon="-1.1390550">
        <ele>127.4</ele>
        <time>2020-10-12T05:34:20Z</time>
      </trkpt>
      <trkpt lat="38.1308370" lon="-1.1389820">
        <ele>127.0</ele>
        <time>2020-10-12T05:34:21Z</time>
      </trkpt>
      <trkpt lat="38.1309240" lon="-1.1389030">
        <ele>126.8</ele>
        <time>2020-10-12T05:34:22Z</time>
      </trkpt>
      <trkpt lat="38.1310060" lon="-1.1388200">
        <ele>126.4</ele>
        <time>2020-10-12T05:34:23Z</time>
      </trkpt>
      <trkpt lat="38.1310820" lon="-1.1387290">
        <ele>126.4</ele>
        <time>2020-10-12T05:34:24Z</time>
      </trkpt>
      <trkpt lat="38.1311560" lon="-1.1386330">
        <ele>126.2</ele>
        <time>2020-10-12T05:34:25Z</time>
      </trkpt>
      <trkpt lat="38.1312240" lon="-1.1385340">
        <ele>126.0</ele>
        <time>2020-10-12T05:34:26Z</time>
      </trkpt>
      <trkpt lat="38.1312870" lon="-1.1384360">
        <ele>125.8</ele>
        <time>2020-10-12T05:34:27Z</time>
      </trkpt>
      <trkpt lat="38.1313430" lon="-1.1383350">
        <ele>125.8</ele>
        <time>2020-10-12T05:34:28Z</time>
      </trkpt>
      <trkpt lat="38.1313970" lon="-1.1382330">
        <ele>126.2</ele>
        <time>2020-10-12T05:34:29Z</time>
      </trkpt>
      <trkpt lat="38.1314460" lon="-1.1381310">
        <ele>126.4</ele>
        <time>2020-10-12T05:34:30Z</time>
      </trkpt>
      <trkpt lat="38.1314910" lon="-1.1380300">
        <ele>127.0</ele>
        <time>2020-10-12T05:34:31Z</time>
      </trkpt>
      <trkpt lat="38.1315350" lon="-1.1379300">
        <ele>127.2</ele>
        <time>2020-10-12T05:34:32Z</time>
      </trkpt>
      <trkpt lat="38.1315750" lon="-1.1378300">
        <ele>127.8</ele>
        <time>2020-10-12T05:34:33Z</time>
      </trkpt>
      <trkpt lat="38.1316140" lon="-1.1377290">
        <ele>128.2</ele>
        <time>2020-10-12T05:34:34Z</time>
      </trkpt>
      <trkpt lat="38.1316520" lon="-1.1376280">
        <ele>129.0</ele>
        <time>2020-10-12T05:34:35Z</time>
      </trkpt>
      <trkpt lat="38.1316890" lon="-1.1375300">
        <ele>129.8</ele>
        <time>2020-10-12T05:34:36Z</time>
      </trkpt>
      <trkpt lat="38.1317250" lon="-1.1374320">
        <ele>130.4</ele>
        <time>2020-10-12T05:34:37Z</time>
      </trkpt>
      <trkpt lat="38.1317580" lon="-1.1373340">
        <ele>130.8</ele>
        <time>2020-10-12T05:34:38Z</time>
      </trkpt>
      <trkpt lat="38.1317880" lon="-1.1372370">
        <ele>131.2</ele>
        <time>2020-10-12T05:34:39Z</time>
      </trkpt>
      <trkpt lat="38.1318190" lon="-1.1371410">
        <ele>131.4</ele>
        <time>2020-10-12T05:34:40Z</time>
      </trkpt>
      <trkpt lat="38.1318490" lon="-1.1370450">
        <ele>131.6</ele>
        <time>2020-10-12T05:34:41Z</time>
      </trkpt>
      <trkpt lat="38.1318790" lon="-1.1369510">
        <ele>131.8</ele>
        <time>2020-10-12T05:34:42Z</time>
      </trkpt>
      <trkpt lat="38.1319100" lon="-1.1368570">
        <ele>131.8</ele>
        <time>2020-10-12T05:34:43Z</time>
      </trkpt>
      <trkpt lat="38.1319400" lon="-1.1367630">
        <ele>131.8</ele>
        <time>2020-10-12T05:34:44Z</time>
      </trkpt>
      <trkpt lat="38.1319690" lon="-1.1366680">
        <ele>131.8</ele>
        <time>2020-10-12T05:34:45Z</time>
      </trkpt>
      <trkpt lat="38.1319980" lon="-1.1365720">
        <ele>131.8</ele>
        <time>2020-10-12T05:34:46Z</time>
      </trkpt>
      <trkpt lat="38.1320270" lon="-1.1364760">
        <ele>131.8</ele>
        <time>2020-10-12T05:34:47Z</time>
      </trkpt>
      <trkpt lat="38.1320570" lon="-1.1363800">
        <ele>131.8</ele>
        <time>2020-10-12T05:34:48Z</time>
      </trkpt>
      <trkpt lat="38.1320850" lon="-1.1362850">
        <ele>132.0</ele>
        <time>2020-10-12T05:34:49Z</time>
      </trkpt>
      <trkpt lat="38.1321140" lon="-1.1361900">
        <ele>132.0</ele>
        <time>2020-10-12T05:34:50Z</time>
      </trkpt>
      <trkpt lat="38.1321430" lon="-1.1360960">
        <ele>132.0</ele>
        <time>2020-10-12T05:34:51Z</time>
      </trkpt>
      <trkpt lat="38.1321750" lon="-1.1360040">
        <ele>132.0</ele>
        <time>2020-10-12T05:34:52Z</time>
      </trkpt>
      <trkpt lat="38.1322090" lon="-1.1359130">
        <ele>132.0</ele>
        <time>2020-10-12T05:34:53Z</time>
      </trkpt>
      <trkpt lat="38.1322470" lon="-1.1358240">
        <ele>132.0</ele>
        <time>2020-10-12T05:34:54Z</time>
      </trkpt>
      <trkpt lat="38.1322880" lon="-1.1357360">
        <ele>131.8</ele>
        <time>2020-10-12T05:34:55Z</time>
      </trkpt>
      <trkpt lat="38.1323350" lon="-1.1356510">
        <ele>131.8</ele>
        <time>2020-10-12T05:34:56Z</time>
      </trkpt>
      <trkpt lat="38.1323850" lon="-1.1355700">
        <ele>131.8</ele>
        <time>2020-10-12T05:34:57Z</time>
      </trkpt>
      <trkpt lat="38.1324410" lon="-1.1354940">
        <ele>131.8</ele>
        <time>2020-10-12T05:34:58Z</time>
      </trkpt>
      <trkpt lat="38.1324990" lon="-1.1354220">
        <ele>131.8</ele>
        <time>2020-10-12T05:34:59Z</time>
      </trkpt>
      <trkpt lat="38.1325620" lon="-1.1353570">
        <ele>131.8</ele>
        <time>2020-10-12T05:35:00Z</time>
      </trkpt>
      <trkpt lat="38.1326280" lon="-1.1352960">
        <ele>132.0</ele>
        <time>2020-10-12T05:35:01Z</time>
      </trkpt>
      <trkpt lat="38.1326980" lon="-1.1352430">
        <ele>132.0</ele>
        <time>2020-10-12T05:35:02Z</time>
      </trkpt>
      <trkpt lat="38.1327730" lon="-1.1351980">
        <ele>132.0</ele>
        <time>2020-10-12T05:35:03Z</time>
      </trkpt>
      <trkpt lat="38.1328530" lon="-1.1351670">
        <ele>131.6</ele>
        <time>2020-10-12T05:35:04Z</time>
      </trkpt>
      <trkpt lat="38.1329330" lon="-1.1351380">
        <ele>130.8</ele>
        <time>2020-10-12T05:35:05Z</time>
      </trkpt>
      <trkpt lat="38.1330130" lon="-1.1351150">
        <ele>129.8</ele>
        <time>2020-10-12T05:35:06Z</time>
      </trkpt>
      <trkpt lat="38.1330930" lon="-1.1350960">
        <ele>129.2</ele>
        <time>2020-10-12T05:35:07Z</time>
      </trkpt>
      <trkpt lat="38.1331720" lon="-1.1350790">
        <ele>128.8</ele>
        <time>2020-10-12T05:35:08Z</time>
      </trkpt>
      <trkpt lat="38.1332520" lon="-1.1350680">
        <ele>128.6</ele>
        <time>2020-10-12T05:35:09Z</time>
      </trkpt>
      <trkpt lat="38.1333300" lon="-1.1350620">
        <ele>128.6</ele>
        <time>2020-10-12T05:35:10Z</time>
      </trkpt>
      <trkpt lat="38.1334080" lon="-1.1350580">
        <ele>128.6</ele>
        <time>2020-10-12T05:35:11Z</time>
      </trkpt>
      <trkpt lat="38.1334840" lon="-1.1350570">
        <ele>128.6</ele>
        <time>2020-10-12T05:35:12Z</time>
      </trkpt>
      <trkpt lat="38.1335570" lon="-1.1350560">
        <ele>128.6</ele>
        <time>2020-10-12T05:35:13Z</time>
      </trkpt>
      <trkpt lat="38.1336310" lon="-1.1350540">
        <ele>128.8</ele>
        <time>2020-10-12T05:35:14Z</time>
      </trkpt>
      <trkpt lat="38.1337020" lon="-1.1350530">
        <ele>129.0</ele>
        <time>2020-10-12T05:35:15Z</time>
      </trkpt>
      <trkpt lat="38.1337710" lon="-1.1350530">
        <ele>129.2</ele>
        <time>2020-10-12T05:35:16Z</time>
      </trkpt>
      <trkpt lat="38.1338400" lon="-1.1350530">
        <ele>129.6</ele>
        <time>2020-10-12T05:35:17Z</time>
      </trkpt>
      <trkpt lat="38.1339060" lon="-1.1350520">
        <ele>130.0</ele>
        <time>2020-10-12T05:35:18Z</time>
      </trkpt>
      <trkpt lat="38.1339690" lon="-1.1350480">
        <ele>130.2</ele>
        <time>2020-10-12T05:35:19Z</time>
      </trkpt>
      <trkpt lat="38.1340280" lon="-1.1350400">
        <ele>130.6</ele>
        <time>2020-10-12T05:35:20Z</time>
      </trkpt>
      <trkpt lat="38.1340850" lon="-1.1350310">
        <ele>131.0</ele>
        <time>2020-10-12T05:35:21Z</time>
      </trkpt>
      <trkpt lat="38.1341400" lon="-1.1350240">
        <ele>131.4</ele>
        <time>2020-10-12T05:35:22Z</time>
      </trkpt>
      <trkpt lat="38.1341910" lon="-1.1350130">
        <ele>131.8</ele>
        <time>2020-10-12T05:35:23Z</time>
      </trkpt>
      <trkpt lat="38.1342420" lon="-1.1349990">
        <ele>132.2</ele>
        <time>2020-10-12T05:35:24Z</time>
      </trkpt>
      <trkpt lat="38.1342900" lon="-1.1349850">
        <ele>132.4</ele>
        <time>2020-10-12T05:35:25Z</time>
      </trkpt>
      <trkpt lat="38.1343370" lon="-1.1349730">
        <ele>132.8</ele>
        <time>2020-10-12T05:35:26Z</time>
      </trkpt>
      <trkpt lat="38.1343810" lon="-1.1349590">
        <ele>133.4</ele>
        <time>2020-10-12T05:35:27Z</time>
      </trkpt>
      <trkpt lat="38.1344250" lon="-1.1349400">
        <ele>134.2</ele>
        <time>2020-10-12T05:35:28Z</time>
      </trkpt>
      <trkpt lat="38.1344670" lon="-1.1349250">
        <ele>135.0</ele>
        <time>2020-10-12T05:35:29Z</time>
      </trkpt>
      <trkpt lat="38.1345090" lon="-1.1349050">
        <ele>135.6</ele>
        <time>2020-10-12T05:35:30Z</time>
      </trkpt>
      <trkpt lat="38.1345510" lon="-1.1348860">
        <ele>136.2</ele>
        <time>2020-10-12T05:35:31Z</time>
      </trkpt>
      <trkpt lat="38.1345940" lon="-1.1348670">
        <ele>136.6</ele>
        <time>2020-10-12T05:35:32Z</time>
      </trkpt>
      <trkpt lat="38.1346350" lon="-1.1348450">
        <ele>136.8</ele>
        <time>2020-10-12T05:35:33Z</time>
      </trkpt>
      <trkpt lat="38.1346770" lon="-1.1348250">
        <ele>136.8</ele>
        <time>2020-10-12T05:35:34Z</time>
      </trkpt>
      <trkpt lat="38.1347180" lon="-1.1348040">
        <ele>137.0</ele>
        <time>2020-10-12T05:35:35Z</time>
      </trkpt>
      <trkpt lat="38.1347600" lon="-1.1347830">
        <ele>137.0</ele>
        <time>2020-10-12T05:35:36Z</time>
      </trkpt>
      <trkpt lat="38.1348000" lon="-1.1347630">
        <ele>137.0</ele>
        <time>2020-10-12T05:35:37Z</time>
      </trkpt>
      <trkpt lat="38.1348370" lon="-1.1347440">
        <ele>137.4</ele>
        <time>2020-10-12T05:35:38Z</time>
      </trkpt>
      <trkpt lat="38.1348730" lon="-1.1347260">
        <ele>138.0</ele>
        <time>2020-10-12T05:35:39Z</time>
      </trkpt>
      <trkpt lat="38.1349080" lon="-1.1347090">
        <ele>138.8</ele>
        <time>2020-10-12T05:35:40Z</time>
      </trkpt>
      <trkpt lat="38.1349470" lon="-1.1346920">
        <ele>139.4</ele>
        <time>2020-10-12T05:35:41Z</time>
      </trkpt>
      <trkpt lat="38.1349780" lon="-1.1346770">
        <ele>140.0</ele>
        <time>2020-10-12T05:35:42Z</time>
      </trkpt>
      <trkpt lat="38.1350070" lon="-1.1346620">
        <ele>140.4</ele>
        <time>2020-10-12T05:35:43Z</time>
      </trkpt>
      <trkpt lat="38.1350350" lon="-1.1346470">
        <ele>140.8</ele>
        <time>2020-10-12T05:35:44Z</time>
      </trkpt>
      <trkpt lat="38.1350680" lon="-1.1346340">
        <ele>141.2</ele>
        <time>2020-10-12T05:35:45Z</time>
      </trkpt>
      <trkpt lat="38.1351010" lon="-1.1346220">
        <ele>141.6</ele>
        <time>2020-10-12T05:35:46Z</time>
      </trkpt>
      <trkpt lat="38.1351340" lon="-1.1346090">
        <ele>142.2</ele>
        <time>2020-10-12T05:35:47Z</time>
      </trkpt>
      <trkpt lat="38.1351660" lon="-1.1345990">
        <ele>142.8</ele>
        <time>2020-10-12T05:35:48Z</time>
      </trkpt>
      <trkpt lat="38.1352020" lon="-1.1345900">
        <ele>143.2</ele>
        <time>2020-10-12T05:35:49Z</time>
      </trkpt>
      <trkpt lat="38.1352400" lon="-1.1345800">
        <ele>143.6</ele>
        <time>2020-10-12T05:35:50Z</time>
      </trkpt>
      <trkpt lat="38.1352770" lon="-1.1345700">
        <ele>143.8</ele>
        <time>2020-10-12T05:35:51Z</time>
      </trkpt>
      <trkpt lat="38.1353120" lon="-1.1345630">
        <ele>144.4</ele>
        <time>2020-10-12T05:35:52Z</time>
      </trkpt>
      <trkpt lat="38.1353460" lon="-1.1345570">
        <ele>144.6</ele>
        <time>2020-10-12T05:35:53Z</time>
      </trkpt>
      <trkpt lat="38.1353830" lon="-1.1345560">
        <ele>144.8</ele>
        <time>2020-10-12T05:35:54Z</time>
      </trkpt>
      <trkpt lat="38.1354250" lon="-1.1345560">
        <ele>144.8</ele>
        <time>2020-10-12T05:35:55Z</time>
      </trkpt>
      <trkpt lat="38.1354680" lon="-1.1345600">
        <ele>145.2</ele>
        <time>2020-10-12T05:35:56Z</time>
      </trkpt>
      <trkpt lat="38.1355110" lon="-1.1345630">
        <ele>145.4</ele>
        <time>2020-10-12T05:35:57Z</time>
      </trkpt>
      <trkpt lat="38.1355550" lon="-1.1345680">
        <ele>145.6</ele>
        <time>2020-10-12T05:35:58Z</time>
      </trkpt>
      <trkpt lat="38.1355980" lon="-1.1345780">
        <ele>145.6</ele>
        <time>2020-10-12T05:35:59Z</time>
      </trkpt>
      <trkpt lat="38.1356420" lon="-1.1345900">
        <ele>145.8</ele>
        <time>2020-10-12T05:36:00Z</time>
      </trkpt>
      <trkpt lat="38.1356900" lon="-1.1346060">
        <ele>146.0</ele>
        <time>2020-10-12T05:36:01Z</time>
      </trkpt>
      <trkpt lat="38.1357410" lon="-1.1346230">
        <ele>146.0</ele>
        <time>2020-10-12T05:36:02Z</time>
      </trkpt>
      <trkpt lat="38.1357870" lon="-1.1346430">
        <ele>146.0</ele>
        <time>2020-10-12T05:36:03Z</time>
      </trkpt>
      <trkpt lat="38.1358320" lon="-1.1346660">
        <ele>145.6</ele>
        <time>2020-10-12T05:36:04Z</time>
      </trkpt>
      <trkpt lat="38.1358750" lon="-1.1346920">
        <ele>145.4</ele>
        <time>2020-10-12T05:36:05Z</time>
      </trkpt>
      <trkpt lat="38.1359210" lon="-1.1347210">
        <ele>145.0</ele>
        <time>2020-10-12T05:36:06Z</time>
      </trkpt>
      <trkpt lat="38.1359630" lon="-1.1347520">
        <ele>144.8</ele>
        <time>2020-10-12T05:36:07Z</time>
      </trkpt>
      <trkpt lat="38.1360060" lon="-1.1347840">
        <ele>144.8</ele>
        <time>2020-10-12T05:36:08Z</time>
      </trkpt>
      <trkpt lat="38.1360510" lon="-1.1348160">
        <ele>144.8</ele>
        <time>2020-10-12T05:36:09Z</time>
      </trkpt>
      <trkpt lat="38.1360940" lon="-1.1348470">
        <ele>144.8</ele>
        <time>2020-10-12T05:36:10Z</time>
      </trkpt>
      <trkpt lat="38.1361310" lon="-1.1348800">
        <ele>144.8</ele>
        <time>2020-10-12T05:36:11Z</time>
      </trkpt>
      <trkpt lat="38.1361680" lon="-1.1349140">
        <ele>145.2</ele>
        <time>2020-10-12T05:36:12Z</time>
      </trkpt>
      <trkpt lat="38.1362020" lon="-1.1349500">
        <ele>145.6</ele>
        <time>2020-10-12T05:36:13Z</time>
      </trkpt>
      <trkpt lat="38.1362380" lon="-1.1349850">
        <ele>146.4</ele>
        <time>2020-10-12T05:36:14Z</time>
      </trkpt>
      <trkpt lat="38.1362820" lon="-1.1350270">
        <ele>147.0</ele>
        <time>2020-10-12T05:36:15Z</time>
      </trkpt>
      <trkpt lat="38.1363280" lon="-1.1350650">
        <ele>147.6</ele>
        <time>2020-10-12T05:36:16Z</time>
      </trkpt>
      <trkpt lat="38.1363670" lon="-1.1351030">
        <ele>147.8</ele>
        <time>2020-10-12T05:36:17Z</time>
      </trkpt>
      <trkpt lat="38.1364090" lon="-1.1351400">
        <ele>148.2</ele>
        <time>2020-10-12T05:36:18Z</time>
      </trkpt>
      <trkpt lat="38.1364510" lon="-1.1351740">
        <ele>148.0</ele>
        <time>2020-10-12T05:36:19Z</time>
      </trkpt>
      <trkpt lat="38.1364920" lon="-1.1352050">
        <ele>147.8</ele>
        <time>2020-10-12T05:36:20Z</time>
      </trkpt>
      <trkpt lat="38.1365370" lon="-1.1352400">
        <ele>147.8</ele>
        <time>2020-10-12T05:36:21Z</time>
      </trkpt>
      <trkpt lat="38.1365830" lon="-1.1352730">
        <ele>148.0</ele>
        <time>2020-10-12T05:36:22Z</time>
      </trkpt>
      <trkpt lat="38.1366250" lon="-1.1353070">
        <ele>148.4</ele>
        <time>2020-10-12T05:36:23Z</time>
      </trkpt>
      <trkpt lat="38.1366680" lon="-1.1353380">
        <ele>148.8</ele>
        <time>2020-10-12T05:36:24Z</time>
      </trkpt>
      <trkpt lat="38.1367140" lon="-1.1353660">
        <ele>149.0</ele>
        <time>2020-10-12T05:36:25Z</time>
      </trkpt>
      <trkpt lat="38.1367610" lon="-1.1353900">
        <ele>149.2</ele>
        <time>2020-10-12T05:36:26Z</time>
      </trkpt>
      <trkpt lat="38.1368140" lon="-1.1354140">
        <ele>148.8</ele>
        <time>2020-10-12T05:36:27Z</time>
      </trkpt>
      <trkpt lat="38.1368650" lon="-1.1354380">
        <ele>148.2</ele>
        <time>2020-10-12T05:36:28Z</time>
      </trkpt>
      <trkpt lat="38.1369150" lon="-1.1354620">
        <ele>147.8</ele>
        <time>2020-10-12T05:36:29Z</time>
      </trkpt>
      <trkpt lat="38.1369630" lon="-1.1354860">
        <ele>147.6</ele>
        <time>2020-10-12T05:36:30Z</time>
      </trkpt>
      <trkpt lat="38.1370120" lon="-1.1355060">
        <ele>147.4</ele>
        <time>2020-10-12T05:36:31Z</time>
      </trkpt>
      <trkpt lat="38.1370640" lon="-1.1355260">
        <ele>147.2</ele>
        <time>2020-10-12T05:36:32Z</time>
      </trkpt>
      <trkpt lat="38.1371160" lon="-1.1355400">
        <ele>147.0</ele>
        <time>2020-10-12T05:36:33Z</time>
      </trkpt>
      <trkpt lat="38.1371690" lon="-1.1355520">
        <ele>147.0</ele>
        <time>2020-10-12T05:36:34Z</time>
      </trkpt>
      <trkpt lat="38.1372210" lon="-1.1355560">
        <ele>147.0</ele>
        <time>2020-10-12T05:36:35Z</time>
      </trkpt>
      <trkpt lat="38.1372750" lon="-1.1355540">
        <ele>147.2</ele>
        <time>2020-10-12T05:36:36Z</time>
      </trkpt>
      <trkpt lat="38.1373290" lon="-1.1355520">
        <ele>147.2</ele>
        <time>2020-10-12T05:36:37Z</time>
      </trkpt>
      <trkpt lat="38.1373840" lon="-1.1355480">
        <ele>147.0</ele>
        <time>2020-10-12T05:36:38Z</time>
      </trkpt>
      <trkpt lat="38.1374380" lon="-1.1355420">
        <ele>147.0</ele>
        <time>2020-10-12T05:36:39Z</time>
      </trkpt>
      <trkpt lat="38.1374970" lon="-1.1355340">
        <ele>147.2</ele>
        <time>2020-10-12T05:36:40Z</time>
      </trkpt>
      <trkpt lat="38.1375540" lon="-1.1355230">
        <ele>147.4</ele>
        <time>2020-10-12T05:36:41Z</time>
      </trkpt>
      <trkpt lat="38.1376100" lon="-1.1355100">
        <ele>147.4</ele>
        <time>2020-10-12T05:36:42Z</time>
      </trkpt>
      <trkpt lat="38.1376680" lon="-1.1354960">
        <ele>147.4</ele>
        <time>2020-10-12T05:36:43Z</time>
      </trkpt>
      <trkpt lat="38.1377250" lon="-1.1354790">
        <ele>147.4</ele>
        <time>2020-10-12T05:36:44Z</time>
      </trkpt>
      <trkpt lat="38.1377840" lon="-1.1354560">
        <ele>147.6</ele>
        <time>2020-10-12T05:36:45Z</time>
      </trkpt>
      <trkpt lat="38.1378420" lon="-1.1354300">
        <ele>147.6</ele>
        <time>2020-10-12T05:36:46Z</time>
      </trkpt>
      <trkpt lat="38.1378990" lon="-1.1354020">
        <ele>147.6</ele>
        <time>2020-10-12T05:36:47Z</time>
      </trkpt>
      <trkpt lat="38.1379540" lon="-1.1353710">
        <ele>147.6</ele>
        <time>2020-10-12T05:36:48Z</time>
      </trkpt>
      <trkpt lat="38.1380080" lon="-1.1353350">
        <ele>147.6</ele>
        <time>2020-10-12T05:36:49Z</time>
      </trkpt>
      <trkpt lat="38.1380610" lon="-1.1352960">
        <ele>147.6</ele>
        <time>2020-10-12T05:36:50Z</time>
      </trkpt>
      <trkpt lat="38.1381130" lon="-1.1352530">
        <ele>147.6</ele>
        <time>2020-10-12T05:36:51Z</time>
      </trkpt>
      <trkpt lat="38.1381640" lon="-1.1352080">
        <ele>147.6</ele>
        <time>2020-10-12T05:36:52Z</time>
      </trkpt>
      <trkpt lat="38.1382120" lon="-1.1351610">
        <ele>147.6</ele>
        <time>2020-10-12T05:36:53Z</time>
      </trkpt>
      <trkpt lat="38.1382610" lon="-1.1351110">
        <ele>147.4</ele>
        <time>2020-10-12T05:36:54Z</time>
      </trkpt>
      <trkpt lat="38.1383110" lon="-1.1350610">
        <ele>147.6</ele>
        <time>2020-10-12T05:36:55Z</time>
      </trkpt>
      <trkpt lat="38.1383590" lon="-1.1350060">
        <ele>147.6</ele>
        <time>2020-10-12T05:36:56Z</time>
      </trkpt>
      <trkpt lat="38.1384080" lon="-1.1349480">
        <ele>147.6</ele>
        <time>2020-10-12T05:36:57Z</time>
      </trkpt>
      <trkpt lat="38.1384550" lon="-1.1348880">
        <ele>147.6</ele>
        <time>2020-10-12T05:36:58Z</time>
      </trkpt>
      <trkpt lat="38.1384960" lon="-1.1348240">
        <ele>147.8</ele>
        <time>2020-10-12T05:36:59Z</time>
      </trkpt>
      <trkpt lat="38.1385350" lon="-1.1347600">
        <ele>148.2</ele>
        <time>2020-10-12T05:37:00Z</time>
      </trkpt>
      <trkpt lat="38.1385730" lon="-1.1346930">
        <ele>148.4</ele>
        <time>2020-10-12T05:37:01Z</time>
      </trkpt>
      <trkpt lat="38.1386060" lon="-1.1346210">
        <ele>148.8</ele>
        <time>2020-10-12T05:37:02Z</time>
      </trkpt>
      <trkpt lat="38.1386370" lon="-1.1345470">
        <ele>149.0</ele>
        <time>2020-10-12T05:37:03Z</time>
      </trkpt>
      <trkpt lat="38.1386700" lon="-1.1344740">
        <ele>149.0</ele>
        <time>2020-10-12T05:37:04Z</time>
      </trkpt>
      <trkpt lat="38.1387030" lon="-1.1344000">
        <ele>149.0</ele>
        <time>2020-10-12T05:37:05Z</time>
      </trkpt>
      <trkpt lat="38.1387370" lon="-1.1343240">
        <ele>149.0</ele>
        <time>2020-10-12T05:37:06Z</time>
      </trkpt>
      <trkpt lat="38.1387700" lon="-1.1342470">
        <ele>149.0</ele>
        <time>2020-10-12T05:37:07Z</time>
      </trkpt>
      <trkpt lat="38.1388040" lon="-1.1341710">
        <ele>149.0</ele>
        <time>2020-10-12T05:37:08Z</time>
      </trkpt>
      <trkpt lat="38.1388390" lon="-1.1340940">
        <ele>149.0</ele>
        <time>2020-10-12T05:37:09Z</time>
      </trkpt>
      <trkpt lat="38.1388710" lon="-1.1340170">
        <ele>149.0</ele>
        <time>2020-10-12T05:37:10Z</time>
      </trkpt>
      <trkpt lat="38.1389030" lon="-1.1339400">
        <ele>149.0</ele>
        <time>2020-10-12T05:37:11Z</time>
      </trkpt>
      <trkpt lat="38.1389360" lon="-1.1338620">
        <ele>149.0</ele>
        <time>2020-10-12T05:37:12Z</time>
      </trkpt>
      <trkpt lat="38.1389680" lon="-1.1337840">
        <ele>149.0</ele>
        <time>2020-10-12T05:37:13Z</time>
      </trkpt>
      <trkpt lat="38.1390010" lon="-1.1337060">
        <ele>149.0</ele>
        <time>2020-10-12T05:37:14Z</time>
      </trkpt>
      <trkpt lat="38.1390340" lon="-1.1336280">
        <ele>149.0</ele>
        <time>2020-10-12T05:37:15Z</time>
      </trkpt>
      <trkpt lat="38.1390680" lon="-1.1335510">
        <ele>148.8</ele>
        <time>2020-10-12T05:37:16Z</time>
      </trkpt>
      <trkpt lat="38.1391000" lon="-1.1334710">
        <ele>148.8</ele>
        <time>2020-10-12T05:37:17Z</time>
      </trkpt>
      <trkpt lat="38.1391340" lon="-1.1333930">
        <ele>148.8</ele>
        <time>2020-10-12T05:37:18Z</time>
      </trkpt>
      <trkpt lat="38.1391680" lon="-1.1333170">
        <ele>148.6</ele>
        <time>2020-10-12T05:37:19Z</time>
      </trkpt>
      <trkpt lat="38.1392020" lon="-1.1332390">
        <ele>148.6</ele>
        <time>2020-10-12T05:37:20Z</time>
      </trkpt>
      <trkpt lat="38.1392360" lon="-1.1331590">
        <ele>148.6</ele>
        <time>2020-10-12T05:37:21Z</time>
      </trkpt>
      <trkpt lat="38.1392700" lon="-1.1330820">
        <ele>148.4</ele>
        <time>2020-10-12T05:37:22Z</time>
      </trkpt>
      <trkpt lat="38.1393040" lon="-1.1330040">
        <ele>148.4</ele>
        <time>2020-10-12T05:37:23Z</time>
      </trkpt>
      <trkpt lat="38.1393380" lon="-1.1329270">
        <ele>148.6</ele>
        <time>2020-10-12T05:37:24Z</time>
      </trkpt>
      <trkpt lat="38.1393720" lon="-1.1328500">
        <ele>148.6</ele>
        <time>2020-10-12T05:37:25Z</time>
      </trkpt>
      <trkpt lat="38.1394090" lon="-1.1327750">
        <ele>149.2</ele>
        <time>2020-10-12T05:37:26Z</time>
      </trkpt>
      <trkpt lat="38.1394450" lon="-1.1327020">
        <ele>149.6</ele>
        <time>2020-10-12T05:37:27Z</time>
      </trkpt>
      <trkpt lat="38.1394800" lon="-1.1326290">
        <ele>150.2</ele>
        <time>2020-10-12T05:37:28Z</time>
      </trkpt>
      <trkpt lat="38.1395180" lon="-1.1325600">
        <ele>150.4</ele>
        <time>2020-10-12T05:37:29Z</time>
      </trkpt>
      <trkpt lat="38.1395570" lon="-1.1324940">
        <ele>150.4</ele>
        <time>2020-10-12T05:37:30Z</time>
      </trkpt>
      <trkpt lat="38.1395980" lon="-1.1324290">
        <ele>150.6</ele>
        <time>2020-10-12T05:37:31Z</time>
      </trkpt>
      <trkpt lat="38.1396410" lon="-1.1323670">
        <ele>150.6</ele>
        <time>2020-10-12T05:37:32Z</time>
      </trkpt>
      <trkpt lat="38.1396860" lon="-1.1323100">
        <ele>150.6</ele>
        <time>2020-10-12T05:37:33Z</time>
      </trkpt>
      <trkpt lat="38.1397310" lon="-1.1322550">
        <ele>150.8</ele>
        <time>2020-10-12T05:37:34Z</time>
      </trkpt>
      <trkpt lat="38.1397770" lon="-1.1322020">
        <ele>150.8</ele>
        <time>2020-10-12T05:37:35Z</time>
      </trkpt>
      <trkpt lat="38.1398250" lon="-1.1321530">
        <ele>151.0</ele>
        <time>2020-10-12T05:37:36Z</time>
      </trkpt>
      <trkpt lat="38.1398730" lon="-1.1321030">
        <ele>151.0</ele>
        <time>2020-10-12T05:37:37Z</time>
      </trkpt>
      <trkpt lat="38.1399220" lon="-1.1320550">
        <ele>151.2</ele>
        <time>2020-10-12T05:37:38Z</time>
      </trkpt>
      <trkpt lat="38.1399720" lon="-1.1320100">
        <ele>151.4</ele>
        <time>2020-10-12T05:37:39Z</time>
      </trkpt>
      <trkpt lat="38.1400210" lon="-1.1319650">
        <ele>151.6</ele>
        <time>2020-10-12T05:37:40Z</time>
      </trkpt>
      <trkpt lat="38.1400690" lon="-1.1319190">
        <ele>151.8</ele>
        <time>2020-10-12T05:37:41Z</time>
      </trkpt>
      <trkpt lat="38.1401180" lon="-1.1318750">
        <ele>152.0</ele>
        <time>2020-10-12T05:37:42Z</time>
      </trkpt>
      <trkpt lat="38.1401670" lon="-1.1318320">
        <ele>152.2</ele>
        <time>2020-10-12T05:37:43Z</time>
      </trkpt>
      <trkpt lat="38.1402160" lon="-1.1317900">
        <ele>152.6</ele>
        <time>2020-10-12T05:37:44Z</time>
      </trkpt>
      <trkpt lat="38.1402640" lon="-1.1317490">
        <ele>152.8</ele>
        <time>2020-10-12T05:37:45Z</time>
      </trkpt>
      <trkpt lat="38.1403130" lon="-1.1317070">
        <ele>153.2</ele>
        <time>2020-10-12T05:37:46Z</time>
      </trkpt>
      <trkpt lat="38.1403610" lon="-1.1316650">
        <ele>153.2</ele>
        <time>2020-10-12T05:37:47Z</time>
      </trkpt>
      <trkpt lat="38.1404100" lon="-1.1316240">
        <ele>153.4</ele>
        <time>2020-10-12T05:37:48Z</time>
      </trkpt>
      <trkpt lat="38.1404600" lon="-1.1315800">
        <ele>153.6</ele>
        <time>2020-10-12T05:37:49Z</time>
      </trkpt>
      <trkpt lat="38.1405080" lon="-1.1315370">
        <ele>153.6</ele>
        <time>2020-10-12T05:37:50Z</time>
      </trkpt>
      <trkpt lat="38.1405560" lon="-1.1314900">
        <ele>154.0</ele>
        <time>2020-10-12T05:37:51Z</time>
      </trkpt>
      <trkpt lat="38.1406050" lon="-1.1314430">
        <ele>153.8</ele>
        <time>2020-10-12T05:37:52Z</time>
      </trkpt>
      <trkpt lat="38.1406530" lon="-1.1313950">
        <ele>153.8</ele>
        <time>2020-10-12T05:37:53Z</time>
      </trkpt>
      <trkpt lat="38.1407000" lon="-1.1313480">
        <ele>154.0</ele>
        <time>2020-10-12T05:37:54Z</time>
      </trkpt>
      <trkpt lat="38.1407480" lon="-1.1312980">
        <ele>154.0</ele>
        <time>2020-10-12T05:37:55Z</time>
      </trkpt>
      <trkpt lat="38.1407940" lon="-1.1312460">
        <ele>154.2</ele>
        <time>2020-10-12T05:37:56Z</time>
      </trkpt>
      <trkpt lat="38.1408390" lon="-1.1311900">
        <ele>154.2</ele>
        <time>2020-10-12T05:37:57Z</time>
      </trkpt>
      <trkpt lat="38.1408800" lon="-1.1311340">
        <ele>154.4</ele>
        <time>2020-10-12T05:37:58Z</time>
      </trkpt>
      <trkpt lat="38.1409220" lon="-1.1310730">
        <ele>154.4</ele>
        <time>2020-10-12T05:37:59Z</time>
      </trkpt>
      <trkpt lat="38.1409610" lon="-1.1310100">
        <ele>154.6</ele>
        <time>2020-10-12T05:38:00Z</time>
      </trkpt>
      <trkpt lat="38.1409980" lon="-1.1309450">
        <ele>154.6</ele>
        <time>2020-10-12T05:38:01Z</time>
      </trkpt>
      <trkpt lat="38.1410340" lon="-1.1308810">
        <ele>154.8</ele>
        <time>2020-10-12T05:38:02Z</time>
      </trkpt>
      <trkpt lat="38.1410680" lon="-1.1308170">
        <ele>154.8</ele>
        <time>2020-10-12T05:38:03Z</time>
      </trkpt>
      <trkpt lat="38.1411000" lon="-1.1307490">
        <ele>154.8</ele>
        <time>2020-10-12T05:38:04Z</time>
      </trkpt>
      <trkpt lat="38.1411310" lon="-1.1306790">
        <ele>154.8</ele>
        <time>2020-10-12T05:38:05Z</time>
      </trkpt>
      <trkpt lat="38.1411610" lon="-1.1306090">
        <ele>154.8</ele>
        <time>2020-10-12T05:38:06Z</time>
      </trkpt>
      <trkpt lat="38.1411910" lon="-1.1305380">
        <ele>154.8</ele>
        <time>2020-10-12T05:38:07Z</time>
      </trkpt>
      <trkpt lat="38.1412200" lon="-1.1304660">
        <ele>154.8</ele>
        <time>2020-10-12T05:38:08Z</time>
      </trkpt>
      <trkpt lat="38.1412500" lon="-1.1303940">
        <ele>154.8</ele>
        <time>2020-10-12T05:38:09Z</time>
      </trkpt>
      <trkpt lat="38.1412800" lon="-1.1303220">
        <ele>155.0</ele>
        <time>2020-10-12T05:38:10Z</time>
      </trkpt>
      <trkpt lat="38.1413100" lon="-1.1302490">
        <ele>155.2</ele>
        <time>2020-10-12T05:38:11Z</time>
      </trkpt>
      <trkpt lat="38.1413420" lon="-1.1301750">
        <ele>155.4</ele>
        <time>2020-10-12T05:38:12Z</time>
      </trkpt>
      <trkpt lat="38.1413750" lon="-1.1301020">
        <ele>155.4</ele>
        <time>2020-10-12T05:38:13Z</time>
      </trkpt>
      <trkpt lat="38.1414060" lon="-1.1300300">
        <ele>155.6</ele>
        <time>2020-10-12T05:38:14Z</time>
      </trkpt>
      <trkpt lat="38.1414370" lon="-1.1299570">
        <ele>155.6</ele>
        <time>2020-10-12T05:38:15Z</time>
      </trkpt>
      <trkpt lat="38.1414700" lon="-1.1298820">
        <ele>155.6</ele>
        <time>2020-10-12T05:38:16Z</time>
      </trkpt>
      <trkpt lat="38.1415040" lon="-1.1298110">
        <ele>155.6</ele>
        <time>2020-10-12T05:38:17Z</time>
      </trkpt>
      <trkpt lat="38.1415410" lon="-1.1297410">
        <ele>155.4</ele>
        <time>2020-10-12T05:38:18Z</time>
      </trkpt>
      <trkpt lat="38.1415800" lon="-1.1296720">
        <ele>155.4</ele>
        <time>2020-10-12T05:38:19Z</time>
      </trkpt>
      <trkpt lat="38.1416200" lon="-1.1296050">
        <ele>155.4</ele>
        <time>2020-10-12T05:38:20Z</time>
      </trkpt>
      <trkpt lat="38.1416630" lon="-1.1295390">
        <ele>155.6</ele>
        <time>2020-10-12T05:38:21Z</time>
      </trkpt>
      <trkpt lat="38.1417080" lon="-1.1294760">
        <ele>155.6</ele>
        <time>2020-10-12T05:38:22Z</time>
      </trkpt>
      <trkpt lat="38.1417560" lon="-1.1294130">
        <ele>155.4</ele>
        <time>2020-10-12T05:38:23Z</time>
      </trkpt>
      <trkpt lat="38.1418060" lon="-1.1293520">
        <ele>155.6</ele>
        <time>2020-10-12T05:38:24Z</time>
      </trkpt>
      <trkpt lat="38.1418560" lon="-1.1292920">
        <ele>155.8</ele>
        <time>2020-10-12T05:38:25Z</time>
      </trkpt>
      <trkpt lat="38.1419070" lon="-1.1292330">
        <ele>155.8</ele>
        <time>2020-10-12T05:38:26Z</time>
      </trkpt>
      <trkpt lat="38.1419580" lon="-1.1291730">
        <ele>155.8</ele>
        <time>2020-10-12T05:38:27Z</time>
      </trkpt>
      <trkpt lat="38.1420090" lon="-1.1291130">
        <ele>155.8</ele>
        <time>2020-10-12T05:38:28Z</time>
      </trkpt>
      <trkpt lat="38.1420600" lon="-1.1290560">
        <ele>155.8</ele>
        <time>2020-10-12T05:38:29Z</time>
      </trkpt>
      <trkpt lat="38.1421130" lon="-1.1290020">
        <ele>155.8</ele>
        <time>2020-10-12T05:38:30Z</time>
      </trkpt>
      <trkpt lat="38.1421670" lon="-1.1289490">
        <ele>156.0</ele>
        <time>2020-10-12T05:38:31Z</time>
      </trkpt>
      <trkpt lat="38.1422210" lon="-1.1288970">
        <ele>156.0</ele>
        <time>2020-10-12T05:38:32Z</time>
      </trkpt>
      <trkpt lat="38.1422750" lon="-1.1288480">
        <ele>155.8</ele>
        <time>2020-10-12T05:38:33Z</time>
      </trkpt>
      <trkpt lat="38.1423310" lon="-1.1288010">
        <ele>155.8</ele>
        <time>2020-10-12T05:38:34Z</time>
      </trkpt>
      <trkpt lat="38.1423880" lon="-1.1287570">
        <ele>156.0</ele>
        <time>2020-10-12T05:38:35Z</time>
      </trkpt>
      <trkpt lat="38.1424450" lon="-1.1287160">
        <ele>156.2</ele>
        <time>2020-10-12T05:38:36Z</time>
      </trkpt>
      <trkpt lat="38.1425040" lon="-1.1286780">
        <ele>156.4</ele>
        <time>2020-10-12T05:38:37Z</time>
      </trkpt>
      <trkpt lat="38.1425660" lon="-1.1286430">
        <ele>156.6</ele>
        <time>2020-10-12T05:38:38Z</time>
      </trkpt>
      <trkpt lat="38.1426280" lon="-1.1286120">
        <ele>156.6</ele>
        <time>2020-10-12T05:38:39Z</time>
      </trkpt>
      <trkpt lat="38.1426910" lon="-1.1285810">
        <ele>156.6</ele>
        <time>2020-10-12T05:38:40Z</time>
      </trkpt>
      <trkpt lat="38.1427540" lon="-1.1285510">
        <ele>156.8</ele>
        <time>2020-10-12T05:38:41Z</time>
      </trkpt>
      <trkpt lat="38.1428160" lon="-1.1285230">
        <ele>156.6</ele>
        <time>2020-10-12T05:38:42Z</time>
      </trkpt>
      <trkpt lat="38.1428780" lon="-1.1284930">
        <ele>156.6</ele>
        <time>2020-10-12T05:38:43Z</time>
      </trkpt>
      <trkpt lat="38.1429400" lon="-1.1284640">
        <ele>156.4</ele>
        <time>2020-10-12T05:38:44Z</time>
      </trkpt>
      <trkpt lat="38.1430040" lon="-1.1284350">
        <ele>156.2</ele>
        <time>2020-10-12T05:38:45Z</time>
      </trkpt>
      <trkpt lat="38.1430690" lon="-1.1284090">
        <ele>155.8</ele>
        <time>2020-10-12T05:38:46Z</time>
      </trkpt>
      <trkpt lat="38.1431330" lon="-1.1283840">
        <ele>155.8</ele>
        <time>2020-10-12T05:38:47Z</time>
      </trkpt>
      <trkpt lat="38.1431960" lon="-1.1283570">
        <ele>155.8</ele>
        <time>2020-10-12T05:38:48Z</time>
      </trkpt>
      <trkpt lat="38.1432590" lon="-1.1283290">
        <ele>155.8</ele>
        <time>2020-10-12T05:38:49Z</time>
      </trkpt>
      <trkpt lat="38.1433210" lon="-1.1282980">
        <ele>155.8</ele>
        <time>2020-10-12T05:38:50Z</time>
      </trkpt>
      <trkpt lat="38.1433800" lon="-1.1282630">
        <ele>156.0</ele>
        <time>2020-10-12T05:38:51Z</time>
      </trkpt>
      <trkpt lat="38.1434390" lon="-1.1282260">
        <ele>156.0</ele>
        <time>2020-10-12T05:38:52Z</time>
      </trkpt>
      <trkpt lat="38.1434960" lon="-1.1281870">
        <ele>156.2</ele>
        <time>2020-10-12T05:38:53Z</time>
      </trkpt>
      <trkpt lat="38.1435530" lon="-1.1281440">
        <ele>156.2</ele>
        <time>2020-10-12T05:38:54Z</time>
      </trkpt>
      <trkpt lat="38.1436080" lon="-1.1281000">
        <ele>156.4</ele>
        <time>2020-10-12T05:38:55Z</time>
      </trkpt>
      <trkpt lat="38.1436630" lon="-1.1280520">
        <ele>156.4</ele>
        <time>2020-10-12T05:38:56Z</time>
      </trkpt>
      <trkpt lat="38.1437160" lon="-1.1280000">
        <ele>156.4</ele>
        <time>2020-10-12T05:38:57Z</time>
      </trkpt>
      <trkpt lat="38.1437660" lon="-1.1279480">
        <ele>156.4</ele>
        <time>2020-10-12T05:38:58Z</time>
      </trkpt>
      <trkpt lat="38.1438170" lon="-1.1278980">
        <ele>156.6</ele>
        <time>2020-10-12T05:38:59Z</time>
      </trkpt>
      <trkpt lat="38.1438650" lon="-1.1278480">
        <ele>156.6</ele>
        <time>2020-10-12T05:39:00Z</time>
      </trkpt>
      <trkpt lat="38.1439100" lon="-1.1277920">
        <ele>156.6</ele>
        <time>2020-10-12T05:39:01Z</time>
      </trkpt>
      <trkpt lat="38.1439580" lon="-1.1277350">
        <ele>156.8</ele>
        <time>2020-10-12T05:39:02Z</time>
      </trkpt>
      <trkpt lat="38.1440070" lon="-1.1276780">
        <ele>157.0</ele>
        <time>2020-10-12T05:39:03Z</time>
      </trkpt>
      <trkpt lat="38.1440560" lon="-1.1276250">
        <ele>157.0</ele>
        <time>2020-10-12T05:39:04Z</time>
      </trkpt>
      <trkpt lat="38.1440990" lon="-1.1275760">
        <ele>157.2</ele>
        <time>2020-10-12T05:39:05Z</time>
      </trkpt>
      <trkpt lat="38.1441440" lon="-1.1275250">
        <ele>157.4</ele>
        <time>2020-10-12T05:39:06Z</time>
      </trkpt>
      <trkpt lat="38.1441910" lon="-1.1274710">
        <ele>157.4</ele>
        <time>2020-10-12T05:39:07Z</time>
      </trkpt>
      <trkpt lat="38.1442380" lon="-1.1274170">
        <ele>157.4</ele>
        <time>2020-10-12T05:39:08Z</time>
      </trkpt>
      <trkpt lat="38.1442830" lon="-1.1273630">
        <ele>157.8</ele>
        <time>2020-10-12T05:39:09Z</time>
      </trkpt>
      <trkpt lat="38.1443290" lon="-1.1273080">
        <ele>157.8</ele>
        <time>2020-10-12T05:39:10Z</time>
      </trkpt>
      <trkpt lat="38.1443790" lon="-1.1272570">
        <ele>157.8</ele>
        <time>2020-10-12T05:39:11Z</time>
      </trkpt>
      <trkpt lat="38.1444320" lon="-1.1272110">
        <ele>157.6</ele>
        <time>2020-10-12T05:39:12Z</time>
      </trkpt>
      <trkpt lat="38.1444860" lon="-1.1271680">
        <ele>157.6</ele>
        <time>2020-10-12T05:39:13Z</time>
      </trkpt>
      <trkpt lat="38.1445420" lon="-1.1271310">
        <ele>157.6</ele>
        <time>2020-10-12T05:39:14Z</time>
      </trkpt>
      <trkpt lat="38.1446010" lon="-1.1270940">
        <ele>157.6</ele>
        <time>2020-10-12T05:39:15Z</time>
      </trkpt>
      <trkpt lat="38.1446610" lon="-1.1270580">
        <ele>157.6</ele>
        <time>2020-10-12T05:39:16Z</time>
      </trkpt>
      <trkpt lat="38.1447220" lon="-1.1270240">
        <ele>157.6</ele>
        <time>2020-10-12T05:39:17Z</time>
      </trkpt>
      <trkpt lat="38.1447810" lon="-1.1269880">
        <ele>157.6</ele>
        <time>2020-10-12T05:39:18Z</time>
      </trkpt>
      <trkpt lat="38.1448410" lon="-1.1269540">
        <ele>157.6</ele>
        <time>2020-10-12T05:39:19Z</time>
      </trkpt>
      <trkpt lat="38.1449020" lon="-1.1269190">
        <ele>157.6</ele>
        <time>2020-10-12T05:39:20Z</time>
      </trkpt>
      <trkpt lat="38.1449610" lon="-1.1268850">
        <ele>157.6</ele>
        <time>2020-10-12T05:39:21Z</time>
      </trkpt>
      <trkpt lat="38.1450200" lon="-1.1268490">
        <ele>157.6</ele>
        <time>2020-10-12T05:39:22Z</time>
      </trkpt>
      <trkpt lat="38.1450790" lon="-1.1268110">
        <ele>157.4</ele>
        <time>2020-10-12T05:39:23Z</time>
      </trkpt>
      <trkpt lat="38.1451360" lon="-1.1267720">
        <ele>157.4</ele>
        <time>2020-10-12T05:39:24Z</time>
      </trkpt>
      <trkpt lat="38.1451900" lon="-1.1267280">
        <ele>157.6</ele>
        <time>2020-10-12T05:39:25Z</time>
      </trkpt>
      <trkpt lat="38.1452430" lon="-1.1266820">
        <ele>157.6</ele>
        <time>2020-10-12T05:39:26Z</time>
      </trkpt>
      <trkpt lat="38.1452930" lon="-1.1266320">
        <ele>157.6</ele>
        <time>2020-10-12T05:39:27Z</time>
      </trkpt>
      <trkpt lat="38.1453420" lon="-1.1265790">
        <ele>157.8</ele>
        <time>2020-10-12T05:39:28Z</time>
      </trkpt>
      <trkpt lat="38.1453890" lon="-1.1265230">
        <ele>158.0</ele>
        <time>2020-10-12T05:39:29Z</time>
      </trkpt>
      <trkpt lat="38.1454350" lon="-1.1264640">
        <ele>158.0</ele>
        <time>2020-10-12T05:39:30Z</time>
      </trkpt>
      <trkpt lat="38.1454780" lon="-1.1264030">
        <ele>158.2</ele>
        <time>2020-10-12T05:39:31Z</time>
      </trkpt>
      <trkpt lat="38.1455170" lon="-1.1263370">
        <ele>158.2</ele>
        <time>2020-10-12T05:39:32Z</time>
      </trkpt>
      <trkpt lat="38.1455520" lon="-1.1262690">
        <ele>158.2</ele>
        <time>2020-10-12T05:39:33Z</time>
      </trkpt>
      <trkpt lat="38.1455850" lon="-1.1261980">
        <ele>158.4</ele>
        <time>2020-10-12T05:39:34Z</time>
      </trkpt>
      <trkpt lat="38.1456150" lon="-1.1261240">
        <ele>158.2</ele>
        <time>2020-10-12T05:39:35Z</time>
      </trkpt>
      <trkpt lat="38.1456430" lon="-1.1260470">
        <ele>158.2</ele>
        <time>2020-10-12T05:39:36Z</time>
      </trkpt>
      <trkpt lat="38.1456690" lon="-1.1259690">
        <ele>158.2</ele>
        <time>2020-10-12T05:39:37Z</time>
      </trkpt>
      <trkpt lat="38.1456920" lon="-1.1258910">
        <ele>158.0</ele>
        <time>2020-10-12T05:39:38Z</time>
      </trkpt>
      <trkpt lat="38.1457150" lon="-1.1258110">
        <ele>158.0</ele>
        <time>2020-10-12T05:39:39Z</time>
      </trkpt>
      <trkpt lat="38.1457390" lon="-1.1257320">
        <ele>158.0</ele>
        <time>2020-10-12T05:39:40Z</time>
      </trkpt>
      <trkpt lat="38.1457640" lon="-1.1256530">
        <ele>158.0</ele>
        <time>2020-10-12T05:39:41Z</time>
      </trkpt>
      <trkpt lat="38.1457890" lon="-1.1255710">
        <ele>158.0</ele>
        <time>2020-10-12T05:39:42Z</time>
      </trkpt>
      <trkpt lat="38.1458120" lon="-1.1254880">
        <ele>158.0</ele>
        <time>2020-10-12T05:39:43Z</time>
      </trkpt>
      <trkpt lat="38.1458360" lon="-1.1254050">
        <ele>157.8</ele>
        <time>2020-10-12T05:39:44Z</time>
      </trkpt>
      <trkpt lat="38.1458610" lon="-1.1253220">
        <ele>157.8</ele>
        <time>2020-10-12T05:39:45Z</time>
      </trkpt>
      <trkpt lat="38.1458840" lon="-1.1252340">
        <ele>157.6</ele>
        <time>2020-10-12T05:39:46Z</time>
      </trkpt>
      <trkpt lat="38.1459060" lon="-1.1251450">
        <ele>157.4</ele>
        <time>2020-10-12T05:39:47Z</time>
      </trkpt>
      <trkpt lat="38.1459290" lon="-1.1250520">
        <ele>157.0</ele>
        <time>2020-10-12T05:39:48Z</time>
      </trkpt>
      <trkpt lat="38.1459520" lon="-1.1249590">
        <ele>156.8</ele>
        <time>2020-10-12T05:39:49Z</time>
      </trkpt>
      <trkpt lat="38.1459760" lon="-1.1248630">
        <ele>156.4</ele>
        <time>2020-10-12T05:39:50Z</time>
      </trkpt>
      <trkpt lat="38.1459970" lon="-1.1247650">
        <ele>156.0</ele>
        <time>2020-10-12T05:39:51Z</time>
      </trkpt>
      <trkpt lat="38.1460190" lon="-1.1246660">
        <ele>155.8</ele>
        <time>2020-10-12T05:39:52Z</time>
      </trkpt>
      <trkpt lat="38.1460410" lon="-1.1245680">
        <ele>155.6</ele>
        <time>2020-10-12T05:39:53Z</time>
      </trkpt>
      <trkpt lat="38.1460660" lon="-1.1244710">
        <ele>155.4</ele>
        <time>2020-10-12T05:39:54Z</time>
      </trkpt>
      <trkpt lat="38.1460910" lon="-1.1243760">
        <ele>155.0</ele>
        <time>2020-10-12T05:39:55Z</time>
      </trkpt>
      <trkpt lat="38.1461160" lon="-1.1242790">
        <ele>154.8</ele>
        <time>2020-10-12T05:39:56Z</time>
      </trkpt>
      <trkpt lat="38.1461400" lon="-1.1241810">
        <ele>154.4</ele>
        <time>2020-10-12T05:39:57Z</time>
      </trkpt>
      <trkpt lat="38.1461660" lon="-1.1240820">
        <ele>154.2</ele>
        <time>2020-10-12T05:39:58Z</time>
      </trkpt>
      <trkpt lat="38.1461920" lon="-1.1239800">
        <ele>154.0</ele>
        <time>2020-10-12T05:39:59Z</time>
      </trkpt>
      <trkpt lat="38.1462190" lon="-1.1238780">
        <ele>153.8</ele>
        <time>2020-10-12T05:40:00Z</time>
      </trkpt>
      <trkpt lat="38.1462410" lon="-1.1237710">
        <ele>153.6</ele>
        <time>2020-10-12T05:40:01Z</time>
      </trkpt>
      <trkpt lat="38.1462610" lon="-1.1236630">
        <ele>153.6</ele>
        <time>2020-10-12T05:40:02Z</time>
      </trkpt>
      <trkpt lat="38.1462760" lon="-1.1235490">
        <ele>154.0</ele>
        <time>2020-10-12T05:40:03Z</time>
      </trkpt>
      <trkpt lat="38.1462890" lon="-1.1234320">
        <ele>154.2</ele>
        <time>2020-10-12T05:40:04Z</time>
      </trkpt>
      <trkpt lat="38.1462950" lon="-1.1233090">
        <ele>154.4</ele>
        <time>2020-10-12T05:40:05Z</time>
      </trkpt>
      <trkpt lat="38.1462930" lon="-1.1231800">
        <ele>154.2</ele>
        <time>2020-10-12T05:40:06Z</time>
      </trkpt>
      <trkpt lat="38.1462780" lon="-1.1230490">
        <ele>154.0</ele>
        <time>2020-10-12T05:40:07Z</time>
      </trkpt>
      <trkpt lat="38.1462430" lon="-1.1229230">
        <ele>153.6</ele>
        <time>2020-10-12T05:40:08Z</time>
      </trkpt>
      <trkpt lat="38.1462010" lon="-1.1228090">
        <ele>153.0</ele>
        <time>2020-10-12T05:40:09Z</time>
      </trkpt>
      <trkpt lat="38.1461640" lon="-1.1226990">
        <ele>152.2</ele>
        <time>2020-10-12T05:40:10Z</time>
      </trkpt>
      <trkpt lat="38.1461420" lon="-1.1225820">
        <ele>151.4</ele>
        <time>2020-10-12T05:40:11Z</time>
      </trkpt>
      <trkpt lat="38.1461470" lon="-1.1224690">
        <ele>151.2</ele>
        <time>2020-10-12T05:40:12Z</time>
      </trkpt>
      <trkpt lat="38.1461730" lon="-1.1223610">
        <ele>151.0</ele>
        <time>2020-10-12T05:40:13Z</time>
      </trkpt>
      <trkpt lat="38.1462170" lon="-1.1222620">
        <ele>151.0</ele>
        <time>2020-10-12T05:40:14Z</time>
      </trkpt>
      <trkpt lat="38.1462690" lon="-1.1221760">
        <ele>151.2</ele>
        <time>2020-10-12T05:40:15Z</time>
      </trkpt>
      <trkpt lat="38.1463360" lon="-1.1221150">
        <ele>151.2</ele>
        <time>2020-10-12T05:40:16Z</time>
      </trkpt>
      <trkpt lat="38.1464150" lon="-1.1220720">
        <ele>151.2</ele>
        <time>2020-10-12T05:40:17Z</time>
      </trkpt>
      <trkpt lat="38.1465020" lon="-1.1220520">
        <ele>151.4</ele>
        <time>2020-10-12T05:40:18Z</time>
      </trkpt>
      <trkpt lat="38.1465910" lon="-1.1220530">
        <ele>151.2</ele>
        <time>2020-10-12T05:40:19Z</time>
      </trkpt>
      <trkpt lat="38.1466760" lon="-1.1220630">
        <ele>151.0</ele>
        <time>2020-10-12T05:40:20Z</time>
      </trkpt>
      <trkpt lat="38.1467620" lon="-1.1220640">
        <ele>150.8</ele>
        <time>2020-10-12T05:40:21Z</time>
      </trkpt>
      <trkpt lat="38.1468470" lon="-1.1220410">
        <ele>150.6</ele>
        <time>2020-10-12T05:40:22Z</time>
      </trkpt>
      <trkpt lat="38.1469270" lon="-1.1219940">
        <ele>150.6</ele>
        <time>2020-10-12T05:40:23Z</time>
      </trkpt>
      <trkpt lat="38.1469980" lon="-1.1219330">
        <ele>150.4</ele>
        <time>2020-10-12T05:40:24Z</time>
      </trkpt>
      <trkpt lat="38.1470650" lon="-1.1218620">
        <ele>149.4</ele>
        <time>2020-10-12T05:40:25Z</time>
      </trkpt>
      <trkpt lat="38.1471330" lon="-1.1217860">
        <ele>148.2</ele>
        <time>2020-10-12T05:40:26Z</time>
      </trkpt>
      <trkpt lat="38.1472020" lon="-1.1217060">
        <ele>146.8</ele>
        <time>2020-10-12T05:40:27Z</time>
      </trkpt>
      <trkpt lat="38.1472700" lon="-1.1216280">
        <ele>146.2</ele>
        <time>2020-10-12T05:40:28Z</time>
      </trkpt>
      <trkpt lat="38.1473380" lon="-1.1215500">
        <ele>145.8</ele>
        <time>2020-10-12T05:40:29Z</time>
      </trkpt>
      <trkpt lat="38.1474040" lon="-1.1214720">
        <ele>145.6</ele>
        <time>2020-10-12T05:40:30Z</time>
      </trkpt>
      <trkpt lat="38.1474700" lon="-1.1213980">
        <ele>145.6</ele>
        <time>2020-10-12T05:40:31Z</time>
      </trkpt>
      <trkpt lat="38.1475370" lon="-1.1213260">
        <ele>145.6</ele>
        <time>2020-10-12T05:40:32Z</time>
      </trkpt>
      <trkpt lat="38.1476020" lon="-1.1212540">
        <ele>145.6</ele>
        <time>2020-10-12T05:40:33Z</time>
      </trkpt>
      <trkpt lat="38.1476650" lon="-1.1211850">
        <ele>145.6</ele>
        <time>2020-10-12T05:40:34Z</time>
      </trkpt>
      <trkpt lat="38.1477260" lon="-1.1211180">
        <ele>145.8</ele>
        <time>2020-10-12T05:40:35Z</time>
      </trkpt>
      <trkpt lat="38.1477900" lon="-1.1210540">
        <ele>146.0</ele>
        <time>2020-10-12T05:40:36Z</time>
      </trkpt>
      <trkpt lat="38.1478550" lon="-1.1209920">
        <ele>146.2</ele>
        <time>2020-10-12T05:40:37Z</time>
      </trkpt>
      <trkpt lat="38.1479190" lon="-1.1209260">
        <ele>147.0</ele>
        <time>2020-10-12T05:40:38Z</time>
      </trkpt>
      <trkpt lat="38.1479820" lon="-1.1208660">
        <ele>148.2</ele>
        <time>2020-10-12T05:40:39Z</time>
      </trkpt>
      <trkpt lat="38.1480470" lon="-1.1208110">
        <ele>149.6</ele>
        <time>2020-10-12T05:40:40Z</time>
      </trkpt>
      <trkpt lat="38.1481130" lon="-1.1207630">
        <ele>150.2</ele>
        <time>2020-10-12T05:40:41Z</time>
      </trkpt>
      <trkpt lat="38.1481810" lon="-1.1207150">
        <ele>150.4</ele>
        <time>2020-10-12T05:40:42Z</time>
      </trkpt>
      <trkpt lat="38.1482430" lon="-1.1206660">
        <ele>150.8</ele>
        <time>2020-10-12T05:40:43Z</time>
      </trkpt>
      <trkpt lat="38.1483060" lon="-1.1206230">
        <ele>151.0</ele>
        <time>2020-10-12T05:40:44Z</time>
      </trkpt>
      <trkpt lat="38.1483730" lon="-1.1205850">
        <ele>150.8</ele>
        <time>2020-10-12T05:40:45Z</time>
      </trkpt>
      <trkpt lat="38.1484390" lon="-1.1205540">
        <ele>150.4</ele>
        <time>2020-10-12T05:40:46Z</time>
      </trkpt>
      <trkpt lat="38.1485060" lon="-1.1205250">
        <ele>150.2</ele>
        <time>2020-10-12T05:40:47Z</time>
      </trkpt>
      <trkpt lat="38.1485730" lon="-1.1204980">
        <ele>150.0</ele>
        <time>2020-10-12T05:40:48Z</time>
      </trkpt>
      <trkpt lat="38.1486390" lon="-1.1204720">
        <ele>150.2</ele>
        <time>2020-10-12T05:40:49Z</time>
      </trkpt>
      <trkpt lat="38.1487060" lon="-1.1204510">
        <ele>150.4</ele>
        <time>2020-10-12T05:40:50Z</time>
      </trkpt>
      <trkpt lat="38.1487740" lon="-1.1204330">
        <ele>150.6</ele>
        <time>2020-10-12T05:40:51Z</time>
      </trkpt>
      <trkpt lat="38.1488430" lon="-1.1204170">
        <ele>150.8</ele>
        <time>2020-10-12T05:40:52Z</time>
      </trkpt>
      <trkpt lat="38.1489100" lon="-1.1204000">
        <ele>151.0</ele>
        <time>2020-10-12T05:40:53Z</time>
      </trkpt>
      <trkpt lat="38.1489740" lon="-1.1203850">
        <ele>151.2</ele>
        <time>2020-10-12T05:40:54Z</time>
      </trkpt>
      <trkpt lat="38.1490370" lon="-1.1203720">
        <ele>151.6</ele>
        <time>2020-10-12T05:40:55Z</time>
      </trkpt>
      <trkpt lat="38.1491000" lon="-1.1203580">
        <ele>151.8</ele>
        <time>2020-10-12T05:40:56Z</time>
      </trkpt>
      <trkpt lat="38.1491600" lon="-1.1203450">
        <ele>152.4</ele>
        <time>2020-10-12T05:40:57Z</time>
      </trkpt>
      <trkpt lat="38.1492200" lon="-1.1203380">
        <ele>153.0</ele>
        <time>2020-10-12T05:40:58Z</time>
      </trkpt>
      <trkpt lat="38.1492830" lon="-1.1203310">
        <ele>153.6</ele>
        <time>2020-10-12T05:40:59Z</time>
      </trkpt>
      <trkpt lat="38.1493450" lon="-1.1203230">
        <ele>154.0</ele>
        <time>2020-10-12T05:41:00Z</time>
      </trkpt>
      <trkpt lat="38.1494080" lon="-1.1203170">
        <ele>154.6</ele>
        <time>2020-10-12T05:41:01Z</time>
      </trkpt>
      <trkpt lat="38.1494720" lon="-1.1203120">
        <ele>154.8</ele>
        <time>2020-10-12T05:41:02Z</time>
      </trkpt>
      <trkpt lat="38.1495320" lon="-1.1203080">
        <ele>155.0</ele>
        <time>2020-10-12T05:41:03Z</time>
      </trkpt>
      <trkpt lat="38.1495920" lon="-1.1203050">
        <ele>155.2</ele>
        <time>2020-10-12T05:41:04Z</time>
      </trkpt>
      <trkpt lat="38.1496510" lon="-1.1203050">
        <ele>155.4</ele>
        <time>2020-10-12T05:41:05Z</time>
      </trkpt>
      <trkpt lat="38.1497120" lon="-1.1203050">
        <ele>155.4</ele>
        <time>2020-10-12T05:41:06Z</time>
      </trkpt>
      <trkpt lat="38.1497720" lon="-1.1203060">
        <ele>155.2</ele>
        <time>2020-10-12T05:41:07Z</time>
      </trkpt>
      <trkpt lat="38.1498280" lon="-1.1203060">
        <ele>155.2</ele>
        <time>2020-10-12T05:41:08Z</time>
      </trkpt>
      <trkpt lat="38.1498830" lon="-1.1203080">
        <ele>155.4</ele>
        <time>2020-10-12T05:41:09Z</time>
      </trkpt>
      <trkpt lat="38.1499390" lon="-1.1203110">
        <ele>156.0</ele>
        <time>2020-10-12T05:41:10Z</time>
      </trkpt>
      <trkpt lat="38.1500010" lon="-1.1203180">
        <ele>156.8</ele>
        <time>2020-10-12T05:41:11Z</time>
      </trkpt>
      <trkpt lat="38.1500640" lon="-1.1203260">
        <ele>157.6</ele>
        <time>2020-10-12T05:41:12Z</time>
      </trkpt>
      <trkpt lat="38.1501240" lon="-1.1203340">
        <ele>158.2</ele>
        <time>2020-10-12T05:41:13Z</time>
      </trkpt>
      <trkpt lat="38.1501810" lon="-1.1203450">
        <ele>158.6</ele>
        <time>2020-10-12T05:41:14Z</time>
      </trkpt>
      <trkpt lat="38.1502380" lon="-1.1203510">
        <ele>158.8</ele>
        <time>2020-10-12T05:41:15Z</time>
      </trkpt>
      <trkpt lat="38.1502920" lon="-1.1203600">
        <ele>159.0</ele>
        <time>2020-10-12T05:41:16Z</time>
      </trkpt>
      <trkpt lat="38.1503470" lon="-1.1203680">
        <ele>159.0</ele>
        <time>2020-10-12T05:41:17Z</time>
      </trkpt>
      <trkpt lat="38.1504020" lon="-1.1203760">
        <ele>159.2</ele>
        <time>2020-10-12T05:41:18Z</time>
      </trkpt>
      <trkpt lat="38.1504570" lon="-1.1203880">
        <ele>159.2</ele>
        <time>2020-10-12T05:41:19Z</time>
      </trkpt>
      <trkpt lat="38.1505120" lon="-1.1204020">
        <ele>159.2</ele>
        <time>2020-10-12T05:41:20Z</time>
      </trkpt>
      <trkpt lat="38.1505680" lon="-1.1204140">
        <ele>159.2</ele>
        <time>2020-10-12T05:41:21Z</time>
      </trkpt>
      <trkpt lat="38.1506210" lon="-1.1204230">
        <ele>159.0</ele>
        <time>2020-10-12T05:41:22Z</time>
      </trkpt>
      <trkpt lat="38.1506730" lon="-1.1204350">
        <ele>158.8</ele>
        <time>2020-10-12T05:41:23Z</time>
      </trkpt>
      <trkpt lat="38.1507250" lon="-1.1204500">
        <ele>158.8</ele>
        <time>2020-10-12T05:41:24Z</time>
      </trkpt>
      <trkpt lat="38.1507770" lon="-1.1204650">
        <ele>158.8</ele>
        <time>2020-10-12T05:41:25Z</time>
      </trkpt>
      <trkpt lat="38.1508280" lon="-1.1204800">
        <ele>158.6</ele>
        <time>2020-10-12T05:41:26Z</time>
      </trkpt>
      <trkpt lat="38.1508790" lon="-1.1204950">
        <ele>158.6</ele>
        <time>2020-10-12T05:41:27Z</time>
      </trkpt>
      <trkpt lat="38.1509320" lon="-1.1205110">
        <ele>158.6</ele>
        <time>2020-10-12T05:41:28Z</time>
      </trkpt>
      <trkpt lat="38.1509860" lon="-1.1205270">
        <ele>158.6</ele>
        <time>2020-10-12T05:41:29Z</time>
      </trkpt>
      <trkpt lat="38.1510410" lon="-1.1205430">
        <ele>158.6</ele>
        <time>2020-10-12T05:41:30Z</time>
      </trkpt>
      <trkpt lat="38.1510930" lon="-1.1205570">
        <ele>158.6</ele>
        <time>2020-10-12T05:41:31Z</time>
      </trkpt>
      <trkpt lat="38.1511470" lon="-1.1205720">
        <ele>158.6</ele>
        <time>2020-10-12T05:41:32Z</time>
      </trkpt>
      <trkpt lat="38.1512010" lon="-1.1205880">
        <ele>158.8</ele>
        <time>2020-10-12T05:41:33Z</time>
      </trkpt>
      <trkpt lat="38.1512550" lon="-1.1206060">
        <ele>159.0</ele>
        <time>2020-10-12T05:41:34Z</time>
      </trkpt>
      <trkpt lat="38.1513110" lon="-1.1206260">
        <ele>159.0</ele>
        <time>2020-10-12T05:41:35Z</time>
      </trkpt>
      <trkpt lat="38.1513660" lon="-1.1206460">
        <ele>159.0</ele>
        <time>2020-10-12T05:41:36Z</time>
      </trkpt>
      <trkpt lat="38.1514190" lon="-1.1206670">
        <ele>159.2</ele>
        <time>2020-10-12T05:41:37Z</time>
      </trkpt>
      <trkpt lat="38.1514750" lon="-1.1206880">
        <ele>159.2</ele>
        <time>2020-10-12T05:41:38Z</time>
      </trkpt>
      <trkpt lat="38.1515330" lon="-1.1207100">
        <ele>159.2</ele>
        <time>2020-10-12T05:41:39Z</time>
      </trkpt>
      <trkpt lat="38.1515890" lon="-1.1207310">
        <ele>159.2</ele>
        <time>2020-10-12T05:41:40Z</time>
      </trkpt>
      <trkpt lat="38.1516440" lon="-1.1207500">
        <ele>159.0</ele>
        <time>2020-10-12T05:41:41Z</time>
      </trkpt>
      <trkpt lat="38.1516990" lon="-1.1207690">
        <ele>158.8</ele>
        <time>2020-10-12T05:41:42Z</time>
      </trkpt>
      <trkpt lat="38.1517550" lon="-1.1207900">
        <ele>158.6</ele>
        <time>2020-10-12T05:41:43Z</time>
      </trkpt>
      <trkpt lat="38.1518100" lon="-1.1208130">
        <ele>158.4</ele>
        <time>2020-10-12T05:41:44Z</time>
      </trkpt>
      <trkpt lat="38.1518630" lon="-1.1208350">
        <ele>158.2</ele>
        <time>2020-10-12T05:41:45Z</time>
      </trkpt>
      <trkpt lat="38.1519170" lon="-1.1208590">
        <ele>158.2</ele>
        <time>2020-10-12T05:41:46Z</time>
      </trkpt>
      <trkpt lat="38.1519710" lon="-1.1208810">
        <ele>158.2</ele>
        <time>2020-10-12T05:41:47Z</time>
      </trkpt>
      <trkpt lat="38.1520260" lon="-1.1209030">
        <ele>158.4</ele>
        <time>2020-10-12T05:41:48Z</time>
      </trkpt>
      <trkpt lat="38.1520820" lon="-1.1209250">
        <ele>158.6</ele>
        <time>2020-10-12T05:41:49Z</time>
      </trkpt>
      <trkpt lat="38.1521410" lon="-1.1209440">
        <ele>158.6</ele>
        <time>2020-10-12T05:41:50Z</time>
      </trkpt>
      <trkpt lat="38.1521980" lon="-1.1209660">
        <ele>158.8</ele>
        <time>2020-10-12T05:41:51Z</time>
      </trkpt>
      <trkpt lat="38.1522530" lon="-1.1209900">
        <ele>159.0</ele>
        <time>2020-10-12T05:41:52Z</time>
      </trkpt>
      <trkpt lat="38.1523080" lon="-1.1210140">
        <ele>159.0</ele>
        <time>2020-10-12T05:41:53Z</time>
      </trkpt>
      <trkpt lat="38.1523640" lon="-1.1210380">
        <ele>159.0</ele>
        <time>2020-10-12T05:41:54Z</time>
      </trkpt>
      <trkpt lat="38.1524250" lon="-1.1210620">
        <ele>159.0</ele>
        <time>2020-10-12T05:41:55Z</time>
      </trkpt>
      <trkpt lat="38.1524870" lon="-1.1210870">
        <ele>159.0</ele>
        <time>2020-10-12T05:41:56Z</time>
      </trkpt>
      <trkpt lat="38.1525500" lon="-1.1211120">
        <ele>158.8</ele>
        <time>2020-10-12T05:41:57Z</time>
      </trkpt>
      <trkpt lat="38.1526140" lon="-1.1211360">
        <ele>158.8</ele>
        <time>2020-10-12T05:41:58Z</time>
      </trkpt>
      <trkpt lat="38.1526770" lon="-1.1211600">
        <ele>158.6</ele>
        <time>2020-10-12T05:41:59Z</time>
      </trkpt>
      <trkpt lat="38.1527420" lon="-1.1211830">
        <ele>158.2</ele>
        <time>2020-10-12T05:42:00Z</time>
      </trkpt>
      <trkpt lat="38.1528060" lon="-1.1212080">
        <ele>158.2</ele>
        <time>2020-10-12T05:42:01Z</time>
      </trkpt>
      <trkpt lat="38.1528690" lon="-1.1212370">
        <ele>158.2</ele>
        <time>2020-10-12T05:42:02Z</time>
      </trkpt>
      <trkpt lat="38.1529330" lon="-1.1212620">
        <ele>158.2</ele>
        <time>2020-10-12T05:42:03Z</time>
      </trkpt>
      <trkpt lat="38.1529980" lon="-1.1212880">
        <ele>158.2</ele>
        <time>2020-10-12T05:42:04Z</time>
      </trkpt>
      <trkpt lat="38.1530630" lon="-1.1213120">
        <ele>158.2</ele>
        <time>2020-10-12T05:42:05Z</time>
      </trkpt>
      <trkpt lat="38.1531270" lon="-1.1213380">
        <ele>158.2</ele>
        <time>2020-10-12T05:42:06Z</time>
      </trkpt>
      <trkpt lat="38.1531910" lon="-1.1213640">
        <ele>158.2</ele>
        <time>2020-10-12T05:42:07Z</time>
      </trkpt>
      <trkpt lat="38.1532550" lon="-1.1213900">
        <ele>158.0</ele>
        <time>2020-10-12T05:42:08Z</time>
      </trkpt>
      <trkpt lat="38.1533200" lon="-1.1214170">
        <ele>158.0</ele>
        <time>2020-10-12T05:42:09Z</time>
      </trkpt>
      <trkpt lat="38.1533870" lon="-1.1214420">
        <ele>157.8</ele>
        <time>2020-10-12T05:42:10Z</time>
      </trkpt>
      <trkpt lat="38.1534520" lon="-1.1214640">
        <ele>157.8</ele>
        <time>2020-10-12T05:42:11Z</time>
      </trkpt>
      <trkpt lat="38.1535170" lon="-1.1214890">
        <ele>157.8</ele>
        <time>2020-10-12T05:42:12Z</time>
      </trkpt>
      <trkpt lat="38.1535800" lon="-1.1215140">
        <ele>157.8</ele>
        <time>2020-10-12T05:42:13Z</time>
      </trkpt>
      <trkpt lat="38.1536430" lon="-1.1215390">
        <ele>158.0</ele>
        <time>2020-10-12T05:42:14Z</time>
      </trkpt>
      <trkpt lat="38.1537090" lon="-1.1215640">
        <ele>158.2</ele>
        <time>2020-10-12T05:42:15Z</time>
      </trkpt>
      <trkpt lat="38.1537740" lon="-1.1215880">
        <ele>158.4</ele>
        <time>2020-10-12T05:42:16Z</time>
      </trkpt>
      <trkpt lat="38.1538400" lon="-1.1216110">
        <ele>158.6</ele>
        <time>2020-10-12T05:42:17Z</time>
      </trkpt>
      <trkpt lat="38.1539050" lon="-1.1216330">
        <ele>158.6</ele>
        <time>2020-10-12T05:42:18Z</time>
      </trkpt>
      <trkpt lat="38.1539720" lon="-1.1216550">
        <ele>158.6</ele>
        <time>2020-10-12T05:42:19Z</time>
      </trkpt>
      <trkpt lat="38.1540360" lon="-1.1216780">
        <ele>158.6</ele>
        <time>2020-10-12T05:42:20Z</time>
      </trkpt>
      <trkpt lat="38.1541000" lon="-1.1217010">
        <ele>158.6</ele>
        <time>2020-10-12T05:42:21Z</time>
      </trkpt>
      <trkpt lat="38.1541630" lon="-1.1217210">
        <ele>158.6</ele>
        <time>2020-10-12T05:42:22Z</time>
      </trkpt>
      <trkpt lat="38.1542260" lon="-1.1217400">
        <ele>158.6</ele>
        <time>2020-10-12T05:42:23Z</time>
      </trkpt>
      <trkpt lat="38.1542890" lon="-1.1217570">
        <ele>158.8</ele>
        <time>2020-10-12T05:42:24Z</time>
      </trkpt>
      <trkpt lat="38.1543520" lon="-1.1217720">
        <ele>159.0</ele>
        <time>2020-10-12T05:42:25Z</time>
      </trkpt>
      <trkpt lat="38.1544150" lon="-1.1217870">
        <ele>159.2</ele>
        <time>2020-10-12T05:42:26Z</time>
      </trkpt>
      <trkpt lat="38.1544800" lon="-1.1218020">
        <ele>159.4</ele>
        <time>2020-10-12T05:42:27Z</time>
      </trkpt>
      <trkpt lat="38.1545430" lon="-1.1218180">
        <ele>159.6</ele>
        <time>2020-10-12T05:42:28Z</time>
      </trkpt>
      <trkpt lat="38.1546050" lon="-1.1218340">
        <ele>159.6</ele>
        <time>2020-10-12T05:42:29Z</time>
      </trkpt>
      <trkpt lat="38.1546670" lon="-1.1218490">
        <ele>160.0</ele>
        <time>2020-10-12T05:42:30Z</time>
      </trkpt>
      <trkpt lat="38.1547290" lon="-1.1218610">
        <ele>160.2</ele>
        <time>2020-10-12T05:42:31Z</time>
      </trkpt>
      <trkpt lat="38.1547910" lon="-1.1218750">
        <ele>160.4</ele>
        <time>2020-10-12T05:42:32Z</time>
      </trkpt>
      <trkpt lat="38.1548530" lon="-1.1218870">
        <ele>160.4</ele>
        <time>2020-10-12T05:42:33Z</time>
      </trkpt>
      <trkpt lat="38.1549170" lon="-1.1218980">
        <ele>160.6</ele>
        <time>2020-10-12T05:42:34Z</time>
      </trkpt>
      <trkpt lat="38.1549820" lon="-1.1219070">
        <ele>160.6</ele>
        <time>2020-10-12T05:42:35Z</time>
      </trkpt>
      <trkpt lat="38.1550470" lon="-1.1219170">
        <ele>161.2</ele>
        <time>2020-10-12T05:42:36Z</time>
      </trkpt>
      <trkpt lat="38.1551100" lon="-1.1219250">
        <ele>161.8</ele>
        <time>2020-10-12T05:42:37Z</time>
      </trkpt>
      <trkpt lat="38.1551720" lon="-1.1219350">
        <ele>162.4</ele>
        <time>2020-10-12T05:42:38Z</time>
      </trkpt>
      <trkpt lat="38.1552350" lon="-1.1219420">
        <ele>162.6</ele>
        <time>2020-10-12T05:42:39Z</time>
      </trkpt>
      <trkpt lat="38.1552960" lon="-1.1219480">
        <ele>162.8</ele>
        <time>2020-10-12T05:42:40Z</time>
      </trkpt>
      <trkpt lat="38.1553580" lon="-1.1219540">
        <ele>162.8</ele>
        <time>2020-10-12T05:42:41Z</time>
      </trkpt>
      <trkpt lat="38.1554200" lon="-1.1219600">
        <ele>162.6</ele>
        <time>2020-10-12T05:42:42Z</time>
      </trkpt>
      <trkpt lat="38.1554840" lon="-1.1219650">
        <ele>162.6</ele>
        <time>2020-10-12T05:42:43Z</time>
      </trkpt>
      <trkpt lat="38.1555480" lon="-1.1219670">
        <ele>162.4</ele>
        <time>2020-10-12T05:42:44Z</time>
      </trkpt>
      <trkpt lat="38.1556110" lon="-1.1219690">
        <ele>162.4</ele>
        <time>2020-10-12T05:42:45Z</time>
      </trkpt>
      <trkpt lat="38.1556730" lon="-1.1219730">
        <ele>162.4</ele>
        <time>2020-10-12T05:42:46Z</time>
      </trkpt>
      <trkpt lat="38.1557330" lon="-1.1219790">
        <ele>162.6</ele>
        <time>2020-10-12T05:42:47Z</time>
      </trkpt>
      <trkpt lat="38.1557930" lon="-1.1219790">
        <ele>162.8</ele>
        <time>2020-10-12T05:42:48Z</time>
      </trkpt>
      <trkpt lat="38.1558540" lon="-1.1219810">
        <ele>163.0</ele>
        <time>2020-10-12T05:42:49Z</time>
      </trkpt>
      <trkpt lat="38.1559150" lon="-1.1219830">
        <ele>163.6</ele>
        <time>2020-10-12T05:42:50Z</time>
      </trkpt>
      <trkpt lat="38.1559770" lon="-1.1219840">
        <ele>164.0</ele>
        <time>2020-10-12T05:42:51Z</time>
      </trkpt>
      <trkpt lat="38.1560380" lon="-1.1219850">
        <ele>164.6</ele>
        <time>2020-10-12T05:42:52Z</time>
      </trkpt>
      <trkpt lat="38.1561000" lon="-1.1219830">
        <ele>164.8</ele>
        <time>2020-10-12T05:42:53Z</time>
      </trkpt>
      <trkpt lat="38.1561640" lon="-1.1219810">
        <ele>164.8</ele>
        <time>2020-10-12T05:42:54Z</time>
      </trkpt>
      <trkpt lat="38.1562250" lon="-1.1219780">
        <ele>165.0</ele>
        <time>2020-10-12T05:42:55Z</time>
      </trkpt>
      <trkpt lat="38.1562870" lon="-1.1219740">
        <ele>165.0</ele>
        <time>2020-10-12T05:42:56Z</time>
      </trkpt>
      <trkpt lat="38.1563490" lon="-1.1219700">
        <ele>165.2</ele>
        <time>2020-10-12T05:42:57Z</time>
      </trkpt>
      <trkpt lat="38.1564100" lon="-1.1219690">
        <ele>165.2</ele>
        <time>2020-10-12T05:42:58Z</time>
      </trkpt>
      <trkpt lat="38.1564710" lon="-1.1219690">
        <ele>165.2</ele>
        <time>2020-10-12T05:42:59Z</time>
      </trkpt>
      <trkpt lat="38.1565320" lon="-1.1219680">
        <ele>165.4</ele>
        <time>2020-10-12T05:43:00Z</time>
      </trkpt>
      <trkpt lat="38.1565940" lon="-1.1219680">
        <ele>165.6</ele>
        <time>2020-10-12T05:43:01Z</time>
      </trkpt>
      <trkpt lat="38.1566570" lon="-1.1219660">
        <ele>165.8</ele>
        <time>2020-10-12T05:43:02Z</time>
      </trkpt>
      <trkpt lat="38.1567190" lon="-1.1219650">
        <ele>166.0</ele>
        <time>2020-10-12T05:43:03Z</time>
      </trkpt>
      <trkpt lat="38.1567830" lon="-1.1219620">
        <ele>166.4</ele>
        <time>2020-10-12T05:43:04Z</time>
      </trkpt>
      <trkpt lat="38.1568480" lon="-1.1219580">
        <ele>166.6</ele>
        <time>2020-10-12T05:43:05Z</time>
      </trkpt>
      <trkpt lat="38.1569100" lon="-1.1219540">
        <ele>166.6</ele>
        <time>2020-10-12T05:43:06Z</time>
      </trkpt>
      <trkpt lat="38.1569730" lon="-1.1219500">
        <ele>166.8</ele>
        <time>2020-10-12T05:43:07Z</time>
      </trkpt>
      <trkpt lat="38.1570370" lon="-1.1219460">
        <ele>166.8</ele>
        <time>2020-10-12T05:43:08Z</time>
      </trkpt>
      <trkpt lat="38.1570990" lon="-1.1219430">
        <ele>166.8</ele>
        <time>2020-10-12T05:43:09Z</time>
      </trkpt>
      <trkpt lat="38.1571610" lon="-1.1219430">
        <ele>167.0</ele>
        <time>2020-10-12T05:43:10Z</time>
      </trkpt>
      <trkpt lat="38.1572220" lon="-1.1219440">
        <ele>167.0</ele>
        <time>2020-10-12T05:43:11Z</time>
      </trkpt>
      <trkpt lat="38.1572840" lon="-1.1219430">
        <ele>167.0</ele>
        <time>2020-10-12T05:43:12Z</time>
      </trkpt>
      <trkpt lat="38.1573450" lon="-1.1219420">
        <ele>167.4</ele>
        <time>2020-10-12T05:43:13Z</time>
      </trkpt>
      <trkpt lat="38.1574070" lon="-1.1219410">
        <ele>167.6</ele>
        <time>2020-10-12T05:43:14Z</time>
      </trkpt>
      <trkpt lat="38.1574690" lon="-1.1219380">
        <ele>167.8</ele>
        <time>2020-10-12T05:43:15Z</time>
      </trkpt>
      <trkpt lat="38.1575320" lon="-1.1219350">
        <ele>167.8</ele>
        <time>2020-10-12T05:43:16Z</time>
      </trkpt>
      <trkpt lat="38.1575940" lon="-1.1219310">
        <ele>167.6</ele>
        <time>2020-10-12T05:43:17Z</time>
      </trkpt>
      <trkpt lat="38.1576560" lon="-1.1219260">
        <ele>167.6</ele>
        <time>2020-10-12T05:43:18Z</time>
      </trkpt>
      <trkpt lat="38.1577170" lon="-1.1219240">
        <ele>167.4</ele>
        <time>2020-10-12T05:43:19Z</time>
      </trkpt>
      <trkpt lat="38.1577770" lon="-1.1219220">
        <ele>167.2</ele>
        <time>2020-10-12T05:43:20Z</time>
      </trkpt>
      <trkpt lat="38.1578370" lon="-1.1219190">
        <ele>167.2</ele>
        <time>2020-10-12T05:43:21Z</time>
      </trkpt>
      <trkpt lat="38.1578970" lon="-1.1219130">
        <ele>167.2</ele>
        <time>2020-10-12T05:43:22Z</time>
      </trkpt>
      <trkpt lat="38.1579570" lon="-1.1219060">
        <ele>167.2</ele>
        <time>2020-10-12T05:43:23Z</time>
      </trkpt>
      <trkpt lat="38.1580170" lon="-1.1219020">
        <ele>167.2</ele>
        <time>2020-10-12T05:43:24Z</time>
      </trkpt>
      <trkpt lat="38.1580780" lon="-1.1218970">
        <ele>167.4</ele>
        <time>2020-10-12T05:43:25Z</time>
      </trkpt>
      <trkpt lat="38.1581400" lon="-1.1218920">
        <ele>167.4</ele>
        <time>2020-10-12T05:43:26Z</time>
      </trkpt>
      <trkpt lat="38.1582010" lon="-1.1218850">
        <ele>167.4</ele>
        <time>2020-10-12T05:43:27Z</time>
      </trkpt>
      <trkpt lat="38.1582610" lon="-1.1218760">
        <ele>167.6</ele>
        <time>2020-10-12T05:43:28Z</time>
      </trkpt>
      <trkpt lat="38.1583220" lon="-1.1218650">
        <ele>167.6</ele>
        <time>2020-10-12T05:43:29Z</time>
      </trkpt>
      <trkpt lat="38.1583850" lon="-1.1218540">
        <ele>167.8</ele>
        <time>2020-10-12T05:43:30Z</time>
      </trkpt>
      <trkpt lat="38.1584470" lon="-1.1218420">
        <ele>167.8</ele>
        <time>2020-10-12T05:43:31Z</time>
      </trkpt>
      <trkpt lat="38.1585080" lon="-1.1218280">
        <ele>167.8</ele>
        <time>2020-10-12T05:43:32Z</time>
      </trkpt>
      <trkpt lat="38.1585700" lon="-1.1218140">
        <ele>168.0</ele>
        <time>2020-10-12T05:43:33Z</time>
      </trkpt>
      <trkpt lat="38.1586290" lon="-1.1217980">
        <ele>168.0</ele>
        <time>2020-10-12T05:43:34Z</time>
      </trkpt>
      <trkpt lat="38.1586880" lon="-1.1217810">
        <ele>168.0</ele>
        <time>2020-10-12T05:43:35Z</time>
      </trkpt>
      <trkpt lat="38.1587470" lon="-1.1217630">
        <ele>168.0</ele>
        <time>2020-10-12T05:43:36Z</time>
      </trkpt>
      <trkpt lat="38.1588030" lon="-1.1217430">
        <ele>168.2</ele>
        <time>2020-10-12T05:43:37Z</time>
      </trkpt>
      <trkpt lat="38.1588600" lon="-1.1217230">
        <ele>168.4</ele>
        <time>2020-10-12T05:43:38Z</time>
      </trkpt>
      <trkpt lat="38.1589180" lon="-1.1217020">
        <ele>168.6</ele>
        <time>2020-10-12T05:43:39Z</time>
      </trkpt>
      <trkpt lat="38.1589730" lon="-1.1216800">
        <ele>168.6</ele>
        <time>2020-10-12T05:43:40Z</time>
      </trkpt>
      <trkpt lat="38.1590290" lon="-1.1216570">
        <ele>168.8</ele>
        <time>2020-10-12T05:43:41Z</time>
      </trkpt>
      <trkpt lat="38.1590840" lon="-1.1216320">
        <ele>169.0</ele>
        <time>2020-10-12T05:43:42Z</time>
      </trkpt>
      <trkpt lat="38.1591390" lon="-1.1216060">
        <ele>169.2</ele>
        <time>2020-10-12T05:43:43Z</time>
      </trkpt>
      <trkpt lat="38.1591930" lon="-1.1215800">
        <ele>169.6</ele>
        <time>2020-10-12T05:43:44Z</time>
      </trkpt>
      <trkpt lat="38.1592470" lon="-1.1215540">
        <ele>170.0</ele>
        <time>2020-10-12T05:43:45Z</time>
      </trkpt>
      <trkpt lat="38.1593010" lon="-1.1215280">
        <ele>170.6</ele>
        <time>2020-10-12T05:43:46Z</time>
      </trkpt>
      <trkpt lat="38.1593540" lon="-1.1215010">
        <ele>171.2</ele>
        <time>2020-10-12T05:43:47Z</time>
      </trkpt>
      <trkpt lat="38.1594060" lon="-1.1214710">
        <ele>172.0</ele>
        <time>2020-10-12T05:43:48Z</time>
      </trkpt>
      <trkpt lat="38.1594580" lon="-1.1214420">
        <ele>172.4</ele>
        <time>2020-10-12T05:43:49Z</time>
      </trkpt>
      <trkpt lat="38.1595100" lon="-1.1214130">
        <ele>172.8</ele>
        <time>2020-10-12T05:43:50Z</time>
      </trkpt>
      <trkpt lat="38.1595600" lon="-1.1213830">
        <ele>173.0</ele>
        <time>2020-10-12T05:43:51Z</time>
      </trkpt>
      <trkpt lat="38.1596090" lon="-1.1213520">
        <ele>173.6</ele>
        <time>2020-10-12T05:43:52Z</time>
      </trkpt>
      <trkpt lat="38.1596580" lon="-1.1213200">
        <ele>174.0</ele>
        <time>2020-10-12T05:43:53Z</time>
      </trkpt>
      <trkpt lat="38.1597070" lon="-1.1212890">
        <ele>174.4</ele>
        <time>2020-10-12T05:43:54Z</time>
      </trkpt>
      <trkpt lat="38.1597530" lon="-1.1212570">
        <ele>174.8</ele>
        <time>2020-10-12T05:43:55Z</time>
      </trkpt>
      <trkpt lat="38.1597990" lon="-1.1212230">
        <ele>175.0</ele>
        <time>2020-10-12T05:43:56Z</time>
      </trkpt>
      <trkpt lat="38.1598500" lon="-1.1211890">
        <ele>175.0</ele>
        <time>2020-10-12T05:43:57Z</time>
      </trkpt>
      <trkpt lat="38.1598930" lon="-1.1211520">
        <ele>175.2</ele>
        <time>2020-10-12T05:43:58Z</time>
      </trkpt>
      <trkpt lat="38.1599360" lon="-1.1211150">
        <ele>175.4</ele>
        <time>2020-10-12T05:43:59Z</time>
      </trkpt>
      <trkpt lat="38.1599810" lon="-1.1210760">
        <ele>175.4</ele>
        <time>2020-10-12T05:44:00Z</time>
      </trkpt>
      <trkpt lat="38.1600280" lon="-1.1210370">
        <ele>175.4</ele>
        <time>2020-10-12T05:44:01Z</time>
      </trkpt>
      <trkpt lat="38.1600780" lon="-1.1209980">
        <ele>175.6</ele>
        <time>2020-10-12T05:44:02Z</time>
      </trkpt>
      <trkpt lat="38.1601300" lon="-1.1209550">
        <ele>176.0</ele>
        <time>2020-10-12T05:44:03Z</time>
      </trkpt>
      <trkpt lat="38.1601760" lon="-1.1209120">
        <ele>176.0</ele>
        <time>2020-10-12T05:44:04Z</time>
      </trkpt>
      <trkpt lat="38.1602240" lon="-1.1208700">
        <ele>175.8</ele>
        <time>2020-10-12T05:44:05Z</time>
      </trkpt>
      <trkpt lat="38.1602700" lon="-1.1208260">
        <ele>175.6</ele>
        <time>2020-10-12T05:44:06Z</time>
      </trkpt>
      <trkpt lat="38.1603180" lon="-1.1207810">
        <ele>175.4</ele>
        <time>2020-10-12T05:44:07Z</time>
      </trkpt>
      <trkpt lat="38.1603650" lon="-1.1207370">
        <ele>175.4</ele>
        <time>2020-10-12T05:44:08Z</time>
      </trkpt>
      <trkpt lat="38.1604150" lon="-1.1206920">
        <ele>175.2</ele>
        <time>2020-10-12T05:44:09Z</time>
      </trkpt>
      <trkpt lat="38.1604640" lon="-1.1206460">
        <ele>174.8</ele>
        <time>2020-10-12T05:44:10Z</time>
      </trkpt>
      <trkpt lat="38.1605120" lon="-1.1205970">
        <ele>174.8</ele>
        <time>2020-10-12T05:44:11Z</time>
      </trkpt>
      <trkpt lat="38.1605610" lon="-1.1205490">
        <ele>174.6</ele>
        <time>2020-10-12T05:44:12Z</time>
      </trkpt>
      <trkpt lat="38.1606100" lon="-1.1205000">
        <ele>174.8</ele>
        <time>2020-10-12T05:44:13Z</time>
      </trkpt>
      <trkpt lat="38.1606570" lon="-1.1204520">
        <ele>175.0</ele>
        <time>2020-10-12T05:44:14Z</time>
      </trkpt>
      <trkpt lat="38.1607050" lon="-1.1204040">
        <ele>175.0</ele>
        <time>2020-10-12T05:44:15Z</time>
      </trkpt>
      <trkpt lat="38.1607520" lon="-1.1203560">
        <ele>175.2</ele>
        <time>2020-10-12T05:44:16Z</time>
      </trkpt>
      <trkpt lat="38.1607980" lon="-1.1203060">
        <ele>175.4</ele>
        <time>2020-10-12T05:44:17Z</time>
      </trkpt>
      <trkpt lat="38.1608450" lon="-1.1202560">
        <ele>175.4</ele>
        <time>2020-10-12T05:44:18Z</time>
      </trkpt>
      <trkpt lat="38.1608910" lon="-1.1202040">
        <ele>175.6</ele>
        <time>2020-10-12T05:44:19Z</time>
      </trkpt>
      <trkpt lat="38.1609380" lon="-1.1201520">
        <ele>175.6</ele>
        <time>2020-10-12T05:44:20Z</time>
      </trkpt>
      <trkpt lat="38.1609850" lon="-1.1200990">
        <ele>175.6</ele>
        <time>2020-10-12T05:44:21Z</time>
      </trkpt>
      <trkpt lat="38.1610310" lon="-1.1200450">
        <ele>175.8</ele>
        <time>2020-10-12T05:44:22Z</time>
      </trkpt>
      <trkpt lat="38.1610780" lon="-1.1199930">
        <ele>175.8</ele>
        <time>2020-10-12T05:44:23Z</time>
      </trkpt>
      <trkpt lat="38.1611230" lon="-1.1199390">
        <ele>175.8</ele>
        <time>2020-10-12T05:44:24Z</time>
      </trkpt>
      <trkpt lat="38.1611690" lon="-1.1198850">
        <ele>175.8</ele>
        <time>2020-10-12T05:44:25Z</time>
      </trkpt>
      <trkpt lat="38.1612150" lon="-1.1198310">
        <ele>175.8</ele>
        <time>2020-10-12T05:44:26Z</time>
      </trkpt>
      <trkpt lat="38.1612610" lon="-1.1197760">
        <ele>175.8</ele>
        <time>2020-10-12T05:44:27Z</time>
      </trkpt>
      <trkpt lat="38.1613110" lon="-1.1197230">
        <ele>175.8</ele>
        <time>2020-10-12T05:44:28Z</time>
      </trkpt>
      <trkpt lat="38.1613590" lon="-1.1196670">
        <ele>175.8</ele>
        <time>2020-10-12T05:44:29Z</time>
      </trkpt>
      <trkpt lat="38.1614070" lon="-1.1196120">
        <ele>175.8</ele>
        <time>2020-10-12T05:44:30Z</time>
      </trkpt>
      <trkpt lat="38.1614550" lon="-1.1195570">
        <ele>175.6</ele>
        <time>2020-10-12T05:44:31Z</time>
      </trkpt>
      <trkpt lat="38.1615050" lon="-1.1195020">
        <ele>175.8</ele>
        <time>2020-10-12T05:44:32Z</time>
      </trkpt>
      <trkpt lat="38.1615540" lon="-1.1194470">
        <ele>175.8</ele>
        <time>2020-10-12T05:44:33Z</time>
      </trkpt>
      <trkpt lat="38.1616030" lon="-1.1193910">
        <ele>175.6</ele>
        <time>2020-10-12T05:44:34Z</time>
      </trkpt>
      <trkpt lat="38.1616520" lon="-1.1193340">
        <ele>175.4</ele>
        <time>2020-10-12T05:44:35Z</time>
      </trkpt>
      <trkpt lat="38.1617020" lon="-1.1192760">
        <ele>175.2</ele>
        <time>2020-10-12T05:44:36Z</time>
      </trkpt>
      <trkpt lat="38.1617520" lon="-1.1192170">
        <ele>175.0</ele>
        <time>2020-10-12T05:44:37Z</time>
      </trkpt>
      <trkpt lat="38.1618020" lon="-1.1191590">
        <ele>174.8</ele>
        <time>2020-10-12T05:44:38Z</time>
      </trkpt>
      <trkpt lat="38.1618530" lon="-1.1191000">
        <ele>174.8</ele>
        <time>2020-10-12T05:44:39Z</time>
      </trkpt>
      <trkpt lat="38.1619050" lon="-1.1190400">
        <ele>174.6</ele>
        <time>2020-10-12T05:44:40Z</time>
      </trkpt>
      <trkpt lat="38.1619580" lon="-1.1189800">
        <ele>174.4</ele>
        <time>2020-10-12T05:44:41Z</time>
      </trkpt>
      <trkpt lat="38.1620120" lon="-1.1189200">
        <ele>174.4</ele>
        <time>2020-10-12T05:44:42Z</time>
      </trkpt>
      <trkpt lat="38.1620670" lon="-1.1188590">
        <ele>174.4</ele>
        <time>2020-10-12T05:44:43Z</time>
      </trkpt>
      <trkpt lat="38.1621230" lon="-1.1187960">
        <ele>174.2</ele>
        <time>2020-10-12T05:44:44Z</time>
      </trkpt>
      <trkpt lat="38.1621800" lon="-1.1187330">
        <ele>174.0</ele>
        <time>2020-10-12T05:44:45Z</time>
      </trkpt>
      <trkpt lat="38.1622380" lon="-1.1186690">
        <ele>173.8</ele>
        <time>2020-10-12T05:44:46Z</time>
      </trkpt>
      <trkpt lat="38.1622960" lon="-1.1186050">
        <ele>173.4</ele>
        <time>2020-10-12T05:44:47Z</time>
      </trkpt>
      <trkpt lat="38.1623550" lon="-1.1185410">
        <ele>173.2</ele>
        <time>2020-10-12T05:44:48Z</time>
      </trkpt>
      <trkpt lat="38.1624140" lon="-1.1184760">
        <ele>172.8</ele>
        <time>2020-10-12T05:44:49Z</time>
      </trkpt>
      <trkpt lat="38.1624740" lon="-1.1184110">
        <ele>172.4</ele>
        <time>2020-10-12T05:44:50Z</time>
      </trkpt>
      <trkpt lat="38.1625350" lon="-1.1183450">
        <ele>172.0</ele>
        <time>2020-10-12T05:44:51Z</time>
      </trkpt>
      <trkpt lat="38.1625960" lon="-1.1182760">
        <ele>171.8</ele>
        <time>2020-10-12T05:44:52Z</time>
      </trkpt>
      <trkpt lat="38.1626590" lon="-1.1182080">
        <ele>171.4</ele>
        <time>2020-10-12T05:44:53Z</time>
      </trkpt>
      <trkpt lat="38.1627210" lon="-1.1181380">
        <ele>171.2</ele>
        <time>2020-10-12T05:44:54Z</time>
      </trkpt>
      <trkpt lat="38.1627840" lon="-1.1180700">
        <ele>170.8</ele>
        <time>2020-10-12T05:44:55Z</time>
      </trkpt>
      <trkpt lat="38.1628470" lon="-1.1180000">
        <ele>170.6</ele>
        <time>2020-10-12T05:44:56Z</time>
      </trkpt>
      <trkpt lat="38.1629110" lon="-1.1179300">
        <ele>170.4</ele>
        <time>2020-10-12T05:44:57Z</time>
      </trkpt>
      <trkpt lat="38.1629760" lon="-1.1178610">
        <ele>170.4</ele>
        <time>2020-10-12T05:44:58Z</time>
      </trkpt>
      <trkpt lat="38.1630420" lon="-1.1177920">
        <ele>170.2</ele>
        <time>2020-10-12T05:44:59Z</time>
      </trkpt>
      <trkpt lat="38.1631080" lon="-1.1177230">
        <ele>170.0</ele>
        <time>2020-10-12T05:45:00Z</time>
      </trkpt>
      <trkpt lat="38.1631730" lon="-1.1176540">
        <ele>170.0</ele>
        <time>2020-10-12T05:45:01Z</time>
      </trkpt>
      <trkpt lat="38.1632380" lon="-1.1175860">
        <ele>169.8</ele>
        <time>2020-10-12T05:45:02Z</time>
      </trkpt>
      <trkpt lat="38.1633030" lon="-1.1175180">
        <ele>169.8</ele>
        <time>2020-10-12T05:45:03Z</time>
      </trkpt>
      <trkpt lat="38.1633660" lon="-1.1174500">
        <ele>169.8</ele>
        <time>2020-10-12T05:45:04Z</time>
      </trkpt>
      <trkpt lat="38.1634280" lon="-1.1173820">
        <ele>169.6</ele>
        <time>2020-10-12T05:45:05Z</time>
      </trkpt>
      <trkpt lat="38.1634900" lon="-1.1173150">
        <ele>169.6</ele>
        <time>2020-10-12T05:45:06Z</time>
      </trkpt>
      <trkpt lat="38.1635520" lon="-1.1172510">
        <ele>169.6</ele>
        <time>2020-10-12T05:45:07Z</time>
      </trkpt>
      <trkpt lat="38.1636140" lon="-1.1171870">
        <ele>169.6</ele>
        <time>2020-10-12T05:45:08Z</time>
      </trkpt>
      <trkpt lat="38.1636760" lon="-1.1171250">
        <ele>169.6</ele>
        <time>2020-10-12T05:45:09Z</time>
      </trkpt>
      <trkpt lat="38.1637380" lon="-1.1170630">
        <ele>169.6</ele>
        <time>2020-10-12T05:45:10Z</time>
      </trkpt>
      <trkpt lat="38.1638000" lon="-1.1170020">
        <ele>169.6</ele>
        <time>2020-10-12T05:45:11Z</time>
      </trkpt>
      <trkpt lat="38.1638600" lon="-1.1169430">
        <ele>169.6</ele>
        <time>2020-10-12T05:45:12Z</time>
      </trkpt>
      <trkpt lat="38.1639190" lon="-1.1168820">
        <ele>169.6</ele>
        <time>2020-10-12T05:45:13Z</time>
      </trkpt>
      <trkpt lat="38.1639780" lon="-1.1168240">
        <ele>169.8</ele>
        <time>2020-10-12T05:45:14Z</time>
      </trkpt>
      <trkpt lat="38.1640340" lon="-1.1167690">
        <ele>170.6</ele>
        <time>2020-10-12T05:45:15Z</time>
      </trkpt>
      <trkpt lat="38.1640920" lon="-1.1167160">
        <ele>171.6</ele>
        <time>2020-10-12T05:45:16Z</time>
      </trkpt>
      <trkpt lat="38.1641490" lon="-1.1166620">
        <ele>172.8</ele>
        <time>2020-10-12T05:45:17Z</time>
      </trkpt>
      <trkpt lat="38.1642050" lon="-1.1166100">
        <ele>173.6</ele>
        <time>2020-10-12T05:45:18Z</time>
      </trkpt>
      <trkpt lat="38.1642600" lon="-1.1165580">
        <ele>174.2</ele>
        <time>2020-10-12T05:45:19Z</time>
      </trkpt>
      <trkpt lat="38.1643170" lon="-1.1165070">
        <ele>174.4</ele>
        <time>2020-10-12T05:45:20Z</time>
      </trkpt>
      <trkpt lat="38.1643730" lon="-1.1164590">
        <ele>174.8</ele>
        <time>2020-10-12T05:45:21Z</time>
      </trkpt>
      <trkpt lat="38.1644250" lon="-1.1164100">
        <ele>175.2</ele>
        <time>2020-10-12T05:45:22Z</time>
      </trkpt>
      <trkpt lat="38.1644800" lon="-1.1163620">
        <ele>175.6</ele>
        <time>2020-10-12T05:45:23Z</time>
      </trkpt>
      <trkpt lat="38.1645330" lon="-1.1163140">
        <ele>176.0</ele>
        <time>2020-10-12T05:45:24Z</time>
      </trkpt>
      <trkpt lat="38.1645940" lon="-1.1162660">
        <ele>176.2</ele>
        <time>2020-10-12T05:45:25Z</time>
      </trkpt>
      <trkpt lat="38.1646440" lon="-1.1162190">
        <ele>176.2</ele>
        <time>2020-10-12T05:45:26Z</time>
      </trkpt>
      <trkpt lat="38.1646970" lon="-1.1161740">
        <ele>176.2</ele>
        <time>2020-10-12T05:45:27Z</time>
      </trkpt>
      <trkpt lat="38.1647460" lon="-1.1161310">
        <ele>176.0</ele>
        <time>2020-10-12T05:45:28Z</time>
      </trkpt>
      <trkpt lat="38.1647990" lon="-1.1160890">
        <ele>175.8</ele>
        <time>2020-10-12T05:45:29Z</time>
      </trkpt>
      <trkpt lat="38.1648490" lon="-1.1160430">
        <ele>175.6</ele>
        <time>2020-10-12T05:45:30Z</time>
      </trkpt>
      <trkpt lat="38.1649010" lon="-1.1159980">
        <ele>175.4</ele>
        <time>2020-10-12T05:45:31Z</time>
      </trkpt>
      <trkpt lat="38.1649530" lon="-1.1159530">
        <ele>175.2</ele>
        <time>2020-10-12T05:45:32Z</time>
      </trkpt>
      <trkpt lat="38.1650050" lon="-1.1159100">
        <ele>175.0</ele>
        <time>2020-10-12T05:45:33Z</time>
      </trkpt>
      <trkpt lat="38.1650590" lon="-1.1158650">
        <ele>175.0</ele>
        <time>2020-10-12T05:45:34Z</time>
      </trkpt>
      <trkpt lat="38.1651120" lon="-1.1158200">
        <ele>175.0</ele>
        <time>2020-10-12T05:45:35Z</time>
      </trkpt>
      <trkpt lat="38.1651660" lon="-1.1157760">
        <ele>175.0</ele>
        <time>2020-10-12T05:45:36Z</time>
      </trkpt>
      <trkpt lat="38.1652190" lon="-1.1157320">
        <ele>175.0</ele>
        <time>2020-10-12T05:45:37Z</time>
      </trkpt>
      <trkpt lat="38.1652740" lon="-1.1156890">
        <ele>175.0</ele>
        <time>2020-10-12T05:45:38Z</time>
      </trkpt>
      <trkpt lat="38.1653270" lon="-1.1156430">
        <ele>175.2</ele>
        <time>2020-10-12T05:45:39Z</time>
      </trkpt>
      <trkpt lat="38.1653810" lon="-1.1155970">
        <ele>175.4</ele>
        <time>2020-10-12T05:45:40Z</time>
      </trkpt>
      <trkpt lat="38.1654360" lon="-1.1155510">
        <ele>175.6</ele>
        <time>2020-10-12T05:45:41Z</time>
      </trkpt>
      <trkpt lat="38.1654920" lon="-1.1155090">
        <ele>175.6</ele>
        <time>2020-10-12T05:45:42Z</time>
      </trkpt>
      <trkpt lat="38.1655480" lon="-1.1154670">
        <ele>175.6</ele>
        <time>2020-10-12T05:45:43Z</time>
      </trkpt>
      <trkpt lat="38.1656040" lon="-1.1154230">
        <ele>175.6</ele>
        <time>2020-10-12T05:45:44Z</time>
      </trkpt>
      <trkpt lat="38.1656600" lon="-1.1153790">
        <ele>175.8</ele>
        <time>2020-10-12T05:45:45Z</time>
      </trkpt>
      <trkpt lat="38.1657150" lon="-1.1153340">
        <ele>175.8</ele>
        <time>2020-10-12T05:45:46Z</time>
      </trkpt>
      <trkpt lat="38.1657690" lon="-1.1152950">
        <ele>175.8</ele>
        <time>2020-10-12T05:45:47Z</time>
      </trkpt>
      <trkpt lat="38.1658250" lon="-1.1152570">
        <ele>176.2</ele>
        <time>2020-10-12T05:45:48Z</time>
      </trkpt>
      <trkpt lat="38.1658850" lon="-1.1152150">
        <ele>176.6</ele>
        <time>2020-10-12T05:45:49Z</time>
      </trkpt>
      <trkpt lat="38.1659460" lon="-1.1151760">
        <ele>177.4</ele>
        <time>2020-10-12T05:45:50Z</time>
      </trkpt>
      <trkpt lat="38.1660060" lon="-1.1151370">
        <ele>178.2</ele>
        <time>2020-10-12T05:45:51Z</time>
      </trkpt>
      <trkpt lat="38.1660670" lon="-1.1150930">
        <ele>178.6</ele>
        <time>2020-10-12T05:45:52Z</time>
      </trkpt>
      <trkpt lat="38.1661250" lon="-1.1150470">
        <ele>178.8</ele>
        <time>2020-10-12T05:45:53Z</time>
      </trkpt>
      <trkpt lat="38.1661860" lon="-1.1150020">
        <ele>178.4</ele>
        <time>2020-10-12T05:45:54Z</time>
      </trkpt>
      <trkpt lat="38.1662470" lon="-1.1149580">
        <ele>177.6</ele>
        <time>2020-10-12T05:45:55Z</time>
      </trkpt>
      <trkpt lat="38.1663050" lon="-1.1149150">
        <ele>176.6</ele>
        <time>2020-10-12T05:45:56Z</time>
      </trkpt>
      <trkpt lat="38.1663670" lon="-1.1148700">
        <ele>176.0</ele>
        <time>2020-10-12T05:45:57Z</time>
      </trkpt>
      <trkpt lat="38.1664290" lon="-1.1148240">
        <ele>175.6</ele>
        <time>2020-10-12T05:45:58Z</time>
      </trkpt>
      <trkpt lat="38.1664940" lon="-1.1147810">
        <ele>175.4</ele>
        <time>2020-10-12T05:45:59Z</time>
      </trkpt>
      <trkpt lat="38.1665620" lon="-1.1147370">
        <ele>175.2</ele>
        <time>2020-10-12T05:46:00Z</time>
      </trkpt>
      <trkpt lat="38.1666280" lon="-1.1146950">
        <ele>175.2</ele>
        <time>2020-10-12T05:46:01Z</time>
      </trkpt>
      <trkpt lat="38.1666950" lon="-1.1146530">
        <ele>175.2</ele>
        <time>2020-10-12T05:46:02Z</time>
      </trkpt>
      <trkpt lat="38.1667630" lon="-1.1146120">
        <ele>175.2</ele>
        <time>2020-10-12T05:46:03Z</time>
      </trkpt>
      <trkpt lat="38.1668300" lon="-1.1145690">
        <ele>175.2</ele>
        <time>2020-10-12T05:46:04Z</time>
      </trkpt>
      <trkpt lat="38.1668990" lon="-1.1145260">
        <ele>175.0</ele>
        <time>2020-10-12T05:46:05Z</time>
      </trkpt>
      <trkpt lat="38.1669680" lon="-1.1144840">
        <ele>174.8</ele>
        <time>2020-10-12T05:46:06Z</time>
      </trkpt>
      <trkpt lat="38.1670400" lon="-1.1144410">
        <ele>174.4</ele>
        <time>2020-10-12T05:46:07Z</time>
      </trkpt>
      <trkpt lat="38.1671110" lon="-1.1143970">
        <ele>174.2</ele>
        <time>2020-10-12T05:46:08Z</time>
      </trkpt>
      <trkpt lat="38.1671870" lon="-1.1143560">
        <ele>173.8</ele>
        <time>2020-10-12T05:46:09Z</time>
      </trkpt>
      <trkpt lat="38.1672610" lon="-1.1143150">
        <ele>173.6</ele>
        <time>2020-10-12T05:46:10Z</time>
      </trkpt>
      <trkpt lat="38.1673370" lon="-1.1142740">
        <ele>173.2</ele>
        <time>2020-10-12T05:46:11Z</time>
      </trkpt>
      <trkpt lat="38.1674140" lon="-1.1142330">
        <ele>173.0</ele>
        <time>2020-10-12T05:46:12Z</time>
      </trkpt>
      <trkpt lat="38.1674930" lon="-1.1141940">
        <ele>172.6</ele>
        <time>2020-10-12T05:46:13Z</time>
      </trkpt>
      <trkpt lat="38.1675710" lon="-1.1141510">
        <ele>172.4</ele>
        <time>2020-10-12T05:46:14Z</time>
      </trkpt>
      <trkpt lat="38.1676500" lon="-1.1141100">
        <ele>172.2</ele>
        <time>2020-10-12T05:46:15Z</time>
      </trkpt>
      <trkpt lat="38.1677290" lon="-1.1140710">
        <ele>172.0</ele>
        <time>2020-10-12T05:46:16Z</time>
      </trkpt>
      <trkpt lat="38.1678060" lon="-1.1140310">
        <ele>171.8</ele>
        <time>2020-10-12T05:46:17Z</time>
      </trkpt>
      <trkpt lat="38.1678840" lon="-1.1139940">
        <ele>171.8</ele>
        <time>2020-10-12T05:46:18Z</time>
      </trkpt>
      <trkpt lat="38.1679630" lon="-1.1139550">
        <ele>171.6</ele>
        <time>2020-10-12T05:46:19Z</time>
      </trkpt>
      <trkpt lat="38.1680420" lon="-1.1139180">
        <ele>171.4</ele>
        <time>2020-10-12T05:46:20Z</time>
      </trkpt>
      <trkpt lat="38.1681200" lon="-1.1138800">
        <ele>171.2</ele>
        <time>2020-10-12T05:46:21Z</time>
      </trkpt>
      <trkpt lat="38.1681980" lon="-1.1138440">
        <ele>171.0</ele>
        <time>2020-10-12T05:46:22Z</time>
      </trkpt>
      <trkpt lat="38.1682780" lon="-1.1138060">
        <ele>170.8</ele>
        <time>2020-10-12T05:46:23Z</time>
      </trkpt>
      <trkpt lat="38.1683570" lon="-1.1137690">
        <ele>170.6</ele>
        <time>2020-10-12T05:46:24Z</time>
      </trkpt>
      <trkpt lat="38.1684360" lon="-1.1137320">
        <ele>170.4</ele>
        <time>2020-10-12T05:46:25Z</time>
      </trkpt>
      <trkpt lat="38.1685160" lon="-1.1136950">
        <ele>170.4</ele>
        <time>2020-10-12T05:46:26Z</time>
      </trkpt>
      <trkpt lat="38.1685960" lon="-1.1136580">
        <ele>170.0</ele>
        <time>2020-10-12T05:46:27Z</time>
      </trkpt>
      <trkpt lat="38.1686740" lon="-1.1136230">
        <ele>169.8</ele>
        <time>2020-10-12T05:46:28Z</time>
      </trkpt>
      <trkpt lat="38.1687540" lon="-1.1135880">
        <ele>169.4</ele>
        <time>2020-10-12T05:46:29Z</time>
      </trkpt>
      <trkpt lat="38.1688330" lon="-1.1135540">
        <ele>169.2</ele>
        <time>2020-10-12T05:46:30Z</time>
      </trkpt>
      <trkpt lat="38.1689120" lon="-1.1135210">
        <ele>169.0</ele>
        <time>2020-10-12T05:46:31Z</time>
      </trkpt>
      <trkpt lat="38.1689920" lon="-1.1134880">
        <ele>168.8</ele>
        <time>2020-10-12T05:46:32Z</time>
      </trkpt>
      <trkpt lat="38.1690720" lon="-1.1134550">
        <ele>168.8</ele>
        <time>2020-10-12T05:46:33Z</time>
      </trkpt>
      <trkpt lat="38.1691530" lon="-1.1134230">
        <ele>168.6</ele>
        <time>2020-10-12T05:46:34Z</time>
      </trkpt>
      <trkpt lat="38.1692340" lon="-1.1133920">
        <ele>168.6</ele>
        <time>2020-10-12T05:46:35Z</time>
      </trkpt>
      <trkpt lat="38.1693160" lon="-1.1133610">
        <ele>168.6</ele>
        <time>2020-10-12T05:46:36Z</time>
      </trkpt>
      <trkpt lat="38.1693970" lon="-1.1133300">
        <ele>168.6</ele>
        <time>2020-10-12T05:46:37Z</time>
      </trkpt>
      <trkpt lat="38.1694790" lon="-1.1133010">
        <ele>168.6</ele>
        <time>2020-10-12T05:46:38Z</time>
      </trkpt>
      <trkpt lat="38.1695620" lon="-1.1132730">
        <ele>168.4</ele>
        <time>2020-10-12T05:46:39Z</time>
      </trkpt>
      <trkpt lat="38.1696450" lon="-1.1132440">
        <ele>168.2</ele>
        <time>2020-10-12T05:46:40Z</time>
      </trkpt>
      <trkpt lat="38.1697300" lon="-1.1132160">
        <ele>168.0</ele>
        <time>2020-10-12T05:46:41Z</time>
      </trkpt>
      <trkpt lat="38.1698130" lon="-1.1131880">
        <ele>167.8</ele>
        <time>2020-10-12T05:46:42Z</time>
      </trkpt>
      <trkpt lat="38.1698970" lon="-1.1131620">
        <ele>167.6</ele>
        <time>2020-10-12T05:46:43Z</time>
      </trkpt>
      <trkpt lat="38.1699790" lon="-1.1131340">
        <ele>167.4</ele>
        <time>2020-10-12T05:46:44Z</time>
      </trkpt>
      <trkpt lat="38.1700610" lon="-1.1131070">
        <ele>167.4</ele>
        <time>2020-10-12T05:46:45Z</time>
      </trkpt>
      <trkpt lat="38.1701440" lon="-1.1130810">
        <ele>167.2</ele>
        <time>2020-10-12T05:46:46Z</time>
      </trkpt>
      <trkpt lat="38.1702240" lon="-1.1130560">
        <ele>167.0</ele>
        <time>2020-10-12T05:46:47Z</time>
      </trkpt>
      <trkpt lat="38.1703050" lon="-1.1130320">
        <ele>167.0</ele>
        <time>2020-10-12T05:46:48Z</time>
      </trkpt>
      <trkpt lat="38.1703850" lon="-1.1130090">
        <ele>166.8</ele>
        <time>2020-10-12T05:46:49Z</time>
      </trkpt>
      <trkpt lat="38.1704640" lon="-1.1129870">
        <ele>166.6</ele>
        <time>2020-10-12T05:46:50Z</time>
      </trkpt>
      <trkpt lat="38.1705440" lon="-1.1129650">
        <ele>166.6</ele>
        <time>2020-10-12T05:46:51Z</time>
      </trkpt>
      <trkpt lat="38.1706230" lon="-1.1129430">
        <ele>166.4</ele>
        <time>2020-10-12T05:46:52Z</time>
      </trkpt>
      <trkpt lat="38.1707020" lon="-1.1129220">
        <ele>166.4</ele>
        <time>2020-10-12T05:46:53Z</time>
      </trkpt>
      <trkpt lat="38.1707810" lon="-1.1129030">
        <ele>166.4</ele>
        <time>2020-10-12T05:46:54Z</time>
      </trkpt>
      <trkpt lat="38.1708590" lon="-1.1128850">
        <ele>166.6</ele>
        <time>2020-10-12T05:46:55Z</time>
      </trkpt>
      <trkpt lat="38.1709370" lon="-1.1128670">
        <ele>166.6</ele>
        <time>2020-10-12T05:46:56Z</time>
      </trkpt>
      <trkpt lat="38.1710150" lon="-1.1128490">
        <ele>166.6</ele>
        <time>2020-10-12T05:46:57Z</time>
      </trkpt>
      <trkpt lat="38.1710940" lon="-1.1128310">
        <ele>166.8</ele>
        <time>2020-10-12T05:46:58Z</time>
      </trkpt>
      <trkpt lat="38.1711740" lon="-1.1128130">
        <ele>166.8</ele>
        <time>2020-10-12T05:46:59Z</time>
      </trkpt>
      <trkpt lat="38.1712530" lon="-1.1127950">
        <ele>167.0</ele>
        <time>2020-10-12T05:47:00Z</time>
      </trkpt>
      <trkpt lat="38.1713330" lon="-1.1127780">
        <ele>167.0</ele>
        <time>2020-10-12T05:47:01Z</time>
      </trkpt>
      <trkpt lat="38.1714130" lon="-1.1127630">
        <ele>167.0</ele>
        <time>2020-10-12T05:47:02Z</time>
      </trkpt>
      <trkpt lat="38.1714920" lon="-1.1127480">
        <ele>167.0</ele>
        <time>2020-10-12T05:47:03Z</time>
      </trkpt>
      <trkpt lat="38.1715720" lon="-1.1127340">
        <ele>167.0</ele>
        <time>2020-10-12T05:47:04Z</time>
      </trkpt>
      <trkpt lat="38.1716510" lon="-1.1127210">
        <ele>166.8</ele>
        <time>2020-10-12T05:47:05Z</time>
      </trkpt>
      <trkpt lat="38.1717300" lon="-1.1127100">
        <ele>166.8</ele>
        <time>2020-10-12T05:47:06Z</time>
      </trkpt>
      <trkpt lat="38.1718070" lon="-1.1126990">
        <ele>166.8</ele>
        <time>2020-10-12T05:47:07Z</time>
      </trkpt>
      <trkpt lat="38.1718820" lon="-1.1126860">
        <ele>166.6</ele>
        <time>2020-10-12T05:47:08Z</time>
      </trkpt>
      <trkpt lat="38.1719570" lon="-1.1126730">
        <ele>166.8</ele>
        <time>2020-10-12T05:47:09Z</time>
      </trkpt>
      <trkpt lat="38.1720300" lon="-1.1126560">
        <ele>166.8</ele>
        <time>2020-10-12T05:47:10Z</time>
      </trkpt>
      <trkpt lat="38.1720960" lon="-1.1126470">
        <ele>167.0</ele>
        <time>2020-10-12T05:47:11Z</time>
      </trkpt>
      <trkpt lat="38.1721740" lon="-1.1126380">
        <ele>167.2</ele>
        <time>2020-10-12T05:47:12Z</time>
      </trkpt>
      <trkpt lat="38.1722510" lon="-1.1126280">
        <ele>167.4</ele>
        <time>2020-10-12T05:47:13Z</time>
      </trkpt>
      <trkpt lat="38.1723310" lon="-1.1126190">
        <ele>167.4</ele>
        <time>2020-10-12T05:47:14Z</time>
      </trkpt>
      <trkpt lat="38.1724070" lon="-1.1126100">
        <ele>167.6</ele>
        <time>2020-10-12T05:47:15Z</time>
      </trkpt>
      <trkpt lat="38.1724870" lon="-1.1126010">
        <ele>167.6</ele>
        <time>2020-10-12T05:47:16Z</time>
      </trkpt>
      <trkpt lat="38.1725710" lon="-1.1125870">
        <ele>168.4</ele>
        <time>2020-10-12T05:47:17Z</time>
      </trkpt>
      <trkpt lat="38.1726510" lon="-1.1125750">
        <ele>169.4</ele>
        <time>2020-10-12T05:47:18Z</time>
      </trkpt>
      <trkpt lat="38.1727280" lon="-1.1125640">
        <ele>170.2</ele>
        <time>2020-10-12T05:47:19Z</time>
      </trkpt>
      <trkpt lat="38.1728100" lon="-1.1125480">
        <ele>170.8</ele>
        <time>2020-10-12T05:47:20Z</time>
      </trkpt>
      <trkpt lat="38.1728930" lon="-1.1125430">
        <ele>171.0</ele>
        <time>2020-10-12T05:47:21Z</time>
      </trkpt>
      <trkpt lat="38.1729800" lon="-1.1125290">
        <ele>171.0</ele>
        <time>2020-10-12T05:47:22Z</time>
      </trkpt>
      <trkpt lat="38.1730540" lon="-1.1125220">
        <ele>171.0</ele>
        <time>2020-10-12T05:47:23Z</time>
      </trkpt>
      <trkpt lat="38.1731300" lon="-1.1125150">
        <ele>170.8</ele>
        <time>2020-10-12T05:47:24Z</time>
      </trkpt>
      <trkpt lat="38.1732020" lon="-1.1125080">
        <ele>170.6</ele>
        <time>2020-10-12T05:47:25Z</time>
      </trkpt>
      <trkpt lat="38.1732720" lon="-1.1125000">
        <ele>170.6</ele>
        <time>2020-10-12T05:47:26Z</time>
      </trkpt>
      <trkpt lat="38.1733420" lon="-1.1124920">
        <ele>170.6</ele>
        <time>2020-10-12T05:47:27Z</time>
      </trkpt>
      <trkpt lat="38.1734120" lon="-1.1124880">
        <ele>170.4</ele>
        <time>2020-10-12T05:47:28Z</time>
      </trkpt>
      <trkpt lat="38.1734820" lon="-1.1124850">
        <ele>170.6</ele>
        <time>2020-10-12T05:47:29Z</time>
      </trkpt>
      <trkpt lat="38.1735550" lon="-1.1124810">
        <ele>170.6</ele>
        <time>2020-10-12T05:47:30Z</time>
      </trkpt>
      <trkpt lat="38.1736290" lon="-1.1124770">
        <ele>170.6</ele>
        <time>2020-10-12T05:47:31Z</time>
      </trkpt>
      <trkpt lat="38.1737020" lon="-1.1124720">
        <ele>170.8</ele>
        <time>2020-10-12T05:47:32Z</time>
      </trkpt>
      <trkpt lat="38.1737730" lon="-1.1124670">
        <ele>170.8</ele>
        <time>2020-10-12T05:47:33Z</time>
      </trkpt>
      <trkpt lat="38.1738430" lon="-1.1124610">
        <ele>171.2</ele>
        <time>2020-10-12T05:47:34Z</time>
      </trkpt>
      <trkpt lat="38.1739170" lon="-1.1124550">
        <ele>171.2</ele>
        <time>2020-10-12T05:47:35Z</time>
      </trkpt>
      <trkpt lat="38.1739900" lon="-1.1124470">
        <ele>171.4</ele>
        <time>2020-10-12T05:47:36Z</time>
      </trkpt>
      <trkpt lat="38.1740600" lon="-1.1124410">
        <ele>171.4</ele>
        <time>2020-10-12T05:47:37Z</time>
      </trkpt>
      <trkpt lat="38.1741290" lon="-1.1124360">
        <ele>171.6</ele>
        <time>2020-10-12T05:47:38Z</time>
      </trkpt>
      <trkpt lat="38.1741990" lon="-1.1124330">
        <ele>171.8</ele>
        <time>2020-10-12T05:47:39Z</time>
      </trkpt>
      <trkpt lat="38.1742700" lon="-1.1124290">
        <ele>171.8</ele>
        <time>2020-10-12T05:47:40Z</time>
      </trkpt>
      <trkpt lat="38.1743400" lon="-1.1124270">
        <ele>171.8</ele>
        <time>2020-10-12T05:47:41Z</time>
      </trkpt>
      <trkpt lat="38.1744110" lon="-1.1124230">
        <ele>171.8</ele>
        <time>2020-10-12T05:47:42Z</time>
      </trkpt>
      <trkpt lat="38.1744800" lon="-1.1124160">
        <ele>172.0</ele>
        <time>2020-10-12T05:47:43Z</time>
      </trkpt>
      <trkpt lat="38.1745490" lon="-1.1124100">
        <ele>172.0</ele>
        <time>2020-10-12T05:47:44Z</time>
      </trkpt>
      <trkpt lat="38.1746200" lon="-1.1124040">
        <ele>172.0</ele>
        <time>2020-10-12T05:47:45Z</time>
      </trkpt>
      <trkpt lat="38.1746930" lon="-1.1123980">
        <ele>172.2</ele>
        <time>2020-10-12T05:47:46Z</time>
      </trkpt>
      <trkpt lat="38.1747660" lon="-1.1123930">
        <ele>172.4</ele>
        <time>2020-10-12T05:47:47Z</time>
      </trkpt>
      <trkpt lat="38.1748390" lon="-1.1123870">
        <ele>172.6</ele>
        <time>2020-10-12T05:47:48Z</time>
      </trkpt>
      <trkpt lat="38.1749110" lon="-1.1123820">
        <ele>172.6</ele>
        <time>2020-10-12T05:47:49Z</time>
      </trkpt>
      <trkpt lat="38.1749860" lon="-1.1123760">
        <ele>172.6</ele>
        <time>2020-10-12T05:47:50Z</time>
      </trkpt>
      <trkpt lat="38.1750600" lon="-1.1123740">
        <ele>172.4</ele>
        <time>2020-10-12T05:47:51Z</time>
      </trkpt>
      <trkpt lat="38.1751360" lon="-1.1123710">
        <ele>172.0</ele>
        <time>2020-10-12T05:47:52Z</time>
      </trkpt>
      <trkpt lat="38.1752130" lon="-1.1123640">
        <ele>171.0</ele>
        <time>2020-10-12T05:47:53Z</time>
      </trkpt>
      <trkpt lat="38.1752900" lon="-1.1123560">
        <ele>170.6</ele>
        <time>2020-10-12T05:47:54Z</time>
      </trkpt>
      <trkpt lat="38.1753650" lon="-1.1123510">
        <ele>170.2</ele>
        <time>2020-10-12T05:47:55Z</time>
      </trkpt>
      <trkpt lat="38.1754410" lon="-1.1123480">
        <ele>170.0</ele>
        <time>2020-10-12T05:47:56Z</time>
      </trkpt>
      <trkpt lat="38.1755160" lon="-1.1123440">
        <ele>169.8</ele>
        <time>2020-10-12T05:47:57Z</time>
      </trkpt>
      <trkpt lat="38.1755900" lon="-1.1123370">
        <ele>169.8</ele>
        <time>2020-10-12T05:47:58Z</time>
      </trkpt>
      <trkpt lat="38.1756640" lon="-1.1123290">
        <ele>169.6</ele>
        <time>2020-10-12T05:47:59Z</time>
      </trkpt>
      <trkpt lat="38.1757410" lon="-1.1123220">
        <ele>169.6</ele>
        <time>2020-10-12T05:48:00Z</time>
      </trkpt>
      <trkpt lat="38.1758170" lon="-1.1123160">
        <ele>169.6</ele>
        <time>2020-10-12T05:48:01Z</time>
      </trkpt>
      <trkpt lat="38.1758940" lon="-1.1123120">
        <ele>169.6</ele>
        <time>2020-10-12T05:48:02Z</time>
      </trkpt>
      <trkpt lat="38.1759720" lon="-1.1123080">
        <ele>169.4</ele>
        <time>2020-10-12T05:48:03Z</time>
      </trkpt>
      <trkpt lat="38.1760480" lon="-1.1123030">
        <ele>169.4</ele>
        <time>2020-10-12T05:48:04Z</time>
      </trkpt>
      <trkpt lat="38.1761250" lon="-1.1122980">
        <ele>169.4</ele>
        <time>2020-10-12T05:48:05Z</time>
      </trkpt>
      <trkpt lat="38.1762010" lon="-1.1122910">
        <ele>169.4</ele>
        <time>2020-10-12T05:48:06Z</time>
      </trkpt>
      <trkpt lat="38.1762770" lon="-1.1122840">
        <ele>169.4</ele>
        <time>2020-10-12T05:48:07Z</time>
      </trkpt>
      <trkpt lat="38.1763530" lon="-1.1122780">
        <ele>169.4</ele>
        <time>2020-10-12T05:48:08Z</time>
      </trkpt>
      <trkpt lat="38.1764300" lon="-1.1122700">
        <ele>169.2</ele>
        <time>2020-10-12T05:48:09Z</time>
      </trkpt>
      <trkpt lat="38.1765080" lon="-1.1122640">
        <ele>169.0</ele>
        <time>2020-10-12T05:48:10Z</time>
      </trkpt>
      <trkpt lat="38.1765870" lon="-1.1122580">
        <ele>169.0</ele>
        <time>2020-10-12T05:48:11Z</time>
      </trkpt>
      <trkpt lat="38.1766640" lon="-1.1122520">
        <ele>168.8</ele>
        <time>2020-10-12T05:48:12Z</time>
      </trkpt>
      <trkpt lat="38.1767410" lon="-1.1122480">
        <ele>168.8</ele>
        <time>2020-10-12T05:48:13Z</time>
      </trkpt>
      <trkpt lat="38.1768180" lon="-1.1122430">
        <ele>168.8</ele>
        <time>2020-10-12T05:48:14Z</time>
      </trkpt>
      <trkpt lat="38.1768930" lon="-1.1122340">
        <ele>168.8</ele>
        <time>2020-10-12T05:48:15Z</time>
      </trkpt>
      <trkpt lat="38.1769680" lon="-1.1122270">
        <ele>168.8</ele>
        <time>2020-10-12T05:48:16Z</time>
      </trkpt>
      <trkpt lat="38.1770430" lon="-1.1122200">
        <ele>168.8</ele>
        <time>2020-10-12T05:48:17Z</time>
      </trkpt>
      <trkpt lat="38.1771180" lon="-1.1122130">
        <ele>168.8</ele>
        <time>2020-10-12T05:48:18Z</time>
      </trkpt>
      <trkpt lat="38.1771950" lon="-1.1122040">
        <ele>168.6</ele>
        <time>2020-10-12T05:48:19Z</time>
      </trkpt>
      <trkpt lat="38.1772700" lon="-1.1121950">
        <ele>168.6</ele>
        <time>2020-10-12T05:48:20Z</time>
      </trkpt>
      <trkpt lat="38.1773460" lon="-1.1121870">
        <ele>168.6</ele>
        <time>2020-10-12T05:48:21Z</time>
      </trkpt>
      <trkpt lat="38.1774210" lon="-1.1121780">
        <ele>168.6</ele>
        <time>2020-10-12T05:48:22Z</time>
      </trkpt>
      <trkpt lat="38.1774950" lon="-1.1121690">
        <ele>168.4</ele>
        <time>2020-10-12T05:48:23Z</time>
      </trkpt>
      <trkpt lat="38.1775680" lon="-1.1121600">
        <ele>168.4</ele>
        <time>2020-10-12T05:48:24Z</time>
      </trkpt>
      <trkpt lat="38.1776410" lon="-1.1121510">
        <ele>168.4</ele>
        <time>2020-10-12T05:48:25Z</time>
      </trkpt>
      <trkpt lat="38.1777130" lon="-1.1121420">
        <ele>168.4</ele>
        <time>2020-10-12T05:48:26Z</time>
      </trkpt>
      <trkpt lat="38.1777840" lon="-1.1121320">
        <ele>168.4</ele>
        <time>2020-10-12T05:48:27Z</time>
      </trkpt>
      <trkpt lat="38.1778560" lon="-1.1121220">
        <ele>168.6</ele>
        <time>2020-10-12T05:48:28Z</time>
      </trkpt>
      <trkpt lat="38.1779290" lon="-1.1121140">
        <ele>168.8</ele>
        <time>2020-10-12T05:48:29Z</time>
      </trkpt>
      <trkpt lat="38.1780010" lon="-1.1121070">
        <ele>169.2</ele>
        <time>2020-10-12T05:48:30Z</time>
      </trkpt>
      <trkpt lat="38.1780710" lon="-1.1121000">
        <ele>169.4</ele>
        <time>2020-10-12T05:48:31Z</time>
      </trkpt>
      <trkpt lat="38.1781390" lon="-1.1120910">
        <ele>169.6</ele>
        <time>2020-10-12T05:48:32Z</time>
      </trkpt>
      <trkpt lat="38.1782070" lon="-1.1120800">
        <ele>169.8</ele>
        <time>2020-10-12T05:48:33Z</time>
      </trkpt>
      <trkpt lat="38.1782750" lon="-1.1120700">
        <ele>169.8</ele>
        <time>2020-10-12T05:48:34Z</time>
      </trkpt>
      <trkpt lat="38.1783420" lon="-1.1120600">
        <ele>170.0</ele>
        <time>2020-10-12T05:48:35Z</time>
      </trkpt>
      <trkpt lat="38.1784090" lon="-1.1120500">
        <ele>170.0</ele>
        <time>2020-10-12T05:48:36Z</time>
      </trkpt>
      <trkpt lat="38.1784760" lon="-1.1120400">
        <ele>170.2</ele>
        <time>2020-10-12T05:48:37Z</time>
      </trkpt>
      <trkpt lat="38.1785420" lon="-1.1120290">
        <ele>170.2</ele>
        <time>2020-10-12T05:48:38Z</time>
      </trkpt>
      <trkpt lat="38.1786080" lon="-1.1120170">
        <ele>170.4</ele>
        <time>2020-10-12T05:48:39Z</time>
      </trkpt>
      <trkpt lat="38.1786740" lon="-1.1120030">
        <ele>170.4</ele>
        <time>2020-10-12T05:48:40Z</time>
      </trkpt>
      <trkpt lat="38.1787390" lon="-1.1119890">
        <ele>170.6</ele>
        <time>2020-10-12T05:48:41Z</time>
      </trkpt>
      <trkpt lat="38.1788050" lon="-1.1119770">
        <ele>170.6</ele>
        <time>2020-10-12T05:48:42Z</time>
      </trkpt>
      <trkpt lat="38.1788700" lon="-1.1119650">
        <ele>170.6</ele>
        <time>2020-10-12T05:48:43Z</time>
      </trkpt>
      <trkpt lat="38.1789360" lon="-1.1119510">
        <ele>170.6</ele>
        <time>2020-10-12T05:48:44Z</time>
      </trkpt>
      <trkpt lat="38.1790020" lon="-1.1119390">
        <ele>170.6</ele>
        <time>2020-10-12T05:48:45Z</time>
      </trkpt>
      <trkpt lat="38.1790660" lon="-1.1119290">
        <ele>170.6</ele>
        <time>2020-10-12T05:48:46Z</time>
      </trkpt>
      <trkpt lat="38.1791310" lon="-1.1119190">
        <ele>170.8</ele>
        <time>2020-10-12T05:48:47Z</time>
      </trkpt>
      <trkpt lat="38.1791950" lon="-1.1119060">
        <ele>170.8</ele>
        <time>2020-10-12T05:48:48Z</time>
      </trkpt>
      <trkpt lat="38.1792580" lon="-1.1118930">
        <ele>171.0</ele>
        <time>2020-10-12T05:48:49Z</time>
      </trkpt>
      <trkpt lat="38.1793220" lon="-1.1118800">
        <ele>171.2</ele>
        <time>2020-10-12T05:48:50Z</time>
      </trkpt>
      <trkpt lat="38.1793870" lon="-1.1118660">
        <ele>171.2</ele>
        <time>2020-10-12T05:48:51Z</time>
      </trkpt>
      <trkpt lat="38.1794510" lon="-1.1118520">
        <ele>171.4</ele>
        <time>2020-10-12T05:48:52Z</time>
      </trkpt>
      <trkpt lat="38.1795160" lon="-1.1118390">
        <ele>171.6</ele>
        <time>2020-10-12T05:48:53Z</time>
      </trkpt>
      <trkpt lat="38.1795800" lon="-1.1118260">
        <ele>171.8</ele>
        <time>2020-10-12T05:48:54Z</time>
      </trkpt>
      <trkpt lat="38.1796450" lon="-1.1118130">
        <ele>171.8</ele>
        <time>2020-10-12T05:48:55Z</time>
      </trkpt>
      <trkpt lat="38.1797100" lon="-1.1117990">
        <ele>171.8</ele>
        <time>2020-10-12T05:48:56Z</time>
      </trkpt>
      <trkpt lat="38.1797760" lon="-1.1117850">
        <ele>171.8</ele>
        <time>2020-10-12T05:48:57Z</time>
      </trkpt>
      <trkpt lat="38.1798420" lon="-1.1117700">
        <ele>171.8</ele>
        <time>2020-10-12T05:48:58Z</time>
      </trkpt>
      <trkpt lat="38.1799080" lon="-1.1117540">
        <ele>171.8</ele>
        <time>2020-10-12T05:48:59Z</time>
      </trkpt>
      <trkpt lat="38.1799740" lon="-1.1117380">
        <ele>171.8</ele>
        <time>2020-10-12T05:49:00Z</time>
      </trkpt>
      <trkpt lat="38.1800390" lon="-1.1117220">
        <ele>171.6</ele>
        <time>2020-10-12T05:49:01Z</time>
      </trkpt>
      <trkpt lat="38.1801040" lon="-1.1117060">
        <ele>171.6</ele>
        <time>2020-10-12T05:49:02Z</time>
      </trkpt>
      <trkpt lat="38.1801700" lon="-1.1116900">
        <ele>171.6</ele>
        <time>2020-10-12T05:49:03Z</time>
      </trkpt>
      <trkpt lat="38.1802360" lon="-1.1116720">
        <ele>171.4</ele>
        <time>2020-10-12T05:49:04Z</time>
      </trkpt>
      <trkpt lat="38.1803020" lon="-1.1116560">
        <ele>171.4</ele>
        <time>2020-10-12T05:49:05Z</time>
      </trkpt>
      <trkpt lat="38.1803680" lon="-1.1116410">
        <ele>171.4</ele>
        <time>2020-10-12T05:49:06Z</time>
      </trkpt>
      <trkpt lat="38.1804340" lon="-1.1116240">
        <ele>171.6</ele>
        <time>2020-10-12T05:49:07Z</time>
      </trkpt>
      <trkpt lat="38.1805000" lon="-1.1116060">
        <ele>171.6</ele>
        <time>2020-10-12T05:49:08Z</time>
      </trkpt>
      <trkpt lat="38.1805670" lon="-1.1115900">
        <ele>171.6</ele>
        <time>2020-10-12T05:49:09Z</time>
      </trkpt>
      <trkpt lat="38.1806340" lon="-1.1115720">
        <ele>171.6</ele>
        <time>2020-10-12T05:49:10Z</time>
      </trkpt>
      <trkpt lat="38.1807010" lon="-1.1115550">
        <ele>171.6</ele>
        <time>2020-10-12T05:49:11Z</time>
      </trkpt>
      <trkpt lat="38.1807680" lon="-1.1115370">
        <ele>171.6</ele>
        <time>2020-10-12T05:49:12Z</time>
      </trkpt>
      <trkpt lat="38.1808340" lon="-1.1115180">
        <ele>171.8</ele>
        <time>2020-10-12T05:49:13Z</time>
      </trkpt>
      <trkpt lat="38.1808990" lon="-1.1114980">
        <ele>171.6</ele>
        <time>2020-10-12T05:49:14Z</time>
      </trkpt>
      <trkpt lat="38.1809650" lon="-1.1114780">
        <ele>171.6</ele>
        <time>2020-10-12T05:49:15Z</time>
      </trkpt>
      <trkpt lat="38.1810320" lon="-1.1114570">
        <ele>171.4</ele>
        <time>2020-10-12T05:49:16Z</time>
      </trkpt>
      <trkpt lat="38.1810980" lon="-1.1114390">
        <ele>171.4</ele>
        <time>2020-10-12T05:49:17Z</time>
      </trkpt>
      <trkpt lat="38.1811660" lon="-1.1114200">
        <ele>171.4</ele>
        <time>2020-10-12T05:49:18Z</time>
      </trkpt>
      <trkpt lat="38.1812330" lon="-1.1114010">
        <ele>171.4</ele>
        <time>2020-10-12T05:49:19Z</time>
      </trkpt>
      <trkpt lat="38.1813000" lon="-1.1113810">
        <ele>171.2</ele>
        <time>2020-10-12T05:49:20Z</time>
      </trkpt>
      <trkpt lat="38.1813670" lon="-1.1113590">
        <ele>171.2</ele>
        <time>2020-10-12T05:49:21Z</time>
      </trkpt>
      <trkpt lat="38.1814360" lon="-1.1113380">
        <ele>171.0</ele>
        <time>2020-10-12T05:49:22Z</time>
      </trkpt>
      <trkpt lat="38.1815040" lon="-1.1113180">
        <ele>171.0</ele>
        <time>2020-10-12T05:49:23Z</time>
      </trkpt>
      <trkpt lat="38.1815730" lon="-1.1112960">
        <ele>171.0</ele>
        <time>2020-10-12T05:49:24Z</time>
      </trkpt>
      <trkpt lat="38.1816410" lon="-1.1112740">
        <ele>171.0</ele>
        <time>2020-10-12T05:49:25Z</time>
      </trkpt>
      <trkpt lat="38.1817090" lon="-1.1112530">
        <ele>171.0</ele>
        <time>2020-10-12T05:49:26Z</time>
      </trkpt>
      <trkpt lat="38.1817760" lon="-1.1112310">
        <ele>171.0</ele>
        <time>2020-10-12T05:49:27Z</time>
      </trkpt>
      <trkpt lat="38.1818450" lon="-1.1112080">
        <ele>171.2</ele>
        <time>2020-10-12T05:49:28Z</time>
      </trkpt>
      <trkpt lat="38.1819130" lon="-1.1111850">
        <ele>171.2</ele>
        <time>2020-10-12T05:49:29Z</time>
      </trkpt>
      <trkpt lat="38.1819810" lon="-1.1111620">
        <ele>171.0</ele>
        <time>2020-10-12T05:49:30Z</time>
      </trkpt>
      <trkpt lat="38.1820480" lon="-1.1111380">
        <ele>171.0</ele>
        <time>2020-10-12T05:49:31Z</time>
      </trkpt>
      <trkpt lat="38.1821160" lon="-1.1111140">
        <ele>171.0</ele>
        <time>2020-10-12T05:49:32Z</time>
      </trkpt>
      <trkpt lat="38.1821830" lon="-1.1110900">
        <ele>171.0</ele>
        <time>2020-10-12T05:49:33Z</time>
      </trkpt>
      <trkpt lat="38.1822510" lon="-1.1110670">
        <ele>171.0</ele>
        <time>2020-10-12T05:49:34Z</time>
      </trkpt>
      <trkpt lat="38.1823170" lon="-1.1110440">
        <ele>171.0</ele>
        <time>2020-10-12T05:49:35Z</time>
      </trkpt>
      <trkpt lat="38.1823830" lon="-1.1110220">
        <ele>171.0</ele>
        <time>2020-10-12T05:49:36Z</time>
      </trkpt>
      <trkpt lat="38.1824480" lon="-1.1109980">
        <ele>171.0</ele>
        <time>2020-10-12T05:49:37Z</time>
      </trkpt>
      <trkpt lat="38.1825110" lon="-1.1109750">
        <ele>171.0</ele>
        <time>2020-10-12T05:49:38Z</time>
      </trkpt>
      <trkpt lat="38.1825760" lon="-1.1109510">
        <ele>171.0</ele>
        <time>2020-10-12T05:49:39Z</time>
      </trkpt>
      <trkpt lat="38.1826410" lon="-1.1109280">
        <ele>171.0</ele>
        <time>2020-10-12T05:49:40Z</time>
      </trkpt>
      <trkpt lat="38.1827050" lon="-1.1109050">
        <ele>171.0</ele>
        <time>2020-10-12T05:49:41Z</time>
      </trkpt>
      <trkpt lat="38.1827700" lon="-1.1108810">
        <ele>171.2</ele>
        <time>2020-10-12T05:49:42Z</time>
      </trkpt>
      <trkpt lat="38.1828330" lon="-1.1108570">
        <ele>171.4</ele>
        <time>2020-10-12T05:49:43Z</time>
      </trkpt>
      <trkpt lat="38.1828950" lon="-1.1108340">
        <ele>171.6</ele>
        <time>2020-10-12T05:49:44Z</time>
      </trkpt>
      <trkpt lat="38.1829590" lon="-1.1108090">
        <ele>172.2</ele>
        <time>2020-10-12T05:49:45Z</time>
      </trkpt>
      <trkpt lat="38.1830210" lon="-1.1107850">
        <ele>173.0</ele>
        <time>2020-10-12T05:49:46Z</time>
      </trkpt>
      <trkpt lat="38.1830830" lon="-1.1107610">
        <ele>173.8</ele>
        <time>2020-10-12T05:49:47Z</time>
      </trkpt>
      <trkpt lat="38.1831430" lon="-1.1107400">
        <ele>174.2</ele>
        <time>2020-10-12T05:49:48Z</time>
      </trkpt>
      <trkpt lat="38.1832030" lon="-1.1107170">
        <ele>174.6</ele>
        <time>2020-10-12T05:49:49Z</time>
      </trkpt>
      <trkpt lat="38.1832620" lon="-1.1106930">
        <ele>174.6</ele>
        <time>2020-10-12T05:49:50Z</time>
      </trkpt>
      <trkpt lat="38.1833210" lon="-1.1106680">
        <ele>174.8</ele>
        <time>2020-10-12T05:49:51Z</time>
      </trkpt>
      <trkpt lat="38.1833810" lon="-1.1106430">
        <ele>175.0</ele>
        <time>2020-10-12T05:49:52Z</time>
      </trkpt>
      <trkpt lat="38.1834380" lon="-1.1106190">
        <ele>175.2</ele>
        <time>2020-10-12T05:49:53Z</time>
      </trkpt>
      <trkpt lat="38.1834960" lon="-1.1105950">
        <ele>175.4</ele>
        <time>2020-10-12T05:49:54Z</time>
      </trkpt>
      <trkpt lat="38.1835540" lon="-1.1105700">
        <ele>175.6</ele>
        <time>2020-10-12T05:49:55Z</time>
      </trkpt>
      <trkpt lat="38.1836160" lon="-1.1105470">
        <ele>175.6</ele>
        <time>2020-10-12T05:49:56Z</time>
      </trkpt>
      <trkpt lat="38.1836780" lon="-1.1105230">
        <ele>175.8</ele>
        <time>2020-10-12T05:49:57Z</time>
      </trkpt>
      <trkpt lat="38.1837350" lon="-1.1104990">
        <ele>175.4</ele>
        <time>2020-10-12T05:49:58Z</time>
      </trkpt>
      <trkpt lat="38.1837880" lon="-1.1104730">
        <ele>175.0</ele>
        <time>2020-10-12T05:49:59Z</time>
      </trkpt>
      <trkpt lat="38.1838410" lon="-1.1104450">
        <ele>174.4</ele>
        <time>2020-10-12T05:50:00Z</time>
      </trkpt>
      <trkpt lat="38.1838970" lon="-1.1104190">
        <ele>174.2</ele>
        <time>2020-10-12T05:50:01Z</time>
      </trkpt>
      <trkpt lat="38.1839550" lon="-1.1103960">
        <ele>174.0</ele>
        <time>2020-10-12T05:50:02Z</time>
      </trkpt>
      <trkpt lat="38.1840120" lon="-1.1103720">
        <ele>174.0</ele>
        <time>2020-10-12T05:50:03Z</time>
      </trkpt>
      <trkpt lat="38.1840690" lon="-1.1103460">
        <ele>174.2</ele>
        <time>2020-10-12T05:50:04Z</time>
      </trkpt>
      <trkpt lat="38.1841250" lon="-1.1103210">
        <ele>174.4</ele>
        <time>2020-10-12T05:50:05Z</time>
      </trkpt>
      <trkpt lat="38.1841810" lon="-1.1102960">
        <ele>174.4</ele>
        <time>2020-10-12T05:50:06Z</time>
      </trkpt>
      <trkpt lat="38.1842370" lon="-1.1102700">
        <ele>174.6</ele>
        <time>2020-10-12T05:50:07Z</time>
      </trkpt>
      <trkpt lat="38.1842920" lon="-1.1102450">
        <ele>174.8</ele>
        <time>2020-10-12T05:50:08Z</time>
      </trkpt>
      <trkpt lat="38.1843460" lon="-1.1102200">
        <ele>174.8</ele>
        <time>2020-10-12T05:50:09Z</time>
      </trkpt>
      <trkpt lat="38.1844000" lon="-1.1101940">
        <ele>175.0</ele>
        <time>2020-10-12T05:50:10Z</time>
      </trkpt>
      <trkpt lat="38.1844550" lon="-1.1101690">
        <ele>175.0</ele>
        <time>2020-10-12T05:50:11Z</time>
      </trkpt>
      <trkpt lat="38.1845100" lon="-1.1101440">
        <ele>175.2</ele>
        <time>2020-10-12T05:50:12Z</time>
      </trkpt>
      <trkpt lat="38.1845640" lon="-1.1101180">
        <ele>175.2</ele>
        <time>2020-10-12T05:50:13Z</time>
      </trkpt>
      <trkpt lat="38.1846170" lon="-1.1100930">
        <ele>175.4</ele>
        <time>2020-10-12T05:50:14Z</time>
      </trkpt>
      <trkpt lat="38.1846690" lon="-1.1100670">
        <ele>175.6</ele>
        <time>2020-10-12T05:50:15Z</time>
      </trkpt>
      <trkpt lat="38.1847220" lon="-1.1100410">
        <ele>175.8</ele>
        <time>2020-10-12T05:50:16Z</time>
      </trkpt>
      <trkpt lat="38.1847750" lon="-1.1100140">
        <ele>176.0</ele>
        <time>2020-10-12T05:50:17Z</time>
      </trkpt>
      <trkpt lat="38.1848290" lon="-1.1099890">
        <ele>176.2</ele>
        <time>2020-10-12T05:50:18Z</time>
      </trkpt>
      <trkpt lat="38.1848810" lon="-1.1099630">
        <ele>176.2</ele>
        <time>2020-10-12T05:50:19Z</time>
      </trkpt>
      <trkpt lat="38.1849340" lon="-1.1099360">
        <ele>176.8</ele>
        <time>2020-10-12T05:50:20Z</time>
      </trkpt>
      <trkpt lat="38.1849880" lon="-1.1099100">
        <ele>177.6</ele>
        <time>2020-10-12T05:50:21Z</time>
      </trkpt>
      <trkpt lat="38.1850420" lon="-1.1098850">
        <ele>178.6</ele>
        <time>2020-10-12T05:50:22Z</time>
      </trkpt>
      <trkpt lat="38.1850950" lon="-1.1098590">
        <ele>179.0</ele>
        <time>2020-10-12T05:50:23Z</time>
      </trkpt>
      <trkpt lat="38.1851470" lon="-1.1098320">
        <ele>179.2</ele>
        <time>2020-10-12T05:50:24Z</time>
      </trkpt>
      <trkpt lat="38.1851990" lon="-1.1098050">
        <ele>179.4</ele>
        <time>2020-10-12T05:50:25Z</time>
      </trkpt>
      <trkpt lat="38.1852520" lon="-1.1097760">
        <ele>179.4</ele>
        <time>2020-10-12T05:50:26Z</time>
      </trkpt>
      <trkpt lat="38.1853030" lon="-1.1097470">
        <ele>179.6</ele>
        <time>2020-10-12T05:50:27Z</time>
      </trkpt>
      <trkpt lat="38.1853550" lon="-1.1097190">
        <ele>179.8</ele>
        <time>2020-10-12T05:50:28Z</time>
      </trkpt>
      <trkpt lat="38.1854060" lon="-1.1096930">
        <ele>180.0</ele>
        <time>2020-10-12T05:50:29Z</time>
      </trkpt>
      <trkpt lat="38.1854580" lon="-1.1096670">
        <ele>180.0</ele>
        <time>2020-10-12T05:50:30Z</time>
      </trkpt>
      <trkpt lat="38.1855100" lon="-1.1096400">
        <ele>180.2</ele>
        <time>2020-10-12T05:50:31Z</time>
      </trkpt>
      <trkpt lat="38.1855610" lon="-1.1096120">
        <ele>180.2</ele>
        <time>2020-10-12T05:50:32Z</time>
      </trkpt>
      <trkpt lat="38.1856110" lon="-1.1095840">
        <ele>180.2</ele>
        <time>2020-10-12T05:50:33Z</time>
      </trkpt>
      <trkpt lat="38.1856630" lon="-1.1095560">
        <ele>180.2</ele>
        <time>2020-10-12T05:50:34Z</time>
      </trkpt>
      <trkpt lat="38.1857140" lon="-1.1095290">
        <ele>180.4</ele>
        <time>2020-10-12T05:50:35Z</time>
      </trkpt>
      <trkpt lat="38.1857650" lon="-1.1095010">
        <ele>180.4</ele>
        <time>2020-10-12T05:50:36Z</time>
      </trkpt>
      <trkpt lat="38.1858160" lon="-1.1094740">
        <ele>180.6</ele>
        <time>2020-10-12T05:50:37Z</time>
      </trkpt>
      <trkpt lat="38.1858680" lon="-1.1094480">
        <ele>180.8</ele>
        <time>2020-10-12T05:50:38Z</time>
      </trkpt>
      <trkpt lat="38.1859200" lon="-1.1094210">
        <ele>181.0</ele>
        <time>2020-10-12T05:50:39Z</time>
      </trkpt>
      <trkpt lat="38.1859710" lon="-1.1093920">
        <ele>181.2</ele>
        <time>2020-10-12T05:50:40Z</time>
      </trkpt>
      <trkpt lat="38.1860230" lon="-1.1093610">
        <ele>181.2</ele>
        <time>2020-10-12T05:50:41Z</time>
      </trkpt>
      <trkpt lat="38.1860740" lon="-1.1093330">
        <ele>181.2</ele>
        <time>2020-10-12T05:50:42Z</time>
      </trkpt>
      <trkpt lat="38.1861260" lon="-1.1093050">
        <ele>181.4</ele>
        <time>2020-10-12T05:50:43Z</time>
      </trkpt>
      <trkpt lat="38.1861780" lon="-1.1092770">
        <ele>181.8</ele>
        <time>2020-10-12T05:50:44Z</time>
      </trkpt>
      <trkpt lat="38.1862300" lon="-1.1092470">
        <ele>181.8</ele>
        <time>2020-10-12T05:50:45Z</time>
      </trkpt>
      <trkpt lat="38.1862830" lon="-1.1092190">
        <ele>181.8</ele>
        <time>2020-10-12T05:50:46Z</time>
      </trkpt>
      <trkpt lat="38.1863360" lon="-1.1091900">
        <ele>181.8</ele>
        <time>2020-10-12T05:50:47Z</time>
      </trkpt>
      <trkpt lat="38.1863870" lon="-1.1091600">
        <ele>181.8</ele>
        <time>2020-10-12T05:50:48Z</time>
      </trkpt>
      <trkpt lat="38.1864370" lon="-1.1091280">
        <ele>181.6</ele>
        <time>2020-10-12T05:50:49Z</time>
      </trkpt>
      <trkpt lat="38.1864860" lon="-1.1090970">
        <ele>181.4</ele>
        <time>2020-10-12T05:50:50Z</time>
      </trkpt>
      <trkpt lat="38.1865330" lon="-1.1090630">
        <ele>181.2</ele>
        <time>2020-10-12T05:50:51Z</time>
      </trkpt>
      <trkpt lat="38.1865820" lon="-1.1090300">
        <ele>181.0</ele>
        <time>2020-10-12T05:50:52Z</time>
      </trkpt>
      <trkpt lat="38.1866290" lon="-1.1089960">
        <ele>181.0</ele>
        <time>2020-10-12T05:50:53Z</time>
      </trkpt>
      <trkpt lat="38.1866770" lon="-1.1089620">
        <ele>181.0</ele>
        <time>2020-10-12T05:50:54Z</time>
      </trkpt>
      <trkpt lat="38.1867210" lon="-1.1089220">
        <ele>180.8</ele>
        <time>2020-10-12T05:50:55Z</time>
      </trkpt>
      <trkpt lat="38.1867620" lon="-1.1088730">
        <ele>180.8</ele>
        <time>2020-10-12T05:50:56Z</time>
      </trkpt>
      <trkpt lat="38.1868010" lon="-1.1088170">
        <ele>181.0</ele>
        <time>2020-10-12T05:50:57Z</time>
      </trkpt>
      <trkpt lat="38.1868400" lon="-1.1087610">
        <ele>181.0</ele>
        <time>2020-10-12T05:50:58Z</time>
      </trkpt>
      <trkpt lat="38.1868760" lon="-1.1087070">
        <ele>181.2</ele>
        <time>2020-10-12T05:50:59Z</time>
      </trkpt>
      <trkpt lat="38.1869130" lon="-1.1086610">
        <ele>181.4</ele>
        <time>2020-10-12T05:51:00Z</time>
      </trkpt>
      <trkpt lat="38.1869500" lon="-1.1086220">
        <ele>182.0</ele>
        <time>2020-10-12T05:51:01Z</time>
      </trkpt>
      <trkpt lat="38.1869870" lon="-1.1085850">
        <ele>182.8</ele>
        <time>2020-10-12T05:51:02Z</time>
      </trkpt>
      <trkpt lat="38.1870230" lon="-1.1085480">
        <ele>183.6</ele>
        <time>2020-10-12T05:51:03Z</time>
      </trkpt>
      <trkpt lat="38.1870600" lon="-1.1085140">
        <ele>184.2</ele>
        <time>2020-10-12T05:51:04Z</time>
      </trkpt>
      <trkpt lat="38.1870950" lon="-1.1084800">
        <ele>185.0</ele>
        <time>2020-10-12T05:51:05Z</time>
      </trkpt>
      <trkpt lat="38.1871290" lon="-1.1084470">
        <ele>185.6</ele>
        <time>2020-10-12T05:51:06Z</time>
      </trkpt>
      <trkpt lat="38.1871590" lon="-1.1084160">
        <ele>186.2</ele>
        <time>2020-10-12T05:51:07Z</time>
      </trkpt>
      <trkpt lat="38.1871900" lon="-1.1083850">
        <ele>186.6</ele>
        <time>2020-10-12T05:51:08Z</time>
      </trkpt>
      <trkpt lat="38.1872150" lon="-1.1083540">
        <ele>187.0</ele>
        <time>2020-10-12T05:51:09Z</time>
      </trkpt>
      <trkpt lat="38.1872390" lon="-1.1083240">
        <ele>187.4</ele>
        <time>2020-10-12T05:51:10Z</time>
      </trkpt>
      <trkpt lat="38.1872630" lon="-1.1082950">
        <ele>187.6</ele>
        <time>2020-10-12T05:51:11Z</time>
      </trkpt>
      <trkpt lat="38.1872880" lon="-1.1082660">
        <ele>187.6</ele>
        <time>2020-10-12T05:51:12Z</time>
      </trkpt>
      <trkpt lat="38.1873130" lon="-1.1082400">
        <ele>188.0</ele>
        <time>2020-10-12T05:51:13Z</time>
      </trkpt>
      <trkpt lat="38.1873380" lon="-1.1082150">
        <ele>188.2</ele>
        <time>2020-10-12T05:51:14Z</time>
      </trkpt>
      <trkpt lat="38.1873610" lon="-1.1081890">
        <ele>188.6</ele>
        <time>2020-10-12T05:51:15Z</time>
      </trkpt>
      <trkpt lat="38.1873860" lon="-1.1081600">
        <ele>189.0</ele>
        <time>2020-10-12T05:51:16Z</time>
      </trkpt>
      <trkpt lat="38.1874100" lon="-1.1081320">
        <ele>189.4</ele>
        <time>2020-10-12T05:51:17Z</time>
      </trkpt>
      <trkpt lat="38.1874370" lon="-1.1081070">
        <ele>189.8</ele>
        <time>2020-10-12T05:51:18Z</time>
      </trkpt>
      <trkpt lat="38.1874630" lon="-1.1080810">
        <ele>190.2</ele>
        <time>2020-10-12T05:51:19Z</time>
      </trkpt>
      <trkpt lat="38.1874880" lon="-1.1080520">
        <ele>190.4</ele>
        <time>2020-10-12T05:51:20Z</time>
      </trkpt>
      <trkpt lat="38.1875130" lon="-1.1080180">
        <ele>190.6</ele>
        <time>2020-10-12T05:51:21Z</time>
      </trkpt>
      <trkpt lat="38.1875350" lon="-1.1079780">
        <ele>190.8</ele>
        <time>2020-10-12T05:51:22Z</time>
      </trkpt>
      <trkpt lat="38.1875510" lon="-1.1079320">
        <ele>191.2</ele>
        <time>2020-10-12T05:51:23Z</time>
      </trkpt>
      <trkpt lat="38.1875650" lon="-1.1078820">
        <ele>191.4</ele>
        <time>2020-10-12T05:51:24Z</time>
      </trkpt>
      <trkpt lat="38.1875820" lon="-1.1078310">
        <ele>191.8</ele>
        <time>2020-10-12T05:51:25Z</time>
      </trkpt>
      <trkpt lat="38.1876030" lon="-1.1077790">
        <ele>192.0</ele>
        <time>2020-10-12T05:51:26Z</time>
      </trkpt>
      <trkpt lat="38.1876280" lon="-1.1077240">
        <ele>192.0</ele>
        <time>2020-10-12T05:51:27Z</time>
      </trkpt>
      <trkpt lat="38.1876520" lon="-1.1076650">
        <ele>192.0</ele>
        <time>2020-10-12T05:51:28Z</time>
      </trkpt>
      <trkpt lat="38.1876650" lon="-1.1075980">
        <ele>191.8</ele>
        <time>2020-10-12T05:51:29Z</time>
      </trkpt>
      <trkpt lat="38.1876650" lon="-1.1075270">
        <ele>191.8</ele>
        <time>2020-10-12T05:51:30Z</time>
      </trkpt>
      <trkpt lat="38.1876630" lon="-1.1074550">
        <ele>191.4</ele>
        <time>2020-10-12T05:51:31Z</time>
      </trkpt>
      <trkpt lat="38.1876580" lon="-1.1073830">
        <ele>191.0</ele>
        <time>2020-10-12T05:51:32Z</time>
      </trkpt>
      <trkpt lat="38.1876570" lon="-1.1073120">
        <ele>190.6</ele>
        <time>2020-10-12T05:51:33Z</time>
      </trkpt>
      <trkpt lat="38.1876580" lon="-1.1072370">
        <ele>190.2</ele>
        <time>2020-10-12T05:51:34Z</time>
      </trkpt>
      <trkpt lat="38.1876620" lon="-1.1071590">
        <ele>190.2</ele>
        <time>2020-10-12T05:51:35Z</time>
      </trkpt>
      <trkpt lat="38.1876670" lon="-1.1070800">
        <ele>190.0</ele>
        <time>2020-10-12T05:51:36Z</time>
      </trkpt>
      <trkpt lat="38.1876770" lon="-1.1069980">
        <ele>190.0</ele>
        <time>2020-10-12T05:51:37Z</time>
      </trkpt>
      <trkpt lat="38.1876950" lon="-1.1069150">
        <ele>190.0</ele>
        <time>2020-10-12T05:51:38Z</time>
      </trkpt>
      <trkpt lat="38.1877190" lon="-1.1068380">
        <ele>190.0</ele>
        <time>2020-10-12T05:51:39Z</time>
      </trkpt>
      <trkpt lat="38.1877470" lon="-1.1067600">
        <ele>190.0</ele>
        <time>2020-10-12T05:51:40Z</time>
      </trkpt>
      <trkpt lat="38.1877790" lon="-1.1066860">
        <ele>190.2</ele>
        <time>2020-10-12T05:51:41Z</time>
      </trkpt>
      <trkpt lat="38.1878160" lon="-1.1066120">
        <ele>190.6</ele>
        <time>2020-10-12T05:51:42Z</time>
      </trkpt>
      <trkpt lat="38.1878540" lon="-1.1065420">
        <ele>190.6</ele>
        <time>2020-10-12T05:51:43Z</time>
      </trkpt>
      <trkpt lat="38.1878950" lon="-1.1064760">
        <ele>191.0</ele>
        <time>2020-10-12T05:51:44Z</time>
      </trkpt>
      <trkpt lat="38.1879480" lon="-1.1064180">
        <ele>191.0</ele>
        <time>2020-10-12T05:51:45Z</time>
      </trkpt>
      <trkpt lat="38.1880070" lon="-1.1063690">
        <ele>191.2</ele>
        <time>2020-10-12T05:51:46Z</time>
      </trkpt>
      <trkpt lat="38.1880630" lon="-1.1063220">
        <ele>191.0</ele>
        <time>2020-10-12T05:51:47Z</time>
      </trkpt>
      <trkpt lat="38.1881190" lon="-1.1062780">
        <ele>191.2</ele>
        <time>2020-10-12T05:51:48Z</time>
      </trkpt>
      <trkpt lat="38.1881800" lon="-1.1062400">
        <ele>191.2</ele>
        <time>2020-10-12T05:51:49Z</time>
      </trkpt>
      <trkpt lat="38.1882400" lon="-1.1062100">
        <ele>191.6</ele>
        <time>2020-10-12T05:51:50Z</time>
      </trkpt>
      <trkpt lat="38.1883000" lon="-1.1061890">
        <ele>191.6</ele>
        <time>2020-10-12T05:51:51Z</time>
      </trkpt>
      <trkpt lat="38.1883600" lon="-1.1061710">
        <ele>191.8</ele>
        <time>2020-10-12T05:51:52Z</time>
      </trkpt>
      <trkpt lat="38.1884200" lon="-1.1061570">
        <ele>192.0</ele>
        <time>2020-10-12T05:51:53Z</time>
      </trkpt>
      <trkpt lat="38.1884790" lon="-1.1061420">
        <ele>192.2</ele>
        <time>2020-10-12T05:51:54Z</time>
      </trkpt>
      <trkpt lat="38.1885350" lon="-1.1061260">
        <ele>192.4</ele>
        <time>2020-10-12T05:51:55Z</time>
      </trkpt>
      <trkpt lat="38.1885930" lon="-1.1061070">
        <ele>192.6</ele>
        <time>2020-10-12T05:51:56Z</time>
      </trkpt>
      <trkpt lat="38.1886520" lon="-1.1060870">
        <ele>192.8</ele>
        <time>2020-10-12T05:51:57Z</time>
      </trkpt>
      <trkpt lat="38.1887110" lon="-1.1060640">
        <ele>193.2</ele>
        <time>2020-10-12T05:51:58Z</time>
      </trkpt>
      <trkpt lat="38.1887680" lon="-1.1060420">
        <ele>193.2</ele>
        <time>2020-10-12T05:51:59Z</time>
      </trkpt>
      <trkpt lat="38.1888260" lon="-1.1060170">
        <ele>193.6</ele>
        <time>2020-10-12T05:52:00Z</time>
      </trkpt>
      <trkpt lat="38.1888810" lon="-1.1059830">
        <ele>193.6</ele>
        <time>2020-10-12T05:52:01Z</time>
      </trkpt>
      <trkpt lat="38.1889380" lon="-1.1059520">
        <ele>193.6</ele>
        <time>2020-10-12T05:52:02Z</time>
      </trkpt>
      <trkpt lat="38.1889970" lon="-1.1059210">
        <ele>193.4</ele>
        <time>2020-10-12T05:52:03Z</time>
      </trkpt>
      <trkpt lat="38.1890560" lon="-1.1058870">
        <ele>193.2</ele>
        <time>2020-10-12T05:52:04Z</time>
      </trkpt>
      <trkpt lat="38.1891120" lon="-1.1058470">
        <ele>193.0</ele>
        <time>2020-10-12T05:52:05Z</time>
      </trkpt>
      <trkpt lat="38.1891710" lon="-1.1058020">
        <ele>192.8</ele>
        <time>2020-10-12T05:52:06Z</time>
      </trkpt>
      <trkpt lat="38.1892400" lon="-1.1057680">
        <ele>192.8</ele>
        <time>2020-10-12T05:52:07Z</time>
      </trkpt>
      <trkpt lat="38.1893110" lon="-1.1057260">
        <ele>192.4</ele>
        <time>2020-10-12T05:52:08Z</time>
      </trkpt>
      <trkpt lat="38.1893800" lon="-1.1056750">
        <ele>192.4</ele>
        <time>2020-10-12T05:52:09Z</time>
      </trkpt>
      <trkpt lat="38.1894480" lon="-1.1056130">
        <ele>192.2</ele>
        <time>2020-10-12T05:52:10Z</time>
      </trkpt>
      <trkpt lat="38.1895130" lon="-1.1055430">
        <ele>191.8</ele>
        <time>2020-10-12T05:52:11Z</time>
      </trkpt>
      <trkpt lat="38.1895840" lon="-1.1054660">
        <ele>191.6</ele>
        <time>2020-10-12T05:52:12Z</time>
      </trkpt>
      <trkpt lat="38.1896530" lon="-1.1053840">
        <ele>191.2</ele>
        <time>2020-10-12T05:52:13Z</time>
      </trkpt>
      <trkpt lat="38.1897220" lon="-1.1052990">
        <ele>190.2</ele>
        <time>2020-10-12T05:52:14Z</time>
      </trkpt>
      <trkpt lat="38.1897910" lon="-1.1052130">
        <ele>188.4</ele>
        <time>2020-10-12T05:52:15Z</time>
      </trkpt>
      <trkpt lat="38.1898560" lon="-1.1051250">
        <ele>186.2</ele>
        <time>2020-10-12T05:52:16Z</time>
      </trkpt>
      <trkpt lat="38.1899240" lon="-1.1050380">
        <ele>184.4</ele>
        <time>2020-10-12T05:52:17Z</time>
      </trkpt>
      <trkpt lat="38.1899880" lon="-1.1049490">
        <ele>183.4</ele>
        <time>2020-10-12T05:52:18Z</time>
      </trkpt>
      <trkpt lat="38.1900460" lon="-1.1048590">
        <ele>183.0</ele>
        <time>2020-10-12T05:52:19Z</time>
      </trkpt>
      <trkpt lat="38.1901030" lon="-1.1047670">
        <ele>182.6</ele>
        <time>2020-10-12T05:52:20Z</time>
      </trkpt>
      <trkpt lat="38.1901570" lon="-1.1046760">
        <ele>182.6</ele>
        <time>2020-10-12T05:52:21Z</time>
      </trkpt>
      <trkpt lat="38.1902070" lon="-1.1045830">
        <ele>182.6</ele>
        <time>2020-10-12T05:52:22Z</time>
      </trkpt>
      <trkpt lat="38.1902510" lon="-1.1044880">
        <ele>182.6</ele>
        <time>2020-10-12T05:52:23Z</time>
      </trkpt>
      <trkpt lat="38.1902910" lon="-1.1043950">
        <ele>182.8</ele>
        <time>2020-10-12T05:52:24Z</time>
      </trkpt>
      <trkpt lat="38.1903270" lon="-1.1043000">
        <ele>183.0</ele>
        <time>2020-10-12T05:52:25Z</time>
      </trkpt>
      <trkpt lat="38.1903610" lon="-1.1042050">
        <ele>183.0</ele>
        <time>2020-10-12T05:52:26Z</time>
      </trkpt>
      <trkpt lat="38.1903960" lon="-1.1041110">
        <ele>183.0</ele>
        <time>2020-10-12T05:52:27Z</time>
      </trkpt>
      <trkpt lat="38.1904300" lon="-1.1040150">
        <ele>183.0</ele>
        <time>2020-10-12T05:52:28Z</time>
      </trkpt>
      <trkpt lat="38.1904630" lon="-1.1039190">
        <ele>183.0</ele>
        <time>2020-10-12T05:52:29Z</time>
      </trkpt>
      <trkpt lat="38.1904990" lon="-1.1038230">
        <ele>183.2</ele>
        <time>2020-10-12T05:52:30Z</time>
      </trkpt>
      <trkpt lat="38.1905360" lon="-1.1037270">
        <ele>183.2</ele>
        <time>2020-10-12T05:52:31Z</time>
      </trkpt>
      <trkpt lat="38.1905700" lon="-1.1036310">
        <ele>183.0</ele>
        <time>2020-10-12T05:52:32Z</time>
      </trkpt>
      <trkpt lat="38.1906040" lon="-1.1035360">
        <ele>183.2</ele>
        <time>2020-10-12T05:52:33Z</time>
      </trkpt>
      <trkpt lat="38.1906370" lon="-1.1034420">
        <ele>183.2</ele>
        <time>2020-10-12T05:52:34Z</time>
      </trkpt>
      <trkpt lat="38.1906660" lon="-1.1033480">
        <ele>183.2</ele>
        <time>2020-10-12T05:52:35Z</time>
      </trkpt>
      <trkpt lat="38.1906890" lon="-1.1032540">
        <ele>183.2</ele>
        <time>2020-10-12T05:52:36Z</time>
      </trkpt>
      <trkpt lat="38.1907120" lon="-1.1031620">
        <ele>183.0</ele>
        <time>2020-10-12T05:52:37Z</time>
      </trkpt>
      <trkpt lat="38.1907370" lon="-1.1030760">
        <ele>183.0</ele>
        <time>2020-10-12T05:52:38Z</time>
      </trkpt>
      <trkpt lat="38.1907550" lon="-1.1029840">
        <ele>183.4</ele>
        <time>2020-10-12T05:52:39Z</time>
      </trkpt>
      <trkpt lat="38.1907730" lon="-1.1028940">
        <ele>184.0</ele>
        <time>2020-10-12T05:52:40Z</time>
      </trkpt>
      <trkpt lat="38.1907890" lon="-1.1028080">
        <ele>185.2</ele>
        <time>2020-10-12T05:52:41Z</time>
      </trkpt>
      <trkpt lat="38.1908010" lon="-1.1027220">
        <ele>186.4</ele>
        <time>2020-10-12T05:52:42Z</time>
      </trkpt>
      <trkpt lat="38.1908130" lon="-1.1026360">
        <ele>187.4</ele>
        <time>2020-10-12T05:52:43Z</time>
      </trkpt>
      <trkpt lat="38.1908250" lon="-1.1025540">
        <ele>187.8</ele>
        <time>2020-10-12T05:52:44Z</time>
      </trkpt>
      <trkpt lat="38.1908390" lon="-1.1024740">
        <ele>187.6</ele>
        <time>2020-10-12T05:52:45Z</time>
      </trkpt>
      <trkpt lat="38.1908510" lon="-1.1023990">
        <ele>187.4</ele>
        <time>2020-10-12T05:52:46Z</time>
      </trkpt>
      <trkpt lat="38.1908630" lon="-1.1023270">
        <ele>187.6</ele>
        <time>2020-10-12T05:52:47Z</time>
      </trkpt>
      <trkpt lat="38.1908770" lon="-1.1022600">
        <ele>187.6</ele>
        <time>2020-10-12T05:52:48Z</time>
      </trkpt>
      <trkpt lat="38.1908930" lon="-1.1021960">
        <ele>188.0</ele>
        <time>2020-10-12T05:52:49Z</time>
      </trkpt>
      <trkpt lat="38.1909110" lon="-1.1021310">
        <ele>188.4</ele>
        <time>2020-10-12T05:52:50Z</time>
      </trkpt>
      <trkpt lat="38.1909310" lon="-1.1020660">
        <ele>188.8</ele>
        <time>2020-10-12T05:52:51Z</time>
      </trkpt>
      <trkpt lat="38.1909540" lon="-1.1020050">
        <ele>189.4</ele>
        <time>2020-10-12T05:52:52Z</time>
      </trkpt>
      <trkpt lat="38.1909790" lon="-1.1019460">
        <ele>189.6</ele>
        <time>2020-10-12T05:52:53Z</time>
      </trkpt>
      <trkpt lat="38.1910050" lon="-1.1018870">
        <ele>190.0</ele>
        <time>2020-10-12T05:52:54Z</time>
      </trkpt>
      <trkpt lat="38.1910290" lon="-1.1018290">
        <ele>190.4</ele>
        <time>2020-10-12T05:52:55Z</time>
      </trkpt>
      <trkpt lat="38.1910570" lon="-1.1017720">
        <ele>190.8</ele>
        <time>2020-10-12T05:52:56Z</time>
      </trkpt>
      <trkpt lat="38.1910820" lon="-1.1017130">
        <ele>191.2</ele>
        <time>2020-10-12T05:52:57Z</time>
      </trkpt>
      <trkpt lat="38.1911050" lon="-1.1016550">
        <ele>192.0</ele>
        <time>2020-10-12T05:52:58Z</time>
      </trkpt>
      <trkpt lat="38.1911260" lon="-1.1015980">
        <ele>192.4</ele>
        <time>2020-10-12T05:52:59Z</time>
      </trkpt>
      <trkpt lat="38.1911470" lon="-1.1015380">
        <ele>192.8</ele>
        <time>2020-10-12T05:53:00Z</time>
      </trkpt>
      <trkpt lat="38.1911680" lon="-1.1014790">
        <ele>193.0</ele>
        <time>2020-10-12T05:53:01Z</time>
      </trkpt>
      <trkpt lat="38.1911870" lon="-1.1014220">
        <ele>192.8</ele>
        <time>2020-10-12T05:53:02Z</time>
      </trkpt>
      <trkpt lat="38.1912050" lon="-1.1013670">
        <ele>192.8</ele>
        <time>2020-10-12T05:53:03Z</time>
      </trkpt>
      <trkpt lat="38.1912210" lon="-1.1013090">
        <ele>193.0</ele>
        <time>2020-10-12T05:53:04Z</time>
      </trkpt>
      <trkpt lat="38.1912430" lon="-1.1012560">
        <ele>193.2</ele>
        <time>2020-10-12T05:53:05Z</time>
      </trkpt>
      <trkpt lat="38.1912740" lon="-1.1011940">
        <ele>193.4</ele>
        <time>2020-10-12T05:53:06Z</time>
      </trkpt>
      <trkpt lat="38.1912880" lon="-1.1011360">
        <ele>193.6</ele>
        <time>2020-10-12T05:53:07Z</time>
      </trkpt>
      <trkpt lat="38.1913080" lon="-1.1010770">
        <ele>193.6</ele>
        <time>2020-10-12T05:53:08Z</time>
      </trkpt>
      <trkpt lat="38.1913110" lon="-1.1010140">
        <ele>193.6</ele>
        <time>2020-10-12T05:53:09Z</time>
      </trkpt>
      <trkpt lat="38.1913170" lon="-1.1009520">
        <ele>193.6</ele>
        <time>2020-10-12T05:53:10Z</time>
      </trkpt>
      <trkpt lat="38.1913140" lon="-1.1008820">
        <ele>194.0</ele>
        <time>2020-10-12T05:53:11Z</time>
      </trkpt>
      <trkpt lat="38.1913080" lon="-1.1008070">
        <ele>194.0</ele>
        <time>2020-10-12T05:53:12Z</time>
      </trkpt>
      <trkpt lat="38.1913010" lon="-1.1007290">
        <ele>194.4</ele>
        <time>2020-10-12T05:53:13Z</time>
      </trkpt>
      <trkpt lat="38.1912920" lon="-1.1006460">
        <ele>194.6</ele>
        <time>2020-10-12T05:53:14Z</time>
      </trkpt>
      <trkpt lat="38.1912790" lon="-1.1005630">
        <ele>194.6</ele>
        <time>2020-10-12T05:53:15Z</time>
      </trkpt>
      <trkpt lat="38.1912640" lon="-1.1004800">
        <ele>194.4</ele>
        <time>2020-10-12T05:53:16Z</time>
      </trkpt>
      <trkpt lat="38.1912490" lon="-1.1003980">
        <ele>193.6</ele>
        <time>2020-10-12T05:53:17Z</time>
      </trkpt>
      <trkpt lat="38.1912380" lon="-1.1003170">
        <ele>192.6</ele>
        <time>2020-10-12T05:53:18Z</time>
      </trkpt>
      <trkpt lat="38.1912270" lon="-1.1002360">
        <ele>191.8</ele>
        <time>2020-10-12T05:53:19Z</time>
      </trkpt>
      <trkpt lat="38.1912120" lon="-1.1001520">
        <ele>191.4</ele>
        <time>2020-10-12T05:53:20Z</time>
      </trkpt>
      <trkpt lat="38.1911970" lon="-1.1000620">
        <ele>190.8</ele>
        <time>2020-10-12T05:53:21Z</time>
      </trkpt>
      <trkpt lat="38.1911820" lon="-1.0999690">
        <ele>190.6</ele>
        <time>2020-10-12T05:53:22Z</time>
      </trkpt>
      <trkpt lat="38.1911640" lon="-1.0998730">
        <ele>190.2</ele>
        <time>2020-10-12T05:53:23Z</time>
      </trkpt>
      <trkpt lat="38.1911460" lon="-1.0997750">
        <ele>189.6</ele>
        <time>2020-10-12T05:53:24Z</time>
      </trkpt>
      <trkpt lat="38.1911260" lon="-1.0996710">
        <ele>188.8</ele>
        <time>2020-10-12T05:53:25Z</time>
      </trkpt>
      <trkpt lat="38.1911040" lon="-1.0995640">
        <ele>188.2</ele>
        <time>2020-10-12T05:53:26Z</time>
      </trkpt>
      <trkpt lat="38.1910830" lon="-1.0994510">
        <ele>187.6</ele>
        <time>2020-10-12T05:53:27Z</time>
      </trkpt>
      <trkpt lat="38.1910630" lon="-1.0993340">
        <ele>186.8</ele>
        <time>2020-10-12T05:53:28Z</time>
      </trkpt>
      <trkpt lat="38.1910430" lon="-1.0992140">
        <ele>185.8</ele>
        <time>2020-10-12T05:53:29Z</time>
      </trkpt>
      <trkpt lat="38.1910250" lon="-1.0990890">
        <ele>184.6</ele>
        <time>2020-10-12T05:53:30Z</time>
      </trkpt>
      <trkpt lat="38.1910140" lon="-1.0989620">
        <ele>183.8</ele>
        <time>2020-10-12T05:53:31Z</time>
      </trkpt>
      <trkpt lat="38.1910080" lon="-1.0988300">
        <ele>183.0</ele>
        <time>2020-10-12T05:53:32Z</time>
      </trkpt>
      <trkpt lat="38.1910060" lon="-1.0986970">
        <ele>182.2</ele>
        <time>2020-10-12T05:53:33Z</time>
      </trkpt>
      <trkpt lat="38.1910140" lon="-1.0985670">
        <ele>181.4</ele>
        <time>2020-10-12T05:53:34Z</time>
      </trkpt>
      <trkpt lat="38.1910260" lon="-1.0984380">
        <ele>181.0</ele>
        <time>2020-10-12T05:53:35Z</time>
      </trkpt>
      <trkpt lat="38.1910460" lon="-1.0983110">
        <ele>180.6</ele>
        <time>2020-10-12T05:53:36Z</time>
      </trkpt>
      <trkpt lat="38.1910710" lon="-1.0981880">
        <ele>181.2</ele>
        <time>2020-10-12T05:53:37Z</time>
      </trkpt>
      <trkpt lat="38.1910940" lon="-1.0980690">
        <ele>182.0</ele>
        <time>2020-10-12T05:53:38Z</time>
      </trkpt>
      <trkpt lat="38.1911130" lon="-1.0979500">
        <ele>183.4</ele>
        <time>2020-10-12T05:53:39Z</time>
      </trkpt>
      <trkpt lat="38.1911300" lon="-1.0978310">
        <ele>184.2</ele>
        <time>2020-10-12T05:53:40Z</time>
      </trkpt>
      <trkpt lat="38.1911420" lon="-1.0977100">
        <ele>184.6</ele>
        <time>2020-10-12T05:53:41Z</time>
      </trkpt>
      <trkpt lat="38.1911530" lon="-1.0975890">
        <ele>184.8</ele>
        <time>2020-10-12T05:53:42Z</time>
      </trkpt>
      <trkpt lat="38.1911570" lon="-1.0974640">
        <ele>185.0</ele>
        <time>2020-10-12T05:53:43Z</time>
      </trkpt>
      <trkpt lat="38.1911600" lon="-1.0973360">
        <ele>184.4</ele>
        <time>2020-10-12T05:53:44Z</time>
      </trkpt>
      <trkpt lat="38.1911670" lon="-1.0972070">
        <ele>183.6</ele>
        <time>2020-10-12T05:53:45Z</time>
      </trkpt>
      <trkpt lat="38.1911730" lon="-1.0970730">
        <ele>182.8</ele>
        <time>2020-10-12T05:53:46Z</time>
      </trkpt>
      <trkpt lat="38.1911800" lon="-1.0969350">
        <ele>182.2</ele>
        <time>2020-10-12T05:53:47Z</time>
      </trkpt>
      <trkpt lat="38.1911880" lon="-1.0967990">
        <ele>181.8</ele>
        <time>2020-10-12T05:53:48Z</time>
      </trkpt>
      <trkpt lat="38.1911940" lon="-1.0966600">
        <ele>181.4</ele>
        <time>2020-10-12T05:53:49Z</time>
      </trkpt>
      <trkpt lat="38.1912010" lon="-1.0965180">
        <ele>180.8</ele>
        <time>2020-10-12T05:53:50Z</time>
      </trkpt>
      <trkpt lat="38.1912110" lon="-1.0963830">
        <ele>180.2</ele>
        <time>2020-10-12T05:53:51Z</time>
      </trkpt>
      <trkpt lat="38.1912240" lon="-1.0962450">
        <ele>179.4</ele>
        <time>2020-10-12T05:53:52Z</time>
      </trkpt>
      <trkpt lat="38.1912390" lon="-1.0961070">
        <ele>178.6</ele>
        <time>2020-10-12T05:53:53Z</time>
      </trkpt>
      <trkpt lat="38.1912550" lon="-1.0959740">
        <ele>178.0</ele>
        <time>2020-10-12T05:53:54Z</time>
      </trkpt>
      <trkpt lat="38.1912710" lon="-1.0958420">
        <ele>177.6</ele>
        <time>2020-10-12T05:53:55Z</time>
      </trkpt>
      <trkpt lat="38.1912860" lon="-1.0957120">
        <ele>177.2</ele>
        <time>2020-10-12T05:53:56Z</time>
      </trkpt>
      <trkpt lat="38.1913010" lon="-1.0955840">
        <ele>177.0</ele>
        <time>2020-10-12T05:53:57Z</time>
      </trkpt>
      <trkpt lat="38.1913180" lon="-1.0954580">
        <ele>176.8</ele>
        <time>2020-10-12T05:53:58Z</time>
      </trkpt>
      <trkpt lat="38.1913350" lon="-1.0953380">
        <ele>176.6</ele>
        <time>2020-10-12T05:53:59Z</time>
      </trkpt>
      <trkpt lat="38.1913530" lon="-1.0952200">
        <ele>176.6</ele>
        <time>2020-10-12T05:54:00Z</time>
      </trkpt>
      <trkpt lat="38.1913670" lon="-1.0951040">
        <ele>176.4</ele>
        <time>2020-10-12T05:54:01Z</time>
      </trkpt>
      <trkpt lat="38.1913790" lon="-1.0949910">
        <ele>176.4</ele>
        <time>2020-10-12T05:54:02Z</time>
      </trkpt>
      <trkpt lat="38.1913890" lon="-1.0948810">
        <ele>176.2</ele>
        <time>2020-10-12T05:54:03Z</time>
      </trkpt>
      <trkpt lat="38.1913950" lon="-1.0947720">
        <ele>176.0</ele>
        <time>2020-10-12T05:54:04Z</time>
      </trkpt>
      <trkpt lat="38.1913990" lon="-1.0946680">
        <ele>176.0</ele>
        <time>2020-10-12T05:54:05Z</time>
      </trkpt>
      <trkpt lat="38.1913930" lon="-1.0945650">
        <ele>176.0</ele>
        <time>2020-10-12T05:54:06Z</time>
      </trkpt>
      <trkpt lat="38.1913930" lon="-1.0944620">
        <ele>176.2</ele>
        <time>2020-10-12T05:54:07Z</time>
      </trkpt>
      <trkpt lat="38.1913900" lon="-1.0943600">
        <ele>176.4</ele>
        <time>2020-10-12T05:54:08Z</time>
      </trkpt>
      <trkpt lat="38.1913880" lon="-1.0942630">
        <ele>177.0</ele>
        <time>2020-10-12T05:54:09Z</time>
      </trkpt>
      <trkpt lat="38.1913860" lon="-1.0941700">
        <ele>177.6</ele>
        <time>2020-10-12T05:54:10Z</time>
      </trkpt>
      <trkpt lat="38.1913780" lon="-1.0940760">
        <ele>178.0</ele>
        <time>2020-10-12T05:54:11Z</time>
      </trkpt>
      <trkpt lat="38.1913690" lon="-1.0939830">
        <ele>178.2</ele>
        <time>2020-10-12T05:54:12Z</time>
      </trkpt>
      <trkpt lat="38.1913610" lon="-1.0938900">
        <ele>178.4</ele>
        <time>2020-10-12T05:54:13Z</time>
      </trkpt>
      <trkpt lat="38.1913560" lon="-1.0937990">
        <ele>178.8</ele>
        <time>2020-10-12T05:54:14Z</time>
      </trkpt>
      <trkpt lat="38.1913500" lon="-1.0937100">
        <ele>179.0</ele>
        <time>2020-10-12T05:54:15Z</time>
      </trkpt>
      <trkpt lat="38.1913410" lon="-1.0936200">
        <ele>179.0</ele>
        <time>2020-10-12T05:54:16Z</time>
      </trkpt>
      <trkpt lat="38.1913310" lon="-1.0935270">
        <ele>179.0</ele>
        <time>2020-10-12T05:54:17Z</time>
      </trkpt>
      <trkpt lat="38.1913220" lon="-1.0934360">
        <ele>179.2</ele>
        <time>2020-10-12T05:54:18Z</time>
      </trkpt>
      <trkpt lat="38.1913140" lon="-1.0933440">
        <ele>179.2</ele>
        <time>2020-10-12T05:54:19Z</time>
      </trkpt>
      <trkpt lat="38.1913050" lon="-1.0932500">
        <ele>179.2</ele>
        <time>2020-10-12T05:54:20Z</time>
      </trkpt>
      <trkpt lat="38.1912960" lon="-1.0931540">
        <ele>179.0</ele>
        <time>2020-10-12T05:54:21Z</time>
      </trkpt>
      <trkpt lat="38.1912910" lon="-1.0930650">
        <ele>178.8</ele>
        <time>2020-10-12T05:54:22Z</time>
      </trkpt>
      <trkpt lat="38.1912860" lon="-1.0929790">
        <ele>179.2</ele>
        <time>2020-10-12T05:54:23Z</time>
      </trkpt>
      <trkpt lat="38.1912760" lon="-1.0928830">
        <ele>179.0</ele>
        <time>2020-10-12T05:54:24Z</time>
      </trkpt>
      <trkpt lat="38.1912700" lon="-1.0927890">
        <ele>178.6</ele>
        <time>2020-10-12T05:54:25Z</time>
      </trkpt>
      <trkpt lat="38.1912630" lon="-1.0926960">
        <ele>178.0</ele>
        <time>2020-10-12T05:54:26Z</time>
      </trkpt>
      <trkpt lat="38.1912610" lon="-1.0926050">
        <ele>177.4</ele>
        <time>2020-10-12T05:54:27Z</time>
      </trkpt>
      <trkpt lat="38.1912610" lon="-1.0925160">
        <ele>177.2</ele>
        <time>2020-10-12T05:54:28Z</time>
      </trkpt>
      <trkpt lat="38.1912620" lon="-1.0924270">
        <ele>177.0</ele>
        <time>2020-10-12T05:54:29Z</time>
      </trkpt>
      <trkpt lat="38.1912650" lon="-1.0923380">
        <ele>176.8</ele>
        <time>2020-10-12T05:54:30Z</time>
      </trkpt>
      <trkpt lat="38.1912700" lon="-1.0922490">
        <ele>176.8</ele>
        <time>2020-10-12T05:54:31Z</time>
      </trkpt>
      <trkpt lat="38.1912790" lon="-1.0921620">
        <ele>176.8</ele>
        <time>2020-10-12T05:54:32Z</time>
      </trkpt>
      <trkpt lat="38.1912930" lon="-1.0920730">
        <ele>176.8</ele>
        <time>2020-10-12T05:54:33Z</time>
      </trkpt>
      <trkpt lat="38.1913050" lon="-1.0919840">
        <ele>177.0</ele>
        <time>2020-10-12T05:54:34Z</time>
      </trkpt>
      <trkpt lat="38.1913160" lon="-1.0918940">
        <ele>177.2</ele>
        <time>2020-10-12T05:54:35Z</time>
      </trkpt>
      <trkpt lat="38.1913270" lon="-1.0918040">
        <ele>177.2</ele>
        <time>2020-10-12T05:54:36Z</time>
      </trkpt>
      <trkpt lat="38.1913410" lon="-1.0917110">
        <ele>177.2</ele>
        <time>2020-10-12T05:54:37Z</time>
      </trkpt>
      <trkpt lat="38.1913560" lon="-1.0916200">
        <ele>177.2</ele>
        <time>2020-10-12T05:54:38Z</time>
      </trkpt>
      <trkpt lat="38.1913730" lon="-1.0915300">
        <ele>177.2</ele>
        <time>2020-10-12T05:54:39Z</time>
      </trkpt>
      <trkpt lat="38.1913880" lon="-1.0914410">
        <ele>177.2</ele>
        <time>2020-10-12T05:54:40Z</time>
      </trkpt>
      <trkpt lat="38.1914050" lon="-1.0913520">
        <ele>177.0</ele>
        <time>2020-10-12T05:54:41Z</time>
      </trkpt>
      <trkpt lat="38.1914220" lon="-1.0912600">
        <ele>176.6</ele>
        <time>2020-10-12T05:54:42Z</time>
      </trkpt>
      <trkpt lat="38.1914410" lon="-1.0911670">
        <ele>176.6</ele>
        <time>2020-10-12T05:54:43Z</time>
      </trkpt>
      <trkpt lat="38.1914600" lon="-1.0910740">
        <ele>176.2</ele>
        <time>2020-10-12T05:54:44Z</time>
      </trkpt>
      <trkpt lat="38.1914770" lon="-1.0909800">
        <ele>176.0</ele>
        <time>2020-10-12T05:54:45Z</time>
      </trkpt>
      <trkpt lat="38.1914940" lon="-1.0908860">
        <ele>175.8</ele>
        <time>2020-10-12T05:54:46Z</time>
      </trkpt>
      <trkpt lat="38.1915140" lon="-1.0907880">
        <ele>176.4</ele>
        <time>2020-10-12T05:54:47Z</time>
      </trkpt>
      <trkpt lat="38.1915340" lon="-1.0906920">
        <ele>177.6</ele>
        <time>2020-10-12T05:54:48Z</time>
      </trkpt>
      <trkpt lat="38.1915530" lon="-1.0905970">
        <ele>178.8</ele>
        <time>2020-10-12T05:54:49Z</time>
      </trkpt>
      <trkpt lat="38.1915730" lon="-1.0905020">
        <ele>178.6</ele>
        <time>2020-10-12T05:54:50Z</time>
      </trkpt>
      <trkpt lat="38.1915960" lon="-1.0904090">
        <ele>178.6</ele>
        <time>2020-10-12T05:54:51Z</time>
      </trkpt>
      <trkpt lat="38.1916200" lon="-1.0903150">
        <ele>178.6</ele>
        <time>2020-10-12T05:54:52Z</time>
      </trkpt>
      <trkpt lat="38.1916480" lon="-1.0902240">
        <ele>177.6</ele>
        <time>2020-10-12T05:54:53Z</time>
      </trkpt>
      <trkpt lat="38.1916760" lon="-1.0901350">
        <ele>176.0</ele>
        <time>2020-10-12T05:54:54Z</time>
      </trkpt>
      <trkpt lat="38.1917070" lon="-1.0900470">
        <ele>175.0</ele>
        <time>2020-10-12T05:54:55Z</time>
      </trkpt>
      <trkpt lat="38.1917410" lon="-1.0899620">
        <ele>174.6</ele>
        <time>2020-10-12T05:54:56Z</time>
      </trkpt>
      <trkpt lat="38.1917790" lon="-1.0898790">
        <ele>174.2</ele>
        <time>2020-10-12T05:54:57Z</time>
      </trkpt>
      <trkpt lat="38.1918210" lon="-1.0898000">
        <ele>174.2</ele>
        <time>2020-10-12T05:54:58Z</time>
      </trkpt>
      <trkpt lat="38.1918650" lon="-1.0897200">
        <ele>174.2</ele>
        <time>2020-10-12T05:54:59Z</time>
      </trkpt>
      <trkpt lat="38.1919130" lon="-1.0896450">
        <ele>174.0</ele>
        <time>2020-10-12T05:55:00Z</time>
      </trkpt>
      <trkpt lat="38.1919610" lon="-1.0895710">
        <ele>174.0</ele>
        <time>2020-10-12T05:55:01Z</time>
      </trkpt>
      <trkpt lat="38.1920100" lon="-1.0894970">
        <ele>174.0</ele>
        <time>2020-10-12T05:55:02Z</time>
      </trkpt>
      <trkpt lat="38.1920580" lon="-1.0894280">
        <ele>173.8</ele>
        <time>2020-10-12T05:55:03Z</time>
      </trkpt>
      <trkpt lat="38.1921060" lon="-1.0893590">
        <ele>173.8</ele>
        <time>2020-10-12T05:55:04Z</time>
      </trkpt>
      <trkpt lat="38.1921540" lon="-1.0892900">
        <ele>173.8</ele>
        <time>2020-10-12T05:55:05Z</time>
      </trkpt>
      <trkpt lat="38.1922030" lon="-1.0892220">
        <ele>174.0</ele>
        <time>2020-10-12T05:55:06Z</time>
      </trkpt>
      <trkpt lat="38.1922510" lon="-1.0891540">
        <ele>174.0</ele>
        <time>2020-10-12T05:55:07Z</time>
      </trkpt>
      <trkpt lat="38.1922980" lon="-1.0890850">
        <ele>174.2</ele>
        <time>2020-10-12T05:55:08Z</time>
      </trkpt>
      <trkpt lat="38.1923450" lon="-1.0890160">
        <ele>174.4</ele>
        <time>2020-10-12T05:55:09Z</time>
      </trkpt>
      <trkpt lat="38.1923920" lon="-1.0889470">
        <ele>174.6</ele>
        <time>2020-10-12T05:55:10Z</time>
      </trkpt>
      <trkpt lat="38.1924350" lon="-1.0888730">
        <ele>174.6</ele>
        <time>2020-10-12T05:55:11Z</time>
      </trkpt>
      <trkpt lat="38.1924750" lon="-1.0887990">
        <ele>174.8</ele>
        <time>2020-10-12T05:55:12Z</time>
      </trkpt>
      <trkpt lat="38.1925130" lon="-1.0887270">
        <ele>175.0</ele>
        <time>2020-10-12T05:55:13Z</time>
      </trkpt>
      <trkpt lat="38.1925490" lon="-1.0886550">
        <ele>175.2</ele>
        <time>2020-10-12T05:55:14Z</time>
      </trkpt>
      <trkpt lat="38.1925820" lon="-1.0885810">
        <ele>175.4</ele>
        <time>2020-10-12T05:55:15Z</time>
      </trkpt>
      <trkpt lat="38.1926090" lon="-1.0885050">
        <ele>175.8</ele>
        <time>2020-10-12T05:55:16Z</time>
      </trkpt>
      <trkpt lat="38.1926380" lon="-1.0884300">
        <ele>176.0</ele>
        <time>2020-10-12T05:55:17Z</time>
      </trkpt>
      <trkpt lat="38.1926650" lon="-1.0883540">
        <ele>176.2</ele>
        <time>2020-10-12T05:55:18Z</time>
      </trkpt>
      <trkpt lat="38.1926910" lon="-1.0882780">
        <ele>176.4</ele>
        <time>2020-10-12T05:55:19Z</time>
      </trkpt>
      <trkpt lat="38.1927180" lon="-1.0882030">
        <ele>176.4</ele>
        <time>2020-10-12T05:55:20Z</time>
      </trkpt>
      <trkpt lat="38.1927450" lon="-1.0881300">
        <ele>176.4</ele>
        <time>2020-10-12T05:55:21Z</time>
      </trkpt>
      <trkpt lat="38.1927700" lon="-1.0880570">
        <ele>176.6</ele>
        <time>2020-10-12T05:55:22Z</time>
      </trkpt>
      <trkpt lat="38.1927930" lon="-1.0879840">
        <ele>177.0</ele>
        <time>2020-10-12T05:55:23Z</time>
      </trkpt>
      <trkpt lat="38.1928170" lon="-1.0879140">
        <ele>177.6</ele>
        <time>2020-10-12T05:55:24Z</time>
      </trkpt>
      <trkpt lat="38.1928380" lon="-1.0878460">
        <ele>178.4</ele>
        <time>2020-10-12T05:55:25Z</time>
      </trkpt>
      <trkpt lat="38.1928580" lon="-1.0877760">
        <ele>178.6</ele>
        <time>2020-10-12T05:55:26Z</time>
      </trkpt>
      <trkpt lat="38.1928820" lon="-1.0877100">
        <ele>178.8</ele>
        <time>2020-10-12T05:55:27Z</time>
      </trkpt>
      <trkpt lat="38.1929030" lon="-1.0876410">
        <ele>178.8</ele>
        <time>2020-10-12T05:55:28Z</time>
      </trkpt>
      <trkpt lat="38.1929230" lon="-1.0875700">
        <ele>179.0</ele>
        <time>2020-10-12T05:55:29Z</time>
      </trkpt>
      <trkpt lat="38.1929440" lon="-1.0875040">
        <ele>179.0</ele>
        <time>2020-10-12T05:55:30Z</time>
      </trkpt>
      <trkpt lat="38.1929660" lon="-1.0874390">
        <ele>179.2</ele>
        <time>2020-10-12T05:55:31Z</time>
      </trkpt>
      <trkpt lat="38.1929870" lon="-1.0873720">
        <ele>179.2</ele>
        <time>2020-10-12T05:55:32Z</time>
      </trkpt>
      <trkpt lat="38.1930080" lon="-1.0873060">
        <ele>179.2</ele>
        <time>2020-10-12T05:55:33Z</time>
      </trkpt>
      <trkpt lat="38.1930300" lon="-1.0872420">
        <ele>179.4</ele>
        <time>2020-10-12T05:55:34Z</time>
      </trkpt>
      <trkpt lat="38.1930520" lon="-1.0871770">
        <ele>179.4</ele>
        <time>2020-10-12T05:55:35Z</time>
      </trkpt>
      <trkpt lat="38.1930710" lon="-1.0871130">
        <ele>179.6</ele>
        <time>2020-10-12T05:55:36Z</time>
      </trkpt>
      <trkpt lat="38.1930910" lon="-1.0870500">
        <ele>179.8</ele>
        <time>2020-10-12T05:55:37Z</time>
      </trkpt>
      <trkpt lat="38.1931130" lon="-1.0869860">
        <ele>180.0</ele>
        <time>2020-10-12T05:55:38Z</time>
      </trkpt>
      <trkpt lat="38.1931330" lon="-1.0869200">
        <ele>180.2</ele>
        <time>2020-10-12T05:55:39Z</time>
      </trkpt>
      <trkpt lat="38.1931540" lon="-1.0868570">
        <ele>180.2</ele>
        <time>2020-10-12T05:55:40Z</time>
      </trkpt>
      <trkpt lat="38.1931750" lon="-1.0867920">
        <ele>180.4</ele>
        <time>2020-10-12T05:55:41Z</time>
      </trkpt>
      <trkpt lat="38.1931940" lon="-1.0867260">
        <ele>180.6</ele>
        <time>2020-10-12T05:55:42Z</time>
      </trkpt>
      <trkpt lat="38.1932110" lon="-1.0866620">
        <ele>180.8</ele>
        <time>2020-10-12T05:55:43Z</time>
      </trkpt>
      <trkpt lat="38.1932260" lon="-1.0865960">
        <ele>181.0</ele>
        <time>2020-10-12T05:55:44Z</time>
      </trkpt>
      <trkpt lat="38.1932390" lon="-1.0865280">
        <ele>181.2</ele>
        <time>2020-10-12T05:55:45Z</time>
      </trkpt>
      <trkpt lat="38.1932480" lon="-1.0864590">
        <ele>181.2</ele>
        <time>2020-10-12T05:55:46Z</time>
      </trkpt>
      <trkpt lat="38.1932570" lon="-1.0863920">
        <ele>181.4</ele>
        <time>2020-10-12T05:55:47Z</time>
      </trkpt>
      <trkpt lat="38.1932660" lon="-1.0863230">
        <ele>181.4</ele>
        <time>2020-10-12T05:55:48Z</time>
      </trkpt>
      <trkpt lat="38.1932730" lon="-1.0862560">
        <ele>181.6</ele>
        <time>2020-10-12T05:55:49Z</time>
      </trkpt>
      <trkpt lat="38.1932760" lon="-1.0861890">
        <ele>181.6</ele>
        <time>2020-10-12T05:55:50Z</time>
      </trkpt>
      <trkpt lat="38.1932760" lon="-1.0861210">
        <ele>181.8</ele>
        <time>2020-10-12T05:55:51Z</time>
      </trkpt>
      <trkpt lat="38.1932730" lon="-1.0860510">
        <ele>182.0</ele>
        <time>2020-10-12T05:55:52Z</time>
      </trkpt>
      <trkpt lat="38.1932700" lon="-1.0859830">
        <ele>182.2</ele>
        <time>2020-10-12T05:55:53Z</time>
      </trkpt>
      <trkpt lat="38.1932640" lon="-1.0859180">
        <ele>182.4</ele>
        <time>2020-10-12T05:55:54Z</time>
      </trkpt>
      <trkpt lat="38.1932530" lon="-1.0858500">
        <ele>182.6</ele>
        <time>2020-10-12T05:55:55Z</time>
      </trkpt>
      <trkpt lat="38.1932420" lon="-1.0857860">
        <ele>182.8</ele>
        <time>2020-10-12T05:55:56Z</time>
      </trkpt>
      <trkpt lat="38.1932310" lon="-1.0857260">
        <ele>183.0</ele>
        <time>2020-10-12T05:55:57Z</time>
      </trkpt>
      <trkpt lat="38.1932200" lon="-1.0856650">
        <ele>183.2</ele>
        <time>2020-10-12T05:55:58Z</time>
      </trkpt>
      <trkpt lat="38.1932070" lon="-1.0855990">
        <ele>183.8</ele>
        <time>2020-10-12T05:55:59Z</time>
      </trkpt>
      <trkpt lat="38.1931950" lon="-1.0855320">
        <ele>184.4</ele>
        <time>2020-10-12T05:56:00Z</time>
      </trkpt>
      <trkpt lat="38.1931840" lon="-1.0854660">
        <ele>185.0</ele>
        <time>2020-10-12T05:56:01Z</time>
      </trkpt>
      <trkpt lat="38.1931710" lon="-1.0854010">
        <ele>185.4</ele>
        <time>2020-10-12T05:56:02Z</time>
      </trkpt>
      <trkpt lat="38.1931470" lon="-1.0853370">
        <ele>185.6</ele>
        <time>2020-10-12T05:56:03Z</time>
      </trkpt>
      <trkpt lat="38.1931260" lon="-1.0852710">
        <ele>185.8</ele>
        <time>2020-10-12T05:56:04Z</time>
      </trkpt>
      <trkpt lat="38.1931090" lon="-1.0852060">
        <ele>186.0</ele>
        <time>2020-10-12T05:56:05Z</time>
      </trkpt>
      <trkpt lat="38.1930920" lon="-1.0851440">
        <ele>186.0</ele>
        <time>2020-10-12T05:56:06Z</time>
      </trkpt>
      <trkpt lat="38.1930750" lon="-1.0850810">
        <ele>186.2</ele>
        <time>2020-10-12T05:56:07Z</time>
      </trkpt>
      <trkpt lat="38.1930580" lon="-1.0850190">
        <ele>186.2</ele>
        <time>2020-10-12T05:56:08Z</time>
      </trkpt>
      <trkpt lat="38.1930380" lon="-1.0849580">
        <ele>186.0</ele>
        <time>2020-10-12T05:56:09Z</time>
      </trkpt>
      <trkpt lat="38.1930220" lon="-1.0848990">
        <ele>185.8</ele>
        <time>2020-10-12T05:56:10Z</time>
      </trkpt>
      <trkpt lat="38.1930090" lon="-1.0848410">
        <ele>185.8</ele>
        <time>2020-10-12T05:56:11Z</time>
      </trkpt>
      <trkpt lat="38.1929930" lon="-1.0847800">
        <ele>185.6</ele>
        <time>2020-10-12T05:56:12Z</time>
      </trkpt>
      <trkpt lat="38.1929740" lon="-1.0847180">
        <ele>185.8</ele>
        <time>2020-10-12T05:56:13Z</time>
      </trkpt>
      <trkpt lat="38.1929540" lon="-1.0846540">
        <ele>185.8</ele>
        <time>2020-10-12T05:56:14Z</time>
      </trkpt>
      <trkpt lat="38.1929340" lon="-1.0845850">
        <ele>186.0</ele>
        <time>2020-10-12T05:56:15Z</time>
      </trkpt>
      <trkpt lat="38.1929140" lon="-1.0845140">
        <ele>186.4</ele>
        <time>2020-10-12T05:56:16Z</time>
      </trkpt>
      <trkpt lat="38.1928940" lon="-1.0844460">
        <ele>186.6</ele>
        <time>2020-10-12T05:56:17Z</time>
      </trkpt>
      <trkpt lat="38.1928750" lon="-1.0843780">
        <ele>186.6</ele>
        <time>2020-10-12T05:56:18Z</time>
      </trkpt>
      <trkpt lat="38.1928540" lon="-1.0843110">
        <ele>186.8</ele>
        <time>2020-10-12T05:56:19Z</time>
      </trkpt>
      <trkpt lat="38.1928350" lon="-1.0842430">
        <ele>187.0</ele>
        <time>2020-10-12T05:56:20Z</time>
      </trkpt>
      <trkpt lat="38.1928150" lon="-1.0841740">
        <ele>187.0</ele>
        <time>2020-10-12T05:56:21Z</time>
      </trkpt>
      <trkpt lat="38.1927980" lon="-1.0841080">
        <ele>187.2</ele>
        <time>2020-10-12T05:56:22Z</time>
      </trkpt>
      <trkpt lat="38.1927810" lon="-1.0840410">
        <ele>187.0</ele>
        <time>2020-10-12T05:56:23Z</time>
      </trkpt>
      <trkpt lat="38.1927640" lon="-1.0839740">
        <ele>187.0</ele>
        <time>2020-10-12T05:56:24Z</time>
      </trkpt>
      <trkpt lat="38.1927460" lon="-1.0839060">
        <ele>186.6</ele>
        <time>2020-10-12T05:56:25Z</time>
      </trkpt>
      <trkpt lat="38.1927300" lon="-1.0838370">
        <ele>186.4</ele>
        <time>2020-10-12T05:56:26Z</time>
      </trkpt>
      <trkpt lat="38.1927160" lon="-1.0837720">
        <ele>186.2</ele>
        <time>2020-10-12T05:56:27Z</time>
      </trkpt>
      <trkpt lat="38.1927030" lon="-1.0837070">
        <ele>186.0</ele>
        <time>2020-10-12T05:56:28Z</time>
      </trkpt>
      <trkpt lat="38.1926930" lon="-1.0836370">
        <ele>186.0</ele>
        <time>2020-10-12T05:56:29Z</time>
      </trkpt>
      <trkpt lat="38.1926840" lon="-1.0835670">
        <ele>186.0</ele>
        <time>2020-10-12T05:56:30Z</time>
      </trkpt>
      <trkpt lat="38.1926780" lon="-1.0834960">
        <ele>186.2</ele>
        <time>2020-10-12T05:56:31Z</time>
      </trkpt>
      <trkpt lat="38.1926720" lon="-1.0834220">
        <ele>186.2</ele>
        <time>2020-10-12T05:56:32Z</time>
      </trkpt>
      <trkpt lat="38.1926680" lon="-1.0833470">
        <ele>186.2</ele>
        <time>2020-10-12T05:56:33Z</time>
      </trkpt>
      <trkpt lat="38.1926650" lon="-1.0832710">
        <ele>186.4</ele>
        <time>2020-10-12T05:56:34Z</time>
      </trkpt>
      <trkpt lat="38.1926680" lon="-1.0831970">
        <ele>186.2</ele>
        <time>2020-10-12T05:56:35Z</time>
      </trkpt>
      <trkpt lat="38.1926730" lon="-1.0831220">
        <ele>186.2</ele>
        <time>2020-10-12T05:56:36Z</time>
      </trkpt>
      <trkpt lat="38.1926830" lon="-1.0830500">
        <ele>186.2</ele>
        <time>2020-10-12T05:56:37Z</time>
      </trkpt>
      <trkpt lat="38.1926930" lon="-1.0829750">
        <ele>186.2</ele>
        <time>2020-10-12T05:56:38Z</time>
      </trkpt>
      <trkpt lat="38.1927040" lon="-1.0829010">
        <ele>186.2</ele>
        <time>2020-10-12T05:56:39Z</time>
      </trkpt>
      <trkpt lat="38.1927180" lon="-1.0828290">
        <ele>186.2</ele>
        <time>2020-10-12T05:56:40Z</time>
      </trkpt>
      <trkpt lat="38.1927330" lon="-1.0827580">
        <ele>186.2</ele>
        <time>2020-10-12T05:56:41Z</time>
      </trkpt>
      <trkpt lat="38.1927520" lon="-1.0826890">
        <ele>186.4</ele>
        <time>2020-10-12T05:56:42Z</time>
      </trkpt>
      <trkpt lat="38.1927700" lon="-1.0826180">
        <ele>186.6</ele>
        <time>2020-10-12T05:56:43Z</time>
      </trkpt>
      <trkpt lat="38.1927870" lon="-1.0825470">
        <ele>186.6</ele>
        <time>2020-10-12T05:56:44Z</time>
      </trkpt>
      <trkpt lat="38.1928040" lon="-1.0824770">
        <ele>186.8</ele>
        <time>2020-10-12T05:56:45Z</time>
      </trkpt>
      <trkpt lat="38.1928210" lon="-1.0824090">
        <ele>187.0</ele>
        <time>2020-10-12T05:56:46Z</time>
      </trkpt>
      <trkpt lat="38.1928400" lon="-1.0823410">
        <ele>187.0</ele>
        <time>2020-10-12T05:56:47Z</time>
      </trkpt>
      <trkpt lat="38.1928580" lon="-1.0822720">
        <ele>186.8</ele>
        <time>2020-10-12T05:56:48Z</time>
      </trkpt>
      <trkpt lat="38.1928740" lon="-1.0822010">
        <ele>186.8</ele>
        <time>2020-10-12T05:56:49Z</time>
      </trkpt>
      <trkpt lat="38.1928900" lon="-1.0821300">
        <ele>187.0</ele>
        <time>2020-10-12T05:56:50Z</time>
      </trkpt>
      <trkpt lat="38.1929070" lon="-1.0820580">
        <ele>187.4</ele>
        <time>2020-10-12T05:56:51Z</time>
      </trkpt>
      <trkpt lat="38.1929230" lon="-1.0819880">
        <ele>187.8</ele>
        <time>2020-10-12T05:56:52Z</time>
      </trkpt>
      <trkpt lat="38.1929430" lon="-1.0819210">
        <ele>188.4</ele>
        <time>2020-10-12T05:56:53Z</time>
      </trkpt>
      <trkpt lat="38.1929600" lon="-1.0818530">
        <ele>189.0</ele>
        <time>2020-10-12T05:56:54Z</time>
      </trkpt>
      <trkpt lat="38.1929780" lon="-1.0817820">
        <ele>189.2</ele>
        <time>2020-10-12T05:56:55Z</time>
      </trkpt>
      <trkpt lat="38.1929970" lon="-1.0817120">
        <ele>189.4</ele>
        <time>2020-10-12T05:56:56Z</time>
      </trkpt>
      <trkpt lat="38.1930130" lon="-1.0816430">
        <ele>189.8</ele>
        <time>2020-10-12T05:56:57Z</time>
      </trkpt>
      <trkpt lat="38.1930280" lon="-1.0815720">
        <ele>189.8</ele>
        <time>2020-10-12T05:56:58Z</time>
      </trkpt>
      <trkpt lat="38.1930380" lon="-1.0815020">
        <ele>189.8</ele>
        <time>2020-10-12T05:56:59Z</time>
      </trkpt>
      <trkpt lat="38.1930450" lon="-1.0814310">
        <ele>189.8</ele>
        <time>2020-10-12T05:57:00Z</time>
      </trkpt>
      <trkpt lat="38.1930510" lon="-1.0813620">
        <ele>189.8</ele>
        <time>2020-10-12T05:57:01Z</time>
      </trkpt>
      <trkpt lat="38.1930530" lon="-1.0812900">
        <ele>189.8</ele>
        <time>2020-10-12T05:57:02Z</time>
      </trkpt>
      <trkpt lat="38.1930540" lon="-1.0812200">
        <ele>189.6</ele>
        <time>2020-10-12T05:57:03Z</time>
      </trkpt>
      <trkpt lat="38.1930540" lon="-1.0811490">
        <ele>189.6</ele>
        <time>2020-10-12T05:57:04Z</time>
      </trkpt>
      <trkpt lat="38.1930540" lon="-1.0810770">
        <ele>189.4</ele>
        <time>2020-10-12T05:57:05Z</time>
      </trkpt>
      <trkpt lat="38.1930540" lon="-1.0810050">
        <ele>189.4</ele>
        <time>2020-10-12T05:57:06Z</time>
      </trkpt>
      <trkpt lat="38.1930550" lon="-1.0809320">
        <ele>189.4</ele>
        <time>2020-10-12T05:57:07Z</time>
      </trkpt>
      <trkpt lat="38.1930580" lon="-1.0808580">
        <ele>189.4</ele>
        <time>2020-10-12T05:57:08Z</time>
      </trkpt>
      <trkpt lat="38.1930610" lon="-1.0807860">
        <ele>189.4</ele>
        <time>2020-10-12T05:57:09Z</time>
      </trkpt>
      <trkpt lat="38.1930650" lon="-1.0807150">
        <ele>189.6</ele>
        <time>2020-10-12T05:57:10Z</time>
      </trkpt>
      <trkpt lat="38.1930670" lon="-1.0806430">
        <ele>189.6</ele>
        <time>2020-10-12T05:57:11Z</time>
      </trkpt>
      <trkpt lat="38.1930670" lon="-1.0805710">
        <ele>189.6</ele>
        <time>2020-10-12T05:57:12Z</time>
      </trkpt>
      <trkpt lat="38.1930690" lon="-1.0804990">
        <ele>189.8</ele>
        <time>2020-10-12T05:57:13Z</time>
      </trkpt>
      <trkpt lat="38.1930730" lon="-1.0804300">
        <ele>190.0</ele>
        <time>2020-10-12T05:57:14Z</time>
      </trkpt>
      <trkpt lat="38.1930790" lon="-1.0803590">
        <ele>190.2</ele>
        <time>2020-10-12T05:57:15Z</time>
      </trkpt>
      <trkpt lat="38.1930880" lon="-1.0802900">
        <ele>190.4</ele>
        <time>2020-10-12T05:57:16Z</time>
      </trkpt>
      <trkpt lat="38.1930920" lon="-1.0802190">
        <ele>190.4</ele>
        <time>2020-10-12T05:57:17Z</time>
      </trkpt>
      <trkpt lat="38.1930960" lon="-1.0801450">
        <ele>190.2</ele>
        <time>2020-10-12T05:57:18Z</time>
      </trkpt>
      <trkpt lat="38.1930980" lon="-1.0800700">
        <ele>190.2</ele>
        <time>2020-10-12T05:57:19Z</time>
      </trkpt>
      <trkpt lat="38.1931010" lon="-1.0799940">
        <ele>190.2</ele>
        <time>2020-10-12T05:57:20Z</time>
      </trkpt>
      <trkpt lat="38.1930990" lon="-1.0799150">
        <ele>190.0</ele>
        <time>2020-10-12T05:57:21Z</time>
      </trkpt>
      <trkpt lat="38.1930960" lon="-1.0798350">
        <ele>190.0</ele>
        <time>2020-10-12T05:57:22Z</time>
      </trkpt>
      <trkpt lat="38.1930990" lon="-1.0797560">
        <ele>190.0</ele>
        <time>2020-10-12T05:57:23Z</time>
      </trkpt>
      <trkpt lat="38.1931010" lon="-1.0796750">
        <ele>189.8</ele>
        <time>2020-10-12T05:57:24Z</time>
      </trkpt>
      <trkpt lat="38.1931020" lon="-1.0795930">
        <ele>190.0</ele>
        <time>2020-10-12T05:57:25Z</time>
      </trkpt>
      <trkpt lat="38.1931000" lon="-1.0795110">
        <ele>190.0</ele>
        <time>2020-10-12T05:57:26Z</time>
      </trkpt>
      <trkpt lat="38.1931000" lon="-1.0794280">
        <ele>189.8</ele>
        <time>2020-10-12T05:57:27Z</time>
      </trkpt>
      <trkpt lat="38.1931020" lon="-1.0793410">
        <ele>189.8</ele>
        <time>2020-10-12T05:57:28Z</time>
      </trkpt>
      <trkpt lat="38.1931050" lon="-1.0792530">
        <ele>189.4</ele>
        <time>2020-10-12T05:57:29Z</time>
      </trkpt>
      <trkpt lat="38.1931100" lon="-1.0791640">
        <ele>189.0</ele>
        <time>2020-10-12T05:57:30Z</time>
      </trkpt>
      <trkpt lat="38.1931150" lon="-1.0790700">
        <ele>188.4</ele>
        <time>2020-10-12T05:57:31Z</time>
      </trkpt>
      <trkpt lat="38.1931200" lon="-1.0789790">
        <ele>187.8</ele>
        <time>2020-10-12T05:57:32Z</time>
      </trkpt>
      <trkpt lat="38.1931240" lon="-1.0788850">
        <ele>187.4</ele>
        <time>2020-10-12T05:57:33Z</time>
      </trkpt>
      <trkpt lat="38.1931320" lon="-1.0787900">
        <ele>187.2</ele>
        <time>2020-10-12T05:57:34Z</time>
      </trkpt>
      <trkpt lat="38.1931390" lon="-1.0786940">
        <ele>187.2</ele>
        <time>2020-10-12T05:57:35Z</time>
      </trkpt>
      <trkpt lat="38.1931450" lon="-1.0785960">
        <ele>187.0</ele>
        <time>2020-10-12T05:57:36Z</time>
      </trkpt>
      <trkpt lat="38.1931510" lon="-1.0784950">
        <ele>187.0</ele>
        <time>2020-10-12T05:57:37Z</time>
      </trkpt>
      <trkpt lat="38.1931580" lon="-1.0783940">
        <ele>186.8</ele>
        <time>2020-10-12T05:57:38Z</time>
      </trkpt>
      <trkpt lat="38.1931650" lon="-1.0782930">
        <ele>186.6</ele>
        <time>2020-10-12T05:57:39Z</time>
      </trkpt>
      <trkpt lat="38.1931730" lon="-1.0781920">
        <ele>186.0</ele>
        <time>2020-10-12T05:57:40Z</time>
      </trkpt>
      <trkpt lat="38.1931850" lon="-1.0780920">
        <ele>185.4</ele>
        <time>2020-10-12T05:57:41Z</time>
      </trkpt>
      <trkpt lat="38.1932030" lon="-1.0779910">
        <ele>185.0</ele>
        <time>2020-10-12T05:57:42Z</time>
      </trkpt>
      <trkpt lat="38.1932230" lon="-1.0778890">
        <ele>184.6</ele>
        <time>2020-10-12T05:57:43Z</time>
      </trkpt>
      <trkpt lat="38.1932460" lon="-1.0777840">
        <ele>184.4</ele>
        <time>2020-10-12T05:57:44Z</time>
      </trkpt>
      <trkpt lat="38.1932760" lon="-1.0776800">
        <ele>184.2</ele>
        <time>2020-10-12T05:57:45Z</time>
      </trkpt>
      <trkpt lat="38.1933140" lon="-1.0775770">
        <ele>183.8</ele>
        <time>2020-10-12T05:57:46Z</time>
      </trkpt>
      <trkpt lat="38.1933600" lon="-1.0774710">
        <ele>183.6</ele>
        <time>2020-10-12T05:57:47Z</time>
      </trkpt>
      <trkpt lat="38.1934130" lon="-1.0773720">
        <ele>183.0</ele>
        <time>2020-10-12T05:57:48Z</time>
      </trkpt>
      <trkpt lat="38.1934710" lon="-1.0772730">
        <ele>182.2</ele>
        <time>2020-10-12T05:57:49Z</time>
      </trkpt>
      <trkpt lat="38.1935320" lon="-1.0771740">
        <ele>181.2</ele>
        <time>2020-10-12T05:57:50Z</time>
      </trkpt>
      <trkpt lat="38.1935920" lon="-1.0770730">
        <ele>180.2</ele>
        <time>2020-10-12T05:57:51Z</time>
      </trkpt>
      <trkpt lat="38.1936560" lon="-1.0769770">
        <ele>179.2</ele>
        <time>2020-10-12T05:57:52Z</time>
      </trkpt>
      <trkpt lat="38.1937250" lon="-1.0768780">
        <ele>178.4</ele>
        <time>2020-10-12T05:57:53Z</time>
      </trkpt>
      <trkpt lat="38.1937930" lon="-1.0767770">
        <ele>177.8</ele>
        <time>2020-10-12T05:57:54Z</time>
      </trkpt>
      <trkpt lat="38.1938630" lon="-1.0766760">
        <ele>177.2</ele>
        <time>2020-10-12T05:57:55Z</time>
      </trkpt>
      <trkpt lat="38.1939340" lon="-1.0765740">
        <ele>176.4</ele>
        <time>2020-10-12T05:57:56Z</time>
      </trkpt>
      <trkpt lat="38.1940070" lon="-1.0764720">
        <ele>175.6</ele>
        <time>2020-10-12T05:57:57Z</time>
      </trkpt>
      <trkpt lat="38.1940820" lon="-1.0763700">
        <ele>174.8</ele>
        <time>2020-10-12T05:57:58Z</time>
      </trkpt>
      <trkpt lat="38.1941560" lon="-1.0762680">
        <ele>174.0</ele>
        <time>2020-10-12T05:57:59Z</time>
      </trkpt>
      <trkpt lat="38.1942290" lon="-1.0761630">
        <ele>173.4</ele>
        <time>2020-10-12T05:58:00Z</time>
      </trkpt>
      <trkpt lat="38.1943010" lon="-1.0760590">
        <ele>172.6</ele>
        <time>2020-10-12T05:58:01Z</time>
      </trkpt>
      <trkpt lat="38.1943730" lon="-1.0759530">
        <ele>172.0</ele>
        <time>2020-10-12T05:58:02Z</time>
      </trkpt>
      <trkpt lat="38.1944460" lon="-1.0758480">
        <ele>171.0</ele>
        <time>2020-10-12T05:58:03Z</time>
      </trkpt>
      <trkpt lat="38.1945180" lon="-1.0757440">
        <ele>170.0</ele>
        <time>2020-10-12T05:58:04Z</time>
      </trkpt>
      <trkpt lat="38.1945910" lon="-1.0756400">
        <ele>169.2</ele>
        <time>2020-10-12T05:58:05Z</time>
      </trkpt>
      <trkpt lat="38.1946650" lon="-1.0755350">
        <ele>168.4</ele>
        <time>2020-10-12T05:58:06Z</time>
      </trkpt>
      <trkpt lat="38.1947360" lon="-1.0754290">
        <ele>168.0</ele>
        <time>2020-10-12T05:58:07Z</time>
      </trkpt>
      <trkpt lat="38.1948090" lon="-1.0753230">
        <ele>167.6</ele>
        <time>2020-10-12T05:58:08Z</time>
      </trkpt>
      <trkpt lat="38.1948830" lon="-1.0752160">
        <ele>167.0</ele>
        <time>2020-10-12T05:58:09Z</time>
      </trkpt>
      <trkpt lat="38.1949570" lon="-1.0751130">
        <ele>166.4</ele>
        <time>2020-10-12T05:58:10Z</time>
      </trkpt>
      <trkpt lat="38.1950310" lon="-1.0750090">
        <ele>165.8</ele>
        <time>2020-10-12T05:58:11Z</time>
      </trkpt>
      <trkpt lat="38.1951040" lon="-1.0749050">
        <ele>165.4</ele>
        <time>2020-10-12T05:58:12Z</time>
      </trkpt>
      <trkpt lat="38.1951750" lon="-1.0748020">
        <ele>165.2</ele>
        <time>2020-10-12T05:58:13Z</time>
      </trkpt>
      <trkpt lat="38.1952460" lon="-1.0747010">
        <ele>165.2</ele>
        <time>2020-10-12T05:58:14Z</time>
      </trkpt>
      <trkpt lat="38.1953180" lon="-1.0746020">
        <ele>165.0</ele>
        <time>2020-10-12T05:58:15Z</time>
      </trkpt>
      <trkpt lat="38.1953880" lon="-1.0745020">
        <ele>165.0</ele>
        <time>2020-10-12T05:58:16Z</time>
      </trkpt>
      <trkpt lat="38.1954570" lon="-1.0744050">
        <ele>165.0</ele>
        <time>2020-10-12T05:58:17Z</time>
      </trkpt>
      <trkpt lat="38.1955260" lon="-1.0743090">
        <ele>164.8</ele>
        <time>2020-10-12T05:58:18Z</time>
      </trkpt>
      <trkpt lat="38.1955940" lon="-1.0742140">
        <ele>164.8</ele>
        <time>2020-10-12T05:58:19Z</time>
      </trkpt>
      <trkpt lat="38.1956600" lon="-1.0741200">
        <ele>164.6</ele>
        <time>2020-10-12T05:58:20Z</time>
      </trkpt>
      <trkpt lat="38.1957250" lon="-1.0740260">
        <ele>164.4</ele>
        <time>2020-10-12T05:58:21Z</time>
      </trkpt>
      <trkpt lat="38.1957910" lon="-1.0739360">
        <ele>164.4</ele>
        <time>2020-10-12T05:58:22Z</time>
      </trkpt>
      <trkpt lat="38.1958550" lon="-1.0738440">
        <ele>164.2</ele>
        <time>2020-10-12T05:58:23Z</time>
      </trkpt>
      <trkpt lat="38.1959170" lon="-1.0737520">
        <ele>164.2</ele>
        <time>2020-10-12T05:58:24Z</time>
      </trkpt>
      <trkpt lat="38.1959790" lon="-1.0736610">
        <ele>164.2</ele>
        <time>2020-10-12T05:58:25Z</time>
      </trkpt>
      <trkpt lat="38.1960380" lon="-1.0735680">
        <ele>164.2</ele>
        <time>2020-10-12T05:58:26Z</time>
      </trkpt>
      <trkpt lat="38.1960950" lon="-1.0734740">
        <ele>164.2</ele>
        <time>2020-10-12T05:58:27Z</time>
      </trkpt>
      <trkpt lat="38.1961480" lon="-1.0733760">
        <ele>164.2</ele>
        <time>2020-10-12T05:58:28Z</time>
      </trkpt>
      <trkpt lat="38.1961960" lon="-1.0732770">
        <ele>164.2</ele>
        <time>2020-10-12T05:58:29Z</time>
      </trkpt>
      <trkpt lat="38.1962380" lon="-1.0731750">
        <ele>164.2</ele>
        <time>2020-10-12T05:58:30Z</time>
      </trkpt>
      <trkpt lat="38.1962720" lon="-1.0730710">
        <ele>164.4</ele>
        <time>2020-10-12T05:58:31Z</time>
      </trkpt>
      <trkpt lat="38.1963000" lon="-1.0729660">
        <ele>164.4</ele>
        <time>2020-10-12T05:58:32Z</time>
      </trkpt>
      <trkpt lat="38.1963230" lon="-1.0728620">
        <ele>164.6</ele>
        <time>2020-10-12T05:58:33Z</time>
      </trkpt>
      <trkpt lat="38.1963420" lon="-1.0727570">
        <ele>164.6</ele>
        <time>2020-10-12T05:58:34Z</time>
      </trkpt>
      <trkpt lat="38.1963590" lon="-1.0726510">
        <ele>164.8</ele>
        <time>2020-10-12T05:58:35Z</time>
      </trkpt>
      <trkpt lat="38.1963750" lon="-1.0725430">
        <ele>164.8</ele>
        <time>2020-10-12T05:58:36Z</time>
      </trkpt>
      <trkpt lat="38.1963900" lon="-1.0724370">
        <ele>164.8</ele>
        <time>2020-10-12T05:58:37Z</time>
      </trkpt>
      <trkpt lat="38.1964020" lon="-1.0723280">
        <ele>164.8</ele>
        <time>2020-10-12T05:58:38Z</time>
      </trkpt>
      <trkpt lat="38.1964110" lon="-1.0722190">
        <ele>165.0</ele>
        <time>2020-10-12T05:58:39Z</time>
      </trkpt>
      <trkpt lat="38.1964180" lon="-1.0721120">
        <ele>165.0</ele>
        <time>2020-10-12T05:58:40Z</time>
      </trkpt>
      <trkpt lat="38.1964240" lon="-1.0720050">
        <ele>165.2</ele>
        <time>2020-10-12T05:58:41Z</time>
      </trkpt>
      <trkpt lat="38.1964320" lon="-1.0718980">
        <ele>165.2</ele>
        <time>2020-10-12T05:58:42Z</time>
      </trkpt>
      <trkpt lat="38.1964410" lon="-1.0717910">
        <ele>165.2</ele>
        <time>2020-10-12T05:58:43Z</time>
      </trkpt>
      <trkpt lat="38.1964470" lon="-1.0716850">
        <ele>165.2</ele>
        <time>2020-10-12T05:58:44Z</time>
      </trkpt>
      <trkpt lat="38.1964550" lon="-1.0715780">
        <ele>165.4</ele>
        <time>2020-10-12T05:58:45Z</time>
      </trkpt>
      <trkpt lat="38.1964640" lon="-1.0714710">
        <ele>165.0</ele>
        <time>2020-10-12T05:58:46Z</time>
      </trkpt>
      <trkpt lat="38.1964720" lon="-1.0713610">
        <ele>164.6</ele>
        <time>2020-10-12T05:58:47Z</time>
      </trkpt>
      <trkpt lat="38.1964830" lon="-1.0712520">
        <ele>164.2</ele>
        <time>2020-10-12T05:58:48Z</time>
      </trkpt>
      <trkpt lat="38.1964950" lon="-1.0711420">
        <ele>163.8</ele>
        <time>2020-10-12T05:58:49Z</time>
      </trkpt>
      <trkpt lat="38.1965080" lon="-1.0710310">
        <ele>163.6</ele>
        <time>2020-10-12T05:58:50Z</time>
      </trkpt>
      <trkpt lat="38.1965260" lon="-1.0709220">
        <ele>163.4</ele>
        <time>2020-10-12T05:58:51Z</time>
      </trkpt>
      <trkpt lat="38.1965490" lon="-1.0708130">
        <ele>163.0</ele>
        <time>2020-10-12T05:58:52Z</time>
      </trkpt>
      <trkpt lat="38.1965750" lon="-1.0707050">
        <ele>162.8</ele>
        <time>2020-10-12T05:58:53Z</time>
      </trkpt>
      <trkpt lat="38.1966090" lon="-1.0706000">
        <ele>162.4</ele>
        <time>2020-10-12T05:58:54Z</time>
      </trkpt>
      <trkpt lat="38.1966500" lon="-1.0704960">
        <ele>162.2</ele>
        <time>2020-10-12T05:58:55Z</time>
      </trkpt>
      <trkpt lat="38.1966960" lon="-1.0703970">
        <ele>161.6</ele>
        <time>2020-10-12T05:58:56Z</time>
      </trkpt>
      <trkpt lat="38.1967450" lon="-1.0702960">
        <ele>161.0</ele>
        <time>2020-10-12T05:58:57Z</time>
      </trkpt>
      <trkpt lat="38.1967940" lon="-1.0701970">
        <ele>160.2</ele>
        <time>2020-10-12T05:58:58Z</time>
      </trkpt>
      <trkpt lat="38.1968450" lon="-1.0701030">
        <ele>159.8</ele>
        <time>2020-10-12T05:58:59Z</time>
      </trkpt>
      <trkpt lat="38.1969000" lon="-1.0700090">
        <ele>159.6</ele>
        <time>2020-10-12T05:59:00Z</time>
      </trkpt>
      <trkpt lat="38.1969600" lon="-1.0699200">
        <ele>159.4</ele>
        <time>2020-10-12T05:59:01Z</time>
      </trkpt>
      <trkpt lat="38.1970220" lon="-1.0698330">
        <ele>159.4</ele>
        <time>2020-10-12T05:59:02Z</time>
      </trkpt>
      <trkpt lat="38.1970890" lon="-1.0697500">
        <ele>159.2</ele>
        <time>2020-10-12T05:59:03Z</time>
      </trkpt>
      <trkpt lat="38.1971560" lon="-1.0696660">
        <ele>159.0</ele>
        <time>2020-10-12T05:59:04Z</time>
      </trkpt>
      <trkpt lat="38.1972230" lon="-1.0695870">
        <ele>158.8</ele>
        <time>2020-10-12T05:59:05Z</time>
      </trkpt>
      <trkpt lat="38.1972940" lon="-1.0695110">
        <ele>158.4</ele>
        <time>2020-10-12T05:59:06Z</time>
      </trkpt>
      <trkpt lat="38.1973640" lon="-1.0694330">
        <ele>157.8</ele>
        <time>2020-10-12T05:59:07Z</time>
      </trkpt>
      <trkpt lat="38.1974340" lon="-1.0693550">
        <ele>157.4</ele>
        <time>2020-10-12T05:59:08Z</time>
      </trkpt>
      <trkpt lat="38.1975060" lon="-1.0692770">
        <ele>157.0</ele>
        <time>2020-10-12T05:59:09Z</time>
      </trkpt>
      <trkpt lat="38.1975780" lon="-1.0692000">
        <ele>156.4</ele>
        <time>2020-10-12T05:59:10Z</time>
      </trkpt>
      <trkpt lat="38.1976490" lon="-1.0691230">
        <ele>156.0</ele>
        <time>2020-10-12T05:59:11Z</time>
      </trkpt>
      <trkpt lat="38.1977200" lon="-1.0690480">
        <ele>155.6</ele>
        <time>2020-10-12T05:59:12Z</time>
      </trkpt>
      <trkpt lat="38.1977910" lon="-1.0689710">
        <ele>155.0</ele>
        <time>2020-10-12T05:59:13Z</time>
      </trkpt>
      <trkpt lat="38.1978630" lon="-1.0688970">
        <ele>154.6</ele>
        <time>2020-10-12T05:59:14Z</time>
      </trkpt>
      <trkpt lat="38.1979330" lon="-1.0688200">
        <ele>154.4</ele>
        <time>2020-10-12T05:59:15Z</time>
      </trkpt>
      <trkpt lat="38.1980010" lon="-1.0687430">
        <ele>154.2</ele>
        <time>2020-10-12T05:59:16Z</time>
      </trkpt>
      <trkpt lat="38.1980660" lon="-1.0686680">
        <ele>153.8</ele>
        <time>2020-10-12T05:59:17Z</time>
      </trkpt>
      <trkpt lat="38.1981310" lon="-1.0685940">
        <ele>153.8</ele>
        <time>2020-10-12T05:59:18Z</time>
      </trkpt>
      <trkpt lat="38.1981960" lon="-1.0685230">
        <ele>153.6</ele>
        <time>2020-10-12T05:59:19Z</time>
      </trkpt>
      <trkpt lat="38.1982580" lon="-1.0684510">
        <ele>153.6</ele>
        <time>2020-10-12T05:59:20Z</time>
      </trkpt>
      <trkpt lat="38.1983180" lon="-1.0683830">
        <ele>153.8</ele>
        <time>2020-10-12T05:59:21Z</time>
      </trkpt>
      <trkpt lat="38.1983820" lon="-1.0683150">
        <ele>154.0</ele>
        <time>2020-10-12T05:59:22Z</time>
      </trkpt>
      <trkpt lat="38.1984410" lon="-1.0682480">
        <ele>155.2</ele>
        <time>2020-10-12T05:59:23Z</time>
      </trkpt>
      <trkpt lat="38.1984990" lon="-1.0681820">
        <ele>156.4</ele>
        <time>2020-10-12T05:59:24Z</time>
      </trkpt>
      <trkpt lat="38.1985550" lon="-1.0681140">
        <ele>157.4</ele>
        <time>2020-10-12T05:59:25Z</time>
      </trkpt>
      <trkpt lat="38.1986100" lon="-1.0680430">
        <ele>158.2</ele>
        <time>2020-10-12T05:59:26Z</time>
      </trkpt>
      <trkpt lat="38.1986610" lon="-1.0679720">
        <ele>159.0</ele>
        <time>2020-10-12T05:59:27Z</time>
      </trkpt>
      <trkpt lat="38.1987090" lon="-1.0678980">
        <ele>159.4</ele>
        <time>2020-10-12T05:59:28Z</time>
      </trkpt>
      <trkpt lat="38.1987540" lon="-1.0678210">
        <ele>159.8</ele>
        <time>2020-10-12T05:59:29Z</time>
      </trkpt>
      <trkpt lat="38.1988020" lon="-1.0677460">
        <ele>159.8</ele>
        <time>2020-10-12T05:59:30Z</time>
      </trkpt>
      <trkpt lat="38.1988480" lon="-1.0676720">
        <ele>160.2</ele>
        <time>2020-10-12T05:59:31Z</time>
      </trkpt>
      <trkpt lat="38.1988900" lon="-1.0675990">
        <ele>160.8</ele>
        <time>2020-10-12T05:59:32Z</time>
      </trkpt>
      <trkpt lat="38.1989280" lon="-1.0675230">
        <ele>161.2</ele>
        <time>2020-10-12T05:59:33Z</time>
      </trkpt>
      <trkpt lat="38.1989650" lon="-1.0674480">
        <ele>161.4</ele>
        <time>2020-10-12T05:59:34Z</time>
      </trkpt>
      <trkpt lat="38.1989980" lon="-1.0673720">
        <ele>160.8</ele>
        <time>2020-10-12T05:59:35Z</time>
      </trkpt>
      <trkpt lat="38.1990260" lon="-1.0672940">
        <ele>159.8</ele>
        <time>2020-10-12T05:59:36Z</time>
      </trkpt>
      <trkpt lat="38.1990490" lon="-1.0672120">
        <ele>159.8</ele>
        <time>2020-10-12T05:59:37Z</time>
      </trkpt>
      <trkpt lat="38.1990730" lon="-1.0671300">
        <ele>159.8</ele>
        <time>2020-10-12T05:59:38Z</time>
      </trkpt>
      <trkpt lat="38.1990890" lon="-1.0670450">
        <ele>159.6</ele>
        <time>2020-10-12T05:59:39Z</time>
      </trkpt>
      <trkpt lat="38.1991010" lon="-1.0669600">
        <ele>159.6</ele>
        <time>2020-10-12T05:59:40Z</time>
      </trkpt>
      <trkpt lat="38.1991140" lon="-1.0668780">
        <ele>160.0</ele>
        <time>2020-10-12T05:59:41Z</time>
      </trkpt>
      <trkpt lat="38.1991250" lon="-1.0667970">
        <ele>160.2</ele>
        <time>2020-10-12T05:59:42Z</time>
      </trkpt>
      <trkpt lat="38.1991330" lon="-1.0667140">
        <ele>160.4</ele>
        <time>2020-10-12T05:59:43Z</time>
      </trkpt>
      <trkpt lat="38.1991380" lon="-1.0666290">
        <ele>160.6</ele>
        <time>2020-10-12T05:59:44Z</time>
      </trkpt>
      <trkpt lat="38.1991500" lon="-1.0665510">
        <ele>160.8</ele>
        <time>2020-10-12T05:59:45Z</time>
      </trkpt>
      <trkpt lat="38.1991570" lon="-1.0664690">
        <ele>161.0</ele>
        <time>2020-10-12T05:59:46Z</time>
      </trkpt>
      <trkpt lat="38.1991690" lon="-1.0663880">
        <ele>161.0</ele>
        <time>2020-10-12T05:59:47Z</time>
      </trkpt>
      <trkpt lat="38.1991780" lon="-1.0663070">
        <ele>161.0</ele>
        <time>2020-10-12T05:59:48Z</time>
      </trkpt>
      <trkpt lat="38.1991860" lon="-1.0662260">
        <ele>161.2</ele>
        <time>2020-10-12T05:59:49Z</time>
      </trkpt>
      <trkpt lat="38.1991910" lon="-1.0661440">
        <ele>161.0</ele>
        <time>2020-10-12T05:59:50Z</time>
      </trkpt>
      <trkpt lat="38.1991970" lon="-1.0660640">
        <ele>160.8</ele>
        <time>2020-10-12T05:59:51Z</time>
      </trkpt>
      <trkpt lat="38.1992060" lon="-1.0659860">
        <ele>160.6</ele>
        <time>2020-10-12T05:59:52Z</time>
      </trkpt>
      <trkpt lat="38.1992150" lon="-1.0659070">
        <ele>160.6</ele>
        <time>2020-10-12T05:59:53Z</time>
      </trkpt>
      <trkpt lat="38.1992240" lon="-1.0658260">
        <ele>160.4</ele>
        <time>2020-10-12T05:59:54Z</time>
      </trkpt>
      <trkpt lat="38.1992380" lon="-1.0657480">
        <ele>160.6</ele>
        <time>2020-10-12T05:59:55Z</time>
      </trkpt>
      <trkpt lat="38.1992480" lon="-1.0656710">
        <ele>160.8</ele>
        <time>2020-10-12T05:59:56Z</time>
      </trkpt>
      <trkpt lat="38.1992570" lon="-1.0655940">
        <ele>160.8</ele>
        <time>2020-10-12T05:59:57Z</time>
      </trkpt>
      <trkpt lat="38.1992680" lon="-1.0655160">
        <ele>161.0</ele>
        <time>2020-10-12T05:59:58Z</time>
      </trkpt>
      <trkpt lat="38.1992770" lon="-1.0654370">
        <ele>161.0</ele>
        <time>2020-10-12T05:59:59Z</time>
      </trkpt>
      <trkpt lat="38.1992830" lon="-1.0653590">
        <ele>161.2</ele>
        <time>2020-10-12T06:00:00Z</time>
      </trkpt>
      <trkpt lat="38.1992890" lon="-1.0652800">
        <ele>161.2</ele>
        <time>2020-10-12T06:00:01Z</time>
      </trkpt>
      <trkpt lat="38.1992980" lon="-1.0652020">
        <ele>161.2</ele>
        <time>2020-10-12T06:00:02Z</time>
      </trkpt>
      <trkpt lat="38.1993090" lon="-1.0651270">
        <ele>161.4</ele>
        <time>2020-10-12T06:00:03Z</time>
      </trkpt>
      <trkpt lat="38.1993180" lon="-1.0650510">
        <ele>161.4</ele>
        <time>2020-10-12T06:00:04Z</time>
      </trkpt>
      <trkpt lat="38.1993270" lon="-1.0649740">
        <ele>161.6</ele>
        <time>2020-10-12T06:00:05Z</time>
      </trkpt>
      <trkpt lat="38.1993380" lon="-1.0648970">
        <ele>161.6</ele>
        <time>2020-10-12T06:00:06Z</time>
      </trkpt>
      <trkpt lat="38.1993500" lon="-1.0648210">
        <ele>161.8</ele>
        <time>2020-10-12T06:00:07Z</time>
      </trkpt>
      <trkpt lat="38.1993580" lon="-1.0647440">
        <ele>162.2</ele>
        <time>2020-10-12T06:00:08Z</time>
      </trkpt>
      <trkpt lat="38.1993660" lon="-1.0646670">
        <ele>162.4</ele>
        <time>2020-10-12T06:00:09Z</time>
      </trkpt>
      <trkpt lat="38.1993730" lon="-1.0645890">
        <ele>162.6</ele>
        <time>2020-10-12T06:00:10Z</time>
      </trkpt>
      <trkpt lat="38.1993810" lon="-1.0645120">
        <ele>163.0</ele>
        <time>2020-10-12T06:00:11Z</time>
      </trkpt>
      <trkpt lat="38.1993890" lon="-1.0644360">
        <ele>163.2</ele>
        <time>2020-10-12T06:00:12Z</time>
      </trkpt>
      <trkpt lat="38.1993980" lon="-1.0643620">
        <ele>163.4</ele>
        <time>2020-10-12T06:00:13Z</time>
      </trkpt>
      <trkpt lat="38.1994040" lon="-1.0642870">
        <ele>163.6</ele>
        <time>2020-10-12T06:00:14Z</time>
      </trkpt>
      <trkpt lat="38.1994080" lon="-1.0642090">
        <ele>163.8</ele>
        <time>2020-10-12T06:00:15Z</time>
      </trkpt>
      <trkpt lat="38.1994090" lon="-1.0641320">
        <ele>164.0</ele>
        <time>2020-10-12T06:00:16Z</time>
      </trkpt>
      <trkpt lat="38.1994080" lon="-1.0640540">
        <ele>164.0</ele>
        <time>2020-10-12T06:00:17Z</time>
      </trkpt>
      <trkpt lat="38.1994050" lon="-1.0639780">
        <ele>164.2</ele>
        <time>2020-10-12T06:00:18Z</time>
      </trkpt>
      <trkpt lat="38.1994000" lon="-1.0639030">
        <ele>164.6</ele>
        <time>2020-10-12T06:00:19Z</time>
      </trkpt>
      <trkpt lat="38.1993910" lon="-1.0638260">
        <ele>164.8</ele>
        <time>2020-10-12T06:00:20Z</time>
      </trkpt>
      <trkpt lat="38.1993790" lon="-1.0637510">
        <ele>165.0</ele>
        <time>2020-10-12T06:00:21Z</time>
      </trkpt>
      <trkpt lat="38.1993670" lon="-1.0636750">
        <ele>165.4</ele>
        <time>2020-10-12T06:00:22Z</time>
      </trkpt>
      <trkpt lat="38.1993520" lon="-1.0636010">
        <ele>165.6</ele>
        <time>2020-10-12T06:00:23Z</time>
      </trkpt>
      <trkpt lat="38.1993380" lon="-1.0635280">
        <ele>165.8</ele>
        <time>2020-10-12T06:00:24Z</time>
      </trkpt>
      <trkpt lat="38.1993230" lon="-1.0634540">
        <ele>166.2</ele>
        <time>2020-10-12T06:00:25Z</time>
      </trkpt>
      <trkpt lat="38.1993090" lon="-1.0633810">
        <ele>166.4</ele>
        <time>2020-10-12T06:00:26Z</time>
      </trkpt>
      <trkpt lat="38.1992950" lon="-1.0633090">
        <ele>166.6</ele>
        <time>2020-10-12T06:00:27Z</time>
      </trkpt>
      <trkpt lat="38.1992810" lon="-1.0632380">
        <ele>166.8</ele>
        <time>2020-10-12T06:00:28Z</time>
      </trkpt>
      <trkpt lat="38.1992660" lon="-1.0631660">
        <ele>167.0</ele>
        <time>2020-10-12T06:00:29Z</time>
      </trkpt>
      <trkpt lat="38.1992510" lon="-1.0630940">
        <ele>167.2</ele>
        <time>2020-10-12T06:00:30Z</time>
      </trkpt>
      <trkpt lat="38.1992370" lon="-1.0630230">
        <ele>167.4</ele>
        <time>2020-10-12T06:00:31Z</time>
      </trkpt>
      <trkpt lat="38.1992220" lon="-1.0629520">
        <ele>167.4</ele>
        <time>2020-10-12T06:00:32Z</time>
      </trkpt>
      <trkpt lat="38.1992080" lon="-1.0628810">
        <ele>167.4</ele>
        <time>2020-10-12T06:00:33Z</time>
      </trkpt>
      <trkpt lat="38.1991950" lon="-1.0628090">
        <ele>167.6</ele>
        <time>2020-10-12T06:00:34Z</time>
      </trkpt>
      <trkpt lat="38.1991830" lon="-1.0627370">
        <ele>167.6</ele>
        <time>2020-10-12T06:00:35Z</time>
      </trkpt>
      <trkpt lat="38.1991720" lon="-1.0626650">
        <ele>167.8</ele>
        <time>2020-10-12T06:00:36Z</time>
      </trkpt>
      <trkpt lat="38.1991620" lon="-1.0625920">
        <ele>167.8</ele>
        <time>2020-10-12T06:00:37Z</time>
      </trkpt>
      <trkpt lat="38.1991540" lon="-1.0625190">
        <ele>167.8</ele>
        <time>2020-10-12T06:00:38Z</time>
      </trkpt>
      <trkpt lat="38.1991450" lon="-1.0624460">
        <ele>167.8</ele>
        <time>2020-10-12T06:00:39Z</time>
      </trkpt>
      <trkpt lat="38.1991360" lon="-1.0623700">
        <ele>167.8</ele>
        <time>2020-10-12T06:00:40Z</time>
      </trkpt>
      <trkpt lat="38.1991280" lon="-1.0622950">
        <ele>167.8</ele>
        <time>2020-10-12T06:00:41Z</time>
      </trkpt>
      <trkpt lat="38.1991200" lon="-1.0622170">
        <ele>168.0</ele>
        <time>2020-10-12T06:00:42Z</time>
      </trkpt>
      <trkpt lat="38.1991130" lon="-1.0621390">
        <ele>168.2</ele>
        <time>2020-10-12T06:00:43Z</time>
      </trkpt>
      <trkpt lat="38.1991080" lon="-1.0620590">
        <ele>168.2</ele>
        <time>2020-10-12T06:00:44Z</time>
      </trkpt>
      <trkpt lat="38.1991050" lon="-1.0619800">
        <ele>168.2</ele>
        <time>2020-10-12T06:00:45Z</time>
      </trkpt>
      <trkpt lat="38.1991030" lon="-1.0618990">
        <ele>168.2</ele>
        <time>2020-10-12T06:00:46Z</time>
      </trkpt>
      <trkpt lat="38.1991040" lon="-1.0618180">
        <ele>168.0</ele>
        <time>2020-10-12T06:00:47Z</time>
      </trkpt>
      <trkpt lat="38.1991050" lon="-1.0617370">
        <ele>168.0</ele>
        <time>2020-10-12T06:00:48Z</time>
      </trkpt>
      <trkpt lat="38.1991090" lon="-1.0616550">
        <ele>167.8</ele>
        <time>2020-10-12T06:00:49Z</time>
      </trkpt>
      <trkpt lat="38.1991140" lon="-1.0615740">
        <ele>167.6</ele>
        <time>2020-10-12T06:00:50Z</time>
      </trkpt>
      <trkpt lat="38.1991200" lon="-1.0614930">
        <ele>167.4</ele>
        <time>2020-10-12T06:00:51Z</time>
      </trkpt>
      <trkpt lat="38.1991280" lon="-1.0614120">
        <ele>167.4</ele>
        <time>2020-10-12T06:00:52Z</time>
      </trkpt>
      <trkpt lat="38.1991370" lon="-1.0613290">
        <ele>167.4</ele>
        <time>2020-10-12T06:00:53Z</time>
      </trkpt>
      <trkpt lat="38.1991490" lon="-1.0612450">
        <ele>167.4</ele>
        <time>2020-10-12T06:00:54Z</time>
      </trkpt>
      <trkpt lat="38.1991600" lon="-1.0611590">
        <ele>167.4</ele>
        <time>2020-10-12T06:00:55Z</time>
      </trkpt>
      <trkpt lat="38.1991720" lon="-1.0610740">
        <ele>167.4</ele>
        <time>2020-10-12T06:00:56Z</time>
      </trkpt>
      <trkpt lat="38.1991880" lon="-1.0609890">
        <ele>167.2</ele>
        <time>2020-10-12T06:00:57Z</time>
      </trkpt>
      <trkpt lat="38.1992060" lon="-1.0609020">
        <ele>167.2</ele>
        <time>2020-10-12T06:00:58Z</time>
      </trkpt>
      <trkpt lat="38.1992300" lon="-1.0608140">
        <ele>167.0</ele>
        <time>2020-10-12T06:00:59Z</time>
      </trkpt>
      <trkpt lat="38.1992550" lon="-1.0607250">
        <ele>166.6</ele>
        <time>2020-10-12T06:01:00Z</time>
      </trkpt>
      <trkpt lat="38.1992800" lon="-1.0606330">
        <ele>166.2</ele>
        <time>2020-10-12T06:01:01Z</time>
      </trkpt>
      <trkpt lat="38.1993050" lon="-1.0605430">
        <ele>166.0</ele>
        <time>2020-10-12T06:01:02Z</time>
      </trkpt>
      <trkpt lat="38.1993320" lon="-1.0604470">
        <ele>165.8</ele>
        <time>2020-10-12T06:01:03Z</time>
      </trkpt>
      <trkpt lat="38.1993590" lon="-1.0603500">
        <ele>165.6</ele>
        <time>2020-10-12T06:01:04Z</time>
      </trkpt>
      <trkpt lat="38.1993860" lon="-1.0602520">
        <ele>165.2</ele>
        <time>2020-10-12T06:01:05Z</time>
      </trkpt>
      <trkpt lat="38.1994160" lon="-1.0601560">
        <ele>165.2</ele>
        <time>2020-10-12T06:01:06Z</time>
      </trkpt>
      <trkpt lat="38.1994490" lon="-1.0600610">
        <ele>165.0</ele>
        <time>2020-10-12T06:01:07Z</time>
      </trkpt>
      <trkpt lat="38.1994810" lon="-1.0599650">
        <ele>164.6</ele>
        <time>2020-10-12T06:01:08Z</time>
      </trkpt>
      <trkpt lat="38.1995110" lon="-1.0598650">
        <ele>164.2</ele>
        <time>2020-10-12T06:01:09Z</time>
      </trkpt>
      <trkpt lat="38.1995440" lon="-1.0597670">
        <ele>163.6</ele>
        <time>2020-10-12T06:01:10Z</time>
      </trkpt>
      <trkpt lat="38.1995770" lon="-1.0596690">
        <ele>163.2</ele>
        <time>2020-10-12T06:01:11Z</time>
      </trkpt>
      <trkpt lat="38.1996110" lon="-1.0595730">
        <ele>163.0</ele>
        <time>2020-10-12T06:01:12Z</time>
      </trkpt>
      <trkpt lat="38.1996430" lon="-1.0594750">
        <ele>162.8</ele>
        <time>2020-10-12T06:01:13Z</time>
      </trkpt>
      <trkpt lat="38.1996720" lon="-1.0593750">
        <ele>162.6</ele>
        <time>2020-10-12T06:01:14Z</time>
      </trkpt>
      <trkpt lat="38.1996990" lon="-1.0592770">
        <ele>162.4</ele>
        <time>2020-10-12T06:01:15Z</time>
      </trkpt>
      <trkpt lat="38.1997250" lon="-1.0591780">
        <ele>162.4</ele>
        <time>2020-10-12T06:01:16Z</time>
      </trkpt>
      <trkpt lat="38.1997530" lon="-1.0590800">
        <ele>162.2</ele>
        <time>2020-10-12T06:01:17Z</time>
      </trkpt>
      <trkpt lat="38.1997780" lon="-1.0589760">
        <ele>162.2</ele>
        <time>2020-10-12T06:01:18Z</time>
      </trkpt>
      <trkpt lat="38.1998010" lon="-1.0588710">
        <ele>162.2</ele>
        <time>2020-10-12T06:01:19Z</time>
      </trkpt>
      <trkpt lat="38.1998190" lon="-1.0587630">
        <ele>161.8</ele>
        <time>2020-10-12T06:01:20Z</time>
      </trkpt>
      <trkpt lat="38.1998370" lon="-1.0586560">
        <ele>161.6</ele>
        <time>2020-10-12T06:01:21Z</time>
      </trkpt>
      <trkpt lat="38.1998520" lon="-1.0585500">
        <ele>161.2</ele>
        <time>2020-10-12T06:01:22Z</time>
      </trkpt>
      <trkpt lat="38.1998670" lon="-1.0584430">
        <ele>161.2</ele>
        <time>2020-10-12T06:01:23Z</time>
      </trkpt>
      <trkpt lat="38.1998820" lon="-1.0583350">
        <ele>161.0</ele>
        <time>2020-10-12T06:01:24Z</time>
      </trkpt>
      <trkpt lat="38.1998970" lon="-1.0582270">
        <ele>160.8</ele>
        <time>2020-10-12T06:01:25Z</time>
      </trkpt>
      <trkpt lat="38.1999120" lon="-1.0581180">
        <ele>160.8</ele>
        <time>2020-10-12T06:01:26Z</time>
      </trkpt>
      <trkpt lat="38.1999280" lon="-1.0580110">
        <ele>160.8</ele>
        <time>2020-10-12T06:01:27Z</time>
      </trkpt>
      <trkpt lat="38.1999440" lon="-1.0579010">
        <ele>160.4</ele>
        <time>2020-10-12T06:01:28Z</time>
      </trkpt>
      <trkpt lat="38.1999600" lon="-1.0577950">
        <ele>160.2</ele>
        <time>2020-10-12T06:01:29Z</time>
      </trkpt>
      <trkpt lat="38.1999770" lon="-1.0576910">
        <ele>160.0</ele>
        <time>2020-10-12T06:01:30Z</time>
      </trkpt>
      <trkpt lat="38.1999940" lon="-1.0575890">
        <ele>160.0</ele>
        <time>2020-10-12T06:01:31Z</time>
      </trkpt>
      <trkpt lat="38.2000120" lon="-1.0574890">
        <ele>160.0</ele>
        <time>2020-10-12T06:01:32Z</time>
      </trkpt>
      <trkpt lat="38.2000330" lon="-1.0573910">
        <ele>159.8</ele>
        <time>2020-10-12T06:01:33Z</time>
      </trkpt>
      <trkpt lat="38.2000540" lon="-1.0572940">
        <ele>160.0</ele>
        <time>2020-10-12T06:01:34Z</time>
      </trkpt>
      <trkpt lat="38.2000770" lon="-1.0571990">
        <ele>160.0</ele>
        <time>2020-10-12T06:01:35Z</time>
      </trkpt>
      <trkpt lat="38.2001040" lon="-1.0571050">
        <ele>160.0</ele>
        <time>2020-10-12T06:01:36Z</time>
      </trkpt>
      <trkpt lat="38.2001300" lon="-1.0570130">
        <ele>160.0</ele>
        <time>2020-10-12T06:01:37Z</time>
      </trkpt>
      <trkpt lat="38.2001570" lon="-1.0569210">
        <ele>160.0</ele>
        <time>2020-10-12T06:01:38Z</time>
      </trkpt>
      <trkpt lat="38.2001840" lon="-1.0568320">
        <ele>160.0</ele>
        <time>2020-10-12T06:01:39Z</time>
      </trkpt>
      <trkpt lat="38.2002120" lon="-1.0567430">
        <ele>160.2</ele>
        <time>2020-10-12T06:01:40Z</time>
      </trkpt>
      <trkpt lat="38.2002390" lon="-1.0566530">
        <ele>160.4</ele>
        <time>2020-10-12T06:01:41Z</time>
      </trkpt>
      <trkpt lat="38.2002650" lon="-1.0565650">
        <ele>161.0</ele>
        <time>2020-10-12T06:01:42Z</time>
      </trkpt>
      <trkpt lat="38.2002930" lon="-1.0564790">
        <ele>161.2</ele>
        <time>2020-10-12T06:01:43Z</time>
      </trkpt>
      <trkpt lat="38.2003210" lon="-1.0563950">
        <ele>161.4</ele>
        <time>2020-10-12T06:01:44Z</time>
      </trkpt>
      <trkpt lat="38.2003490" lon="-1.0563120">
        <ele>161.4</ele>
        <time>2020-10-12T06:01:45Z</time>
      </trkpt>
      <trkpt lat="38.2003750" lon="-1.0562290">
        <ele>161.6</ele>
        <time>2020-10-12T06:01:46Z</time>
      </trkpt>
      <trkpt lat="38.2004020" lon="-1.0561490">
        <ele>161.6</ele>
        <time>2020-10-12T06:01:47Z</time>
      </trkpt>
      <trkpt lat="38.2004290" lon="-1.0560730">
        <ele>161.8</ele>
        <time>2020-10-12T06:01:48Z</time>
      </trkpt>
      <trkpt lat="38.2004540" lon="-1.0559950">
        <ele>162.0</ele>
        <time>2020-10-12T06:01:49Z</time>
      </trkpt>
      <trkpt lat="38.2004800" lon="-1.0559220">
        <ele>162.2</ele>
        <time>2020-10-12T06:01:50Z</time>
      </trkpt>
      <trkpt lat="38.2005070" lon="-1.0558540">
        <ele>162.8</ele>
        <time>2020-10-12T06:01:51Z</time>
      </trkpt>
      <trkpt lat="38.2005360" lon="-1.0557900">
        <ele>163.4</ele>
        <time>2020-10-12T06:01:52Z</time>
      </trkpt>
      <trkpt lat="38.2005640" lon="-1.0557280">
        <ele>164.0</ele>
        <time>2020-10-12T06:01:53Z</time>
      </trkpt>
      <trkpt lat="38.2005890" lon="-1.0556720">
        <ele>164.6</ele>
        <time>2020-10-12T06:01:54Z</time>
      </trkpt>
      <trkpt lat="38.2006120" lon="-1.0556180">
        <ele>165.0</ele>
        <time>2020-10-12T06:01:55Z</time>
      </trkpt>
      <trkpt lat="38.2006360" lon="-1.0555640">
        <ele>165.4</ele>
        <time>2020-10-12T06:01:56Z</time>
      </trkpt>
      <trkpt lat="38.2006600" lon="-1.0555120">
        <ele>165.8</ele>
        <time>2020-10-12T06:01:57Z</time>
      </trkpt>
      <trkpt lat="38.2006920" lon="-1.0554660">
        <ele>166.0</ele>
        <time>2020-10-12T06:01:58Z</time>
      </trkpt>
      <trkpt lat="38.2007190" lon="-1.0554210">
        <ele>166.2</ele>
        <time>2020-10-12T06:01:59Z</time>
      </trkpt>
      <trkpt lat="38.2007450" lon="-1.0553750">
        <ele>166.4</ele>
        <time>2020-10-12T06:02:00Z</time>
      </trkpt>
      <trkpt lat="38.2007720" lon="-1.0553340">
        <ele>166.4</ele>
        <time>2020-10-12T06:02:01Z</time>
      </trkpt>
      <trkpt lat="38.2008000" lon="-1.0552940">
        <ele>166.8</ele>
        <time>2020-10-12T06:02:02Z</time>
      </trkpt>
      <trkpt lat="38.2008260" lon="-1.0552560">
        <ele>167.0</ele>
        <time>2020-10-12T06:02:03Z</time>
      </trkpt>
      <trkpt lat="38.2008500" lon="-1.0552160">
        <ele>167.4</ele>
        <time>2020-10-12T06:02:04Z</time>
      </trkpt>
      <trkpt lat="38.2008770" lon="-1.0551780">
        <ele>167.8</ele>
        <time>2020-10-12T06:02:05Z</time>
      </trkpt>
      <trkpt lat="38.2009040" lon="-1.0551410">
        <ele>168.2</ele>
        <time>2020-10-12T06:02:06Z</time>
      </trkpt>
      <trkpt lat="38.2009300" lon="-1.0551050">
        <ele>168.6</ele>
        <time>2020-10-12T06:02:07Z</time>
      </trkpt>
      <trkpt lat="38.2009560" lon="-1.0550700">
        <ele>169.0</ele>
        <time>2020-10-12T06:02:08Z</time>
      </trkpt>
      <trkpt lat="38.2009810" lon="-1.0550330">
        <ele>169.4</ele>
        <time>2020-10-12T06:02:09Z</time>
      </trkpt>
      <trkpt lat="38.2010060" lon="-1.0549970">
        <ele>169.8</ele>
        <time>2020-10-12T06:02:10Z</time>
      </trkpt>
      <trkpt lat="38.2010330" lon="-1.0549630">
        <ele>170.0</ele>
        <time>2020-10-12T06:02:11Z</time>
      </trkpt>
      <trkpt lat="38.2010590" lon="-1.0549310">
        <ele>170.2</ele>
        <time>2020-10-12T06:02:12Z</time>
      </trkpt>
      <trkpt lat="38.2010840" lon="-1.0548990">
        <ele>170.4</ele>
        <time>2020-10-12T06:02:13Z</time>
      </trkpt>
      <trkpt lat="38.2011110" lon="-1.0548700">
        <ele>170.8</ele>
        <time>2020-10-12T06:02:14Z</time>
      </trkpt>
      <trkpt lat="38.2011360" lon="-1.0548400">
        <ele>171.0</ele>
        <time>2020-10-12T06:02:15Z</time>
      </trkpt>
      <trkpt lat="38.2011610" lon="-1.0548080">
        <ele>171.4</ele>
        <time>2020-10-12T06:02:16Z</time>
      </trkpt>
      <trkpt lat="38.2011860" lon="-1.0547760">
        <ele>172.0</ele>
        <time>2020-10-12T06:02:17Z</time>
      </trkpt>
      <trkpt lat="38.2012120" lon="-1.0547480">
        <ele>172.6</ele>
        <time>2020-10-12T06:02:18Z</time>
      </trkpt>
      <trkpt lat="38.2012380" lon="-1.0547180">
        <ele>173.2</ele>
        <time>2020-10-12T06:02:19Z</time>
      </trkpt>
      <trkpt lat="38.2012620" lon="-1.0546870">
        <ele>173.6</ele>
        <time>2020-10-12T06:02:20Z</time>
      </trkpt>
      <trkpt lat="38.2012860" lon="-1.0546570">
        <ele>173.8</ele>
        <time>2020-10-12T06:02:21Z</time>
      </trkpt>
      <trkpt lat="38.2013090" lon="-1.0546260">
        <ele>174.0</ele>
        <time>2020-10-12T06:02:22Z</time>
      </trkpt>
      <trkpt lat="38.2013340" lon="-1.0545970">
        <ele>174.2</ele>
        <time>2020-10-12T06:02:23Z</time>
      </trkpt>
      <trkpt lat="38.2013590" lon="-1.0545680">
        <ele>174.4</ele>
        <time>2020-10-12T06:02:24Z</time>
      </trkpt>
      <trkpt lat="38.2013840" lon="-1.0545380">
        <ele>174.6</ele>
        <time>2020-10-12T06:02:25Z</time>
      </trkpt>
      <trkpt lat="38.2014090" lon="-1.0545090">
        <ele>174.8</ele>
        <time>2020-10-12T06:02:26Z</time>
      </trkpt>
      <trkpt lat="38.2014330" lon="-1.0544810">
        <ele>175.0</ele>
        <time>2020-10-12T06:02:27Z</time>
      </trkpt>
      <trkpt lat="38.2014590" lon="-1.0544500">
        <ele>175.2</ele>
        <time>2020-10-12T06:02:28Z</time>
      </trkpt>
      <trkpt lat="38.2014830" lon="-1.0544200">
        <ele>175.4</ele>
        <time>2020-10-12T06:02:29Z</time>
      </trkpt>
      <trkpt lat="38.2015060" lon="-1.0543920">
        <ele>175.6</ele>
        <time>2020-10-12T06:02:30Z</time>
      </trkpt>
      <trkpt lat="38.2015310" lon="-1.0543640">
        <ele>176.0</ele>
        <time>2020-10-12T06:02:31Z</time>
      </trkpt>
      <trkpt lat="38.2015570" lon="-1.0543350">
        <ele>176.2</ele>
        <time>2020-10-12T06:02:32Z</time>
      </trkpt>
      <trkpt lat="38.2015800" lon="-1.0543070">
        <ele>176.4</ele>
        <time>2020-10-12T06:02:33Z</time>
      </trkpt>
      <trkpt lat="38.2016020" lon="-1.0542780">
        <ele>176.6</ele>
        <time>2020-10-12T06:02:34Z</time>
      </trkpt>
      <trkpt lat="38.2016270" lon="-1.0542510">
        <ele>176.8</ele>
        <time>2020-10-12T06:02:35Z</time>
      </trkpt>
      <trkpt lat="38.2016520" lon="-1.0542230">
        <ele>177.2</ele>
        <time>2020-10-12T06:02:36Z</time>
      </trkpt>
      <trkpt lat="38.2016770" lon="-1.0541960">
        <ele>177.8</ele>
        <time>2020-10-12T06:02:37Z</time>
      </trkpt>
      <trkpt lat="38.2017010" lon="-1.0541680">
        <ele>178.2</ele>
        <time>2020-10-12T06:02:38Z</time>
      </trkpt>
      <trkpt lat="38.2017260" lon="-1.0541370">
        <ele>178.6</ele>
        <time>2020-10-12T06:02:39Z</time>
      </trkpt>
      <trkpt lat="38.2017500" lon="-1.0541070">
        <ele>179.0</ele>
        <time>2020-10-12T06:02:40Z</time>
      </trkpt>
      <trkpt lat="38.2017750" lon="-1.0540770">
        <ele>179.2</ele>
        <time>2020-10-12T06:02:41Z</time>
      </trkpt>
      <trkpt lat="38.2017990" lon="-1.0540460">
        <ele>179.6</ele>
        <time>2020-10-12T06:02:42Z</time>
      </trkpt>
      <trkpt lat="38.2018220" lon="-1.0540150">
        <ele>179.8</ele>
        <time>2020-10-12T06:02:43Z</time>
      </trkpt>
      <trkpt lat="38.2018460" lon="-1.0539860">
        <ele>180.2</ele>
        <time>2020-10-12T06:02:44Z</time>
      </trkpt>
      <trkpt lat="38.2018730" lon="-1.0539560">
        <ele>180.6</ele>
        <time>2020-10-12T06:02:45Z</time>
      </trkpt>
      <trkpt lat="38.2018960" lon="-1.0539260">
        <ele>180.8</ele>
        <time>2020-10-12T06:02:46Z</time>
      </trkpt>
      <trkpt lat="38.2019230" lon="-1.0538930">
        <ele>181.2</ele>
        <time>2020-10-12T06:02:47Z</time>
      </trkpt>
      <trkpt lat="38.2019460" lon="-1.0538590">
        <ele>181.2</ele>
        <time>2020-10-12T06:02:48Z</time>
      </trkpt>
      <trkpt lat="38.2019710" lon="-1.0538260">
        <ele>181.4</ele>
        <time>2020-10-12T06:02:49Z</time>
      </trkpt>
      <trkpt lat="38.2019970" lon="-1.0537960">
        <ele>181.6</ele>
        <time>2020-10-12T06:02:50Z</time>
      </trkpt>
      <trkpt lat="38.2020230" lon="-1.0537670">
        <ele>182.0</ele>
        <time>2020-10-12T06:02:51Z</time>
      </trkpt>
      <trkpt lat="38.2020490" lon="-1.0537360">
        <ele>182.2</ele>
        <time>2020-10-12T06:02:52Z</time>
      </trkpt>
      <trkpt lat="38.2020740" lon="-1.0537050">
        <ele>182.4</ele>
        <time>2020-10-12T06:02:53Z</time>
      </trkpt>
      <trkpt lat="38.2021010" lon="-1.0536770">
        <ele>182.6</ele>
        <time>2020-10-12T06:02:54Z</time>
      </trkpt>
      <trkpt lat="38.2021270" lon="-1.0536480">
        <ele>182.8</ele>
        <time>2020-10-12T06:02:55Z</time>
      </trkpt>
      <trkpt lat="38.2021510" lon="-1.0536200">
        <ele>183.0</ele>
        <time>2020-10-12T06:02:56Z</time>
      </trkpt>
      <trkpt lat="38.2021760" lon="-1.0535910">
        <ele>183.0</ele>
        <time>2020-10-12T06:02:57Z</time>
      </trkpt>
      <trkpt lat="38.2022030" lon="-1.0535590">
        <ele>183.2</ele>
        <time>2020-10-12T06:02:58Z</time>
      </trkpt>
      <trkpt lat="38.2022270" lon="-1.0535310">
        <ele>183.4</ele>
        <time>2020-10-12T06:02:59Z</time>
      </trkpt>
      <trkpt lat="38.2022550" lon="-1.0534990">
        <ele>183.6</ele>
        <time>2020-10-12T06:03:00Z</time>
      </trkpt>
      <trkpt lat="38.2022810" lon="-1.0534630">
        <ele>184.0</ele>
        <time>2020-10-12T06:03:01Z</time>
      </trkpt>
      <trkpt lat="38.2023050" lon="-1.0534290">
        <ele>184.2</ele>
        <time>2020-10-12T06:03:02Z</time>
      </trkpt>
      <trkpt lat="38.2023340" lon="-1.0533960">
        <ele>184.4</ele>
        <time>2020-10-12T06:03:03Z</time>
      </trkpt>
      <trkpt lat="38.2023600" lon="-1.0533630">
        <ele>184.6</ele>
        <time>2020-10-12T06:03:04Z</time>
      </trkpt>
      <trkpt lat="38.2023880" lon="-1.0533280">
        <ele>184.6</ele>
        <time>2020-10-12T06:03:05Z</time>
      </trkpt>
      <trkpt lat="38.2024150" lon="-1.0532950">
        <ele>184.8</ele>
        <time>2020-10-12T06:03:06Z</time>
      </trkpt>
      <trkpt lat="38.2024440" lon="-1.0532620">
        <ele>185.0</ele>
        <time>2020-10-12T06:03:07Z</time>
      </trkpt>
      <trkpt lat="38.2024730" lon="-1.0532290">
        <ele>185.2</ele>
        <time>2020-10-12T06:03:08Z</time>
      </trkpt>
      <trkpt lat="38.2025010" lon="-1.0531970">
        <ele>185.4</ele>
        <time>2020-10-12T06:03:09Z</time>
      </trkpt>
      <trkpt lat="38.2025300" lon="-1.0531640">
        <ele>185.6</ele>
        <time>2020-10-12T06:03:10Z</time>
      </trkpt>
      <trkpt lat="38.2025560" lon="-1.0531300">
        <ele>185.8</ele>
        <time>2020-10-12T06:03:11Z</time>
      </trkpt>
      <trkpt lat="38.2025850" lon="-1.0530980">
        <ele>186.2</ele>
        <time>2020-10-12T06:03:12Z</time>
      </trkpt>
      <trkpt lat="38.2026160" lon="-1.0530630">
        <ele>186.6</ele>
        <time>2020-10-12T06:03:13Z</time>
      </trkpt>
      <trkpt lat="38.2026460" lon="-1.0530290">
        <ele>186.8</ele>
        <time>2020-10-12T06:03:14Z</time>
      </trkpt>
      <trkpt lat="38.2026770" lon="-1.0529930">
        <ele>187.0</ele>
        <time>2020-10-12T06:03:15Z</time>
      </trkpt>
      <trkpt lat="38.2027100" lon="-1.0529560">
        <ele>187.0</ele>
        <time>2020-10-12T06:03:16Z</time>
      </trkpt>
      <trkpt lat="38.2027440" lon="-1.0529210">
        <ele>187.0</ele>
        <time>2020-10-12T06:03:17Z</time>
      </trkpt>
      <trkpt lat="38.2027790" lon="-1.0528850">
        <ele>187.2</ele>
        <time>2020-10-12T06:03:18Z</time>
      </trkpt>
      <trkpt lat="38.2028150" lon="-1.0528510">
        <ele>187.0</ele>
        <time>2020-10-12T06:03:19Z</time>
      </trkpt>
      <trkpt lat="38.2028510" lon="-1.0528160">
        <ele>187.0</ele>
        <time>2020-10-12T06:03:20Z</time>
      </trkpt>
      <trkpt lat="38.2028880" lon="-1.0527780">
        <ele>187.0</ele>
        <time>2020-10-12T06:03:21Z</time>
      </trkpt>
      <trkpt lat="38.2029250" lon="-1.0527410">
        <ele>186.8</ele>
        <time>2020-10-12T06:03:22Z</time>
      </trkpt>
      <trkpt lat="38.2029630" lon="-1.0527040">
        <ele>186.8</ele>
        <time>2020-10-12T06:03:23Z</time>
      </trkpt>
      <trkpt lat="38.2030010" lon="-1.0526670">
        <ele>186.8</ele>
        <time>2020-10-12T06:03:24Z</time>
      </trkpt>
      <trkpt lat="38.2030430" lon="-1.0526330">
        <ele>186.4</ele>
        <time>2020-10-12T06:03:25Z</time>
      </trkpt>
      <trkpt lat="38.2030820" lon="-1.0526000">
        <ele>186.2</ele>
        <time>2020-10-12T06:03:26Z</time>
      </trkpt>
      <trkpt lat="38.2031220" lon="-1.0525650">
        <ele>185.8</ele>
        <time>2020-10-12T06:03:27Z</time>
      </trkpt>
      <trkpt lat="38.2031620" lon="-1.0525330">
        <ele>185.4</ele>
        <time>2020-10-12T06:03:28Z</time>
      </trkpt>
      <trkpt lat="38.2032020" lon="-1.0525010">
        <ele>185.0</ele>
        <time>2020-10-12T06:03:29Z</time>
      </trkpt>
      <trkpt lat="38.2032410" lon="-1.0524690">
        <ele>185.0</ele>
        <time>2020-10-12T06:03:30Z</time>
      </trkpt>
      <trkpt lat="38.2032830" lon="-1.0524430">
        <ele>184.8</ele>
        <time>2020-10-12T06:03:31Z</time>
      </trkpt>
      <trkpt lat="38.2033250" lon="-1.0524200">
        <ele>184.8</ele>
        <time>2020-10-12T06:03:32Z</time>
      </trkpt>
      <trkpt lat="38.2033690" lon="-1.0523990">
        <ele>185.0</ele>
        <time>2020-10-12T06:03:33Z</time>
      </trkpt>
      <trkpt lat="38.2034120" lon="-1.0523780">
        <ele>185.2</ele>
        <time>2020-10-12T06:03:34Z</time>
      </trkpt>
      <trkpt lat="38.2034560" lon="-1.0523560">
        <ele>185.4</ele>
        <time>2020-10-12T06:03:35Z</time>
      </trkpt>
      <trkpt lat="38.2035020" lon="-1.0523350">
        <ele>185.4</ele>
        <time>2020-10-12T06:03:36Z</time>
      </trkpt>
      <trkpt lat="38.2035480" lon="-1.0523130">
        <ele>185.4</ele>
        <time>2020-10-12T06:03:37Z</time>
      </trkpt>
      <trkpt lat="38.2035940" lon="-1.0522870">
        <ele>185.6</ele>
        <time>2020-10-12T06:03:38Z</time>
      </trkpt>
      <trkpt lat="38.2036420" lon="-1.0522640">
        <ele>185.6</ele>
        <time>2020-10-12T06:03:39Z</time>
      </trkpt>
      <trkpt lat="38.2036890" lon="-1.0522410">
        <ele>185.8</ele>
        <time>2020-10-12T06:03:40Z</time>
      </trkpt>
      <trkpt lat="38.2037370" lon="-1.0522170">
        <ele>185.8</ele>
        <time>2020-10-12T06:03:41Z</time>
      </trkpt>
      <trkpt lat="38.2037840" lon="-1.0521950">
        <ele>185.8</ele>
        <time>2020-10-12T06:03:42Z</time>
      </trkpt>
      <trkpt lat="38.2038300" lon="-1.0521710">
        <ele>186.0</ele>
        <time>2020-10-12T06:03:43Z</time>
      </trkpt>
      <trkpt lat="38.2038740" lon="-1.0521470">
        <ele>186.0</ele>
        <time>2020-10-12T06:03:44Z</time>
      </trkpt>
      <trkpt lat="38.2039180" lon="-1.0521220">
        <ele>186.0</ele>
        <time>2020-10-12T06:03:45Z</time>
      </trkpt>
      <trkpt lat="38.2039630" lon="-1.0520970">
        <ele>186.0</ele>
        <time>2020-10-12T06:03:46Z</time>
      </trkpt>
      <trkpt lat="38.2040080" lon="-1.0520710">
        <ele>186.0</ele>
        <time>2020-10-12T06:03:47Z</time>
      </trkpt>
      <trkpt lat="38.2040530" lon="-1.0520430">
        <ele>186.0</ele>
        <time>2020-10-12T06:03:48Z</time>
      </trkpt>
      <trkpt lat="38.2040980" lon="-1.0520110">
        <ele>186.2</ele>
        <time>2020-10-12T06:03:49Z</time>
      </trkpt>
      <trkpt lat="38.2041410" lon="-1.0519780">
        <ele>186.2</ele>
        <time>2020-10-12T06:03:50Z</time>
      </trkpt>
      <trkpt lat="38.2041840" lon="-1.0519440">
        <ele>186.2</ele>
        <time>2020-10-12T06:03:51Z</time>
      </trkpt>
      <trkpt lat="38.2042260" lon="-1.0519080">
        <ele>186.2</ele>
        <time>2020-10-12T06:03:52Z</time>
      </trkpt>
      <trkpt lat="38.2042630" lon="-1.0518710">
        <ele>186.4</ele>
        <time>2020-10-12T06:03:53Z</time>
      </trkpt>
      <trkpt lat="38.2042990" lon="-1.0518290">
        <ele>186.6</ele>
        <time>2020-10-12T06:03:54Z</time>
      </trkpt>
      <trkpt lat="38.2043330" lon="-1.0517860">
        <ele>186.6</ele>
        <time>2020-10-12T06:03:55Z</time>
      </trkpt>
      <trkpt lat="38.2043660" lon="-1.0517390">
        <ele>186.8</ele>
        <time>2020-10-12T06:03:56Z</time>
      </trkpt>
      <trkpt lat="38.2043990" lon="-1.0516920">
        <ele>187.0</ele>
        <time>2020-10-12T06:03:57Z</time>
      </trkpt>
      <trkpt lat="38.2044330" lon="-1.0516460">
        <ele>187.0</ele>
        <time>2020-10-12T06:03:58Z</time>
      </trkpt>
      <trkpt lat="38.2044670" lon="-1.0516030">
        <ele>187.2</ele>
        <time>2020-10-12T06:03:59Z</time>
      </trkpt>
      <trkpt lat="38.2045000" lon="-1.0515560">
        <ele>187.4</ele>
        <time>2020-10-12T06:04:00Z</time>
      </trkpt>
      <trkpt lat="38.2045310" lon="-1.0515100">
        <ele>187.4</ele>
        <time>2020-10-12T06:04:01Z</time>
      </trkpt>
      <trkpt lat="38.2045580" lon="-1.0514600">
        <ele>187.4</ele>
        <time>2020-10-12T06:04:02Z</time>
      </trkpt>
      <trkpt lat="38.2045900" lon="-1.0514150">
        <ele>187.6</ele>
        <time>2020-10-12T06:04:03Z</time>
      </trkpt>
      <trkpt lat="38.2046190" lon="-1.0513640">
        <ele>187.8</ele>
        <time>2020-10-12T06:04:04Z</time>
      </trkpt>
      <trkpt lat="38.2046460" lon="-1.0513150">
        <ele>187.8</ele>
        <time>2020-10-12T06:04:05Z</time>
      </trkpt>
      <trkpt lat="38.2046720" lon="-1.0512630">
        <ele>188.0</ele>
        <time>2020-10-12T06:04:06Z</time>
      </trkpt>
      <trkpt lat="38.2046980" lon="-1.0512100">
        <ele>188.0</ele>
        <time>2020-10-12T06:04:07Z</time>
      </trkpt>
      <trkpt lat="38.2047210" lon="-1.0511560">
        <ele>188.0</ele>
        <time>2020-10-12T06:04:08Z</time>
      </trkpt>
      <trkpt lat="38.2047450" lon="-1.0511020">
        <ele>188.2</ele>
        <time>2020-10-12T06:04:09Z</time>
      </trkpt>
      <trkpt lat="38.2047680" lon="-1.0510490">
        <ele>188.4</ele>
        <time>2020-10-12T06:04:10Z</time>
      </trkpt>
      <trkpt lat="38.2047910" lon="-1.0509950">
        <ele>188.6</ele>
        <time>2020-10-12T06:04:11Z</time>
      </trkpt>
      <trkpt lat="38.2048120" lon="-1.0509410">
        <ele>188.6</ele>
        <time>2020-10-12T06:04:12Z</time>
      </trkpt>
      <trkpt lat="38.2048310" lon="-1.0508830">
        <ele>188.8</ele>
        <time>2020-10-12T06:04:13Z</time>
      </trkpt>
      <trkpt lat="38.2048470" lon="-1.0508260">
        <ele>189.0</ele>
        <time>2020-10-12T06:04:14Z</time>
      </trkpt>
      <trkpt lat="38.2048590" lon="-1.0507680">
        <ele>189.2</ele>
        <time>2020-10-12T06:04:15Z</time>
      </trkpt>
      <trkpt lat="38.2048680" lon="-1.0507100">
        <ele>189.4</ele>
        <time>2020-10-12T06:04:16Z</time>
      </trkpt>
      <trkpt lat="38.2048760" lon="-1.0506530">
        <ele>189.6</ele>
        <time>2020-10-12T06:04:17Z</time>
      </trkpt>
      <trkpt lat="38.2048830" lon="-1.0505980">
        <ele>189.8</ele>
        <time>2020-10-12T06:04:18Z</time>
      </trkpt>
      <trkpt lat="38.2048890" lon="-1.0505390">
        <ele>190.0</ele>
        <time>2020-10-12T06:04:19Z</time>
      </trkpt>
      <trkpt lat="38.2048910" lon="-1.0504790">
        <ele>190.2</ele>
        <time>2020-10-12T06:04:20Z</time>
      </trkpt>
      <trkpt lat="38.2048920" lon="-1.0504210">
        <ele>190.2</ele>
        <time>2020-10-12T06:04:21Z</time>
      </trkpt>
      <trkpt lat="38.2048950" lon="-1.0503620">
        <ele>190.4</ele>
        <time>2020-10-12T06:04:22Z</time>
      </trkpt>
      <trkpt lat="38.2048990" lon="-1.0503040">
        <ele>190.4</ele>
        <time>2020-10-12T06:04:23Z</time>
      </trkpt>
      <trkpt lat="38.2049030" lon="-1.0502490">
        <ele>190.6</ele>
        <time>2020-10-12T06:04:24Z</time>
      </trkpt>
      <trkpt lat="38.2049050" lon="-1.0501930">
        <ele>191.0</ele>
        <time>2020-10-12T06:04:25Z</time>
      </trkpt>
      <trkpt lat="38.2049050" lon="-1.0501380">
        <ele>191.2</ele>
        <time>2020-10-12T06:04:26Z</time>
      </trkpt>
      <trkpt lat="38.2049040" lon="-1.0500830">
        <ele>191.4</ele>
        <time>2020-10-12T06:04:27Z</time>
      </trkpt>
      <trkpt lat="38.2049020" lon="-1.0500280">
        <ele>191.6</ele>
        <time>2020-10-12T06:04:28Z</time>
      </trkpt>
      <trkpt lat="38.2048960" lon="-1.0499720">
        <ele>191.8</ele>
        <time>2020-10-12T06:04:29Z</time>
      </trkpt>
      <trkpt lat="38.2048840" lon="-1.0499150">
        <ele>191.8</ele>
        <time>2020-10-12T06:04:30Z</time>
      </trkpt>
      <trkpt lat="38.2048660" lon="-1.0498640">
        <ele>192.0</ele>
        <time>2020-10-12T06:04:31Z</time>
      </trkpt>
      <trkpt lat="38.2048420" lon="-1.0498180">
        <ele>192.2</ele>
        <time>2020-10-12T06:04:32Z</time>
      </trkpt>
      <trkpt lat="38.2048130" lon="-1.0497750">
        <ele>192.6</ele>
        <time>2020-10-12T06:04:33Z</time>
      </trkpt>
      <trkpt lat="38.2047810" lon="-1.0497390">
        <ele>193.0</ele>
        <time>2020-10-12T06:04:34Z</time>
      </trkpt>
      <trkpt lat="38.2047460" lon="-1.0497060">
        <ele>193.4</ele>
        <time>2020-10-12T06:04:35Z</time>
      </trkpt>
      <trkpt lat="38.2047100" lon="-1.0496810">
        <ele>193.8</ele>
        <time>2020-10-12T06:04:36Z</time>
      </trkpt>
      <trkpt lat="38.2046730" lon="-1.0496580">
        <ele>194.0</ele>
        <time>2020-10-12T06:04:37Z</time>
      </trkpt>
      <trkpt lat="38.2046350" lon="-1.0496330">
        <ele>194.2</ele>
        <time>2020-10-12T06:04:38Z</time>
      </trkpt>
      <trkpt lat="38.2045950" lon="-1.0496080">
        <ele>194.2</ele>
        <time>2020-10-12T06:04:39Z</time>
      </trkpt>
      <trkpt lat="38.2045560" lon="-1.0495850">
        <ele>194.2</ele>
        <time>2020-10-12T06:04:40Z</time>
      </trkpt>
      <trkpt lat="38.2045190" lon="-1.0495560">
        <ele>194.4</ele>
        <time>2020-10-12T06:04:41Z</time>
      </trkpt>
      <trkpt lat="38.2044880" lon="-1.0495180">
        <ele>194.2</ele>
        <time>2020-10-12T06:04:42Z</time>
      </trkpt>
      <trkpt lat="38.2044600" lon="-1.0494730">
        <ele>194.2</ele>
        <time>2020-10-12T06:04:43Z</time>
      </trkpt>
      <trkpt lat="38.2044320" lon="-1.0494280">
        <ele>194.0</ele>
        <time>2020-10-12T06:04:44Z</time>
      </trkpt>
      <trkpt lat="38.2044080" lon="-1.0493830">
        <ele>194.0</ele>
        <time>2020-10-12T06:04:45Z</time>
      </trkpt>
      <trkpt lat="38.2043900" lon="-1.0493340">
        <ele>194.0</ele>
        <time>2020-10-12T06:04:46Z</time>
      </trkpt>
      <trkpt lat="38.2043810" lon="-1.0492840">
        <ele>193.8</ele>
        <time>2020-10-12T06:04:47Z</time>
      </trkpt>
      <trkpt lat="38.2043780" lon="-1.0492340">
        <ele>193.8</ele>
        <time>2020-10-12T06:04:48Z</time>
      </trkpt>
      <trkpt lat="38.2043820" lon="-1.0491870">
        <ele>193.8</ele>
        <time>2020-10-12T06:04:49Z</time>
      </trkpt>
      <trkpt lat="38.2043890" lon="-1.0491430">
        <ele>193.8</ele>
        <time>2020-10-12T06:04:50Z</time>
      </trkpt>
      <trkpt lat="38.2043980" lon="-1.0491000">
        <ele>193.6</ele>
        <time>2020-10-12T06:04:51Z</time>
      </trkpt>
      <trkpt lat="38.2044070" lon="-1.0490590">
        <ele>193.6</ele>
        <time>2020-10-12T06:04:52Z</time>
      </trkpt>
      <trkpt lat="38.2044170" lon="-1.0490190">
        <ele>193.6</ele>
        <time>2020-10-12T06:04:53Z</time>
      </trkpt>
      <trkpt lat="38.2044260" lon="-1.0489840">
        <ele>193.6</ele>
        <time>2020-10-12T06:04:54Z</time>
      </trkpt>
      <trkpt lat="38.2044400" lon="-1.0489510">
        <ele>193.6</ele>
        <time>2020-10-12T06:04:55Z</time>
      </trkpt>
      <trkpt lat="38.2044570" lon="-1.0489210">
        <ele>193.6</ele>
        <time>2020-10-12T06:04:56Z</time>
      </trkpt>
      <trkpt lat="38.2044780" lon="-1.0488970">
        <ele>193.6</ele>
        <time>2020-10-12T06:04:57Z</time>
      </trkpt>
      <trkpt lat="38.2045000" lon="-1.0488750">
        <ele>193.6</ele>
        <time>2020-10-12T06:04:58Z</time>
      </trkpt>
      <trkpt lat="38.2045250" lon="-1.0488550">
        <ele>193.6</ele>
        <time>2020-10-12T06:04:59Z</time>
      </trkpt>
      <trkpt lat="38.2045520" lon="-1.0488360">
        <ele>193.4</ele>
        <time>2020-10-12T06:05:00Z</time>
      </trkpt>
      <trkpt lat="38.2045780" lon="-1.0488150">
        <ele>193.4</ele>
        <time>2020-10-12T06:05:01Z</time>
      </trkpt>
      <trkpt lat="38.2046040" lon="-1.0488000">
        <ele>193.4</ele>
        <time>2020-10-12T06:05:02Z</time>
      </trkpt>
      <trkpt lat="38.2046360" lon="-1.0487890">
        <ele>193.4</ele>
        <time>2020-10-12T06:05:03Z</time>
      </trkpt>
      <trkpt lat="38.2046640" lon="-1.0487840">
        <ele>193.6</ele>
        <time>2020-10-12T06:05:04Z</time>
      </trkpt>
      <trkpt lat="38.2046980" lon="-1.0487850">
        <ele>193.6</ele>
        <time>2020-10-12T06:05:05Z</time>
      </trkpt>
      <trkpt lat="38.2047300" lon="-1.0487900">
        <ele>193.8</ele>
        <time>2020-10-12T06:05:06Z</time>
      </trkpt>
      <trkpt lat="38.2047630" lon="-1.0487950">
        <ele>194.0</ele>
        <time>2020-10-12T06:05:07Z</time>
      </trkpt>
      <trkpt lat="38.2047930" lon="-1.0488020">
        <ele>194.2</ele>
        <time>2020-10-12T06:05:08Z</time>
      </trkpt>
      <trkpt lat="38.2048230" lon="-1.0488130">
        <ele>194.6</ele>
        <time>2020-10-12T06:05:09Z</time>
      </trkpt>
      <trkpt lat="38.2048520" lon="-1.0488260">
        <ele>194.8</ele>
        <time>2020-10-12T06:05:10Z</time>
      </trkpt>
      <trkpt lat="38.2048800" lon="-1.0488430">
        <ele>195.0</ele>
        <time>2020-10-12T06:05:11Z</time>
      </trkpt>
      <trkpt lat="38.2049070" lon="-1.0488640">
        <ele>195.0</ele>
        <time>2020-10-12T06:05:12Z</time>
      </trkpt>
      <trkpt lat="38.2049320" lon="-1.0488870">
        <ele>195.2</ele>
        <time>2020-10-12T06:05:13Z</time>
      </trkpt>
      <trkpt lat="38.2049530" lon="-1.0489150">
        <ele>195.2</ele>
        <time>2020-10-12T06:05:14Z</time>
      </trkpt>
      <trkpt lat="38.2049730" lon="-1.0489440">
        <ele>195.2</ele>
        <time>2020-10-12T06:05:15Z</time>
      </trkpt>
      <trkpt lat="38.2049940" lon="-1.0489730">
        <ele>195.4</ele>
        <time>2020-10-12T06:05:16Z</time>
      </trkpt>
      <trkpt lat="38.2050140" lon="-1.0490010">
        <ele>195.6</ele>
        <time>2020-10-12T06:05:17Z</time>
      </trkpt>
      <trkpt lat="38.2050310" lon="-1.0490350">
        <ele>195.6</ele>
        <time>2020-10-12T06:05:18Z</time>
      </trkpt>
      <trkpt lat="38.2050430" lon="-1.0490790">
        <ele>195.8</ele>
        <time>2020-10-12T06:05:19Z</time>
      </trkpt>
      <trkpt lat="38.2050540" lon="-1.0491280">
        <ele>196.0</ele>
        <time>2020-10-12T06:05:20Z</time>
      </trkpt>
      <trkpt lat="38.2050590" lon="-1.0491800">
        <ele>196.2</ele>
        <time>2020-10-12T06:05:21Z</time>
      </trkpt>
      <trkpt lat="38.2050530" lon="-1.0492410">
        <ele>196.2</ele>
        <time>2020-10-12T06:05:22Z</time>
      </trkpt>
      <trkpt lat="38.2050370" lon="-1.0493060">
        <ele>196.2</ele>
        <time>2020-10-12T06:05:23Z</time>
      </trkpt>
      <trkpt lat="38.2050140" lon="-1.0493730">
        <ele>196.2</ele>
        <time>2020-10-12T06:05:24Z</time>
      </trkpt>
      <trkpt lat="38.2049820" lon="-1.0494370">
        <ele>196.2</ele>
        <time>2020-10-12T06:05:25Z</time>
      </trkpt>
      <trkpt lat="38.2049400" lon="-1.0494960">
        <ele>196.0</ele>
        <time>2020-10-12T06:05:26Z</time>
      </trkpt>
      <trkpt lat="38.2048910" lon="-1.0495440">
        <ele>195.8</ele>
        <time>2020-10-12T06:05:27Z</time>
      </trkpt>
      <trkpt lat="38.2048380" lon="-1.0495750">
        <ele>195.8</ele>
        <time>2020-10-12T06:05:28Z</time>
      </trkpt>
      <trkpt lat="38.2047760" lon="-1.0495940">
        <ele>195.6</ele>
        <time>2020-10-12T06:05:29Z</time>
      </trkpt>
      <trkpt lat="38.2047120" lon="-1.0495960">
        <ele>195.2</ele>
        <time>2020-10-12T06:05:30Z</time>
      </trkpt>
      <trkpt lat="38.2046490" lon="-1.0495850">
        <ele>194.8</ele>
        <time>2020-10-12T06:05:31Z</time>
      </trkpt>
      <trkpt lat="38.2045870" lon="-1.0495650">
        <ele>194.6</ele>
        <time>2020-10-12T06:05:32Z</time>
      </trkpt>
      <trkpt lat="38.2045280" lon="-1.0495330">
        <ele>194.4</ele>
        <time>2020-10-12T06:05:33Z</time>
      </trkpt>
      <trkpt lat="38.2044730" lon="-1.0494920">
        <ele>194.2</ele>
        <time>2020-10-12T06:05:34Z</time>
      </trkpt>
      <trkpt lat="38.2044290" lon="-1.0494410">
        <ele>194.2</ele>
        <time>2020-10-12T06:05:35Z</time>
      </trkpt>
      <trkpt lat="38.2043970" lon="-1.0493790">
        <ele>194.0</ele>
        <time>2020-10-12T06:05:36Z</time>
      </trkpt>
      <trkpt lat="38.2043810" lon="-1.0493180">
        <ele>193.8</ele>
        <time>2020-10-12T06:05:37Z</time>
      </trkpt>
      <trkpt lat="38.2043740" lon="-1.0492640">
        <ele>193.8</ele>
        <time>2020-10-12T06:05:38Z</time>
      </trkpt>
      <trkpt lat="38.2043740" lon="-1.0492330">
        <ele>193.8</ele>
        <time>2020-10-12T06:05:39Z</time>
      </trkpt>
      <trkpt lat="38.2043760" lon="-1.0492200">
        <ele>193.8</ele>
        <time>2020-10-12T06:05:40Z</time>
      </trkpt>
      <trkpt lat="38.2043730" lon="-1.0492220">
        <ele>193.6</ele>
        <time>2020-10-12T06:05:41Z</time>
      </trkpt>
      <trkpt lat="38.2045760" lon="-1.0477880">
        <ele>194.0</ele>
        <time>2020-10-12T06:10:31Z</time>
      </trkpt>
      <trkpt lat="38.2045990" lon="-1.0477280">
        <ele>194.4</ele>
        <time>2020-10-12T06:10:32Z</time>
      </trkpt>
      <trkpt lat="38.2046230" lon="-1.0476670">
        <ele>194.0</ele>
        <time>2020-10-12T06:10:33Z</time>
      </trkpt>
      <trkpt lat="38.2046440" lon="-1.0476000">
        <ele>193.8</ele>
        <time>2020-10-12T06:10:34Z</time>
      </trkpt>
      <trkpt lat="38.2046680" lon="-1.0475350">
        <ele>194.2</ele>
        <time>2020-10-12T06:10:35Z</time>
      </trkpt>
      <trkpt lat="38.2046890" lon="-1.0474710">
        <ele>194.0</ele>
        <time>2020-10-12T06:10:36Z</time>
      </trkpt>
      <trkpt lat="38.2047050" lon="-1.0474080">
        <ele>194.8</ele>
        <time>2020-10-12T06:10:37Z</time>
      </trkpt>
      <trkpt lat="38.2047240" lon="-1.0473470">
        <ele>194.6</ele>
        <time>2020-10-12T06:10:38Z</time>
      </trkpt>
      <trkpt lat="38.2047420" lon="-1.0472880">
        <ele>194.6</ele>
        <time>2020-10-12T06:10:39Z</time>
      </trkpt>
      <trkpt lat="38.2047630" lon="-1.0472260">
        <ele>194.8</ele>
        <time>2020-10-12T06:10:40Z</time>
      </trkpt>
      <trkpt lat="38.2047910" lon="-1.0471640">
        <ele>195.0</ele>
        <time>2020-10-12T06:10:41Z</time>
      </trkpt>
      <trkpt lat="38.2048150" lon="-1.0471040">
        <ele>195.2</ele>
        <time>2020-10-12T06:10:42Z</time>
      </trkpt>
      <trkpt lat="38.2048380" lon="-1.0470390">
        <ele>195.4</ele>
        <time>2020-10-12T06:10:43Z</time>
      </trkpt>
      <trkpt lat="38.2048580" lon="-1.0469710">
        <ele>195.4</ele>
        <time>2020-10-12T06:10:44Z</time>
      </trkpt>
      <trkpt lat="38.2048770" lon="-1.0469050">
        <ele>195.2</ele>
        <time>2020-10-12T06:10:45Z</time>
      </trkpt>
      <trkpt lat="38.2048960" lon="-1.0468360">
        <ele>195.4</ele>
        <time>2020-10-12T06:10:46Z</time>
      </trkpt>
      <trkpt lat="38.2049070" lon="-1.0467640">
        <ele>195.4</ele>
        <time>2020-10-12T06:10:47Z</time>
      </trkpt>
      <trkpt lat="38.2049100" lon="-1.0466940">
        <ele>195.2</ele>
        <time>2020-10-12T06:10:48Z</time>
      </trkpt>
      <trkpt lat="38.2049140" lon="-1.0466290">
        <ele>195.4</ele>
        <time>2020-10-12T06:10:49Z</time>
      </trkpt>
      <trkpt lat="38.2049170" lon="-1.0465670">
        <ele>195.4</ele>
        <time>2020-10-12T06:10:50Z</time>
      </trkpt>
      <trkpt lat="38.2049200" lon="-1.0465110">
        <ele>195.4</ele>
        <time>2020-10-12T06:10:51Z</time>
      </trkpt>
      <trkpt lat="38.2049250" lon="-1.0464560">
        <ele>195.6</ele>
        <time>2020-10-12T06:10:52Z</time>
      </trkpt>
      <trkpt lat="38.2049280" lon="-1.0464030">
        <ele>195.8</ele>
        <time>2020-10-12T06:10:53Z</time>
      </trkpt>
      <trkpt lat="38.2049310" lon="-1.0463500">
        <ele>196.4</ele>
        <time>2020-10-12T06:10:54Z</time>
      </trkpt>
      <trkpt lat="38.2049280" lon="-1.0463000">
        <ele>197.0</ele>
        <time>2020-10-12T06:10:55Z</time>
      </trkpt>
      <trkpt lat="38.2049220" lon="-1.0462480">
        <ele>197.6</ele>
        <time>2020-10-12T06:10:56Z</time>
      </trkpt>
      <trkpt lat="38.2049180" lon="-1.0461980">
        <ele>198.2</ele>
        <time>2020-10-12T06:10:57Z</time>
      </trkpt>
      <trkpt lat="38.2049140" lon="-1.0461480">
        <ele>198.4</ele>
        <time>2020-10-12T06:10:58Z</time>
      </trkpt>
      <trkpt lat="38.2049090" lon="-1.0460990">
        <ele>198.6</ele>
        <time>2020-10-12T06:10:59Z</time>
      </trkpt>
      <trkpt lat="38.2049120" lon="-1.0460540">
        <ele>198.8</ele>
        <time>2020-10-12T06:11:00Z</time>
      </trkpt>
      <trkpt lat="38.2049180" lon="-1.0460120">
        <ele>199.0</ele>
        <time>2020-10-12T06:11:01Z</time>
      </trkpt>
      <trkpt lat="38.2049220" lon="-1.0459700">
        <ele>199.2</ele>
        <time>2020-10-12T06:11:02Z</time>
      </trkpt>
      <trkpt lat="38.2049240" lon="-1.0459280">
        <ele>199.6</ele>
        <time>2020-10-12T06:11:03Z</time>
      </trkpt>
      <trkpt lat="38.2049210" lon="-1.0458800">
        <ele>199.8</ele>
        <time>2020-10-12T06:11:04Z</time>
      </trkpt>
      <trkpt lat="38.2049200" lon="-1.0458330">
        <ele>200.2</ele>
        <time>2020-10-12T06:11:05Z</time>
      </trkpt>
      <trkpt lat="38.2049200" lon="-1.0457910">
        <ele>200.4</ele>
        <time>2020-10-12T06:11:06Z</time>
      </trkpt>
      <trkpt lat="38.2049140" lon="-1.0457490">
        <ele>200.4</ele>
        <time>2020-10-12T06:11:07Z</time>
      </trkpt>
      <trkpt lat="38.2049080" lon="-1.0457050">
        <ele>200.8</ele>
        <time>2020-10-12T06:11:08Z</time>
      </trkpt>
      <trkpt lat="38.2049050" lon="-1.0456620">
        <ele>201.2</ele>
        <time>2020-10-12T06:11:09Z</time>
      </trkpt>
      <trkpt lat="38.2049050" lon="-1.0456180">
        <ele>201.8</ele>
        <time>2020-10-12T06:11:10Z</time>
      </trkpt>
      <trkpt lat="38.2049010" lon="-1.0455740">
        <ele>202.2</ele>
        <time>2020-10-12T06:11:11Z</time>
      </trkpt>
      <trkpt lat="38.2048990" lon="-1.0455300">
        <ele>202.4</ele>
        <time>2020-10-12T06:11:12Z</time>
      </trkpt>
      <trkpt lat="38.2049030" lon="-1.0454880">
        <ele>202.6</ele>
        <time>2020-10-12T06:11:13Z</time>
      </trkpt>
      <trkpt lat="38.2049030" lon="-1.0454410">
        <ele>202.8</ele>
        <time>2020-10-12T06:11:14Z</time>
      </trkpt>
      <trkpt lat="38.2049020" lon="-1.0453970">
        <ele>203.0</ele>
        <time>2020-10-12T06:11:15Z</time>
      </trkpt>
      <trkpt lat="38.2049030" lon="-1.0453520">
        <ele>203.4</ele>
        <time>2020-10-12T06:11:16Z</time>
      </trkpt>
      <trkpt lat="38.2049040" lon="-1.0453040">
        <ele>203.6</ele>
        <time>2020-10-12T06:11:17Z</time>
      </trkpt>
      <trkpt lat="38.2049070" lon="-1.0452540">
        <ele>204.0</ele>
        <time>2020-10-12T06:11:18Z</time>
      </trkpt>
      <trkpt lat="38.2049110" lon="-1.0452130">
        <ele>204.4</ele>
        <time>2020-10-12T06:11:19Z</time>
      </trkpt>
      <trkpt lat="38.2049120" lon="-1.0451650">
        <ele>204.8</ele>
        <time>2020-10-12T06:11:20Z</time>
      </trkpt>
      <trkpt lat="38.2049190" lon="-1.0451170">
        <ele>205.2</ele>
        <time>2020-10-12T06:11:21Z</time>
      </trkpt>
      <trkpt lat="38.2049340" lon="-1.0450750">
        <ele>205.4</ele>
        <time>2020-10-12T06:11:22Z</time>
      </trkpt>
      <trkpt lat="38.2049480" lon="-1.0450340">
        <ele>205.8</ele>
        <time>2020-10-12T06:11:23Z</time>
      </trkpt>
      <trkpt lat="38.2049620" lon="-1.0449930">
        <ele>206.2</ele>
        <time>2020-10-12T06:11:24Z</time>
      </trkpt>
      <trkpt lat="38.2049740" lon="-1.0449550">
        <ele>206.4</ele>
        <time>2020-10-12T06:11:25Z</time>
      </trkpt>
      <trkpt lat="38.2049830" lon="-1.0449150">
        <ele>206.6</ele>
        <time>2020-10-12T06:11:26Z</time>
      </trkpt>
      <trkpt lat="38.2049910" lon="-1.0448750">
        <ele>207.0</ele>
        <time>2020-10-12T06:11:27Z</time>
      </trkpt>
      <trkpt lat="38.2050020" lon="-1.0448340">
        <ele>207.2</ele>
        <time>2020-10-12T06:11:28Z</time>
      </trkpt>
      <trkpt lat="38.2050160" lon="-1.0447880">
        <ele>207.4</ele>
        <time>2020-10-12T06:11:29Z</time>
      </trkpt>
      <trkpt lat="38.2050230" lon="-1.0447430">
        <ele>207.6</ele>
        <time>2020-10-12T06:11:30Z</time>
      </trkpt>
      <trkpt lat="38.2050290" lon="-1.0447030">
        <ele>207.8</ele>
        <time>2020-10-12T06:11:31Z</time>
      </trkpt>
      <trkpt lat="38.2050380" lon="-1.0446640">
        <ele>208.2</ele>
        <time>2020-10-12T06:11:32Z</time>
      </trkpt>
      <trkpt lat="38.2050520" lon="-1.0446280">
        <ele>208.8</ele>
        <time>2020-10-12T06:11:33Z</time>
      </trkpt>
      <trkpt lat="38.2050660" lon="-1.0445930">
        <ele>209.2</ele>
        <time>2020-10-12T06:11:34Z</time>
      </trkpt>
      <trkpt lat="38.2050800" lon="-1.0445640">
        <ele>209.6</ele>
        <time>2020-10-12T06:11:35Z</time>
      </trkpt>
      <trkpt lat="38.2050960" lon="-1.0445270">
        <ele>210.0</ele>
        <time>2020-10-12T06:11:36Z</time>
      </trkpt>
      <trkpt lat="38.2051210" lon="-1.0444910">
        <ele>210.4</ele>
        <time>2020-10-12T06:11:37Z</time>
      </trkpt>
      <trkpt lat="38.2051640" lon="-1.0444590">
        <ele>210.8</ele>
        <time>2020-10-12T06:11:38Z</time>
      </trkpt>
      <trkpt lat="38.2051860" lon="-1.0444250">
        <ele>211.0</ele>
        <time>2020-10-12T06:11:39Z</time>
      </trkpt>
      <trkpt lat="38.2052030" lon="-1.0443890">
        <ele>211.2</ele>
        <time>2020-10-12T06:11:40Z</time>
      </trkpt>
      <trkpt lat="38.2052200" lon="-1.0443530">
        <ele>211.4</ele>
        <time>2020-10-12T06:11:41Z</time>
      </trkpt>
      <trkpt lat="38.2052380" lon="-1.0443200">
        <ele>211.4</ele>
        <time>2020-10-12T06:11:42Z</time>
      </trkpt>
      <trkpt lat="38.2052600" lon="-1.0442950">
        <ele>211.8</ele>
        <time>2020-10-12T06:11:43Z</time>
      </trkpt>
      <trkpt lat="38.2052860" lon="-1.0442720">
        <ele>212.2</ele>
        <time>2020-10-12T06:11:44Z</time>
      </trkpt>
      <trkpt lat="38.2053200" lon="-1.0442550">
        <ele>212.8</ele>
        <time>2020-10-12T06:11:45Z</time>
      </trkpt>
      <trkpt lat="38.2053520" lon="-1.0442390">
        <ele>213.2</ele>
        <time>2020-10-12T06:11:46Z</time>
      </trkpt>
      <trkpt lat="38.2053790" lon="-1.0442190">
        <ele>213.8</ele>
        <time>2020-10-12T06:11:47Z</time>
      </trkpt>
      <trkpt lat="38.2054100" lon="-1.0442010">
        <ele>214.2</ele>
        <time>2020-10-12T06:11:48Z</time>
      </trkpt>
      <trkpt lat="38.2054410" lon="-1.0441800">
        <ele>214.8</ele>
        <time>2020-10-12T06:11:49Z</time>
      </trkpt>
      <trkpt lat="38.2054690" lon="-1.0441640">
        <ele>215.0</ele>
        <time>2020-10-12T06:11:50Z</time>
      </trkpt>
      <trkpt lat="38.2054960" lon="-1.0441550">
        <ele>215.0</ele>
        <time>2020-10-12T06:11:51Z</time>
      </trkpt>
      <trkpt lat="38.2055230" lon="-1.0441410">
        <ele>215.0</ele>
        <time>2020-10-12T06:11:52Z</time>
      </trkpt>
      <trkpt lat="38.2055520" lon="-1.0441200">
        <ele>215.0</ele>
        <time>2020-10-12T06:11:53Z</time>
      </trkpt>
      <trkpt lat="38.2055820" lon="-1.0441030">
        <ele>215.0</ele>
        <time>2020-10-12T06:11:54Z</time>
      </trkpt>
      <trkpt lat="38.2056040" lon="-1.0440880">
        <ele>215.0</ele>
        <time>2020-10-12T06:11:55Z</time>
      </trkpt>
      <trkpt lat="38.2056280" lon="-1.0440700">
        <ele>215.2</ele>
        <time>2020-10-12T06:11:56Z</time>
      </trkpt>
      <trkpt lat="38.2056580" lon="-1.0440510">
        <ele>215.6</ele>
        <time>2020-10-12T06:11:57Z</time>
      </trkpt>
      <trkpt lat="38.2056860" lon="-1.0440380">
        <ele>216.0</ele>
        <time>2020-10-12T06:11:58Z</time>
      </trkpt>
      <trkpt lat="38.2057080" lon="-1.0440210">
        <ele>216.4</ele>
        <time>2020-10-12T06:11:59Z</time>
      </trkpt>
      <trkpt lat="38.2057350" lon="-1.0439970">
        <ele>216.6</ele>
        <time>2020-10-12T06:12:00Z</time>
      </trkpt>
      <trkpt lat="38.2057650" lon="-1.0439730">
        <ele>216.6</ele>
        <time>2020-10-12T06:12:01Z</time>
      </trkpt>
      <trkpt lat="38.2057870" lon="-1.0439460">
        <ele>216.6</ele>
        <time>2020-10-12T06:12:02Z</time>
      </trkpt>
      <trkpt lat="38.2058070" lon="-1.0439150">
        <ele>216.8</ele>
        <time>2020-10-12T06:12:03Z</time>
      </trkpt>
      <trkpt lat="38.2058350" lon="-1.0438760">
        <ele>216.8</ele>
        <time>2020-10-12T06:12:04Z</time>
      </trkpt>
      <trkpt lat="38.2058640" lon="-1.0438380">
        <ele>217.0</ele>
        <time>2020-10-12T06:12:05Z</time>
      </trkpt>
      <trkpt lat="38.2058890" lon="-1.0438000">
        <ele>217.2</ele>
        <time>2020-10-12T06:12:06Z</time>
      </trkpt>
      <trkpt lat="38.2059150" lon="-1.0437660">
        <ele>217.4</ele>
        <time>2020-10-12T06:12:07Z</time>
      </trkpt>
      <trkpt lat="38.2059440" lon="-1.0437330">
        <ele>217.6</ele>
        <time>2020-10-12T06:12:08Z</time>
      </trkpt>
      <trkpt lat="38.2059760" lon="-1.0437080">
        <ele>217.8</ele>
        <time>2020-10-12T06:12:09Z</time>
      </trkpt>
      <trkpt lat="38.2060200" lon="-1.0437040">
        <ele>217.8</ele>
        <time>2020-10-12T06:12:10Z</time>
      </trkpt>
      <trkpt lat="38.2060630" lon="-1.0437090">
        <ele>217.6</ele>
        <time>2020-10-12T06:12:11Z</time>
      </trkpt>
      <trkpt lat="38.2061120" lon="-1.0437130">
        <ele>217.6</ele>
        <time>2020-10-12T06:12:12Z</time>
      </trkpt>
      <trkpt lat="38.2061690" lon="-1.0437120">
        <ele>217.4</ele>
        <time>2020-10-12T06:12:13Z</time>
      </trkpt>
      <trkpt lat="38.2062200" lon="-1.0437140">
        <ele>217.2</ele>
        <time>2020-10-12T06:12:14Z</time>
      </trkpt>
      <trkpt lat="38.2062640" lon="-1.0437160">
        <ele>217.2</ele>
        <time>2020-10-12T06:12:15Z</time>
      </trkpt>
      <trkpt lat="38.2063060" lon="-1.0437240">
        <ele>217.2</ele>
        <time>2020-10-12T06:12:16Z</time>
      </trkpt>
      <trkpt lat="38.2063720" lon="-1.0437320">
        <ele>217.4</ele>
        <time>2020-10-12T06:12:17Z</time>
      </trkpt>
      <trkpt lat="38.2064230" lon="-1.0437600">
        <ele>217.4</ele>
        <time>2020-10-12T06:12:18Z</time>
      </trkpt>
      <trkpt lat="38.2064660" lon="-1.0437910">
        <ele>217.6</ele>
        <time>2020-10-12T06:12:19Z</time>
      </trkpt>
      <trkpt lat="38.2065020" lon="-1.0438110">
        <ele>217.8</ele>
        <time>2020-10-12T06:12:20Z</time>
      </trkpt>
      <trkpt lat="38.2065540" lon="-1.0438230">
        <ele>218.0</ele>
        <time>2020-10-12T06:12:21Z</time>
      </trkpt>
      <trkpt lat="38.2065960" lon="-1.0438360">
        <ele>218.4</ele>
        <time>2020-10-12T06:12:22Z</time>
      </trkpt>
      <trkpt lat="38.2066350" lon="-1.0438500">
        <ele>218.8</ele>
        <time>2020-10-12T06:12:23Z</time>
      </trkpt>
      <trkpt lat="38.2066840" lon="-1.0438650">
        <ele>219.0</ele>
        <time>2020-10-12T06:12:24Z</time>
      </trkpt>
      <trkpt lat="38.2067140" lon="-1.0438920">
        <ele>219.2</ele>
        <time>2020-10-12T06:12:25Z</time>
      </trkpt>
      <trkpt lat="38.2067540" lon="-1.0438990">
        <ele>219.2</ele>
        <time>2020-10-12T06:12:26Z</time>
      </trkpt>
      <trkpt lat="38.2067900" lon="-1.0439070">
        <ele>219.4</ele>
        <time>2020-10-12T06:12:27Z</time>
      </trkpt>
      <trkpt lat="38.2068270" lon="-1.0439190">
        <ele>219.4</ele>
        <time>2020-10-12T06:12:28Z</time>
      </trkpt>
      <trkpt lat="38.2068810" lon="-1.0439220">
        <ele>219.4</ele>
        <time>2020-10-12T06:12:29Z</time>
      </trkpt>
      <trkpt lat="38.2069370" lon="-1.0439220">
        <ele>219.4</ele>
        <time>2020-10-12T06:12:30Z</time>
      </trkpt>
      <trkpt lat="38.2069750" lon="-1.0439280">
        <ele>219.4</ele>
        <time>2020-10-12T06:12:31Z</time>
      </trkpt>
      <trkpt lat="38.2070190" lon="-1.0439370">
        <ele>219.4</ele>
        <time>2020-10-12T06:12:32Z</time>
      </trkpt>
      <trkpt lat="38.2070670" lon="-1.0439430">
        <ele>219.6</ele>
        <time>2020-10-12T06:12:33Z</time>
      </trkpt>
      <trkpt lat="38.2071170" lon="-1.0439440">
        <ele>219.6</ele>
        <time>2020-10-12T06:12:34Z</time>
      </trkpt>
      <trkpt lat="38.2071590" lon="-1.0439620">
        <ele>219.8</ele>
        <time>2020-10-12T06:12:35Z</time>
      </trkpt>
      <trkpt lat="38.2072160" lon="-1.0439760">
        <ele>220.0</ele>
        <time>2020-10-12T06:12:36Z</time>
      </trkpt>
      <trkpt lat="38.2072740" lon="-1.0440030">
        <ele>219.8</ele>
        <time>2020-10-12T06:12:37Z</time>
      </trkpt>
      <trkpt lat="38.2073280" lon="-1.0440400">
        <ele>219.8</ele>
        <time>2020-10-12T06:12:38Z</time>
      </trkpt>
      <trkpt lat="38.2073790" lon="-1.0440850">
        <ele>219.4</ele>
        <time>2020-10-12T06:12:39Z</time>
      </trkpt>
      <trkpt lat="38.2074280" lon="-1.0441350">
        <ele>219.2</ele>
        <time>2020-10-12T06:12:40Z</time>
      </trkpt>
      <trkpt lat="38.2074810" lon="-1.0441900">
        <ele>219.2</ele>
        <time>2020-10-12T06:12:41Z</time>
      </trkpt>
      <trkpt lat="38.2075400" lon="-1.0442460">
        <ele>219.2</ele>
        <time>2020-10-12T06:12:42Z</time>
      </trkpt>
      <trkpt lat="38.2075950" lon="-1.0443070">
        <ele>219.0</ele>
        <time>2020-10-12T06:12:43Z</time>
      </trkpt>
      <trkpt lat="38.2076480" lon="-1.0443710">
        <ele>218.8</ele>
        <time>2020-10-12T06:12:44Z</time>
      </trkpt>
      <trkpt lat="38.2077040" lon="-1.0444380">
        <ele>218.8</ele>
        <time>2020-10-12T06:12:45Z</time>
      </trkpt>
      <trkpt lat="38.2077580" lon="-1.0445060">
        <ele>218.8</ele>
        <time>2020-10-12T06:12:46Z</time>
      </trkpt>
      <trkpt lat="38.2078070" lon="-1.0445750">
        <ele>218.4</ele>
        <time>2020-10-12T06:12:47Z</time>
      </trkpt>
      <trkpt lat="38.2078510" lon="-1.0446420">
        <ele>218.4</ele>
        <time>2020-10-12T06:12:48Z</time>
      </trkpt>
      <trkpt lat="38.2078910" lon="-1.0447030">
        <ele>218.2</ele>
        <time>2020-10-12T06:12:49Z</time>
      </trkpt>
      <trkpt lat="38.2079260" lon="-1.0447540">
        <ele>218.2</ele>
        <time>2020-10-12T06:12:50Z</time>
      </trkpt>
      <trkpt lat="38.2079590" lon="-1.0448020">
        <ele>218.4</ele>
        <time>2020-10-12T06:12:51Z</time>
      </trkpt>
      <trkpt lat="38.2079830" lon="-1.0448510">
        <ele>218.6</ele>
        <time>2020-10-12T06:12:52Z</time>
      </trkpt>
      <trkpt lat="38.2080090" lon="-1.0448950">
        <ele>218.8</ele>
        <time>2020-10-12T06:12:53Z</time>
      </trkpt>
      <trkpt lat="38.2080400" lon="-1.0449390">
        <ele>218.8</ele>
        <time>2020-10-12T06:12:54Z</time>
      </trkpt>
      <trkpt lat="38.2080690" lon="-1.0449870">
        <ele>219.0</ele>
        <time>2020-10-12T06:12:55Z</time>
      </trkpt>
      <trkpt lat="38.2081010" lon="-1.0450270">
        <ele>219.0</ele>
        <time>2020-10-12T06:12:56Z</time>
      </trkpt>
      <trkpt lat="38.2081310" lon="-1.0450690">
        <ele>219.2</ele>
        <time>2020-10-12T06:12:57Z</time>
      </trkpt>
      <trkpt lat="38.2081690" lon="-1.0451130">
        <ele>219.4</ele>
        <time>2020-10-12T06:12:58Z</time>
      </trkpt>
      <trkpt lat="38.2082010" lon="-1.0451530">
        <ele>219.8</ele>
        <time>2020-10-12T06:12:59Z</time>
      </trkpt>
      <trkpt lat="38.2082330" lon="-1.0451900">
        <ele>220.4</ele>
        <time>2020-10-12T06:13:00Z</time>
      </trkpt>
      <trkpt lat="38.2082860" lon="-1.0452260">
        <ele>220.8</ele>
        <time>2020-10-12T06:13:01Z</time>
      </trkpt>
      <trkpt lat="38.2083310" lon="-1.0452590">
        <ele>221.2</ele>
        <time>2020-10-12T06:13:02Z</time>
      </trkpt>
      <trkpt lat="38.2083610" lon="-1.0452910">
        <ele>221.6</ele>
        <time>2020-10-12T06:13:03Z</time>
      </trkpt>
      <trkpt lat="38.2083810" lon="-1.0453220">
        <ele>222.2</ele>
        <time>2020-10-12T06:13:04Z</time>
      </trkpt>
      <trkpt lat="38.2084050" lon="-1.0453620">
        <ele>222.6</ele>
        <time>2020-10-12T06:13:05Z</time>
      </trkpt>
      <trkpt lat="38.2084280" lon="-1.0454020">
        <ele>222.8</ele>
        <time>2020-10-12T06:13:06Z</time>
      </trkpt>
      <trkpt lat="38.2084510" lon="-1.0454440">
        <ele>223.0</ele>
        <time>2020-10-12T06:13:07Z</time>
      </trkpt>
      <trkpt lat="38.2084710" lon="-1.0454850">
        <ele>223.2</ele>
        <time>2020-10-12T06:13:08Z</time>
      </trkpt>
      <trkpt lat="38.2084960" lon="-1.0455290">
        <ele>223.2</ele>
        <time>2020-10-12T06:13:09Z</time>
      </trkpt>
      <trkpt lat="38.2085170" lon="-1.0455730">
        <ele>223.2</ele>
        <time>2020-10-12T06:13:10Z</time>
      </trkpt>
      <trkpt lat="38.2085380" lon="-1.0456220">
        <ele>223.2</ele>
        <time>2020-10-12T06:13:11Z</time>
      </trkpt>
      <trkpt lat="38.2085610" lon="-1.0456710">
        <ele>223.4</ele>
        <time>2020-10-12T06:13:12Z</time>
      </trkpt>
      <trkpt lat="38.2085820" lon="-1.0457250">
        <ele>223.4</ele>
        <time>2020-10-12T06:13:13Z</time>
      </trkpt>
      <trkpt lat="38.2086050" lon="-1.0457790">
        <ele>223.6</ele>
        <time>2020-10-12T06:13:14Z</time>
      </trkpt>
      <trkpt lat="38.2086270" lon="-1.0458350">
        <ele>223.6</ele>
        <time>2020-10-12T06:13:15Z</time>
      </trkpt>
      <trkpt lat="38.2086560" lon="-1.0458900">
        <ele>223.8</ele>
        <time>2020-10-12T06:13:16Z</time>
      </trkpt>
      <trkpt lat="38.2086930" lon="-1.0459450">
        <ele>223.8</ele>
        <time>2020-10-12T06:13:17Z</time>
      </trkpt>
      <trkpt lat="38.2087350" lon="-1.0459880">
        <ele>224.0</ele>
        <time>2020-10-12T06:13:18Z</time>
      </trkpt>
      <trkpt lat="38.2087810" lon="-1.0460190">
        <ele>224.2</ele>
        <time>2020-10-12T06:13:19Z</time>
      </trkpt>
      <trkpt lat="38.2088320" lon="-1.0460370">
        <ele>224.4</ele>
        <time>2020-10-12T06:13:20Z</time>
      </trkpt>
      <trkpt lat="38.2088820" lon="-1.0460370">
        <ele>224.2</ele>
        <time>2020-10-12T06:13:21Z</time>
      </trkpt>
      <trkpt lat="38.2089360" lon="-1.0460240">
        <ele>224.2</ele>
        <time>2020-10-12T06:13:22Z</time>
      </trkpt>
      <trkpt lat="38.2089940" lon="-1.0459950">
        <ele>224.0</ele>
        <time>2020-10-12T06:13:23Z</time>
      </trkpt>
      <trkpt lat="38.2090540" lon="-1.0459550">
        <ele>224.0</ele>
        <time>2020-10-12T06:13:24Z</time>
      </trkpt>
      <trkpt lat="38.2091120" lon="-1.0459070">
        <ele>223.8</ele>
        <time>2020-10-12T06:13:25Z</time>
      </trkpt>
      <trkpt lat="38.2091690" lon="-1.0458500">
        <ele>223.4</ele>
        <time>2020-10-12T06:13:26Z</time>
      </trkpt>
      <trkpt lat="38.2092250" lon="-1.0457880">
        <ele>222.8</ele>
        <time>2020-10-12T06:13:27Z</time>
      </trkpt>
      <trkpt lat="38.2092820" lon="-1.0457250">
        <ele>222.4</ele>
        <time>2020-10-12T06:13:28Z</time>
      </trkpt>
      <trkpt lat="38.2093430" lon="-1.0456690">
        <ele>221.8</ele>
        <time>2020-10-12T06:13:29Z</time>
      </trkpt>
      <trkpt lat="38.2094100" lon="-1.0456280">
        <ele>221.0</ele>
        <time>2020-10-12T06:13:30Z</time>
      </trkpt>
      <trkpt lat="38.2094840" lon="-1.0456080">
        <ele>220.2</ele>
        <time>2020-10-12T06:13:31Z</time>
      </trkpt>
      <trkpt lat="38.2095670" lon="-1.0456230">
        <ele>219.6</ele>
        <time>2020-10-12T06:13:32Z</time>
      </trkpt>
      <trkpt lat="38.2096500" lon="-1.0456730">
        <ele>218.8</ele>
        <time>2020-10-12T06:13:33Z</time>
      </trkpt>
      <trkpt lat="38.2097210" lon="-1.0457420">
        <ele>218.0</ele>
        <time>2020-10-12T06:13:34Z</time>
      </trkpt>
      <trkpt lat="38.2097880" lon="-1.0458230">
        <ele>217.6</ele>
        <time>2020-10-12T06:13:35Z</time>
      </trkpt>
      <trkpt lat="38.2098490" lon="-1.0459090">
        <ele>217.0</ele>
        <time>2020-10-12T06:13:36Z</time>
      </trkpt>
      <trkpt lat="38.2099090" lon="-1.0459920">
        <ele>216.8</ele>
        <time>2020-10-12T06:13:37Z</time>
      </trkpt>
      <trkpt lat="38.2099650" lon="-1.0460620">
        <ele>216.6</ele>
        <time>2020-10-12T06:13:38Z</time>
      </trkpt>
      <trkpt lat="38.2100250" lon="-1.0461250">
        <ele>216.6</ele>
        <time>2020-10-12T06:13:39Z</time>
      </trkpt>
      <trkpt lat="38.2100850" lon="-1.0461800">
        <ele>216.6</ele>
        <time>2020-10-12T06:13:40Z</time>
      </trkpt>
      <trkpt lat="38.2101450" lon="-1.0462280">
        <ele>216.4</ele>
        <time>2020-10-12T06:13:41Z</time>
      </trkpt>
      <trkpt lat="38.2102080" lon="-1.0462730">
        <ele>216.4</ele>
        <time>2020-10-12T06:13:42Z</time>
      </trkpt>
      <trkpt lat="38.2102730" lon="-1.0463120">
        <ele>216.0</ele>
        <time>2020-10-12T06:13:43Z</time>
      </trkpt>
      <trkpt lat="38.2103370" lon="-1.0463520">
        <ele>216.0</ele>
        <time>2020-10-12T06:13:44Z</time>
      </trkpt>
      <trkpt lat="38.2104030" lon="-1.0463860">
        <ele>215.8</ele>
        <time>2020-10-12T06:13:45Z</time>
      </trkpt>
      <trkpt lat="38.2104730" lon="-1.0464190">
        <ele>215.6</ele>
        <time>2020-10-12T06:13:46Z</time>
      </trkpt>
      <trkpt lat="38.2105460" lon="-1.0464540">
        <ele>215.6</ele>
        <time>2020-10-12T06:13:47Z</time>
      </trkpt>
      <trkpt lat="38.2106190" lon="-1.0464870">
        <ele>215.4</ele>
        <time>2020-10-12T06:13:48Z</time>
      </trkpt>
      <trkpt lat="38.2106900" lon="-1.0465220">
        <ele>215.4</ele>
        <time>2020-10-12T06:13:49Z</time>
      </trkpt>
      <trkpt lat="38.2107640" lon="-1.0465540">
        <ele>215.4</ele>
        <time>2020-10-12T06:13:50Z</time>
      </trkpt>
      <trkpt lat="38.2108380" lon="-1.0465820">
        <ele>215.2</ele>
        <time>2020-10-12T06:13:51Z</time>
      </trkpt>
      <trkpt lat="38.2109140" lon="-1.0466100">
        <ele>215.0</ele>
        <time>2020-10-12T06:13:52Z</time>
      </trkpt>
      <trkpt lat="38.2109910" lon="-1.0466400">
        <ele>214.6</ele>
        <time>2020-10-12T06:13:53Z</time>
      </trkpt>
      <trkpt lat="38.2110650" lon="-1.0466680">
        <ele>214.4</ele>
        <time>2020-10-12T06:13:54Z</time>
      </trkpt>
      <trkpt lat="38.2111410" lon="-1.0466930">
        <ele>214.0</ele>
        <time>2020-10-12T06:13:55Z</time>
      </trkpt>
      <trkpt lat="38.2112160" lon="-1.0467120">
        <ele>213.8</ele>
        <time>2020-10-12T06:13:56Z</time>
      </trkpt>
      <trkpt lat="38.2112920" lon="-1.0467270">
        <ele>213.4</ele>
        <time>2020-10-12T06:13:57Z</time>
      </trkpt>
      <trkpt lat="38.2113690" lon="-1.0467340">
        <ele>213.4</ele>
        <time>2020-10-12T06:13:58Z</time>
      </trkpt>
      <trkpt lat="38.2114480" lon="-1.0467320">
        <ele>213.0</ele>
        <time>2020-10-12T06:13:59Z</time>
      </trkpt>
      <trkpt lat="38.2115260" lon="-1.0467250">
        <ele>212.8</ele>
        <time>2020-10-12T06:14:00Z</time>
      </trkpt>
      <trkpt lat="38.2116020" lon="-1.0467170">
        <ele>212.4</ele>
        <time>2020-10-12T06:14:01Z</time>
      </trkpt>
      <trkpt lat="38.2116740" lon="-1.0467070">
        <ele>212.0</ele>
        <time>2020-10-12T06:14:02Z</time>
      </trkpt>
      <trkpt lat="38.2117470" lon="-1.0466980">
        <ele>212.0</ele>
        <time>2020-10-12T06:14:03Z</time>
      </trkpt>
      <trkpt lat="38.2118190" lon="-1.0466870">
        <ele>212.0</ele>
        <time>2020-10-12T06:14:04Z</time>
      </trkpt>
      <trkpt lat="38.2118920" lon="-1.0466750">
        <ele>212.2</ele>
        <time>2020-10-12T06:14:05Z</time>
      </trkpt>
      <trkpt lat="38.2119650" lon="-1.0466620">
        <ele>212.2</ele>
        <time>2020-10-12T06:14:06Z</time>
      </trkpt>
      <trkpt lat="38.2120370" lon="-1.0466510">
        <ele>212.6</ele>
        <time>2020-10-12T06:14:07Z</time>
      </trkpt>
      <trkpt lat="38.2121090" lon="-1.0466360">
        <ele>212.6</ele>
        <time>2020-10-12T06:14:08Z</time>
      </trkpt>
      <trkpt lat="38.2121810" lon="-1.0466220">
        <ele>212.4</ele>
        <time>2020-10-12T06:14:09Z</time>
      </trkpt>
      <trkpt lat="38.2122560" lon="-1.0466090">
        <ele>212.4</ele>
        <time>2020-10-12T06:14:10Z</time>
      </trkpt>
      <trkpt lat="38.2123350" lon="-1.0465990">
        <ele>212.2</ele>
        <time>2020-10-12T06:14:11Z</time>
      </trkpt>
      <trkpt lat="38.2124170" lon="-1.0465900">
        <ele>211.6</ele>
        <time>2020-10-12T06:14:12Z</time>
      </trkpt>
      <trkpt lat="38.2124940" lon="-1.0465800">
        <ele>211.2</ele>
        <time>2020-10-12T06:14:13Z</time>
      </trkpt>
      <trkpt lat="38.2125720" lon="-1.0465700">
        <ele>210.8</ele>
        <time>2020-10-12T06:14:14Z</time>
      </trkpt>
      <trkpt lat="38.2126490" lon="-1.0465620">
        <ele>210.6</ele>
        <time>2020-10-12T06:14:15Z</time>
      </trkpt>
      <trkpt lat="38.2127260" lon="-1.0465590">
        <ele>210.4</ele>
        <time>2020-10-12T06:14:16Z</time>
      </trkpt>
      <trkpt lat="38.2128080" lon="-1.0465600">
        <ele>210.4</ele>
        <time>2020-10-12T06:14:17Z</time>
      </trkpt>
      <trkpt lat="38.2128870" lon="-1.0465630">
        <ele>210.2</ele>
        <time>2020-10-12T06:14:18Z</time>
      </trkpt>
      <trkpt lat="38.2129670" lon="-1.0465700">
        <ele>209.8</ele>
        <time>2020-10-12T06:14:19Z</time>
      </trkpt>
      <trkpt lat="38.2130480" lon="-1.0465790">
        <ele>209.8</ele>
        <time>2020-10-12T06:14:20Z</time>
      </trkpt>
      <trkpt lat="38.2131280" lon="-1.0465890">
        <ele>209.6</ele>
        <time>2020-10-12T06:14:21Z</time>
      </trkpt>
      <trkpt lat="38.2132070" lon="-1.0466010">
        <ele>209.6</ele>
        <time>2020-10-12T06:14:22Z</time>
      </trkpt>
      <trkpt lat="38.2132850" lon="-1.0466100">
        <ele>209.4</ele>
        <time>2020-10-12T06:14:23Z</time>
      </trkpt>
      <trkpt lat="38.2133630" lon="-1.0466190">
        <ele>209.4</ele>
        <time>2020-10-12T06:14:24Z</time>
      </trkpt>
      <trkpt lat="38.2134390" lon="-1.0466270">
        <ele>209.6</ele>
        <time>2020-10-12T06:14:25Z</time>
      </trkpt>
      <trkpt lat="38.2135130" lon="-1.0466280">
        <ele>210.0</ele>
        <time>2020-10-12T06:14:26Z</time>
      </trkpt>
      <trkpt lat="38.2135880" lon="-1.0466220">
        <ele>210.0</ele>
        <time>2020-10-12T06:14:27Z</time>
      </trkpt>
      <trkpt lat="38.2136660" lon="-1.0466040">
        <ele>209.6</ele>
        <time>2020-10-12T06:14:28Z</time>
      </trkpt>
      <trkpt lat="38.2137350" lon="-1.0465590">
        <ele>209.0</ele>
        <time>2020-10-12T06:14:29Z</time>
      </trkpt>
      <trkpt lat="38.2137920" lon="-1.0464900">
        <ele>208.4</ele>
        <time>2020-10-12T06:14:30Z</time>
      </trkpt>
      <trkpt lat="38.2138350" lon="-1.0464080">
        <ele>207.8</ele>
        <time>2020-10-12T06:14:31Z</time>
      </trkpt>
      <trkpt lat="38.2138750" lon="-1.0463280">
        <ele>207.2</ele>
        <time>2020-10-12T06:14:32Z</time>
      </trkpt>
      <trkpt lat="38.2139230" lon="-1.0462550">
        <ele>206.8</ele>
        <time>2020-10-12T06:14:33Z</time>
      </trkpt>
      <trkpt lat="38.2139840" lon="-1.0461940">
        <ele>206.2</ele>
        <time>2020-10-12T06:14:34Z</time>
      </trkpt>
      <trkpt lat="38.2140550" lon="-1.0461430">
        <ele>205.8</ele>
        <time>2020-10-12T06:14:35Z</time>
      </trkpt>
      <trkpt lat="38.2141320" lon="-1.0461020">
        <ele>205.6</ele>
        <time>2020-10-12T06:14:36Z</time>
      </trkpt>
      <trkpt lat="38.2142170" lon="-1.0460750">
        <ele>205.2</ele>
        <time>2020-10-12T06:14:37Z</time>
      </trkpt>
      <trkpt lat="38.2143000" lon="-1.0460620">
        <ele>204.8</ele>
        <time>2020-10-12T06:14:38Z</time>
      </trkpt>
      <trkpt lat="38.2143830" lon="-1.0460580">
        <ele>204.6</ele>
        <time>2020-10-12T06:14:39Z</time>
      </trkpt>
      <trkpt lat="38.2144610" lon="-1.0460520">
        <ele>204.2</ele>
        <time>2020-10-12T06:14:40Z</time>
      </trkpt>
      <trkpt lat="38.2145300" lon="-1.0460310">
        <ele>204.0</ele>
        <time>2020-10-12T06:14:41Z</time>
      </trkpt>
      <trkpt lat="38.2145880" lon="-1.0459860">
        <ele>203.8</ele>
        <time>2020-10-12T06:14:42Z</time>
      </trkpt>
      <trkpt lat="38.2146310" lon="-1.0459170">
        <ele>203.4</ele>
        <time>2020-10-12T06:14:43Z</time>
      </trkpt>
      <trkpt lat="38.2146580" lon="-1.0458320">
        <ele>202.8</ele>
        <time>2020-10-12T06:14:44Z</time>
      </trkpt>
      <trkpt lat="38.2146830" lon="-1.0457470">
        <ele>202.4</ele>
        <time>2020-10-12T06:14:45Z</time>
      </trkpt>
      <trkpt lat="38.2147160" lon="-1.0456650">
        <ele>201.8</ele>
        <time>2020-10-12T06:14:46Z</time>
      </trkpt>
      <trkpt lat="38.2147610" lon="-1.0455870">
        <ele>201.4</ele>
        <time>2020-10-12T06:14:47Z</time>
      </trkpt>
      <trkpt lat="38.2148170" lon="-1.0455350">
        <ele>200.8</ele>
        <time>2020-10-12T06:14:48Z</time>
      </trkpt>
      <trkpt lat="38.2148910" lon="-1.0455270">
        <ele>200.6</ele>
        <time>2020-10-12T06:14:49Z</time>
      </trkpt>
      <trkpt lat="38.2149660" lon="-1.0455530">
        <ele>200.4</ele>
        <time>2020-10-12T06:14:50Z</time>
      </trkpt>
      <trkpt lat="38.2150280" lon="-1.0456030">
        <ele>200.6</ele>
        <time>2020-10-12T06:14:51Z</time>
      </trkpt>
      <trkpt lat="38.2150810" lon="-1.0456750">
        <ele>200.4</ele>
        <time>2020-10-12T06:14:52Z</time>
      </trkpt>
      <trkpt lat="38.2151300" lon="-1.0457680">
        <ele>200.4</ele>
        <time>2020-10-12T06:14:53Z</time>
      </trkpt>
      <trkpt lat="38.2151730" lon="-1.0458650">
        <ele>200.4</ele>
        <time>2020-10-12T06:14:54Z</time>
      </trkpt>
      <trkpt lat="38.2152070" lon="-1.0459630">
        <ele>200.6</ele>
        <time>2020-10-12T06:14:55Z</time>
      </trkpt>
      <trkpt lat="38.2152360" lon="-1.0460620">
        <ele>200.6</ele>
        <time>2020-10-12T06:14:56Z</time>
      </trkpt>
      <trkpt lat="38.2152670" lon="-1.0461640">
        <ele>200.4</ele>
        <time>2020-10-12T06:14:57Z</time>
      </trkpt>
      <trkpt lat="38.2152950" lon="-1.0462680">
        <ele>200.4</ele>
        <time>2020-10-12T06:14:58Z</time>
      </trkpt>
      <trkpt lat="38.2153050" lon="-1.0463710">
        <ele>200.2</ele>
        <time>2020-10-12T06:14:59Z</time>
      </trkpt>
      <trkpt lat="38.2153020" lon="-1.0464840">
        <ele>200.4</ele>
        <time>2020-10-12T06:15:00Z</time>
      </trkpt>
      <trkpt lat="38.2152830" lon="-1.0465910">
        <ele>200.8</ele>
        <time>2020-10-12T06:15:01Z</time>
      </trkpt>
      <trkpt lat="38.2152580" lon="-1.0466910">
        <ele>200.8</ele>
        <time>2020-10-12T06:15:02Z</time>
      </trkpt>
      <trkpt lat="38.2152340" lon="-1.0467830">
        <ele>201.2</ele>
        <time>2020-10-12T06:15:03Z</time>
      </trkpt>
      <trkpt lat="38.2152160" lon="-1.0468710">
        <ele>201.4</ele>
        <time>2020-10-12T06:15:04Z</time>
      </trkpt>
      <trkpt lat="38.2152050" lon="-1.0469540">
        <ele>201.8</ele>
        <time>2020-10-12T06:15:05Z</time>
      </trkpt>
      <trkpt lat="38.2152000" lon="-1.0470260">
        <ele>202.2</ele>
        <time>2020-10-12T06:15:06Z</time>
      </trkpt>
      <trkpt lat="38.2151970" lon="-1.0470970">
        <ele>202.6</ele>
        <time>2020-10-12T06:15:07Z</time>
      </trkpt>
      <trkpt lat="38.2151920" lon="-1.0471700">
        <ele>203.4</ele>
        <time>2020-10-12T06:15:08Z</time>
      </trkpt>
      <trkpt lat="38.2151900" lon="-1.0472460">
        <ele>204.0</ele>
        <time>2020-10-12T06:15:09Z</time>
      </trkpt>
      <trkpt lat="38.2151920" lon="-1.0473150">
        <ele>204.4</ele>
        <time>2020-10-12T06:15:10Z</time>
      </trkpt>
      <trkpt lat="38.2151920" lon="-1.0473770">
        <ele>204.8</ele>
        <time>2020-10-12T06:15:11Z</time>
      </trkpt>
      <trkpt lat="38.2151910" lon="-1.0474360">
        <ele>205.4</ele>
        <time>2020-10-12T06:15:12Z</time>
      </trkpt>
      <trkpt lat="38.2151940" lon="-1.0474990">
        <ele>206.0</ele>
        <time>2020-10-12T06:15:13Z</time>
      </trkpt>
      <trkpt lat="38.2152060" lon="-1.0475580">
        <ele>206.4</ele>
        <time>2020-10-12T06:15:14Z</time>
      </trkpt>
      <trkpt lat="38.2152280" lon="-1.0476130">
        <ele>206.8</ele>
        <time>2020-10-12T06:15:15Z</time>
      </trkpt>
      <trkpt lat="38.2152570" lon="-1.0476650">
        <ele>207.2</ele>
        <time>2020-10-12T06:15:16Z</time>
      </trkpt>
      <trkpt lat="38.2152980" lon="-1.0477110">
        <ele>207.6</ele>
        <time>2020-10-12T06:15:17Z</time>
      </trkpt>
      <trkpt lat="38.2153410" lon="-1.0477510">
        <ele>208.0</ele>
        <time>2020-10-12T06:15:18Z</time>
      </trkpt>
      <trkpt lat="38.2153890" lon="-1.0477860">
        <ele>208.4</ele>
        <time>2020-10-12T06:15:19Z</time>
      </trkpt>
      <trkpt lat="38.2154370" lon="-1.0478170">
        <ele>208.6</ele>
        <time>2020-10-12T06:15:20Z</time>
      </trkpt>
      <trkpt lat="38.2154920" lon="-1.0478450">
        <ele>208.8</ele>
        <time>2020-10-12T06:15:21Z</time>
      </trkpt>
      <trkpt lat="38.2155510" lon="-1.0478620">
        <ele>208.8</ele>
        <time>2020-10-12T06:15:22Z</time>
      </trkpt>
      <trkpt lat="38.2156100" lon="-1.0478760">
        <ele>208.6</ele>
        <time>2020-10-12T06:15:23Z</time>
      </trkpt>
      <trkpt lat="38.2156770" lon="-1.0478860">
        <ele>208.2</ele>
        <time>2020-10-12T06:15:24Z</time>
      </trkpt>
      <trkpt lat="38.2157490" lon="-1.0478920">
        <ele>207.8</ele>
        <time>2020-10-12T06:15:25Z</time>
      </trkpt>
      <trkpt lat="38.2158260" lon="-1.0478940">
        <ele>207.4</ele>
        <time>2020-10-12T06:15:26Z</time>
      </trkpt>
      <trkpt lat="38.2159020" lon="-1.0478890">
        <ele>207.2</ele>
        <time>2020-10-12T06:15:27Z</time>
      </trkpt>
      <trkpt lat="38.2159790" lon="-1.0478840">
        <ele>207.0</ele>
        <time>2020-10-12T06:15:28Z</time>
      </trkpt>
      <trkpt lat="38.2160540" lon="-1.0478760">
        <ele>207.0</ele>
        <time>2020-10-12T06:15:29Z</time>
      </trkpt>
      <trkpt lat="38.2161310" lon="-1.0478690">
        <ele>206.8</ele>
        <time>2020-10-12T06:15:30Z</time>
      </trkpt>
      <trkpt lat="38.2162080" lon="-1.0478630">
        <ele>206.8</ele>
        <time>2020-10-12T06:15:31Z</time>
      </trkpt>
      <trkpt lat="38.2162830" lon="-1.0478600">
        <ele>206.8</ele>
        <time>2020-10-12T06:15:32Z</time>
      </trkpt>
      <trkpt lat="38.2163560" lon="-1.0478590">
        <ele>206.8</ele>
        <time>2020-10-12T06:15:33Z</time>
      </trkpt>
      <trkpt lat="38.2164340" lon="-1.0478670">
        <ele>206.8</ele>
        <time>2020-10-12T06:15:34Z</time>
      </trkpt>
      <trkpt lat="38.2165100" lon="-1.0478830">
        <ele>206.8</ele>
        <time>2020-10-12T06:15:35Z</time>
      </trkpt>
      <trkpt lat="38.2165820" lon="-1.0479110">
        <ele>206.8</ele>
        <time>2020-10-12T06:15:36Z</time>
      </trkpt>
      <trkpt lat="38.2166460" lon="-1.0479510">
        <ele>206.8</ele>
        <time>2020-10-12T06:15:37Z</time>
      </trkpt>
      <trkpt lat="38.2167050" lon="-1.0480020">
        <ele>206.8</ele>
        <time>2020-10-12T06:15:38Z</time>
      </trkpt>
      <trkpt lat="38.2167600" lon="-1.0480580">
        <ele>207.0</ele>
        <time>2020-10-12T06:15:39Z</time>
      </trkpt>
      <trkpt lat="38.2168130" lon="-1.0481180">
        <ele>207.2</ele>
        <time>2020-10-12T06:15:40Z</time>
      </trkpt>
      <trkpt lat="38.2168630" lon="-1.0481790">
        <ele>207.4</ele>
        <time>2020-10-12T06:15:41Z</time>
      </trkpt>
      <trkpt lat="38.2169140" lon="-1.0482370">
        <ele>207.6</ele>
        <time>2020-10-12T06:15:42Z</time>
      </trkpt>
      <trkpt lat="38.2169630" lon="-1.0482950">
        <ele>207.8</ele>
        <time>2020-10-12T06:15:43Z</time>
      </trkpt>
      <trkpt lat="38.2170160" lon="-1.0483510">
        <ele>208.0</ele>
        <time>2020-10-12T06:15:44Z</time>
      </trkpt>
      <trkpt lat="38.2170720" lon="-1.0484070">
        <ele>208.0</ele>
        <time>2020-10-12T06:15:45Z</time>
      </trkpt>
      <trkpt lat="38.2171320" lon="-1.0484600">
        <ele>208.0</ele>
        <time>2020-10-12T06:15:46Z</time>
      </trkpt>
      <trkpt lat="38.2171950" lon="-1.0485070">
        <ele>207.8</ele>
        <time>2020-10-12T06:15:47Z</time>
      </trkpt>
      <trkpt lat="38.2172580" lon="-1.0485490">
        <ele>207.8</ele>
        <time>2020-10-12T06:15:48Z</time>
      </trkpt>
      <trkpt lat="38.2173230" lon="-1.0485860">
        <ele>207.6</ele>
        <time>2020-10-12T06:15:49Z</time>
      </trkpt>
      <trkpt lat="38.2173890" lon="-1.0486210">
        <ele>207.6</ele>
        <time>2020-10-12T06:15:50Z</time>
      </trkpt>
      <trkpt lat="38.2174530" lon="-1.0486530">
        <ele>207.4</ele>
        <time>2020-10-12T06:15:51Z</time>
      </trkpt>
      <trkpt lat="38.2175140" lon="-1.0486860">
        <ele>207.2</ele>
        <time>2020-10-12T06:15:52Z</time>
      </trkpt>
      <trkpt lat="38.2175720" lon="-1.0487200">
        <ele>207.2</ele>
        <time>2020-10-12T06:15:53Z</time>
      </trkpt>
      <trkpt lat="38.2176250" lon="-1.0487600">
        <ele>207.4</ele>
        <time>2020-10-12T06:15:54Z</time>
      </trkpt>
      <trkpt lat="38.2176730" lon="-1.0488020">
        <ele>207.6</ele>
        <time>2020-10-12T06:15:55Z</time>
      </trkpt>
      <trkpt lat="38.2177210" lon="-1.0488480">
        <ele>208.0</ele>
        <time>2020-10-12T06:15:56Z</time>
      </trkpt>
      <trkpt lat="38.2177660" lon="-1.0488960">
        <ele>208.2</ele>
        <time>2020-10-12T06:15:57Z</time>
      </trkpt>
      <trkpt lat="38.2178100" lon="-1.0489400">
        <ele>208.4</ele>
        <time>2020-10-12T06:15:58Z</time>
      </trkpt>
      <trkpt lat="38.2178550" lon="-1.0489820">
        <ele>208.6</ele>
        <time>2020-10-12T06:15:59Z</time>
      </trkpt>
      <trkpt lat="38.2179010" lon="-1.0490210">
        <ele>208.8</ele>
        <time>2020-10-12T06:16:00Z</time>
      </trkpt>
      <trkpt lat="38.2179490" lon="-1.0490560">
        <ele>208.8</ele>
        <time>2020-10-12T06:16:01Z</time>
      </trkpt>
      <trkpt lat="38.2179960" lon="-1.0490870">
        <ele>209.0</ele>
        <time>2020-10-12T06:16:02Z</time>
      </trkpt>
      <trkpt lat="38.2180480" lon="-1.0491140">
        <ele>209.2</ele>
        <time>2020-10-12T06:16:03Z</time>
      </trkpt>
      <trkpt lat="38.2181010" lon="-1.0491360">
        <ele>209.4</ele>
        <time>2020-10-12T06:16:04Z</time>
      </trkpt>
      <trkpt lat="38.2181520" lon="-1.0491560">
        <ele>209.8</ele>
        <time>2020-10-12T06:16:05Z</time>
      </trkpt>
      <trkpt lat="38.2182070" lon="-1.0491780">
        <ele>209.8</ele>
        <time>2020-10-12T06:16:06Z</time>
      </trkpt>
      <trkpt lat="38.2182600" lon="-1.0491990">
        <ele>210.2</ele>
        <time>2020-10-12T06:16:07Z</time>
      </trkpt>
      <trkpt lat="38.2183160" lon="-1.0492220">
        <ele>210.4</ele>
        <time>2020-10-12T06:16:08Z</time>
      </trkpt>
      <trkpt lat="38.2183720" lon="-1.0492470">
        <ele>210.4</ele>
        <time>2020-10-12T06:16:09Z</time>
      </trkpt>
      <trkpt lat="38.2184330" lon="-1.0492730">
        <ele>210.6</ele>
        <time>2020-10-12T06:16:10Z</time>
      </trkpt>
      <trkpt lat="38.2184970" lon="-1.0493040">
        <ele>210.6</ele>
        <time>2020-10-12T06:16:11Z</time>
      </trkpt>
      <trkpt lat="38.2185630" lon="-1.0493360">
        <ele>210.4</ele>
        <time>2020-10-12T06:16:12Z</time>
      </trkpt>
      <trkpt lat="38.2186270" lon="-1.0493680">
        <ele>210.2</ele>
        <time>2020-10-12T06:16:13Z</time>
      </trkpt>
      <trkpt lat="38.2186930" lon="-1.0493990">
        <ele>209.8</ele>
        <time>2020-10-12T06:16:14Z</time>
      </trkpt>
      <trkpt lat="38.2187600" lon="-1.0494310">
        <ele>209.4</ele>
        <time>2020-10-12T06:16:15Z</time>
      </trkpt>
      <trkpt lat="38.2188260" lon="-1.0494630">
        <ele>209.0</ele>
        <time>2020-10-12T06:16:16Z</time>
      </trkpt>
      <trkpt lat="38.2188940" lon="-1.0494950">
        <ele>208.6</ele>
        <time>2020-10-12T06:16:17Z</time>
      </trkpt>
      <trkpt lat="38.2189620" lon="-1.0495300">
        <ele>208.2</ele>
        <time>2020-10-12T06:16:18Z</time>
      </trkpt>
      <trkpt lat="38.2190290" lon="-1.0495640">
        <ele>207.8</ele>
        <time>2020-10-12T06:16:19Z</time>
      </trkpt>
      <trkpt lat="38.2190960" lon="-1.0495990">
        <ele>207.2</ele>
        <time>2020-10-12T06:16:20Z</time>
      </trkpt>
      <trkpt lat="38.2191660" lon="-1.0496370">
        <ele>206.8</ele>
        <time>2020-10-12T06:16:21Z</time>
      </trkpt>
      <trkpt lat="38.2192360" lon="-1.0496840">
        <ele>206.6</ele>
        <time>2020-10-12T06:16:22Z</time>
      </trkpt>
      <trkpt lat="38.2192970" lon="-1.0497410">
        <ele>206.2</ele>
        <time>2020-10-12T06:16:23Z</time>
      </trkpt>
      <trkpt lat="38.2193450" lon="-1.0498100">
        <ele>206.0</ele>
        <time>2020-10-12T06:16:24Z</time>
      </trkpt>
      <trkpt lat="38.2193770" lon="-1.0498980">
        <ele>206.0</ele>
        <time>2020-10-12T06:16:25Z</time>
      </trkpt>
      <trkpt lat="38.2193830" lon="-1.0499950">
        <ele>206.0</ele>
        <time>2020-10-12T06:16:26Z</time>
      </trkpt>
      <trkpt lat="38.2193670" lon="-1.0500990">
        <ele>205.8</ele>
        <time>2020-10-12T06:16:27Z</time>
      </trkpt>
      <trkpt lat="38.2193390" lon="-1.0502100">
        <ele>205.8</ele>
        <time>2020-10-12T06:16:28Z</time>
      </trkpt>
      <trkpt lat="38.2193040" lon="-1.0503160">
        <ele>205.6</ele>
        <time>2020-10-12T06:16:29Z</time>
      </trkpt>
      <trkpt lat="38.2192730" lon="-1.0504270">
        <ele>205.4</ele>
        <time>2020-10-12T06:16:30Z</time>
      </trkpt>
      <trkpt lat="38.2192450" lon="-1.0505410">
        <ele>205.0</ele>
        <time>2020-10-12T06:16:31Z</time>
      </trkpt>
      <trkpt lat="38.2192230" lon="-1.0506460">
        <ele>204.4</ele>
        <time>2020-10-12T06:16:32Z</time>
      </trkpt>
      <trkpt lat="38.2192140" lon="-1.0507480">
        <ele>204.0</ele>
        <time>2020-10-12T06:16:33Z</time>
      </trkpt>
      <trkpt lat="38.2192170" lon="-1.0508480">
        <ele>203.2</ele>
        <time>2020-10-12T06:16:34Z</time>
      </trkpt>
      <trkpt lat="38.2192430" lon="-1.0509380">
        <ele>202.2</ele>
        <time>2020-10-12T06:16:35Z</time>
      </trkpt>
      <trkpt lat="38.2193010" lon="-1.0510120">
        <ele>201.4</ele>
        <time>2020-10-12T06:16:36Z</time>
      </trkpt>
      <trkpt lat="38.2193760" lon="-1.0510690">
        <ele>200.6</ele>
        <time>2020-10-12T06:16:37Z</time>
      </trkpt>
      <trkpt lat="38.2194730" lon="-1.0510890">
        <ele>199.6</ele>
        <time>2020-10-12T06:16:38Z</time>
      </trkpt>
      <trkpt lat="38.2195730" lon="-1.0510960">
        <ele>198.8</ele>
        <time>2020-10-12T06:16:39Z</time>
      </trkpt>
      <trkpt lat="38.2196720" lon="-1.0510930">
        <ele>198.0</ele>
        <time>2020-10-12T06:16:40Z</time>
      </trkpt>
      <trkpt lat="38.2197720" lon="-1.0510780">
        <ele>197.2</ele>
        <time>2020-10-12T06:16:41Z</time>
      </trkpt>
      <trkpt lat="38.2198730" lon="-1.0510550">
        <ele>196.6</ele>
        <time>2020-10-12T06:16:42Z</time>
      </trkpt>
      <trkpt lat="38.2199730" lon="-1.0510360">
        <ele>196.0</ele>
        <time>2020-10-12T06:16:43Z</time>
      </trkpt>
      <trkpt lat="38.2200690" lon="-1.0510350">
        <ele>195.6</ele>
        <time>2020-10-12T06:16:44Z</time>
      </trkpt>
      <trkpt lat="38.2201720" lon="-1.0510570">
        <ele>195.4</ele>
        <time>2020-10-12T06:16:45Z</time>
      </trkpt>
      <trkpt lat="38.2202670" lon="-1.0510840">
        <ele>194.8</ele>
        <time>2020-10-12T06:16:46Z</time>
      </trkpt>
      <trkpt lat="38.2203640" lon="-1.0511060">
        <ele>194.2</ele>
        <time>2020-10-12T06:16:47Z</time>
      </trkpt>
      <trkpt lat="38.2204590" lon="-1.0511090">
        <ele>194.0</ele>
        <time>2020-10-12T06:16:48Z</time>
      </trkpt>
      <trkpt lat="38.2205500" lon="-1.0510890">
        <ele>193.6</ele>
        <time>2020-10-12T06:16:49Z</time>
      </trkpt>
      <trkpt lat="38.2206330" lon="-1.0510440">
        <ele>193.4</ele>
        <time>2020-10-12T06:16:50Z</time>
      </trkpt>
      <trkpt lat="38.2207010" lon="-1.0509800">
        <ele>193.4</ele>
        <time>2020-10-12T06:16:51Z</time>
      </trkpt>
      <trkpt lat="38.2207620" lon="-1.0509100">
        <ele>193.4</ele>
        <time>2020-10-12T06:16:52Z</time>
      </trkpt>
      <trkpt lat="38.2208160" lon="-1.0508440">
        <ele>193.6</ele>
        <time>2020-10-12T06:16:53Z</time>
      </trkpt>
      <trkpt lat="38.2208680" lon="-1.0507850">
        <ele>194.0</ele>
        <time>2020-10-12T06:16:54Z</time>
      </trkpt>
      <trkpt lat="38.2209160" lon="-1.0507320">
        <ele>194.6</ele>
        <time>2020-10-12T06:16:55Z</time>
      </trkpt>
      <trkpt lat="38.2209630" lon="-1.0506890">
        <ele>195.2</ele>
        <time>2020-10-12T06:16:56Z</time>
      </trkpt>
      <trkpt lat="38.2210100" lon="-1.0506520">
        <ele>195.8</ele>
        <time>2020-10-12T06:16:57Z</time>
      </trkpt>
      <trkpt lat="38.2210550" lon="-1.0506160">
        <ele>196.4</ele>
        <time>2020-10-12T06:16:58Z</time>
      </trkpt>
      <trkpt lat="38.2211030" lon="-1.0505820">
        <ele>196.6</ele>
        <time>2020-10-12T06:16:59Z</time>
      </trkpt>
      <trkpt lat="38.2211490" lon="-1.0505500">
        <ele>196.8</ele>
        <time>2020-10-12T06:17:00Z</time>
      </trkpt>
      <trkpt lat="38.2211930" lon="-1.0505210">
        <ele>197.0</ele>
        <time>2020-10-12T06:17:01Z</time>
      </trkpt>
      <trkpt lat="38.2212380" lon="-1.0504930">
        <ele>197.2</ele>
        <time>2020-10-12T06:17:02Z</time>
      </trkpt>
      <trkpt lat="38.2212870" lon="-1.0504660">
        <ele>197.4</ele>
        <time>2020-10-12T06:17:03Z</time>
      </trkpt>
      <trkpt lat="38.2213330" lon="-1.0504390">
        <ele>197.6</ele>
        <time>2020-10-12T06:17:04Z</time>
      </trkpt>
      <trkpt lat="38.2213770" lon="-1.0504110">
        <ele>198.0</ele>
        <time>2020-10-12T06:17:05Z</time>
      </trkpt>
      <trkpt lat="38.2214180" lon="-1.0503810">
        <ele>198.2</ele>
        <time>2020-10-12T06:17:06Z</time>
      </trkpt>
      <trkpt lat="38.2214580" lon="-1.0503480">
        <ele>198.6</ele>
        <time>2020-10-12T06:17:07Z</time>
      </trkpt>
      <trkpt lat="38.2214960" lon="-1.0503120">
        <ele>198.8</ele>
        <time>2020-10-12T06:17:08Z</time>
      </trkpt>
      <trkpt lat="38.2215330" lon="-1.0502770">
        <ele>199.2</ele>
        <time>2020-10-12T06:17:09Z</time>
      </trkpt>
      <trkpt lat="38.2215710" lon="-1.0502390">
        <ele>199.4</ele>
        <time>2020-10-12T06:17:10Z</time>
      </trkpt>
      <trkpt lat="38.2216040" lon="-1.0501980">
        <ele>199.6</ele>
        <time>2020-10-12T06:17:11Z</time>
      </trkpt>
      <trkpt lat="38.2216270" lon="-1.0501480">
        <ele>199.8</ele>
        <time>2020-10-12T06:17:12Z</time>
      </trkpt>
      <trkpt lat="38.2216430" lon="-1.0500960">
        <ele>200.0</ele>
        <time>2020-10-12T06:17:13Z</time>
      </trkpt>
      <trkpt lat="38.2216580" lon="-1.0500460">
        <ele>200.2</ele>
        <time>2020-10-12T06:17:14Z</time>
      </trkpt>
      <trkpt lat="38.2216770" lon="-1.0500060">
        <ele>200.2</ele>
        <time>2020-10-12T06:17:15Z</time>
      </trkpt>
      <trkpt lat="38.2216920" lon="-1.0499650">
        <ele>200.6</ele>
        <time>2020-10-12T06:17:16Z</time>
      </trkpt>
      <trkpt lat="38.2217030" lon="-1.0499250">
        <ele>201.0</ele>
        <time>2020-10-12T06:17:17Z</time>
      </trkpt>
      <trkpt lat="38.2217160" lon="-1.0498870">
        <ele>201.6</ele>
        <time>2020-10-12T06:17:18Z</time>
      </trkpt>
      <trkpt lat="38.2217260" lon="-1.0498470">
        <ele>202.0</ele>
        <time>2020-10-12T06:17:19Z</time>
      </trkpt>
      <trkpt lat="38.2217400" lon="-1.0498130">
        <ele>202.4</ele>
        <time>2020-10-12T06:17:20Z</time>
      </trkpt>
      <trkpt lat="38.2217550" lon="-1.0497810">
        <ele>202.8</ele>
        <time>2020-10-12T06:17:21Z</time>
      </trkpt>
      <trkpt lat="38.2217720" lon="-1.0497510">
        <ele>203.2</ele>
        <time>2020-10-12T06:17:22Z</time>
      </trkpt>
      <trkpt lat="38.2217890" lon="-1.0497250">
        <ele>203.8</ele>
        <time>2020-10-12T06:17:23Z</time>
      </trkpt>
      <trkpt lat="38.2218110" lon="-1.0497040">
        <ele>204.2</ele>
        <time>2020-10-12T06:17:24Z</time>
      </trkpt>
      <trkpt lat="38.2218370" lon="-1.0496830">
        <ele>204.6</ele>
        <time>2020-10-12T06:17:25Z</time>
      </trkpt>
      <trkpt lat="38.2218620" lon="-1.0496690">
        <ele>204.8</ele>
        <time>2020-10-12T06:17:26Z</time>
      </trkpt>
      <trkpt lat="38.2218810" lon="-1.0496480">
        <ele>205.0</ele>
        <time>2020-10-12T06:17:27Z</time>
      </trkpt>
      <trkpt lat="38.2219040" lon="-1.0496280">
        <ele>205.4</ele>
        <time>2020-10-12T06:17:28Z</time>
      </trkpt>
      <trkpt lat="38.2219310" lon="-1.0496140">
        <ele>205.6</ele>
        <time>2020-10-12T06:17:29Z</time>
      </trkpt>
      <trkpt lat="38.2219630" lon="-1.0496050">
        <ele>206.0</ele>
        <time>2020-10-12T06:17:30Z</time>
      </trkpt>
      <trkpt lat="38.2219930" lon="-1.0495970">
        <ele>206.2</ele>
        <time>2020-10-12T06:17:31Z</time>
      </trkpt>
      <trkpt lat="38.2220180" lon="-1.0495910">
        <ele>206.6</ele>
        <time>2020-10-12T06:17:32Z</time>
      </trkpt>
      <trkpt lat="38.2220460" lon="-1.0495840">
        <ele>206.8</ele>
        <time>2020-10-12T06:17:33Z</time>
      </trkpt>
      <trkpt lat="38.2220730" lon="-1.0495800">
        <ele>207.0</ele>
        <time>2020-10-12T06:17:34Z</time>
      </trkpt>
      <trkpt lat="38.2221000" lon="-1.0495710">
        <ele>207.2</ele>
        <time>2020-10-12T06:17:35Z</time>
      </trkpt>
      <trkpt lat="38.2221290" lon="-1.0495610">
        <ele>207.6</ele>
        <time>2020-10-12T06:17:36Z</time>
      </trkpt>
      <trkpt lat="38.2221570" lon="-1.0495480">
        <ele>208.0</ele>
        <time>2020-10-12T06:17:37Z</time>
      </trkpt>
      <trkpt lat="38.2221880" lon="-1.0495360">
        <ele>208.4</ele>
        <time>2020-10-12T06:17:38Z</time>
      </trkpt>
      <trkpt lat="38.2222170" lon="-1.0495210">
        <ele>208.6</ele>
        <time>2020-10-12T06:17:39Z</time>
      </trkpt>
      <trkpt lat="38.2222490" lon="-1.0495050">
        <ele>208.8</ele>
        <time>2020-10-12T06:17:40Z</time>
      </trkpt>
      <trkpt lat="38.2222810" lon="-1.0494860">
        <ele>209.0</ele>
        <time>2020-10-12T06:17:41Z</time>
      </trkpt>
      <trkpt lat="38.2223110" lon="-1.0494650">
        <ele>209.2</ele>
        <time>2020-10-12T06:17:42Z</time>
      </trkpt>
      <trkpt lat="38.2223410" lon="-1.0494440">
        <ele>209.2</ele>
        <time>2020-10-12T06:17:43Z</time>
      </trkpt>
      <trkpt lat="38.2223670" lon="-1.0494220">
        <ele>209.2</ele>
        <time>2020-10-12T06:17:44Z</time>
      </trkpt>
      <trkpt lat="38.2223890" lon="-1.0493980">
        <ele>209.2</ele>
        <time>2020-10-12T06:17:45Z</time>
      </trkpt>
      <trkpt lat="38.2224150" lon="-1.0493730">
        <ele>209.4</ele>
        <time>2020-10-12T06:17:46Z</time>
      </trkpt>
      <trkpt lat="38.2224420" lon="-1.0493490">
        <ele>209.6</ele>
        <time>2020-10-12T06:17:47Z</time>
      </trkpt>
      <trkpt lat="38.2224680" lon="-1.0493270">
        <ele>209.8</ele>
        <time>2020-10-12T06:17:48Z</time>
      </trkpt>
      <trkpt lat="38.2224930" lon="-1.0493030">
        <ele>210.0</ele>
        <time>2020-10-12T06:17:49Z</time>
      </trkpt>
      <trkpt lat="38.2225150" lon="-1.0492780">
        <ele>210.4</ele>
        <time>2020-10-12T06:17:50Z</time>
      </trkpt>
      <trkpt lat="38.2225420" lon="-1.0492560">
        <ele>210.8</ele>
        <time>2020-10-12T06:17:51Z</time>
      </trkpt>
      <trkpt lat="38.2225680" lon="-1.0492330">
        <ele>211.0</ele>
        <time>2020-10-12T06:17:52Z</time>
      </trkpt>
      <trkpt lat="38.2225920" lon="-1.0492090">
        <ele>211.4</ele>
        <time>2020-10-12T06:17:53Z</time>
      </trkpt>
      <trkpt lat="38.2226170" lon="-1.0491870">
        <ele>211.6</ele>
        <time>2020-10-12T06:17:54Z</time>
      </trkpt>
      <trkpt lat="38.2226420" lon="-1.0491620">
        <ele>211.8</ele>
        <time>2020-10-12T06:17:55Z</time>
      </trkpt>
      <trkpt lat="38.2226740" lon="-1.0491360">
        <ele>211.8</ele>
        <time>2020-10-12T06:17:56Z</time>
      </trkpt>
      <trkpt lat="38.2227040" lon="-1.0491110">
        <ele>212.0</ele>
        <time>2020-10-12T06:17:57Z</time>
      </trkpt>
      <trkpt lat="38.2227470" lon="-1.0490860">
        <ele>212.2</ele>
        <time>2020-10-12T06:17:58Z</time>
      </trkpt>
      <trkpt lat="38.2227780" lon="-1.0490600">
        <ele>212.4</ele>
        <time>2020-10-12T06:17:59Z</time>
      </trkpt>
      <trkpt lat="38.2228110" lon="-1.0490340">
        <ele>212.6</ele>
        <time>2020-10-12T06:18:00Z</time>
      </trkpt>
      <trkpt lat="38.2228460" lon="-1.0490110">
        <ele>212.8</ele>
        <time>2020-10-12T06:18:01Z</time>
      </trkpt>
      <trkpt lat="38.2228840" lon="-1.0489900">
        <ele>213.0</ele>
        <time>2020-10-12T06:18:02Z</time>
      </trkpt>
      <trkpt lat="38.2229240" lon="-1.0489680">
        <ele>213.0</ele>
        <time>2020-10-12T06:18:03Z</time>
      </trkpt>
      <trkpt lat="38.2229620" lon="-1.0489480">
        <ele>213.2</ele>
        <time>2020-10-12T06:18:04Z</time>
      </trkpt>
      <trkpt lat="38.2229980" lon="-1.0489230">
        <ele>213.2</ele>
        <time>2020-10-12T06:18:05Z</time>
      </trkpt>
      <trkpt lat="38.2230270" lon="-1.0488990">
        <ele>213.4</ele>
        <time>2020-10-12T06:18:06Z</time>
      </trkpt>
      <trkpt lat="38.2230610" lon="-1.0488770">
        <ele>213.6</ele>
        <time>2020-10-12T06:18:07Z</time>
      </trkpt>
      <trkpt lat="38.2231010" lon="-1.0488540">
        <ele>213.8</ele>
        <time>2020-10-12T06:18:08Z</time>
      </trkpt>
      <trkpt lat="38.2231360" lon="-1.0488350">
        <ele>214.0</ele>
        <time>2020-10-12T06:18:09Z</time>
      </trkpt>
      <trkpt lat="38.2231780" lon="-1.0488170">
        <ele>214.2</ele>
        <time>2020-10-12T06:18:10Z</time>
      </trkpt>
      <trkpt lat="38.2232180" lon="-1.0488040">
        <ele>214.2</ele>
        <time>2020-10-12T06:18:11Z</time>
      </trkpt>
      <trkpt lat="38.2232570" lon="-1.0487960">
        <ele>214.2</ele>
        <time>2020-10-12T06:18:12Z</time>
      </trkpt>
      <trkpt lat="38.2232970" lon="-1.0487900">
        <ele>214.4</ele>
        <time>2020-10-12T06:18:13Z</time>
      </trkpt>
      <trkpt lat="38.2233360" lon="-1.0487860">
        <ele>214.4</ele>
        <time>2020-10-12T06:18:14Z</time>
      </trkpt>
      <trkpt lat="38.2233760" lon="-1.0487840">
        <ele>214.4</ele>
        <time>2020-10-12T06:18:15Z</time>
      </trkpt>
      <trkpt lat="38.2234160" lon="-1.0487840">
        <ele>214.4</ele>
        <time>2020-10-12T06:18:16Z</time>
      </trkpt>
      <trkpt lat="38.2234560" lon="-1.0487840">
        <ele>214.4</ele>
        <time>2020-10-12T06:18:17Z</time>
      </trkpt>
      <trkpt lat="38.2234970" lon="-1.0487850">
        <ele>214.6</ele>
        <time>2020-10-12T06:18:18Z</time>
      </trkpt>
      <trkpt lat="38.2235380" lon="-1.0487860">
        <ele>214.6</ele>
        <time>2020-10-12T06:18:19Z</time>
      </trkpt>
      <trkpt lat="38.2235790" lon="-1.0487870">
        <ele>214.6</ele>
        <time>2020-10-12T06:18:20Z</time>
      </trkpt>
      <trkpt lat="38.2236210" lon="-1.0487900">
        <ele>214.8</ele>
        <time>2020-10-12T06:18:21Z</time>
      </trkpt>
      <trkpt lat="38.2236600" lon="-1.0487930">
        <ele>214.8</ele>
        <time>2020-10-12T06:18:22Z</time>
      </trkpt>
      <trkpt lat="38.2236990" lon="-1.0487930">
        <ele>215.0</ele>
        <time>2020-10-12T06:18:23Z</time>
      </trkpt>
      <trkpt lat="38.2237380" lon="-1.0487930">
        <ele>215.2</ele>
        <time>2020-10-12T06:18:24Z</time>
      </trkpt>
      <trkpt lat="38.2237800" lon="-1.0487930">
        <ele>215.2</ele>
        <time>2020-10-12T06:18:25Z</time>
      </trkpt>
      <trkpt lat="38.2238180" lon="-1.0487940">
        <ele>215.2</ele>
        <time>2020-10-12T06:18:26Z</time>
      </trkpt>
      <trkpt lat="38.2238620" lon="-1.0487960">
        <ele>215.2</ele>
        <time>2020-10-12T06:18:27Z</time>
      </trkpt>
      <trkpt lat="38.2239080" lon="-1.0487990">
        <ele>215.2</ele>
        <time>2020-10-12T06:18:28Z</time>
      </trkpt>
      <trkpt lat="38.2239570" lon="-1.0488020">
        <ele>215.4</ele>
        <time>2020-10-12T06:18:29Z</time>
      </trkpt>
      <trkpt lat="38.2240060" lon="-1.0488040">
        <ele>215.4</ele>
        <time>2020-10-12T06:18:30Z</time>
      </trkpt>
      <trkpt lat="38.2240530" lon="-1.0488080">
        <ele>215.4</ele>
        <time>2020-10-12T06:18:31Z</time>
      </trkpt>
      <trkpt lat="38.2241040" lon="-1.0488150">
        <ele>215.4</ele>
        <time>2020-10-12T06:18:32Z</time>
      </trkpt>
      <trkpt lat="38.2241530" lon="-1.0488210">
        <ele>215.6</ele>
        <time>2020-10-12T06:18:33Z</time>
      </trkpt>
      <trkpt lat="38.2242030" lon="-1.0488250">
        <ele>215.8</ele>
        <time>2020-10-12T06:18:34Z</time>
      </trkpt>
      <trkpt lat="38.2242530" lon="-1.0488260">
        <ele>215.8</ele>
        <time>2020-10-12T06:18:35Z</time>
      </trkpt>
      <trkpt lat="38.2243030" lon="-1.0488270">
        <ele>215.8</ele>
        <time>2020-10-12T06:18:36Z</time>
      </trkpt>
      <trkpt lat="38.2243520" lon="-1.0488260">
        <ele>215.6</ele>
        <time>2020-10-12T06:18:37Z</time>
      </trkpt>
      <trkpt lat="38.2243990" lon="-1.0488260">
        <ele>215.8</ele>
        <time>2020-10-12T06:18:38Z</time>
      </trkpt>
      <trkpt lat="38.2244450" lon="-1.0488230">
        <ele>215.8</ele>
        <time>2020-10-12T06:18:39Z</time>
      </trkpt>
      <trkpt lat="38.2244930" lon="-1.0488170">
        <ele>215.8</ele>
        <time>2020-10-12T06:18:40Z</time>
      </trkpt>
      <trkpt lat="38.2245440" lon="-1.0488110">
        <ele>215.8</ele>
        <time>2020-10-12T06:18:41Z</time>
      </trkpt>
      <trkpt lat="38.2245980" lon="-1.0488030">
        <ele>215.8</ele>
        <time>2020-10-12T06:18:42Z</time>
      </trkpt>
      <trkpt lat="38.2246530" lon="-1.0487940">
        <ele>215.8</ele>
        <time>2020-10-12T06:18:43Z</time>
      </trkpt>
      <trkpt lat="38.2247090" lon="-1.0487820">
        <ele>215.8</ele>
        <time>2020-10-12T06:18:44Z</time>
      </trkpt>
      <trkpt lat="38.2247650" lon="-1.0487660">
        <ele>216.0</ele>
        <time>2020-10-12T06:18:45Z</time>
      </trkpt>
      <trkpt lat="38.2248220" lon="-1.0487500">
        <ele>216.0</ele>
        <time>2020-10-12T06:18:46Z</time>
      </trkpt>
      <trkpt lat="38.2248790" lon="-1.0487320">
        <ele>216.2</ele>
        <time>2020-10-12T06:18:47Z</time>
      </trkpt>
      <trkpt lat="38.2249340" lon="-1.0487120">
        <ele>216.2</ele>
        <time>2020-10-12T06:18:48Z</time>
      </trkpt>
      <trkpt lat="38.2249890" lon="-1.0486940">
        <ele>216.2</ele>
        <time>2020-10-12T06:18:49Z</time>
      </trkpt>
      <trkpt lat="38.2250470" lon="-1.0486760">
        <ele>216.2</ele>
        <time>2020-10-12T06:18:50Z</time>
      </trkpt>
      <trkpt lat="38.2251040" lon="-1.0486630">
        <ele>216.2</ele>
        <time>2020-10-12T06:18:51Z</time>
      </trkpt>
      <trkpt lat="38.2251620" lon="-1.0486600">
        <ele>216.2</ele>
        <time>2020-10-12T06:18:52Z</time>
      </trkpt>
      <trkpt lat="38.2252200" lon="-1.0486680">
        <ele>216.2</ele>
        <time>2020-10-12T06:18:53Z</time>
      </trkpt>
      <trkpt lat="38.2252750" lon="-1.0486880">
        <ele>216.2</ele>
        <time>2020-10-12T06:18:54Z</time>
      </trkpt>
      <trkpt lat="38.2253270" lon="-1.0487170">
        <ele>216.2</ele>
        <time>2020-10-12T06:18:55Z</time>
      </trkpt>
      <trkpt lat="38.2253740" lon="-1.0487570">
        <ele>216.2</ele>
        <time>2020-10-12T06:18:56Z</time>
      </trkpt>
      <trkpt lat="38.2254180" lon="-1.0488040">
        <ele>216.2</ele>
        <time>2020-10-12T06:18:57Z</time>
      </trkpt>
      <trkpt lat="38.2254550" lon="-1.0488560">
        <ele>216.2</ele>
        <time>2020-10-12T06:18:58Z</time>
      </trkpt>
      <trkpt lat="38.2254920" lon="-1.0489130">
        <ele>216.2</ele>
        <time>2020-10-12T06:18:59Z</time>
      </trkpt>
      <trkpt lat="38.2255270" lon="-1.0489710">
        <ele>216.4</ele>
        <time>2020-10-12T06:19:00Z</time>
      </trkpt>
      <trkpt lat="38.2255600" lon="-1.0490300">
        <ele>216.6</ele>
        <time>2020-10-12T06:19:01Z</time>
      </trkpt>
      <trkpt lat="38.2255920" lon="-1.0490890">
        <ele>216.6</ele>
        <time>2020-10-12T06:19:02Z</time>
      </trkpt>
      <trkpt lat="38.2256240" lon="-1.0491490">
        <ele>216.6</ele>
        <time>2020-10-12T06:19:03Z</time>
      </trkpt>
      <trkpt lat="38.2256560" lon="-1.0492090">
        <ele>216.6</ele>
        <time>2020-10-12T06:19:04Z</time>
      </trkpt>
      <trkpt lat="38.2256870" lon="-1.0492680">
        <ele>216.4</ele>
        <time>2020-10-12T06:19:05Z</time>
      </trkpt>
      <trkpt lat="38.2257180" lon="-1.0493290">
        <ele>216.2</ele>
        <time>2020-10-12T06:19:06Z</time>
      </trkpt>
      <trkpt lat="38.2257510" lon="-1.0493860">
        <ele>216.0</ele>
        <time>2020-10-12T06:19:07Z</time>
      </trkpt>
      <trkpt lat="38.2257840" lon="-1.0494420">
        <ele>215.8</ele>
        <time>2020-10-12T06:19:08Z</time>
      </trkpt>
      <trkpt lat="38.2258170" lon="-1.0495000">
        <ele>215.8</ele>
        <time>2020-10-12T06:19:09Z</time>
      </trkpt>
      <trkpt lat="38.2258530" lon="-1.0495560">
        <ele>216.0</ele>
        <time>2020-10-12T06:19:10Z</time>
      </trkpt>
      <trkpt lat="38.2258940" lon="-1.0496110">
        <ele>216.0</ele>
        <time>2020-10-12T06:19:11Z</time>
      </trkpt>
      <trkpt lat="38.2259380" lon="-1.0496610">
        <ele>216.4</ele>
        <time>2020-10-12T06:19:12Z</time>
      </trkpt>
      <trkpt lat="38.2259840" lon="-1.0497040">
        <ele>216.8</ele>
        <time>2020-10-12T06:19:13Z</time>
      </trkpt>
      <trkpt lat="38.2260320" lon="-1.0497450">
        <ele>217.0</ele>
        <time>2020-10-12T06:19:14Z</time>
      </trkpt>
      <trkpt lat="38.2260780" lon="-1.0497850">
        <ele>217.0</ele>
        <time>2020-10-12T06:19:15Z</time>
      </trkpt>
      <trkpt lat="38.2261250" lon="-1.0498190">
        <ele>217.2</ele>
        <time>2020-10-12T06:19:16Z</time>
      </trkpt>
      <trkpt lat="38.2261730" lon="-1.0498510">
        <ele>217.2</ele>
        <time>2020-10-12T06:19:17Z</time>
      </trkpt>
      <trkpt lat="38.2262260" lon="-1.0498770">
        <ele>217.2</ele>
        <time>2020-10-12T06:19:18Z</time>
      </trkpt>
      <trkpt lat="38.2262820" lon="-1.0498900">
        <ele>217.2</ele>
        <time>2020-10-12T06:19:19Z</time>
      </trkpt>
      <trkpt lat="38.2263400" lon="-1.0498920">
        <ele>217.2</ele>
        <time>2020-10-12T06:19:20Z</time>
      </trkpt>
      <trkpt lat="38.2264040" lon="-1.0498860">
        <ele>217.0</ele>
        <time>2020-10-12T06:19:21Z</time>
      </trkpt>
      <trkpt lat="38.2264690" lon="-1.0498750">
        <ele>217.0</ele>
        <time>2020-10-12T06:19:22Z</time>
      </trkpt>
      <trkpt lat="38.2265400" lon="-1.0498630">
        <ele>216.8</ele>
        <time>2020-10-12T06:19:23Z</time>
      </trkpt>
      <trkpt lat="38.2266110" lon="-1.0498520">
        <ele>216.4</ele>
        <time>2020-10-12T06:19:24Z</time>
      </trkpt>
      <trkpt lat="38.2266840" lon="-1.0498400">
        <ele>216.2</ele>
        <time>2020-10-12T06:19:25Z</time>
      </trkpt>
      <trkpt lat="38.2267590" lon="-1.0498300">
        <ele>216.0</ele>
        <time>2020-10-12T06:19:26Z</time>
      </trkpt>
      <trkpt lat="38.2268390" lon="-1.0498200">
        <ele>215.6</ele>
        <time>2020-10-12T06:19:27Z</time>
      </trkpt>
      <trkpt lat="38.2269160" lon="-1.0498090">
        <ele>215.0</ele>
        <time>2020-10-12T06:19:28Z</time>
      </trkpt>
      <trkpt lat="38.2269930" lon="-1.0497960">
        <ele>214.4</ele>
        <time>2020-10-12T06:19:29Z</time>
      </trkpt>
      <trkpt lat="38.2270690" lon="-1.0497800">
        <ele>213.6</ele>
        <time>2020-10-12T06:19:30Z</time>
      </trkpt>
      <trkpt lat="38.2271410" lon="-1.0497590">
        <ele>212.8</ele>
        <time>2020-10-12T06:19:31Z</time>
      </trkpt>
      <trkpt lat="38.2272160" lon="-1.0497300">
        <ele>212.4</ele>
        <time>2020-10-12T06:19:32Z</time>
      </trkpt>
      <trkpt lat="38.2272900" lon="-1.0496980">
        <ele>212.0</ele>
        <time>2020-10-12T06:19:33Z</time>
      </trkpt>
      <trkpt lat="38.2273650" lon="-1.0496650">
        <ele>211.8</ele>
        <time>2020-10-12T06:19:34Z</time>
      </trkpt>
      <trkpt lat="38.2274430" lon="-1.0496370">
        <ele>211.6</ele>
        <time>2020-10-12T06:19:35Z</time>
      </trkpt>
      <trkpt lat="38.2275260" lon="-1.0496210">
        <ele>211.6</ele>
        <time>2020-10-12T06:19:36Z</time>
      </trkpt>
      <trkpt lat="38.2276150" lon="-1.0496250">
        <ele>211.6</ele>
        <time>2020-10-12T06:19:37Z</time>
      </trkpt>
      <trkpt lat="38.2276970" lon="-1.0496490">
        <ele>211.8</ele>
        <time>2020-10-12T06:19:38Z</time>
      </trkpt>
      <trkpt lat="38.2277760" lon="-1.0497010">
        <ele>211.6</ele>
        <time>2020-10-12T06:19:39Z</time>
      </trkpt>
      <trkpt lat="38.2278490" lon="-1.0497720">
        <ele>211.4</ele>
        <time>2020-10-12T06:19:40Z</time>
      </trkpt>
      <trkpt lat="38.2279210" lon="-1.0498450">
        <ele>211.0</ele>
        <time>2020-10-12T06:19:41Z</time>
      </trkpt>
      <trkpt lat="38.2279930" lon="-1.0499130">
        <ele>210.6</ele>
        <time>2020-10-12T06:19:42Z</time>
      </trkpt>
      <trkpt lat="38.2280680" lon="-1.0499790">
        <ele>210.0</ele>
        <time>2020-10-12T06:19:43Z</time>
      </trkpt>
      <trkpt lat="38.2281470" lon="-1.0500430">
        <ele>209.4</ele>
        <time>2020-10-12T06:19:44Z</time>
      </trkpt>
      <trkpt lat="38.2282220" lon="-1.0501050">
        <ele>209.2</ele>
        <time>2020-10-12T06:19:45Z</time>
      </trkpt>
      <trkpt lat="38.2282930" lon="-1.0501620">
        <ele>209.0</ele>
        <time>2020-10-12T06:19:46Z</time>
      </trkpt>
      <trkpt lat="38.2283630" lon="-1.0502180">
        <ele>208.8</ele>
        <time>2020-10-12T06:19:47Z</time>
      </trkpt>
      <trkpt lat="38.2284320" lon="-1.0502750">
        <ele>208.4</ele>
        <time>2020-10-12T06:19:48Z</time>
      </trkpt>
      <trkpt lat="38.2284960" lon="-1.0503300">
        <ele>208.2</ele>
        <time>2020-10-12T06:19:49Z</time>
      </trkpt>
      <trkpt lat="38.2285570" lon="-1.0503870">
        <ele>208.2</ele>
        <time>2020-10-12T06:19:50Z</time>
      </trkpt>
      <trkpt lat="38.2286160" lon="-1.0504480">
        <ele>208.2</ele>
        <time>2020-10-12T06:19:51Z</time>
      </trkpt>
      <trkpt lat="38.2286720" lon="-1.0505080">
        <ele>208.0</ele>
        <time>2020-10-12T06:19:52Z</time>
      </trkpt>
      <trkpt lat="38.2287270" lon="-1.0505710">
        <ele>208.0</ele>
        <time>2020-10-12T06:19:53Z</time>
      </trkpt>
      <trkpt lat="38.2287840" lon="-1.0506340">
        <ele>207.8</ele>
        <time>2020-10-12T06:19:54Z</time>
      </trkpt>
      <trkpt lat="38.2288400" lon="-1.0506970">
        <ele>207.8</ele>
        <time>2020-10-12T06:19:55Z</time>
      </trkpt>
      <trkpt lat="38.2288910" lon="-1.0507680">
        <ele>207.6</ele>
        <time>2020-10-12T06:19:56Z</time>
      </trkpt>
      <trkpt lat="38.2289420" lon="-1.0508360">
        <ele>207.6</ele>
        <time>2020-10-12T06:19:57Z</time>
      </trkpt>
      <trkpt lat="38.2289940" lon="-1.0509030">
        <ele>207.4</ele>
        <time>2020-10-12T06:19:58Z</time>
      </trkpt>
      <trkpt lat="38.2290470" lon="-1.0509720">
        <ele>207.4</ele>
        <time>2020-10-12T06:19:59Z</time>
      </trkpt>
      <trkpt lat="38.2291050" lon="-1.0510330">
        <ele>207.6</ele>
        <time>2020-10-12T06:20:00Z</time>
      </trkpt>
      <trkpt lat="38.2291600" lon="-1.0510920">
        <ele>207.6</ele>
        <time>2020-10-12T06:20:01Z</time>
      </trkpt>
      <trkpt lat="38.2292180" lon="-1.0511500">
        <ele>207.6</ele>
        <time>2020-10-12T06:20:02Z</time>
      </trkpt>
      <trkpt lat="38.2292790" lon="-1.0512020">
        <ele>207.6</ele>
        <time>2020-10-12T06:20:03Z</time>
      </trkpt>
      <trkpt lat="38.2293400" lon="-1.0512550">
        <ele>207.6</ele>
        <time>2020-10-12T06:20:04Z</time>
      </trkpt>
      <trkpt lat="38.2294030" lon="-1.0513090">
        <ele>207.4</ele>
        <time>2020-10-12T06:20:05Z</time>
      </trkpt>
      <trkpt lat="38.2294610" lon="-1.0513600">
        <ele>207.2</ele>
        <time>2020-10-12T06:20:06Z</time>
      </trkpt>
      <trkpt lat="38.2295210" lon="-1.0514080">
        <ele>207.0</ele>
        <time>2020-10-12T06:20:07Z</time>
      </trkpt>
      <trkpt lat="38.2295850" lon="-1.0514510">
        <ele>206.6</ele>
        <time>2020-10-12T06:20:08Z</time>
      </trkpt>
      <trkpt lat="38.2296540" lon="-1.0514870">
        <ele>206.4</ele>
        <time>2020-10-12T06:20:09Z</time>
      </trkpt>
      <trkpt lat="38.2297300" lon="-1.0515160">
        <ele>205.8</ele>
        <time>2020-10-12T06:20:10Z</time>
      </trkpt>
      <trkpt lat="38.2298100" lon="-1.0515400">
        <ele>205.2</ele>
        <time>2020-10-12T06:20:11Z</time>
      </trkpt>
      <trkpt lat="38.2298950" lon="-1.0515560">
        <ele>204.4</ele>
        <time>2020-10-12T06:20:12Z</time>
      </trkpt>
      <trkpt lat="38.2299830" lon="-1.0515650">
        <ele>203.8</ele>
        <time>2020-10-12T06:20:13Z</time>
      </trkpt>
      <trkpt lat="38.2300720" lon="-1.0515710">
        <ele>203.6</ele>
        <time>2020-10-12T06:20:14Z</time>
      </trkpt>
      <trkpt lat="38.2301610" lon="-1.0515730">
        <ele>203.4</ele>
        <time>2020-10-12T06:20:15Z</time>
      </trkpt>
      <trkpt lat="38.2302440" lon="-1.0515730">
        <ele>203.2</ele>
        <time>2020-10-12T06:20:16Z</time>
      </trkpt>
      <trkpt lat="38.2303270" lon="-1.0515700">
        <ele>203.2</ele>
        <time>2020-10-12T06:20:17Z</time>
      </trkpt>
      <trkpt lat="38.2304060" lon="-1.0515540">
        <ele>203.0</ele>
        <time>2020-10-12T06:20:18Z</time>
      </trkpt>
      <trkpt lat="38.2304750" lon="-1.0515180">
        <ele>202.8</ele>
        <time>2020-10-12T06:20:19Z</time>
      </trkpt>
      <trkpt lat="38.2305290" lon="-1.0514620">
        <ele>203.0</ele>
        <time>2020-10-12T06:20:20Z</time>
      </trkpt>
      <trkpt lat="38.2305770" lon="-1.0513980">
        <ele>203.0</ele>
        <time>2020-10-12T06:20:21Z</time>
      </trkpt>
      <trkpt lat="38.2306170" lon="-1.0513390">
        <ele>203.0</ele>
        <time>2020-10-12T06:20:22Z</time>
      </trkpt>
      <trkpt lat="38.2306490" lon="-1.0512850">
        <ele>203.2</ele>
        <time>2020-10-12T06:20:23Z</time>
      </trkpt>
      <trkpt lat="38.2306770" lon="-1.0512340">
        <ele>203.6</ele>
        <time>2020-10-12T06:20:24Z</time>
      </trkpt>
      <trkpt lat="38.2307020" lon="-1.0511830">
        <ele>203.8</ele>
        <time>2020-10-12T06:20:25Z</time>
      </trkpt>
      <trkpt lat="38.2307280" lon="-1.0511310">
        <ele>204.0</ele>
        <time>2020-10-12T06:20:26Z</time>
      </trkpt>
      <trkpt lat="38.2307540" lon="-1.0510790">
        <ele>204.4</ele>
        <time>2020-10-12T06:20:27Z</time>
      </trkpt>
      <trkpt lat="38.2307770" lon="-1.0510320">
        <ele>205.0</ele>
        <time>2020-10-12T06:20:28Z</time>
      </trkpt>
      <trkpt lat="38.2308000" lon="-1.0509890">
        <ele>205.6</ele>
        <time>2020-10-12T06:20:29Z</time>
      </trkpt>
      <trkpt lat="38.2308210" lon="-1.0509500">
        <ele>206.0</ele>
        <time>2020-10-12T06:20:30Z</time>
      </trkpt>
      <trkpt lat="38.2308400" lon="-1.0509100">
        <ele>206.6</ele>
        <time>2020-10-12T06:20:31Z</time>
      </trkpt>
      <trkpt lat="38.2308590" lon="-1.0508720">
        <ele>206.8</ele>
        <time>2020-10-12T06:20:32Z</time>
      </trkpt>
      <trkpt lat="38.2308810" lon="-1.0508340">
        <ele>207.0</ele>
        <time>2020-10-12T06:20:33Z</time>
      </trkpt>
      <trkpt lat="38.2309020" lon="-1.0507970">
        <ele>207.4</ele>
        <time>2020-10-12T06:20:34Z</time>
      </trkpt>
      <trkpt lat="38.2309270" lon="-1.0507590">
        <ele>207.6</ele>
        <time>2020-10-12T06:20:35Z</time>
      </trkpt>
      <trkpt lat="38.2309510" lon="-1.0507250">
        <ele>208.0</ele>
        <time>2020-10-12T06:20:36Z</time>
      </trkpt>
      <trkpt lat="38.2309730" lon="-1.0506940">
        <ele>208.2</ele>
        <time>2020-10-12T06:20:37Z</time>
      </trkpt>
      <trkpt lat="38.2309940" lon="-1.0506630">
        <ele>208.4</ele>
        <time>2020-10-12T06:20:38Z</time>
      </trkpt>
      <trkpt lat="38.2310150" lon="-1.0506380">
        <ele>208.8</ele>
        <time>2020-10-12T06:20:39Z</time>
      </trkpt>
      <trkpt lat="38.2310380" lon="-1.0506140">
        <ele>209.0</ele>
        <time>2020-10-12T06:20:40Z</time>
      </trkpt>
      <trkpt lat="38.2310640" lon="-1.0505930">
        <ele>209.4</ele>
        <time>2020-10-12T06:20:41Z</time>
      </trkpt>
      <trkpt lat="38.2310890" lon="-1.0505730">
        <ele>209.6</ele>
        <time>2020-10-12T06:20:42Z</time>
      </trkpt>
      <trkpt lat="38.2311130" lon="-1.0505560">
        <ele>210.0</ele>
        <time>2020-10-12T06:20:43Z</time>
      </trkpt>
      <trkpt lat="38.2311380" lon="-1.0505390">
        <ele>210.4</ele>
        <time>2020-10-12T06:20:44Z</time>
      </trkpt>
      <trkpt lat="38.2311620" lon="-1.0505220">
        <ele>210.8</ele>
        <time>2020-10-12T06:20:45Z</time>
      </trkpt>
      <trkpt lat="38.2311880" lon="-1.0505080">
        <ele>211.0</ele>
        <time>2020-10-12T06:20:46Z</time>
      </trkpt>
      <trkpt lat="38.2312180" lon="-1.0504870">
        <ele>211.2</ele>
        <time>2020-10-12T06:20:47Z</time>
      </trkpt>
      <trkpt lat="38.2312510" lon="-1.0504670">
        <ele>211.6</ele>
        <time>2020-10-12T06:20:48Z</time>
      </trkpt>
      <trkpt lat="38.2312840" lon="-1.0504460">
        <ele>211.8</ele>
        <time>2020-10-12T06:20:49Z</time>
      </trkpt>
      <trkpt lat="38.2313170" lon="-1.0504240">
        <ele>212.2</ele>
        <time>2020-10-12T06:20:50Z</time>
      </trkpt>
      <trkpt lat="38.2313530" lon="-1.0504030">
        <ele>212.6</ele>
        <time>2020-10-12T06:20:51Z</time>
      </trkpt>
      <trkpt lat="38.2313940" lon="-1.0503830">
        <ele>213.0</ele>
        <time>2020-10-12T06:20:52Z</time>
      </trkpt>
      <trkpt lat="38.2314290" lon="-1.0503640">
        <ele>213.4</ele>
        <time>2020-10-12T06:20:53Z</time>
      </trkpt>
      <trkpt lat="38.2314610" lon="-1.0503430">
        <ele>214.0</ele>
        <time>2020-10-12T06:20:54Z</time>
      </trkpt>
      <trkpt lat="38.2314930" lon="-1.0503200">
        <ele>214.4</ele>
        <time>2020-10-12T06:20:55Z</time>
      </trkpt>
      <trkpt lat="38.2315310" lon="-1.0502960">
        <ele>215.0</ele>
        <time>2020-10-12T06:20:56Z</time>
      </trkpt>
      <trkpt lat="38.2315670" lon="-1.0502710">
        <ele>215.2</ele>
        <time>2020-10-12T06:20:57Z</time>
      </trkpt>
      <trkpt lat="38.2316050" lon="-1.0502430">
        <ele>215.6</ele>
        <time>2020-10-12T06:20:58Z</time>
      </trkpt>
      <trkpt lat="38.2316400" lon="-1.0502140">
        <ele>216.0</ele>
        <time>2020-10-12T06:20:59Z</time>
      </trkpt>
      <trkpt lat="38.2316700" lon="-1.0501830">
        <ele>216.4</ele>
        <time>2020-10-12T06:21:00Z</time>
      </trkpt>
      <trkpt lat="38.2316980" lon="-1.0501510">
        <ele>216.6</ele>
        <time>2020-10-12T06:21:01Z</time>
      </trkpt>
      <trkpt lat="38.2317250" lon="-1.0501200">
        <ele>216.8</ele>
        <time>2020-10-12T06:21:02Z</time>
      </trkpt>
      <trkpt lat="38.2317640" lon="-1.0500930">
        <ele>217.0</ele>
        <time>2020-10-12T06:21:03Z</time>
      </trkpt>
      <trkpt lat="38.2317970" lon="-1.0500620">
        <ele>217.2</ele>
        <time>2020-10-12T06:21:04Z</time>
      </trkpt>
      <trkpt lat="38.2318240" lon="-1.0500290">
        <ele>217.4</ele>
        <time>2020-10-12T06:21:05Z</time>
      </trkpt>
      <trkpt lat="38.2318500" lon="-1.0499970">
        <ele>217.6</ele>
        <time>2020-10-12T06:21:06Z</time>
      </trkpt>
      <trkpt lat="38.2318770" lon="-1.0499670">
        <ele>217.8</ele>
        <time>2020-10-12T06:21:07Z</time>
      </trkpt>
      <trkpt lat="38.2319010" lon="-1.0499350">
        <ele>218.2</ele>
        <time>2020-10-12T06:21:08Z</time>
      </trkpt>
      <trkpt lat="38.2319220" lon="-1.0498990">
        <ele>218.4</ele>
        <time>2020-10-12T06:21:09Z</time>
      </trkpt>
      <trkpt lat="38.2319430" lon="-1.0498580">
        <ele>218.8</ele>
        <time>2020-10-12T06:21:10Z</time>
      </trkpt>
      <trkpt lat="38.2319650" lon="-1.0498170">
        <ele>219.2</ele>
        <time>2020-10-12T06:21:11Z</time>
      </trkpt>
      <trkpt lat="38.2319840" lon="-1.0497750">
        <ele>219.4</ele>
        <time>2020-10-12T06:21:12Z</time>
      </trkpt>
      <trkpt lat="38.2320020" lon="-1.0497290">
        <ele>219.6</ele>
        <time>2020-10-12T06:21:13Z</time>
      </trkpt>
      <trkpt lat="38.2320190" lon="-1.0496840">
        <ele>219.8</ele>
        <time>2020-10-12T06:21:14Z</time>
      </trkpt>
      <trkpt lat="38.2320360" lon="-1.0496360">
        <ele>219.8</ele>
        <time>2020-10-12T06:21:15Z</time>
      </trkpt>
      <trkpt lat="38.2320550" lon="-1.0495870">
        <ele>219.8</ele>
        <time>2020-10-12T06:21:16Z</time>
      </trkpt>
      <trkpt lat="38.2320750" lon="-1.0495400">
        <ele>219.8</ele>
        <time>2020-10-12T06:21:17Z</time>
      </trkpt>
      <trkpt lat="38.2320910" lon="-1.0494950">
        <ele>219.8</ele>
        <time>2020-10-12T06:21:18Z</time>
      </trkpt>
      <trkpt lat="38.2321090" lon="-1.0494500">
        <ele>219.8</ele>
        <time>2020-10-12T06:21:19Z</time>
      </trkpt>
      <trkpt lat="38.2321270" lon="-1.0494030">
        <ele>220.0</ele>
        <time>2020-10-12T06:21:20Z</time>
      </trkpt>
      <trkpt lat="38.2321440" lon="-1.0493560">
        <ele>220.0</ele>
        <time>2020-10-12T06:21:21Z</time>
      </trkpt>
      <trkpt lat="38.2321600" lon="-1.0493090">
        <ele>220.2</ele>
        <time>2020-10-12T06:21:22Z</time>
      </trkpt>
      <trkpt lat="38.2321760" lon="-1.0492640">
        <ele>220.2</ele>
        <time>2020-10-12T06:21:23Z</time>
      </trkpt>
      <trkpt lat="38.2321930" lon="-1.0492170">
        <ele>220.4</ele>
        <time>2020-10-12T06:21:24Z</time>
      </trkpt>
      <trkpt lat="38.2322080" lon="-1.0491670">
        <ele>220.4</ele>
        <time>2020-10-12T06:21:25Z</time>
      </trkpt>
      <trkpt lat="38.2322250" lon="-1.0491160">
        <ele>220.4</ele>
        <time>2020-10-12T06:21:26Z</time>
      </trkpt>
      <trkpt lat="38.2322400" lon="-1.0490670">
        <ele>220.6</ele>
        <time>2020-10-12T06:21:27Z</time>
      </trkpt>
      <trkpt lat="38.2322550" lon="-1.0490200">
        <ele>220.6</ele>
        <time>2020-10-12T06:21:28Z</time>
      </trkpt>
      <trkpt lat="38.2322730" lon="-1.0489710">
        <ele>220.8</ele>
        <time>2020-10-12T06:21:29Z</time>
      </trkpt>
      <trkpt lat="38.2322910" lon="-1.0489250">
        <ele>221.0</ele>
        <time>2020-10-12T06:21:30Z</time>
      </trkpt>
      <trkpt lat="38.2323090" lon="-1.0488780">
        <ele>221.2</ele>
        <time>2020-10-12T06:21:31Z</time>
      </trkpt>
      <trkpt lat="38.2323240" lon="-1.0488320">
        <ele>221.4</ele>
        <time>2020-10-12T06:21:32Z</time>
      </trkpt>
      <trkpt lat="38.2323390" lon="-1.0487860">
        <ele>221.6</ele>
        <time>2020-10-12T06:21:33Z</time>
      </trkpt>
      <trkpt lat="38.2323560" lon="-1.0487400">
        <ele>221.8</ele>
        <time>2020-10-12T06:21:34Z</time>
      </trkpt>
      <trkpt lat="38.2323730" lon="-1.0486940">
        <ele>222.0</ele>
        <time>2020-10-12T06:21:35Z</time>
      </trkpt>
      <trkpt lat="38.2323900" lon="-1.0486460">
        <ele>222.2</ele>
        <time>2020-10-12T06:21:36Z</time>
      </trkpt>
      <trkpt lat="38.2324070" lon="-1.0485960">
        <ele>222.2</ele>
        <time>2020-10-12T06:21:37Z</time>
      </trkpt>
      <trkpt lat="38.2324230" lon="-1.0485470">
        <ele>222.4</ele>
        <time>2020-10-12T06:21:38Z</time>
      </trkpt>
      <trkpt lat="38.2324410" lon="-1.0484990">
        <ele>222.4</ele>
        <time>2020-10-12T06:21:39Z</time>
      </trkpt>
      <trkpt lat="38.2324610" lon="-1.0484500">
        <ele>222.6</ele>
        <time>2020-10-12T06:21:40Z</time>
      </trkpt>
      <trkpt lat="38.2324790" lon="-1.0484010">
        <ele>222.8</ele>
        <time>2020-10-12T06:21:41Z</time>
      </trkpt>
      <trkpt lat="38.2324970" lon="-1.0483510">
        <ele>223.0</ele>
        <time>2020-10-12T06:21:42Z</time>
      </trkpt>
      <trkpt lat="38.2325160" lon="-1.0483030">
        <ele>223.2</ele>
        <time>2020-10-12T06:21:43Z</time>
      </trkpt>
      <trkpt lat="38.2325350" lon="-1.0482540">
        <ele>223.2</ele>
        <time>2020-10-12T06:21:44Z</time>
      </trkpt>
      <trkpt lat="38.2325530" lon="-1.0482050">
        <ele>223.2</ele>
        <time>2020-10-12T06:21:45Z</time>
      </trkpt>
      <trkpt lat="38.2325700" lon="-1.0481520">
        <ele>223.2</ele>
        <time>2020-10-12T06:21:46Z</time>
      </trkpt>
      <trkpt lat="38.2325890" lon="-1.0480980">
        <ele>223.2</ele>
        <time>2020-10-12T06:21:47Z</time>
      </trkpt>
      <trkpt lat="38.2326090" lon="-1.0480440">
        <ele>223.2</ele>
        <time>2020-10-12T06:21:48Z</time>
      </trkpt>
      <trkpt lat="38.2326290" lon="-1.0479910">
        <ele>223.0</ele>
        <time>2020-10-12T06:21:49Z</time>
      </trkpt>
      <trkpt lat="38.2326480" lon="-1.0479370">
        <ele>223.0</ele>
        <time>2020-10-12T06:21:50Z</time>
      </trkpt>
      <trkpt lat="38.2326650" lon="-1.0478830">
        <ele>223.0</ele>
        <time>2020-10-12T06:21:51Z</time>
      </trkpt>
      <trkpt lat="38.2326820" lon="-1.0478240">
        <ele>222.8</ele>
        <time>2020-10-12T06:21:52Z</time>
      </trkpt>
      <trkpt lat="38.2327000" lon="-1.0477700">
        <ele>223.2</ele>
        <time>2020-10-12T06:21:53Z</time>
      </trkpt>
      <trkpt lat="38.2327190" lon="-1.0477170">
        <ele>223.4</ele>
        <time>2020-10-12T06:21:54Z</time>
      </trkpt>
      <trkpt lat="38.2327390" lon="-1.0476640">
        <ele>223.8</ele>
        <time>2020-10-12T06:21:55Z</time>
      </trkpt>
      <trkpt lat="38.2327590" lon="-1.0476130">
        <ele>224.0</ele>
        <time>2020-10-12T06:21:56Z</time>
      </trkpt>
      <trkpt lat="38.2327770" lon="-1.0475620">
        <ele>224.2</ele>
        <time>2020-10-12T06:21:57Z</time>
      </trkpt>
      <trkpt lat="38.2327960" lon="-1.0475110">
        <ele>224.6</ele>
        <time>2020-10-12T06:21:58Z</time>
      </trkpt>
      <trkpt lat="38.2328140" lon="-1.0474610">
        <ele>224.8</ele>
        <time>2020-10-12T06:21:59Z</time>
      </trkpt>
      <trkpt lat="38.2328320" lon="-1.0474070">
        <ele>225.0</ele>
        <time>2020-10-12T06:22:00Z</time>
      </trkpt>
      <trkpt lat="38.2328480" lon="-1.0473540">
        <ele>225.0</ele>
        <time>2020-10-12T06:22:01Z</time>
      </trkpt>
      <trkpt lat="38.2328650" lon="-1.0473010">
        <ele>225.2</ele>
        <time>2020-10-12T06:22:02Z</time>
      </trkpt>
      <trkpt lat="38.2328830" lon="-1.0472500">
        <ele>225.4</ele>
        <time>2020-10-12T06:22:03Z</time>
      </trkpt>
      <trkpt lat="38.2329000" lon="-1.0471980">
        <ele>225.6</ele>
        <time>2020-10-12T06:22:04Z</time>
      </trkpt>
      <trkpt lat="38.2329180" lon="-1.0471470">
        <ele>225.8</ele>
        <time>2020-10-12T06:22:05Z</time>
      </trkpt>
      <trkpt lat="38.2329360" lon="-1.0470970">
        <ele>225.8</ele>
        <time>2020-10-12T06:22:06Z</time>
      </trkpt>
      <trkpt lat="38.2329540" lon="-1.0470470">
        <ele>226.0</ele>
        <time>2020-10-12T06:22:07Z</time>
      </trkpt>
      <trkpt lat="38.2329720" lon="-1.0469940">
        <ele>226.2</ele>
        <time>2020-10-12T06:22:08Z</time>
      </trkpt>
      <trkpt lat="38.2329890" lon="-1.0469410">
        <ele>226.4</ele>
        <time>2020-10-12T06:22:09Z</time>
      </trkpt>
      <trkpt lat="38.2330070" lon="-1.0468920">
        <ele>226.4</ele>
        <time>2020-10-12T06:22:10Z</time>
      </trkpt>
      <trkpt lat="38.2330260" lon="-1.0468400">
        <ele>226.6</ele>
        <time>2020-10-12T06:22:11Z</time>
      </trkpt>
      <trkpt lat="38.2330440" lon="-1.0467870">
        <ele>226.6</ele>
        <time>2020-10-12T06:22:12Z</time>
      </trkpt>
      <trkpt lat="38.2330640" lon="-1.0467330">
        <ele>226.6</ele>
        <time>2020-10-12T06:22:13Z</time>
      </trkpt>
      <trkpt lat="38.2330840" lon="-1.0466800">
        <ele>226.8</ele>
        <time>2020-10-12T06:22:14Z</time>
      </trkpt>
      <trkpt lat="38.2331030" lon="-1.0466250">
        <ele>226.8</ele>
        <time>2020-10-12T06:22:15Z</time>
      </trkpt>
      <trkpt lat="38.2331210" lon="-1.0465690">
        <ele>227.0</ele>
        <time>2020-10-12T06:22:16Z</time>
      </trkpt>
      <trkpt lat="38.2331380" lon="-1.0465120">
        <ele>227.0</ele>
        <time>2020-10-12T06:22:17Z</time>
      </trkpt>
      <trkpt lat="38.2331580" lon="-1.0464550">
        <ele>227.0</ele>
        <time>2020-10-12T06:22:18Z</time>
      </trkpt>
      <trkpt lat="38.2331760" lon="-1.0463980">
        <ele>227.0</ele>
        <time>2020-10-12T06:22:19Z</time>
      </trkpt>
      <trkpt lat="38.2331930" lon="-1.0463390">
        <ele>227.0</ele>
        <time>2020-10-12T06:22:20Z</time>
      </trkpt>
      <trkpt lat="38.2332070" lon="-1.0462800">
        <ele>227.0</ele>
        <time>2020-10-12T06:22:21Z</time>
      </trkpt>
      <trkpt lat="38.2332210" lon="-1.0462210">
        <ele>227.2</ele>
        <time>2020-10-12T06:22:22Z</time>
      </trkpt>
      <trkpt lat="38.2332380" lon="-1.0461630">
        <ele>227.4</ele>
        <time>2020-10-12T06:22:23Z</time>
      </trkpt>
      <trkpt lat="38.2332550" lon="-1.0461030">
        <ele>227.6</ele>
        <time>2020-10-12T06:22:24Z</time>
      </trkpt>
      <trkpt lat="38.2332700" lon="-1.0460430">
        <ele>227.8</ele>
        <time>2020-10-12T06:22:25Z</time>
      </trkpt>
      <trkpt lat="38.2332850" lon="-1.0459850">
        <ele>227.8</ele>
        <time>2020-10-12T06:22:26Z</time>
      </trkpt>
      <trkpt lat="38.2333010" lon="-1.0459250">
        <ele>228.0</ele>
        <time>2020-10-12T06:22:27Z</time>
      </trkpt>
      <trkpt lat="38.2333170" lon="-1.0458660">
        <ele>228.0</ele>
        <time>2020-10-12T06:22:28Z</time>
      </trkpt>
      <trkpt lat="38.2333330" lon="-1.0458070">
        <ele>228.0</ele>
        <time>2020-10-12T06:22:29Z</time>
      </trkpt>
      <trkpt lat="38.2333480" lon="-1.0457480">
        <ele>228.0</ele>
        <time>2020-10-12T06:22:30Z</time>
      </trkpt>
      <trkpt lat="38.2333650" lon="-1.0456870">
        <ele>228.0</ele>
        <time>2020-10-12T06:22:31Z</time>
      </trkpt>
      <trkpt lat="38.2333810" lon="-1.0456270">
        <ele>228.0</ele>
        <time>2020-10-12T06:22:32Z</time>
      </trkpt>
      <trkpt lat="38.2333970" lon="-1.0455680">
        <ele>228.2</ele>
        <time>2020-10-12T06:22:33Z</time>
      </trkpt>
      <trkpt lat="38.2334150" lon="-1.0455090">
        <ele>228.4</ele>
        <time>2020-10-12T06:22:34Z</time>
      </trkpt>
      <trkpt lat="38.2334330" lon="-1.0454510">
        <ele>228.6</ele>
        <time>2020-10-12T06:22:35Z</time>
      </trkpt>
      <trkpt lat="38.2334500" lon="-1.0453950">
        <ele>228.6</ele>
        <time>2020-10-12T06:22:36Z</time>
      </trkpt>
      <trkpt lat="38.2334670" lon="-1.0453400">
        <ele>228.8</ele>
        <time>2020-10-12T06:22:37Z</time>
      </trkpt>
      <trkpt lat="38.2334830" lon="-1.0452830">
        <ele>228.8</ele>
        <time>2020-10-12T06:22:38Z</time>
      </trkpt>
      <trkpt lat="38.2335020" lon="-1.0452290">
        <ele>228.8</ele>
        <time>2020-10-12T06:22:39Z</time>
      </trkpt>
      <trkpt lat="38.2335250" lon="-1.0451760">
        <ele>228.8</ele>
        <time>2020-10-12T06:22:40Z</time>
      </trkpt>
      <trkpt lat="38.2335470" lon="-1.0451200">
        <ele>229.0</ele>
        <time>2020-10-12T06:22:41Z</time>
      </trkpt>
      <trkpt lat="38.2335690" lon="-1.0450640">
        <ele>229.0</ele>
        <time>2020-10-12T06:22:42Z</time>
      </trkpt>
      <trkpt lat="38.2335920" lon="-1.0450110">
        <ele>229.2</ele>
        <time>2020-10-12T06:22:43Z</time>
      </trkpt>
      <trkpt lat="38.2336180" lon="-1.0449620">
        <ele>229.2</ele>
        <time>2020-10-12T06:22:44Z</time>
      </trkpt>
      <trkpt lat="38.2336460" lon="-1.0449100">
        <ele>229.4</ele>
        <time>2020-10-12T06:22:45Z</time>
      </trkpt>
      <trkpt lat="38.2336760" lon="-1.0448620">
        <ele>229.4</ele>
        <time>2020-10-12T06:22:46Z</time>
      </trkpt>
      <trkpt lat="38.2337090" lon="-1.0448140">
        <ele>229.6</ele>
        <time>2020-10-12T06:22:47Z</time>
      </trkpt>
      <trkpt lat="38.2337410" lon="-1.0447650">
        <ele>229.6</ele>
        <time>2020-10-12T06:22:48Z</time>
      </trkpt>
      <trkpt lat="38.2337740" lon="-1.0447140">
        <ele>229.6</ele>
        <time>2020-10-12T06:22:49Z</time>
      </trkpt>
      <trkpt lat="38.2338070" lon="-1.0446630">
        <ele>229.4</ele>
        <time>2020-10-12T06:22:50Z</time>
      </trkpt>
      <trkpt lat="38.2338390" lon="-1.0446100">
        <ele>229.4</ele>
        <time>2020-10-12T06:22:51Z</time>
      </trkpt>
      <trkpt lat="38.2338730" lon="-1.0445560">
        <ele>229.4</ele>
        <time>2020-10-12T06:22:52Z</time>
      </trkpt>
      <trkpt lat="38.2339050" lon="-1.0445030">
        <ele>229.4</ele>
        <time>2020-10-12T06:22:53Z</time>
      </trkpt>
      <trkpt lat="38.2339380" lon="-1.0444510">
        <ele>229.4</ele>
        <time>2020-10-12T06:22:54Z</time>
      </trkpt>
      <trkpt lat="38.2339710" lon="-1.0443980">
        <ele>229.4</ele>
        <time>2020-10-12T06:22:55Z</time>
      </trkpt>
      <trkpt lat="38.2340000" lon="-1.0443500">
        <ele>229.4</ele>
        <time>2020-10-12T06:22:56Z</time>
      </trkpt>
      <trkpt lat="38.2340300" lon="-1.0443030">
        <ele>229.6</ele>
        <time>2020-10-12T06:22:57Z</time>
      </trkpt>
      <trkpt lat="38.2340590" lon="-1.0442560">
        <ele>229.8</ele>
        <time>2020-10-12T06:22:58Z</time>
      </trkpt>
      <trkpt lat="38.2340870" lon="-1.0442090">
        <ele>230.0</ele>
        <time>2020-10-12T06:22:59Z</time>
      </trkpt>
      <trkpt lat="38.2341160" lon="-1.0441640">
        <ele>230.2</ele>
        <time>2020-10-12T06:23:00Z</time>
      </trkpt>
      <trkpt lat="38.2341470" lon="-1.0441210">
        <ele>230.6</ele>
        <time>2020-10-12T06:23:01Z</time>
      </trkpt>
      <trkpt lat="38.2341770" lon="-1.0440820">
        <ele>230.8</ele>
        <time>2020-10-12T06:23:02Z</time>
      </trkpt>
      <trkpt lat="38.2342070" lon="-1.0440420">
        <ele>231.2</ele>
        <time>2020-10-12T06:23:03Z</time>
      </trkpt>
      <trkpt lat="38.2342360" lon="-1.0440030">
        <ele>231.4</ele>
        <time>2020-10-12T06:23:04Z</time>
      </trkpt>
      <trkpt lat="38.2342670" lon="-1.0439650">
        <ele>231.6</ele>
        <time>2020-10-12T06:23:05Z</time>
      </trkpt>
      <trkpt lat="38.2342970" lon="-1.0439290">
        <ele>231.8</ele>
        <time>2020-10-12T06:23:06Z</time>
      </trkpt>
      <trkpt lat="38.2343290" lon="-1.0438930">
        <ele>232.0</ele>
        <time>2020-10-12T06:23:07Z</time>
      </trkpt>
      <trkpt lat="38.2343590" lon="-1.0438580">
        <ele>232.2</ele>
        <time>2020-10-12T06:23:08Z</time>
      </trkpt>
      <trkpt lat="38.2343920" lon="-1.0438250">
        <ele>232.4</ele>
        <time>2020-10-12T06:23:09Z</time>
      </trkpt>
      <trkpt lat="38.2344280" lon="-1.0437940">
        <ele>232.8</ele>
        <time>2020-10-12T06:23:10Z</time>
      </trkpt>
      <trkpt lat="38.2344610" lon="-1.0437620">
        <ele>233.0</ele>
        <time>2020-10-12T06:23:11Z</time>
      </trkpt>
      <trkpt lat="38.2344950" lon="-1.0437310">
        <ele>233.2</ele>
        <time>2020-10-12T06:23:12Z</time>
      </trkpt>
      <trkpt lat="38.2345310" lon="-1.0437000">
        <ele>233.4</ele>
        <time>2020-10-12T06:23:13Z</time>
      </trkpt>
      <trkpt lat="38.2345710" lon="-1.0436690">
        <ele>233.6</ele>
        <time>2020-10-12T06:23:14Z</time>
      </trkpt>
      <trkpt lat="38.2346110" lon="-1.0436380">
        <ele>233.6</ele>
        <time>2020-10-12T06:23:15Z</time>
      </trkpt>
      <trkpt lat="38.2346520" lon="-1.0436070">
        <ele>233.8</ele>
        <time>2020-10-12T06:23:16Z</time>
      </trkpt>
      <trkpt lat="38.2346900" lon="-1.0435770">
        <ele>233.8</ele>
        <time>2020-10-12T06:23:17Z</time>
      </trkpt>
      <trkpt lat="38.2347290" lon="-1.0435450">
        <ele>234.0</ele>
        <time>2020-10-12T06:23:18Z</time>
      </trkpt>
      <trkpt lat="38.2347690" lon="-1.0435130">
        <ele>234.0</ele>
        <time>2020-10-12T06:23:19Z</time>
      </trkpt>
      <trkpt lat="38.2348080" lon="-1.0434810">
        <ele>234.0</ele>
        <time>2020-10-12T06:23:20Z</time>
      </trkpt>
      <trkpt lat="38.2348470" lon="-1.0434500">
        <ele>234.2</ele>
        <time>2020-10-12T06:23:21Z</time>
      </trkpt>
      <trkpt lat="38.2348870" lon="-1.0434190">
        <ele>234.2</ele>
        <time>2020-10-12T06:23:22Z</time>
      </trkpt>
      <trkpt lat="38.2349280" lon="-1.0433860">
        <ele>234.2</ele>
        <time>2020-10-12T06:23:23Z</time>
      </trkpt>
      <trkpt lat="38.2349660" lon="-1.0433530">
        <ele>234.2</ele>
        <time>2020-10-12T06:23:24Z</time>
      </trkpt>
      <trkpt lat="38.2350040" lon="-1.0433180">
        <ele>234.4</ele>
        <time>2020-10-12T06:23:25Z</time>
      </trkpt>
      <trkpt lat="38.2350420" lon="-1.0432830">
        <ele>234.6</ele>
        <time>2020-10-12T06:23:26Z</time>
      </trkpt>
      <trkpt lat="38.2350810" lon="-1.0432500">
        <ele>234.8</ele>
        <time>2020-10-12T06:23:27Z</time>
      </trkpt>
      <trkpt lat="38.2351190" lon="-1.0432160">
        <ele>234.8</ele>
        <time>2020-10-12T06:23:28Z</time>
      </trkpt>
      <trkpt lat="38.2351580" lon="-1.0431820">
        <ele>235.0</ele>
        <time>2020-10-12T06:23:29Z</time>
      </trkpt>
      <trkpt lat="38.2351990" lon="-1.0431480">
        <ele>235.2</ele>
        <time>2020-10-12T06:23:30Z</time>
      </trkpt>
      <trkpt lat="38.2352390" lon="-1.0431160">
        <ele>235.4</ele>
        <time>2020-10-12T06:23:31Z</time>
      </trkpt>
      <trkpt lat="38.2352800" lon="-1.0430850">
        <ele>235.8</ele>
        <time>2020-10-12T06:23:32Z</time>
      </trkpt>
      <trkpt lat="38.2353190" lon="-1.0430530">
        <ele>236.2</ele>
        <time>2020-10-12T06:23:33Z</time>
      </trkpt>
      <trkpt lat="38.2353580" lon="-1.0430210">
        <ele>236.4</ele>
        <time>2020-10-12T06:23:34Z</time>
      </trkpt>
      <trkpt lat="38.2353970" lon="-1.0429910">
        <ele>236.6</ele>
        <time>2020-10-12T06:23:35Z</time>
      </trkpt>
      <trkpt lat="38.2354370" lon="-1.0429610">
        <ele>236.6</ele>
        <time>2020-10-12T06:23:36Z</time>
      </trkpt>
      <trkpt lat="38.2354750" lon="-1.0429320">
        <ele>236.8</ele>
        <time>2020-10-12T06:23:37Z</time>
      </trkpt>
      <trkpt lat="38.2355120" lon="-1.0429050">
        <ele>236.8</ele>
        <time>2020-10-12T06:23:38Z</time>
      </trkpt>
      <trkpt lat="38.2355480" lon="-1.0428800">
        <ele>237.0</ele>
        <time>2020-10-12T06:23:39Z</time>
      </trkpt>
      <trkpt lat="38.2355840" lon="-1.0428570">
        <ele>237.2</ele>
        <time>2020-10-12T06:23:40Z</time>
      </trkpt>
      <trkpt lat="38.2356200" lon="-1.0428330">
        <ele>237.4</ele>
        <time>2020-10-12T06:23:41Z</time>
      </trkpt>
      <trkpt lat="38.2356570" lon="-1.0428090">
        <ele>237.6</ele>
        <time>2020-10-12T06:23:42Z</time>
      </trkpt>
      <trkpt lat="38.2356940" lon="-1.0427830">
        <ele>237.8</ele>
        <time>2020-10-12T06:23:43Z</time>
      </trkpt>
      <trkpt lat="38.2357310" lon="-1.0427570">
        <ele>238.0</ele>
        <time>2020-10-12T06:23:44Z</time>
      </trkpt>
      <trkpt lat="38.2357690" lon="-1.0427280">
        <ele>238.0</ele>
        <time>2020-10-12T06:23:45Z</time>
      </trkpt>
      <trkpt lat="38.2358060" lon="-1.0427000">
        <ele>238.0</ele>
        <time>2020-10-12T06:23:46Z</time>
      </trkpt>
      <trkpt lat="38.2358430" lon="-1.0426740">
        <ele>238.2</ele>
        <time>2020-10-12T06:23:47Z</time>
      </trkpt>
      <trkpt lat="38.2358800" lon="-1.0426460">
        <ele>238.2</ele>
        <time>2020-10-12T06:23:48Z</time>
      </trkpt>
      <trkpt lat="38.2359190" lon="-1.0426180">
        <ele>238.2</ele>
        <time>2020-10-12T06:23:49Z</time>
      </trkpt>
      <trkpt lat="38.2359560" lon="-1.0425900">
        <ele>238.2</ele>
        <time>2020-10-12T06:23:50Z</time>
      </trkpt>
      <trkpt lat="38.2359930" lon="-1.0425630">
        <ele>238.4</ele>
        <time>2020-10-12T06:23:51Z</time>
      </trkpt>
      <trkpt lat="38.2360310" lon="-1.0425380">
        <ele>238.6</ele>
        <time>2020-10-12T06:23:52Z</time>
      </trkpt>
      <trkpt lat="38.2360700" lon="-1.0425120">
        <ele>238.6</ele>
        <time>2020-10-12T06:23:53Z</time>
      </trkpt>
      <trkpt lat="38.2361090" lon="-1.0424860">
        <ele>238.8</ele>
        <time>2020-10-12T06:23:54Z</time>
      </trkpt>
      <trkpt lat="38.2361480" lon="-1.0424600">
        <ele>239.0</ele>
        <time>2020-10-12T06:23:55Z</time>
      </trkpt>
      <trkpt lat="38.2361860" lon="-1.0424360">
        <ele>239.4</ele>
        <time>2020-10-12T06:23:56Z</time>
      </trkpt>
      <trkpt lat="38.2362250" lon="-1.0424100">
        <ele>239.6</ele>
        <time>2020-10-12T06:23:57Z</time>
      </trkpt>
      <trkpt lat="38.2362650" lon="-1.0423860">
        <ele>240.0</ele>
        <time>2020-10-12T06:23:58Z</time>
      </trkpt>
      <trkpt lat="38.2363050" lon="-1.0423630">
        <ele>240.2</ele>
        <time>2020-10-12T06:23:59Z</time>
      </trkpt>
      <trkpt lat="38.2363450" lon="-1.0423420">
        <ele>240.2</ele>
        <time>2020-10-12T06:24:00Z</time>
      </trkpt>
      <trkpt lat="38.2363830" lon="-1.0423220">
        <ele>240.4</ele>
        <time>2020-10-12T06:24:01Z</time>
      </trkpt>
      <trkpt lat="38.2364240" lon="-1.0423040">
        <ele>240.6</ele>
        <time>2020-10-12T06:24:02Z</time>
      </trkpt>
      <trkpt lat="38.2364640" lon="-1.0422880">
        <ele>240.8</ele>
        <time>2020-10-12T06:24:03Z</time>
      </trkpt>
      <trkpt lat="38.2365050" lon="-1.0422750">
        <ele>241.0</ele>
        <time>2020-10-12T06:24:04Z</time>
      </trkpt>
      <trkpt lat="38.2365480" lon="-1.0422610">
        <ele>241.2</ele>
        <time>2020-10-12T06:24:05Z</time>
      </trkpt>
      <trkpt lat="38.2365900" lon="-1.0422490">
        <ele>241.2</ele>
        <time>2020-10-12T06:24:06Z</time>
      </trkpt>
      <trkpt lat="38.2366330" lon="-1.0422370">
        <ele>241.4</ele>
        <time>2020-10-12T06:24:07Z</time>
      </trkpt>
      <trkpt lat="38.2366760" lon="-1.0422220">
        <ele>241.4</ele>
        <time>2020-10-12T06:24:08Z</time>
      </trkpt>
      <trkpt lat="38.2367200" lon="-1.0422040">
        <ele>241.4</ele>
        <time>2020-10-12T06:24:09Z</time>
      </trkpt>
      <trkpt lat="38.2367620" lon="-1.0421810">
        <ele>241.6</ele>
        <time>2020-10-12T06:24:10Z</time>
      </trkpt>
      <trkpt lat="38.2368030" lon="-1.0421560">
        <ele>241.6</ele>
        <time>2020-10-12T06:24:11Z</time>
      </trkpt>
      <trkpt lat="38.2368440" lon="-1.0421290">
        <ele>241.8</ele>
        <time>2020-10-12T06:24:12Z</time>
      </trkpt>
      <trkpt lat="38.2368860" lon="-1.0421000">
        <ele>241.8</ele>
        <time>2020-10-12T06:24:13Z</time>
      </trkpt>
      <trkpt lat="38.2369260" lon="-1.0420700">
        <ele>242.0</ele>
        <time>2020-10-12T06:24:14Z</time>
      </trkpt>
      <trkpt lat="38.2369660" lon="-1.0420380">
        <ele>242.0</ele>
        <time>2020-10-12T06:24:15Z</time>
      </trkpt>
      <trkpt lat="38.2370060" lon="-1.0420090">
        <ele>242.2</ele>
        <time>2020-10-12T06:24:16Z</time>
      </trkpt>
      <trkpt lat="38.2370460" lon="-1.0419810">
        <ele>242.4</ele>
        <time>2020-10-12T06:24:17Z</time>
      </trkpt>
      <trkpt lat="38.2370850" lon="-1.0419530">
        <ele>242.6</ele>
        <time>2020-10-12T06:24:18Z</time>
      </trkpt>
      <trkpt lat="38.2371240" lon="-1.0419260">
        <ele>242.8</ele>
        <time>2020-10-12T06:24:19Z</time>
      </trkpt>
      <trkpt lat="38.2371650" lon="-1.0418970">
        <ele>243.0</ele>
        <time>2020-10-12T06:24:20Z</time>
      </trkpt>
      <trkpt lat="38.2372040" lon="-1.0418700">
        <ele>243.0</ele>
        <time>2020-10-12T06:24:21Z</time>
      </trkpt>
      <trkpt lat="38.2372450" lon="-1.0418430">
        <ele>243.0</ele>
        <time>2020-10-12T06:24:22Z</time>
      </trkpt>
      <trkpt lat="38.2372860" lon="-1.0418140">
        <ele>243.0</ele>
        <time>2020-10-12T06:24:23Z</time>
      </trkpt>
      <trkpt lat="38.2373260" lon="-1.0417880">
        <ele>243.2</ele>
        <time>2020-10-12T06:24:24Z</time>
      </trkpt>
      <trkpt lat="38.2373660" lon="-1.0417620">
        <ele>243.2</ele>
        <time>2020-10-12T06:24:25Z</time>
      </trkpt>
      <trkpt lat="38.2374060" lon="-1.0417350">
        <ele>243.2</ele>
        <time>2020-10-12T06:24:26Z</time>
      </trkpt>
      <trkpt lat="38.2374470" lon="-1.0417090">
        <ele>243.4</ele>
        <time>2020-10-12T06:24:27Z</time>
      </trkpt>
      <trkpt lat="38.2374880" lon="-1.0416830">
        <ele>243.4</ele>
        <time>2020-10-12T06:24:28Z</time>
      </trkpt>
      <trkpt lat="38.2375270" lon="-1.0416560">
        <ele>243.6</ele>
        <time>2020-10-12T06:24:29Z</time>
      </trkpt>
      <trkpt lat="38.2375660" lon="-1.0416280">
        <ele>243.6</ele>
        <time>2020-10-12T06:24:30Z</time>
      </trkpt>
      <trkpt lat="38.2376080" lon="-1.0416010">
        <ele>243.6</ele>
        <time>2020-10-12T06:24:31Z</time>
      </trkpt>
      <trkpt lat="38.2376500" lon="-1.0415740">
        <ele>243.4</ele>
        <time>2020-10-12T06:24:32Z</time>
      </trkpt>
      <trkpt lat="38.2376920" lon="-1.0415460">
        <ele>243.6</ele>
        <time>2020-10-12T06:24:33Z</time>
      </trkpt>
      <trkpt lat="38.2377350" lon="-1.0415180">
        <ele>243.6</ele>
        <time>2020-10-12T06:24:34Z</time>
      </trkpt>
      <trkpt lat="38.2377770" lon="-1.0414910">
        <ele>244.0</ele>
        <time>2020-10-12T06:24:35Z</time>
      </trkpt>
      <trkpt lat="38.2378180" lon="-1.0414640">
        <ele>244.2</ele>
        <time>2020-10-12T06:24:36Z</time>
      </trkpt>
      <trkpt lat="38.2378600" lon="-1.0414370">
        <ele>244.4</ele>
        <time>2020-10-12T06:24:37Z</time>
      </trkpt>
      <trkpt lat="38.2379020" lon="-1.0414100">
        <ele>244.6</ele>
        <time>2020-10-12T06:24:38Z</time>
      </trkpt>
      <trkpt lat="38.2379450" lon="-1.0413820">
        <ele>244.6</ele>
        <time>2020-10-12T06:24:39Z</time>
      </trkpt>
      <trkpt lat="38.2379880" lon="-1.0413520">
        <ele>244.6</ele>
        <time>2020-10-12T06:24:40Z</time>
      </trkpt>
      <trkpt lat="38.2380310" lon="-1.0413230">
        <ele>244.8</ele>
        <time>2020-10-12T06:24:41Z</time>
      </trkpt>
      <trkpt lat="38.2380740" lon="-1.0412930">
        <ele>244.8</ele>
        <time>2020-10-12T06:24:42Z</time>
      </trkpt>
      <trkpt lat="38.2381170" lon="-1.0412640">
        <ele>245.0</ele>
        <time>2020-10-12T06:24:43Z</time>
      </trkpt>
      <trkpt lat="38.2381570" lon="-1.0412340">
        <ele>244.8</ele>
        <time>2020-10-12T06:24:44Z</time>
      </trkpt>
      <trkpt lat="38.2381930" lon="-1.0412010">
        <ele>244.6</ele>
        <time>2020-10-12T06:24:45Z</time>
      </trkpt>
      <trkpt lat="38.2382330" lon="-1.0411680">
        <ele>244.6</ele>
        <time>2020-10-12T06:24:46Z</time>
      </trkpt>
      <trkpt lat="38.2382730" lon="-1.0411340">
        <ele>244.6</ele>
        <time>2020-10-12T06:24:47Z</time>
      </trkpt>
      <trkpt lat="38.2383120" lon="-1.0410980">
        <ele>244.4</ele>
        <time>2020-10-12T06:24:48Z</time>
      </trkpt>
      <trkpt lat="38.2383530" lon="-1.0410620">
        <ele>244.2</ele>
        <time>2020-10-12T06:24:49Z</time>
      </trkpt>
      <trkpt lat="38.2383970" lon="-1.0410270">
        <ele>244.2</ele>
        <time>2020-10-12T06:24:50Z</time>
      </trkpt>
      <trkpt lat="38.2384390" lon="-1.0409910">
        <ele>244.2</ele>
        <time>2020-10-12T06:24:51Z</time>
      </trkpt>
      <trkpt lat="38.2384820" lon="-1.0409560">
        <ele>244.2</ele>
        <time>2020-10-12T06:24:52Z</time>
      </trkpt>
      <trkpt lat="38.2385250" lon="-1.0409230">
        <ele>244.2</ele>
        <time>2020-10-12T06:24:53Z</time>
      </trkpt>
      <trkpt lat="38.2385670" lon="-1.0408900">
        <ele>244.4</ele>
        <time>2020-10-12T06:24:54Z</time>
      </trkpt>
      <trkpt lat="38.2386080" lon="-1.0408560">
        <ele>244.4</ele>
        <time>2020-10-12T06:24:55Z</time>
      </trkpt>
      <trkpt lat="38.2386530" lon="-1.0408240">
        <ele>244.6</ele>
        <time>2020-10-12T06:24:56Z</time>
      </trkpt>
      <trkpt lat="38.2386950" lon="-1.0407920">
        <ele>244.6</ele>
        <time>2020-10-12T06:24:57Z</time>
      </trkpt>
      <trkpt lat="38.2387360" lon="-1.0407600">
        <ele>244.8</ele>
        <time>2020-10-12T06:24:58Z</time>
      </trkpt>
      <trkpt lat="38.2387780" lon="-1.0407300">
        <ele>244.8</ele>
        <time>2020-10-12T06:24:59Z</time>
      </trkpt>
      <trkpt lat="38.2388240" lon="-1.0407010">
        <ele>244.8</ele>
        <time>2020-10-12T06:25:00Z</time>
      </trkpt>
      <trkpt lat="38.2388680" lon="-1.0406710">
        <ele>245.0</ele>
        <time>2020-10-12T06:25:01Z</time>
      </trkpt>
      <trkpt lat="38.2389120" lon="-1.0406400">
        <ele>245.2</ele>
        <time>2020-10-12T06:25:02Z</time>
      </trkpt>
      <trkpt lat="38.2389560" lon="-1.0406070">
        <ele>245.2</ele>
        <time>2020-10-12T06:25:03Z</time>
      </trkpt>
      <trkpt lat="38.2389970" lon="-1.0405770">
        <ele>245.4</ele>
        <time>2020-10-12T06:25:04Z</time>
      </trkpt>
      <trkpt lat="38.2390370" lon="-1.0405490">
        <ele>245.4</ele>
        <time>2020-10-12T06:25:05Z</time>
      </trkpt>
      <trkpt lat="38.2390770" lon="-1.0405230">
        <ele>245.6</ele>
        <time>2020-10-12T06:25:06Z</time>
      </trkpt>
      <trkpt lat="38.2391180" lon="-1.0404960">
        <ele>245.6</ele>
        <time>2020-10-12T06:25:07Z</time>
      </trkpt>
      <trkpt lat="38.2391570" lon="-1.0404700">
        <ele>245.8</ele>
        <time>2020-10-12T06:25:08Z</time>
      </trkpt>
      <trkpt lat="38.2391950" lon="-1.0404430">
        <ele>245.8</ele>
        <time>2020-10-12T06:25:09Z</time>
      </trkpt>
      <trkpt lat="38.2392360" lon="-1.0404140">
        <ele>246.0</ele>
        <time>2020-10-12T06:25:10Z</time>
      </trkpt>
      <trkpt lat="38.2392790" lon="-1.0403860">
        <ele>246.0</ele>
        <time>2020-10-12T06:25:11Z</time>
      </trkpt>
      <trkpt lat="38.2393210" lon="-1.0403640">
        <ele>246.2</ele>
        <time>2020-10-12T06:25:12Z</time>
      </trkpt>
      <trkpt lat="38.2393650" lon="-1.0403450">
        <ele>246.4</ele>
        <time>2020-10-12T06:25:13Z</time>
      </trkpt>
      <trkpt lat="38.2394090" lon="-1.0403230">
        <ele>246.6</ele>
        <time>2020-10-12T06:25:14Z</time>
      </trkpt>
      <trkpt lat="38.2394570" lon="-1.0403040">
        <ele>246.8</ele>
        <time>2020-10-12T06:25:15Z</time>
      </trkpt>
      <trkpt lat="38.2395050" lon="-1.0402870">
        <ele>247.0</ele>
        <time>2020-10-12T06:25:16Z</time>
      </trkpt>
      <trkpt lat="38.2395470" lon="-1.0402670">
        <ele>247.0</ele>
        <time>2020-10-12T06:25:17Z</time>
      </trkpt>
      <trkpt lat="38.2395860" lon="-1.0402440">
        <ele>247.2</ele>
        <time>2020-10-12T06:25:18Z</time>
      </trkpt>
      <trkpt lat="38.2396270" lon="-1.0402180">
        <ele>247.2</ele>
        <time>2020-10-12T06:25:19Z</time>
      </trkpt>
      <trkpt lat="38.2396700" lon="-1.0401930">
        <ele>247.4</ele>
        <time>2020-10-12T06:25:20Z</time>
      </trkpt>
      <trkpt lat="38.2397510" lon="-1.0401830">
        <ele>247.6</ele>
        <time>2020-10-12T06:25:21Z</time>
      </trkpt>
      <trkpt lat="38.2397950" lon="-1.0401610">
        <ele>247.6</ele>
        <time>2020-10-12T06:25:22Z</time>
      </trkpt>
      <trkpt lat="38.2398380" lon="-1.0401380">
        <ele>247.8</ele>
        <time>2020-10-12T06:25:23Z</time>
      </trkpt>
      <trkpt lat="38.2398900" lon="-1.0401100">
        <ele>248.0</ele>
        <time>2020-10-12T06:25:24Z</time>
      </trkpt>
      <trkpt lat="38.2399340" lon="-1.0400810">
        <ele>248.2</ele>
        <time>2020-10-12T06:25:25Z</time>
      </trkpt>
      <trkpt lat="38.2399770" lon="-1.0400520">
        <ele>248.2</ele>
        <time>2020-10-12T06:25:26Z</time>
      </trkpt>
      <trkpt lat="38.2400230" lon="-1.0400270">
        <ele>248.2</ele>
        <time>2020-10-12T06:25:27Z</time>
      </trkpt>
      <trkpt lat="38.2400630" lon="-1.0399980">
        <ele>248.2</ele>
        <time>2020-10-12T06:25:28Z</time>
      </trkpt>
      <trkpt lat="38.2401000" lon="-1.0399680">
        <ele>248.2</ele>
        <time>2020-10-12T06:25:29Z</time>
      </trkpt>
      <trkpt lat="38.2401350" lon="-1.0399340">
        <ele>248.2</ele>
        <time>2020-10-12T06:25:30Z</time>
      </trkpt>
      <trkpt lat="38.2401740" lon="-1.0398990">
        <ele>248.2</ele>
        <time>2020-10-12T06:25:31Z</time>
      </trkpt>
      <trkpt lat="38.2402130" lon="-1.0398660">
        <ele>248.2</ele>
        <time>2020-10-12T06:25:32Z</time>
      </trkpt>
      <trkpt lat="38.2402470" lon="-1.0398290">
        <ele>248.4</ele>
        <time>2020-10-12T06:25:33Z</time>
      </trkpt>
      <trkpt lat="38.2402890" lon="-1.0397950">
        <ele>248.6</ele>
        <time>2020-10-12T06:25:34Z</time>
      </trkpt>
      <trkpt lat="38.2403340" lon="-1.0397640">
        <ele>248.8</ele>
        <time>2020-10-12T06:25:35Z</time>
      </trkpt>
      <trkpt lat="38.2403750" lon="-1.0397290">
        <ele>248.8</ele>
        <time>2020-10-12T06:25:36Z</time>
      </trkpt>
      <trkpt lat="38.2404160" lon="-1.0396960">
        <ele>249.0</ele>
        <time>2020-10-12T06:25:37Z</time>
      </trkpt>
      <trkpt lat="38.2404540" lon="-1.0396620">
        <ele>249.0</ele>
        <time>2020-10-12T06:25:38Z</time>
      </trkpt>
      <trkpt lat="38.2404900" lon="-1.0396290">
        <ele>249.2</ele>
        <time>2020-10-12T06:25:39Z</time>
      </trkpt>
      <trkpt lat="38.2405320" lon="-1.0395980">
        <ele>249.2</ele>
        <time>2020-10-12T06:25:40Z</time>
      </trkpt>
      <trkpt lat="38.2405710" lon="-1.0395690">
        <ele>249.2</ele>
        <time>2020-10-12T06:25:41Z</time>
      </trkpt>
      <trkpt lat="38.2406090" lon="-1.0395400">
        <ele>248.8</ele>
        <time>2020-10-12T06:25:42Z</time>
      </trkpt>
      <trkpt lat="38.2406480" lon="-1.0395110">
        <ele>248.8</ele>
        <time>2020-10-12T06:25:43Z</time>
      </trkpt>
      <trkpt lat="38.2406860" lon="-1.0394810">
        <ele>248.6</ele>
        <time>2020-10-12T06:25:44Z</time>
      </trkpt>
      <trkpt lat="38.2407230" lon="-1.0394490">
        <ele>248.4</ele>
        <time>2020-10-12T06:25:45Z</time>
      </trkpt>
      <trkpt lat="38.2407630" lon="-1.0394160">
        <ele>248.2</ele>
        <time>2020-10-12T06:25:46Z</time>
      </trkpt>
      <trkpt lat="38.2408000" lon="-1.0393830">
        <ele>248.2</ele>
        <time>2020-10-12T06:25:47Z</time>
      </trkpt>
      <trkpt lat="38.2408380" lon="-1.0393510">
        <ele>248.2</ele>
        <time>2020-10-12T06:25:48Z</time>
      </trkpt>
      <trkpt lat="38.2408800" lon="-1.0393230">
        <ele>248.2</ele>
        <time>2020-10-12T06:25:49Z</time>
      </trkpt>
      <trkpt lat="38.2409200" lon="-1.0392940">
        <ele>248.4</ele>
        <time>2020-10-12T06:25:50Z</time>
      </trkpt>
      <trkpt lat="38.2409560" lon="-1.0392640">
        <ele>248.8</ele>
        <time>2020-10-12T06:25:51Z</time>
      </trkpt>
      <trkpt lat="38.2409930" lon="-1.0392330">
        <ele>249.0</ele>
        <time>2020-10-12T06:25:52Z</time>
      </trkpt>
      <trkpt lat="38.2410290" lon="-1.0392010">
        <ele>249.2</ele>
        <time>2020-10-12T06:25:53Z</time>
      </trkpt>
      <trkpt lat="38.2410650" lon="-1.0391690">
        <ele>249.6</ele>
        <time>2020-10-12T06:25:54Z</time>
      </trkpt>
      <trkpt lat="38.2411010" lon="-1.0391380">
        <ele>249.8</ele>
        <time>2020-10-12T06:25:55Z</time>
      </trkpt>
      <trkpt lat="38.2411360" lon="-1.0391060">
        <ele>250.0</ele>
        <time>2020-10-12T06:25:56Z</time>
      </trkpt>
      <trkpt lat="38.2411720" lon="-1.0390740">
        <ele>250.2</ele>
        <time>2020-10-12T06:25:57Z</time>
      </trkpt>
      <trkpt lat="38.2412070" lon="-1.0390400">
        <ele>250.4</ele>
        <time>2020-10-12T06:25:58Z</time>
      </trkpt>
      <trkpt lat="38.2412420" lon="-1.0390070">
        <ele>250.4</ele>
        <time>2020-10-12T06:25:59Z</time>
      </trkpt>
      <trkpt lat="38.2412770" lon="-1.0389710">
        <ele>250.6</ele>
        <time>2020-10-12T06:26:00Z</time>
      </trkpt>
      <trkpt lat="38.2413090" lon="-1.0389330">
        <ele>250.8</ele>
        <time>2020-10-12T06:26:01Z</time>
      </trkpt>
      <trkpt lat="38.2413430" lon="-1.0388940">
        <ele>251.0</ele>
        <time>2020-10-12T06:26:02Z</time>
      </trkpt>
      <trkpt lat="38.2413750" lon="-1.0388550">
        <ele>251.2</ele>
        <time>2020-10-12T06:26:03Z</time>
      </trkpt>
      <trkpt lat="38.2414070" lon="-1.0388160">
        <ele>251.2</ele>
        <time>2020-10-12T06:26:04Z</time>
      </trkpt>
      <trkpt lat="38.2414390" lon="-1.0387760">
        <ele>251.4</ele>
        <time>2020-10-12T06:26:05Z</time>
      </trkpt>
      <trkpt lat="38.2414700" lon="-1.0387330">
        <ele>251.4</ele>
        <time>2020-10-12T06:26:06Z</time>
      </trkpt>
      <trkpt lat="38.2414990" lon="-1.0386880">
        <ele>251.6</ele>
        <time>2020-10-12T06:26:07Z</time>
      </trkpt>
      <trkpt lat="38.2415280" lon="-1.0386410">
        <ele>251.6</ele>
        <time>2020-10-12T06:26:08Z</time>
      </trkpt>
      <trkpt lat="38.2415560" lon="-1.0385910">
        <ele>251.8</ele>
        <time>2020-10-12T06:26:09Z</time>
      </trkpt>
      <trkpt lat="38.2415830" lon="-1.0385400">
        <ele>251.8</ele>
        <time>2020-10-12T06:26:10Z</time>
      </trkpt>
      <trkpt lat="38.2416090" lon="-1.0384890">
        <ele>251.8</ele>
        <time>2020-10-12T06:26:11Z</time>
      </trkpt>
      <trkpt lat="38.2416320" lon="-1.0384380">
        <ele>251.8</ele>
        <time>2020-10-12T06:26:12Z</time>
      </trkpt>
      <trkpt lat="38.2416560" lon="-1.0383840">
        <ele>251.8</ele>
        <time>2020-10-12T06:26:13Z</time>
      </trkpt>
      <trkpt lat="38.2416790" lon="-1.0383300">
        <ele>251.8</ele>
        <time>2020-10-12T06:26:14Z</time>
      </trkpt>
      <trkpt lat="38.2417020" lon="-1.0382770">
        <ele>251.8</ele>
        <time>2020-10-12T06:26:15Z</time>
      </trkpt>
      <trkpt lat="38.2417250" lon="-1.0382230">
        <ele>251.8</ele>
        <time>2020-10-12T06:26:16Z</time>
      </trkpt>
      <trkpt lat="38.2417490" lon="-1.0381670">
        <ele>251.8</ele>
        <time>2020-10-12T06:26:17Z</time>
      </trkpt>
      <trkpt lat="38.2417710" lon="-1.0381110">
        <ele>251.8</ele>
        <time>2020-10-12T06:26:18Z</time>
      </trkpt>
      <trkpt lat="38.2417940" lon="-1.0380570">
        <ele>251.8</ele>
        <time>2020-10-12T06:26:19Z</time>
      </trkpt>
      <trkpt lat="38.2418150" lon="-1.0380050">
        <ele>252.0</ele>
        <time>2020-10-12T06:26:20Z</time>
      </trkpt>
      <trkpt lat="38.2418370" lon="-1.0379540">
        <ele>252.0</ele>
        <time>2020-10-12T06:26:21Z</time>
      </trkpt>
      <trkpt lat="38.2418590" lon="-1.0379050">
        <ele>252.0</ele>
        <time>2020-10-12T06:26:22Z</time>
      </trkpt>
      <trkpt lat="38.2418820" lon="-1.0378540">
        <ele>252.2</ele>
        <time>2020-10-12T06:26:23Z</time>
      </trkpt>
      <trkpt lat="38.2419050" lon="-1.0378070">
        <ele>252.2</ele>
        <time>2020-10-12T06:26:24Z</time>
      </trkpt>
      <trkpt lat="38.2419270" lon="-1.0377590">
        <ele>252.4</ele>
        <time>2020-10-12T06:26:25Z</time>
      </trkpt>
      <trkpt lat="38.2419490" lon="-1.0377090">
        <ele>252.6</ele>
        <time>2020-10-12T06:26:26Z</time>
      </trkpt>
      <trkpt lat="38.2419730" lon="-1.0376610">
        <ele>252.6</ele>
        <time>2020-10-12T06:26:27Z</time>
      </trkpt>
      <trkpt lat="38.2419940" lon="-1.0376120">
        <ele>252.6</ele>
        <time>2020-10-12T06:26:28Z</time>
      </trkpt>
      <trkpt lat="38.2420150" lon="-1.0375620">
        <ele>252.8</ele>
        <time>2020-10-12T06:26:29Z</time>
      </trkpt>
      <trkpt lat="38.2420360" lon="-1.0375130">
        <ele>253.0</ele>
        <time>2020-10-12T06:26:30Z</time>
      </trkpt>
      <trkpt lat="38.2420580" lon="-1.0374620">
        <ele>253.0</ele>
        <time>2020-10-12T06:26:31Z</time>
      </trkpt>
      <trkpt lat="38.2420790" lon="-1.0374130">
        <ele>253.2</ele>
        <time>2020-10-12T06:26:32Z</time>
      </trkpt>
      <trkpt lat="38.2421000" lon="-1.0373660">
        <ele>253.2</ele>
        <time>2020-10-12T06:26:33Z</time>
      </trkpt>
      <trkpt lat="38.2421210" lon="-1.0373200">
        <ele>253.4</ele>
        <time>2020-10-12T06:26:34Z</time>
      </trkpt>
      <trkpt lat="38.2421430" lon="-1.0372730">
        <ele>253.4</ele>
        <time>2020-10-12T06:26:35Z</time>
      </trkpt>
      <trkpt lat="38.2421650" lon="-1.0372240">
        <ele>253.6</ele>
        <time>2020-10-12T06:26:36Z</time>
      </trkpt>
      <trkpt lat="38.2421890" lon="-1.0371760">
        <ele>253.8</ele>
        <time>2020-10-12T06:26:37Z</time>
      </trkpt>
      <trkpt lat="38.2422150" lon="-1.0371300">
        <ele>254.0</ele>
        <time>2020-10-12T06:26:38Z</time>
      </trkpt>
      <trkpt lat="38.2422390" lon="-1.0370850">
        <ele>254.0</ele>
        <time>2020-10-12T06:26:39Z</time>
      </trkpt>
      <trkpt lat="38.2422650" lon="-1.0370430">
        <ele>254.2</ele>
        <time>2020-10-12T06:26:40Z</time>
      </trkpt>
      <trkpt lat="38.2422940" lon="-1.0370040">
        <ele>254.4</ele>
        <time>2020-10-12T06:26:41Z</time>
      </trkpt>
      <trkpt lat="38.2423260" lon="-1.0369630">
        <ele>254.8</ele>
        <time>2020-10-12T06:26:42Z</time>
      </trkpt>
      <trkpt lat="38.2423590" lon="-1.0369250">
        <ele>255.0</ele>
        <time>2020-10-12T06:26:43Z</time>
      </trkpt>
      <trkpt lat="38.2423940" lon="-1.0368880">
        <ele>255.2</ele>
        <time>2020-10-12T06:26:44Z</time>
      </trkpt>
      <trkpt lat="38.2424310" lon="-1.0368520">
        <ele>255.2</ele>
        <time>2020-10-12T06:26:45Z</time>
      </trkpt>
      <trkpt lat="38.2424690" lon="-1.0368160">
        <ele>255.2</ele>
        <time>2020-10-12T06:26:46Z</time>
      </trkpt>
      <trkpt lat="38.2425080" lon="-1.0367830">
        <ele>255.2</ele>
        <time>2020-10-12T06:26:47Z</time>
      </trkpt>
      <trkpt lat="38.2425470" lon="-1.0367480">
        <ele>255.0</ele>
        <time>2020-10-12T06:26:48Z</time>
      </trkpt>
      <trkpt lat="38.2425870" lon="-1.0367130">
        <ele>255.0</ele>
        <time>2020-10-12T06:26:49Z</time>
      </trkpt>
      <trkpt lat="38.2426270" lon="-1.0366760">
        <ele>254.8</ele>
        <time>2020-10-12T06:26:50Z</time>
      </trkpt>
      <trkpt lat="38.2426690" lon="-1.0366400">
        <ele>254.8</ele>
        <time>2020-10-12T06:26:51Z</time>
      </trkpt>
      <trkpt lat="38.2427100" lon="-1.0366020">
        <ele>254.8</ele>
        <time>2020-10-12T06:26:52Z</time>
      </trkpt>
      <trkpt lat="38.2427510" lon="-1.0365670">
        <ele>254.8</ele>
        <time>2020-10-12T06:26:53Z</time>
      </trkpt>
      <trkpt lat="38.2427920" lon="-1.0365310">
        <ele>254.6</ele>
        <time>2020-10-12T06:26:54Z</time>
      </trkpt>
      <trkpt lat="38.2428340" lon="-1.0364940">
        <ele>254.6</ele>
        <time>2020-10-12T06:26:55Z</time>
      </trkpt>
      <trkpt lat="38.2428750" lon="-1.0364560">
        <ele>254.6</ele>
        <time>2020-10-12T06:26:56Z</time>
      </trkpt>
      <trkpt lat="38.2429150" lon="-1.0364170">
        <ele>254.6</ele>
        <time>2020-10-12T06:26:57Z</time>
      </trkpt>
      <trkpt lat="38.2429580" lon="-1.0363790">
        <ele>254.6</ele>
        <time>2020-10-12T06:26:58Z</time>
      </trkpt>
      <trkpt lat="38.2429990" lon="-1.0363430">
        <ele>254.4</ele>
        <time>2020-10-12T06:26:59Z</time>
      </trkpt>
      <trkpt lat="38.2430390" lon="-1.0363100">
        <ele>254.4</ele>
        <time>2020-10-12T06:27:00Z</time>
      </trkpt>
      <trkpt lat="38.2430830" lon="-1.0362730">
        <ele>254.6</ele>
        <time>2020-10-12T06:27:01Z</time>
      </trkpt>
      <trkpt lat="38.2431220" lon="-1.0362340">
        <ele>255.0</ele>
        <time>2020-10-12T06:27:02Z</time>
      </trkpt>
      <trkpt lat="38.2431630" lon="-1.0361960">
        <ele>255.2</ele>
        <time>2020-10-12T06:27:03Z</time>
      </trkpt>
      <trkpt lat="38.2432000" lon="-1.0361600">
        <ele>255.8</ele>
        <time>2020-10-12T06:27:04Z</time>
      </trkpt>
      <trkpt lat="38.2432340" lon="-1.0361240">
        <ele>256.2</ele>
        <time>2020-10-12T06:27:05Z</time>
      </trkpt>
      <trkpt lat="38.2432670" lon="-1.0360850">
        <ele>256.8</ele>
        <time>2020-10-12T06:27:06Z</time>
      </trkpt>
      <trkpt lat="38.2432950" lon="-1.0360460">
        <ele>257.2</ele>
        <time>2020-10-12T06:27:07Z</time>
      </trkpt>
      <trkpt lat="38.2433240" lon="-1.0360080">
        <ele>257.4</ele>
        <time>2020-10-12T06:27:08Z</time>
      </trkpt>
      <trkpt lat="38.2433480" lon="-1.0359650">
        <ele>257.8</ele>
        <time>2020-10-12T06:27:09Z</time>
      </trkpt>
      <trkpt lat="38.2433670" lon="-1.0359230">
        <ele>258.4</ele>
        <time>2020-10-12T06:27:10Z</time>
      </trkpt>
      <trkpt lat="38.2433840" lon="-1.0358790">
        <ele>258.8</ele>
        <time>2020-10-12T06:27:11Z</time>
      </trkpt>
      <trkpt lat="38.2433970" lon="-1.0358360">
        <ele>259.0</ele>
        <time>2020-10-12T06:27:12Z</time>
      </trkpt>
      <trkpt lat="38.2434070" lon="-1.0357910">
        <ele>259.0</ele>
        <time>2020-10-12T06:27:13Z</time>
      </trkpt>
      <trkpt lat="38.2434150" lon="-1.0357440">
        <ele>259.0</ele>
        <time>2020-10-12T06:27:14Z</time>
      </trkpt>
      <trkpt lat="38.2434220" lon="-1.0357000">
        <ele>259.0</ele>
        <time>2020-10-12T06:27:15Z</time>
      </trkpt>
      <trkpt lat="38.2434250" lon="-1.0356590">
        <ele>259.0</ele>
        <time>2020-10-12T06:27:16Z</time>
      </trkpt>
      <trkpt lat="38.2434310" lon="-1.0356150">
        <ele>259.4</ele>
        <time>2020-10-12T06:27:17Z</time>
      </trkpt>
      <trkpt lat="38.2434380" lon="-1.0355720">
        <ele>259.8</ele>
        <time>2020-10-12T06:27:18Z</time>
      </trkpt>
      <trkpt lat="38.2434410" lon="-1.0355280">
        <ele>260.4</ele>
        <time>2020-10-12T06:27:19Z</time>
      </trkpt>
      <trkpt lat="38.2434450" lon="-1.0354820">
        <ele>261.0</ele>
        <time>2020-10-12T06:27:20Z</time>
      </trkpt>
      <trkpt lat="38.2434490" lon="-1.0354330">
        <ele>261.2</ele>
        <time>2020-10-12T06:27:21Z</time>
      </trkpt>
      <trkpt lat="38.2434550" lon="-1.0353830">
        <ele>261.2</ele>
        <time>2020-10-12T06:27:22Z</time>
      </trkpt>
      <trkpt lat="38.2434660" lon="-1.0353340">
        <ele>261.4</ele>
        <time>2020-10-12T06:27:23Z</time>
      </trkpt>
      <trkpt lat="38.2434780" lon="-1.0352870">
        <ele>261.4</ele>
        <time>2020-10-12T06:27:24Z</time>
      </trkpt>
      <trkpt lat="38.2434880" lon="-1.0352410">
        <ele>261.6</ele>
        <time>2020-10-12T06:27:25Z</time>
      </trkpt>
      <trkpt lat="38.2434980" lon="-1.0351970">
        <ele>262.2</ele>
        <time>2020-10-12T06:27:26Z</time>
      </trkpt>
      <trkpt lat="38.2435050" lon="-1.0351540">
        <ele>262.8</ele>
        <time>2020-10-12T06:27:27Z</time>
      </trkpt>
      <trkpt lat="38.2435180" lon="-1.0351120">
        <ele>263.6</ele>
        <time>2020-10-12T06:27:28Z</time>
      </trkpt>
      <trkpt lat="38.2435310" lon="-1.0350670">
        <ele>263.8</ele>
        <time>2020-10-12T06:27:29Z</time>
      </trkpt>
      <trkpt lat="38.2435430" lon="-1.0350290">
        <ele>264.2</ele>
        <time>2020-10-12T06:27:30Z</time>
      </trkpt>
      <trkpt lat="38.2435530" lon="-1.0349920">
        <ele>264.4</ele>
        <time>2020-10-12T06:27:31Z</time>
      </trkpt>
      <trkpt lat="38.2435620" lon="-1.0349500">
        <ele>264.6</ele>
        <time>2020-10-12T06:27:32Z</time>
      </trkpt>
      <trkpt lat="38.2435720" lon="-1.0349070">
        <ele>264.8</ele>
        <time>2020-10-12T06:27:33Z</time>
      </trkpt>
      <trkpt lat="38.2435820" lon="-1.0348640">
        <ele>265.2</ele>
        <time>2020-10-12T06:27:34Z</time>
      </trkpt>
      <trkpt lat="38.2435930" lon="-1.0348150">
        <ele>265.4</ele>
        <time>2020-10-12T06:27:35Z</time>
      </trkpt>
      <trkpt lat="38.2436050" lon="-1.0347670">
        <ele>265.8</ele>
        <time>2020-10-12T06:27:36Z</time>
      </trkpt>
      <trkpt lat="38.2436130" lon="-1.0347160">
        <ele>265.8</ele>
        <time>2020-10-12T06:27:37Z</time>
      </trkpt>
      <trkpt lat="38.2436220" lon="-1.0346620">
        <ele>266.0</ele>
        <time>2020-10-12T06:27:38Z</time>
      </trkpt>
      <trkpt lat="38.2436330" lon="-1.0346120">
        <ele>266.2</ele>
        <time>2020-10-12T06:27:39Z</time>
      </trkpt>
      <trkpt lat="38.2436450" lon="-1.0345620">
        <ele>266.2</ele>
        <time>2020-10-12T06:27:40Z</time>
      </trkpt>
      <trkpt lat="38.2436560" lon="-1.0345070">
        <ele>266.4</ele>
        <time>2020-10-12T06:27:41Z</time>
      </trkpt>
      <trkpt lat="38.2436680" lon="-1.0344530">
        <ele>266.4</ele>
        <time>2020-10-12T06:27:42Z</time>
      </trkpt>
      <trkpt lat="38.2436840" lon="-1.0343990">
        <ele>266.4</ele>
        <time>2020-10-12T06:27:43Z</time>
      </trkpt>
      <trkpt lat="38.2436990" lon="-1.0343430">
        <ele>266.4</ele>
        <time>2020-10-12T06:27:44Z</time>
      </trkpt>
      <trkpt lat="38.2437130" lon="-1.0342830">
        <ele>266.4</ele>
        <time>2020-10-12T06:27:45Z</time>
      </trkpt>
      <trkpt lat="38.2437280" lon="-1.0342290">
        <ele>266.4</ele>
        <time>2020-10-12T06:27:46Z</time>
      </trkpt>
      <trkpt lat="38.2437390" lon="-1.0341630">
        <ele>266.4</ele>
        <time>2020-10-12T06:27:47Z</time>
      </trkpt>
      <trkpt lat="38.2437500" lon="-1.0341010">
        <ele>266.4</ele>
        <time>2020-10-12T06:27:48Z</time>
      </trkpt>
      <trkpt lat="38.2437620" lon="-1.0340390">
        <ele>266.6</ele>
        <time>2020-10-12T06:27:49Z</time>
      </trkpt>
      <trkpt lat="38.2437740" lon="-1.0339840">
        <ele>266.6</ele>
        <time>2020-10-12T06:27:50Z</time>
      </trkpt>
      <trkpt lat="38.2437920" lon="-1.0339320">
        <ele>266.8</ele>
        <time>2020-10-12T06:27:51Z</time>
      </trkpt>
      <trkpt lat="38.2438080" lon="-1.0338780">
        <ele>267.0</ele>
        <time>2020-10-12T06:27:52Z</time>
      </trkpt>
      <trkpt lat="38.2438220" lon="-1.0338270">
        <ele>267.2</ele>
        <time>2020-10-12T06:27:53Z</time>
      </trkpt>
      <trkpt lat="38.2438320" lon="-1.0337810">
        <ele>267.4</ele>
        <time>2020-10-12T06:27:54Z</time>
      </trkpt>
      <trkpt lat="38.2438430" lon="-1.0337370">
        <ele>267.6</ele>
        <time>2020-10-12T06:27:55Z</time>
      </trkpt>
      <trkpt lat="38.2438540" lon="-1.0336960">
        <ele>268.0</ele>
        <time>2020-10-12T06:27:56Z</time>
      </trkpt>
      <trkpt lat="38.2438720" lon="-1.0336600">
        <ele>268.2</ele>
        <time>2020-10-12T06:27:57Z</time>
      </trkpt>
      <trkpt lat="38.2438840" lon="-1.0336180">
        <ele>268.6</ele>
        <time>2020-10-12T06:27:58Z</time>
      </trkpt>
      <trkpt lat="38.2438960" lon="-1.0335650">
        <ele>269.0</ele>
        <time>2020-10-12T06:27:59Z</time>
      </trkpt>
      <trkpt lat="38.2439080" lon="-1.0335170">
        <ele>269.2</ele>
        <time>2020-10-12T06:28:00Z</time>
      </trkpt>
      <trkpt lat="38.2439200" lon="-1.0334670">
        <ele>269.4</ele>
        <time>2020-10-12T06:28:01Z</time>
      </trkpt>
      <trkpt lat="38.2439300" lon="-1.0334220">
        <ele>269.4</ele>
        <time>2020-10-12T06:28:02Z</time>
      </trkpt>
      <trkpt lat="38.2439380" lon="-1.0333670">
        <ele>269.8</ele>
        <time>2020-10-12T06:28:03Z</time>
      </trkpt>
      <trkpt lat="38.2439470" lon="-1.0333120">
        <ele>270.0</ele>
        <time>2020-10-12T06:28:04Z</time>
      </trkpt>
      <trkpt lat="38.2439580" lon="-1.0332610">
        <ele>270.2</ele>
        <time>2020-10-12T06:28:05Z</time>
      </trkpt>
      <trkpt lat="38.2439670" lon="-1.0332070">
        <ele>270.4</ele>
        <time>2020-10-12T06:28:06Z</time>
      </trkpt>
      <trkpt lat="38.2439740" lon="-1.0331580">
        <ele>270.6</ele>
        <time>2020-10-12T06:28:07Z</time>
      </trkpt>
      <trkpt lat="38.2439780" lon="-1.0331060">
        <ele>270.8</ele>
        <time>2020-10-12T06:28:08Z</time>
      </trkpt>
      <trkpt lat="38.2439820" lon="-1.0330560">
        <ele>270.8</ele>
        <time>2020-10-12T06:28:09Z</time>
      </trkpt>
      <trkpt lat="38.2439830" lon="-1.0330040">
        <ele>270.8</ele>
        <time>2020-10-12T06:28:10Z</time>
      </trkpt>
      <trkpt lat="38.2439830" lon="-1.0329510">
        <ele>271.0</ele>
        <time>2020-10-12T06:28:11Z</time>
      </trkpt>
      <trkpt lat="38.2439820" lon="-1.0328980">
        <ele>271.2</ele>
        <time>2020-10-12T06:28:12Z</time>
      </trkpt>
      <trkpt lat="38.2439770" lon="-1.0328510">
        <ele>271.4</ele>
        <time>2020-10-12T06:28:13Z</time>
      </trkpt>
      <trkpt lat="38.2439720" lon="-1.0328070">
        <ele>271.8</ele>
        <time>2020-10-12T06:28:14Z</time>
      </trkpt>
      <trkpt lat="38.2439660" lon="-1.0327580">
        <ele>272.0</ele>
        <time>2020-10-12T06:28:15Z</time>
      </trkpt>
      <trkpt lat="38.2439570" lon="-1.0327060">
        <ele>272.4</ele>
        <time>2020-10-12T06:28:16Z</time>
      </trkpt>
      <trkpt lat="38.2439450" lon="-1.0326530">
        <ele>272.6</ele>
        <time>2020-10-12T06:28:17Z</time>
      </trkpt>
      <trkpt lat="38.2439340" lon="-1.0326020">
        <ele>272.8</ele>
        <time>2020-10-12T06:28:18Z</time>
      </trkpt>
      <trkpt lat="38.2439240" lon="-1.0325520">
        <ele>273.0</ele>
        <time>2020-10-12T06:28:19Z</time>
      </trkpt>
      <trkpt lat="38.2439100" lon="-1.0325040">
        <ele>273.2</ele>
        <time>2020-10-12T06:28:20Z</time>
      </trkpt>
      <trkpt lat="38.2438940" lon="-1.0324560">
        <ele>273.4</ele>
        <time>2020-10-12T06:28:21Z</time>
      </trkpt>
      <trkpt lat="38.2438780" lon="-1.0324060">
        <ele>273.6</ele>
        <time>2020-10-12T06:28:22Z</time>
      </trkpt>
      <trkpt lat="38.2438640" lon="-1.0323590">
        <ele>274.0</ele>
        <time>2020-10-12T06:28:23Z</time>
      </trkpt>
      <trkpt lat="38.2438490" lon="-1.0323120">
        <ele>274.2</ele>
        <time>2020-10-12T06:28:24Z</time>
      </trkpt>
      <trkpt lat="38.2438330" lon="-1.0322640">
        <ele>274.6</ele>
        <time>2020-10-12T06:28:25Z</time>
      </trkpt>
      <trkpt lat="38.2438190" lon="-1.0322170">
        <ele>274.6</ele>
        <time>2020-10-12T06:28:26Z</time>
      </trkpt>
      <trkpt lat="38.2438060" lon="-1.0321700">
        <ele>274.8</ele>
        <time>2020-10-12T06:28:27Z</time>
      </trkpt>
      <trkpt lat="38.2437920" lon="-1.0321220">
        <ele>275.0</ele>
        <time>2020-10-12T06:28:28Z</time>
      </trkpt>
      <trkpt lat="38.2437800" lon="-1.0320740">
        <ele>275.4</ele>
        <time>2020-10-12T06:28:29Z</time>
      </trkpt>
      <trkpt lat="38.2437680" lon="-1.0320260">
        <ele>275.6</ele>
        <time>2020-10-12T06:28:30Z</time>
      </trkpt>
      <trkpt lat="38.2437540" lon="-1.0319790">
        <ele>275.8</ele>
        <time>2020-10-12T06:28:31Z</time>
      </trkpt>
      <trkpt lat="38.2437430" lon="-1.0319310">
        <ele>276.2</ele>
        <time>2020-10-12T06:28:32Z</time>
      </trkpt>
      <trkpt lat="38.2437340" lon="-1.0318800">
        <ele>276.4</ele>
        <time>2020-10-12T06:28:33Z</time>
      </trkpt>
      <trkpt lat="38.2437270" lon="-1.0318280">
        <ele>276.8</ele>
        <time>2020-10-12T06:28:34Z</time>
      </trkpt>
      <trkpt lat="38.2437220" lon="-1.0317750">
        <ele>277.0</ele>
        <time>2020-10-12T06:28:35Z</time>
      </trkpt>
      <trkpt lat="38.2437160" lon="-1.0317200">
        <ele>277.2</ele>
        <time>2020-10-12T06:28:36Z</time>
      </trkpt>
      <trkpt lat="38.2437100" lon="-1.0316640">
        <ele>277.2</ele>
        <time>2020-10-12T06:28:37Z</time>
      </trkpt>
      <trkpt lat="38.2437050" lon="-1.0316100">
        <ele>277.4</ele>
        <time>2020-10-12T06:28:38Z</time>
      </trkpt>
      <trkpt lat="38.2437000" lon="-1.0315550">
        <ele>277.6</ele>
        <time>2020-10-12T06:28:39Z</time>
      </trkpt>
      <trkpt lat="38.2436960" lon="-1.0315020">
        <ele>277.8</ele>
        <time>2020-10-12T06:28:40Z</time>
      </trkpt>
      <trkpt lat="38.2436920" lon="-1.0314470">
        <ele>278.2</ele>
        <time>2020-10-12T06:28:41Z</time>
      </trkpt>
      <trkpt lat="38.2436860" lon="-1.0313920">
        <ele>278.6</ele>
        <time>2020-10-12T06:28:42Z</time>
      </trkpt>
      <trkpt lat="38.2436820" lon="-1.0313370">
        <ele>278.6</ele>
        <time>2020-10-12T06:28:43Z</time>
      </trkpt>
      <trkpt lat="38.2436770" lon="-1.0312830">
        <ele>278.8</ele>
        <time>2020-10-12T06:28:44Z</time>
      </trkpt>
      <trkpt lat="38.2436730" lon="-1.0312270">
        <ele>278.6</ele>
        <time>2020-10-12T06:28:45Z</time>
      </trkpt>
      <trkpt lat="38.2436680" lon="-1.0311720">
        <ele>278.4</ele>
        <time>2020-10-12T06:28:46Z</time>
      </trkpt>
      <trkpt lat="38.2436630" lon="-1.0311140">
        <ele>278.2</ele>
        <time>2020-10-12T06:28:47Z</time>
      </trkpt>
      <trkpt lat="38.2436560" lon="-1.0310570">
        <ele>277.8</ele>
        <time>2020-10-12T06:28:48Z</time>
      </trkpt>
      <trkpt lat="38.2436510" lon="-1.0309980">
        <ele>277.6</ele>
        <time>2020-10-12T06:28:49Z</time>
      </trkpt>
      <trkpt lat="38.2436460" lon="-1.0309400">
        <ele>277.6</ele>
        <time>2020-10-12T06:28:50Z</time>
      </trkpt>
      <trkpt lat="38.2436420" lon="-1.0308820">
        <ele>277.6</ele>
        <time>2020-10-12T06:28:51Z</time>
      </trkpt>
      <trkpt lat="38.2436370" lon="-1.0308220">
        <ele>277.6</ele>
        <time>2020-10-12T06:28:52Z</time>
      </trkpt>
      <trkpt lat="38.2436310" lon="-1.0307640">
        <ele>277.8</ele>
        <time>2020-10-12T06:28:53Z</time>
      </trkpt>
      <trkpt lat="38.2436250" lon="-1.0307090">
        <ele>278.0</ele>
        <time>2020-10-12T06:28:54Z</time>
      </trkpt>
      <trkpt lat="38.2436220" lon="-1.0306530">
        <ele>278.2</ele>
        <time>2020-10-12T06:28:55Z</time>
      </trkpt>
      <trkpt lat="38.2436180" lon="-1.0305950">
        <ele>278.4</ele>
        <time>2020-10-12T06:28:56Z</time>
      </trkpt>
      <trkpt lat="38.2436130" lon="-1.0305380">
        <ele>278.4</ele>
        <time>2020-10-12T06:28:57Z</time>
      </trkpt>
      <trkpt lat="38.2436080" lon="-1.0304820">
        <ele>278.6</ele>
        <time>2020-10-12T06:28:58Z</time>
      </trkpt>
      <trkpt lat="38.2436040" lon="-1.0304250">
        <ele>278.8</ele>
        <time>2020-10-12T06:28:59Z</time>
      </trkpt>
      <trkpt lat="38.2436000" lon="-1.0303700">
        <ele>279.0</ele>
        <time>2020-10-12T06:29:00Z</time>
      </trkpt>
      <trkpt lat="38.2435950" lon="-1.0303170">
        <ele>279.0</ele>
        <time>2020-10-12T06:29:01Z</time>
      </trkpt>
      <trkpt lat="38.2435900" lon="-1.0302640">
        <ele>279.0</ele>
        <time>2020-10-12T06:29:02Z</time>
      </trkpt>
      <trkpt lat="38.2435840" lon="-1.0302090">
        <ele>279.2</ele>
        <time>2020-10-12T06:29:03Z</time>
      </trkpt>
      <trkpt lat="38.2435790" lon="-1.0301570">
        <ele>279.2</ele>
        <time>2020-10-12T06:29:04Z</time>
      </trkpt>
      <trkpt lat="38.2435730" lon="-1.0301050">
        <ele>279.4</ele>
        <time>2020-10-12T06:29:05Z</time>
      </trkpt>
      <trkpt lat="38.2435680" lon="-1.0300530">
        <ele>279.4</ele>
        <time>2020-10-12T06:29:06Z</time>
      </trkpt>
      <trkpt lat="38.2435620" lon="-1.0300000">
        <ele>279.4</ele>
        <time>2020-10-12T06:29:07Z</time>
      </trkpt>
      <trkpt lat="38.2435550" lon="-1.0299440">
        <ele>279.4</ele>
        <time>2020-10-12T06:29:08Z</time>
      </trkpt>
      <trkpt lat="38.2435490" lon="-1.0298830">
        <ele>279.6</ele>
        <time>2020-10-12T06:29:09Z</time>
      </trkpt>
      <trkpt lat="38.2435450" lon="-1.0298160">
        <ele>279.6</ele>
        <time>2020-10-12T06:29:10Z</time>
      </trkpt>
      <trkpt lat="38.2435420" lon="-1.0297500">
        <ele>279.6</ele>
        <time>2020-10-12T06:29:11Z</time>
      </trkpt>
      <trkpt lat="38.2435420" lon="-1.0296850">
        <ele>279.6</ele>
        <time>2020-10-12T06:29:12Z</time>
      </trkpt>
      <trkpt lat="38.2435450" lon="-1.0296230">
        <ele>279.6</ele>
        <time>2020-10-12T06:29:13Z</time>
      </trkpt>
      <trkpt lat="38.2435500" lon="-1.0295600">
        <ele>279.8</ele>
        <time>2020-10-12T06:29:14Z</time>
      </trkpt>
      <trkpt lat="38.2435560" lon="-1.0294950">
        <ele>279.8</ele>
        <time>2020-10-12T06:29:15Z</time>
      </trkpt>
      <trkpt lat="38.2435660" lon="-1.0294300">
        <ele>279.6</ele>
        <time>2020-10-12T06:29:16Z</time>
      </trkpt>
      <trkpt lat="38.2435780" lon="-1.0293620">
        <ele>279.6</ele>
        <time>2020-10-12T06:29:17Z</time>
      </trkpt>
      <trkpt lat="38.2435900" lon="-1.0292930">
        <ele>279.6</ele>
        <time>2020-10-12T06:29:18Z</time>
      </trkpt>
      <trkpt lat="38.2436040" lon="-1.0292280">
        <ele>279.6</ele>
        <time>2020-10-12T06:29:19Z</time>
      </trkpt>
      <trkpt lat="38.2436200" lon="-1.0291600">
        <ele>279.6</ele>
        <time>2020-10-12T06:29:20Z</time>
      </trkpt>
      <trkpt lat="38.2436410" lon="-1.0290960">
        <ele>279.4</ele>
        <time>2020-10-12T06:29:21Z</time>
      </trkpt>
      <trkpt lat="38.2436590" lon="-1.0290310">
        <ele>279.6</ele>
        <time>2020-10-12T06:29:22Z</time>
      </trkpt>
      <trkpt lat="38.2436730" lon="-1.0289660">
        <ele>279.6</ele>
        <time>2020-10-12T06:29:23Z</time>
      </trkpt>
      <trkpt lat="38.2436870" lon="-1.0289010">
        <ele>279.8</ele>
        <time>2020-10-12T06:29:24Z</time>
      </trkpt>
      <trkpt lat="38.2436990" lon="-1.0288340">
        <ele>280.0</ele>
        <time>2020-10-12T06:29:25Z</time>
      </trkpt>
      <trkpt lat="38.2437110" lon="-1.0287670">
        <ele>280.0</ele>
        <time>2020-10-12T06:29:26Z</time>
      </trkpt>
      <trkpt lat="38.2437230" lon="-1.0287010">
        <ele>279.8</ele>
        <time>2020-10-12T06:29:27Z</time>
      </trkpt>
      <trkpt lat="38.2437360" lon="-1.0286340">
        <ele>279.8</ele>
        <time>2020-10-12T06:29:28Z</time>
      </trkpt>
      <trkpt lat="38.2437480" lon="-1.0285670">
        <ele>279.8</ele>
        <time>2020-10-12T06:29:29Z</time>
      </trkpt>
      <trkpt lat="38.2437610" lon="-1.0285010">
        <ele>279.8</ele>
        <time>2020-10-12T06:29:30Z</time>
      </trkpt>
      <trkpt lat="38.2437740" lon="-1.0284370">
        <ele>279.8</ele>
        <time>2020-10-12T06:29:31Z</time>
      </trkpt>
      <trkpt lat="38.2437860" lon="-1.0283730">
        <ele>279.8</ele>
        <time>2020-10-12T06:29:32Z</time>
      </trkpt>
      <trkpt lat="38.2437980" lon="-1.0283100">
        <ele>279.6</ele>
        <time>2020-10-12T06:29:33Z</time>
      </trkpt>
      <trkpt lat="38.2438090" lon="-1.0282480">
        <ele>279.6</ele>
        <time>2020-10-12T06:29:34Z</time>
      </trkpt>
      <trkpt lat="38.2438200" lon="-1.0281860">
        <ele>279.8</ele>
        <time>2020-10-12T06:29:35Z</time>
      </trkpt>
      <trkpt lat="38.2438300" lon="-1.0281240">
        <ele>280.0</ele>
        <time>2020-10-12T06:29:36Z</time>
      </trkpt>
      <trkpt lat="38.2438410" lon="-1.0280630">
        <ele>280.2</ele>
        <time>2020-10-12T06:29:37Z</time>
      </trkpt>
      <trkpt lat="38.2438520" lon="-1.0280030">
        <ele>280.2</ele>
        <time>2020-10-12T06:29:38Z</time>
      </trkpt>
      <trkpt lat="38.2438630" lon="-1.0279420">
        <ele>280.2</ele>
        <time>2020-10-12T06:29:39Z</time>
      </trkpt>
      <trkpt lat="38.2438740" lon="-1.0278790">
        <ele>280.2</ele>
        <time>2020-10-12T06:29:40Z</time>
      </trkpt>
      <trkpt lat="38.2438840" lon="-1.0278180">
        <ele>280.2</ele>
        <time>2020-10-12T06:29:41Z</time>
      </trkpt>
      <trkpt lat="38.2438950" lon="-1.0277570">
        <ele>280.4</ele>
        <time>2020-10-12T06:29:42Z</time>
      </trkpt>
      <trkpt lat="38.2439070" lon="-1.0276960">
        <ele>280.6</ele>
        <time>2020-10-12T06:29:43Z</time>
      </trkpt>
      <trkpt lat="38.2439180" lon="-1.0276330">
        <ele>281.0</ele>
        <time>2020-10-12T06:29:44Z</time>
      </trkpt>
      <trkpt lat="38.2439290" lon="-1.0275720">
        <ele>281.4</ele>
        <time>2020-10-12T06:29:45Z</time>
      </trkpt>
      <trkpt lat="38.2439400" lon="-1.0275110">
        <ele>281.6</ele>
        <time>2020-10-12T06:29:46Z</time>
      </trkpt>
      <trkpt lat="38.2439520" lon="-1.0274490">
        <ele>281.8</ele>
        <time>2020-10-12T06:29:47Z</time>
      </trkpt>
      <trkpt lat="38.2439640" lon="-1.0273880">
        <ele>281.8</ele>
        <time>2020-10-12T06:29:48Z</time>
      </trkpt>
      <trkpt lat="38.2439760" lon="-1.0273260">
        <ele>282.0</ele>
        <time>2020-10-12T06:29:49Z</time>
      </trkpt>
      <trkpt lat="38.2439870" lon="-1.0272640">
        <ele>282.0</ele>
        <time>2020-10-12T06:29:50Z</time>
      </trkpt>
      <trkpt lat="38.2439970" lon="-1.0272020">
        <ele>282.0</ele>
        <time>2020-10-12T06:29:51Z</time>
      </trkpt>
      <trkpt lat="38.2440080" lon="-1.0271400">
        <ele>282.0</ele>
        <time>2020-10-12T06:29:52Z</time>
      </trkpt>
      <trkpt lat="38.2440190" lon="-1.0270780">
        <ele>282.0</ele>
        <time>2020-10-12T06:29:53Z</time>
      </trkpt>
      <trkpt lat="38.2440320" lon="-1.0270160">
        <ele>282.0</ele>
        <time>2020-10-12T06:29:54Z</time>
      </trkpt>
      <trkpt lat="38.2440440" lon="-1.0269540">
        <ele>282.0</ele>
        <time>2020-10-12T06:29:55Z</time>
      </trkpt>
      <trkpt lat="38.2440550" lon="-1.0268920">
        <ele>282.0</ele>
        <time>2020-10-12T06:29:56Z</time>
      </trkpt>
      <trkpt lat="38.2440660" lon="-1.0268300">
        <ele>282.2</ele>
        <time>2020-10-12T06:29:57Z</time>
      </trkpt>
      <trkpt lat="38.2440770" lon="-1.0267700">
        <ele>282.2</ele>
        <time>2020-10-12T06:29:58Z</time>
      </trkpt>
      <trkpt lat="38.2440890" lon="-1.0267100">
        <ele>282.4</ele>
        <time>2020-10-12T06:29:59Z</time>
      </trkpt>
      <trkpt lat="38.2441010" lon="-1.0266500">
        <ele>282.6</ele>
        <time>2020-10-12T06:30:00Z</time>
      </trkpt>
      <trkpt lat="38.2441120" lon="-1.0265880">
        <ele>282.4</ele>
        <time>2020-10-12T06:30:01Z</time>
      </trkpt>
      <trkpt lat="38.2441240" lon="-1.0265260">
        <ele>282.6</ele>
        <time>2020-10-12T06:30:02Z</time>
      </trkpt>
      <trkpt lat="38.2441360" lon="-1.0264640">
        <ele>282.6</ele>
        <time>2020-10-12T06:30:03Z</time>
      </trkpt>
      <trkpt lat="38.2441460" lon="-1.0264020">
        <ele>282.8</ele>
        <time>2020-10-12T06:30:04Z</time>
      </trkpt>
      <trkpt lat="38.2441560" lon="-1.0263410">
        <ele>282.8</ele>
        <time>2020-10-12T06:30:05Z</time>
      </trkpt>
      <trkpt lat="38.2441660" lon="-1.0262820">
        <ele>283.0</ele>
        <time>2020-10-12T06:30:06Z</time>
      </trkpt>
      <trkpt lat="38.2441760" lon="-1.0262210">
        <ele>283.0</ele>
        <time>2020-10-12T06:30:07Z</time>
      </trkpt>
      <trkpt lat="38.2441820" lon="-1.0261600">
        <ele>283.2</ele>
        <time>2020-10-12T06:30:08Z</time>
      </trkpt>
      <trkpt lat="38.2441840" lon="-1.0260970">
        <ele>283.4</ele>
        <time>2020-10-12T06:30:09Z</time>
      </trkpt>
      <trkpt lat="38.2441860" lon="-1.0260340">
        <ele>283.4</ele>
        <time>2020-10-12T06:30:10Z</time>
      </trkpt>
      <trkpt lat="38.2441850" lon="-1.0259740">
        <ele>283.6</ele>
        <time>2020-10-12T06:30:11Z</time>
      </trkpt>
      <trkpt lat="38.2441820" lon="-1.0259110">
        <ele>283.6</ele>
        <time>2020-10-12T06:30:12Z</time>
      </trkpt>
      <trkpt lat="38.2441780" lon="-1.0258440">
        <ele>283.8</ele>
        <time>2020-10-12T06:30:13Z</time>
      </trkpt>
      <trkpt lat="38.2441690" lon="-1.0257760">
        <ele>283.8</ele>
        <time>2020-10-12T06:30:14Z</time>
      </trkpt>
      <trkpt lat="38.2441560" lon="-1.0257070">
        <ele>284.0</ele>
        <time>2020-10-12T06:30:15Z</time>
      </trkpt>
      <trkpt lat="38.2441390" lon="-1.0256350">
        <ele>284.2</ele>
        <time>2020-10-12T06:30:16Z</time>
      </trkpt>
      <trkpt lat="38.2441220" lon="-1.0255610">
        <ele>284.2</ele>
        <time>2020-10-12T06:30:17Z</time>
      </trkpt>
      <trkpt lat="38.2441020" lon="-1.0254860">
        <ele>284.2</ele>
        <time>2020-10-12T06:30:18Z</time>
      </trkpt>
      <trkpt lat="38.2440820" lon="-1.0254090">
        <ele>284.2</ele>
        <time>2020-10-12T06:30:19Z</time>
      </trkpt>
      <trkpt lat="38.2440620" lon="-1.0253300">
        <ele>284.0</ele>
        <time>2020-10-12T06:30:20Z</time>
      </trkpt>
      <trkpt lat="38.2440390" lon="-1.0252500">
        <ele>283.8</ele>
        <time>2020-10-12T06:30:21Z</time>
      </trkpt>
      <trkpt lat="38.2440140" lon="-1.0251670">
        <ele>283.4</ele>
        <time>2020-10-12T06:30:22Z</time>
      </trkpt>
      <trkpt lat="38.2439910" lon="-1.0250800">
        <ele>283.0</ele>
        <time>2020-10-12T06:30:23Z</time>
      </trkpt>
      <trkpt lat="38.2439750" lon="-1.0249880">
        <ele>282.6</ele>
        <time>2020-10-12T06:30:24Z</time>
      </trkpt>
      <trkpt lat="38.2439670" lon="-1.0248910">
        <ele>282.0</ele>
        <time>2020-10-12T06:30:25Z</time>
      </trkpt>
      <trkpt lat="38.2439730" lon="-1.0247950">
        <ele>281.4</ele>
        <time>2020-10-12T06:30:26Z</time>
      </trkpt>
      <trkpt lat="38.2439940" lon="-1.0246990">
        <ele>281.0</ele>
        <time>2020-10-12T06:30:27Z</time>
      </trkpt>
      <trkpt lat="38.2440230" lon="-1.0246080">
        <ele>280.8</ele>
        <time>2020-10-12T06:30:28Z</time>
      </trkpt>
      <trkpt lat="38.2440520" lon="-1.0245230">
        <ele>280.6</ele>
        <time>2020-10-12T06:30:29Z</time>
      </trkpt>
      <trkpt lat="38.2440760" lon="-1.0244410">
        <ele>280.6</ele>
        <time>2020-10-12T06:30:30Z</time>
      </trkpt>
      <trkpt lat="38.2440910" lon="-1.0243610">
        <ele>280.8</ele>
        <time>2020-10-12T06:30:31Z</time>
      </trkpt>
      <trkpt lat="38.2441000" lon="-1.0242830">
        <ele>281.2</ele>
        <time>2020-10-12T06:30:32Z</time>
      </trkpt>
      <trkpt lat="38.2441010" lon="-1.0242100">
        <ele>281.6</ele>
        <time>2020-10-12T06:30:33Z</time>
      </trkpt>
      <trkpt lat="38.2440980" lon="-1.0241440">
        <ele>282.0</ele>
        <time>2020-10-12T06:30:34Z</time>
      </trkpt>
      <trkpt lat="38.2440980" lon="-1.0240810">
        <ele>282.4</ele>
        <time>2020-10-12T06:30:35Z</time>
      </trkpt>
      <trkpt lat="38.2440990" lon="-1.0240210">
        <ele>282.8</ele>
        <time>2020-10-12T06:30:36Z</time>
      </trkpt>
      <trkpt lat="38.2441020" lon="-1.0239580">
        <ele>283.0</ele>
        <time>2020-10-12T06:30:37Z</time>
      </trkpt>
      <trkpt lat="38.2441090" lon="-1.0239040">
        <ele>283.4</ele>
        <time>2020-10-12T06:30:38Z</time>
      </trkpt>
      <trkpt lat="38.2441180" lon="-1.0238520">
        <ele>283.6</ele>
        <time>2020-10-12T06:30:39Z</time>
      </trkpt>
      <trkpt lat="38.2441300" lon="-1.0238000">
        <ele>283.8</ele>
        <time>2020-10-12T06:30:40Z</time>
      </trkpt>
      <trkpt lat="38.2441420" lon="-1.0237500">
        <ele>284.0</ele>
        <time>2020-10-12T06:30:41Z</time>
      </trkpt>
      <trkpt lat="38.2441550" lon="-1.0237010">
        <ele>284.4</ele>
        <time>2020-10-12T06:30:42Z</time>
      </trkpt>
      <trkpt lat="38.2441680" lon="-1.0236520">
        <ele>284.6</ele>
        <time>2020-10-12T06:30:43Z</time>
      </trkpt>
      <trkpt lat="38.2441830" lon="-1.0236060">
        <ele>285.0</ele>
        <time>2020-10-12T06:30:44Z</time>
      </trkpt>
      <trkpt lat="38.2441980" lon="-1.0235610">
        <ele>285.6</ele>
        <time>2020-10-12T06:30:45Z</time>
      </trkpt>
      <trkpt lat="38.2442160" lon="-1.0235150">
        <ele>286.0</ele>
        <time>2020-10-12T06:30:46Z</time>
      </trkpt>
      <trkpt lat="38.2442330" lon="-1.0234710">
        <ele>286.4</ele>
        <time>2020-10-12T06:30:47Z</time>
      </trkpt>
      <trkpt lat="38.2442500" lon="-1.0234250">
        <ele>286.6</ele>
        <time>2020-10-12T06:30:48Z</time>
      </trkpt>
      <trkpt lat="38.2442660" lon="-1.0233800">
        <ele>287.0</ele>
        <time>2020-10-12T06:30:49Z</time>
      </trkpt>
      <trkpt lat="38.2442820" lon="-1.0233370">
        <ele>287.2</ele>
        <time>2020-10-12T06:30:50Z</time>
      </trkpt>
      <trkpt lat="38.2442990" lon="-1.0232960">
        <ele>287.4</ele>
        <time>2020-10-12T06:30:51Z</time>
      </trkpt>
      <trkpt lat="38.2443160" lon="-1.0232560">
        <ele>287.4</ele>
        <time>2020-10-12T06:30:52Z</time>
      </trkpt>
      <trkpt lat="38.2443350" lon="-1.0232190">
        <ele>287.6</ele>
        <time>2020-10-12T06:30:53Z</time>
      </trkpt>
      <trkpt lat="38.2443560" lon="-1.0231850">
        <ele>288.2</ele>
        <time>2020-10-12T06:30:54Z</time>
      </trkpt>
      <trkpt lat="38.2443800" lon="-1.0231490">
        <ele>288.8</ele>
        <time>2020-10-12T06:30:55Z</time>
      </trkpt>
      <trkpt lat="38.2444060" lon="-1.0231160">
        <ele>289.2</ele>
        <time>2020-10-12T06:30:56Z</time>
      </trkpt>
      <trkpt lat="38.2444320" lon="-1.0230880">
        <ele>289.6</ele>
        <time>2020-10-12T06:30:57Z</time>
      </trkpt>
      <trkpt lat="38.2444610" lon="-1.0230570">
        <ele>290.0</ele>
        <time>2020-10-12T06:30:58Z</time>
      </trkpt>
      <trkpt lat="38.2444900" lon="-1.0230250">
        <ele>290.4</ele>
        <time>2020-10-12T06:30:59Z</time>
      </trkpt>
      <trkpt lat="38.2445250" lon="-1.0229950">
        <ele>290.6</ele>
        <time>2020-10-12T06:31:00Z</time>
      </trkpt>
      <trkpt lat="38.2445600" lon="-1.0229610">
        <ele>290.8</ele>
        <time>2020-10-12T06:31:01Z</time>
      </trkpt>
      <trkpt lat="38.2445970" lon="-1.0229340">
        <ele>291.0</ele>
        <time>2020-10-12T06:31:02Z</time>
      </trkpt>
      <trkpt lat="38.2446330" lon="-1.0229090">
        <ele>291.0</ele>
        <time>2020-10-12T06:31:03Z</time>
      </trkpt>
      <trkpt lat="38.2446750" lon="-1.0228870">
        <ele>291.0</ele>
        <time>2020-10-12T06:31:04Z</time>
      </trkpt>
      <trkpt lat="38.2447160" lon="-1.0228610">
        <ele>291.0</ele>
        <time>2020-10-12T06:31:05Z</time>
      </trkpt>
      <trkpt lat="38.2447530" lon="-1.0228330">
        <ele>290.8</ele>
        <time>2020-10-12T06:31:06Z</time>
      </trkpt>
      <trkpt lat="38.2447890" lon="-1.0228020">
        <ele>290.8</ele>
        <time>2020-10-12T06:31:07Z</time>
      </trkpt>
      <trkpt lat="38.2448270" lon="-1.0227680">
        <ele>291.0</ele>
        <time>2020-10-12T06:31:08Z</time>
      </trkpt>
      <trkpt lat="38.2448620" lon="-1.0227330">
        <ele>291.0</ele>
        <time>2020-10-12T06:31:09Z</time>
      </trkpt>
      <trkpt lat="38.2448960" lon="-1.0226960">
        <ele>291.0</ele>
        <time>2020-10-12T06:31:10Z</time>
      </trkpt>
      <trkpt lat="38.2449290" lon="-1.0226590">
        <ele>291.0</ele>
        <time>2020-10-12T06:31:11Z</time>
      </trkpt>
      <trkpt lat="38.2449610" lon="-1.0226210">
        <ele>291.0</ele>
        <time>2020-10-12T06:31:12Z</time>
      </trkpt>
      <trkpt lat="38.2449940" lon="-1.0225820">
        <ele>291.0</ele>
        <time>2020-10-12T06:31:13Z</time>
      </trkpt>
      <trkpt lat="38.2450240" lon="-1.0225380">
        <ele>291.0</ele>
        <time>2020-10-12T06:31:14Z</time>
      </trkpt>
      <trkpt lat="38.2450510" lon="-1.0224930">
        <ele>291.2</ele>
        <time>2020-10-12T06:31:15Z</time>
      </trkpt>
      <trkpt lat="38.2450770" lon="-1.0224470">
        <ele>291.2</ele>
        <time>2020-10-12T06:31:16Z</time>
      </trkpt>
      <trkpt lat="38.2451040" lon="-1.0224010">
        <ele>291.4</ele>
        <time>2020-10-12T06:31:17Z</time>
      </trkpt>
      <trkpt lat="38.2451300" lon="-1.0223540">
        <ele>291.4</ele>
        <time>2020-10-12T06:31:18Z</time>
      </trkpt>
      <trkpt lat="38.2451560" lon="-1.0223060">
        <ele>291.4</ele>
        <time>2020-10-12T06:31:19Z</time>
      </trkpt>
      <trkpt lat="38.2451760" lon="-1.0222530">
        <ele>291.4</ele>
        <time>2020-10-12T06:31:20Z</time>
      </trkpt>
      <trkpt lat="38.2451920" lon="-1.0221990">
        <ele>291.6</ele>
        <time>2020-10-12T06:31:21Z</time>
      </trkpt>
      <trkpt lat="38.2452100" lon="-1.0221440">
        <ele>291.6</ele>
        <time>2020-10-12T06:31:22Z</time>
      </trkpt>
      <trkpt lat="38.2452260" lon="-1.0220870">
        <ele>291.6</ele>
        <time>2020-10-12T06:31:23Z</time>
      </trkpt>
      <trkpt lat="38.2452370" lon="-1.0220280">
        <ele>291.8</ele>
        <time>2020-10-12T06:31:24Z</time>
      </trkpt>
      <trkpt lat="38.2452470" lon="-1.0219700">
        <ele>292.2</ele>
        <time>2020-10-12T06:31:25Z</time>
      </trkpt>
      <trkpt lat="38.2452520" lon="-1.0219120">
        <ele>292.4</ele>
        <time>2020-10-12T06:31:26Z</time>
      </trkpt>
      <trkpt lat="38.2452540" lon="-1.0218530">
        <ele>292.6</ele>
        <time>2020-10-12T06:31:27Z</time>
      </trkpt>
      <trkpt lat="38.2452550" lon="-1.0217950">
        <ele>292.6</ele>
        <time>2020-10-12T06:31:28Z</time>
      </trkpt>
      <trkpt lat="38.2452540" lon="-1.0217380">
        <ele>292.8</ele>
        <time>2020-10-12T06:31:29Z</time>
      </trkpt>
      <trkpt lat="38.2452530" lon="-1.0216810">
        <ele>293.0</ele>
        <time>2020-10-12T06:31:30Z</time>
      </trkpt>
      <trkpt lat="38.2452530" lon="-1.0216240">
        <ele>293.0</ele>
        <time>2020-10-12T06:31:31Z</time>
      </trkpt>
      <trkpt lat="38.2452540" lon="-1.0215680">
        <ele>293.0</ele>
        <time>2020-10-12T06:31:32Z</time>
      </trkpt>
      <trkpt lat="38.2452530" lon="-1.0215120">
        <ele>293.0</ele>
        <time>2020-10-12T06:31:33Z</time>
      </trkpt>
      <trkpt lat="38.2452510" lon="-1.0214560">
        <ele>293.2</ele>
        <time>2020-10-12T06:31:34Z</time>
      </trkpt>
      <trkpt lat="38.2452490" lon="-1.0213990">
        <ele>293.2</ele>
        <time>2020-10-12T06:31:35Z</time>
      </trkpt>
      <trkpt lat="38.2452450" lon="-1.0213430">
        <ele>293.4</ele>
        <time>2020-10-12T06:31:36Z</time>
      </trkpt>
      <trkpt lat="38.2452410" lon="-1.0212880">
        <ele>293.6</ele>
        <time>2020-10-12T06:31:37Z</time>
      </trkpt>
      <trkpt lat="38.2452350" lon="-1.0212320">
        <ele>293.6</ele>
        <time>2020-10-12T06:31:38Z</time>
      </trkpt>
      <trkpt lat="38.2452280" lon="-1.0211770">
        <ele>293.8</ele>
        <time>2020-10-12T06:31:39Z</time>
      </trkpt>
      <trkpt lat="38.2452200" lon="-1.0211200">
        <ele>294.0</ele>
        <time>2020-10-12T06:31:40Z</time>
      </trkpt>
      <trkpt lat="38.2452090" lon="-1.0210630">
        <ele>294.0</ele>
        <time>2020-10-12T06:31:41Z</time>
      </trkpt>
      <trkpt lat="38.2451980" lon="-1.0210070">
        <ele>294.2</ele>
        <time>2020-10-12T06:31:42Z</time>
      </trkpt>
      <trkpt lat="38.2451900" lon="-1.0209510">
        <ele>294.4</ele>
        <time>2020-10-12T06:31:43Z</time>
      </trkpt>
      <trkpt lat="38.2451820" lon="-1.0208960">
        <ele>294.4</ele>
        <time>2020-10-12T06:31:44Z</time>
      </trkpt>
      <trkpt lat="38.2451750" lon="-1.0208430">
        <ele>294.6</ele>
        <time>2020-10-12T06:31:45Z</time>
      </trkpt>
      <trkpt lat="38.2451680" lon="-1.0207900">
        <ele>294.6</ele>
        <time>2020-10-12T06:31:46Z</time>
      </trkpt>
      <trkpt lat="38.2451610" lon="-1.0207380">
        <ele>295.0</ele>
        <time>2020-10-12T06:31:47Z</time>
      </trkpt>
      <trkpt lat="38.2451580" lon="-1.0206860">
        <ele>295.2</ele>
        <time>2020-10-12T06:31:48Z</time>
      </trkpt>
      <trkpt lat="38.2451600" lon="-1.0206310">
        <ele>295.6</ele>
        <time>2020-10-12T06:31:49Z</time>
      </trkpt>
      <trkpt lat="38.2451670" lon="-1.0205760">
        <ele>296.0</ele>
        <time>2020-10-12T06:31:50Z</time>
      </trkpt>
      <trkpt lat="38.2451780" lon="-1.0205270">
        <ele>296.2</ele>
        <time>2020-10-12T06:31:51Z</time>
      </trkpt>
      <trkpt lat="38.2451910" lon="-1.0204790">
        <ele>296.4</ele>
        <time>2020-10-12T06:31:52Z</time>
      </trkpt>
      <trkpt lat="38.2452050" lon="-1.0204320">
        <ele>296.6</ele>
        <time>2020-10-12T06:31:53Z</time>
      </trkpt>
      <trkpt lat="38.2452190" lon="-1.0203820">
        <ele>296.8</ele>
        <time>2020-10-12T06:31:54Z</time>
      </trkpt>
      <trkpt lat="38.2452300" lon="-1.0203300">
        <ele>297.0</ele>
        <time>2020-10-12T06:31:55Z</time>
      </trkpt>
      <trkpt lat="38.2452400" lon="-1.0202760">
        <ele>297.0</ele>
        <time>2020-10-12T06:31:56Z</time>
      </trkpt>
      <trkpt lat="38.2452480" lon="-1.0202220">
        <ele>297.2</ele>
        <time>2020-10-12T06:31:57Z</time>
      </trkpt>
      <trkpt lat="38.2452520" lon="-1.0201680">
        <ele>297.2</ele>
        <time>2020-10-12T06:31:58Z</time>
      </trkpt>
      <trkpt lat="38.2452540" lon="-1.0201120">
        <ele>297.4</ele>
        <time>2020-10-12T06:31:59Z</time>
      </trkpt>
      <trkpt lat="38.2452560" lon="-1.0200550">
        <ele>297.4</ele>
        <time>2020-10-12T06:32:00Z</time>
      </trkpt>
      <trkpt lat="38.2452540" lon="-1.0199990">
        <ele>297.8</ele>
        <time>2020-10-12T06:32:01Z</time>
      </trkpt>
      <trkpt lat="38.2452480" lon="-1.0199420">
        <ele>298.0</ele>
        <time>2020-10-12T06:32:02Z</time>
      </trkpt>
      <trkpt lat="38.2452370" lon="-1.0198860">
        <ele>298.2</ele>
        <time>2020-10-12T06:32:03Z</time>
      </trkpt>
      <trkpt lat="38.2452250" lon="-1.0198310">
        <ele>298.4</ele>
        <time>2020-10-12T06:32:04Z</time>
      </trkpt>
      <trkpt lat="38.2452120" lon="-1.0197770">
        <ele>298.4</ele>
        <time>2020-10-12T06:32:05Z</time>
      </trkpt>
      <trkpt lat="38.2451980" lon="-1.0197210">
        <ele>298.4</ele>
        <time>2020-10-12T06:32:06Z</time>
      </trkpt>
      <trkpt lat="38.2451830" lon="-1.0196650">
        <ele>298.4</ele>
        <time>2020-10-12T06:32:07Z</time>
      </trkpt>
      <trkpt lat="38.2451670" lon="-1.0196100">
        <ele>298.6</ele>
        <time>2020-10-12T06:32:08Z</time>
      </trkpt>
      <trkpt lat="38.2451520" lon="-1.0195540">
        <ele>298.6</ele>
        <time>2020-10-12T06:32:09Z</time>
      </trkpt>
      <trkpt lat="38.2451380" lon="-1.0194990">
        <ele>298.8</ele>
        <time>2020-10-12T06:32:10Z</time>
      </trkpt>
      <trkpt lat="38.2451240" lon="-1.0194440">
        <ele>299.0</ele>
        <time>2020-10-12T06:32:11Z</time>
      </trkpt>
      <trkpt lat="38.2451080" lon="-1.0193880">
        <ele>299.0</ele>
        <time>2020-10-12T06:32:12Z</time>
      </trkpt>
      <trkpt lat="38.2450930" lon="-1.0193310">
        <ele>299.0</ele>
        <time>2020-10-12T06:32:13Z</time>
      </trkpt>
      <trkpt lat="38.2450780" lon="-1.0192740">
        <ele>299.2</ele>
        <time>2020-10-12T06:32:14Z</time>
      </trkpt>
      <trkpt lat="38.2450640" lon="-1.0192160">
        <ele>299.2</ele>
        <time>2020-10-12T06:32:15Z</time>
      </trkpt>
      <trkpt lat="38.2450500" lon="-1.0191580">
        <ele>299.4</ele>
        <time>2020-10-12T06:32:16Z</time>
      </trkpt>
      <trkpt lat="38.2450330" lon="-1.0191000">
        <ele>299.6</ele>
        <time>2020-10-12T06:32:17Z</time>
      </trkpt>
      <trkpt lat="38.2450180" lon="-1.0190420">
        <ele>299.6</ele>
        <time>2020-10-12T06:32:18Z</time>
      </trkpt>
      <trkpt lat="38.2450040" lon="-1.0189840">
        <ele>299.8</ele>
        <time>2020-10-12T06:32:19Z</time>
      </trkpt>
      <trkpt lat="38.2449880" lon="-1.0189250">
        <ele>300.0</ele>
        <time>2020-10-12T06:32:20Z</time>
      </trkpt>
      <trkpt lat="38.2449730" lon="-1.0188660">
        <ele>300.2</ele>
        <time>2020-10-12T06:32:21Z</time>
      </trkpt>
      <trkpt lat="38.2449570" lon="-1.0188070">
        <ele>300.2</ele>
        <time>2020-10-12T06:32:22Z</time>
      </trkpt>
      <trkpt lat="38.2449420" lon="-1.0187470">
        <ele>300.0</ele>
        <time>2020-10-12T06:32:23Z</time>
      </trkpt>
      <trkpt lat="38.2449260" lon="-1.0186860">
        <ele>300.0</ele>
        <time>2020-10-12T06:32:24Z</time>
      </trkpt>
      <trkpt lat="38.2449100" lon="-1.0186260">
        <ele>300.0</ele>
        <time>2020-10-12T06:32:25Z</time>
      </trkpt>
      <trkpt lat="38.2448940" lon="-1.0185670">
        <ele>300.0</ele>
        <time>2020-10-12T06:32:26Z</time>
      </trkpt>
      <trkpt lat="38.2448780" lon="-1.0185080">
        <ele>300.0</ele>
        <time>2020-10-12T06:32:27Z</time>
      </trkpt>
      <trkpt lat="38.2448620" lon="-1.0184490">
        <ele>300.0</ele>
        <time>2020-10-12T06:32:28Z</time>
      </trkpt>
      <trkpt lat="38.2448450" lon="-1.0183900">
        <ele>300.0</ele>
        <time>2020-10-12T06:32:29Z</time>
      </trkpt>
      <trkpt lat="38.2448290" lon="-1.0183290">
        <ele>300.0</ele>
        <time>2020-10-12T06:32:30Z</time>
      </trkpt>
      <trkpt lat="38.2448150" lon="-1.0182690">
        <ele>300.2</ele>
        <time>2020-10-12T06:32:31Z</time>
      </trkpt>
      <trkpt lat="38.2448020" lon="-1.0182080">
        <ele>300.2</ele>
        <time>2020-10-12T06:32:32Z</time>
      </trkpt>
      <trkpt lat="38.2447900" lon="-1.0181470">
        <ele>300.4</ele>
        <time>2020-10-12T06:32:33Z</time>
      </trkpt>
      <trkpt lat="38.2447780" lon="-1.0180860">
        <ele>300.4</ele>
        <time>2020-10-12T06:32:34Z</time>
      </trkpt>
      <trkpt lat="38.2447690" lon="-1.0180260">
        <ele>300.6</ele>
        <time>2020-10-12T06:32:35Z</time>
      </trkpt>
      <trkpt lat="38.2447620" lon="-1.0179630">
        <ele>300.8</ele>
        <time>2020-10-12T06:32:36Z</time>
      </trkpt>
      <trkpt lat="38.2447560" lon="-1.0179020">
        <ele>300.8</ele>
        <time>2020-10-12T06:32:37Z</time>
      </trkpt>
      <trkpt lat="38.2447530" lon="-1.0178390">
        <ele>301.0</ele>
        <time>2020-10-12T06:32:38Z</time>
      </trkpt>
      <trkpt lat="38.2447520" lon="-1.0177770">
        <ele>301.0</ele>
        <time>2020-10-12T06:32:39Z</time>
      </trkpt>
      <trkpt lat="38.2447530" lon="-1.0177150">
        <ele>301.0</ele>
        <time>2020-10-12T06:32:40Z</time>
      </trkpt>
      <trkpt lat="38.2447570" lon="-1.0176520">
        <ele>301.0</ele>
        <time>2020-10-12T06:32:41Z</time>
      </trkpt>
      <trkpt lat="38.2447610" lon="-1.0175890">
        <ele>301.0</ele>
        <time>2020-10-12T06:32:42Z</time>
      </trkpt>
      <trkpt lat="38.2447640" lon="-1.0175260">
        <ele>301.0</ele>
        <time>2020-10-12T06:32:43Z</time>
      </trkpt>
      <trkpt lat="38.2447680" lon="-1.0174620">
        <ele>301.0</ele>
        <time>2020-10-12T06:32:44Z</time>
      </trkpt>
      <trkpt lat="38.2447720" lon="-1.0173960">
        <ele>301.0</ele>
        <time>2020-10-12T06:32:45Z</time>
      </trkpt>
      <trkpt lat="38.2447750" lon="-1.0173310">
        <ele>301.0</ele>
        <time>2020-10-12T06:32:46Z</time>
      </trkpt>
      <trkpt lat="38.2447780" lon="-1.0172640">
        <ele>301.0</ele>
        <time>2020-10-12T06:32:47Z</time>
      </trkpt>
      <trkpt lat="38.2447830" lon="-1.0171980">
        <ele>301.0</ele>
        <time>2020-10-12T06:32:48Z</time>
      </trkpt>
      <trkpt lat="38.2447890" lon="-1.0171310">
        <ele>301.0</ele>
        <time>2020-10-12T06:32:49Z</time>
      </trkpt>
      <trkpt lat="38.2447950" lon="-1.0170670">
        <ele>301.0</ele>
        <time>2020-10-12T06:32:50Z</time>
      </trkpt>
      <trkpt lat="38.2448030" lon="-1.0170040">
        <ele>301.0</ele>
        <time>2020-10-12T06:32:51Z</time>
      </trkpt>
      <trkpt lat="38.2448130" lon="-1.0169410">
        <ele>301.2</ele>
        <time>2020-10-12T06:32:52Z</time>
      </trkpt>
      <trkpt lat="38.2448290" lon="-1.0168790">
        <ele>301.2</ele>
        <time>2020-10-12T06:32:53Z</time>
      </trkpt>
      <trkpt lat="38.2448490" lon="-1.0168180">
        <ele>301.2</ele>
        <time>2020-10-12T06:32:54Z</time>
      </trkpt>
      <trkpt lat="38.2448760" lon="-1.0167600">
        <ele>301.2</ele>
        <time>2020-10-12T06:32:55Z</time>
      </trkpt>
      <trkpt lat="38.2449090" lon="-1.0167090">
        <ele>301.2</ele>
        <time>2020-10-12T06:32:56Z</time>
      </trkpt>
      <trkpt lat="38.2449470" lon="-1.0166620">
        <ele>301.2</ele>
        <time>2020-10-12T06:32:57Z</time>
      </trkpt>
      <trkpt lat="38.2449890" lon="-1.0166210">
        <ele>301.2</ele>
        <time>2020-10-12T06:32:58Z</time>
      </trkpt>
      <trkpt lat="38.2450330" lon="-1.0165870">
        <ele>301.4</ele>
        <time>2020-10-12T06:32:59Z</time>
      </trkpt>
      <trkpt lat="38.2450790" lon="-1.0165570">
        <ele>301.4</ele>
        <time>2020-10-12T06:33:00Z</time>
      </trkpt>
      <trkpt lat="38.2451260" lon="-1.0165300">
        <ele>301.4</ele>
        <time>2020-10-12T06:33:01Z</time>
      </trkpt>
      <trkpt lat="38.2451730" lon="-1.0165020">
        <ele>301.4</ele>
        <time>2020-10-12T06:33:02Z</time>
      </trkpt>
      <trkpt lat="38.2452200" lon="-1.0164780">
        <ele>301.4</ele>
        <time>2020-10-12T06:33:03Z</time>
      </trkpt>
      <trkpt lat="38.2452670" lon="-1.0164520">
        <ele>301.4</ele>
        <time>2020-10-12T06:33:04Z</time>
      </trkpt>
      <trkpt lat="38.2453120" lon="-1.0164270">
        <ele>301.4</ele>
        <time>2020-10-12T06:33:05Z</time>
      </trkpt>
      <trkpt lat="38.2453580" lon="-1.0164010">
        <ele>301.4</ele>
        <time>2020-10-12T06:33:06Z</time>
      </trkpt>
      <trkpt lat="38.2454020" lon="-1.0163760">
        <ele>301.4</ele>
        <time>2020-10-12T06:33:07Z</time>
      </trkpt>
      <trkpt lat="38.2454450" lon="-1.0163510">
        <ele>301.4</ele>
        <time>2020-10-12T06:33:08Z</time>
      </trkpt>
      <trkpt lat="38.2454860" lon="-1.0163250">
        <ele>301.4</ele>
        <time>2020-10-12T06:33:09Z</time>
      </trkpt>
      <trkpt lat="38.2455270" lon="-1.0162970">
        <ele>301.4</ele>
        <time>2020-10-12T06:33:10Z</time>
      </trkpt>
      <trkpt lat="38.2455670" lon="-1.0162680">
        <ele>301.4</ele>
        <time>2020-10-12T06:33:11Z</time>
      </trkpt>
      <trkpt lat="38.2456070" lon="-1.0162360">
        <ele>301.4</ele>
        <time>2020-10-12T06:33:12Z</time>
      </trkpt>
      <trkpt lat="38.2456460" lon="-1.0162050">
        <ele>301.4</ele>
        <time>2020-10-12T06:33:13Z</time>
      </trkpt>
      <trkpt lat="38.2456870" lon="-1.0161750">
        <ele>301.4</ele>
        <time>2020-10-12T06:33:14Z</time>
      </trkpt>
      <trkpt lat="38.2457260" lon="-1.0161440">
        <ele>301.6</ele>
        <time>2020-10-12T06:33:15Z</time>
      </trkpt>
      <trkpt lat="38.2457650" lon="-1.0161140">
        <ele>301.6</ele>
        <time>2020-10-12T06:33:16Z</time>
      </trkpt>
      <trkpt lat="38.2458050" lon="-1.0160850">
        <ele>301.8</ele>
        <time>2020-10-12T06:33:17Z</time>
      </trkpt>
      <trkpt lat="38.2458440" lon="-1.0160550">
        <ele>302.0</ele>
        <time>2020-10-12T06:33:18Z</time>
      </trkpt>
      <trkpt lat="38.2458830" lon="-1.0160230">
        <ele>302.2</ele>
        <time>2020-10-12T06:33:19Z</time>
      </trkpt>
      <trkpt lat="38.2459220" lon="-1.0159920">
        <ele>302.2</ele>
        <time>2020-10-12T06:33:20Z</time>
      </trkpt>
      <trkpt lat="38.2459610" lon="-1.0159620">
        <ele>302.2</ele>
        <time>2020-10-12T06:33:21Z</time>
      </trkpt>
      <trkpt lat="38.2459990" lon="-1.0159320">
        <ele>302.2</ele>
        <time>2020-10-12T06:33:22Z</time>
      </trkpt>
      <trkpt lat="38.2460380" lon="-1.0159040">
        <ele>302.4</ele>
        <time>2020-10-12T06:33:23Z</time>
      </trkpt>
      <trkpt lat="38.2460760" lon="-1.0158750">
        <ele>302.4</ele>
        <time>2020-10-12T06:33:24Z</time>
      </trkpt>
      <trkpt lat="38.2461130" lon="-1.0158480">
        <ele>302.4</ele>
        <time>2020-10-12T06:33:25Z</time>
      </trkpt>
      <trkpt lat="38.2461490" lon="-1.0158210">
        <ele>302.4</ele>
        <time>2020-10-12T06:33:26Z</time>
      </trkpt>
      <trkpt lat="38.2461860" lon="-1.0157960">
        <ele>302.6</ele>
        <time>2020-10-12T06:33:27Z</time>
      </trkpt>
      <trkpt lat="38.2462230" lon="-1.0157710">
        <ele>303.0</ele>
        <time>2020-10-12T06:33:28Z</time>
      </trkpt>
      <trkpt lat="38.2462570" lon="-1.0157460">
        <ele>303.6</ele>
        <time>2020-10-12T06:33:29Z</time>
      </trkpt>
      <trkpt lat="38.2462910" lon="-1.0157200">
        <ele>304.0</ele>
        <time>2020-10-12T06:33:30Z</time>
      </trkpt>
      <trkpt lat="38.2463250" lon="-1.0156950">
        <ele>304.4</ele>
        <time>2020-10-12T06:33:31Z</time>
      </trkpt>
      <trkpt lat="38.2463560" lon="-1.0156720">
        <ele>304.6</ele>
        <time>2020-10-12T06:33:32Z</time>
      </trkpt>
      <trkpt lat="38.2463870" lon="-1.0156480">
        <ele>305.0</ele>
        <time>2020-10-12T06:33:33Z</time>
      </trkpt>
      <trkpt lat="38.2464190" lon="-1.0156200">
        <ele>305.4</ele>
        <time>2020-10-12T06:33:34Z</time>
      </trkpt>
      <trkpt lat="38.2464510" lon="-1.0155930">
        <ele>305.8</ele>
        <time>2020-10-12T06:33:35Z</time>
      </trkpt>
      <trkpt lat="38.2464790" lon="-1.0155670">
        <ele>306.2</ele>
        <time>2020-10-12T06:33:36Z</time>
      </trkpt>
      <trkpt lat="38.2465120" lon="-1.0155440">
        <ele>306.4</ele>
        <time>2020-10-12T06:33:37Z</time>
      </trkpt>
      <trkpt lat="38.2465430" lon="-1.0155210">
        <ele>306.8</ele>
        <time>2020-10-12T06:33:38Z</time>
      </trkpt>
      <trkpt lat="38.2465780" lon="-1.0155010">
        <ele>307.0</ele>
        <time>2020-10-12T06:33:39Z</time>
      </trkpt>
      <trkpt lat="38.2466110" lon="-1.0154840">
        <ele>307.2</ele>
        <time>2020-10-12T06:33:40Z</time>
      </trkpt>
      <trkpt lat="38.2466450" lon="-1.0154640">
        <ele>307.4</ele>
        <time>2020-10-12T06:33:41Z</time>
      </trkpt>
      <trkpt lat="38.2466790" lon="-1.0154420">
        <ele>307.6</ele>
        <time>2020-10-12T06:33:42Z</time>
      </trkpt>
      <trkpt lat="38.2467120" lon="-1.0154220">
        <ele>307.6</ele>
        <time>2020-10-12T06:33:43Z</time>
      </trkpt>
      <trkpt lat="38.2467430" lon="-1.0154030">
        <ele>308.0</ele>
        <time>2020-10-12T06:33:44Z</time>
      </trkpt>
      <trkpt lat="38.2467730" lon="-1.0153800">
        <ele>308.2</ele>
        <time>2020-10-12T06:33:45Z</time>
      </trkpt>
      <trkpt lat="38.2468020" lon="-1.0153580">
        <ele>308.6</ele>
        <time>2020-10-12T06:33:46Z</time>
      </trkpt>
      <trkpt lat="38.2468320" lon="-1.0153330">
        <ele>309.0</ele>
        <time>2020-10-12T06:33:47Z</time>
      </trkpt>
      <trkpt lat="38.2468610" lon="-1.0153080">
        <ele>309.2</ele>
        <time>2020-10-12T06:33:48Z</time>
      </trkpt>
      <trkpt lat="38.2468940" lon="-1.0152870">
        <ele>309.6</ele>
        <time>2020-10-12T06:33:49Z</time>
      </trkpt>
      <trkpt lat="38.2469240" lon="-1.0152640">
        <ele>310.0</ele>
        <time>2020-10-12T06:33:50Z</time>
      </trkpt>
      <trkpt lat="38.2469530" lon="-1.0152410">
        <ele>310.4</ele>
        <time>2020-10-12T06:33:51Z</time>
      </trkpt>
      <trkpt lat="38.2469860" lon="-1.0152160">
        <ele>310.4</ele>
        <time>2020-10-12T06:33:52Z</time>
      </trkpt>
      <trkpt lat="38.2470170" lon="-1.0151920">
        <ele>310.6</ele>
        <time>2020-10-12T06:33:53Z</time>
      </trkpt>
      <trkpt lat="38.2470490" lon="-1.0151680">
        <ele>310.8</ele>
        <time>2020-10-12T06:33:54Z</time>
      </trkpt>
      <trkpt lat="38.2470820" lon="-1.0151430">
        <ele>311.0</ele>
        <time>2020-10-12T06:33:55Z</time>
      </trkpt>
      <trkpt lat="38.2471120" lon="-1.0151180">
        <ele>311.2</ele>
        <time>2020-10-12T06:33:56Z</time>
      </trkpt>
      <trkpt lat="38.2471430" lon="-1.0150950">
        <ele>311.4</ele>
        <time>2020-10-12T06:33:57Z</time>
      </trkpt>
      <trkpt lat="38.2471740" lon="-1.0150740">
        <ele>311.6</ele>
        <time>2020-10-12T06:33:58Z</time>
      </trkpt>
      <trkpt lat="38.2472030" lon="-1.0150520">
        <ele>311.8</ele>
        <time>2020-10-12T06:33:59Z</time>
      </trkpt>
      <trkpt lat="38.2472350" lon="-1.0150290">
        <ele>312.0</ele>
        <time>2020-10-12T06:34:00Z</time>
      </trkpt>
      <trkpt lat="38.2472650" lon="-1.0150050">
        <ele>312.4</ele>
        <time>2020-10-12T06:34:01Z</time>
      </trkpt>
      <trkpt lat="38.2472960" lon="-1.0149820">
        <ele>312.6</ele>
        <time>2020-10-12T06:34:02Z</time>
      </trkpt>
      <trkpt lat="38.2473270" lon="-1.0149580">
        <ele>313.0</ele>
        <time>2020-10-12T06:34:03Z</time>
      </trkpt>
      <trkpt lat="38.2473600" lon="-1.0149350">
        <ele>313.2</ele>
        <time>2020-10-12T06:34:04Z</time>
      </trkpt>
      <trkpt lat="38.2473920" lon="-1.0149120">
        <ele>313.4</ele>
        <time>2020-10-12T06:34:05Z</time>
      </trkpt>
      <trkpt lat="38.2474250" lon="-1.0148880">
        <ele>313.6</ele>
        <time>2020-10-12T06:34:06Z</time>
      </trkpt>
      <trkpt lat="38.2474580" lon="-1.0148640">
        <ele>313.6</ele>
        <time>2020-10-12T06:34:07Z</time>
      </trkpt>
      <trkpt lat="38.2474900" lon="-1.0148410">
        <ele>313.8</ele>
        <time>2020-10-12T06:34:08Z</time>
      </trkpt>
      <trkpt lat="38.2475220" lon="-1.0148160">
        <ele>314.0</ele>
        <time>2020-10-12T06:34:09Z</time>
      </trkpt>
      <trkpt lat="38.2475540" lon="-1.0147900">
        <ele>314.2</ele>
        <time>2020-10-12T06:34:10Z</time>
      </trkpt>
      <trkpt lat="38.2475870" lon="-1.0147650">
        <ele>314.2</ele>
        <time>2020-10-12T06:34:11Z</time>
      </trkpt>
      <trkpt lat="38.2476190" lon="-1.0147400">
        <ele>314.4</ele>
        <time>2020-10-12T06:34:12Z</time>
      </trkpt>
      <trkpt lat="38.2476510" lon="-1.0147160">
        <ele>314.8</ele>
        <time>2020-10-12T06:34:13Z</time>
      </trkpt>
      <trkpt lat="38.2476810" lon="-1.0146930">
        <ele>315.0</ele>
        <time>2020-10-12T06:34:14Z</time>
      </trkpt>
      <trkpt lat="38.2477130" lon="-1.0146700">
        <ele>315.2</ele>
        <time>2020-10-12T06:34:15Z</time>
      </trkpt>
      <trkpt lat="38.2477460" lon="-1.0146460">
        <ele>315.4</ele>
        <time>2020-10-12T06:34:16Z</time>
      </trkpt>
      <trkpt lat="38.2477780" lon="-1.0146220">
        <ele>315.6</ele>
        <time>2020-10-12T06:34:17Z</time>
      </trkpt>
      <trkpt lat="38.2478090" lon="-1.0145980">
        <ele>316.0</ele>
        <time>2020-10-12T06:34:18Z</time>
      </trkpt>
      <trkpt lat="38.2478410" lon="-1.0145740">
        <ele>316.2</ele>
        <time>2020-10-12T06:34:19Z</time>
      </trkpt>
      <trkpt lat="38.2478740" lon="-1.0145490">
        <ele>316.6</ele>
        <time>2020-10-12T06:34:20Z</time>
      </trkpt>
      <trkpt lat="38.2479050" lon="-1.0145250">
        <ele>316.8</ele>
        <time>2020-10-12T06:34:21Z</time>
      </trkpt>
      <trkpt lat="38.2479360" lon="-1.0145000">
        <ele>317.0</ele>
        <time>2020-10-12T06:34:22Z</time>
      </trkpt>
      <trkpt lat="38.2479680" lon="-1.0144760">
        <ele>317.2</ele>
        <time>2020-10-12T06:34:23Z</time>
      </trkpt>
      <trkpt lat="38.2480000" lon="-1.0144530">
        <ele>317.4</ele>
        <time>2020-10-12T06:34:24Z</time>
      </trkpt>
      <trkpt lat="38.2480330" lon="-1.0144290">
        <ele>317.6</ele>
        <time>2020-10-12T06:34:25Z</time>
      </trkpt>
      <trkpt lat="38.2480650" lon="-1.0144040">
        <ele>318.0</ele>
        <time>2020-10-12T06:34:26Z</time>
      </trkpt>
      <trkpt lat="38.2480970" lon="-1.0143790">
        <ele>318.4</ele>
        <time>2020-10-12T06:34:27Z</time>
      </trkpt>
      <trkpt lat="38.2481290" lon="-1.0143540">
        <ele>318.6</ele>
        <time>2020-10-12T06:34:28Z</time>
      </trkpt>
      <trkpt lat="38.2481610" lon="-1.0143280">
        <ele>319.0</ele>
        <time>2020-10-12T06:34:29Z</time>
      </trkpt>
      <trkpt lat="38.2481930" lon="-1.0143030">
        <ele>319.2</ele>
        <time>2020-10-12T06:34:30Z</time>
      </trkpt>
      <trkpt lat="38.2482250" lon="-1.0142810">
        <ele>319.4</ele>
        <time>2020-10-12T06:34:31Z</time>
      </trkpt>
      <trkpt lat="38.2482570" lon="-1.0142580">
        <ele>319.6</ele>
        <time>2020-10-12T06:34:32Z</time>
      </trkpt>
      <trkpt lat="38.2482880" lon="-1.0142340">
        <ele>319.8</ele>
        <time>2020-10-12T06:34:33Z</time>
      </trkpt>
      <trkpt lat="38.2483180" lon="-1.0142100">
        <ele>320.0</ele>
        <time>2020-10-12T06:34:34Z</time>
      </trkpt>
      <trkpt lat="38.2483500" lon="-1.0141860">
        <ele>320.2</ele>
        <time>2020-10-12T06:34:35Z</time>
      </trkpt>
      <trkpt lat="38.2483820" lon="-1.0141630">
        <ele>320.6</ele>
        <time>2020-10-12T06:34:36Z</time>
      </trkpt>
      <trkpt lat="38.2484130" lon="-1.0141390">
        <ele>321.0</ele>
        <time>2020-10-12T06:34:37Z</time>
      </trkpt>
      <trkpt lat="38.2484440" lon="-1.0141160">
        <ele>321.4</ele>
        <time>2020-10-12T06:34:38Z</time>
      </trkpt>
      <trkpt lat="38.2484740" lon="-1.0140930">
        <ele>321.6</ele>
        <time>2020-10-12T06:34:39Z</time>
      </trkpt>
      <trkpt lat="38.2485040" lon="-1.0140710">
        <ele>322.0</ele>
        <time>2020-10-12T06:34:40Z</time>
      </trkpt>
      <trkpt lat="38.2485360" lon="-1.0140490">
        <ele>322.2</ele>
        <time>2020-10-12T06:34:41Z</time>
      </trkpt>
      <trkpt lat="38.2485680" lon="-1.0140280">
        <ele>322.4</ele>
        <time>2020-10-12T06:34:42Z</time>
      </trkpt>
      <trkpt lat="38.2486020" lon="-1.0140070">
        <ele>322.6</ele>
        <time>2020-10-12T06:34:43Z</time>
      </trkpt>
      <trkpt lat="38.2486340" lon="-1.0139880">
        <ele>322.8</ele>
        <time>2020-10-12T06:34:44Z</time>
      </trkpt>
      <trkpt lat="38.2486670" lon="-1.0139730">
        <ele>323.0</ele>
        <time>2020-10-12T06:34:45Z</time>
      </trkpt>
      <trkpt lat="38.2487020" lon="-1.0139630">
        <ele>323.4</ele>
        <time>2020-10-12T06:34:46Z</time>
      </trkpt>
      <trkpt lat="38.2487370" lon="-1.0139570">
        <ele>323.4</ele>
        <time>2020-10-12T06:34:47Z</time>
      </trkpt>
      <trkpt lat="38.2487720" lon="-1.0139540">
        <ele>323.8</ele>
        <time>2020-10-12T06:34:48Z</time>
      </trkpt>
      <trkpt lat="38.2488080" lon="-1.0139530">
        <ele>324.0</ele>
        <time>2020-10-12T06:34:49Z</time>
      </trkpt>
      <trkpt lat="38.2488450" lon="-1.0139550">
        <ele>324.2</ele>
        <time>2020-10-12T06:34:50Z</time>
      </trkpt>
      <trkpt lat="38.2488810" lon="-1.0139590">
        <ele>324.4</ele>
        <time>2020-10-12T06:34:51Z</time>
      </trkpt>
      <trkpt lat="38.2489160" lon="-1.0139670">
        <ele>324.6</ele>
        <time>2020-10-12T06:34:52Z</time>
      </trkpt>
      <trkpt lat="38.2489480" lon="-1.0139780">
        <ele>324.6</ele>
        <time>2020-10-12T06:34:53Z</time>
      </trkpt>
      <trkpt lat="38.2489860" lon="-1.0139920">
        <ele>324.8</ele>
        <time>2020-10-12T06:34:54Z</time>
      </trkpt>
      <trkpt lat="38.2490230" lon="-1.0140050">
        <ele>325.0</ele>
        <time>2020-10-12T06:34:55Z</time>
      </trkpt>
      <trkpt lat="38.2490610" lon="-1.0140230">
        <ele>325.2</ele>
        <time>2020-10-12T06:34:56Z</time>
      </trkpt>
      <trkpt lat="38.2490990" lon="-1.0140420">
        <ele>325.4</ele>
        <time>2020-10-12T06:34:57Z</time>
      </trkpt>
      <trkpt lat="38.2491380" lon="-1.0140610">
        <ele>325.2</ele>
        <time>2020-10-12T06:34:58Z</time>
      </trkpt>
      <trkpt lat="38.2491780" lon="-1.0140830">
        <ele>325.2</ele>
        <time>2020-10-12T06:34:59Z</time>
      </trkpt>
      <trkpt lat="38.2492180" lon="-1.0141050">
        <ele>325.2</ele>
        <time>2020-10-12T06:35:00Z</time>
      </trkpt>
      <trkpt lat="38.2492590" lon="-1.0141270">
        <ele>325.2</ele>
        <time>2020-10-12T06:35:01Z</time>
      </trkpt>
      <trkpt lat="38.2493000" lon="-1.0141510">
        <ele>325.2</ele>
        <time>2020-10-12T06:35:02Z</time>
      </trkpt>
      <trkpt lat="38.2493440" lon="-1.0141740">
        <ele>325.0</ele>
        <time>2020-10-12T06:35:03Z</time>
      </trkpt>
      <trkpt lat="38.2493870" lon="-1.0141970">
        <ele>324.8</ele>
        <time>2020-10-12T06:35:04Z</time>
      </trkpt>
      <trkpt lat="38.2494310" lon="-1.0142200">
        <ele>325.0</ele>
        <time>2020-10-12T06:35:05Z</time>
      </trkpt>
      <trkpt lat="38.2494740" lon="-1.0142420">
        <ele>325.2</ele>
        <time>2020-10-12T06:35:06Z</time>
      </trkpt>
      <trkpt lat="38.2495160" lon="-1.0142610">
        <ele>325.2</ele>
        <time>2020-10-12T06:35:07Z</time>
      </trkpt>
      <trkpt lat="38.2495570" lon="-1.0142770">
        <ele>325.2</ele>
        <time>2020-10-12T06:35:08Z</time>
      </trkpt>
      <trkpt lat="38.2495970" lon="-1.0142890">
        <ele>325.2</ele>
        <time>2020-10-12T06:35:09Z</time>
      </trkpt>
      <trkpt lat="38.2496380" lon="-1.0142960">
        <ele>325.4</ele>
        <time>2020-10-12T06:35:10Z</time>
      </trkpt>
      <trkpt lat="38.2496760" lon="-1.0142990">
        <ele>325.6</ele>
        <time>2020-10-12T06:35:11Z</time>
      </trkpt>
      <trkpt lat="38.2497150" lon="-1.0143000">
        <ele>325.8</ele>
        <time>2020-10-12T06:35:12Z</time>
      </trkpt>
      <trkpt lat="38.2497530" lon="-1.0143000">
        <ele>326.2</ele>
        <time>2020-10-12T06:35:13Z</time>
      </trkpt>
      <trkpt lat="38.2497910" lon="-1.0142970">
        <ele>326.6</ele>
        <time>2020-10-12T06:35:14Z</time>
      </trkpt>
      <trkpt lat="38.2498250" lon="-1.0142950">
        <ele>326.8</ele>
        <time>2020-10-12T06:35:15Z</time>
      </trkpt>
      <trkpt lat="38.2498560" lon="-1.0142900">
        <ele>327.0</ele>
        <time>2020-10-12T06:35:16Z</time>
      </trkpt>
      <trkpt lat="38.2498910" lon="-1.0142840">
        <ele>327.0</ele>
        <time>2020-10-12T06:35:17Z</time>
      </trkpt>
      <trkpt lat="38.2499230" lon="-1.0142770">
        <ele>327.2</ele>
        <time>2020-10-12T06:35:18Z</time>
      </trkpt>
      <trkpt lat="38.2499540" lon="-1.0142700">
        <ele>327.2</ele>
        <time>2020-10-12T06:35:19Z</time>
      </trkpt>
      <trkpt lat="38.2499870" lon="-1.0142600">
        <ele>327.2</ele>
        <time>2020-10-12T06:35:20Z</time>
      </trkpt>
      <trkpt lat="38.2500220" lon="-1.0142480">
        <ele>327.4</ele>
        <time>2020-10-12T06:35:21Z</time>
      </trkpt>
      <trkpt lat="38.2500550" lon="-1.0142340">
        <ele>327.6</ele>
        <time>2020-10-12T06:35:22Z</time>
      </trkpt>
      <trkpt lat="38.2500850" lon="-1.0142180">
        <ele>327.8</ele>
        <time>2020-10-12T06:35:23Z</time>
      </trkpt>
      <trkpt lat="38.2501150" lon="-1.0142000">
        <ele>328.2</ele>
        <time>2020-10-12T06:35:24Z</time>
      </trkpt>
      <trkpt lat="38.2501420" lon="-1.0141760">
        <ele>328.6</ele>
        <time>2020-10-12T06:35:25Z</time>
      </trkpt>
      <trkpt lat="38.2501720" lon="-1.0141480">
        <ele>328.8</ele>
        <time>2020-10-12T06:35:26Z</time>
      </trkpt>
      <trkpt lat="38.2502000" lon="-1.0141160">
        <ele>329.0</ele>
        <time>2020-10-12T06:35:27Z</time>
      </trkpt>
      <trkpt lat="38.2502240" lon="-1.0140820">
        <ele>329.2</ele>
        <time>2020-10-12T06:35:28Z</time>
      </trkpt>
      <trkpt lat="38.2502450" lon="-1.0140460">
        <ele>329.4</ele>
        <time>2020-10-12T06:35:29Z</time>
      </trkpt>
      <trkpt lat="38.2502650" lon="-1.0140080">
        <ele>329.6</ele>
        <time>2020-10-12T06:35:30Z</time>
      </trkpt>
      <trkpt lat="38.2502840" lon="-1.0139720">
        <ele>329.8</ele>
        <time>2020-10-12T06:35:31Z</time>
      </trkpt>
      <trkpt lat="38.2503050" lon="-1.0139370">
        <ele>330.0</ele>
        <time>2020-10-12T06:35:32Z</time>
      </trkpt>
      <trkpt lat="38.2503270" lon="-1.0139070">
        <ele>330.4</ele>
        <time>2020-10-12T06:35:33Z</time>
      </trkpt>
      <trkpt lat="38.2503510" lon="-1.0138800">
        <ele>330.6</ele>
        <time>2020-10-12T06:35:34Z</time>
      </trkpt>
      <trkpt lat="38.2503770" lon="-1.0138580">
        <ele>330.8</ele>
        <time>2020-10-12T06:35:35Z</time>
      </trkpt>
      <trkpt lat="38.2504050" lon="-1.0138390">
        <ele>331.0</ele>
        <time>2020-10-12T06:35:36Z</time>
      </trkpt>
      <trkpt lat="38.2504330" lon="-1.0138250">
        <ele>331.0</ele>
        <time>2020-10-12T06:35:37Z</time>
      </trkpt>
      <trkpt lat="38.2504620" lon="-1.0138140">
        <ele>331.2</ele>
        <time>2020-10-12T06:35:38Z</time>
      </trkpt>
      <trkpt lat="38.2504940" lon="-1.0138080">
        <ele>331.4</ele>
        <time>2020-10-12T06:35:39Z</time>
      </trkpt>
      <trkpt lat="38.2505250" lon="-1.0138040">
        <ele>331.6</ele>
        <time>2020-10-12T06:35:40Z</time>
      </trkpt>
      <trkpt lat="38.2505580" lon="-1.0138050">
        <ele>332.0</ele>
        <time>2020-10-12T06:35:41Z</time>
      </trkpt>
      <trkpt lat="38.2505900" lon="-1.0138060">
        <ele>332.2</ele>
        <time>2020-10-12T06:35:42Z</time>
      </trkpt>
      <trkpt lat="38.2506220" lon="-1.0138090">
        <ele>332.4</ele>
        <time>2020-10-12T06:35:43Z</time>
      </trkpt>
      <trkpt lat="38.2506570" lon="-1.0138140">
        <ele>332.6</ele>
        <time>2020-10-12T06:35:44Z</time>
      </trkpt>
      <trkpt lat="38.2506920" lon="-1.0138190">
        <ele>332.8</ele>
        <time>2020-10-12T06:35:45Z</time>
      </trkpt>
      <trkpt lat="38.2507270" lon="-1.0138250">
        <ele>332.8</ele>
        <time>2020-10-12T06:35:46Z</time>
      </trkpt>
      <trkpt lat="38.2507610" lon="-1.0138350">
        <ele>333.0</ele>
        <time>2020-10-12T06:35:47Z</time>
      </trkpt>
      <trkpt lat="38.2507940" lon="-1.0138450">
        <ele>333.0</ele>
        <time>2020-10-12T06:35:48Z</time>
      </trkpt>
      <trkpt lat="38.2508280" lon="-1.0138570">
        <ele>333.2</ele>
        <time>2020-10-12T06:35:49Z</time>
      </trkpt>
      <trkpt lat="38.2508610" lon="-1.0138690">
        <ele>333.2</ele>
        <time>2020-10-12T06:35:50Z</time>
      </trkpt>
      <trkpt lat="38.2508950" lon="-1.0138820">
        <ele>333.4</ele>
        <time>2020-10-12T06:35:51Z</time>
      </trkpt>
      <trkpt lat="38.2509270" lon="-1.0138960">
        <ele>333.6</ele>
        <time>2020-10-12T06:35:52Z</time>
      </trkpt>
      <trkpt lat="38.2509590" lon="-1.0139110">
        <ele>334.0</ele>
        <time>2020-10-12T06:35:53Z</time>
      </trkpt>
      <trkpt lat="38.2509920" lon="-1.0139270">
        <ele>334.2</ele>
        <time>2020-10-12T06:35:54Z</time>
      </trkpt>
      <trkpt lat="38.2510250" lon="-1.0139450">
        <ele>334.2</ele>
        <time>2020-10-12T06:35:55Z</time>
      </trkpt>
      <trkpt lat="38.2510590" lon="-1.0139630">
        <ele>334.6</ele>
        <time>2020-10-12T06:35:56Z</time>
      </trkpt>
      <trkpt lat="38.2510920" lon="-1.0139820">
        <ele>334.6</ele>
        <time>2020-10-12T06:35:57Z</time>
      </trkpt>
      <trkpt lat="38.2511240" lon="-1.0140020">
        <ele>334.8</ele>
        <time>2020-10-12T06:35:58Z</time>
      </trkpt>
      <trkpt lat="38.2511560" lon="-1.0140200">
        <ele>335.0</ele>
        <time>2020-10-12T06:35:59Z</time>
      </trkpt>
      <trkpt lat="38.2511890" lon="-1.0140390">
        <ele>335.2</ele>
        <time>2020-10-12T06:36:00Z</time>
      </trkpt>
      <trkpt lat="38.2512200" lon="-1.0140590">
        <ele>335.4</ele>
        <time>2020-10-12T06:36:01Z</time>
      </trkpt>
      <trkpt lat="38.2512510" lon="-1.0140800">
        <ele>335.6</ele>
        <time>2020-10-12T06:36:02Z</time>
      </trkpt>
      <trkpt lat="38.2512820" lon="-1.0140990">
        <ele>335.8</ele>
        <time>2020-10-12T06:36:03Z</time>
      </trkpt>
      <trkpt lat="38.2513150" lon="-1.0141180">
        <ele>335.8</ele>
        <time>2020-10-12T06:36:04Z</time>
      </trkpt>
      <trkpt lat="38.2513490" lon="-1.0141360">
        <ele>336.0</ele>
        <time>2020-10-12T06:36:05Z</time>
      </trkpt>
      <trkpt lat="38.2513810" lon="-1.0141540">
        <ele>336.0</ele>
        <time>2020-10-12T06:36:06Z</time>
      </trkpt>
      <trkpt lat="38.2514150" lon="-1.0141720">
        <ele>336.0</ele>
        <time>2020-10-12T06:36:07Z</time>
      </trkpt>
      <trkpt lat="38.2514500" lon="-1.0141870">
        <ele>336.2</ele>
        <time>2020-10-12T06:36:08Z</time>
      </trkpt>
      <trkpt lat="38.2514840" lon="-1.0142020">
        <ele>336.2</ele>
        <time>2020-10-12T06:36:09Z</time>
      </trkpt>
      <trkpt lat="38.2515160" lon="-1.0142180">
        <ele>336.2</ele>
        <time>2020-10-12T06:36:10Z</time>
      </trkpt>
      <trkpt lat="38.2515490" lon="-1.0142350">
        <ele>336.4</ele>
        <time>2020-10-12T06:36:11Z</time>
      </trkpt>
      <trkpt lat="38.2515820" lon="-1.0142510">
        <ele>336.6</ele>
        <time>2020-10-12T06:36:12Z</time>
      </trkpt>
      <trkpt lat="38.2516170" lon="-1.0142670">
        <ele>336.8</ele>
        <time>2020-10-12T06:36:13Z</time>
      </trkpt>
      <trkpt lat="38.2516490" lon="-1.0142830">
        <ele>337.2</ele>
        <time>2020-10-12T06:36:14Z</time>
      </trkpt>
      <trkpt lat="38.2516810" lon="-1.0142980">
        <ele>337.4</ele>
        <time>2020-10-12T06:36:15Z</time>
      </trkpt>
      <trkpt lat="38.2517140" lon="-1.0143120">
        <ele>337.6</ele>
        <time>2020-10-12T06:36:16Z</time>
      </trkpt>
      <trkpt lat="38.2517470" lon="-1.0143260">
        <ele>337.8</ele>
        <time>2020-10-12T06:36:17Z</time>
      </trkpt>
      <trkpt lat="38.2517790" lon="-1.0143400">
        <ele>338.2</ele>
        <time>2020-10-12T06:36:18Z</time>
      </trkpt>
      <trkpt lat="38.2518130" lon="-1.0143520">
        <ele>338.4</ele>
        <time>2020-10-12T06:36:19Z</time>
      </trkpt>
      <trkpt lat="38.2518460" lon="-1.0143640">
        <ele>338.8</ele>
        <time>2020-10-12T06:36:20Z</time>
      </trkpt>
      <trkpt lat="38.2518780" lon="-1.0143780">
        <ele>339.2</ele>
        <time>2020-10-12T06:36:21Z</time>
      </trkpt>
      <trkpt lat="38.2519110" lon="-1.0143930">
        <ele>339.4</ele>
        <time>2020-10-12T06:36:22Z</time>
      </trkpt>
      <trkpt lat="38.2519440" lon="-1.0144070">
        <ele>340.0</ele>
        <time>2020-10-12T06:36:23Z</time>
      </trkpt>
      <trkpt lat="38.2519780" lon="-1.0144230">
        <ele>340.2</ele>
        <time>2020-10-12T06:36:24Z</time>
      </trkpt>
      <trkpt lat="38.2520130" lon="-1.0144390">
        <ele>340.6</ele>
        <time>2020-10-12T06:36:25Z</time>
      </trkpt>
      <trkpt lat="38.2520460" lon="-1.0144530">
        <ele>340.6</ele>
        <time>2020-10-12T06:36:26Z</time>
      </trkpt>
      <trkpt lat="38.2520800" lon="-1.0144680">
        <ele>341.0</ele>
        <time>2020-10-12T06:36:27Z</time>
      </trkpt>
      <trkpt lat="38.2521140" lon="-1.0144820">
        <ele>341.2</ele>
        <time>2020-10-12T06:36:28Z</time>
      </trkpt>
      <trkpt lat="38.2521470" lon="-1.0144960">
        <ele>341.6</ele>
        <time>2020-10-12T06:36:29Z</time>
      </trkpt>
      <trkpt lat="38.2521800" lon="-1.0145080">
        <ele>341.8</ele>
        <time>2020-10-12T06:36:30Z</time>
      </trkpt>
      <trkpt lat="38.2522130" lon="-1.0145220">
        <ele>342.0</ele>
        <time>2020-10-12T06:36:31Z</time>
      </trkpt>
      <trkpt lat="38.2522470" lon="-1.0145360">
        <ele>342.2</ele>
        <time>2020-10-12T06:36:32Z</time>
      </trkpt>
      <trkpt lat="38.2522800" lon="-1.0145490">
        <ele>342.4</ele>
        <time>2020-10-12T06:36:33Z</time>
      </trkpt>
      <trkpt lat="38.2523140" lon="-1.0145620">
        <ele>342.8</ele>
        <time>2020-10-12T06:36:34Z</time>
      </trkpt>
      <trkpt lat="38.2523460" lon="-1.0145770">
        <ele>343.0</ele>
        <time>2020-10-12T06:36:35Z</time>
      </trkpt>
      <trkpt lat="38.2523790" lon="-1.0145920">
        <ele>343.4</ele>
        <time>2020-10-12T06:36:36Z</time>
      </trkpt>
      <trkpt lat="38.2524110" lon="-1.0146050">
        <ele>343.6</ele>
        <time>2020-10-12T06:36:37Z</time>
      </trkpt>
      <trkpt lat="38.2524430" lon="-1.0146170">
        <ele>343.8</ele>
        <time>2020-10-12T06:36:38Z</time>
      </trkpt>
      <trkpt lat="38.2524750" lon="-1.0146300">
        <ele>344.0</ele>
        <time>2020-10-12T06:36:39Z</time>
      </trkpt>
      <trkpt lat="38.2525060" lon="-1.0146440">
        <ele>344.2</ele>
        <time>2020-10-12T06:36:40Z</time>
      </trkpt>
      <trkpt lat="38.2525380" lon="-1.0146590">
        <ele>344.4</ele>
        <time>2020-10-12T06:36:41Z</time>
      </trkpt>
      <trkpt lat="38.2525700" lon="-1.0146740">
        <ele>344.6</ele>
        <time>2020-10-12T06:36:42Z</time>
      </trkpt>
      <trkpt lat="38.2526040" lon="-1.0146890">
        <ele>344.8</ele>
        <time>2020-10-12T06:36:43Z</time>
      </trkpt>
      <trkpt lat="38.2526380" lon="-1.0147040">
        <ele>345.0</ele>
        <time>2020-10-12T06:36:44Z</time>
      </trkpt>
      <trkpt lat="38.2526720" lon="-1.0147170">
        <ele>345.4</ele>
        <time>2020-10-12T06:36:45Z</time>
      </trkpt>
      <trkpt lat="38.2527060" lon="-1.0147300">
        <ele>345.6</ele>
        <time>2020-10-12T06:36:46Z</time>
      </trkpt>
      <trkpt lat="38.2527400" lon="-1.0147420">
        <ele>345.8</ele>
        <time>2020-10-12T06:36:47Z</time>
      </trkpt>
      <trkpt lat="38.2527760" lon="-1.0147520">
        <ele>345.8</ele>
        <time>2020-10-12T06:36:48Z</time>
      </trkpt>
      <trkpt lat="38.2528130" lon="-1.0147640">
        <ele>346.0</ele>
        <time>2020-10-12T06:36:49Z</time>
      </trkpt>
      <trkpt lat="38.2528480" lon="-1.0147740">
        <ele>346.0</ele>
        <time>2020-10-12T06:36:50Z</time>
      </trkpt>
      <trkpt lat="38.2528830" lon="-1.0147840">
        <ele>346.0</ele>
        <time>2020-10-12T06:36:51Z</time>
      </trkpt>
      <trkpt lat="38.2529220" lon="-1.0147910">
        <ele>346.2</ele>
        <time>2020-10-12T06:36:52Z</time>
      </trkpt>
      <trkpt lat="38.2529590" lon="-1.0147930">
        <ele>346.4</ele>
        <time>2020-10-12T06:36:53Z</time>
      </trkpt>
      <trkpt lat="38.2529980" lon="-1.0147940">
        <ele>346.4</ele>
        <time>2020-10-12T06:36:54Z</time>
      </trkpt>
      <trkpt lat="38.2530360" lon="-1.0147950">
        <ele>346.6</ele>
        <time>2020-10-12T06:36:55Z</time>
      </trkpt>
      <trkpt lat="38.2530750" lon="-1.0147930">
        <ele>346.8</ele>
        <time>2020-10-12T06:36:56Z</time>
      </trkpt>
      <trkpt lat="38.2531120" lon="-1.0147910">
        <ele>346.8</ele>
        <time>2020-10-12T06:36:57Z</time>
      </trkpt>
      <trkpt lat="38.2531490" lon="-1.0147890">
        <ele>346.8</ele>
        <time>2020-10-12T06:36:58Z</time>
      </trkpt>
      <trkpt lat="38.2531870" lon="-1.0147860">
        <ele>347.0</ele>
        <time>2020-10-12T06:36:59Z</time>
      </trkpt>
      <trkpt lat="38.2532260" lon="-1.0147800">
        <ele>347.2</ele>
        <time>2020-10-12T06:37:00Z</time>
      </trkpt>
      <trkpt lat="38.2532630" lon="-1.0147750">
        <ele>347.4</ele>
        <time>2020-10-12T06:37:01Z</time>
      </trkpt>
      <trkpt lat="38.2533000" lon="-1.0147680">
        <ele>347.6</ele>
        <time>2020-10-12T06:37:02Z</time>
      </trkpt>
      <trkpt lat="38.2533370" lon="-1.0147620">
        <ele>347.8</ele>
        <time>2020-10-12T06:37:03Z</time>
      </trkpt>
      <trkpt lat="38.2533740" lon="-1.0147540">
        <ele>348.0</ele>
        <time>2020-10-12T06:37:04Z</time>
      </trkpt>
      <trkpt lat="38.2534100" lon="-1.0147450">
        <ele>348.2</ele>
        <time>2020-10-12T06:37:05Z</time>
      </trkpt>
      <trkpt lat="38.2534460" lon="-1.0147330">
        <ele>348.4</ele>
        <time>2020-10-12T06:37:06Z</time>
      </trkpt>
      <trkpt lat="38.2534810" lon="-1.0147180">
        <ele>348.6</ele>
        <time>2020-10-12T06:37:07Z</time>
      </trkpt>
      <trkpt lat="38.2535150" lon="-1.0147010">
        <ele>348.8</ele>
        <time>2020-10-12T06:37:08Z</time>
      </trkpt>
      <trkpt lat="38.2535500" lon="-1.0146840">
        <ele>349.0</ele>
        <time>2020-10-12T06:37:09Z</time>
      </trkpt>
      <trkpt lat="38.2535840" lon="-1.0146650">
        <ele>349.2</ele>
        <time>2020-10-12T06:37:10Z</time>
      </trkpt>
      <trkpt lat="38.2536160" lon="-1.0146460">
        <ele>349.2</ele>
        <time>2020-10-12T06:37:11Z</time>
      </trkpt>
      <trkpt lat="38.2536460" lon="-1.0146210">
        <ele>349.6</ele>
        <time>2020-10-12T06:37:12Z</time>
      </trkpt>
      <trkpt lat="38.2536770" lon="-1.0145950">
        <ele>350.0</ele>
        <time>2020-10-12T06:37:13Z</time>
      </trkpt>
      <trkpt lat="38.2537100" lon="-1.0145730">
        <ele>350.6</ele>
        <time>2020-10-12T06:37:14Z</time>
      </trkpt>
      <trkpt lat="38.2537440" lon="-1.0145510">
        <ele>351.2</ele>
        <time>2020-10-12T06:37:15Z</time>
      </trkpt>
      <trkpt lat="38.2537780" lon="-1.0145290">
        <ele>351.6</ele>
        <time>2020-10-12T06:37:16Z</time>
      </trkpt>
      <trkpt lat="38.2538140" lon="-1.0145120">
        <ele>351.8</ele>
        <time>2020-10-12T06:37:17Z</time>
      </trkpt>
      <trkpt lat="38.2538500" lon="-1.0145000">
        <ele>352.2</ele>
        <time>2020-10-12T06:37:18Z</time>
      </trkpt>
      <trkpt lat="38.2538830" lon="-1.0144860">
        <ele>352.4</ele>
        <time>2020-10-12T06:37:19Z</time>
      </trkpt>
      <trkpt lat="38.2539150" lon="-1.0144670">
        <ele>352.6</ele>
        <time>2020-10-12T06:37:20Z</time>
      </trkpt>
      <trkpt lat="38.2539460" lon="-1.0144480">
        <ele>352.8</ele>
        <time>2020-10-12T06:37:21Z</time>
      </trkpt>
      <trkpt lat="38.2539750" lon="-1.0144290">
        <ele>353.0</ele>
        <time>2020-10-12T06:37:22Z</time>
      </trkpt>
      <trkpt lat="38.2540050" lon="-1.0144110">
        <ele>353.2</ele>
        <time>2020-10-12T06:37:23Z</time>
      </trkpt>
      <trkpt lat="38.2540330" lon="-1.0143920">
        <ele>353.4</ele>
        <time>2020-10-12T06:37:24Z</time>
      </trkpt>
      <trkpt lat="38.2540630" lon="-1.0143730">
        <ele>353.6</ele>
        <time>2020-10-12T06:37:25Z</time>
      </trkpt>
      <trkpt lat="38.2540940" lon="-1.0143520">
        <ele>354.0</ele>
        <time>2020-10-12T06:37:26Z</time>
      </trkpt>
      <trkpt lat="38.2541280" lon="-1.0143320">
        <ele>354.2</ele>
        <time>2020-10-12T06:37:27Z</time>
      </trkpt>
      <trkpt lat="38.2541610" lon="-1.0143120">
        <ele>354.6</ele>
        <time>2020-10-12T06:37:28Z</time>
      </trkpt>
      <trkpt lat="38.2541920" lon="-1.0142890">
        <ele>355.0</ele>
        <time>2020-10-12T06:37:29Z</time>
      </trkpt>
      <trkpt lat="38.2542180" lon="-1.0142620">
        <ele>355.2</ele>
        <time>2020-10-12T06:37:30Z</time>
      </trkpt>
      <trkpt lat="38.2542450" lon="-1.0142350">
        <ele>355.4</ele>
        <time>2020-10-12T06:37:31Z</time>
      </trkpt>
      <trkpt lat="38.2542720" lon="-1.0142070">
        <ele>355.6</ele>
        <time>2020-10-12T06:37:32Z</time>
      </trkpt>
      <trkpt lat="38.2543010" lon="-1.0141790">
        <ele>355.8</ele>
        <time>2020-10-12T06:37:33Z</time>
      </trkpt>
      <trkpt lat="38.2543290" lon="-1.0141520">
        <ele>355.8</ele>
        <time>2020-10-12T06:37:34Z</time>
      </trkpt>
      <trkpt lat="38.2543590" lon="-1.0141230">
        <ele>356.0</ele>
        <time>2020-10-12T06:37:35Z</time>
      </trkpt>
      <trkpt lat="38.2543880" lon="-1.0140930">
        <ele>356.2</ele>
        <time>2020-10-12T06:37:36Z</time>
      </trkpt>
      <trkpt lat="38.2544170" lon="-1.0140600">
        <ele>356.6</ele>
        <time>2020-10-12T06:37:37Z</time>
      </trkpt>
      <trkpt lat="38.2544460" lon="-1.0140280">
        <ele>356.8</ele>
        <time>2020-10-12T06:37:38Z</time>
      </trkpt>
      <trkpt lat="38.2544750" lon="-1.0139980">
        <ele>357.0</ele>
        <time>2020-10-12T06:37:39Z</time>
      </trkpt>
      <trkpt lat="38.2545020" lon="-1.0139670">
        <ele>357.2</ele>
        <time>2020-10-12T06:37:40Z</time>
      </trkpt>
      <trkpt lat="38.2545260" lon="-1.0139340">
        <ele>357.4</ele>
        <time>2020-10-12T06:37:41Z</time>
      </trkpt>
      <trkpt lat="38.2545490" lon="-1.0138990">
        <ele>357.6</ele>
        <time>2020-10-12T06:37:42Z</time>
      </trkpt>
      <trkpt lat="38.2545750" lon="-1.0138640">
        <ele>357.8</ele>
        <time>2020-10-12T06:37:43Z</time>
      </trkpt>
      <trkpt lat="38.2545980" lon="-1.0138330">
        <ele>358.0</ele>
        <time>2020-10-12T06:37:44Z</time>
      </trkpt>
      <trkpt lat="38.2546180" lon="-1.0138040">
        <ele>358.2</ele>
        <time>2020-10-12T06:37:45Z</time>
      </trkpt>
      <trkpt lat="38.2546420" lon="-1.0137750">
        <ele>358.4</ele>
        <time>2020-10-12T06:37:46Z</time>
      </trkpt>
      <trkpt lat="38.2546670" lon="-1.0137450">
        <ele>358.6</ele>
        <time>2020-10-12T06:37:47Z</time>
      </trkpt>
      <trkpt lat="38.2546930" lon="-1.0137170">
        <ele>358.8</ele>
        <time>2020-10-12T06:37:48Z</time>
      </trkpt>
      <trkpt lat="38.2547240" lon="-1.0136870">
        <ele>359.0</ele>
        <time>2020-10-12T06:37:49Z</time>
      </trkpt>
      <trkpt lat="38.2547550" lon="-1.0136550">
        <ele>359.2</ele>
        <time>2020-10-12T06:37:50Z</time>
      </trkpt>
      <trkpt lat="38.2547840" lon="-1.0136260">
        <ele>359.2</ele>
        <time>2020-10-12T06:37:51Z</time>
      </trkpt>
      <trkpt lat="38.2548150" lon="-1.0136020">
        <ele>359.4</ele>
        <time>2020-10-12T06:37:52Z</time>
      </trkpt>
      <trkpt lat="38.2548460" lon="-1.0135740">
        <ele>359.4</ele>
        <time>2020-10-12T06:37:53Z</time>
      </trkpt>
      <trkpt lat="38.2548740" lon="-1.0135450">
        <ele>359.4</ele>
        <time>2020-10-12T06:37:54Z</time>
      </trkpt>
      <trkpt lat="38.2549050" lon="-1.0135120">
        <ele>359.4</ele>
        <time>2020-10-12T06:37:55Z</time>
      </trkpt>
      <trkpt lat="38.2549330" lon="-1.0134770">
        <ele>359.6</ele>
        <time>2020-10-12T06:37:56Z</time>
      </trkpt>
      <trkpt lat="38.2549610" lon="-1.0134410">
        <ele>359.6</ele>
        <time>2020-10-12T06:37:57Z</time>
      </trkpt>
      <trkpt lat="38.2549910" lon="-1.0134080">
        <ele>359.6</ele>
        <time>2020-10-12T06:37:58Z</time>
      </trkpt>
      <trkpt lat="38.2550240" lon="-1.0133760">
        <ele>359.6</ele>
        <time>2020-10-12T06:37:59Z</time>
      </trkpt>
      <trkpt lat="38.2550570" lon="-1.0133410">
        <ele>359.6</ele>
        <time>2020-10-12T06:38:00Z</time>
      </trkpt>
      <trkpt lat="38.2550940" lon="-1.0133110">
        <ele>359.6</ele>
        <time>2020-10-12T06:38:01Z</time>
      </trkpt>
      <trkpt lat="38.2551270" lon="-1.0132850">
        <ele>359.4</ele>
        <time>2020-10-12T06:38:02Z</time>
      </trkpt>
      <trkpt lat="38.2551570" lon="-1.0132670">
        <ele>359.4</ele>
        <time>2020-10-12T06:38:03Z</time>
      </trkpt>
      <trkpt lat="38.2551830" lon="-1.0132520">
        <ele>359.2</ele>
        <time>2020-10-12T06:38:04Z</time>
      </trkpt>
      <trkpt lat="38.2552070" lon="-1.0132400">
        <ele>359.0</ele>
        <time>2020-10-12T06:38:05Z</time>
      </trkpt>
      <trkpt lat="38.2552290" lon="-1.0132280">
        <ele>359.0</ele>
        <time>2020-10-12T06:38:06Z</time>
      </trkpt>
      <trkpt lat="38.2552520" lon="-1.0132110">
        <ele>358.8</ele>
        <time>2020-10-12T06:38:07Z</time>
      </trkpt>
      <trkpt lat="38.2552740" lon="-1.0131930">
        <ele>358.8</ele>
        <time>2020-10-12T06:38:08Z</time>
      </trkpt>
      <trkpt lat="38.2552940" lon="-1.0131740">
        <ele>358.6</ele>
        <time>2020-10-12T06:38:09Z</time>
      </trkpt>
      <trkpt lat="38.2553330" lon="-1.0131540">
        <ele>358.6</ele>
        <time>2020-10-12T06:38:10Z</time>
      </trkpt>
      <trkpt lat="38.2553520" lon="-1.0131390">
        <ele>358.4</ele>
        <time>2020-10-12T06:38:11Z</time>
      </trkpt>
      <trkpt lat="38.2553690" lon="-1.0131310">
        <ele>358.2</ele>
        <time>2020-10-12T06:38:12Z</time>
      </trkpt>
      <trkpt lat="38.2553950" lon="-1.0131300">
        <ele>358.2</ele>
        <time>2020-10-12T06:38:13Z</time>
      </trkpt>
      <trkpt lat="38.2553990" lon="-1.0131220">
        <ele>358.0</ele>
        <time>2020-10-12T06:38:14Z</time>
      </trkpt>
      <trkpt lat="38.2553990" lon="-1.0131150">
        <ele>358.0</ele>
        <time>2020-10-12T06:38:15Z</time>
      </trkpt>
      <trkpt lat="38.2554470" lon="-1.0130860">
        <ele>357.6</ele>
        <time>2020-10-12T06:39:30Z</time>
      </trkpt>
      <trkpt lat="38.2554690" lon="-1.0130760">
        <ele>357.6</ele>
        <time>2020-10-12T06:39:31Z</time>
      </trkpt>
      <trkpt lat="38.2554910" lon="-1.0130600">
        <ele>357.6</ele>
        <time>2020-10-12T06:39:32Z</time>
      </trkpt>
      <trkpt lat="38.2555160" lon="-1.0130380">
        <ele>357.6</ele>
        <time>2020-10-12T06:39:33Z</time>
      </trkpt>
      <trkpt lat="38.2555460" lon="-1.0130160">
        <ele>357.6</ele>
        <time>2020-10-12T06:39:34Z</time>
      </trkpt>
      <trkpt lat="38.2555740" lon="-1.0129930">
        <ele>357.4</ele>
        <time>2020-10-12T06:39:35Z</time>
      </trkpt>
      <trkpt lat="38.2556030" lon="-1.0129710">
        <ele>357.4</ele>
        <time>2020-10-12T06:39:36Z</time>
      </trkpt>
      <trkpt lat="38.2556340" lon="-1.0129500">
        <ele>357.4</ele>
        <time>2020-10-12T06:39:37Z</time>
      </trkpt>
      <trkpt lat="38.2556700" lon="-1.0129280">
        <ele>357.2</ele>
        <time>2020-10-12T06:39:38Z</time>
      </trkpt>
      <trkpt lat="38.2557080" lon="-1.0129030">
        <ele>357.2</ele>
        <time>2020-10-12T06:39:39Z</time>
      </trkpt>
      <trkpt lat="38.2557450" lon="-1.0128750">
        <ele>357.0</ele>
        <time>2020-10-12T06:39:40Z</time>
      </trkpt>
      <trkpt lat="38.2557840" lon="-1.0128430">
        <ele>357.0</ele>
        <time>2020-10-12T06:39:41Z</time>
      </trkpt>
      <trkpt lat="38.2558280" lon="-1.0128020">
        <ele>357.0</ele>
        <time>2020-10-12T06:39:42Z</time>
      </trkpt>
      <trkpt lat="38.2558710" lon="-1.0127570">
        <ele>357.0</ele>
        <time>2020-10-12T06:39:43Z</time>
      </trkpt>
      <trkpt lat="38.2559160" lon="-1.0127090">
        <ele>356.8</ele>
        <time>2020-10-12T06:39:44Z</time>
      </trkpt>
      <trkpt lat="38.2559640" lon="-1.0126620">
        <ele>356.8</ele>
        <time>2020-10-12T06:39:45Z</time>
      </trkpt>
      <trkpt lat="38.2560110" lon="-1.0126140">
        <ele>357.0</ele>
        <time>2020-10-12T06:39:46Z</time>
      </trkpt>
      <trkpt lat="38.2560590" lon="-1.0125660">
        <ele>357.2</ele>
        <time>2020-10-12T06:39:47Z</time>
      </trkpt>
      <trkpt lat="38.2561080" lon="-1.0125240">
        <ele>357.2</ele>
        <time>2020-10-12T06:39:48Z</time>
      </trkpt>
      <trkpt lat="38.2561530" lon="-1.0124800">
        <ele>357.0</ele>
        <time>2020-10-12T06:39:49Z</time>
      </trkpt>
      <trkpt lat="38.2561940" lon="-1.0124370">
        <ele>356.8</ele>
        <time>2020-10-12T06:39:50Z</time>
      </trkpt>
      <trkpt lat="38.2562340" lon="-1.0123980">
        <ele>356.6</ele>
        <time>2020-10-12T06:39:51Z</time>
      </trkpt>
      <trkpt lat="38.2562770" lon="-1.0123600">
        <ele>356.6</ele>
        <time>2020-10-12T06:39:52Z</time>
      </trkpt>
      <trkpt lat="38.2563150" lon="-1.0123280">
        <ele>356.6</ele>
        <time>2020-10-12T06:39:53Z</time>
      </trkpt>
      <trkpt lat="38.2563480" lon="-1.0123010">
        <ele>356.6</ele>
        <time>2020-10-12T06:39:54Z</time>
      </trkpt>
      <trkpt lat="38.2563840" lon="-1.0122770">
        <ele>356.6</ele>
        <time>2020-10-12T06:39:55Z</time>
      </trkpt>
      <trkpt lat="38.2564210" lon="-1.0122540">
        <ele>357.0</ele>
        <time>2020-10-12T06:39:56Z</time>
      </trkpt>
      <trkpt lat="38.2564570" lon="-1.0122330">
        <ele>357.2</ele>
        <time>2020-10-12T06:39:57Z</time>
      </trkpt>
      <trkpt lat="38.2564960" lon="-1.0122090">
        <ele>357.6</ele>
        <time>2020-10-12T06:39:58Z</time>
      </trkpt>
      <trkpt lat="38.2565350" lon="-1.0121860">
        <ele>357.8</ele>
        <time>2020-10-12T06:39:59Z</time>
      </trkpt>
      <trkpt lat="38.2565690" lon="-1.0121620">
        <ele>358.0</ele>
        <time>2020-10-12T06:40:00Z</time>
      </trkpt>
      <trkpt lat="38.2566050" lon="-1.0121370">
        <ele>358.4</ele>
        <time>2020-10-12T06:40:01Z</time>
      </trkpt>
      <trkpt lat="38.2566410" lon="-1.0121130">
        <ele>359.0</ele>
        <time>2020-10-12T06:40:02Z</time>
      </trkpt>
      <trkpt lat="38.2566810" lon="-1.0120890">
        <ele>359.4</ele>
        <time>2020-10-12T06:40:03Z</time>
      </trkpt>
      <trkpt lat="38.2567200" lon="-1.0120620">
        <ele>359.8</ele>
        <time>2020-10-12T06:40:04Z</time>
      </trkpt>
      <trkpt lat="38.2567510" lon="-1.0120310">
        <ele>360.0</ele>
        <time>2020-10-12T06:40:05Z</time>
      </trkpt>
      <trkpt lat="38.2567730" lon="-1.0119940">
        <ele>360.2</ele>
        <time>2020-10-12T06:40:06Z</time>
      </trkpt>
      <trkpt lat="38.2567960" lon="-1.0119580">
        <ele>360.6</ele>
        <time>2020-10-12T06:40:07Z</time>
      </trkpt>
      <trkpt lat="38.2568200" lon="-1.0119240">
        <ele>360.8</ele>
        <time>2020-10-12T06:40:08Z</time>
      </trkpt>
      <trkpt lat="38.2568430" lon="-1.0118890">
        <ele>361.0</ele>
        <time>2020-10-12T06:40:09Z</time>
      </trkpt>
      <trkpt lat="38.2568640" lon="-1.0118530">
        <ele>361.2</ele>
        <time>2020-10-12T06:40:10Z</time>
      </trkpt>
      <trkpt lat="38.2568870" lon="-1.0118190">
        <ele>361.2</ele>
        <time>2020-10-12T06:40:11Z</time>
      </trkpt>
      <trkpt lat="38.2569120" lon="-1.0117840">
        <ele>361.4</ele>
        <time>2020-10-12T06:40:12Z</time>
      </trkpt>
      <trkpt lat="38.2569360" lon="-1.0117510">
        <ele>361.6</ele>
        <time>2020-10-12T06:40:13Z</time>
      </trkpt>
      <trkpt lat="38.2569610" lon="-1.0117190">
        <ele>362.0</ele>
        <time>2020-10-12T06:40:14Z</time>
      </trkpt>
      <trkpt lat="38.2569830" lon="-1.0116850">
        <ele>362.2</ele>
        <time>2020-10-12T06:40:15Z</time>
      </trkpt>
      <trkpt lat="38.2570030" lon="-1.0116510">
        <ele>362.6</ele>
        <time>2020-10-12T06:40:16Z</time>
      </trkpt>
      <trkpt lat="38.2570310" lon="-1.0116170">
        <ele>363.0</ele>
        <time>2020-10-12T06:40:17Z</time>
      </trkpt>
      <trkpt lat="38.2570570" lon="-1.0115840">
        <ele>363.4</ele>
        <time>2020-10-12T06:40:18Z</time>
      </trkpt>
      <trkpt lat="38.2570840" lon="-1.0115520">
        <ele>363.8</ele>
        <time>2020-10-12T06:40:19Z</time>
      </trkpt>
      <trkpt lat="38.2571120" lon="-1.0115180">
        <ele>364.0</ele>
        <time>2020-10-12T06:40:20Z</time>
      </trkpt>
      <trkpt lat="38.2571430" lon="-1.0114830">
        <ele>364.4</ele>
        <time>2020-10-12T06:40:21Z</time>
      </trkpt>
      <trkpt lat="38.2571690" lon="-1.0114490">
        <ele>364.6</ele>
        <time>2020-10-12T06:40:22Z</time>
      </trkpt>
      <trkpt lat="38.2571980" lon="-1.0114150">
        <ele>364.8</ele>
        <time>2020-10-12T06:40:23Z</time>
      </trkpt>
      <trkpt lat="38.2572280" lon="-1.0113860">
        <ele>365.0</ele>
        <time>2020-10-12T06:40:24Z</time>
      </trkpt>
      <trkpt lat="38.2572580" lon="-1.0113600">
        <ele>365.4</ele>
        <time>2020-10-12T06:40:25Z</time>
      </trkpt>
      <trkpt lat="38.2572900" lon="-1.0113350">
        <ele>365.6</ele>
        <time>2020-10-12T06:40:26Z</time>
      </trkpt>
      <trkpt lat="38.2573240" lon="-1.0113120">
        <ele>366.0</ele>
        <time>2020-10-12T06:40:27Z</time>
      </trkpt>
      <trkpt lat="38.2573570" lon="-1.0112900">
        <ele>366.4</ele>
        <time>2020-10-12T06:40:28Z</time>
      </trkpt>
      <trkpt lat="38.2573890" lon="-1.0112650">
        <ele>366.6</ele>
        <time>2020-10-12T06:40:29Z</time>
      </trkpt>
      <trkpt lat="38.2574170" lon="-1.0112420">
        <ele>367.0</ele>
        <time>2020-10-12T06:40:30Z</time>
      </trkpt>
      <trkpt lat="38.2574490" lon="-1.0112160">
        <ele>367.2</ele>
        <time>2020-10-12T06:40:31Z</time>
      </trkpt>
      <trkpt lat="38.2574800" lon="-1.0111920">
        <ele>367.6</ele>
        <time>2020-10-12T06:40:32Z</time>
      </trkpt>
      <trkpt lat="38.2575080" lon="-1.0111670">
        <ele>367.8</ele>
        <time>2020-10-12T06:40:33Z</time>
      </trkpt>
      <trkpt lat="38.2575360" lon="-1.0111360">
        <ele>368.2</ele>
        <time>2020-10-12T06:40:34Z</time>
      </trkpt>
      <trkpt lat="38.2575620" lon="-1.0111000">
        <ele>368.4</ele>
        <time>2020-10-12T06:40:35Z</time>
      </trkpt>
      <trkpt lat="38.2575910" lon="-1.0110610">
        <ele>368.6</ele>
        <time>2020-10-12T06:40:36Z</time>
      </trkpt>
      <trkpt lat="38.2576070" lon="-1.0110220">
        <ele>369.0</ele>
        <time>2020-10-12T06:40:37Z</time>
      </trkpt>
      <trkpt lat="38.2576240" lon="-1.0109820">
        <ele>369.2</ele>
        <time>2020-10-12T06:40:38Z</time>
      </trkpt>
      <trkpt lat="38.2576400" lon="-1.0109390">
        <ele>369.4</ele>
        <time>2020-10-12T06:40:39Z</time>
      </trkpt>
      <trkpt lat="38.2576530" lon="-1.0108940">
        <ele>369.6</ele>
        <time>2020-10-12T06:40:40Z</time>
      </trkpt>
      <trkpt lat="38.2576650" lon="-1.0108510">
        <ele>369.6</ele>
        <time>2020-10-12T06:40:41Z</time>
      </trkpt>
      <trkpt lat="38.2576760" lon="-1.0108050">
        <ele>369.8</ele>
        <time>2020-10-12T06:40:42Z</time>
      </trkpt>
      <trkpt lat="38.2576900" lon="-1.0107620">
        <ele>369.8</ele>
        <time>2020-10-12T06:40:43Z</time>
      </trkpt>
      <trkpt lat="38.2577030" lon="-1.0107180">
        <ele>370.0</ele>
        <time>2020-10-12T06:40:44Z</time>
      </trkpt>
      <trkpt lat="38.2577120" lon="-1.0106750">
        <ele>370.2</ele>
        <time>2020-10-12T06:40:45Z</time>
      </trkpt>
      <trkpt lat="38.2577190" lon="-1.0106300">
        <ele>370.2</ele>
        <time>2020-10-12T06:40:46Z</time>
      </trkpt>
      <trkpt lat="38.2577320" lon="-1.0105850">
        <ele>370.4</ele>
        <time>2020-10-12T06:40:47Z</time>
      </trkpt>
      <trkpt lat="38.2577450" lon="-1.0105400">
        <ele>370.8</ele>
        <time>2020-10-12T06:40:48Z</time>
      </trkpt>
      <trkpt lat="38.2577610" lon="-1.0104950">
        <ele>371.0</ele>
        <time>2020-10-12T06:40:49Z</time>
      </trkpt>
      <trkpt lat="38.2577820" lon="-1.0104520">
        <ele>371.0</ele>
        <time>2020-10-12T06:40:50Z</time>
      </trkpt>
      <trkpt lat="38.2578040" lon="-1.0104100">
        <ele>371.2</ele>
        <time>2020-10-12T06:40:51Z</time>
      </trkpt>
      <trkpt lat="38.2578290" lon="-1.0103710">
        <ele>371.4</ele>
        <time>2020-10-12T06:40:52Z</time>
      </trkpt>
      <trkpt lat="38.2578540" lon="-1.0103350">
        <ele>371.4</ele>
        <time>2020-10-12T06:40:53Z</time>
      </trkpt>
      <trkpt lat="38.2578780" lon="-1.0103000">
        <ele>371.6</ele>
        <time>2020-10-12T06:40:54Z</time>
      </trkpt>
      <trkpt lat="38.2579030" lon="-1.0102670">
        <ele>371.8</ele>
        <time>2020-10-12T06:40:55Z</time>
      </trkpt>
      <trkpt lat="38.2579290" lon="-1.0102380">
        <ele>372.0</ele>
        <time>2020-10-12T06:40:56Z</time>
      </trkpt>
      <trkpt lat="38.2579560" lon="-1.0102120">
        <ele>372.2</ele>
        <time>2020-10-12T06:40:57Z</time>
      </trkpt>
      <trkpt lat="38.2579850" lon="-1.0101890">
        <ele>372.4</ele>
        <time>2020-10-12T06:40:58Z</time>
      </trkpt>
      <trkpt lat="38.2580160" lon="-1.0101710">
        <ele>372.8</ele>
        <time>2020-10-12T06:40:59Z</time>
      </trkpt>
      <trkpt lat="38.2580490" lon="-1.0101610">
        <ele>373.2</ele>
        <time>2020-10-12T06:41:00Z</time>
      </trkpt>
      <trkpt lat="38.2580850" lon="-1.0101540">
        <ele>373.4</ele>
        <time>2020-10-12T06:41:01Z</time>
      </trkpt>
      <trkpt lat="38.2581210" lon="-1.0101540">
        <ele>373.6</ele>
        <time>2020-10-12T06:41:02Z</time>
      </trkpt>
      <trkpt lat="38.2581580" lon="-1.0101610">
        <ele>373.8</ele>
        <time>2020-10-12T06:41:03Z</time>
      </trkpt>
      <trkpt lat="38.2581940" lon="-1.0101730">
        <ele>374.0</ele>
        <time>2020-10-12T06:41:04Z</time>
      </trkpt>
      <trkpt lat="38.2582300" lon="-1.0101870">
        <ele>374.2</ele>
        <time>2020-10-12T06:41:05Z</time>
      </trkpt>
      <trkpt lat="38.2582660" lon="-1.0102050">
        <ele>374.4</ele>
        <time>2020-10-12T06:41:06Z</time>
      </trkpt>
      <trkpt lat="38.2583020" lon="-1.0102260">
        <ele>374.6</ele>
        <time>2020-10-12T06:41:07Z</time>
      </trkpt>
      <trkpt lat="38.2583390" lon="-1.0102450">
        <ele>374.8</ele>
        <time>2020-10-12T06:41:08Z</time>
      </trkpt>
      <trkpt lat="38.2583740" lon="-1.0102670">
        <ele>375.2</ele>
        <time>2020-10-12T06:41:09Z</time>
      </trkpt>
      <trkpt lat="38.2584100" lon="-1.0102920">
        <ele>375.4</ele>
        <time>2020-10-12T06:41:10Z</time>
      </trkpt>
      <trkpt lat="38.2584460" lon="-1.0103150">
        <ele>375.8</ele>
        <time>2020-10-12T06:41:11Z</time>
      </trkpt>
      <trkpt lat="38.2584820" lon="-1.0103380">
        <ele>376.0</ele>
        <time>2020-10-12T06:41:12Z</time>
      </trkpt>
      <trkpt lat="38.2585210" lon="-1.0103610">
        <ele>376.2</ele>
        <time>2020-10-12T06:41:13Z</time>
      </trkpt>
      <trkpt lat="38.2585590" lon="-1.0103840">
        <ele>376.4</ele>
        <time>2020-10-12T06:41:14Z</time>
      </trkpt>
      <trkpt lat="38.2585970" lon="-1.0104090">
        <ele>376.4</ele>
        <time>2020-10-12T06:41:15Z</time>
      </trkpt>
      <trkpt lat="38.2586340" lon="-1.0104330">
        <ele>376.6</ele>
        <time>2020-10-12T06:41:16Z</time>
      </trkpt>
      <trkpt lat="38.2586770" lon="-1.0104560">
        <ele>376.8</ele>
        <time>2020-10-12T06:41:17Z</time>
      </trkpt>
      <trkpt lat="38.2587210" lon="-1.0104730">
        <ele>377.0</ele>
        <time>2020-10-12T06:41:18Z</time>
      </trkpt>
      <trkpt lat="38.2587640" lon="-1.0104890">
        <ele>377.0</ele>
        <time>2020-10-12T06:41:19Z</time>
      </trkpt>
      <trkpt lat="38.2588100" lon="-1.0105050">
        <ele>377.2</ele>
        <time>2020-10-12T06:41:20Z</time>
      </trkpt>
      <trkpt lat="38.2588560" lon="-1.0105150">
        <ele>377.2</ele>
        <time>2020-10-12T06:41:21Z</time>
      </trkpt>
      <trkpt lat="38.2589060" lon="-1.0105160">
        <ele>377.2</ele>
        <time>2020-10-12T06:41:22Z</time>
      </trkpt>
      <trkpt lat="38.2589620" lon="-1.0105130">
        <ele>377.0</ele>
        <time>2020-10-12T06:41:23Z</time>
      </trkpt>
      <trkpt lat="38.2590170" lon="-1.0105020">
        <ele>376.8</ele>
        <time>2020-10-12T06:41:24Z</time>
      </trkpt>
      <trkpt lat="38.2590720" lon="-1.0104830">
        <ele>376.6</ele>
        <time>2020-10-12T06:41:25Z</time>
      </trkpt>
      <trkpt lat="38.2591240" lon="-1.0104590">
        <ele>376.6</ele>
        <time>2020-10-12T06:41:26Z</time>
      </trkpt>
      <trkpt lat="38.2591730" lon="-1.0104310">
        <ele>376.2</ele>
        <time>2020-10-12T06:41:27Z</time>
      </trkpt>
      <trkpt lat="38.2592220" lon="-1.0103960">
        <ele>376.0</ele>
        <time>2020-10-12T06:41:28Z</time>
      </trkpt>
      <trkpt lat="38.2592760" lon="-1.0103640">
        <ele>376.0</ele>
        <time>2020-10-12T06:41:29Z</time>
      </trkpt>
      <trkpt lat="38.2593350" lon="-1.0103280">
        <ele>375.6</ele>
        <time>2020-10-12T06:41:30Z</time>
      </trkpt>
      <trkpt lat="38.2593920" lon="-1.0102900">
        <ele>375.8</ele>
        <time>2020-10-12T06:41:31Z</time>
      </trkpt>
      <trkpt lat="38.2594480" lon="-1.0102590">
        <ele>375.8</ele>
        <time>2020-10-12T06:41:32Z</time>
      </trkpt>
      <trkpt lat="38.2595020" lon="-1.0102270">
        <ele>376.2</ele>
        <time>2020-10-12T06:41:33Z</time>
      </trkpt>
      <trkpt lat="38.2595460" lon="-1.0101970">
        <ele>376.4</ele>
        <time>2020-10-12T06:41:34Z</time>
      </trkpt>
      <trkpt lat="38.2595940" lon="-1.0101670">
        <ele>376.8</ele>
        <time>2020-10-12T06:41:35Z</time>
      </trkpt>
      <trkpt lat="38.2596400" lon="-1.0101320">
        <ele>377.0</ele>
        <time>2020-10-12T06:41:36Z</time>
      </trkpt>
      <trkpt lat="38.2596840" lon="-1.0100990">
        <ele>377.2</ele>
        <time>2020-10-12T06:41:37Z</time>
      </trkpt>
      <trkpt lat="38.2597280" lon="-1.0100710">
        <ele>377.4</ele>
        <time>2020-10-12T06:41:38Z</time>
      </trkpt>
      <trkpt lat="38.2597690" lon="-1.0100460">
        <ele>377.8</ele>
        <time>2020-10-12T06:41:39Z</time>
      </trkpt>
      <trkpt lat="38.2598100" lon="-1.0100220">
        <ele>378.4</ele>
        <time>2020-10-12T06:41:40Z</time>
      </trkpt>
      <trkpt lat="38.2598490" lon="-1.0099940">
        <ele>378.8</ele>
        <time>2020-10-12T06:41:41Z</time>
      </trkpt>
      <trkpt lat="38.2598870" lon="-1.0099630">
        <ele>379.2</ele>
        <time>2020-10-12T06:41:42Z</time>
      </trkpt>
      <trkpt lat="38.2599210" lon="-1.0099330">
        <ele>379.6</ele>
        <time>2020-10-12T06:41:43Z</time>
      </trkpt>
      <trkpt lat="38.2599550" lon="-1.0099010">
        <ele>380.0</ele>
        <time>2020-10-12T06:41:44Z</time>
      </trkpt>
      <trkpt lat="38.2599880" lon="-1.0098670">
        <ele>380.2</ele>
        <time>2020-10-12T06:41:45Z</time>
      </trkpt>
      <trkpt lat="38.2600170" lon="-1.0098310">
        <ele>380.6</ele>
        <time>2020-10-12T06:41:46Z</time>
      </trkpt>
      <trkpt lat="38.2600500" lon="-1.0097960">
        <ele>380.8</ele>
        <time>2020-10-12T06:41:47Z</time>
      </trkpt>
      <trkpt lat="38.2600840" lon="-1.0097620">
        <ele>381.0</ele>
        <time>2020-10-12T06:41:48Z</time>
      </trkpt>
      <trkpt lat="38.2601130" lon="-1.0097190">
        <ele>381.2</ele>
        <time>2020-10-12T06:41:49Z</time>
      </trkpt>
      <trkpt lat="38.2601400" lon="-1.0096760">
        <ele>381.4</ele>
        <time>2020-10-12T06:41:50Z</time>
      </trkpt>
      <trkpt lat="38.2601630" lon="-1.0096270">
        <ele>381.4</ele>
        <time>2020-10-12T06:41:51Z</time>
      </trkpt>
      <trkpt lat="38.2601820" lon="-1.0095670">
        <ele>381.6</ele>
        <time>2020-10-12T06:41:52Z</time>
      </trkpt>
      <trkpt lat="38.2602040" lon="-1.0095030">
        <ele>382.0</ele>
        <time>2020-10-12T06:41:53Z</time>
      </trkpt>
      <trkpt lat="38.2602270" lon="-1.0094380">
        <ele>382.2</ele>
        <time>2020-10-12T06:41:54Z</time>
      </trkpt>
      <trkpt lat="38.2602530" lon="-1.0093660">
        <ele>382.2</ele>
        <time>2020-10-12T06:41:55Z</time>
      </trkpt>
      <trkpt lat="38.2602810" lon="-1.0092930">
        <ele>382.2</ele>
        <time>2020-10-12T06:41:56Z</time>
      </trkpt>
      <trkpt lat="38.2603130" lon="-1.0092190">
        <ele>382.0</ele>
        <time>2020-10-12T06:41:57Z</time>
      </trkpt>
      <trkpt lat="38.2603450" lon="-1.0091440">
        <ele>382.0</ele>
        <time>2020-10-12T06:41:58Z</time>
      </trkpt>
      <trkpt lat="38.2603760" lon="-1.0090690">
        <ele>381.8</ele>
        <time>2020-10-12T06:41:59Z</time>
      </trkpt>
      <trkpt lat="38.2604060" lon="-1.0089910">
        <ele>381.6</ele>
        <time>2020-10-12T06:42:00Z</time>
      </trkpt>
      <trkpt lat="38.2604380" lon="-1.0089120">
        <ele>381.2</ele>
        <time>2020-10-12T06:42:01Z</time>
      </trkpt>
      <trkpt lat="38.2604720" lon="-1.0088280">
        <ele>380.8</ele>
        <time>2020-10-12T06:42:02Z</time>
      </trkpt>
      <trkpt lat="38.2605080" lon="-1.0087430">
        <ele>380.6</ele>
        <time>2020-10-12T06:42:03Z</time>
      </trkpt>
      <trkpt lat="38.2605460" lon="-1.0086540">
        <ele>380.6</ele>
        <time>2020-10-12T06:42:04Z</time>
      </trkpt>
      <trkpt lat="38.2605850" lon="-1.0085600">
        <ele>380.4</ele>
        <time>2020-10-12T06:42:05Z</time>
      </trkpt>
      <trkpt lat="38.2606250" lon="-1.0084620">
        <ele>380.0</ele>
        <time>2020-10-12T06:42:06Z</time>
      </trkpt>
      <trkpt lat="38.2606640" lon="-1.0083610">
        <ele>379.6</ele>
        <time>2020-10-12T06:42:07Z</time>
      </trkpt>
      <trkpt lat="38.2607060" lon="-1.0082570">
        <ele>379.4</ele>
        <time>2020-10-12T06:42:08Z</time>
      </trkpt>
      <trkpt lat="38.2607480" lon="-1.0081480">
        <ele>378.8</ele>
        <time>2020-10-12T06:42:09Z</time>
      </trkpt>
      <trkpt lat="38.2607890" lon="-1.0080430">
        <ele>378.2</ele>
        <time>2020-10-12T06:42:10Z</time>
      </trkpt>
      <trkpt lat="38.2608300" lon="-1.0079380">
        <ele>377.6</ele>
        <time>2020-10-12T06:42:11Z</time>
      </trkpt>
      <trkpt lat="38.2608730" lon="-1.0078330">
        <ele>377.0</ele>
        <time>2020-10-12T06:42:12Z</time>
      </trkpt>
      <trkpt lat="38.2609160" lon="-1.0077280">
        <ele>376.8</ele>
        <time>2020-10-12T06:42:13Z</time>
      </trkpt>
      <trkpt lat="38.2609610" lon="-1.0076220">
        <ele>376.4</ele>
        <time>2020-10-12T06:42:14Z</time>
      </trkpt>
      <trkpt lat="38.2610060" lon="-1.0075140">
        <ele>376.4</ele>
        <time>2020-10-12T06:42:15Z</time>
      </trkpt>
      <trkpt lat="38.2610510" lon="-1.0074040">
        <ele>376.2</ele>
        <time>2020-10-12T06:42:16Z</time>
      </trkpt>
      <trkpt lat="38.2610960" lon="-1.0072940">
        <ele>376.0</ele>
        <time>2020-10-12T06:42:17Z</time>
      </trkpt>
      <trkpt lat="38.2611400" lon="-1.0071830">
        <ele>375.6</ele>
        <time>2020-10-12T06:42:18Z</time>
      </trkpt>
      <trkpt lat="38.2611830" lon="-1.0070720">
        <ele>375.2</ele>
        <time>2020-10-12T06:42:19Z</time>
      </trkpt>
      <trkpt lat="38.2612280" lon="-1.0069580">
        <ele>374.6</ele>
        <time>2020-10-12T06:42:20Z</time>
      </trkpt>
      <trkpt lat="38.2612820" lon="-1.0068510">
        <ele>373.8</ele>
        <time>2020-10-12T06:42:21Z</time>
      </trkpt>
      <trkpt lat="38.2613460" lon="-1.0067620">
        <ele>373.2</ele>
        <time>2020-10-12T06:42:22Z</time>
      </trkpt>
      <trkpt lat="38.2614210" lon="-1.0066940">
        <ele>372.6</ele>
        <time>2020-10-12T06:42:23Z</time>
      </trkpt>
      <trkpt lat="38.2615050" lon="-1.0066470">
        <ele>371.8</ele>
        <time>2020-10-12T06:42:24Z</time>
      </trkpt>
      <trkpt lat="38.2615910" lon="-1.0066190">
        <ele>371.2</ele>
        <time>2020-10-12T06:42:25Z</time>
      </trkpt>
      <trkpt lat="38.2616830" lon="-1.0066170">
        <ele>370.8</ele>
        <time>2020-10-12T06:42:26Z</time>
      </trkpt>
      <trkpt lat="38.2617780" lon="-1.0066440">
        <ele>370.4</ele>
        <time>2020-10-12T06:42:27Z</time>
      </trkpt>
      <trkpt lat="38.2618740" lon="-1.0066910">
        <ele>370.0</ele>
        <time>2020-10-12T06:42:28Z</time>
      </trkpt>
      <trkpt lat="38.2619660" lon="-1.0067500">
        <ele>369.8</ele>
        <time>2020-10-12T06:42:29Z</time>
      </trkpt>
      <trkpt lat="38.2620580" lon="-1.0068180">
        <ele>369.4</ele>
        <time>2020-10-12T06:42:30Z</time>
      </trkpt>
      <trkpt lat="38.2621530" lon="-1.0068880">
        <ele>369.0</ele>
        <time>2020-10-12T06:42:31Z</time>
      </trkpt>
      <trkpt lat="38.2622540" lon="-1.0069470">
        <ele>368.4</ele>
        <time>2020-10-12T06:42:32Z</time>
      </trkpt>
      <trkpt lat="38.2623630" lon="-1.0069900">
        <ele>367.6</ele>
        <time>2020-10-12T06:42:33Z</time>
      </trkpt>
      <trkpt lat="38.2624730" lon="-1.0070180">
        <ele>366.6</ele>
        <time>2020-10-12T06:42:34Z</time>
      </trkpt>
      <trkpt lat="38.2625760" lon="-1.0070250">
        <ele>366.0</ele>
        <time>2020-10-12T06:42:35Z</time>
      </trkpt>
      <trkpt lat="38.2626740" lon="-1.0070060">
        <ele>365.8</ele>
        <time>2020-10-12T06:42:36Z</time>
      </trkpt>
      <trkpt lat="38.2627620" lon="-1.0069530">
        <ele>365.4</ele>
        <time>2020-10-12T06:42:37Z</time>
      </trkpt>
      <trkpt lat="38.2628340" lon="-1.0068710">
        <ele>365.2</ele>
        <time>2020-10-12T06:42:38Z</time>
      </trkpt>
      <trkpt lat="38.2628840" lon="-1.0067710">
        <ele>365.2</ele>
        <time>2020-10-12T06:42:39Z</time>
      </trkpt>
      <trkpt lat="38.2629010" lon="-1.0066510">
        <ele>365.4</ele>
        <time>2020-10-12T06:42:40Z</time>
      </trkpt>
      <trkpt lat="38.2628870" lon="-1.0065290">
        <ele>365.8</ele>
        <time>2020-10-12T06:42:41Z</time>
      </trkpt>
      <trkpt lat="38.2628520" lon="-1.0064140">
        <ele>366.0</ele>
        <time>2020-10-12T06:42:42Z</time>
      </trkpt>
      <trkpt lat="38.2628050" lon="-1.0063110">
        <ele>366.0</ele>
        <time>2020-10-12T06:42:43Z</time>
      </trkpt>
      <trkpt lat="38.2627560" lon="-1.0062160">
        <ele>366.2</ele>
        <time>2020-10-12T06:42:44Z</time>
      </trkpt>
      <trkpt lat="38.2627090" lon="-1.0061290">
        <ele>366.4</ele>
        <time>2020-10-12T06:42:45Z</time>
      </trkpt>
      <trkpt lat="38.2626740" lon="-1.0060360">
        <ele>366.0</ele>
        <time>2020-10-12T06:42:46Z</time>
      </trkpt>
      <trkpt lat="38.2626580" lon="-1.0059450">
        <ele>366.0</ele>
        <time>2020-10-12T06:42:47Z</time>
      </trkpt>
      <trkpt lat="38.2626620" lon="-1.0058540">
        <ele>365.8</ele>
        <time>2020-10-12T06:42:48Z</time>
      </trkpt>
      <trkpt lat="38.2626830" lon="-1.0057600">
        <ele>366.2</ele>
        <time>2020-10-12T06:42:49Z</time>
      </trkpt>
      <trkpt lat="38.2627140" lon="-1.0056670">
        <ele>366.8</ele>
        <time>2020-10-12T06:42:50Z</time>
      </trkpt>
      <trkpt lat="38.2627480" lon="-1.0055770">
        <ele>367.2</ele>
        <time>2020-10-12T06:42:51Z</time>
      </trkpt>
      <trkpt lat="38.2627810" lon="-1.0054910">
        <ele>367.8</ele>
        <time>2020-10-12T06:42:52Z</time>
      </trkpt>
      <trkpt lat="38.2628120" lon="-1.0054070">
        <ele>368.0</ele>
        <time>2020-10-12T06:42:53Z</time>
      </trkpt>
      <trkpt lat="38.2628380" lon="-1.0053240">
        <ele>368.0</ele>
        <time>2020-10-12T06:42:54Z</time>
      </trkpt>
      <trkpt lat="38.2628630" lon="-1.0052460">
        <ele>368.2</ele>
        <time>2020-10-12T06:42:55Z</time>
      </trkpt>
      <trkpt lat="38.2628850" lon="-1.0051680">
        <ele>368.4</ele>
        <time>2020-10-12T06:42:56Z</time>
      </trkpt>
      <trkpt lat="38.2629070" lon="-1.0050900">
        <ele>368.4</ele>
        <time>2020-10-12T06:42:57Z</time>
      </trkpt>
      <trkpt lat="38.2629300" lon="-1.0050160">
        <ele>368.8</ele>
        <time>2020-10-12T06:42:58Z</time>
      </trkpt>
      <trkpt lat="38.2629540" lon="-1.0049400">
        <ele>369.0</ele>
        <time>2020-10-12T06:42:59Z</time>
      </trkpt>
      <trkpt lat="38.2629750" lon="-1.0048660">
        <ele>369.4</ele>
        <time>2020-10-12T06:43:00Z</time>
      </trkpt>
      <trkpt lat="38.2629950" lon="-1.0047920">
        <ele>369.6</ele>
        <time>2020-10-12T06:43:01Z</time>
      </trkpt>
      <trkpt lat="38.2630090" lon="-1.0047170">
        <ele>369.8</ele>
        <time>2020-10-12T06:43:02Z</time>
      </trkpt>
      <trkpt lat="38.2630200" lon="-1.0046350">
        <ele>370.0</ele>
        <time>2020-10-12T06:43:03Z</time>
      </trkpt>
      <trkpt lat="38.2630250" lon="-1.0045490">
        <ele>370.2</ele>
        <time>2020-10-12T06:43:04Z</time>
      </trkpt>
      <trkpt lat="38.2630280" lon="-1.0044630">
        <ele>370.2</ele>
        <time>2020-10-12T06:43:05Z</time>
      </trkpt>
      <trkpt lat="38.2630280" lon="-1.0043720">
        <ele>370.4</ele>
        <time>2020-10-12T06:43:06Z</time>
      </trkpt>
      <trkpt lat="38.2630260" lon="-1.0042730">
        <ele>370.4</ele>
        <time>2020-10-12T06:43:07Z</time>
      </trkpt>
      <trkpt lat="38.2630230" lon="-1.0041670">
        <ele>370.0</ele>
        <time>2020-10-12T06:43:08Z</time>
      </trkpt>
      <trkpt lat="38.2630210" lon="-1.0040530">
        <ele>369.8</ele>
        <time>2020-10-12T06:43:09Z</time>
      </trkpt>
      <trkpt lat="38.2630180" lon="-1.0039340">
        <ele>369.6</ele>
        <time>2020-10-12T06:43:10Z</time>
      </trkpt>
      <trkpt lat="38.2630130" lon="-1.0038110">
        <ele>369.2</ele>
        <time>2020-10-12T06:43:11Z</time>
      </trkpt>
      <trkpt lat="38.2630090" lon="-1.0036840">
        <ele>368.6</ele>
        <time>2020-10-12T06:43:12Z</time>
      </trkpt>
      <trkpt lat="38.2630040" lon="-1.0035520">
        <ele>367.8</ele>
        <time>2020-10-12T06:43:13Z</time>
      </trkpt>
      <trkpt lat="38.2629980" lon="-1.0034190">
        <ele>366.8</ele>
        <time>2020-10-12T06:43:14Z</time>
      </trkpt>
      <trkpt lat="38.2629910" lon="-1.0032860">
        <ele>366.0</ele>
        <time>2020-10-12T06:43:15Z</time>
      </trkpt>
      <trkpt lat="38.2629870" lon="-1.0031480">
        <ele>365.2</ele>
        <time>2020-10-12T06:43:16Z</time>
      </trkpt>
      <trkpt lat="38.2629830" lon="-1.0030060">
        <ele>364.4</ele>
        <time>2020-10-12T06:43:17Z</time>
      </trkpt>
      <trkpt lat="38.2629800" lon="-1.0028630">
        <ele>364.0</ele>
        <time>2020-10-12T06:43:18Z</time>
      </trkpt>
      <trkpt lat="38.2629760" lon="-1.0027170">
        <ele>363.6</ele>
        <time>2020-10-12T06:43:19Z</time>
      </trkpt>
      <trkpt lat="38.2629720" lon="-1.0025740">
        <ele>362.8</ele>
        <time>2020-10-12T06:43:20Z</time>
      </trkpt>
      <trkpt lat="38.2629680" lon="-1.0024360">
        <ele>362.0</ele>
        <time>2020-10-12T06:43:21Z</time>
      </trkpt>
      <trkpt lat="38.2629620" lon="-1.0023000">
        <ele>361.0</ele>
        <time>2020-10-12T06:43:22Z</time>
      </trkpt>
      <trkpt lat="38.2629580" lon="-1.0021670">
        <ele>360.2</ele>
        <time>2020-10-12T06:43:23Z</time>
      </trkpt>
      <trkpt lat="38.2629550" lon="-1.0020350">
        <ele>359.6</ele>
        <time>2020-10-12T06:43:24Z</time>
      </trkpt>
      <trkpt lat="38.2629510" lon="-1.0019020">
        <ele>359.2</ele>
        <time>2020-10-12T06:43:25Z</time>
      </trkpt>
      <trkpt lat="38.2629460" lon="-1.0017790">
        <ele>359.0</ele>
        <time>2020-10-12T06:43:26Z</time>
      </trkpt>
      <trkpt lat="38.2629400" lon="-1.0016610">
        <ele>359.0</ele>
        <time>2020-10-12T06:43:27Z</time>
      </trkpt>
      <trkpt lat="38.2629340" lon="-1.0015450">
        <ele>359.2</ele>
        <time>2020-10-12T06:43:28Z</time>
      </trkpt>
      <trkpt lat="38.2629270" lon="-1.0014310">
        <ele>359.2</ele>
        <time>2020-10-12T06:43:29Z</time>
      </trkpt>
      <trkpt lat="38.2629250" lon="-1.0013190">
        <ele>359.2</ele>
        <time>2020-10-12T06:43:30Z</time>
      </trkpt>
      <trkpt lat="38.2629300" lon="-1.0012120">
        <ele>359.2</ele>
        <time>2020-10-12T06:43:31Z</time>
      </trkpt>
      <trkpt lat="38.2629510" lon="-1.0011170">
        <ele>359.2</ele>
        <time>2020-10-12T06:43:32Z</time>
      </trkpt>
      <trkpt lat="38.2629980" lon="-1.0010400">
        <ele>358.8</ele>
        <time>2020-10-12T06:43:33Z</time>
      </trkpt>
      <trkpt lat="38.2630600" lon="-1.0009740">
        <ele>358.4</ele>
        <time>2020-10-12T06:43:34Z</time>
      </trkpt>
      <trkpt lat="38.2631270" lon="-1.0009200">
        <ele>358.0</ele>
        <time>2020-10-12T06:43:35Z</time>
      </trkpt>
      <trkpt lat="38.2632060" lon="-1.0008730">
        <ele>357.6</ele>
        <time>2020-10-12T06:43:36Z</time>
      </trkpt>
      <trkpt lat="38.2632870" lon="-1.0008280">
        <ele>357.2</ele>
        <time>2020-10-12T06:43:37Z</time>
      </trkpt>
      <trkpt lat="38.2633740" lon="-1.0007780">
        <ele>357.0</ele>
        <time>2020-10-12T06:43:38Z</time>
      </trkpt>
      <trkpt lat="38.2634600" lon="-1.0007140">
        <ele>356.8</ele>
        <time>2020-10-12T06:43:39Z</time>
      </trkpt>
      <trkpt lat="38.2635450" lon="-1.0006400">
        <ele>356.6</ele>
        <time>2020-10-12T06:43:40Z</time>
      </trkpt>
      <trkpt lat="38.2636280" lon="-1.0005620">
        <ele>356.2</ele>
        <time>2020-10-12T06:43:41Z</time>
      </trkpt>
      <trkpt lat="38.2637150" lon="-1.0004850">
        <ele>355.6</ele>
        <time>2020-10-12T06:43:42Z</time>
      </trkpt>
      <trkpt lat="38.2637950" lon="-1.0004050">
        <ele>354.8</ele>
        <time>2020-10-12T06:43:43Z</time>
      </trkpt>
      <trkpt lat="38.2638800" lon="-1.0003130">
        <ele>354.0</ele>
        <time>2020-10-12T06:43:44Z</time>
      </trkpt>
      <trkpt lat="38.2639520" lon="-1.0002280">
        <ele>353.4</ele>
        <time>2020-10-12T06:43:45Z</time>
      </trkpt>
      <trkpt lat="38.2640200" lon="-1.0001450">
        <ele>353.0</ele>
        <time>2020-10-12T06:43:46Z</time>
      </trkpt>
      <trkpt lat="38.2640920" lon="-1.0000650">
        <ele>352.8</ele>
        <time>2020-10-12T06:43:47Z</time>
      </trkpt>
      <trkpt lat="38.2641650" lon="-0.9999920">
        <ele>352.8</ele>
        <time>2020-10-12T06:43:48Z</time>
      </trkpt>
      <trkpt lat="38.2642410" lon="-0.9999270">
        <ele>352.6</ele>
        <time>2020-10-12T06:43:49Z</time>
      </trkpt>
      <trkpt lat="38.2643170" lon="-0.9998710">
        <ele>352.6</ele>
        <time>2020-10-12T06:43:50Z</time>
      </trkpt>
      <trkpt lat="38.2643920" lon="-0.9998190">
        <ele>352.8</ele>
        <time>2020-10-12T06:43:51Z</time>
      </trkpt>
      <trkpt lat="38.2644630" lon="-0.9997690">
        <ele>353.2</ele>
        <time>2020-10-12T06:43:52Z</time>
      </trkpt>
      <trkpt lat="38.2645320" lon="-0.9997180">
        <ele>353.8</ele>
        <time>2020-10-12T06:43:53Z</time>
      </trkpt>
      <trkpt lat="38.2645980" lon="-0.9996630">
        <ele>354.2</ele>
        <time>2020-10-12T06:43:54Z</time>
      </trkpt>
      <trkpt lat="38.2646570" lon="-0.9996000">
        <ele>354.4</ele>
        <time>2020-10-12T06:43:55Z</time>
      </trkpt>
      <trkpt lat="38.2647110" lon="-0.9995280">
        <ele>354.6</ele>
        <time>2020-10-12T06:43:56Z</time>
      </trkpt>
      <trkpt lat="38.2647650" lon="-0.9994520">
        <ele>354.8</ele>
        <time>2020-10-12T06:43:57Z</time>
      </trkpt>
      <trkpt lat="38.2648190" lon="-0.9993730">
        <ele>354.8</ele>
        <time>2020-10-12T06:43:58Z</time>
      </trkpt>
      <trkpt lat="38.2648790" lon="-0.9992960">
        <ele>354.6</ele>
        <time>2020-10-12T06:43:59Z</time>
      </trkpt>
      <trkpt lat="38.2649410" lon="-0.9992120">
        <ele>354.2</ele>
        <time>2020-10-12T06:44:00Z</time>
      </trkpt>
      <trkpt lat="38.2650020" lon="-0.9991280">
        <ele>353.6</ele>
        <time>2020-10-12T06:44:01Z</time>
      </trkpt>
      <trkpt lat="38.2650640" lon="-0.9990420">
        <ele>353.0</ele>
        <time>2020-10-12T06:44:02Z</time>
      </trkpt>
      <trkpt lat="38.2651230" lon="-0.9989530">
        <ele>352.2</ele>
        <time>2020-10-12T06:44:03Z</time>
      </trkpt>
      <trkpt lat="38.2651880" lon="-0.9988570">
        <ele>352.0</ele>
        <time>2020-10-12T06:44:04Z</time>
      </trkpt>
      <trkpt lat="38.2652510" lon="-0.9987670">
        <ele>351.6</ele>
        <time>2020-10-12T06:44:05Z</time>
      </trkpt>
      <trkpt lat="38.2653140" lon="-0.9986750">
        <ele>351.2</ele>
        <time>2020-10-12T06:44:06Z</time>
      </trkpt>
      <trkpt lat="38.2653760" lon="-0.9985830">
        <ele>351.0</ele>
        <time>2020-10-12T06:44:07Z</time>
      </trkpt>
      <trkpt lat="38.2654360" lon="-0.9984920">
        <ele>350.8</ele>
        <time>2020-10-12T06:44:08Z</time>
      </trkpt>
      <trkpt lat="38.2654930" lon="-0.9984010">
        <ele>350.4</ele>
        <time>2020-10-12T06:44:09Z</time>
      </trkpt>
      <trkpt lat="38.2655500" lon="-0.9983120">
        <ele>350.6</ele>
        <time>2020-10-12T06:44:10Z</time>
      </trkpt>
      <trkpt lat="38.2656080" lon="-0.9982260">
        <ele>350.4</ele>
        <time>2020-10-12T06:44:11Z</time>
      </trkpt>
      <trkpt lat="38.2656660" lon="-0.9981420">
        <ele>350.2</ele>
        <time>2020-10-12T06:44:12Z</time>
      </trkpt>
      <trkpt lat="38.2657250" lon="-0.9980570">
        <ele>350.2</ele>
        <time>2020-10-12T06:44:13Z</time>
      </trkpt>
      <trkpt lat="38.2657830" lon="-0.9979750">
        <ele>350.2</ele>
        <time>2020-10-12T06:44:14Z</time>
      </trkpt>
      <trkpt lat="38.2658400" lon="-0.9978940">
        <ele>350.4</ele>
        <time>2020-10-12T06:44:15Z</time>
      </trkpt>
      <trkpt lat="38.2658940" lon="-0.9978120">
        <ele>350.8</ele>
        <time>2020-10-12T06:44:16Z</time>
      </trkpt>
      <trkpt lat="38.2659460" lon="-0.9977330">
        <ele>351.0</ele>
        <time>2020-10-12T06:44:17Z</time>
      </trkpt>
      <trkpt lat="38.2659980" lon="-0.9976520">
        <ele>351.2</ele>
        <time>2020-10-12T06:44:18Z</time>
      </trkpt>
      <trkpt lat="38.2660490" lon="-0.9975750">
        <ele>351.6</ele>
        <time>2020-10-12T06:44:19Z</time>
      </trkpt>
      <trkpt lat="38.2661000" lon="-0.9975010">
        <ele>351.8</ele>
        <time>2020-10-12T06:44:20Z</time>
      </trkpt>
      <trkpt lat="38.2661510" lon="-0.9974240">
        <ele>352.0</ele>
        <time>2020-10-12T06:44:21Z</time>
      </trkpt>
      <trkpt lat="38.2661960" lon="-0.9973460">
        <ele>352.0</ele>
        <time>2020-10-12T06:44:22Z</time>
      </trkpt>
      <trkpt lat="38.2662370" lon="-0.9972620">
        <ele>352.2</ele>
        <time>2020-10-12T06:44:23Z</time>
      </trkpt>
      <trkpt lat="38.2662730" lon="-0.9971770">
        <ele>352.2</ele>
        <time>2020-10-12T06:44:24Z</time>
      </trkpt>
      <trkpt lat="38.2663030" lon="-0.9970920">
        <ele>352.6</ele>
        <time>2020-10-12T06:44:25Z</time>
      </trkpt>
      <trkpt lat="38.2663230" lon="-0.9970050">
        <ele>352.8</ele>
        <time>2020-10-12T06:44:26Z</time>
      </trkpt>
      <trkpt lat="38.2663350" lon="-0.9969150">
        <ele>352.8</ele>
        <time>2020-10-12T06:44:27Z</time>
      </trkpt>
      <trkpt lat="38.2663460" lon="-0.9968240">
        <ele>353.0</ele>
        <time>2020-10-12T06:44:28Z</time>
      </trkpt>
      <trkpt lat="38.2663510" lon="-0.9967350">
        <ele>353.0</ele>
        <time>2020-10-12T06:44:29Z</time>
      </trkpt>
      <trkpt lat="38.2663580" lon="-0.9966460">
        <ele>353.0</ele>
        <time>2020-10-12T06:44:30Z</time>
      </trkpt>
      <trkpt lat="38.2663670" lon="-0.9965570">
        <ele>352.8</ele>
        <time>2020-10-12T06:44:31Z</time>
      </trkpt>
      <trkpt lat="38.2663760" lon="-0.9964710">
        <ele>352.6</ele>
        <time>2020-10-12T06:44:32Z</time>
      </trkpt>
      <trkpt lat="38.2663890" lon="-0.9963850">
        <ele>352.8</ele>
        <time>2020-10-12T06:44:33Z</time>
      </trkpt>
      <trkpt lat="38.2664020" lon="-0.9962990">
        <ele>353.2</ele>
        <time>2020-10-12T06:44:34Z</time>
      </trkpt>
      <trkpt lat="38.2664170" lon="-0.9962130">
        <ele>353.6</ele>
        <time>2020-10-12T06:44:35Z</time>
      </trkpt>
      <trkpt lat="38.2664470" lon="-0.9961260">
        <ele>354.0</ele>
        <time>2020-10-12T06:44:36Z</time>
      </trkpt>
      <trkpt lat="38.2664670" lon="-0.9960480">
        <ele>354.4</ele>
        <time>2020-10-12T06:44:37Z</time>
      </trkpt>
      <trkpt lat="38.2664880" lon="-0.9959660">
        <ele>354.4</ele>
        <time>2020-10-12T06:44:38Z</time>
      </trkpt>
      <trkpt lat="38.2665080" lon="-0.9958810">
        <ele>354.8</ele>
        <time>2020-10-12T06:44:39Z</time>
      </trkpt>
      <trkpt lat="38.2665240" lon="-0.9957980">
        <ele>354.8</ele>
        <time>2020-10-12T06:44:40Z</time>
      </trkpt>
      <trkpt lat="38.2665340" lon="-0.9957100">
        <ele>354.8</ele>
        <time>2020-10-12T06:44:41Z</time>
      </trkpt>
      <trkpt lat="38.2665430" lon="-0.9956260">
        <ele>355.0</ele>
        <time>2020-10-12T06:44:42Z</time>
      </trkpt>
      <trkpt lat="38.2665510" lon="-0.9955420">
        <ele>354.8</ele>
        <time>2020-10-12T06:44:43Z</time>
      </trkpt>
      <trkpt lat="38.2665570" lon="-0.9954590">
        <ele>354.8</ele>
        <time>2020-10-12T06:44:44Z</time>
      </trkpt>
      <trkpt lat="38.2665610" lon="-0.9953760">
        <ele>355.0</ele>
        <time>2020-10-12T06:44:45Z</time>
      </trkpt>
      <trkpt lat="38.2665650" lon="-0.9952920">
        <ele>355.2</ele>
        <time>2020-10-12T06:44:46Z</time>
      </trkpt>
      <trkpt lat="38.2665680" lon="-0.9952050">
        <ele>355.2</ele>
        <time>2020-10-12T06:44:47Z</time>
      </trkpt>
      <trkpt lat="38.2665710" lon="-0.9951280">
        <ele>355.2</ele>
        <time>2020-10-12T06:44:48Z</time>
      </trkpt>
      <trkpt lat="38.2665730" lon="-0.9950490">
        <ele>355.2</ele>
        <time>2020-10-12T06:44:49Z</time>
      </trkpt>
      <trkpt lat="38.2665760" lon="-0.9949680">
        <ele>355.2</ele>
        <time>2020-10-12T06:44:50Z</time>
      </trkpt>
      <trkpt lat="38.2665780" lon="-0.9948880">
        <ele>355.2</ele>
        <time>2020-10-12T06:44:51Z</time>
      </trkpt>
      <trkpt lat="38.2665800" lon="-0.9948110">
        <ele>355.2</ele>
        <time>2020-10-12T06:44:52Z</time>
      </trkpt>
      <trkpt lat="38.2665790" lon="-0.9947380">
        <ele>355.2</ele>
        <time>2020-10-12T06:44:53Z</time>
      </trkpt>
      <trkpt lat="38.2665790" lon="-0.9946660">
        <ele>355.4</ele>
        <time>2020-10-12T06:44:54Z</time>
      </trkpt>
      <trkpt lat="38.2665800" lon="-0.9945980">
        <ele>355.6</ele>
        <time>2020-10-12T06:44:55Z</time>
      </trkpt>
      <trkpt lat="38.2665810" lon="-0.9945300">
        <ele>356.0</ele>
        <time>2020-10-12T06:44:56Z</time>
      </trkpt>
      <trkpt lat="38.2665830" lon="-0.9944600">
        <ele>356.4</ele>
        <time>2020-10-12T06:44:57Z</time>
      </trkpt>
      <trkpt lat="38.2665850" lon="-0.9943880">
        <ele>357.0</ele>
        <time>2020-10-12T06:44:58Z</time>
      </trkpt>
      <trkpt lat="38.2665870" lon="-0.9943150">
        <ele>357.6</ele>
        <time>2020-10-12T06:44:59Z</time>
      </trkpt>
      <trkpt lat="38.2665900" lon="-0.9942450">
        <ele>358.0</ele>
        <time>2020-10-12T06:45:00Z</time>
      </trkpt>
      <trkpt lat="38.2665930" lon="-0.9941750">
        <ele>358.2</ele>
        <time>2020-10-12T06:45:01Z</time>
      </trkpt>
      <trkpt lat="38.2665980" lon="-0.9941050">
        <ele>358.4</ele>
        <time>2020-10-12T06:45:02Z</time>
      </trkpt>
      <trkpt lat="38.2666070" lon="-0.9940360">
        <ele>358.4</ele>
        <time>2020-10-12T06:45:03Z</time>
      </trkpt>
      <trkpt lat="38.2666210" lon="-0.9939720">
        <ele>358.4</ele>
        <time>2020-10-12T06:45:04Z</time>
      </trkpt>
      <trkpt lat="38.2666430" lon="-0.9939140">
        <ele>358.4</ele>
        <time>2020-10-12T06:45:05Z</time>
      </trkpt>
      <trkpt lat="38.2666690" lon="-0.9938590">
        <ele>358.4</ele>
        <time>2020-10-12T06:45:06Z</time>
      </trkpt>
      <trkpt lat="38.2666960" lon="-0.9938070">
        <ele>358.4</ele>
        <time>2020-10-12T06:45:07Z</time>
      </trkpt>
      <trkpt lat="38.2667280" lon="-0.9937560">
        <ele>358.6</ele>
        <time>2020-10-12T06:45:08Z</time>
      </trkpt>
      <trkpt lat="38.2667570" lon="-0.9937050">
        <ele>358.8</ele>
        <time>2020-10-12T06:45:09Z</time>
      </trkpt>
      <trkpt lat="38.2667910" lon="-0.9936570">
        <ele>359.2</ele>
        <time>2020-10-12T06:45:10Z</time>
      </trkpt>
      <trkpt lat="38.2668220" lon="-0.9936050">
        <ele>359.4</ele>
        <time>2020-10-12T06:45:11Z</time>
      </trkpt>
      <trkpt lat="38.2668550" lon="-0.9935530">
        <ele>359.6</ele>
        <time>2020-10-12T06:45:12Z</time>
      </trkpt>
      <trkpt lat="38.2668900" lon="-0.9935040">
        <ele>359.6</ele>
        <time>2020-10-12T06:45:13Z</time>
      </trkpt>
      <trkpt lat="38.2669270" lon="-0.9934550">
        <ele>359.8</ele>
        <time>2020-10-12T06:45:14Z</time>
      </trkpt>
      <trkpt lat="38.2669660" lon="-0.9934090">
        <ele>360.0</ele>
        <time>2020-10-12T06:45:15Z</time>
      </trkpt>
      <trkpt lat="38.2670040" lon="-0.9933670">
        <ele>360.2</ele>
        <time>2020-10-12T06:45:16Z</time>
      </trkpt>
      <trkpt lat="38.2670440" lon="-0.9933250">
        <ele>360.4</ele>
        <time>2020-10-12T06:45:17Z</time>
      </trkpt>
      <trkpt lat="38.2670860" lon="-0.9932850">
        <ele>360.8</ele>
        <time>2020-10-12T06:45:18Z</time>
      </trkpt>
      <trkpt lat="38.2671280" lon="-0.9932470">
        <ele>361.0</ele>
        <time>2020-10-12T06:45:19Z</time>
      </trkpt>
      <trkpt lat="38.2671700" lon="-0.9932090">
        <ele>361.2</ele>
        <time>2020-10-12T06:45:20Z</time>
      </trkpt>
      <trkpt lat="38.2672080" lon="-0.9931720">
        <ele>361.4</ele>
        <time>2020-10-12T06:45:21Z</time>
      </trkpt>
      <trkpt lat="38.2672480" lon="-0.9931350">
        <ele>361.8</ele>
        <time>2020-10-12T06:45:22Z</time>
      </trkpt>
      <trkpt lat="38.2672910" lon="-0.9931030">
        <ele>362.0</ele>
        <time>2020-10-12T06:45:23Z</time>
      </trkpt>
      <trkpt lat="38.2673340" lon="-0.9930690">
        <ele>362.4</ele>
        <time>2020-10-12T06:45:24Z</time>
      </trkpt>
      <trkpt lat="38.2673760" lon="-0.9930290">
        <ele>362.6</ele>
        <time>2020-10-12T06:45:25Z</time>
      </trkpt>
      <trkpt lat="38.2674200" lon="-0.9929940">
        <ele>363.0</ele>
        <time>2020-10-12T06:45:26Z</time>
      </trkpt>
      <trkpt lat="38.2674590" lon="-0.9929570">
        <ele>363.2</ele>
        <time>2020-10-12T06:45:27Z</time>
      </trkpt>
      <trkpt lat="38.2675020" lon="-0.9929220">
        <ele>363.6</ele>
        <time>2020-10-12T06:45:28Z</time>
      </trkpt>
      <trkpt lat="38.2675410" lon="-0.9928900">
        <ele>364.0</ele>
        <time>2020-10-12T06:45:29Z</time>
      </trkpt>
      <trkpt lat="38.2675780" lon="-0.9928560">
        <ele>364.4</ele>
        <time>2020-10-12T06:45:30Z</time>
      </trkpt>
      <trkpt lat="38.2676170" lon="-0.9928190">
        <ele>364.6</ele>
        <time>2020-10-12T06:45:31Z</time>
      </trkpt>
      <trkpt lat="38.2676530" lon="-0.9927810">
        <ele>365.0</ele>
        <time>2020-10-12T06:45:32Z</time>
      </trkpt>
      <trkpt lat="38.2676880" lon="-0.9927430">
        <ele>365.4</ele>
        <time>2020-10-12T06:45:33Z</time>
      </trkpt>
      <trkpt lat="38.2677210" lon="-0.9927070">
        <ele>365.8</ele>
        <time>2020-10-12T06:45:34Z</time>
      </trkpt>
      <trkpt lat="38.2677530" lon="-0.9926710">
        <ele>366.2</ele>
        <time>2020-10-12T06:45:35Z</time>
      </trkpt>
      <trkpt lat="38.2677850" lon="-0.9926350">
        <ele>366.6</ele>
        <time>2020-10-12T06:45:36Z</time>
      </trkpt>
      <trkpt lat="38.2678180" lon="-0.9925990">
        <ele>367.0</ele>
        <time>2020-10-12T06:45:37Z</time>
      </trkpt>
      <trkpt lat="38.2678520" lon="-0.9925640">
        <ele>367.2</ele>
        <time>2020-10-12T06:45:38Z</time>
      </trkpt>
      <trkpt lat="38.2678850" lon="-0.9925290">
        <ele>367.6</ele>
        <time>2020-10-12T06:45:39Z</time>
      </trkpt>
      <trkpt lat="38.2679180" lon="-0.9924930">
        <ele>367.8</ele>
        <time>2020-10-12T06:45:40Z</time>
      </trkpt>
      <trkpt lat="38.2679500" lon="-0.9924530">
        <ele>368.2</ele>
        <time>2020-10-12T06:45:41Z</time>
      </trkpt>
      <trkpt lat="38.2679820" lon="-0.9924080">
        <ele>368.4</ele>
        <time>2020-10-12T06:45:42Z</time>
      </trkpt>
      <trkpt lat="38.2680120" lon="-0.9923610">
        <ele>368.6</ele>
        <time>2020-10-12T06:45:43Z</time>
      </trkpt>
      <trkpt lat="38.2680390" lon="-0.9923120">
        <ele>368.8</ele>
        <time>2020-10-12T06:45:44Z</time>
      </trkpt>
      <trkpt lat="38.2680690" lon="-0.9922690">
        <ele>369.0</ele>
        <time>2020-10-12T06:45:45Z</time>
      </trkpt>
      <trkpt lat="38.2681000" lon="-0.9922240">
        <ele>369.2</ele>
        <time>2020-10-12T06:45:46Z</time>
      </trkpt>
      <trkpt lat="38.2681290" lon="-0.9921780">
        <ele>369.6</ele>
        <time>2020-10-12T06:45:47Z</time>
      </trkpt>
      <trkpt lat="38.2681610" lon="-0.9921340">
        <ele>369.8</ele>
        <time>2020-10-12T06:45:48Z</time>
      </trkpt>
      <trkpt lat="38.2681860" lon="-0.9920880">
        <ele>370.2</ele>
        <time>2020-10-12T06:45:49Z</time>
      </trkpt>
      <trkpt lat="38.2682220" lon="-0.9920490">
        <ele>370.6</ele>
        <time>2020-10-12T06:45:50Z</time>
      </trkpt>
      <trkpt lat="38.2682540" lon="-0.9920050">
        <ele>371.0</ele>
        <time>2020-10-12T06:45:51Z</time>
      </trkpt>
      <trkpt lat="38.2682770" lon="-0.9919560">
        <ele>371.4</ele>
        <time>2020-10-12T06:45:52Z</time>
      </trkpt>
      <trkpt lat="38.2682940" lon="-0.9919010">
        <ele>371.6</ele>
        <time>2020-10-12T06:45:53Z</time>
      </trkpt>
      <trkpt lat="38.2683050" lon="-0.9918420">
        <ele>371.8</ele>
        <time>2020-10-12T06:45:54Z</time>
      </trkpt>
      <trkpt lat="38.2683080" lon="-0.9917790">
        <ele>372.0</ele>
        <time>2020-10-12T06:45:55Z</time>
      </trkpt>
      <trkpt lat="38.2683040" lon="-0.9917160">
        <ele>372.2</ele>
        <time>2020-10-12T06:45:56Z</time>
      </trkpt>
      <trkpt lat="38.2682940" lon="-0.9916540">
        <ele>372.4</ele>
        <time>2020-10-12T06:45:57Z</time>
      </trkpt>
      <trkpt lat="38.2682830" lon="-0.9915920">
        <ele>372.6</ele>
        <time>2020-10-12T06:45:58Z</time>
      </trkpt>
      <trkpt lat="38.2682660" lon="-0.9915330">
        <ele>372.6</ele>
        <time>2020-10-12T06:45:59Z</time>
      </trkpt>
      <trkpt lat="38.2682490" lon="-0.9914720">
        <ele>372.4</ele>
        <time>2020-10-12T06:46:00Z</time>
      </trkpt>
      <trkpt lat="38.2682310" lon="-0.9914090">
        <ele>372.4</ele>
        <time>2020-10-12T06:46:01Z</time>
      </trkpt>
      <trkpt lat="38.2682130" lon="-0.9913450">
        <ele>372.2</ele>
        <time>2020-10-12T06:46:02Z</time>
      </trkpt>
      <trkpt lat="38.2681990" lon="-0.9912750">
        <ele>372.0</ele>
        <time>2020-10-12T06:46:03Z</time>
      </trkpt>
      <trkpt lat="38.2681890" lon="-0.9912020">
        <ele>372.2</ele>
        <time>2020-10-12T06:46:04Z</time>
      </trkpt>
      <trkpt lat="38.2681820" lon="-0.9911300">
        <ele>372.2</ele>
        <time>2020-10-12T06:46:05Z</time>
      </trkpt>
      <trkpt lat="38.2681800" lon="-0.9910580">
        <ele>372.4</ele>
        <time>2020-10-12T06:46:06Z</time>
      </trkpt>
      <trkpt lat="38.2681840" lon="-0.9909930">
        <ele>372.8</ele>
        <time>2020-10-12T06:46:07Z</time>
      </trkpt>
      <trkpt lat="38.2681930" lon="-0.9909300">
        <ele>373.2</ele>
        <time>2020-10-12T06:46:08Z</time>
      </trkpt>
      <trkpt lat="38.2682080" lon="-0.9908740">
        <ele>373.4</ele>
        <time>2020-10-12T06:46:09Z</time>
      </trkpt>
      <trkpt lat="38.2682310" lon="-0.9908210">
        <ele>373.4</ele>
        <time>2020-10-12T06:46:10Z</time>
      </trkpt>
      <trkpt lat="38.2682570" lon="-0.9907730">
        <ele>373.6</ele>
        <time>2020-10-12T06:46:11Z</time>
      </trkpt>
      <trkpt lat="38.2682850" lon="-0.9907250">
        <ele>373.8</ele>
        <time>2020-10-12T06:46:12Z</time>
      </trkpt>
      <trkpt lat="38.2683130" lon="-0.9906800">
        <ele>374.0</ele>
        <time>2020-10-12T06:46:13Z</time>
      </trkpt>
      <trkpt lat="38.2683450" lon="-0.9906370">
        <ele>374.4</ele>
        <time>2020-10-12T06:46:14Z</time>
      </trkpt>
      <trkpt lat="38.2683790" lon="-0.9905960">
        <ele>374.8</ele>
        <time>2020-10-12T06:46:15Z</time>
      </trkpt>
      <trkpt lat="38.2684110" lon="-0.9905520">
        <ele>375.2</ele>
        <time>2020-10-12T06:46:16Z</time>
      </trkpt>
      <trkpt lat="38.2684440" lon="-0.9905100">
        <ele>375.6</ele>
        <time>2020-10-12T06:46:17Z</time>
      </trkpt>
      <trkpt lat="38.2684760" lon="-0.9904710">
        <ele>375.8</ele>
        <time>2020-10-12T06:46:18Z</time>
      </trkpt>
      <trkpt lat="38.2685070" lon="-0.9904300">
        <ele>376.0</ele>
        <time>2020-10-12T06:46:19Z</time>
      </trkpt>
      <trkpt lat="38.2685370" lon="-0.9903940">
        <ele>376.4</ele>
        <time>2020-10-12T06:46:20Z</time>
      </trkpt>
      <trkpt lat="38.2685720" lon="-0.9903570">
        <ele>377.0</ele>
        <time>2020-10-12T06:46:21Z</time>
      </trkpt>
      <trkpt lat="38.2686060" lon="-0.9903180">
        <ele>377.4</ele>
        <time>2020-10-12T06:46:22Z</time>
      </trkpt>
      <trkpt lat="38.2686390" lon="-0.9902760">
        <ele>377.8</ele>
        <time>2020-10-12T06:46:23Z</time>
      </trkpt>
      <trkpt lat="38.2686730" lon="-0.9902360">
        <ele>378.2</ele>
        <time>2020-10-12T06:46:24Z</time>
      </trkpt>
      <trkpt lat="38.2687110" lon="-0.9901950">
        <ele>378.4</ele>
        <time>2020-10-12T06:46:25Z</time>
      </trkpt>
      <trkpt lat="38.2687470" lon="-0.9901540">
        <ele>378.6</ele>
        <time>2020-10-12T06:46:26Z</time>
      </trkpt>
      <trkpt lat="38.2687830" lon="-0.9901150">
        <ele>378.8</ele>
        <time>2020-10-12T06:46:27Z</time>
      </trkpt>
      <trkpt lat="38.2688180" lon="-0.9900700">
        <ele>379.0</ele>
        <time>2020-10-12T06:46:28Z</time>
      </trkpt>
      <trkpt lat="38.2688530" lon="-0.9900240">
        <ele>379.4</ele>
        <time>2020-10-12T06:46:29Z</time>
      </trkpt>
      <trkpt lat="38.2688880" lon="-0.9899780">
        <ele>379.8</ele>
        <time>2020-10-12T06:46:30Z</time>
      </trkpt>
      <trkpt lat="38.2689260" lon="-0.9899320">
        <ele>380.2</ele>
        <time>2020-10-12T06:46:31Z</time>
      </trkpt>
      <trkpt lat="38.2689670" lon="-0.9898850">
        <ele>380.4</ele>
        <time>2020-10-12T06:46:32Z</time>
      </trkpt>
      <trkpt lat="38.2690080" lon="-0.9898430">
        <ele>380.6</ele>
        <time>2020-10-12T06:46:33Z</time>
      </trkpt>
      <trkpt lat="38.2690470" lon="-0.9898010">
        <ele>380.6</ele>
        <time>2020-10-12T06:46:34Z</time>
      </trkpt>
      <trkpt lat="38.2690860" lon="-0.9897580">
        <ele>380.4</ele>
        <time>2020-10-12T06:46:35Z</time>
      </trkpt>
      <trkpt lat="38.2691220" lon="-0.9897150">
        <ele>380.2</ele>
        <time>2020-10-12T06:46:36Z</time>
      </trkpt>
      <trkpt lat="38.2691590" lon="-0.9896730">
        <ele>379.8</ele>
        <time>2020-10-12T06:46:37Z</time>
      </trkpt>
      <trkpt lat="38.2691970" lon="-0.9896300">
        <ele>379.6</ele>
        <time>2020-10-12T06:46:38Z</time>
      </trkpt>
      <trkpt lat="38.2692350" lon="-0.9895860">
        <ele>379.4</ele>
        <time>2020-10-12T06:46:39Z</time>
      </trkpt>
      <trkpt lat="38.2692730" lon="-0.9895410">
        <ele>379.2</ele>
        <time>2020-10-12T06:46:40Z</time>
      </trkpt>
      <trkpt lat="38.2693110" lon="-0.9894960">
        <ele>379.2</ele>
        <time>2020-10-12T06:46:41Z</time>
      </trkpt>
      <trkpt lat="38.2693490" lon="-0.9894520">
        <ele>379.2</ele>
        <time>2020-10-12T06:46:42Z</time>
      </trkpt>
      <trkpt lat="38.2693880" lon="-0.9894070">
        <ele>379.4</ele>
        <time>2020-10-12T06:46:43Z</time>
      </trkpt>
      <trkpt lat="38.2694280" lon="-0.9893620">
        <ele>379.6</ele>
        <time>2020-10-12T06:46:44Z</time>
      </trkpt>
      <trkpt lat="38.2694680" lon="-0.9893190">
        <ele>379.6</ele>
        <time>2020-10-12T06:46:45Z</time>
      </trkpt>
      <trkpt lat="38.2695090" lon="-0.9892780">
        <ele>379.6</ele>
        <time>2020-10-12T06:46:46Z</time>
      </trkpt>
      <trkpt lat="38.2695510" lon="-0.9892400">
        <ele>379.6</ele>
        <time>2020-10-12T06:46:47Z</time>
      </trkpt>
      <trkpt lat="38.2695940" lon="-0.9892030">
        <ele>379.6</ele>
        <time>2020-10-12T06:46:48Z</time>
      </trkpt>
      <trkpt lat="38.2696370" lon="-0.9891650">
        <ele>379.6</ele>
        <time>2020-10-12T06:46:49Z</time>
      </trkpt>
      <trkpt lat="38.2696800" lon="-0.9891290">
        <ele>379.6</ele>
        <time>2020-10-12T06:46:50Z</time>
      </trkpt>
      <trkpt lat="38.2697240" lon="-0.9890930">
        <ele>379.6</ele>
        <time>2020-10-12T06:46:51Z</time>
      </trkpt>
      <trkpt lat="38.2697680" lon="-0.9890560">
        <ele>379.6</ele>
        <time>2020-10-12T06:46:52Z</time>
      </trkpt>
      <trkpt lat="38.2698120" lon="-0.9890200">
        <ele>379.8</ele>
        <time>2020-10-12T06:46:53Z</time>
      </trkpt>
      <trkpt lat="38.2698550" lon="-0.9889830">
        <ele>380.0</ele>
        <time>2020-10-12T06:46:54Z</time>
      </trkpt>
      <trkpt lat="38.2698970" lon="-0.9889480">
        <ele>380.4</ele>
        <time>2020-10-12T06:46:55Z</time>
      </trkpt>
      <trkpt lat="38.2699400" lon="-0.9889130">
        <ele>380.4</ele>
        <time>2020-10-12T06:46:56Z</time>
      </trkpt>
      <trkpt lat="38.2699830" lon="-0.9888760">
        <ele>380.6</ele>
        <time>2020-10-12T06:46:57Z</time>
      </trkpt>
      <trkpt lat="38.2700260" lon="-0.9888380">
        <ele>380.6</ele>
        <time>2020-10-12T06:46:58Z</time>
      </trkpt>
      <trkpt lat="38.2700700" lon="-0.9888000">
        <ele>380.6</ele>
        <time>2020-10-12T06:46:59Z</time>
      </trkpt>
      <trkpt lat="38.2701130" lon="-0.9887610">
        <ele>380.6</ele>
        <time>2020-10-12T06:47:00Z</time>
      </trkpt>
      <trkpt lat="38.2701570" lon="-0.9887240">
        <ele>380.6</ele>
        <time>2020-10-12T06:47:01Z</time>
      </trkpt>
      <trkpt lat="38.2702000" lon="-0.9886870">
        <ele>380.6</ele>
        <time>2020-10-12T06:47:02Z</time>
      </trkpt>
      <trkpt lat="38.2702440" lon="-0.9886490">
        <ele>380.6</ele>
        <time>2020-10-12T06:47:03Z</time>
      </trkpt>
      <trkpt lat="38.2702870" lon="-0.9886110">
        <ele>380.6</ele>
        <time>2020-10-12T06:47:04Z</time>
      </trkpt>
      <trkpt lat="38.2703310" lon="-0.9885720">
        <ele>380.6</ele>
        <time>2020-10-12T06:47:05Z</time>
      </trkpt>
      <trkpt lat="38.2703760" lon="-0.9885340">
        <ele>380.8</ele>
        <time>2020-10-12T06:47:06Z</time>
      </trkpt>
      <trkpt lat="38.2704200" lon="-0.9884960">
        <ele>380.8</ele>
        <time>2020-10-12T06:47:07Z</time>
      </trkpt>
      <trkpt lat="38.2704640" lon="-0.9884580">
        <ele>381.0</ele>
        <time>2020-10-12T06:47:08Z</time>
      </trkpt>
      <trkpt lat="38.2705080" lon="-0.9884190">
        <ele>381.0</ele>
        <time>2020-10-12T06:47:09Z</time>
      </trkpt>
      <trkpt lat="38.2705510" lon="-0.9883780">
        <ele>381.0</ele>
        <time>2020-10-12T06:47:10Z</time>
      </trkpt>
      <trkpt lat="38.2705930" lon="-0.9883360">
        <ele>381.2</ele>
        <time>2020-10-12T06:47:11Z</time>
      </trkpt>
      <trkpt lat="38.2706350" lon="-0.9882930">
        <ele>381.4</ele>
        <time>2020-10-12T06:47:12Z</time>
      </trkpt>
      <trkpt lat="38.2706770" lon="-0.9882470">
        <ele>381.4</ele>
        <time>2020-10-12T06:47:13Z</time>
      </trkpt>
      <trkpt lat="38.2707160" lon="-0.9881990">
        <ele>381.6</ele>
        <time>2020-10-12T06:47:14Z</time>
      </trkpt>
      <trkpt lat="38.2707540" lon="-0.9881490">
        <ele>381.6</ele>
        <time>2020-10-12T06:47:15Z</time>
      </trkpt>
      <trkpt lat="38.2707900" lon="-0.9880960">
        <ele>381.6</ele>
        <time>2020-10-12T06:47:16Z</time>
      </trkpt>
      <trkpt lat="38.2708250" lon="-0.9880400">
        <ele>381.4</ele>
        <time>2020-10-12T06:47:17Z</time>
      </trkpt>
      <trkpt lat="38.2708570" lon="-0.9879840">
        <ele>381.2</ele>
        <time>2020-10-12T06:47:18Z</time>
      </trkpt>
      <trkpt lat="38.2708870" lon="-0.9879240">
        <ele>381.2</ele>
        <time>2020-10-12T06:47:19Z</time>
      </trkpt>
      <trkpt lat="38.2709130" lon="-0.9878630">
        <ele>381.2</ele>
        <time>2020-10-12T06:47:20Z</time>
      </trkpt>
      <trkpt lat="38.2709390" lon="-0.9878020">
        <ele>381.2</ele>
        <time>2020-10-12T06:47:21Z</time>
      </trkpt>
      <trkpt lat="38.2709620" lon="-0.9877390">
        <ele>381.4</ele>
        <time>2020-10-12T06:47:22Z</time>
      </trkpt>
      <trkpt lat="38.2709840" lon="-0.9876740">
        <ele>381.6</ele>
        <time>2020-10-12T06:47:23Z</time>
      </trkpt>
      <trkpt lat="38.2710060" lon="-0.9876090">
        <ele>381.8</ele>
        <time>2020-10-12T06:47:24Z</time>
      </trkpt>
      <trkpt lat="38.2710280" lon="-0.9875430">
        <ele>382.2</ele>
        <time>2020-10-12T06:47:25Z</time>
      </trkpt>
      <trkpt lat="38.2710480" lon="-0.9874770">
        <ele>382.2</ele>
        <time>2020-10-12T06:47:26Z</time>
      </trkpt>
      <trkpt lat="38.2710670" lon="-0.9874100">
        <ele>382.2</ele>
        <time>2020-10-12T06:47:27Z</time>
      </trkpt>
      <trkpt lat="38.2710870" lon="-0.9873450">
        <ele>382.2</ele>
        <time>2020-10-12T06:47:28Z</time>
      </trkpt>
      <trkpt lat="38.2711060" lon="-0.9872800">
        <ele>382.4</ele>
        <time>2020-10-12T06:47:29Z</time>
      </trkpt>
      <trkpt lat="38.2711270" lon="-0.9872160">
        <ele>382.6</ele>
        <time>2020-10-12T06:47:30Z</time>
      </trkpt>
      <trkpt lat="38.2711470" lon="-0.9871520">
        <ele>382.6</ele>
        <time>2020-10-12T06:47:31Z</time>
      </trkpt>
      <trkpt lat="38.2711670" lon="-0.9870870">
        <ele>382.8</ele>
        <time>2020-10-12T06:47:32Z</time>
      </trkpt>
      <trkpt lat="38.2711890" lon="-0.9870190">
        <ele>383.0</ele>
        <time>2020-10-12T06:47:33Z</time>
      </trkpt>
      <trkpt lat="38.2712110" lon="-0.9869510">
        <ele>383.2</ele>
        <time>2020-10-12T06:47:34Z</time>
      </trkpt>
      <trkpt lat="38.2712330" lon="-0.9868850">
        <ele>383.2</ele>
        <time>2020-10-12T06:47:35Z</time>
      </trkpt>
      <trkpt lat="38.2712570" lon="-0.9868200">
        <ele>383.2</ele>
        <time>2020-10-12T06:47:36Z</time>
      </trkpt>
      <trkpt lat="38.2712800" lon="-0.9867520">
        <ele>383.4</ele>
        <time>2020-10-12T06:47:37Z</time>
      </trkpt>
      <trkpt lat="38.2713010" lon="-0.9866830">
        <ele>383.4</ele>
        <time>2020-10-12T06:47:38Z</time>
      </trkpt>
      <trkpt lat="38.2713210" lon="-0.9866150">
        <ele>383.4</ele>
        <time>2020-10-12T06:47:39Z</time>
      </trkpt>
      <trkpt lat="38.2713450" lon="-0.9865440">
        <ele>383.2</ele>
        <time>2020-10-12T06:47:40Z</time>
      </trkpt>
      <trkpt lat="38.2713700" lon="-0.9864760">
        <ele>383.0</ele>
        <time>2020-10-12T06:47:41Z</time>
      </trkpt>
      <trkpt lat="38.2713940" lon="-0.9864080">
        <ele>383.0</ele>
        <time>2020-10-12T06:47:42Z</time>
      </trkpt>
      <trkpt lat="38.2714160" lon="-0.9863390">
        <ele>383.2</ele>
        <time>2020-10-12T06:47:43Z</time>
      </trkpt>
      <trkpt lat="38.2714360" lon="-0.9862730">
        <ele>383.4</ele>
        <time>2020-10-12T06:47:44Z</time>
      </trkpt>
      <trkpt lat="38.2714560" lon="-0.9862070">
        <ele>383.8</ele>
        <time>2020-10-12T06:47:45Z</time>
      </trkpt>
      <trkpt lat="38.2714760" lon="-0.9861420">
        <ele>384.0</ele>
        <time>2020-10-12T06:47:46Z</time>
      </trkpt>
      <trkpt lat="38.2714960" lon="-0.9860750">
        <ele>384.2</ele>
        <time>2020-10-12T06:47:47Z</time>
      </trkpt>
      <trkpt lat="38.2715180" lon="-0.9860070">
        <ele>384.4</ele>
        <time>2020-10-12T06:47:48Z</time>
      </trkpt>
      <trkpt lat="38.2715390" lon="-0.9859400">
        <ele>384.4</ele>
        <time>2020-10-12T06:47:49Z</time>
      </trkpt>
      <trkpt lat="38.2715590" lon="-0.9858710">
        <ele>384.4</ele>
        <time>2020-10-12T06:47:50Z</time>
      </trkpt>
      <trkpt lat="38.2715800" lon="-0.9858020">
        <ele>384.4</ele>
        <time>2020-10-12T06:47:51Z</time>
      </trkpt>
      <trkpt lat="38.2716000" lon="-0.9857320">
        <ele>384.4</ele>
        <time>2020-10-12T06:47:52Z</time>
      </trkpt>
      <trkpt lat="38.2716220" lon="-0.9856640">
        <ele>384.2</ele>
        <time>2020-10-12T06:47:53Z</time>
      </trkpt>
      <trkpt lat="38.2716440" lon="-0.9855980">
        <ele>384.2</ele>
        <time>2020-10-12T06:47:54Z</time>
      </trkpt>
      <trkpt lat="38.2716660" lon="-0.9855320">
        <ele>384.2</ele>
        <time>2020-10-12T06:47:55Z</time>
      </trkpt>
      <trkpt lat="38.2716860" lon="-0.9854660">
        <ele>384.2</ele>
        <time>2020-10-12T06:47:56Z</time>
      </trkpt>
      <trkpt lat="38.2717070" lon="-0.9854010">
        <ele>384.2</ele>
        <time>2020-10-12T06:47:57Z</time>
      </trkpt>
      <trkpt lat="38.2717300" lon="-0.9853380">
        <ele>384.2</ele>
        <time>2020-10-12T06:47:58Z</time>
      </trkpt>
      <trkpt lat="38.2717560" lon="-0.9852760">
        <ele>384.2</ele>
        <time>2020-10-12T06:47:59Z</time>
      </trkpt>
      <trkpt lat="38.2717830" lon="-0.9852140">
        <ele>384.2</ele>
        <time>2020-10-12T06:48:00Z</time>
      </trkpt>
      <trkpt lat="38.2718120" lon="-0.9851550">
        <ele>384.2</ele>
        <time>2020-10-12T06:48:01Z</time>
      </trkpt>
      <trkpt lat="38.2718430" lon="-0.9850970">
        <ele>384.4</ele>
        <time>2020-10-12T06:48:02Z</time>
      </trkpt>
      <trkpt lat="38.2718760" lon="-0.9850420">
        <ele>384.8</ele>
        <time>2020-10-12T06:48:03Z</time>
      </trkpt>
      <trkpt lat="38.2719100" lon="-0.9849880">
        <ele>385.0</ele>
        <time>2020-10-12T06:48:04Z</time>
      </trkpt>
      <trkpt lat="38.2719460" lon="-0.9849360">
        <ele>385.2</ele>
        <time>2020-10-12T06:48:05Z</time>
      </trkpt>
      <trkpt lat="38.2719840" lon="-0.9848860">
        <ele>385.4</ele>
        <time>2020-10-12T06:48:06Z</time>
      </trkpt>
      <trkpt lat="38.2720230" lon="-0.9848360">
        <ele>385.6</ele>
        <time>2020-10-12T06:48:07Z</time>
      </trkpt>
      <trkpt lat="38.2720610" lon="-0.9847860">
        <ele>385.6</ele>
        <time>2020-10-12T06:48:08Z</time>
      </trkpt>
      <trkpt lat="38.2720990" lon="-0.9847370">
        <ele>385.8</ele>
        <time>2020-10-12T06:48:09Z</time>
      </trkpt>
      <trkpt lat="38.2721390" lon="-0.9846880">
        <ele>385.8</ele>
        <time>2020-10-12T06:48:10Z</time>
      </trkpt>
      <trkpt lat="38.2721800" lon="-0.9846400">
        <ele>385.8</ele>
        <time>2020-10-12T06:48:11Z</time>
      </trkpt>
      <trkpt lat="38.2722190" lon="-0.9845880">
        <ele>385.8</ele>
        <time>2020-10-12T06:48:12Z</time>
      </trkpt>
      <trkpt lat="38.2722590" lon="-0.9845390">
        <ele>386.0</ele>
        <time>2020-10-12T06:48:13Z</time>
      </trkpt>
      <trkpt lat="38.2722990" lon="-0.9844880">
        <ele>386.2</ele>
        <time>2020-10-12T06:48:14Z</time>
      </trkpt>
      <trkpt lat="38.2723390" lon="-0.9844390">
        <ele>386.2</ele>
        <time>2020-10-12T06:48:15Z</time>
      </trkpt>
      <trkpt lat="38.2723780" lon="-0.9843900">
        <ele>386.2</ele>
        <time>2020-10-12T06:48:16Z</time>
      </trkpt>
      <trkpt lat="38.2724180" lon="-0.9843410">
        <ele>386.2</ele>
        <time>2020-10-12T06:48:17Z</time>
      </trkpt>
      <trkpt lat="38.2724570" lon="-0.9842910">
        <ele>386.2</ele>
        <time>2020-10-12T06:48:18Z</time>
      </trkpt>
      <trkpt lat="38.2724960" lon="-0.9842410">
        <ele>386.4</ele>
        <time>2020-10-12T06:48:19Z</time>
      </trkpt>
      <trkpt lat="38.2725360" lon="-0.9841920">
        <ele>386.4</ele>
        <time>2020-10-12T06:48:20Z</time>
      </trkpt>
      <trkpt lat="38.2725760" lon="-0.9841420">
        <ele>386.4</ele>
        <time>2020-10-12T06:48:21Z</time>
      </trkpt>
      <trkpt lat="38.2726160" lon="-0.9840920">
        <ele>386.6</ele>
        <time>2020-10-12T06:48:22Z</time>
      </trkpt>
      <trkpt lat="38.2726570" lon="-0.9840420">
        <ele>386.6</ele>
        <time>2020-10-12T06:48:23Z</time>
      </trkpt>
      <trkpt lat="38.2726970" lon="-0.9839910">
        <ele>386.6</ele>
        <time>2020-10-12T06:48:24Z</time>
      </trkpt>
      <trkpt lat="38.2727360" lon="-0.9839400">
        <ele>386.8</ele>
        <time>2020-10-12T06:48:25Z</time>
      </trkpt>
      <trkpt lat="38.2727750" lon="-0.9838890">
        <ele>387.0</ele>
        <time>2020-10-12T06:48:26Z</time>
      </trkpt>
      <trkpt lat="38.2728150" lon="-0.9838370">
        <ele>387.0</ele>
        <time>2020-10-12T06:48:27Z</time>
      </trkpt>
      <trkpt lat="38.2728560" lon="-0.9837850">
        <ele>387.2</ele>
        <time>2020-10-12T06:48:28Z</time>
      </trkpt>
      <trkpt lat="38.2728970" lon="-0.9837360">
        <ele>387.4</ele>
        <time>2020-10-12T06:48:29Z</time>
      </trkpt>
      <trkpt lat="38.2729380" lon="-0.9836860">
        <ele>387.6</ele>
        <time>2020-10-12T06:48:30Z</time>
      </trkpt>
      <trkpt lat="38.2729770" lon="-0.9836340">
        <ele>387.8</ele>
        <time>2020-10-12T06:48:31Z</time>
      </trkpt>
      <trkpt lat="38.2730180" lon="-0.9835840">
        <ele>387.8</ele>
        <time>2020-10-12T06:48:32Z</time>
      </trkpt>
      <trkpt lat="38.2730590" lon="-0.9835350">
        <ele>388.0</ele>
        <time>2020-10-12T06:48:33Z</time>
      </trkpt>
      <trkpt lat="38.2730990" lon="-0.9834850">
        <ele>388.0</ele>
        <time>2020-10-12T06:48:34Z</time>
      </trkpt>
      <trkpt lat="38.2731390" lon="-0.9834360">
        <ele>388.2</ele>
        <time>2020-10-12T06:48:35Z</time>
      </trkpt>
      <trkpt lat="38.2731790" lon="-0.9833860">
        <ele>388.4</ele>
        <time>2020-10-12T06:48:36Z</time>
      </trkpt>
      <trkpt lat="38.2732180" lon="-0.9833350">
        <ele>388.6</ele>
        <time>2020-10-12T06:48:37Z</time>
      </trkpt>
      <trkpt lat="38.2732580" lon="-0.9832840">
        <ele>388.8</ele>
        <time>2020-10-12T06:48:38Z</time>
      </trkpt>
      <trkpt lat="38.2732980" lon="-0.9832340">
        <ele>388.8</ele>
        <time>2020-10-12T06:48:39Z</time>
      </trkpt>
      <trkpt lat="38.2733380" lon="-0.9831830">
        <ele>389.0</ele>
        <time>2020-10-12T06:48:40Z</time>
      </trkpt>
      <trkpt lat="38.2733780" lon="-0.9831320">
        <ele>389.2</ele>
        <time>2020-10-12T06:48:41Z</time>
      </trkpt>
      <trkpt lat="38.2734170" lon="-0.9830820">
        <ele>389.4</ele>
        <time>2020-10-12T06:48:42Z</time>
      </trkpt>
      <trkpt lat="38.2734560" lon="-0.9830330">
        <ele>389.6</ele>
        <time>2020-10-12T06:48:43Z</time>
      </trkpt>
      <trkpt lat="38.2734960" lon="-0.9829810">
        <ele>389.8</ele>
        <time>2020-10-12T06:48:44Z</time>
      </trkpt>
      <trkpt lat="38.2735370" lon="-0.9829300">
        <ele>389.8</ele>
        <time>2020-10-12T06:48:45Z</time>
      </trkpt>
      <trkpt lat="38.2735750" lon="-0.9828750">
        <ele>389.8</ele>
        <time>2020-10-12T06:48:46Z</time>
      </trkpt>
      <trkpt lat="38.2736110" lon="-0.9828200">
        <ele>389.8</ele>
        <time>2020-10-12T06:48:47Z</time>
      </trkpt>
      <trkpt lat="38.2736470" lon="-0.9827650">
        <ele>390.0</ele>
        <time>2020-10-12T06:48:48Z</time>
      </trkpt>
      <trkpt lat="38.2736830" lon="-0.9827100">
        <ele>390.2</ele>
        <time>2020-10-12T06:48:49Z</time>
      </trkpt>
      <trkpt lat="38.2737190" lon="-0.9826520">
        <ele>390.0</ele>
        <time>2020-10-12T06:48:50Z</time>
      </trkpt>
      <trkpt lat="38.2737550" lon="-0.9825950">
        <ele>390.0</ele>
        <time>2020-10-12T06:48:51Z</time>
      </trkpt>
      <trkpt lat="38.2737900" lon="-0.9825360">
        <ele>390.0</ele>
        <time>2020-10-12T06:48:52Z</time>
      </trkpt>
      <trkpt lat="38.2738260" lon="-0.9824780">
        <ele>390.0</ele>
        <time>2020-10-12T06:48:53Z</time>
      </trkpt>
      <trkpt lat="38.2738620" lon="-0.9824180">
        <ele>389.8</ele>
        <time>2020-10-12T06:48:54Z</time>
      </trkpt>
      <trkpt lat="38.2738980" lon="-0.9823570">
        <ele>389.6</ele>
        <time>2020-10-12T06:48:55Z</time>
      </trkpt>
      <trkpt lat="38.2739340" lon="-0.9822950">
        <ele>389.6</ele>
        <time>2020-10-12T06:48:56Z</time>
      </trkpt>
      <trkpt lat="38.2739700" lon="-0.9822320">
        <ele>389.6</ele>
        <time>2020-10-12T06:48:57Z</time>
      </trkpt>
      <trkpt lat="38.2740070" lon="-0.9821680">
        <ele>389.6</ele>
        <time>2020-10-12T06:48:58Z</time>
      </trkpt>
      <trkpt lat="38.2740440" lon="-0.9821060">
        <ele>389.6</ele>
        <time>2020-10-12T06:48:59Z</time>
      </trkpt>
      <trkpt lat="38.2740810" lon="-0.9820420">
        <ele>389.6</ele>
        <time>2020-10-12T06:49:00Z</time>
      </trkpt>
      <trkpt lat="38.2741180" lon="-0.9819790">
        <ele>389.8</ele>
        <time>2020-10-12T06:49:01Z</time>
      </trkpt>
      <trkpt lat="38.2741550" lon="-0.9819160">
        <ele>389.8</ele>
        <time>2020-10-12T06:49:02Z</time>
      </trkpt>
      <trkpt lat="38.2741930" lon="-0.9818530">
        <ele>389.8</ele>
        <time>2020-10-12T06:49:03Z</time>
      </trkpt>
      <trkpt lat="38.2742310" lon="-0.9817930">
        <ele>389.8</ele>
        <time>2020-10-12T06:49:04Z</time>
      </trkpt>
      <trkpt lat="38.2742700" lon="-0.9817330">
        <ele>389.8</ele>
        <time>2020-10-12T06:49:05Z</time>
      </trkpt>
      <trkpt lat="38.2743100" lon="-0.9816730">
        <ele>389.8</ele>
        <time>2020-10-12T06:49:06Z</time>
      </trkpt>
      <trkpt lat="38.2743500" lon="-0.9816160">
        <ele>389.8</ele>
        <time>2020-10-12T06:49:07Z</time>
      </trkpt>
      <trkpt lat="38.2743930" lon="-0.9815620">
        <ele>390.0</ele>
        <time>2020-10-12T06:49:08Z</time>
      </trkpt>
      <trkpt lat="38.2744390" lon="-0.9815130">
        <ele>390.0</ele>
        <time>2020-10-12T06:49:09Z</time>
      </trkpt>
      <trkpt lat="38.2744860" lon="-0.9814680">
        <ele>390.0</ele>
        <time>2020-10-12T06:49:10Z</time>
      </trkpt>
      <trkpt lat="38.2745360" lon="-0.9814250">
        <ele>390.0</ele>
        <time>2020-10-12T06:49:11Z</time>
      </trkpt>
      <trkpt lat="38.2745870" lon="-0.9813850">
        <ele>390.2</ele>
        <time>2020-10-12T06:49:12Z</time>
      </trkpt>
      <trkpt lat="38.2746350" lon="-0.9813510">
        <ele>390.2</ele>
        <time>2020-10-12T06:49:13Z</time>
      </trkpt>
      <trkpt lat="38.2746810" lon="-0.9813190">
        <ele>390.4</ele>
        <time>2020-10-12T06:49:14Z</time>
      </trkpt>
      <trkpt lat="38.2747230" lon="-0.9812900">
        <ele>391.0</ele>
        <time>2020-10-12T06:49:15Z</time>
      </trkpt>
      <trkpt lat="38.2747700" lon="-0.9812670">
        <ele>391.2</ele>
        <time>2020-10-12T06:49:16Z</time>
      </trkpt>
      <trkpt lat="38.2748240" lon="-0.9812530">
        <ele>391.4</ele>
        <time>2020-10-12T06:49:17Z</time>
      </trkpt>
      <trkpt lat="38.2748810" lon="-0.9812440">
        <ele>391.4</ele>
        <time>2020-10-12T06:49:18Z</time>
      </trkpt>
      <trkpt lat="38.2749390" lon="-0.9812340">
        <ele>391.2</ele>
        <time>2020-10-12T06:49:19Z</time>
      </trkpt>
      <trkpt lat="38.2750000" lon="-0.9812270">
        <ele>391.4</ele>
        <time>2020-10-12T06:49:20Z</time>
      </trkpt>
      <trkpt lat="38.2750640" lon="-0.9812180">
        <ele>391.4</ele>
        <time>2020-10-12T06:49:21Z</time>
      </trkpt>
      <trkpt lat="38.2751270" lon="-0.9812130">
        <ele>391.2</ele>
        <time>2020-10-12T06:49:22Z</time>
      </trkpt>
      <trkpt lat="38.2751890" lon="-0.9812090">
        <ele>391.4</ele>
        <time>2020-10-12T06:49:23Z</time>
      </trkpt>
      <trkpt lat="38.2752490" lon="-0.9812050">
        <ele>391.6</ele>
        <time>2020-10-12T06:49:24Z</time>
      </trkpt>
      <trkpt lat="38.2753080" lon="-0.9811990">
        <ele>391.8</ele>
        <time>2020-10-12T06:49:25Z</time>
      </trkpt>
      <trkpt lat="38.2753680" lon="-0.9811940">
        <ele>391.8</ele>
        <time>2020-10-12T06:49:26Z</time>
      </trkpt>
      <trkpt lat="38.2754280" lon="-0.9811890">
        <ele>392.0</ele>
        <time>2020-10-12T06:49:27Z</time>
      </trkpt>
      <trkpt lat="38.2754870" lon="-0.9811860">
        <ele>392.0</ele>
        <time>2020-10-12T06:49:28Z</time>
      </trkpt>
      <trkpt lat="38.2755460" lon="-0.9811820">
        <ele>392.4</ele>
        <time>2020-10-12T06:49:29Z</time>
      </trkpt>
      <trkpt lat="38.2756050" lon="-0.9811780">
        <ele>392.4</ele>
        <time>2020-10-12T06:49:30Z</time>
      </trkpt>
      <trkpt lat="38.2756620" lon="-0.9811740">
        <ele>392.6</ele>
        <time>2020-10-12T06:49:31Z</time>
      </trkpt>
      <trkpt lat="38.2757160" lon="-0.9811710">
        <ele>392.6</ele>
        <time>2020-10-12T06:49:32Z</time>
      </trkpt>
      <trkpt lat="38.2757690" lon="-0.9811660">
        <ele>392.6</ele>
        <time>2020-10-12T06:49:33Z</time>
      </trkpt>
      <trkpt lat="38.2758200" lon="-0.9811620">
        <ele>392.8</ele>
        <time>2020-10-12T06:49:34Z</time>
      </trkpt>
      <trkpt lat="38.2758720" lon="-0.9811570">
        <ele>392.8</ele>
        <time>2020-10-12T06:49:35Z</time>
      </trkpt>
      <trkpt lat="38.2759250" lon="-0.9811540">
        <ele>392.8</ele>
        <time>2020-10-12T06:49:36Z</time>
      </trkpt>
      <trkpt lat="38.2759730" lon="-0.9811530">
        <ele>392.8</ele>
        <time>2020-10-12T06:49:37Z</time>
      </trkpt>
      <trkpt lat="38.2760210" lon="-0.9811540">
        <ele>392.8</ele>
        <time>2020-10-12T06:49:38Z</time>
      </trkpt>
      <trkpt lat="38.2760640" lon="-0.9811560">
        <ele>392.4</ele>
        <time>2020-10-12T06:49:39Z</time>
      </trkpt>
      <trkpt lat="38.2761060" lon="-0.9811580">
        <ele>392.6</ele>
        <time>2020-10-12T06:49:40Z</time>
      </trkpt>
      <trkpt lat="38.2761490" lon="-0.9811530">
        <ele>392.4</ele>
        <time>2020-10-12T06:49:41Z</time>
      </trkpt>
      <trkpt lat="38.2761940" lon="-0.9811390">
        <ele>392.2</ele>
        <time>2020-10-12T06:49:42Z</time>
      </trkpt>
      <trkpt lat="38.2762330" lon="-0.9811180">
        <ele>392.0</ele>
        <time>2020-10-12T06:49:43Z</time>
      </trkpt>
      <trkpt lat="38.2762660" lon="-0.9810900">
        <ele>391.8</ele>
        <time>2020-10-12T06:49:44Z</time>
      </trkpt>
      <trkpt lat="38.2763030" lon="-0.9810690">
        <ele>391.8</ele>
        <time>2020-10-12T06:49:45Z</time>
      </trkpt>
      <trkpt lat="38.2763270" lon="-0.9810410">
        <ele>391.8</ele>
        <time>2020-10-12T06:49:46Z</time>
      </trkpt>
      <trkpt lat="38.2763430" lon="-0.9810040">
        <ele>391.8</ele>
        <time>2020-10-12T06:49:47Z</time>
      </trkpt>
      <trkpt lat="38.2763520" lon="-0.9809560">
        <ele>391.8</ele>
        <time>2020-10-12T06:49:48Z</time>
      </trkpt>
      <trkpt lat="38.2763550" lon="-0.9808990">
        <ele>392.0</ele>
        <time>2020-10-12T06:49:49Z</time>
      </trkpt>
      <trkpt lat="38.2763570" lon="-0.9808400">
        <ele>392.0</ele>
        <time>2020-10-12T06:49:50Z</time>
      </trkpt>
      <trkpt lat="38.2763590" lon="-0.9807790">
        <ele>392.0</ele>
        <time>2020-10-12T06:49:51Z</time>
      </trkpt>
      <trkpt lat="38.2763620" lon="-0.9807150">
        <ele>392.2</ele>
        <time>2020-10-12T06:49:52Z</time>
      </trkpt>
      <trkpt lat="38.2763650" lon="-0.9806570">
        <ele>392.2</ele>
        <time>2020-10-12T06:49:53Z</time>
      </trkpt>
      <trkpt lat="38.2763720" lon="-0.9805990">
        <ele>392.2</ele>
        <time>2020-10-12T06:49:54Z</time>
      </trkpt>
      <trkpt lat="38.2763790" lon="-0.9805400">
        <ele>392.0</ele>
        <time>2020-10-12T06:49:55Z</time>
      </trkpt>
      <trkpt lat="38.2763870" lon="-0.9804810">
        <ele>392.0</ele>
        <time>2020-10-12T06:49:56Z</time>
      </trkpt>
      <trkpt lat="38.2763960" lon="-0.9804210">
        <ele>391.8</ele>
        <time>2020-10-12T06:49:57Z</time>
      </trkpt>
      <trkpt lat="38.2764030" lon="-0.9803580">
        <ele>391.6</ele>
        <time>2020-10-12T06:49:58Z</time>
      </trkpt>
      <trkpt lat="38.2764090" lon="-0.9802960">
        <ele>391.4</ele>
        <time>2020-10-12T06:49:59Z</time>
      </trkpt>
      <trkpt lat="38.2764140" lon="-0.9802330">
        <ele>391.2</ele>
        <time>2020-10-12T06:50:00Z</time>
      </trkpt>
      <trkpt lat="38.2764210" lon="-0.9801710">
        <ele>391.6</ele>
        <time>2020-10-12T06:50:01Z</time>
      </trkpt>
      <trkpt lat="38.2764260" lon="-0.9801070">
        <ele>392.0</ele>
        <time>2020-10-12T06:50:02Z</time>
      </trkpt>
      <trkpt lat="38.2764320" lon="-0.9800380">
        <ele>392.4</ele>
        <time>2020-10-12T06:50:03Z</time>
      </trkpt>
      <trkpt lat="38.2764400" lon="-0.9799710">
        <ele>392.6</ele>
        <time>2020-10-12T06:50:04Z</time>
      </trkpt>
      <trkpt lat="38.2764470" lon="-0.9798980">
        <ele>392.6</ele>
        <time>2020-10-12T06:50:05Z</time>
      </trkpt>
      <trkpt lat="38.2764520" lon="-0.9798280">
        <ele>392.8</ele>
        <time>2020-10-12T06:50:06Z</time>
      </trkpt>
      <trkpt lat="38.2764560" lon="-0.9797570">
        <ele>392.8</ele>
        <time>2020-10-12T06:50:07Z</time>
      </trkpt>
      <trkpt lat="38.2764620" lon="-0.9796890">
        <ele>392.8</ele>
        <time>2020-10-12T06:50:08Z</time>
      </trkpt>
      <trkpt lat="38.2764680" lon="-0.9796230">
        <ele>392.6</ele>
        <time>2020-10-12T06:50:09Z</time>
      </trkpt>
      <trkpt lat="38.2764750" lon="-0.9795560">
        <ele>392.4</ele>
        <time>2020-10-12T06:50:10Z</time>
      </trkpt>
      <trkpt lat="38.2764820" lon="-0.9794860">
        <ele>392.4</ele>
        <time>2020-10-12T06:50:11Z</time>
      </trkpt>
      <trkpt lat="38.2764900" lon="-0.9794160">
        <ele>392.2</ele>
        <time>2020-10-12T06:50:12Z</time>
      </trkpt>
      <trkpt lat="38.2764970" lon="-0.9793440">
        <ele>392.0</ele>
        <time>2020-10-12T06:50:13Z</time>
      </trkpt>
      <trkpt lat="38.2765020" lon="-0.9792710">
        <ele>391.8</ele>
        <time>2020-10-12T06:50:14Z</time>
      </trkpt>
      <trkpt lat="38.2765090" lon="-0.9792010">
        <ele>391.8</ele>
        <time>2020-10-12T06:50:15Z</time>
      </trkpt>
      <trkpt lat="38.2765160" lon="-0.9791300">
        <ele>391.8</ele>
        <time>2020-10-12T06:50:16Z</time>
      </trkpt>
      <trkpt lat="38.2765240" lon="-0.9790550">
        <ele>391.8</ele>
        <time>2020-10-12T06:50:17Z</time>
      </trkpt>
      <trkpt lat="38.2765320" lon="-0.9789810">
        <ele>391.8</ele>
        <time>2020-10-12T06:50:18Z</time>
      </trkpt>
      <trkpt lat="38.2765410" lon="-0.9789080">
        <ele>391.8</ele>
        <time>2020-10-12T06:50:19Z</time>
      </trkpt>
      <trkpt lat="38.2765510" lon="-0.9788310">
        <ele>392.0</ele>
        <time>2020-10-12T06:50:20Z</time>
      </trkpt>
      <trkpt lat="38.2765570" lon="-0.9787560">
        <ele>392.2</ele>
        <time>2020-10-12T06:50:21Z</time>
      </trkpt>
      <trkpt lat="38.2765640" lon="-0.9786800">
        <ele>392.4</ele>
        <time>2020-10-12T06:50:22Z</time>
      </trkpt>
      <trkpt lat="38.2765720" lon="-0.9786030">
        <ele>392.4</ele>
        <time>2020-10-12T06:50:23Z</time>
      </trkpt>
      <trkpt lat="38.2765790" lon="-0.9785240">
        <ele>392.6</ele>
        <time>2020-10-12T06:50:24Z</time>
      </trkpt>
      <trkpt lat="38.2765860" lon="-0.9784460">
        <ele>392.8</ele>
        <time>2020-10-12T06:50:25Z</time>
      </trkpt>
      <trkpt lat="38.2765940" lon="-0.9783680">
        <ele>392.8</ele>
        <time>2020-10-12T06:50:26Z</time>
      </trkpt>
      <trkpt lat="38.2766010" lon="-0.9782900">
        <ele>393.0</ele>
        <time>2020-10-12T06:50:27Z</time>
      </trkpt>
      <trkpt lat="38.2766090" lon="-0.9782110">
        <ele>393.0</ele>
        <time>2020-10-12T06:50:28Z</time>
      </trkpt>
      <trkpt lat="38.2766160" lon="-0.9781320">
        <ele>393.0</ele>
        <time>2020-10-12T06:50:29Z</time>
      </trkpt>
      <trkpt lat="38.2766260" lon="-0.9780540">
        <ele>393.2</ele>
        <time>2020-10-12T06:50:30Z</time>
      </trkpt>
      <trkpt lat="38.2766360" lon="-0.9779780">
        <ele>393.0</ele>
        <time>2020-10-12T06:50:31Z</time>
      </trkpt>
      <trkpt lat="38.2766460" lon="-0.9779030">
        <ele>392.8</ele>
        <time>2020-10-12T06:50:32Z</time>
      </trkpt>
      <trkpt lat="38.2766530" lon="-0.9778270">
        <ele>393.0</ele>
        <time>2020-10-12T06:50:33Z</time>
      </trkpt>
      <trkpt lat="38.2766600" lon="-0.9777520">
        <ele>392.8</ele>
        <time>2020-10-12T06:50:34Z</time>
      </trkpt>
      <trkpt lat="38.2766680" lon="-0.9776760">
        <ele>392.6</ele>
        <time>2020-10-12T06:50:35Z</time>
      </trkpt>
      <trkpt lat="38.2766740" lon="-0.9775990">
        <ele>392.8</ele>
        <time>2020-10-12T06:50:36Z</time>
      </trkpt>
      <trkpt lat="38.2766820" lon="-0.9775220">
        <ele>392.8</ele>
        <time>2020-10-12T06:50:37Z</time>
      </trkpt>
      <trkpt lat="38.2766900" lon="-0.9774440">
        <ele>392.8</ele>
        <time>2020-10-12T06:50:38Z</time>
      </trkpt>
      <trkpt lat="38.2766950" lon="-0.9773680">
        <ele>393.2</ele>
        <time>2020-10-12T06:50:39Z</time>
      </trkpt>
      <trkpt lat="38.2767010" lon="-0.9772920">
        <ele>393.2</ele>
        <time>2020-10-12T06:50:40Z</time>
      </trkpt>
      <trkpt lat="38.2767060" lon="-0.9772170">
        <ele>393.4</ele>
        <time>2020-10-12T06:50:41Z</time>
      </trkpt>
      <trkpt lat="38.2767110" lon="-0.9771430">
        <ele>393.6</ele>
        <time>2020-10-12T06:50:42Z</time>
      </trkpt>
      <trkpt lat="38.2767160" lon="-0.9770720">
        <ele>393.8</ele>
        <time>2020-10-12T06:50:43Z</time>
      </trkpt>
      <trkpt lat="38.2767210" lon="-0.9770010">
        <ele>393.8</ele>
        <time>2020-10-12T06:50:44Z</time>
      </trkpt>
      <trkpt lat="38.2767260" lon="-0.9769290">
        <ele>394.0</ele>
        <time>2020-10-12T06:50:45Z</time>
      </trkpt>
      <trkpt lat="38.2767310" lon="-0.9768570">
        <ele>394.2</ele>
        <time>2020-10-12T06:50:46Z</time>
      </trkpt>
      <trkpt lat="38.2767350" lon="-0.9767860">
        <ele>394.4</ele>
        <time>2020-10-12T06:50:47Z</time>
      </trkpt>
      <trkpt lat="38.2767380" lon="-0.9767130">
        <ele>394.6</ele>
        <time>2020-10-12T06:50:48Z</time>
      </trkpt>
      <trkpt lat="38.2767410" lon="-0.9766400">
        <ele>394.8</ele>
        <time>2020-10-12T06:50:49Z</time>
      </trkpt>
      <trkpt lat="38.2767440" lon="-0.9765670">
        <ele>395.0</ele>
        <time>2020-10-12T06:50:50Z</time>
      </trkpt>
      <trkpt lat="38.2767460" lon="-0.9764940">
        <ele>395.0</ele>
        <time>2020-10-12T06:50:51Z</time>
      </trkpt>
      <trkpt lat="38.2767480" lon="-0.9764210">
        <ele>395.0</ele>
        <time>2020-10-12T06:50:52Z</time>
      </trkpt>
      <trkpt lat="38.2767510" lon="-0.9763460">
        <ele>395.0</ele>
        <time>2020-10-12T06:50:53Z</time>
      </trkpt>
      <trkpt lat="38.2767520" lon="-0.9762730">
        <ele>395.0</ele>
        <time>2020-10-12T06:50:54Z</time>
      </trkpt>
      <trkpt lat="38.2767500" lon="-0.9761990">
        <ele>395.0</ele>
        <time>2020-10-12T06:50:55Z</time>
      </trkpt>
      <trkpt lat="38.2767510" lon="-0.9761260">
        <ele>395.2</ele>
        <time>2020-10-12T06:50:56Z</time>
      </trkpt>
      <trkpt lat="38.2767520" lon="-0.9760540">
        <ele>395.2</ele>
        <time>2020-10-12T06:50:57Z</time>
      </trkpt>
      <trkpt lat="38.2767530" lon="-0.9759820">
        <ele>395.2</ele>
        <time>2020-10-12T06:50:58Z</time>
      </trkpt>
      <trkpt lat="38.2767540" lon="-0.9759110">
        <ele>395.4</ele>
        <time>2020-10-12T06:50:59Z</time>
      </trkpt>
      <trkpt lat="38.2767540" lon="-0.9758390">
        <ele>395.8</ele>
        <time>2020-10-12T06:51:00Z</time>
      </trkpt>
      <trkpt lat="38.2767540" lon="-0.9757640">
        <ele>396.6</ele>
        <time>2020-10-12T06:51:01Z</time>
      </trkpt>
      <trkpt lat="38.2767540" lon="-0.9756920">
        <ele>397.4</ele>
        <time>2020-10-12T06:51:02Z</time>
      </trkpt>
      <trkpt lat="38.2767570" lon="-0.9756190">
        <ele>398.0</ele>
        <time>2020-10-12T06:51:03Z</time>
      </trkpt>
      <trkpt lat="38.2767610" lon="-0.9755460">
        <ele>398.4</ele>
        <time>2020-10-12T06:51:04Z</time>
      </trkpt>
      <trkpt lat="38.2767630" lon="-0.9754750">
        <ele>398.6</ele>
        <time>2020-10-12T06:51:05Z</time>
      </trkpt>
      <trkpt lat="38.2767670" lon="-0.9754040">
        <ele>398.8</ele>
        <time>2020-10-12T06:51:06Z</time>
      </trkpt>
      <trkpt lat="38.2767690" lon="-0.9753330">
        <ele>398.8</ele>
        <time>2020-10-12T06:51:07Z</time>
      </trkpt>
      <trkpt lat="38.2767710" lon="-0.9752620">
        <ele>398.8</ele>
        <time>2020-10-12T06:51:08Z</time>
      </trkpt>
      <trkpt lat="38.2767740" lon="-0.9751910">
        <ele>398.8</ele>
        <time>2020-10-12T06:51:09Z</time>
      </trkpt>
      <trkpt lat="38.2767770" lon="-0.9751190">
        <ele>398.8</ele>
        <time>2020-10-12T06:51:10Z</time>
      </trkpt>
      <trkpt lat="38.2767790" lon="-0.9750450">
        <ele>398.8</ele>
        <time>2020-10-12T06:51:11Z</time>
      </trkpt>
      <trkpt lat="38.2767830" lon="-0.9749720">
        <ele>398.8</ele>
        <time>2020-10-12T06:51:12Z</time>
      </trkpt>
      <trkpt lat="38.2767870" lon="-0.9749010">
        <ele>398.8</ele>
        <time>2020-10-12T06:51:13Z</time>
      </trkpt>
      <trkpt lat="38.2767910" lon="-0.9748300">
        <ele>398.8</ele>
        <time>2020-10-12T06:51:14Z</time>
      </trkpt>
      <trkpt lat="38.2767940" lon="-0.9747580">
        <ele>399.0</ele>
        <time>2020-10-12T06:51:15Z</time>
      </trkpt>
      <trkpt lat="38.2767970" lon="-0.9746870">
        <ele>398.8</ele>
        <time>2020-10-12T06:51:16Z</time>
      </trkpt>
      <trkpt lat="38.2768000" lon="-0.9746140">
        <ele>398.8</ele>
        <time>2020-10-12T06:51:17Z</time>
      </trkpt>
      <trkpt lat="38.2768040" lon="-0.9745410">
        <ele>398.8</ele>
        <time>2020-10-12T06:51:18Z</time>
      </trkpt>
      <trkpt lat="38.2768100" lon="-0.9744700">
        <ele>398.6</ele>
        <time>2020-10-12T06:51:19Z</time>
      </trkpt>
      <trkpt lat="38.2768160" lon="-0.9744000">
        <ele>398.6</ele>
        <time>2020-10-12T06:51:20Z</time>
      </trkpt>
      <trkpt lat="38.2768210" lon="-0.9743290">
        <ele>398.6</ele>
        <time>2020-10-12T06:51:21Z</time>
      </trkpt>
      <trkpt lat="38.2768240" lon="-0.9742520">
        <ele>398.6</ele>
        <time>2020-10-12T06:51:22Z</time>
      </trkpt>
      <trkpt lat="38.2768270" lon="-0.9741720">
        <ele>398.8</ele>
        <time>2020-10-12T06:51:23Z</time>
      </trkpt>
      <trkpt lat="38.2768320" lon="-0.9740840">
        <ele>398.8</ele>
        <time>2020-10-12T06:51:24Z</time>
      </trkpt>
      <trkpt lat="38.2768370" lon="-0.9740000">
        <ele>399.0</ele>
        <time>2020-10-12T06:51:25Z</time>
      </trkpt>
      <trkpt lat="38.2768440" lon="-0.9739150">
        <ele>399.2</ele>
        <time>2020-10-12T06:51:26Z</time>
      </trkpt>
      <trkpt lat="38.2768470" lon="-0.9738320">
        <ele>399.4</ele>
        <time>2020-10-12T06:51:27Z</time>
      </trkpt>
      <trkpt lat="38.2768510" lon="-0.9737480">
        <ele>399.6</ele>
        <time>2020-10-12T06:51:28Z</time>
      </trkpt>
      <trkpt lat="38.2768550" lon="-0.9736660">
        <ele>399.8</ele>
        <time>2020-10-12T06:51:29Z</time>
      </trkpt>
      <trkpt lat="38.2768600" lon="-0.9735850">
        <ele>399.8</ele>
        <time>2020-10-12T06:51:30Z</time>
      </trkpt>
      <trkpt lat="38.2768650" lon="-0.9735050">
        <ele>399.8</ele>
        <time>2020-10-12T06:51:31Z</time>
      </trkpt>
      <trkpt lat="38.2768700" lon="-0.9734250">
        <ele>399.6</ele>
        <time>2020-10-12T06:51:32Z</time>
      </trkpt>
      <trkpt lat="38.2768760" lon="-0.9733460">
        <ele>399.6</ele>
        <time>2020-10-12T06:51:33Z</time>
      </trkpt>
      <trkpt lat="38.2768830" lon="-0.9732660">
        <ele>399.4</ele>
        <time>2020-10-12T06:51:34Z</time>
      </trkpt>
      <trkpt lat="38.2768900" lon="-0.9731860">
        <ele>399.4</ele>
        <time>2020-10-12T06:51:35Z</time>
      </trkpt>
      <trkpt lat="38.2768970" lon="-0.9731040">
        <ele>399.4</ele>
        <time>2020-10-12T06:51:36Z</time>
      </trkpt>
      <trkpt lat="38.2769040" lon="-0.9730230">
        <ele>399.2</ele>
        <time>2020-10-12T06:51:37Z</time>
      </trkpt>
      <trkpt lat="38.2769110" lon="-0.9729420">
        <ele>399.2</ele>
        <time>2020-10-12T06:51:38Z</time>
      </trkpt>
      <trkpt lat="38.2769170" lon="-0.9728620">
        <ele>399.4</ele>
        <time>2020-10-12T06:51:39Z</time>
      </trkpt>
      <trkpt lat="38.2769240" lon="-0.9727790">
        <ele>399.6</ele>
        <time>2020-10-12T06:51:40Z</time>
      </trkpt>
      <trkpt lat="38.2769310" lon="-0.9726970">
        <ele>399.8</ele>
        <time>2020-10-12T06:51:41Z</time>
      </trkpt>
      <trkpt lat="38.2769370" lon="-0.9726140">
        <ele>399.8</ele>
        <time>2020-10-12T06:51:42Z</time>
      </trkpt>
      <trkpt lat="38.2769440" lon="-0.9725320">
        <ele>400.0</ele>
        <time>2020-10-12T06:51:43Z</time>
      </trkpt>
      <trkpt lat="38.2769510" lon="-0.9724490">
        <ele>400.0</ele>
        <time>2020-10-12T06:51:44Z</time>
      </trkpt>
      <trkpt lat="38.2769570" lon="-0.9723670">
        <ele>400.2</ele>
        <time>2020-10-12T06:51:45Z</time>
      </trkpt>
      <trkpt lat="38.2769610" lon="-0.9722860">
        <ele>400.2</ele>
        <time>2020-10-12T06:51:46Z</time>
      </trkpt>
      <trkpt lat="38.2769640" lon="-0.9722040">
        <ele>400.2</ele>
        <time>2020-10-12T06:51:47Z</time>
      </trkpt>
      <trkpt lat="38.2769690" lon="-0.9721230">
        <ele>400.2</ele>
        <time>2020-10-12T06:51:48Z</time>
      </trkpt>
      <trkpt lat="38.2769740" lon="-0.9720430">
        <ele>400.2</ele>
        <time>2020-10-12T06:51:49Z</time>
      </trkpt>
      <trkpt lat="38.2769780" lon="-0.9719630">
        <ele>400.2</ele>
        <time>2020-10-12T06:51:50Z</time>
      </trkpt>
      <trkpt lat="38.2769820" lon="-0.9718830">
        <ele>400.6</ele>
        <time>2020-10-12T06:51:51Z</time>
      </trkpt>
      <trkpt lat="38.2769860" lon="-0.9718030">
        <ele>400.4</ele>
        <time>2020-10-12T06:51:52Z</time>
      </trkpt>
      <trkpt lat="38.2769890" lon="-0.9717220">
        <ele>400.6</ele>
        <time>2020-10-12T06:51:53Z</time>
      </trkpt>
      <trkpt lat="38.2769910" lon="-0.9716420">
        <ele>400.8</ele>
        <time>2020-10-12T06:51:54Z</time>
      </trkpt>
      <trkpt lat="38.2769940" lon="-0.9715600">
        <ele>400.8</ele>
        <time>2020-10-12T06:51:55Z</time>
      </trkpt>
      <trkpt lat="38.2769980" lon="-0.9714780">
        <ele>400.8</ele>
        <time>2020-10-12T06:51:56Z</time>
      </trkpt>
      <trkpt lat="38.2770010" lon="-0.9713960">
        <ele>400.8</ele>
        <time>2020-10-12T06:51:57Z</time>
      </trkpt>
      <trkpt lat="38.2770050" lon="-0.9713140">
        <ele>400.6</ele>
        <time>2020-10-12T06:51:58Z</time>
      </trkpt>
      <trkpt lat="38.2770080" lon="-0.9712320">
        <ele>400.8</ele>
        <time>2020-10-12T06:51:59Z</time>
      </trkpt>
      <trkpt lat="38.2770130" lon="-0.9711500">
        <ele>401.0</ele>
        <time>2020-10-12T06:52:00Z</time>
      </trkpt>
      <trkpt lat="38.2770200" lon="-0.9710680">
        <ele>401.0</ele>
        <time>2020-10-12T06:52:01Z</time>
      </trkpt>
      <trkpt lat="38.2770240" lon="-0.9709860">
        <ele>401.2</ele>
        <time>2020-10-12T06:52:02Z</time>
      </trkpt>
      <trkpt lat="38.2770280" lon="-0.9709040">
        <ele>401.2</ele>
        <time>2020-10-12T06:52:03Z</time>
      </trkpt>
      <trkpt lat="38.2770320" lon="-0.9708200">
        <ele>401.2</ele>
        <time>2020-10-12T06:52:04Z</time>
      </trkpt>
      <trkpt lat="38.2770350" lon="-0.9707360">
        <ele>401.2</ele>
        <time>2020-10-12T06:52:05Z</time>
      </trkpt>
      <trkpt lat="38.2770380" lon="-0.9706520">
        <ele>401.2</ele>
        <time>2020-10-12T06:52:06Z</time>
      </trkpt>
      <trkpt lat="38.2770420" lon="-0.9705660">
        <ele>401.2</ele>
        <time>2020-10-12T06:52:07Z</time>
      </trkpt>
      <trkpt lat="38.2770470" lon="-0.9704790">
        <ele>401.0</ele>
        <time>2020-10-12T06:52:08Z</time>
      </trkpt>
      <trkpt lat="38.2770540" lon="-0.9703920">
        <ele>400.8</ele>
        <time>2020-10-12T06:52:09Z</time>
      </trkpt>
      <trkpt lat="38.2770600" lon="-0.9703060">
        <ele>401.0</ele>
        <time>2020-10-12T06:52:10Z</time>
      </trkpt>
      <trkpt lat="38.2770650" lon="-0.9702200">
        <ele>401.0</ele>
        <time>2020-10-12T06:52:11Z</time>
      </trkpt>
      <trkpt lat="38.2770710" lon="-0.9701340">
        <ele>401.0</ele>
        <time>2020-10-12T06:52:12Z</time>
      </trkpt>
      <trkpt lat="38.2770760" lon="-0.9700470">
        <ele>401.2</ele>
        <time>2020-10-12T06:52:13Z</time>
      </trkpt>
      <trkpt lat="38.2770810" lon="-0.9699590">
        <ele>401.2</ele>
        <time>2020-10-12T06:52:14Z</time>
      </trkpt>
      <trkpt lat="38.2770880" lon="-0.9698710">
        <ele>401.2</ele>
        <time>2020-10-12T06:52:15Z</time>
      </trkpt>
      <trkpt lat="38.2770950" lon="-0.9697810">
        <ele>401.2</ele>
        <time>2020-10-12T06:52:16Z</time>
      </trkpt>
      <trkpt lat="38.2771010" lon="-0.9696920">
        <ele>401.2</ele>
        <time>2020-10-12T06:52:17Z</time>
      </trkpt>
      <trkpt lat="38.2771060" lon="-0.9696030">
        <ele>401.2</ele>
        <time>2020-10-12T06:52:18Z</time>
      </trkpt>
      <trkpt lat="38.2771110" lon="-0.9695170">
        <ele>401.2</ele>
        <time>2020-10-12T06:52:19Z</time>
      </trkpt>
      <trkpt lat="38.2771170" lon="-0.9694320">
        <ele>401.2</ele>
        <time>2020-10-12T06:52:20Z</time>
      </trkpt>
      <trkpt lat="38.2771240" lon="-0.9693480">
        <ele>401.2</ele>
        <time>2020-10-12T06:52:21Z</time>
      </trkpt>
      <trkpt lat="38.2771310" lon="-0.9692640">
        <ele>401.2</ele>
        <time>2020-10-12T06:52:22Z</time>
      </trkpt>
      <trkpt lat="38.2771360" lon="-0.9691780">
        <ele>401.2</ele>
        <time>2020-10-12T06:52:23Z</time>
      </trkpt>
      <trkpt lat="38.2771400" lon="-0.9690910">
        <ele>401.0</ele>
        <time>2020-10-12T06:52:24Z</time>
      </trkpt>
      <trkpt lat="38.2771450" lon="-0.9690040">
        <ele>401.0</ele>
        <time>2020-10-12T06:52:25Z</time>
      </trkpt>
      <trkpt lat="38.2771490" lon="-0.9689170">
        <ele>401.0</ele>
        <time>2020-10-12T06:52:26Z</time>
      </trkpt>
      <trkpt lat="38.2771520" lon="-0.9688290">
        <ele>401.0</ele>
        <time>2020-10-12T06:52:27Z</time>
      </trkpt>
      <trkpt lat="38.2771570" lon="-0.9687420">
        <ele>401.0</ele>
        <time>2020-10-12T06:52:28Z</time>
      </trkpt>
      <trkpt lat="38.2771610" lon="-0.9686540">
        <ele>400.8</ele>
        <time>2020-10-12T06:52:29Z</time>
      </trkpt>
      <trkpt lat="38.2771630" lon="-0.9685660">
        <ele>400.4</ele>
        <time>2020-10-12T06:52:30Z</time>
      </trkpt>
      <trkpt lat="38.2771620" lon="-0.9684790">
        <ele>399.8</ele>
        <time>2020-10-12T06:52:31Z</time>
      </trkpt>
      <trkpt lat="38.2771570" lon="-0.9683920">
        <ele>399.8</ele>
        <time>2020-10-12T06:52:32Z</time>
      </trkpt>
      <trkpt lat="38.2771460" lon="-0.9683050">
        <ele>399.8</ele>
        <time>2020-10-12T06:52:33Z</time>
      </trkpt>
      <trkpt lat="38.2771310" lon="-0.9682170">
        <ele>399.8</ele>
        <time>2020-10-12T06:52:34Z</time>
      </trkpt>
      <trkpt lat="38.2771140" lon="-0.9681310">
        <ele>399.8</ele>
        <time>2020-10-12T06:52:35Z</time>
      </trkpt>
      <trkpt lat="38.2770950" lon="-0.9680450">
        <ele>400.0</ele>
        <time>2020-10-12T06:52:36Z</time>
      </trkpt>
      <trkpt lat="38.2770780" lon="-0.9679580">
        <ele>400.4</ele>
        <time>2020-10-12T06:52:37Z</time>
      </trkpt>
      <trkpt lat="38.2770590" lon="-0.9678690">
        <ele>400.6</ele>
        <time>2020-10-12T06:52:38Z</time>
      </trkpt>
      <trkpt lat="38.2770380" lon="-0.9677810">
        <ele>400.6</ele>
        <time>2020-10-12T06:52:39Z</time>
      </trkpt>
      <trkpt lat="38.2770180" lon="-0.9676950">
        <ele>400.6</ele>
        <time>2020-10-12T06:52:40Z</time>
      </trkpt>
      <trkpt lat="38.2769980" lon="-0.9676080">
        <ele>400.6</ele>
        <time>2020-10-12T06:52:41Z</time>
      </trkpt>
      <trkpt lat="38.2769760" lon="-0.9675240">
        <ele>400.6</ele>
        <time>2020-10-12T06:52:42Z</time>
      </trkpt>
      <trkpt lat="38.2769540" lon="-0.9674400">
        <ele>400.6</ele>
        <time>2020-10-12T06:52:43Z</time>
      </trkpt>
      <trkpt lat="38.2769320" lon="-0.9673560">
        <ele>400.6</ele>
        <time>2020-10-12T06:52:44Z</time>
      </trkpt>
      <trkpt lat="38.2769120" lon="-0.9672720">
        <ele>400.8</ele>
        <time>2020-10-12T06:52:45Z</time>
      </trkpt>
      <trkpt lat="38.2768910" lon="-0.9671890">
        <ele>400.8</ele>
        <time>2020-10-12T06:52:46Z</time>
      </trkpt>
      <trkpt lat="38.2768700" lon="-0.9671040">
        <ele>401.0</ele>
        <time>2020-10-12T06:52:47Z</time>
      </trkpt>
      <trkpt lat="38.2768480" lon="-0.9670200">
        <ele>401.2</ele>
        <time>2020-10-12T06:52:48Z</time>
      </trkpt>
      <trkpt lat="38.2768270" lon="-0.9669350">
        <ele>401.2</ele>
        <time>2020-10-12T06:52:49Z</time>
      </trkpt>
      <trkpt lat="38.2768070" lon="-0.9668500">
        <ele>401.4</ele>
        <time>2020-10-12T06:52:50Z</time>
      </trkpt>
      <trkpt lat="38.2767880" lon="-0.9667620">
        <ele>401.4</ele>
        <time>2020-10-12T06:52:51Z</time>
      </trkpt>
      <trkpt lat="38.2767690" lon="-0.9666750">
        <ele>401.4</ele>
        <time>2020-10-12T06:52:52Z</time>
      </trkpt>
      <trkpt lat="38.2767500" lon="-0.9665880">
        <ele>401.6</ele>
        <time>2020-10-12T06:52:53Z</time>
      </trkpt>
      <trkpt lat="38.2767300" lon="-0.9665000">
        <ele>401.6</ele>
        <time>2020-10-12T06:52:54Z</time>
      </trkpt>
      <trkpt lat="38.2767110" lon="-0.9664110">
        <ele>401.6</ele>
        <time>2020-10-12T06:52:55Z</time>
      </trkpt>
      <trkpt lat="38.2766910" lon="-0.9663210">
        <ele>401.6</ele>
        <time>2020-10-12T06:52:56Z</time>
      </trkpt>
      <trkpt lat="38.2766720" lon="-0.9662370">
        <ele>401.6</ele>
        <time>2020-10-12T06:52:57Z</time>
      </trkpt>
      <trkpt lat="38.2766520" lon="-0.9661480">
        <ele>401.6</ele>
        <time>2020-10-12T06:52:58Z</time>
      </trkpt>
      <trkpt lat="38.2766330" lon="-0.9660580">
        <ele>401.6</ele>
        <time>2020-10-12T06:52:59Z</time>
      </trkpt>
      <trkpt lat="38.2766140" lon="-0.9659670">
        <ele>401.8</ele>
        <time>2020-10-12T06:53:00Z</time>
      </trkpt>
      <trkpt lat="38.2765940" lon="-0.9658730">
        <ele>401.8</ele>
        <time>2020-10-12T06:53:01Z</time>
      </trkpt>
      <trkpt lat="38.2765740" lon="-0.9657760">
        <ele>401.6</ele>
        <time>2020-10-12T06:53:02Z</time>
      </trkpt>
      <trkpt lat="38.2765540" lon="-0.9656820">
        <ele>401.6</ele>
        <time>2020-10-12T06:53:03Z</time>
      </trkpt>
      <trkpt lat="38.2765330" lon="-0.9655880">
        <ele>401.8</ele>
        <time>2020-10-12T06:53:04Z</time>
      </trkpt>
      <trkpt lat="38.2765100" lon="-0.9654950">
        <ele>402.0</ele>
        <time>2020-10-12T06:53:05Z</time>
      </trkpt>
      <trkpt lat="38.2764880" lon="-0.9653990">
        <ele>402.0</ele>
        <time>2020-10-12T06:53:06Z</time>
      </trkpt>
      <trkpt lat="38.2764690" lon="-0.9653030">
        <ele>402.2</ele>
        <time>2020-10-12T06:53:07Z</time>
      </trkpt>
      <trkpt lat="38.2764470" lon="-0.9652080">
        <ele>402.0</ele>
        <time>2020-10-12T06:53:08Z</time>
      </trkpt>
      <trkpt lat="38.2764260" lon="-0.9651110">
        <ele>402.0</ele>
        <time>2020-10-12T06:53:09Z</time>
      </trkpt>
      <trkpt lat="38.2764050" lon="-0.9650150">
        <ele>402.0</ele>
        <time>2020-10-12T06:53:10Z</time>
      </trkpt>
      <trkpt lat="38.2763820" lon="-0.9649190">
        <ele>402.0</ele>
        <time>2020-10-12T06:53:11Z</time>
      </trkpt>
      <trkpt lat="38.2763580" lon="-0.9648230">
        <ele>402.0</ele>
        <time>2020-10-12T06:53:12Z</time>
      </trkpt>
      <trkpt lat="38.2763330" lon="-0.9647260">
        <ele>402.2</ele>
        <time>2020-10-12T06:53:13Z</time>
      </trkpt>
      <trkpt lat="38.2763070" lon="-0.9646270">
        <ele>401.8</ele>
        <time>2020-10-12T06:53:14Z</time>
      </trkpt>
      <trkpt lat="38.2762810" lon="-0.9645280">
        <ele>401.6</ele>
        <time>2020-10-12T06:53:15Z</time>
      </trkpt>
      <trkpt lat="38.2762590" lon="-0.9644280">
        <ele>401.2</ele>
        <time>2020-10-12T06:53:16Z</time>
      </trkpt>
      <trkpt lat="38.2762380" lon="-0.9643270">
        <ele>401.2</ele>
        <time>2020-10-12T06:53:17Z</time>
      </trkpt>
      <trkpt lat="38.2762170" lon="-0.9642270">
        <ele>401.0</ele>
        <time>2020-10-12T06:53:18Z</time>
      </trkpt>
      <trkpt lat="38.2761960" lon="-0.9641320">
        <ele>400.8</ele>
        <time>2020-10-12T06:53:19Z</time>
      </trkpt>
      <trkpt lat="38.2761730" lon="-0.9640390">
        <ele>400.6</ele>
        <time>2020-10-12T06:53:20Z</time>
      </trkpt>
      <trkpt lat="38.2761490" lon="-0.9639470">
        <ele>400.6</ele>
        <time>2020-10-12T06:53:21Z</time>
      </trkpt>
      <trkpt lat="38.2761260" lon="-0.9638530">
        <ele>400.6</ele>
        <time>2020-10-12T06:53:22Z</time>
      </trkpt>
      <trkpt lat="38.2761030" lon="-0.9637570">
        <ele>400.6</ele>
        <time>2020-10-12T06:53:23Z</time>
      </trkpt>
      <trkpt lat="38.2760810" lon="-0.9636600">
        <ele>400.4</ele>
        <time>2020-10-12T06:53:24Z</time>
      </trkpt>
      <trkpt lat="38.2760600" lon="-0.9635610">
        <ele>400.4</ele>
        <time>2020-10-12T06:53:25Z</time>
      </trkpt>
      <trkpt lat="38.2760370" lon="-0.9634590">
        <ele>400.4</ele>
        <time>2020-10-12T06:53:26Z</time>
      </trkpt>
      <trkpt lat="38.2760140" lon="-0.9633570">
        <ele>400.0</ele>
        <time>2020-10-12T06:53:27Z</time>
      </trkpt>
      <trkpt lat="38.2759920" lon="-0.9632540">
        <ele>399.8</ele>
        <time>2020-10-12T06:53:28Z</time>
      </trkpt>
      <trkpt lat="38.2759720" lon="-0.9631510">
        <ele>400.0</ele>
        <time>2020-10-12T06:53:29Z</time>
      </trkpt>
      <trkpt lat="38.2759520" lon="-0.9630490">
        <ele>400.0</ele>
        <time>2020-10-12T06:53:30Z</time>
      </trkpt>
      <trkpt lat="38.2759300" lon="-0.9629530">
        <ele>400.0</ele>
        <time>2020-10-12T06:53:31Z</time>
      </trkpt>
      <trkpt lat="38.2759090" lon="-0.9628520">
        <ele>399.8</ele>
        <time>2020-10-12T06:53:32Z</time>
      </trkpt>
      <trkpt lat="38.2758870" lon="-0.9627530">
        <ele>399.6</ele>
        <time>2020-10-12T06:53:33Z</time>
      </trkpt>
      <trkpt lat="38.2758650" lon="-0.9626550">
        <ele>399.6</ele>
        <time>2020-10-12T06:53:34Z</time>
      </trkpt>
      <trkpt lat="38.2758430" lon="-0.9625570">
        <ele>399.4</ele>
        <time>2020-10-12T06:53:35Z</time>
      </trkpt>
      <trkpt lat="38.2758220" lon="-0.9624570">
        <ele>398.8</ele>
        <time>2020-10-12T06:53:36Z</time>
      </trkpt>
      <trkpt lat="38.2758020" lon="-0.9623550">
        <ele>398.4</ele>
        <time>2020-10-12T06:53:37Z</time>
      </trkpt>
      <trkpt lat="38.2757800" lon="-0.9622560">
        <ele>397.8</ele>
        <time>2020-10-12T06:53:38Z</time>
      </trkpt>
      <trkpt lat="38.2757560" lon="-0.9621580">
        <ele>397.6</ele>
        <time>2020-10-12T06:53:39Z</time>
      </trkpt>
      <trkpt lat="38.2757300" lon="-0.9620610">
        <ele>397.6</ele>
        <time>2020-10-12T06:53:40Z</time>
      </trkpt>
      <trkpt lat="38.2757050" lon="-0.9619640">
        <ele>397.8</ele>
        <time>2020-10-12T06:53:41Z</time>
      </trkpt>
      <trkpt lat="38.2756820" lon="-0.9618680">
        <ele>398.2</ele>
        <time>2020-10-12T06:53:42Z</time>
      </trkpt>
      <trkpt lat="38.2756600" lon="-0.9617700">
        <ele>398.8</ele>
        <time>2020-10-12T06:53:43Z</time>
      </trkpt>
      <trkpt lat="38.2756390" lon="-0.9616740">
        <ele>399.4</ele>
        <time>2020-10-12T06:53:44Z</time>
      </trkpt>
      <trkpt lat="38.2756170" lon="-0.9615770">
        <ele>399.8</ele>
        <time>2020-10-12T06:53:45Z</time>
      </trkpt>
      <trkpt lat="38.2755950" lon="-0.9614780">
        <ele>400.2</ele>
        <time>2020-10-12T06:53:46Z</time>
      </trkpt>
      <trkpt lat="38.2755720" lon="-0.9613820">
        <ele>400.4</ele>
        <time>2020-10-12T06:53:47Z</time>
      </trkpt>
      <trkpt lat="38.2755500" lon="-0.9612890">
        <ele>400.4</ele>
        <time>2020-10-12T06:53:48Z</time>
      </trkpt>
      <trkpt lat="38.2755290" lon="-0.9611960">
        <ele>400.4</ele>
        <time>2020-10-12T06:53:49Z</time>
      </trkpt>
      <trkpt lat="38.2755070" lon="-0.9611000">
        <ele>400.2</ele>
        <time>2020-10-12T06:53:50Z</time>
      </trkpt>
      <trkpt lat="38.2754850" lon="-0.9610050">
        <ele>400.0</ele>
        <time>2020-10-12T06:53:51Z</time>
      </trkpt>
      <trkpt lat="38.2754640" lon="-0.9609060">
        <ele>399.6</ele>
        <time>2020-10-12T06:53:52Z</time>
      </trkpt>
      <trkpt lat="38.2754440" lon="-0.9608090">
        <ele>399.6</ele>
        <time>2020-10-12T06:53:53Z</time>
      </trkpt>
      <trkpt lat="38.2754220" lon="-0.9607140">
        <ele>399.4</ele>
        <time>2020-10-12T06:53:54Z</time>
      </trkpt>
      <trkpt lat="38.2753990" lon="-0.9606220">
        <ele>399.4</ele>
        <time>2020-10-12T06:53:55Z</time>
      </trkpt>
      <trkpt lat="38.2753760" lon="-0.9605310">
        <ele>399.2</ele>
        <time>2020-10-12T06:53:56Z</time>
      </trkpt>
      <trkpt lat="38.2753530" lon="-0.9604390">
        <ele>399.2</ele>
        <time>2020-10-12T06:53:57Z</time>
      </trkpt>
      <trkpt lat="38.2753290" lon="-0.9603470">
        <ele>399.4</ele>
        <time>2020-10-12T06:53:58Z</time>
      </trkpt>
      <trkpt lat="38.2753060" lon="-0.9602570">
        <ele>399.6</ele>
        <time>2020-10-12T06:53:59Z</time>
      </trkpt>
      <trkpt lat="38.2752850" lon="-0.9601650">
        <ele>399.8</ele>
        <time>2020-10-12T06:54:00Z</time>
      </trkpt>
      <trkpt lat="38.2752640" lon="-0.9600720">
        <ele>400.0</ele>
        <time>2020-10-12T06:54:01Z</time>
      </trkpt>
      <trkpt lat="38.2752440" lon="-0.9599800">
        <ele>400.4</ele>
        <time>2020-10-12T06:54:02Z</time>
      </trkpt>
      <trkpt lat="38.2752230" lon="-0.9598910">
        <ele>400.6</ele>
        <time>2020-10-12T06:54:03Z</time>
      </trkpt>
      <trkpt lat="38.2752020" lon="-0.9598010">
        <ele>400.8</ele>
        <time>2020-10-12T06:54:04Z</time>
      </trkpt>
      <trkpt lat="38.2751820" lon="-0.9597100">
        <ele>401.0</ele>
        <time>2020-10-12T06:54:05Z</time>
      </trkpt>
      <trkpt lat="38.2751630" lon="-0.9596200">
        <ele>401.0</ele>
        <time>2020-10-12T06:54:06Z</time>
      </trkpt>
      <trkpt lat="38.2751430" lon="-0.9595340">
        <ele>401.2</ele>
        <time>2020-10-12T06:54:07Z</time>
      </trkpt>
      <trkpt lat="38.2751230" lon="-0.9594490">
        <ele>401.2</ele>
        <time>2020-10-12T06:54:08Z</time>
      </trkpt>
      <trkpt lat="38.2751030" lon="-0.9593620">
        <ele>401.2</ele>
        <time>2020-10-12T06:54:09Z</time>
      </trkpt>
      <trkpt lat="38.2750830" lon="-0.9592750">
        <ele>401.2</ele>
        <time>2020-10-12T06:54:10Z</time>
      </trkpt>
      <trkpt lat="38.2750610" lon="-0.9591870">
        <ele>401.2</ele>
        <time>2020-10-12T06:54:11Z</time>
      </trkpt>
      <trkpt lat="38.2750400" lon="-0.9591000">
        <ele>401.2</ele>
        <time>2020-10-12T06:54:12Z</time>
      </trkpt>
      <trkpt lat="38.2750180" lon="-0.9590140">
        <ele>401.2</ele>
        <time>2020-10-12T06:54:13Z</time>
      </trkpt>
      <trkpt lat="38.2749980" lon="-0.9589270">
        <ele>401.4</ele>
        <time>2020-10-12T06:54:14Z</time>
      </trkpt>
      <trkpt lat="38.2749790" lon="-0.9588400">
        <ele>401.6</ele>
        <time>2020-10-12T06:54:15Z</time>
      </trkpt>
      <trkpt lat="38.2749580" lon="-0.9587520">
        <ele>401.8</ele>
        <time>2020-10-12T06:54:16Z</time>
      </trkpt>
      <trkpt lat="38.2749390" lon="-0.9586630">
        <ele>402.2</ele>
        <time>2020-10-12T06:54:17Z</time>
      </trkpt>
      <trkpt lat="38.2749190" lon="-0.9585790">
        <ele>402.6</ele>
        <time>2020-10-12T06:54:18Z</time>
      </trkpt>
      <trkpt lat="38.2749000" lon="-0.9584930">
        <ele>402.8</ele>
        <time>2020-10-12T06:54:19Z</time>
      </trkpt>
      <trkpt lat="38.2748800" lon="-0.9584070">
        <ele>402.8</ele>
        <time>2020-10-12T06:54:20Z</time>
      </trkpt>
      <trkpt lat="38.2748600" lon="-0.9583210">
        <ele>402.8</ele>
        <time>2020-10-12T06:54:21Z</time>
      </trkpt>
      <trkpt lat="38.2748400" lon="-0.9582320">
        <ele>402.8</ele>
        <time>2020-10-12T06:54:22Z</time>
      </trkpt>
      <trkpt lat="38.2748190" lon="-0.9581430">
        <ele>402.8</ele>
        <time>2020-10-12T06:54:23Z</time>
      </trkpt>
      <trkpt lat="38.2747970" lon="-0.9580540">
        <ele>402.8</ele>
        <time>2020-10-12T06:54:24Z</time>
      </trkpt>
      <trkpt lat="38.2747740" lon="-0.9579630">
        <ele>402.6</ele>
        <time>2020-10-12T06:54:25Z</time>
      </trkpt>
      <trkpt lat="38.2747520" lon="-0.9578760">
        <ele>402.6</ele>
        <time>2020-10-12T06:54:26Z</time>
      </trkpt>
      <trkpt lat="38.2747310" lon="-0.9577870">
        <ele>402.8</ele>
        <time>2020-10-12T06:54:27Z</time>
      </trkpt>
      <trkpt lat="38.2747100" lon="-0.9576970">
        <ele>402.8</ele>
        <time>2020-10-12T06:54:28Z</time>
      </trkpt>
      <trkpt lat="38.2746900" lon="-0.9576120">
        <ele>403.0</ele>
        <time>2020-10-12T06:54:29Z</time>
      </trkpt>
      <trkpt lat="38.2746710" lon="-0.9575250">
        <ele>403.0</ele>
        <time>2020-10-12T06:54:30Z</time>
      </trkpt>
      <trkpt lat="38.2746520" lon="-0.9574360">
        <ele>403.2</ele>
        <time>2020-10-12T06:54:31Z</time>
      </trkpt>
      <trkpt lat="38.2746320" lon="-0.9573470">
        <ele>403.6</ele>
        <time>2020-10-12T06:54:32Z</time>
      </trkpt>
      <trkpt lat="38.2746120" lon="-0.9572600">
        <ele>403.8</ele>
        <time>2020-10-12T06:54:33Z</time>
      </trkpt>
      <trkpt lat="38.2745910" lon="-0.9571720">
        <ele>404.2</ele>
        <time>2020-10-12T06:54:34Z</time>
      </trkpt>
      <trkpt lat="38.2745700" lon="-0.9570860">
        <ele>404.4</ele>
        <time>2020-10-12T06:54:35Z</time>
      </trkpt>
      <trkpt lat="38.2745490" lon="-0.9569990">
        <ele>404.4</ele>
        <time>2020-10-12T06:54:36Z</time>
      </trkpt>
      <trkpt lat="38.2745290" lon="-0.9569120">
        <ele>404.4</ele>
        <time>2020-10-12T06:54:37Z</time>
      </trkpt>
      <trkpt lat="38.2745070" lon="-0.9568240">
        <ele>404.4</ele>
        <time>2020-10-12T06:54:38Z</time>
      </trkpt>
      <trkpt lat="38.2744860" lon="-0.9567350">
        <ele>404.6</ele>
        <time>2020-10-12T06:54:39Z</time>
      </trkpt>
      <trkpt lat="38.2744640" lon="-0.9566480">
        <ele>404.6</ele>
        <time>2020-10-12T06:54:40Z</time>
      </trkpt>
      <trkpt lat="38.2744440" lon="-0.9565630">
        <ele>404.6</ele>
        <time>2020-10-12T06:54:41Z</time>
      </trkpt>
      <trkpt lat="38.2744230" lon="-0.9564780">
        <ele>404.8</ele>
        <time>2020-10-12T06:54:42Z</time>
      </trkpt>
      <trkpt lat="38.2744040" lon="-0.9563940">
        <ele>405.0</ele>
        <time>2020-10-12T06:54:43Z</time>
      </trkpt>
      <trkpt lat="38.2743840" lon="-0.9563130">
        <ele>405.2</ele>
        <time>2020-10-12T06:54:44Z</time>
      </trkpt>
      <trkpt lat="38.2743650" lon="-0.9562330">
        <ele>405.2</ele>
        <time>2020-10-12T06:54:45Z</time>
      </trkpt>
      <trkpt lat="38.2743460" lon="-0.9561500">
        <ele>405.4</ele>
        <time>2020-10-12T06:54:46Z</time>
      </trkpt>
      <trkpt lat="38.2743270" lon="-0.9560670">
        <ele>405.4</ele>
        <time>2020-10-12T06:54:47Z</time>
      </trkpt>
      <trkpt lat="38.2743100" lon="-0.9559820">
        <ele>405.6</ele>
        <time>2020-10-12T06:54:48Z</time>
      </trkpt>
      <trkpt lat="38.2742910" lon="-0.9558980">
        <ele>405.6</ele>
        <time>2020-10-12T06:54:49Z</time>
      </trkpt>
      <trkpt lat="38.2742720" lon="-0.9558130">
        <ele>405.6</ele>
        <time>2020-10-12T06:54:50Z</time>
      </trkpt>
      <trkpt lat="38.2742540" lon="-0.9557260">
        <ele>405.8</ele>
        <time>2020-10-12T06:54:51Z</time>
      </trkpt>
      <trkpt lat="38.2742360" lon="-0.9556400">
        <ele>406.2</ele>
        <time>2020-10-12T06:54:52Z</time>
      </trkpt>
      <trkpt lat="38.2742160" lon="-0.9555550">
        <ele>406.8</ele>
        <time>2020-10-12T06:54:53Z</time>
      </trkpt>
      <trkpt lat="38.2741980" lon="-0.9554680">
        <ele>407.2</ele>
        <time>2020-10-12T06:54:54Z</time>
      </trkpt>
      <trkpt lat="38.2741830" lon="-0.9553800">
        <ele>407.4</ele>
        <time>2020-10-12T06:54:55Z</time>
      </trkpt>
      <trkpt lat="38.2741680" lon="-0.9552910">
        <ele>407.6</ele>
        <time>2020-10-12T06:54:56Z</time>
      </trkpt>
      <trkpt lat="38.2741560" lon="-0.9552010">
        <ele>407.6</ele>
        <time>2020-10-12T06:54:57Z</time>
      </trkpt>
      <trkpt lat="38.2741450" lon="-0.9551130">
        <ele>407.8</ele>
        <time>2020-10-12T06:54:58Z</time>
      </trkpt>
      <trkpt lat="38.2741330" lon="-0.9550260">
        <ele>408.4</ele>
        <time>2020-10-12T06:54:59Z</time>
      </trkpt>
      <trkpt lat="38.2741220" lon="-0.9549380">
        <ele>408.6</ele>
        <time>2020-10-12T06:55:00Z</time>
      </trkpt>
      <trkpt lat="38.2741090" lon="-0.9548500">
        <ele>408.8</ele>
        <time>2020-10-12T06:55:01Z</time>
      </trkpt>
      <trkpt lat="38.2740950" lon="-0.9547630">
        <ele>408.8</ele>
        <time>2020-10-12T06:55:02Z</time>
      </trkpt>
      <trkpt lat="38.2740800" lon="-0.9546750">
        <ele>408.6</ele>
        <time>2020-10-12T06:55:03Z</time>
      </trkpt>
      <trkpt lat="38.2740670" lon="-0.9545880">
        <ele>408.4</ele>
        <time>2020-10-12T06:55:04Z</time>
      </trkpt>
      <trkpt lat="38.2740550" lon="-0.9545010">
        <ele>408.2</ele>
        <time>2020-10-12T06:55:05Z</time>
      </trkpt>
      <trkpt lat="38.2740410" lon="-0.9544170">
        <ele>408.0</ele>
        <time>2020-10-12T06:55:06Z</time>
      </trkpt>
      <trkpt lat="38.2740280" lon="-0.9543330">
        <ele>408.2</ele>
        <time>2020-10-12T06:55:07Z</time>
      </trkpt>
      <trkpt lat="38.2740120" lon="-0.9542480">
        <ele>408.2</ele>
        <time>2020-10-12T06:55:08Z</time>
      </trkpt>
      <trkpt lat="38.2739990" lon="-0.9541650">
        <ele>408.4</ele>
        <time>2020-10-12T06:55:09Z</time>
      </trkpt>
      <trkpt lat="38.2739850" lon="-0.9540810">
        <ele>408.6</ele>
        <time>2020-10-12T06:55:10Z</time>
      </trkpt>
      <trkpt lat="38.2739750" lon="-0.9539940">
        <ele>408.8</ele>
        <time>2020-10-12T06:55:11Z</time>
      </trkpt>
      <trkpt lat="38.2739650" lon="-0.9539060">
        <ele>409.2</ele>
        <time>2020-10-12T06:55:12Z</time>
      </trkpt>
      <trkpt lat="38.2739530" lon="-0.9538160">
        <ele>409.2</ele>
        <time>2020-10-12T06:55:13Z</time>
      </trkpt>
      <trkpt lat="38.2739400" lon="-0.9537270">
        <ele>409.2</ele>
        <time>2020-10-12T06:55:14Z</time>
      </trkpt>
      <trkpt lat="38.2739260" lon="-0.9536400">
        <ele>409.4</ele>
        <time>2020-10-12T06:55:15Z</time>
      </trkpt>
      <trkpt lat="38.2739130" lon="-0.9535530">
        <ele>409.4</ele>
        <time>2020-10-12T06:55:16Z</time>
      </trkpt>
      <trkpt lat="38.2739000" lon="-0.9534660">
        <ele>409.4</ele>
        <time>2020-10-12T06:55:17Z</time>
      </trkpt>
      <trkpt lat="38.2738880" lon="-0.9533800">
        <ele>409.6</ele>
        <time>2020-10-12T06:55:18Z</time>
      </trkpt>
      <trkpt lat="38.2738770" lon="-0.9532930">
        <ele>409.6</ele>
        <time>2020-10-12T06:55:19Z</time>
      </trkpt>
      <trkpt lat="38.2738650" lon="-0.9532070">
        <ele>409.8</ele>
        <time>2020-10-12T06:55:20Z</time>
      </trkpt>
      <trkpt lat="38.2738540" lon="-0.9531220">
        <ele>410.2</ele>
        <time>2020-10-12T06:55:21Z</time>
      </trkpt>
      <trkpt lat="38.2738410" lon="-0.9530400">
        <ele>410.2</ele>
        <time>2020-10-12T06:55:22Z</time>
      </trkpt>
      <trkpt lat="38.2738280" lon="-0.9529560">
        <ele>410.4</ele>
        <time>2020-10-12T06:55:23Z</time>
      </trkpt>
      <trkpt lat="38.2738160" lon="-0.9528730">
        <ele>410.6</ele>
        <time>2020-10-12T06:55:24Z</time>
      </trkpt>
      <trkpt lat="38.2738030" lon="-0.9527870">
        <ele>411.0</ele>
        <time>2020-10-12T06:55:25Z</time>
      </trkpt>
      <trkpt lat="38.2737900" lon="-0.9527000">
        <ele>411.2</ele>
        <time>2020-10-12T06:55:26Z</time>
      </trkpt>
      <trkpt lat="38.2737770" lon="-0.9526130">
        <ele>411.2</ele>
        <time>2020-10-12T06:55:27Z</time>
      </trkpt>
      <trkpt lat="38.2737640" lon="-0.9525250">
        <ele>411.4</ele>
        <time>2020-10-12T06:55:28Z</time>
      </trkpt>
      <trkpt lat="38.2737500" lon="-0.9524380">
        <ele>411.6</ele>
        <time>2020-10-12T06:55:29Z</time>
      </trkpt>
      <trkpt lat="38.2737370" lon="-0.9523500">
        <ele>411.6</ele>
        <time>2020-10-12T06:55:30Z</time>
      </trkpt>
      <trkpt lat="38.2737260" lon="-0.9522630">
        <ele>411.8</ele>
        <time>2020-10-12T06:55:31Z</time>
      </trkpt>
      <trkpt lat="38.2737170" lon="-0.9521760">
        <ele>411.8</ele>
        <time>2020-10-12T06:55:32Z</time>
      </trkpt>
      <trkpt lat="38.2737090" lon="-0.9520920">
        <ele>411.8</ele>
        <time>2020-10-12T06:55:33Z</time>
      </trkpt>
      <trkpt lat="38.2736990" lon="-0.9520070">
        <ele>411.8</ele>
        <time>2020-10-12T06:55:34Z</time>
      </trkpt>
      <trkpt lat="38.2736860" lon="-0.9519210">
        <ele>412.0</ele>
        <time>2020-10-12T06:55:35Z</time>
      </trkpt>
      <trkpt lat="38.2736720" lon="-0.9518370">
        <ele>412.2</ele>
        <time>2020-10-12T06:55:36Z</time>
      </trkpt>
      <trkpt lat="38.2736570" lon="-0.9517510">
        <ele>412.4</ele>
        <time>2020-10-12T06:55:37Z</time>
      </trkpt>
      <trkpt lat="38.2736430" lon="-0.9516660">
        <ele>412.6</ele>
        <time>2020-10-12T06:55:38Z</time>
      </trkpt>
      <trkpt lat="38.2736320" lon="-0.9515780">
        <ele>412.8</ele>
        <time>2020-10-12T06:55:39Z</time>
      </trkpt>
      <trkpt lat="38.2736210" lon="-0.9514920">
        <ele>413.0</ele>
        <time>2020-10-12T06:55:40Z</time>
      </trkpt>
      <trkpt lat="38.2736070" lon="-0.9514050">
        <ele>413.2</ele>
        <time>2020-10-12T06:55:41Z</time>
      </trkpt>
      <trkpt lat="38.2735950" lon="-0.9513190">
        <ele>413.4</ele>
        <time>2020-10-12T06:55:42Z</time>
      </trkpt>
      <trkpt lat="38.2735820" lon="-0.9512290">
        <ele>413.4</ele>
        <time>2020-10-12T06:55:43Z</time>
      </trkpt>
      <trkpt lat="38.2735690" lon="-0.9511330">
        <ele>413.6</ele>
        <time>2020-10-12T06:55:44Z</time>
      </trkpt>
      <trkpt lat="38.2735540" lon="-0.9510330">
        <ele>413.8</ele>
        <time>2020-10-12T06:55:45Z</time>
      </trkpt>
      <trkpt lat="38.2735390" lon="-0.9509330">
        <ele>413.8</ele>
        <time>2020-10-12T06:55:46Z</time>
      </trkpt>
      <trkpt lat="38.2735220" lon="-0.9508350">
        <ele>413.8</ele>
        <time>2020-10-12T06:55:47Z</time>
      </trkpt>
      <trkpt lat="38.2735070" lon="-0.9507350">
        <ele>414.0</ele>
        <time>2020-10-12T06:55:48Z</time>
      </trkpt>
      <trkpt lat="38.2734940" lon="-0.9506370">
        <ele>413.8</ele>
        <time>2020-10-12T06:55:49Z</time>
      </trkpt>
      <trkpt lat="38.2734800" lon="-0.9505390">
        <ele>413.8</ele>
        <time>2020-10-12T06:55:50Z</time>
      </trkpt>
      <trkpt lat="38.2734660" lon="-0.9504410">
        <ele>413.8</ele>
        <time>2020-10-12T06:55:51Z</time>
      </trkpt>
      <trkpt lat="38.2734500" lon="-0.9503400">
        <ele>413.4</ele>
        <time>2020-10-12T06:55:52Z</time>
      </trkpt>
      <trkpt lat="38.2734350" lon="-0.9502420">
        <ele>413.4</ele>
        <time>2020-10-12T06:55:53Z</time>
      </trkpt>
      <trkpt lat="38.2734200" lon="-0.9501440">
        <ele>413.4</ele>
        <time>2020-10-12T06:55:54Z</time>
      </trkpt>
      <trkpt lat="38.2734050" lon="-0.9500470">
        <ele>413.4</ele>
        <time>2020-10-12T06:55:55Z</time>
      </trkpt>
      <trkpt lat="38.2733900" lon="-0.9499510">
        <ele>413.8</ele>
        <time>2020-10-12T06:55:56Z</time>
      </trkpt>
      <trkpt lat="38.2733760" lon="-0.9498540">
        <ele>414.0</ele>
        <time>2020-10-12T06:55:57Z</time>
      </trkpt>
      <trkpt lat="38.2733620" lon="-0.9497580">
        <ele>414.0</ele>
        <time>2020-10-12T06:55:58Z</time>
      </trkpt>
      <trkpt lat="38.2733460" lon="-0.9496620">
        <ele>414.0</ele>
        <time>2020-10-12T06:55:59Z</time>
      </trkpt>
      <trkpt lat="38.2733290" lon="-0.9495690">
        <ele>414.0</ele>
        <time>2020-10-12T06:56:00Z</time>
      </trkpt>
      <trkpt lat="38.2733110" lon="-0.9494760">
        <ele>414.0</ele>
        <time>2020-10-12T06:56:01Z</time>
      </trkpt>
      <trkpt lat="38.2732910" lon="-0.9493830">
        <ele>414.0</ele>
        <time>2020-10-12T06:56:02Z</time>
      </trkpt>
      <trkpt lat="38.2732680" lon="-0.9492920">
        <ele>414.0</ele>
        <time>2020-10-12T06:56:03Z</time>
      </trkpt>
      <trkpt lat="38.2732440" lon="-0.9492030">
        <ele>413.8</ele>
        <time>2020-10-12T06:56:04Z</time>
      </trkpt>
      <trkpt lat="38.2732190" lon="-0.9491150">
        <ele>414.0</ele>
        <time>2020-10-12T06:56:05Z</time>
      </trkpt>
      <trkpt lat="38.2731930" lon="-0.9490260">
        <ele>414.2</ele>
        <time>2020-10-12T06:56:06Z</time>
      </trkpt>
      <trkpt lat="38.2731670" lon="-0.9489360">
        <ele>414.6</ele>
        <time>2020-10-12T06:56:07Z</time>
      </trkpt>
      <trkpt lat="38.2731400" lon="-0.9488460">
        <ele>414.8</ele>
        <time>2020-10-12T06:56:08Z</time>
      </trkpt>
      <trkpt lat="38.2731150" lon="-0.9487550">
        <ele>415.2</ele>
        <time>2020-10-12T06:56:09Z</time>
      </trkpt>
      <trkpt lat="38.2730900" lon="-0.9486650">
        <ele>415.4</ele>
        <time>2020-10-12T06:56:10Z</time>
      </trkpt>
      <trkpt lat="38.2730630" lon="-0.9485760">
        <ele>415.4</ele>
        <time>2020-10-12T06:56:11Z</time>
      </trkpt>
      <trkpt lat="38.2730370" lon="-0.9484860">
        <ele>415.6</ele>
        <time>2020-10-12T06:56:12Z</time>
      </trkpt>
      <trkpt lat="38.2730080" lon="-0.9483980">
        <ele>415.4</ele>
        <time>2020-10-12T06:56:13Z</time>
      </trkpt>
      <trkpt lat="38.2729800" lon="-0.9483080">
        <ele>415.6</ele>
        <time>2020-10-12T06:56:14Z</time>
      </trkpt>
      <trkpt lat="38.2729530" lon="-0.9482170">
        <ele>415.6</ele>
        <time>2020-10-12T06:56:15Z</time>
      </trkpt>
      <trkpt lat="38.2729250" lon="-0.9481270">
        <ele>415.6</ele>
        <time>2020-10-12T06:56:16Z</time>
      </trkpt>
      <trkpt lat="38.2728980" lon="-0.9480380">
        <ele>416.0</ele>
        <time>2020-10-12T06:56:17Z</time>
      </trkpt>
      <trkpt lat="38.2728690" lon="-0.9479460">
        <ele>416.4</ele>
        <time>2020-10-12T06:56:18Z</time>
      </trkpt>
      <trkpt lat="38.2728400" lon="-0.9478560">
        <ele>417.0</ele>
        <time>2020-10-12T06:56:19Z</time>
      </trkpt>
      <trkpt lat="38.2728120" lon="-0.9477650">
        <ele>417.4</ele>
        <time>2020-10-12T06:56:20Z</time>
      </trkpt>
      <trkpt lat="38.2727820" lon="-0.9476750">
        <ele>417.6</ele>
        <time>2020-10-12T06:56:21Z</time>
      </trkpt>
      <trkpt lat="38.2727520" lon="-0.9475830">
        <ele>417.8</ele>
        <time>2020-10-12T06:56:22Z</time>
      </trkpt>
      <trkpt lat="38.2727210" lon="-0.9474910">
        <ele>418.0</ele>
        <time>2020-10-12T06:56:23Z</time>
      </trkpt>
      <trkpt lat="38.2726900" lon="-0.9473990">
        <ele>417.8</ele>
        <time>2020-10-12T06:56:24Z</time>
      </trkpt>
      <trkpt lat="38.2726580" lon="-0.9473060">
        <ele>417.8</ele>
        <time>2020-10-12T06:56:25Z</time>
      </trkpt>
      <trkpt lat="38.2726290" lon="-0.9472140">
        <ele>417.8</ele>
        <time>2020-10-12T06:56:26Z</time>
      </trkpt>
      <trkpt lat="38.2726000" lon="-0.9471220">
        <ele>417.8</ele>
        <time>2020-10-12T06:56:27Z</time>
      </trkpt>
      <trkpt lat="38.2725720" lon="-0.9470320">
        <ele>417.8</ele>
        <time>2020-10-12T06:56:28Z</time>
      </trkpt>
      <trkpt lat="38.2725460" lon="-0.9469450">
        <ele>417.6</ele>
        <time>2020-10-12T06:56:29Z</time>
      </trkpt>
      <trkpt lat="38.2725200" lon="-0.9468630">
        <ele>417.6</ele>
        <time>2020-10-12T06:56:30Z</time>
      </trkpt>
      <trkpt lat="38.2724920" lon="-0.9467800">
        <ele>417.8</ele>
        <time>2020-10-12T06:56:31Z</time>
      </trkpt>
      <trkpt lat="38.2724640" lon="-0.9466980">
        <ele>417.8</ele>
        <time>2020-10-12T06:56:32Z</time>
      </trkpt>
      <trkpt lat="38.2724370" lon="-0.9466180">
        <ele>418.0</ele>
        <time>2020-10-12T06:56:33Z</time>
      </trkpt>
      <trkpt lat="38.2724150" lon="-0.9465370">
        <ele>418.0</ele>
        <time>2020-10-12T06:56:34Z</time>
      </trkpt>
      <trkpt lat="38.2723930" lon="-0.9464570">
        <ele>418.2</ele>
        <time>2020-10-12T06:56:35Z</time>
      </trkpt>
      <trkpt lat="38.2723670" lon="-0.9463820">
        <ele>418.2</ele>
        <time>2020-10-12T06:56:36Z</time>
      </trkpt>
      <trkpt lat="38.2723440" lon="-0.9463110">
        <ele>418.2</ele>
        <time>2020-10-12T06:56:37Z</time>
      </trkpt>
      <trkpt lat="38.2723280" lon="-0.9462480">
        <ele>418.4</ele>
        <time>2020-10-12T06:56:38Z</time>
      </trkpt>
      <trkpt lat="38.2723130" lon="-0.9461890">
        <ele>418.6</ele>
        <time>2020-10-12T06:56:39Z</time>
      </trkpt>
      <trkpt lat="38.2722940" lon="-0.9461370">
        <ele>418.6</ele>
        <time>2020-10-12T06:56:40Z</time>
      </trkpt>
      <trkpt lat="38.2722730" lon="-0.9460850">
        <ele>418.8</ele>
        <time>2020-10-12T06:56:41Z</time>
      </trkpt>
      <trkpt lat="38.2722540" lon="-0.9460250">
        <ele>418.8</ele>
        <time>2020-10-12T06:56:42Z</time>
      </trkpt>
      <trkpt lat="38.2722360" lon="-0.9459610">
        <ele>419.2</ele>
        <time>2020-10-12T06:56:43Z</time>
      </trkpt>
      <trkpt lat="38.2722170" lon="-0.9458990">
        <ele>419.2</ele>
        <time>2020-10-12T06:56:44Z</time>
      </trkpt>
      <trkpt lat="38.2721960" lon="-0.9458380">
        <ele>419.4</ele>
        <time>2020-10-12T06:56:45Z</time>
      </trkpt>
      <trkpt lat="38.2721780" lon="-0.9457790">
        <ele>419.6</ele>
        <time>2020-10-12T06:56:46Z</time>
      </trkpt>
      <trkpt lat="38.2721610" lon="-0.9457190">
        <ele>419.8</ele>
        <time>2020-10-12T06:56:47Z</time>
      </trkpt>
      <trkpt lat="38.2721430" lon="-0.9456620">
        <ele>419.8</ele>
        <time>2020-10-12T06:56:48Z</time>
      </trkpt>
      <trkpt lat="38.2721250" lon="-0.9456030">
        <ele>420.0</ele>
        <time>2020-10-12T06:56:49Z</time>
      </trkpt>
      <trkpt lat="38.2721080" lon="-0.9455440">
        <ele>420.0</ele>
        <time>2020-10-12T06:56:50Z</time>
      </trkpt>
      <trkpt lat="38.2720930" lon="-0.9454900">
        <ele>420.2</ele>
        <time>2020-10-12T06:56:51Z</time>
      </trkpt>
      <trkpt lat="38.2720780" lon="-0.9454360">
        <ele>420.2</ele>
        <time>2020-10-12T06:56:52Z</time>
      </trkpt>
      <trkpt lat="38.2720640" lon="-0.9453750">
        <ele>420.4</ele>
        <time>2020-10-12T06:56:53Z</time>
      </trkpt>
      <trkpt lat="38.2720490" lon="-0.9453140">
        <ele>420.4</ele>
        <time>2020-10-12T06:56:54Z</time>
      </trkpt>
      <trkpt lat="38.2720350" lon="-0.9452510">
        <ele>420.6</ele>
        <time>2020-10-12T06:56:55Z</time>
      </trkpt>
      <trkpt lat="38.2720190" lon="-0.9451910">
        <ele>420.8</ele>
        <time>2020-10-12T06:56:56Z</time>
      </trkpt>
      <trkpt lat="38.2719980" lon="-0.9451320">
        <ele>421.0</ele>
        <time>2020-10-12T06:56:57Z</time>
      </trkpt>
      <trkpt lat="38.2719730" lon="-0.9450760">
        <ele>421.0</ele>
        <time>2020-10-12T06:56:58Z</time>
      </trkpt>
      <trkpt lat="38.2719530" lon="-0.9450200">
        <ele>421.2</ele>
        <time>2020-10-12T06:56:59Z</time>
      </trkpt>
      <trkpt lat="38.2719330" lon="-0.9449580">
        <ele>421.0</ele>
        <time>2020-10-12T06:57:00Z</time>
      </trkpt>
      <trkpt lat="38.2719150" lon="-0.9448970">
        <ele>421.0</ele>
        <time>2020-10-12T06:57:01Z</time>
      </trkpt>
      <trkpt lat="38.2718970" lon="-0.9448370">
        <ele>421.0</ele>
        <time>2020-10-12T06:57:02Z</time>
      </trkpt>
      <trkpt lat="38.2718780" lon="-0.9447760">
        <ele>421.0</ele>
        <time>2020-10-12T06:57:03Z</time>
      </trkpt>
      <trkpt lat="38.2718580" lon="-0.9447170">
        <ele>421.0</ele>
        <time>2020-10-12T06:57:04Z</time>
      </trkpt>
      <trkpt lat="38.2718360" lon="-0.9446560">
        <ele>420.8</ele>
        <time>2020-10-12T06:57:05Z</time>
      </trkpt>
      <trkpt lat="38.2718160" lon="-0.9445940">
        <ele>420.8</ele>
        <time>2020-10-12T06:57:06Z</time>
      </trkpt>
      <trkpt lat="38.2717980" lon="-0.9445320">
        <ele>421.0</ele>
        <time>2020-10-12T06:57:07Z</time>
      </trkpt>
      <trkpt lat="38.2717790" lon="-0.9444680">
        <ele>421.0</ele>
        <time>2020-10-12T06:57:08Z</time>
      </trkpt>
      <trkpt lat="38.2717630" lon="-0.9444060">
        <ele>421.0</ele>
        <time>2020-10-12T06:57:09Z</time>
      </trkpt>
      <trkpt lat="38.2717440" lon="-0.9443360">
        <ele>421.0</ele>
        <time>2020-10-12T06:57:10Z</time>
      </trkpt>
      <trkpt lat="38.2717250" lon="-0.9442720">
        <ele>421.0</ele>
        <time>2020-10-12T06:57:11Z</time>
      </trkpt>
      <trkpt lat="38.2717060" lon="-0.9442160">
        <ele>421.2</ele>
        <time>2020-10-12T06:57:12Z</time>
      </trkpt>
      <trkpt lat="38.2716900" lon="-0.9441620">
        <ele>421.2</ele>
        <time>2020-10-12T06:57:13Z</time>
      </trkpt>
      <trkpt lat="38.2716730" lon="-0.9441040">
        <ele>421.4</ele>
        <time>2020-10-12T06:57:14Z</time>
      </trkpt>
      <trkpt lat="38.2716580" lon="-0.9440480">
        <ele>421.4</ele>
        <time>2020-10-12T06:57:15Z</time>
      </trkpt>
      <trkpt lat="38.2716420" lon="-0.9439930">
        <ele>421.4</ele>
        <time>2020-10-12T06:57:16Z</time>
      </trkpt>
      <trkpt lat="38.2716260" lon="-0.9439370">
        <ele>421.4</ele>
        <time>2020-10-12T06:57:17Z</time>
      </trkpt>
      <trkpt lat="38.2716030" lon="-0.9438770">
        <ele>421.6</ele>
        <time>2020-10-12T06:57:18Z</time>
      </trkpt>
      <trkpt lat="38.2715810" lon="-0.9438160">
        <ele>421.6</ele>
        <time>2020-10-12T06:57:19Z</time>
      </trkpt>
      <trkpt lat="38.2715630" lon="-0.9437610">
        <ele>421.6</ele>
        <time>2020-10-12T06:57:20Z</time>
      </trkpt>
      <trkpt lat="38.2715450" lon="-0.9437020">
        <ele>421.6</ele>
        <time>2020-10-12T06:57:21Z</time>
      </trkpt>
      <trkpt lat="38.2715270" lon="-0.9436470">
        <ele>421.6</ele>
        <time>2020-10-12T06:57:22Z</time>
      </trkpt>
      <trkpt lat="38.2715080" lon="-0.9435900">
        <ele>421.6</ele>
        <time>2020-10-12T06:57:23Z</time>
      </trkpt>
      <trkpt lat="38.2714870" lon="-0.9435270">
        <ele>421.8</ele>
        <time>2020-10-12T06:57:24Z</time>
      </trkpt>
      <trkpt lat="38.2714690" lon="-0.9434670">
        <ele>421.8</ele>
        <time>2020-10-12T06:57:25Z</time>
      </trkpt>
      <trkpt lat="38.2714490" lon="-0.9434050">
        <ele>421.6</ele>
        <time>2020-10-12T06:57:26Z</time>
      </trkpt>
      <trkpt lat="38.2714310" lon="-0.9433390">
        <ele>421.6</ele>
        <time>2020-10-12T06:57:27Z</time>
      </trkpt>
      <trkpt lat="38.2714150" lon="-0.9432710">
        <ele>421.6</ele>
        <time>2020-10-12T06:57:28Z</time>
      </trkpt>
      <trkpt lat="38.2714040" lon="-0.9432080">
        <ele>421.4</ele>
        <time>2020-10-12T06:57:29Z</time>
      </trkpt>
      <trkpt lat="38.2713900" lon="-0.9431430">
        <ele>421.2</ele>
        <time>2020-10-12T06:57:30Z</time>
      </trkpt>
      <trkpt lat="38.2713810" lon="-0.9430780">
        <ele>421.0</ele>
        <time>2020-10-12T06:57:31Z</time>
      </trkpt>
      <trkpt lat="38.2713740" lon="-0.9430110">
        <ele>421.0</ele>
        <time>2020-10-12T06:57:32Z</time>
      </trkpt>
      <trkpt lat="38.2713700" lon="-0.9429430">
        <ele>421.0</ele>
        <time>2020-10-12T06:57:33Z</time>
      </trkpt>
      <trkpt lat="38.2713720" lon="-0.9428790">
        <ele>421.0</ele>
        <time>2020-10-12T06:57:34Z</time>
      </trkpt>
      <trkpt lat="38.2713730" lon="-0.9428160">
        <ele>421.4</ele>
        <time>2020-10-12T06:57:35Z</time>
      </trkpt>
      <trkpt lat="38.2713790" lon="-0.9427550">
        <ele>421.8</ele>
        <time>2020-10-12T06:57:36Z</time>
      </trkpt>
      <trkpt lat="38.2713840" lon="-0.9426920">
        <ele>421.8</ele>
        <time>2020-10-12T06:57:37Z</time>
      </trkpt>
      <trkpt lat="38.2713910" lon="-0.9426270">
        <ele>421.4</ele>
        <time>2020-10-12T06:57:38Z</time>
      </trkpt>
      <trkpt lat="38.2713990" lon="-0.9425640">
        <ele>421.0</ele>
        <time>2020-10-12T06:57:39Z</time>
      </trkpt>
      <trkpt lat="38.2714070" lon="-0.9425010">
        <ele>420.8</ele>
        <time>2020-10-12T06:57:40Z</time>
      </trkpt>
      <trkpt lat="38.2714130" lon="-0.9424380">
        <ele>420.4</ele>
        <time>2020-10-12T06:57:41Z</time>
      </trkpt>
      <trkpt lat="38.2714170" lon="-0.9423700">
        <ele>420.0</ele>
        <time>2020-10-12T06:57:42Z</time>
      </trkpt>
      <trkpt lat="38.2714210" lon="-0.9423030">
        <ele>419.8</ele>
        <time>2020-10-12T06:57:43Z</time>
      </trkpt>
      <trkpt lat="38.2714260" lon="-0.9422350">
        <ele>419.8</ele>
        <time>2020-10-12T06:57:44Z</time>
      </trkpt>
      <trkpt lat="38.2714310" lon="-0.9421660">
        <ele>419.6</ele>
        <time>2020-10-12T06:57:45Z</time>
      </trkpt>
      <trkpt lat="38.2714350" lon="-0.9420970">
        <ele>419.0</ele>
        <time>2020-10-12T06:57:46Z</time>
      </trkpt>
      <trkpt lat="38.2714410" lon="-0.9420320">
        <ele>418.8</ele>
        <time>2020-10-12T06:57:47Z</time>
      </trkpt>
      <trkpt lat="38.2714470" lon="-0.9419700">
        <ele>419.0</ele>
        <time>2020-10-12T06:57:48Z</time>
      </trkpt>
      <trkpt lat="38.2714530" lon="-0.9419060">
        <ele>419.0</ele>
        <time>2020-10-12T06:57:49Z</time>
      </trkpt>
      <trkpt lat="38.2714630" lon="-0.9418420">
        <ele>419.2</ele>
        <time>2020-10-12T06:57:50Z</time>
      </trkpt>
      <trkpt lat="38.2714700" lon="-0.9417730">
        <ele>419.6</ele>
        <time>2020-10-12T06:57:51Z</time>
      </trkpt>
      <trkpt lat="38.2714760" lon="-0.9417060">
        <ele>420.0</ele>
        <time>2020-10-12T06:57:52Z</time>
      </trkpt>
      <trkpt lat="38.2714830" lon="-0.9416410">
        <ele>420.2</ele>
        <time>2020-10-12T06:57:53Z</time>
      </trkpt>
      <trkpt lat="38.2714910" lon="-0.9415790">
        <ele>420.2</ele>
        <time>2020-10-12T06:57:54Z</time>
      </trkpt>
      <trkpt lat="38.2714980" lon="-0.9415150">
        <ele>420.2</ele>
        <time>2020-10-12T06:57:55Z</time>
      </trkpt>
      <trkpt lat="38.2715060" lon="-0.9414520">
        <ele>420.6</ele>
        <time>2020-10-12T06:57:56Z</time>
      </trkpt>
      <trkpt lat="38.2715160" lon="-0.9413880">
        <ele>421.0</ele>
        <time>2020-10-12T06:57:57Z</time>
      </trkpt>
      <trkpt lat="38.2715280" lon="-0.9413230">
        <ele>421.0</ele>
        <time>2020-10-12T06:57:58Z</time>
      </trkpt>
      <trkpt lat="38.2715390" lon="-0.9412590">
        <ele>421.0</ele>
        <time>2020-10-12T06:57:59Z</time>
      </trkpt>
      <trkpt lat="38.2715460" lon="-0.9411930">
        <ele>421.2</ele>
        <time>2020-10-12T06:58:00Z</time>
      </trkpt>
      <trkpt lat="38.2715490" lon="-0.9411290">
        <ele>421.2</ele>
        <time>2020-10-12T06:58:01Z</time>
      </trkpt>
      <trkpt lat="38.2715560" lon="-0.9410670">
        <ele>421.0</ele>
        <time>2020-10-12T06:58:02Z</time>
      </trkpt>
      <trkpt lat="38.2715610" lon="-0.9410010">
        <ele>420.8</ele>
        <time>2020-10-12T06:58:03Z</time>
      </trkpt>
      <trkpt lat="38.2715630" lon="-0.9409310">
        <ele>420.8</ele>
        <time>2020-10-12T06:58:04Z</time>
      </trkpt>
      <trkpt lat="38.2715660" lon="-0.9408620">
        <ele>421.0</ele>
        <time>2020-10-12T06:58:05Z</time>
      </trkpt>
      <trkpt lat="38.2715690" lon="-0.9407940">
        <ele>421.2</ele>
        <time>2020-10-12T06:58:06Z</time>
      </trkpt>
      <trkpt lat="38.2715750" lon="-0.9407270">
        <ele>421.2</ele>
        <time>2020-10-12T06:58:07Z</time>
      </trkpt>
      <trkpt lat="38.2715810" lon="-0.9406630">
        <ele>421.2</ele>
        <time>2020-10-12T06:58:08Z</time>
      </trkpt>
      <trkpt lat="38.2715880" lon="-0.9406010">
        <ele>421.4</ele>
        <time>2020-10-12T06:58:09Z</time>
      </trkpt>
      <trkpt lat="38.2715980" lon="-0.9405380">
        <ele>421.6</ele>
        <time>2020-10-12T06:58:10Z</time>
      </trkpt>
      <trkpt lat="38.2716070" lon="-0.9404760">
        <ele>421.8</ele>
        <time>2020-10-12T06:58:11Z</time>
      </trkpt>
      <trkpt lat="38.2716150" lon="-0.9404080">
        <ele>421.8</ele>
        <time>2020-10-12T06:58:12Z</time>
      </trkpt>
      <trkpt lat="38.2716220" lon="-0.9403400">
        <ele>421.8</ele>
        <time>2020-10-12T06:58:13Z</time>
      </trkpt>
      <trkpt lat="38.2716280" lon="-0.9402700">
        <ele>422.0</ele>
        <time>2020-10-12T06:58:14Z</time>
      </trkpt>
      <trkpt lat="38.2716370" lon="-0.9402030">
        <ele>422.2</ele>
        <time>2020-10-12T06:58:15Z</time>
      </trkpt>
      <trkpt lat="38.2716440" lon="-0.9401330">
        <ele>422.2</ele>
        <time>2020-10-12T06:58:16Z</time>
      </trkpt>
      <trkpt lat="38.2716600" lon="-0.9400680">
        <ele>422.2</ele>
        <time>2020-10-12T06:58:17Z</time>
      </trkpt>
      <trkpt lat="38.2716670" lon="-0.9399990">
        <ele>422.2</ele>
        <time>2020-10-12T06:58:18Z</time>
      </trkpt>
      <trkpt lat="38.2716710" lon="-0.9399300">
        <ele>422.0</ele>
        <time>2020-10-12T06:58:19Z</time>
      </trkpt>
      <trkpt lat="38.2716790" lon="-0.9398630">
        <ele>422.0</ele>
        <time>2020-10-12T06:58:20Z</time>
      </trkpt>
      <trkpt lat="38.2716840" lon="-0.9397940">
        <ele>422.2</ele>
        <time>2020-10-12T06:58:21Z</time>
      </trkpt>
      <trkpt lat="38.2716900" lon="-0.9397230">
        <ele>422.4</ele>
        <time>2020-10-12T06:58:22Z</time>
      </trkpt>
      <trkpt lat="38.2716960" lon="-0.9396500">
        <ele>422.2</ele>
        <time>2020-10-12T06:58:23Z</time>
      </trkpt>
      <trkpt lat="38.2716980" lon="-0.9395750">
        <ele>422.0</ele>
        <time>2020-10-12T06:58:24Z</time>
      </trkpt>
      <trkpt lat="38.2717050" lon="-0.9394980">
        <ele>422.2</ele>
        <time>2020-10-12T06:58:25Z</time>
      </trkpt>
      <trkpt lat="38.2717110" lon="-0.9394200">
        <ele>422.4</ele>
        <time>2020-10-12T06:58:26Z</time>
      </trkpt>
      <trkpt lat="38.2717180" lon="-0.9393400">
        <ele>422.0</ele>
        <time>2020-10-12T06:58:27Z</time>
      </trkpt>
      <trkpt lat="38.2717250" lon="-0.9392590">
        <ele>421.6</ele>
        <time>2020-10-12T06:58:28Z</time>
      </trkpt>
      <trkpt lat="38.2717310" lon="-0.9391740">
        <ele>421.4</ele>
        <time>2020-10-12T06:58:29Z</time>
      </trkpt>
      <trkpt lat="38.2717380" lon="-0.9390890">
        <ele>421.2</ele>
        <time>2020-10-12T06:58:30Z</time>
      </trkpt>
      <trkpt lat="38.2717450" lon="-0.9390080">
        <ele>421.2</ele>
        <time>2020-10-12T06:58:31Z</time>
      </trkpt>
      <trkpt lat="38.2717510" lon="-0.9389260">
        <ele>421.2</ele>
        <time>2020-10-12T06:58:32Z</time>
      </trkpt>
      <trkpt lat="38.2717590" lon="-0.9388440">
        <ele>421.2</ele>
        <time>2020-10-12T06:58:33Z</time>
      </trkpt>
      <trkpt lat="38.2717640" lon="-0.9387620">
        <ele>421.2</ele>
        <time>2020-10-12T06:58:34Z</time>
      </trkpt>
      <trkpt lat="38.2717690" lon="-0.9386810">
        <ele>421.2</ele>
        <time>2020-10-12T06:58:35Z</time>
      </trkpt>
      <trkpt lat="38.2717760" lon="-0.9386030">
        <ele>421.0</ele>
        <time>2020-10-12T06:58:36Z</time>
      </trkpt>
      <trkpt lat="38.2717840" lon="-0.9385260">
        <ele>421.0</ele>
        <time>2020-10-12T06:58:37Z</time>
      </trkpt>
      <trkpt lat="38.2717890" lon="-0.9384500">
        <ele>421.2</ele>
        <time>2020-10-12T06:58:38Z</time>
      </trkpt>
      <trkpt lat="38.2717970" lon="-0.9383770">
        <ele>421.4</ele>
        <time>2020-10-12T06:58:39Z</time>
      </trkpt>
      <trkpt lat="38.2718090" lon="-0.9383030">
        <ele>421.4</ele>
        <time>2020-10-12T06:58:40Z</time>
      </trkpt>
      <trkpt lat="38.2718190" lon="-0.9382270">
        <ele>421.2</ele>
        <time>2020-10-12T06:58:41Z</time>
      </trkpt>
      <trkpt lat="38.2718290" lon="-0.9381490">
        <ele>421.2</ele>
        <time>2020-10-12T06:58:42Z</time>
      </trkpt>
      <trkpt lat="38.2718380" lon="-0.9380690">
        <ele>421.2</ele>
        <time>2020-10-12T06:58:43Z</time>
      </trkpt>
      <trkpt lat="38.2718440" lon="-0.9379910">
        <ele>421.4</ele>
        <time>2020-10-12T06:58:44Z</time>
      </trkpt>
      <trkpt lat="38.2718520" lon="-0.9379130">
        <ele>421.4</ele>
        <time>2020-10-12T06:58:45Z</time>
      </trkpt>
      <trkpt lat="38.2718610" lon="-0.9378350">
        <ele>421.8</ele>
        <time>2020-10-12T06:58:46Z</time>
      </trkpt>
      <trkpt lat="38.2718700" lon="-0.9377600">
        <ele>422.0</ele>
        <time>2020-10-12T06:58:47Z</time>
      </trkpt>
      <trkpt lat="38.2718800" lon="-0.9376880">
        <ele>422.4</ele>
        <time>2020-10-12T06:58:48Z</time>
      </trkpt>
      <trkpt lat="38.2718920" lon="-0.9376120">
        <ele>422.6</ele>
        <time>2020-10-12T06:58:49Z</time>
      </trkpt>
      <trkpt lat="38.2718990" lon="-0.9375370">
        <ele>422.6</ele>
        <time>2020-10-12T06:58:50Z</time>
      </trkpt>
      <trkpt lat="38.2719050" lon="-0.9374630">
        <ele>422.6</ele>
        <time>2020-10-12T06:58:51Z</time>
      </trkpt>
      <trkpt lat="38.2719120" lon="-0.9373900">
        <ele>422.2</ele>
        <time>2020-10-12T06:58:52Z</time>
      </trkpt>
      <trkpt lat="38.2719180" lon="-0.9373130">
        <ele>422.0</ele>
        <time>2020-10-12T06:58:53Z</time>
      </trkpt>
      <trkpt lat="38.2719250" lon="-0.9372350">
        <ele>422.0</ele>
        <time>2020-10-12T06:58:54Z</time>
      </trkpt>
      <trkpt lat="38.2719330" lon="-0.9371550">
        <ele>421.8</ele>
        <time>2020-10-12T06:58:55Z</time>
      </trkpt>
      <trkpt lat="38.2719400" lon="-0.9370730">
        <ele>421.8</ele>
        <time>2020-10-12T06:58:56Z</time>
      </trkpt>
      <trkpt lat="38.2719460" lon="-0.9369890">
        <ele>421.8</ele>
        <time>2020-10-12T06:58:57Z</time>
      </trkpt>
      <trkpt lat="38.2719520" lon="-0.9369040">
        <ele>421.8</ele>
        <time>2020-10-12T06:58:58Z</time>
      </trkpt>
      <trkpt lat="38.2719610" lon="-0.9368190">
        <ele>421.8</ele>
        <time>2020-10-12T06:58:59Z</time>
      </trkpt>
      <trkpt lat="38.2719700" lon="-0.9367330">
        <ele>421.8</ele>
        <time>2020-10-12T06:59:00Z</time>
      </trkpt>
      <trkpt lat="38.2719800" lon="-0.9366460">
        <ele>422.0</ele>
        <time>2020-10-12T06:59:01Z</time>
      </trkpt>
      <trkpt lat="38.2719890" lon="-0.9365580">
        <ele>422.0</ele>
        <time>2020-10-12T06:59:02Z</time>
      </trkpt>
      <trkpt lat="38.2719970" lon="-0.9364700">
        <ele>422.0</ele>
        <time>2020-10-12T06:59:03Z</time>
      </trkpt>
      <trkpt lat="38.2720030" lon="-0.9363820">
        <ele>422.0</ele>
        <time>2020-10-12T06:59:04Z</time>
      </trkpt>
      <trkpt lat="38.2720110" lon="-0.9362930">
        <ele>421.6</ele>
        <time>2020-10-12T06:59:05Z</time>
      </trkpt>
      <trkpt lat="38.2720180" lon="-0.9362040">
        <ele>421.0</ele>
        <time>2020-10-12T06:59:06Z</time>
      </trkpt>
      <trkpt lat="38.2720260" lon="-0.9361150">
        <ele>420.6</ele>
        <time>2020-10-12T06:59:07Z</time>
      </trkpt>
      <trkpt lat="38.2720340" lon="-0.9360270">
        <ele>420.0</ele>
        <time>2020-10-12T06:59:08Z</time>
      </trkpt>
      <trkpt lat="38.2720420" lon="-0.9359370">
        <ele>419.6</ele>
        <time>2020-10-12T06:59:09Z</time>
      </trkpt>
      <trkpt lat="38.2720500" lon="-0.9358460">
        <ele>419.4</ele>
        <time>2020-10-12T06:59:10Z</time>
      </trkpt>
      <trkpt lat="38.2720570" lon="-0.9357550">
        <ele>419.2</ele>
        <time>2020-10-12T06:59:11Z</time>
      </trkpt>
      <trkpt lat="38.2720670" lon="-0.9356610">
        <ele>419.0</ele>
        <time>2020-10-12T06:59:12Z</time>
      </trkpt>
      <trkpt lat="38.2720770" lon="-0.9355700">
        <ele>418.6</ele>
        <time>2020-10-12T06:59:13Z</time>
      </trkpt>
      <trkpt lat="38.2720870" lon="-0.9354780">
        <ele>418.2</ele>
        <time>2020-10-12T06:59:14Z</time>
      </trkpt>
      <trkpt lat="38.2720950" lon="-0.9353850">
        <ele>418.2</ele>
        <time>2020-10-12T06:59:15Z</time>
      </trkpt>
      <trkpt lat="38.2721030" lon="-0.9352940">
        <ele>418.2</ele>
        <time>2020-10-12T06:59:16Z</time>
      </trkpt>
      <trkpt lat="38.2721130" lon="-0.9352020">
        <ele>418.4</ele>
        <time>2020-10-12T06:59:17Z</time>
      </trkpt>
      <trkpt lat="38.2721230" lon="-0.9351100">
        <ele>418.4</ele>
        <time>2020-10-12T06:59:18Z</time>
      </trkpt>
      <trkpt lat="38.2721310" lon="-0.9350200">
        <ele>418.4</ele>
        <time>2020-10-12T06:59:19Z</time>
      </trkpt>
      <trkpt lat="38.2721390" lon="-0.9349300">
        <ele>418.4</ele>
        <time>2020-10-12T06:59:20Z</time>
      </trkpt>
      <trkpt lat="38.2721470" lon="-0.9348380">
        <ele>418.6</ele>
        <time>2020-10-12T06:59:21Z</time>
      </trkpt>
      <trkpt lat="38.2721560" lon="-0.9347470">
        <ele>418.8</ele>
        <time>2020-10-12T06:59:22Z</time>
      </trkpt>
      <trkpt lat="38.2721660" lon="-0.9346550">
        <ele>418.8</ele>
        <time>2020-10-12T06:59:23Z</time>
      </trkpt>
      <trkpt lat="38.2721760" lon="-0.9345570">
        <ele>418.6</ele>
        <time>2020-10-12T06:59:24Z</time>
      </trkpt>
      <trkpt lat="38.2721860" lon="-0.9344610">
        <ele>418.6</ele>
        <time>2020-10-12T06:59:25Z</time>
      </trkpt>
      <trkpt lat="38.2721980" lon="-0.9343710">
        <ele>418.8</ele>
        <time>2020-10-12T06:59:26Z</time>
      </trkpt>
      <trkpt lat="38.2722100" lon="-0.9342810">
        <ele>419.0</ele>
        <time>2020-10-12T06:59:27Z</time>
      </trkpt>
      <trkpt lat="38.2722180" lon="-0.9341900">
        <ele>418.6</ele>
        <time>2020-10-12T06:59:28Z</time>
      </trkpt>
      <trkpt lat="38.2722230" lon="-0.9340990">
        <ele>418.4</ele>
        <time>2020-10-12T06:59:29Z</time>
      </trkpt>
      <trkpt lat="38.2722260" lon="-0.9340070">
        <ele>418.0</ele>
        <time>2020-10-12T06:59:30Z</time>
      </trkpt>
      <trkpt lat="38.2722290" lon="-0.9339110">
        <ele>417.8</ele>
        <time>2020-10-12T06:59:31Z</time>
      </trkpt>
      <trkpt lat="38.2722350" lon="-0.9338150">
        <ele>417.6</ele>
        <time>2020-10-12T06:59:32Z</time>
      </trkpt>
      <trkpt lat="38.2722450" lon="-0.9337170">
        <ele>417.4</ele>
        <time>2020-10-12T06:59:33Z</time>
      </trkpt>
      <trkpt lat="38.2722590" lon="-0.9336170">
        <ele>417.4</ele>
        <time>2020-10-12T06:59:34Z</time>
      </trkpt>
      <trkpt lat="38.2722720" lon="-0.9335170">
        <ele>417.2</ele>
        <time>2020-10-12T06:59:35Z</time>
      </trkpt>
      <trkpt lat="38.2722810" lon="-0.9334190">
        <ele>417.2</ele>
        <time>2020-10-12T06:59:36Z</time>
      </trkpt>
      <trkpt lat="38.2722910" lon="-0.9333210">
        <ele>417.2</ele>
        <time>2020-10-12T06:59:37Z</time>
      </trkpt>
      <trkpt lat="38.2722990" lon="-0.9332250">
        <ele>417.2</ele>
        <time>2020-10-12T06:59:38Z</time>
      </trkpt>
      <trkpt lat="38.2723090" lon="-0.9331290">
        <ele>417.0</ele>
        <time>2020-10-12T06:59:39Z</time>
      </trkpt>
      <trkpt lat="38.2723180" lon="-0.9330350">
        <ele>416.8</ele>
        <time>2020-10-12T06:59:40Z</time>
      </trkpt>
      <trkpt lat="38.2723280" lon="-0.9329410">
        <ele>416.6</ele>
        <time>2020-10-12T06:59:41Z</time>
      </trkpt>
      <trkpt lat="38.2723370" lon="-0.9328480">
        <ele>416.2</ele>
        <time>2020-10-12T06:59:42Z</time>
      </trkpt>
      <trkpt lat="38.2723460" lon="-0.9327570">
        <ele>416.2</ele>
        <time>2020-10-12T06:59:43Z</time>
      </trkpt>
      <trkpt lat="38.2723550" lon="-0.9326650">
        <ele>416.0</ele>
        <time>2020-10-12T06:59:44Z</time>
      </trkpt>
      <trkpt lat="38.2723620" lon="-0.9325750">
        <ele>415.8</ele>
        <time>2020-10-12T06:59:45Z</time>
      </trkpt>
      <trkpt lat="38.2723690" lon="-0.9324860">
        <ele>415.6</ele>
        <time>2020-10-12T06:59:46Z</time>
      </trkpt>
      <trkpt lat="38.2723750" lon="-0.9323960">
        <ele>415.6</ele>
        <time>2020-10-12T06:59:47Z</time>
      </trkpt>
      <trkpt lat="38.2723820" lon="-0.9323120">
        <ele>415.6</ele>
        <time>2020-10-12T06:59:48Z</time>
      </trkpt>
      <trkpt lat="38.2723900" lon="-0.9322240">
        <ele>415.4</ele>
        <time>2020-10-12T06:59:49Z</time>
      </trkpt>
      <trkpt lat="38.2723990" lon="-0.9321300">
        <ele>415.4</ele>
        <time>2020-10-12T06:59:50Z</time>
      </trkpt>
      <trkpt lat="38.2724060" lon="-0.9320380">
        <ele>415.2</ele>
        <time>2020-10-12T06:59:51Z</time>
      </trkpt>
      <trkpt lat="38.2724140" lon="-0.9319470">
        <ele>415.4</ele>
        <time>2020-10-12T06:59:52Z</time>
      </trkpt>
      <trkpt lat="38.2724230" lon="-0.9318550">
        <ele>415.4</ele>
        <time>2020-10-12T06:59:53Z</time>
      </trkpt>
      <trkpt lat="38.2724330" lon="-0.9317620">
        <ele>415.6</ele>
        <time>2020-10-12T06:59:54Z</time>
      </trkpt>
      <trkpt lat="38.2724400" lon="-0.9316730">
        <ele>415.6</ele>
        <time>2020-10-12T06:59:55Z</time>
      </trkpt>
      <trkpt lat="38.2724480" lon="-0.9315820">
        <ele>415.8</ele>
        <time>2020-10-12T06:59:56Z</time>
      </trkpt>
      <trkpt lat="38.2724560" lon="-0.9314940">
        <ele>415.8</ele>
        <time>2020-10-12T06:59:57Z</time>
      </trkpt>
      <trkpt lat="38.2724640" lon="-0.9314040">
        <ele>415.8</ele>
        <time>2020-10-12T06:59:58Z</time>
      </trkpt>
      <trkpt lat="38.2724700" lon="-0.9313160">
        <ele>415.8</ele>
        <time>2020-10-12T06:59:59Z</time>
      </trkpt>
      <trkpt lat="38.2724740" lon="-0.9312270">
        <ele>415.8</ele>
        <time>2020-10-12T07:00:00Z</time>
      </trkpt>
      <trkpt lat="38.2724830" lon="-0.9311350">
        <ele>415.4</ele>
        <time>2020-10-12T07:00:01Z</time>
      </trkpt>
      <trkpt lat="38.2724900" lon="-0.9310470">
        <ele>415.2</ele>
        <time>2020-10-12T07:00:02Z</time>
      </trkpt>
      <trkpt lat="38.2725000" lon="-0.9309590">
        <ele>414.8</ele>
        <time>2020-10-12T07:00:03Z</time>
      </trkpt>
      <trkpt lat="38.2725080" lon="-0.9308740">
        <ele>414.6</ele>
        <time>2020-10-12T07:00:04Z</time>
      </trkpt>
      <trkpt lat="38.2725190" lon="-0.9307890">
        <ele>414.4</ele>
        <time>2020-10-12T07:00:05Z</time>
      </trkpt>
      <trkpt lat="38.2725310" lon="-0.9307060">
        <ele>414.2</ele>
        <time>2020-10-12T07:00:06Z</time>
      </trkpt>
      <trkpt lat="38.2725460" lon="-0.9306250">
        <ele>414.2</ele>
        <time>2020-10-12T07:00:07Z</time>
      </trkpt>
      <trkpt lat="38.2725680" lon="-0.9305480">
        <ele>414.2</ele>
        <time>2020-10-12T07:00:08Z</time>
      </trkpt>
      <trkpt lat="38.2725920" lon="-0.9304740">
        <ele>414.2</ele>
        <time>2020-10-12T07:00:09Z</time>
      </trkpt>
      <trkpt lat="38.2726210" lon="-0.9304030">
        <ele>414.4</ele>
        <time>2020-10-12T07:00:10Z</time>
      </trkpt>
      <trkpt lat="38.2726560" lon="-0.9303340">
        <ele>414.6</ele>
        <time>2020-10-12T07:00:11Z</time>
      </trkpt>
      <trkpt lat="38.2726950" lon="-0.9302660">
        <ele>414.8</ele>
        <time>2020-10-12T07:00:12Z</time>
      </trkpt>
      <trkpt lat="38.2727310" lon="-0.9301930">
        <ele>415.0</ele>
        <time>2020-10-12T07:00:13Z</time>
      </trkpt>
      <trkpt lat="38.2727650" lon="-0.9301160">
        <ele>415.0</ele>
        <time>2020-10-12T07:00:14Z</time>
      </trkpt>
      <trkpt lat="38.2728040" lon="-0.9300420">
        <ele>415.0</ele>
        <time>2020-10-12T07:00:15Z</time>
      </trkpt>
      <trkpt lat="38.2728440" lon="-0.9299790">
        <ele>415.0</ele>
        <time>2020-10-12T07:00:16Z</time>
      </trkpt>
      <trkpt lat="38.2728750" lon="-0.9299110">
        <ele>414.8</ele>
        <time>2020-10-12T07:00:17Z</time>
      </trkpt>
      <trkpt lat="38.2729050" lon="-0.9298390">
        <ele>414.8</ele>
        <time>2020-10-12T07:00:18Z</time>
      </trkpt>
      <trkpt lat="38.2729350" lon="-0.9297700">
        <ele>414.8</ele>
        <time>2020-10-12T07:00:19Z</time>
      </trkpt>
      <trkpt lat="38.2729610" lon="-0.9296980">
        <ele>414.8</ele>
        <time>2020-10-12T07:00:20Z</time>
      </trkpt>
      <trkpt lat="38.2729880" lon="-0.9296240">
        <ele>414.6</ele>
        <time>2020-10-12T07:00:21Z</time>
      </trkpt>
      <trkpt lat="38.2730180" lon="-0.9295540">
        <ele>414.2</ele>
        <time>2020-10-12T07:00:22Z</time>
      </trkpt>
      <trkpt lat="38.2730550" lon="-0.9294880">
        <ele>414.4</ele>
        <time>2020-10-12T07:00:23Z</time>
      </trkpt>
      <trkpt lat="38.2730850" lon="-0.9294180">
        <ele>414.4</ele>
        <time>2020-10-12T07:00:24Z</time>
      </trkpt>
      <trkpt lat="38.2731180" lon="-0.9293520">
        <ele>414.4</ele>
        <time>2020-10-12T07:00:25Z</time>
      </trkpt>
      <trkpt lat="38.2731480" lon="-0.9292850">
        <ele>414.4</ele>
        <time>2020-10-12T07:00:26Z</time>
      </trkpt>
      <trkpt lat="38.2731770" lon="-0.9292110">
        <ele>414.6</ele>
        <time>2020-10-12T07:00:27Z</time>
      </trkpt>
      <trkpt lat="38.2732100" lon="-0.9291450">
        <ele>414.6</ele>
        <time>2020-10-12T07:00:28Z</time>
      </trkpt>
      <trkpt lat="38.2732410" lon="-0.9290770">
        <ele>414.6</ele>
        <time>2020-10-12T07:00:29Z</time>
      </trkpt>
      <trkpt lat="38.2732690" lon="-0.9290080">
        <ele>414.6</ele>
        <time>2020-10-12T07:00:30Z</time>
      </trkpt>
      <trkpt lat="38.2733040" lon="-0.9289400">
        <ele>414.8</ele>
        <time>2020-10-12T07:00:31Z</time>
      </trkpt>
      <trkpt lat="38.2733310" lon="-0.9288750">
        <ele>415.0</ele>
        <time>2020-10-12T07:00:32Z</time>
      </trkpt>
      <trkpt lat="38.2733580" lon="-0.9288120">
        <ele>415.0</ele>
        <time>2020-10-12T07:00:33Z</time>
      </trkpt>
      <trkpt lat="38.2733830" lon="-0.9287500">
        <ele>414.8</ele>
        <time>2020-10-12T07:00:34Z</time>
      </trkpt>
      <trkpt lat="38.2734070" lon="-0.9286880">
        <ele>414.8</ele>
        <time>2020-10-12T07:00:35Z</time>
      </trkpt>
      <trkpt lat="38.2734330" lon="-0.9286310">
        <ele>414.8</ele>
        <time>2020-10-12T07:00:36Z</time>
      </trkpt>
      <trkpt lat="38.2734530" lon="-0.9285740">
        <ele>414.6</ele>
        <time>2020-10-12T07:00:37Z</time>
      </trkpt>
      <trkpt lat="38.2734740" lon="-0.9285130">
        <ele>414.4</ele>
        <time>2020-10-12T07:00:38Z</time>
      </trkpt>
      <trkpt lat="38.2734970" lon="-0.9284500">
        <ele>414.2</ele>
        <time>2020-10-12T07:00:39Z</time>
      </trkpt>
      <trkpt lat="38.2735200" lon="-0.9283890">
        <ele>414.2</ele>
        <time>2020-10-12T07:00:40Z</time>
      </trkpt>
      <trkpt lat="38.2735370" lon="-0.9283350">
        <ele>414.0</ele>
        <time>2020-10-12T07:00:41Z</time>
      </trkpt>
      <trkpt lat="38.2735490" lon="-0.9282840">
        <ele>414.0</ele>
        <time>2020-10-12T07:00:42Z</time>
      </trkpt>
      <trkpt lat="38.2735680" lon="-0.9282340">
        <ele>414.0</ele>
        <time>2020-10-12T07:00:43Z</time>
      </trkpt>
      <trkpt lat="38.2735880" lon="-0.9281820">
        <ele>414.0</ele>
        <time>2020-10-12T07:00:44Z</time>
      </trkpt>
      <trkpt lat="38.2736040" lon="-0.9281260">
        <ele>414.2</ele>
        <time>2020-10-12T07:00:45Z</time>
      </trkpt>
      <trkpt lat="38.2736180" lon="-0.9280720">
        <ele>414.2</ele>
        <time>2020-10-12T07:00:46Z</time>
      </trkpt>
      <trkpt lat="38.2736410" lon="-0.9280260">
        <ele>414.0</ele>
        <time>2020-10-12T07:00:47Z</time>
      </trkpt>
      <trkpt lat="38.2736550" lon="-0.9279700">
        <ele>414.0</ele>
        <time>2020-10-12T07:00:48Z</time>
      </trkpt>
      <trkpt lat="38.2736690" lon="-0.9279130">
        <ele>414.0</ele>
        <time>2020-10-12T07:00:49Z</time>
      </trkpt>
      <trkpt lat="38.2736940" lon="-0.9278360">
        <ele>413.8</ele>
        <time>2020-10-12T07:00:50Z</time>
      </trkpt>
      <trkpt lat="38.2737200" lon="-0.9277610">
        <ele>413.8</ele>
        <time>2020-10-12T07:00:51Z</time>
      </trkpt>
      <trkpt lat="38.2737470" lon="-0.9276870">
        <ele>413.8</ele>
        <time>2020-10-12T07:00:52Z</time>
      </trkpt>
      <trkpt lat="38.2737710" lon="-0.9276080">
        <ele>413.8</ele>
        <time>2020-10-12T07:00:53Z</time>
      </trkpt>
      <trkpt lat="38.2737940" lon="-0.9275280">
        <ele>413.8</ele>
        <time>2020-10-12T07:00:54Z</time>
      </trkpt>
      <trkpt lat="38.2738140" lon="-0.9274470">
        <ele>414.2</ele>
        <time>2020-10-12T07:00:55Z</time>
      </trkpt>
      <trkpt lat="38.2738390" lon="-0.9273660">
        <ele>414.8</ele>
        <time>2020-10-12T07:00:56Z</time>
      </trkpt>
      <trkpt lat="38.2738560" lon="-0.9272880">
        <ele>415.0</ele>
        <time>2020-10-12T07:00:57Z</time>
      </trkpt>
      <trkpt lat="38.2738700" lon="-0.9272010">
        <ele>414.8</ele>
        <time>2020-10-12T07:00:58Z</time>
      </trkpt>
      <trkpt lat="38.2738870" lon="-0.9271130">
        <ele>414.2</ele>
        <time>2020-10-12T07:00:59Z</time>
      </trkpt>
      <trkpt lat="38.2739090" lon="-0.9270350">
        <ele>413.6</ele>
        <time>2020-10-12T07:01:00Z</time>
      </trkpt>
      <trkpt lat="38.2739350" lon="-0.9269600">
        <ele>412.4</ele>
        <time>2020-10-12T07:01:01Z</time>
      </trkpt>
      <trkpt lat="38.2739610" lon="-0.9268890">
        <ele>411.8</ele>
        <time>2020-10-12T07:01:02Z</time>
      </trkpt>
      <trkpt lat="38.2739860" lon="-0.9268120">
        <ele>411.4</ele>
        <time>2020-10-12T07:01:03Z</time>
      </trkpt>
      <trkpt lat="38.2740100" lon="-0.9267310">
        <ele>411.2</ele>
        <time>2020-10-12T07:01:04Z</time>
      </trkpt>
      <trkpt lat="38.2740310" lon="-0.9266540">
        <ele>411.0</ele>
        <time>2020-10-12T07:01:05Z</time>
      </trkpt>
      <trkpt lat="38.2740500" lon="-0.9265860">
        <ele>411.0</ele>
        <time>2020-10-12T07:01:06Z</time>
      </trkpt>
      <trkpt lat="38.2740690" lon="-0.9265150">
        <ele>410.8</ele>
        <time>2020-10-12T07:01:07Z</time>
      </trkpt>
      <trkpt lat="38.2740850" lon="-0.9264430">
        <ele>411.0</ele>
        <time>2020-10-12T07:01:08Z</time>
      </trkpt>
      <trkpt lat="38.2741020" lon="-0.9263730">
        <ele>411.0</ele>
        <time>2020-10-12T07:01:09Z</time>
      </trkpt>
      <trkpt lat="38.2741240" lon="-0.9262950">
        <ele>411.2</ele>
        <time>2020-10-12T07:01:10Z</time>
      </trkpt>
      <trkpt lat="38.2741440" lon="-0.9262170">
        <ele>411.2</ele>
        <time>2020-10-12T07:01:11Z</time>
      </trkpt>
      <trkpt lat="38.2741600" lon="-0.9261400">
        <ele>411.2</ele>
        <time>2020-10-12T07:01:12Z</time>
      </trkpt>
      <trkpt lat="38.2741780" lon="-0.9260620">
        <ele>411.4</ele>
        <time>2020-10-12T07:01:13Z</time>
      </trkpt>
      <trkpt lat="38.2741970" lon="-0.9259840">
        <ele>411.6</ele>
        <time>2020-10-12T07:01:14Z</time>
      </trkpt>
      <trkpt lat="38.2742210" lon="-0.9259050">
        <ele>411.6</ele>
        <time>2020-10-12T07:01:15Z</time>
      </trkpt>
      <trkpt lat="38.2742430" lon="-0.9258260">
        <ele>411.4</ele>
        <time>2020-10-12T07:01:16Z</time>
      </trkpt>
      <trkpt lat="38.2742670" lon="-0.9257420">
        <ele>411.2</ele>
        <time>2020-10-12T07:01:17Z</time>
      </trkpt>
      <trkpt lat="38.2742900" lon="-0.9256580">
        <ele>411.4</ele>
        <time>2020-10-12T07:01:18Z</time>
      </trkpt>
      <trkpt lat="38.2743150" lon="-0.9255790">
        <ele>411.2</ele>
        <time>2020-10-12T07:01:19Z</time>
      </trkpt>
      <trkpt lat="38.2743410" lon="-0.9254970">
        <ele>411.0</ele>
        <time>2020-10-12T07:01:20Z</time>
      </trkpt>
      <trkpt lat="38.2743640" lon="-0.9254120">
        <ele>411.0</ele>
        <time>2020-10-12T07:01:21Z</time>
      </trkpt>
      <trkpt lat="38.2743850" lon="-0.9253320">
        <ele>411.0</ele>
        <time>2020-10-12T07:01:22Z</time>
      </trkpt>
      <trkpt lat="38.2744070" lon="-0.9252520">
        <ele>411.0</ele>
        <time>2020-10-12T07:01:23Z</time>
      </trkpt>
      <trkpt lat="38.2744300" lon="-0.9251720">
        <ele>411.2</ele>
        <time>2020-10-12T07:01:24Z</time>
      </trkpt>
      <trkpt lat="38.2744520" lon="-0.9250950">
        <ele>411.2</ele>
        <time>2020-10-12T07:01:25Z</time>
      </trkpt>
      <trkpt lat="38.2744760" lon="-0.9250180">
        <ele>411.4</ele>
        <time>2020-10-12T07:01:26Z</time>
      </trkpt>
      <trkpt lat="38.2745000" lon="-0.9249370">
        <ele>411.4</ele>
        <time>2020-10-12T07:01:27Z</time>
      </trkpt>
      <trkpt lat="38.2745290" lon="-0.9248570">
        <ele>411.6</ele>
        <time>2020-10-12T07:01:28Z</time>
      </trkpt>
      <trkpt lat="38.2745580" lon="-0.9247730">
        <ele>411.6</ele>
        <time>2020-10-12T07:01:29Z</time>
      </trkpt>
      <trkpt lat="38.2745850" lon="-0.9246900">
        <ele>411.4</ele>
        <time>2020-10-12T07:01:30Z</time>
      </trkpt>
      <trkpt lat="38.2746110" lon="-0.9246050">
        <ele>411.4</ele>
        <time>2020-10-12T07:01:31Z</time>
      </trkpt>
      <trkpt lat="38.2746360" lon="-0.9245200">
        <ele>411.2</ele>
        <time>2020-10-12T07:01:32Z</time>
      </trkpt>
      <trkpt lat="38.2746610" lon="-0.9244350">
        <ele>411.2</ele>
        <time>2020-10-12T07:01:33Z</time>
      </trkpt>
      <trkpt lat="38.2746860" lon="-0.9243480">
        <ele>411.2</ele>
        <time>2020-10-12T07:01:34Z</time>
      </trkpt>
      <trkpt lat="38.2747090" lon="-0.9242620">
        <ele>411.4</ele>
        <time>2020-10-12T07:01:35Z</time>
      </trkpt>
      <trkpt lat="38.2747330" lon="-0.9241770">
        <ele>411.6</ele>
        <time>2020-10-12T07:01:36Z</time>
      </trkpt>
      <trkpt lat="38.2747570" lon="-0.9240890">
        <ele>411.6</ele>
        <time>2020-10-12T07:01:37Z</time>
      </trkpt>
      <trkpt lat="38.2747830" lon="-0.9239990">
        <ele>411.6</ele>
        <time>2020-10-12T07:01:38Z</time>
      </trkpt>
      <trkpt lat="38.2748080" lon="-0.9239100">
        <ele>411.2</ele>
        <time>2020-10-12T07:01:39Z</time>
      </trkpt>
      <trkpt lat="38.2748340" lon="-0.9238220">
        <ele>410.6</ele>
        <time>2020-10-12T07:01:40Z</time>
      </trkpt>
      <trkpt lat="38.2748600" lon="-0.9237310">
        <ele>410.4</ele>
        <time>2020-10-12T07:01:41Z</time>
      </trkpt>
      <trkpt lat="38.2748860" lon="-0.9236440">
        <ele>410.2</ele>
        <time>2020-10-12T07:01:42Z</time>
      </trkpt>
      <trkpt lat="38.2749170" lon="-0.9235600">
        <ele>410.4</ele>
        <time>2020-10-12T07:01:43Z</time>
      </trkpt>
      <trkpt lat="38.2749510" lon="-0.9234810">
        <ele>410.2</ele>
        <time>2020-10-12T07:01:44Z</time>
      </trkpt>
      <trkpt lat="38.2749870" lon="-0.9234050">
        <ele>410.4</ele>
        <time>2020-10-12T07:01:45Z</time>
      </trkpt>
      <trkpt lat="38.2750290" lon="-0.9233270">
        <ele>410.4</ele>
        <time>2020-10-12T07:01:46Z</time>
      </trkpt>
      <trkpt lat="38.2750740" lon="-0.9232560">
        <ele>410.4</ele>
        <time>2020-10-12T07:01:47Z</time>
      </trkpt>
      <trkpt lat="38.2751190" lon="-0.9231950">
        <ele>410.4</ele>
        <time>2020-10-12T07:01:48Z</time>
      </trkpt>
      <trkpt lat="38.2751650" lon="-0.9231410">
        <ele>410.6</ele>
        <time>2020-10-12T07:01:49Z</time>
      </trkpt>
      <trkpt lat="38.2752190" lon="-0.9230860">
        <ele>411.2</ele>
        <time>2020-10-12T07:01:50Z</time>
      </trkpt>
      <trkpt lat="38.2752740" lon="-0.9230330">
        <ele>412.2</ele>
        <time>2020-10-12T07:01:51Z</time>
      </trkpt>
      <trkpt lat="38.2753290" lon="-0.9229800">
        <ele>413.2</ele>
        <time>2020-10-12T07:01:52Z</time>
      </trkpt>
      <trkpt lat="38.2753840" lon="-0.9229300">
        <ele>413.8</ele>
        <time>2020-10-12T07:01:53Z</time>
      </trkpt>
      <trkpt lat="38.2754360" lon="-0.9228800">
        <ele>414.2</ele>
        <time>2020-10-12T07:01:54Z</time>
      </trkpt>
      <trkpt lat="38.2754900" lon="-0.9228330">
        <ele>414.2</ele>
        <time>2020-10-12T07:01:55Z</time>
      </trkpt>
      <trkpt lat="38.2755480" lon="-0.9227860">
        <ele>414.2</ele>
        <time>2020-10-12T07:01:56Z</time>
      </trkpt>
      <trkpt lat="38.2756030" lon="-0.9227290">
        <ele>414.2</ele>
        <time>2020-10-12T07:01:57Z</time>
      </trkpt>
      <trkpt lat="38.2756580" lon="-0.9226760">
        <ele>414.0</ele>
        <time>2020-10-12T07:01:58Z</time>
      </trkpt>
      <trkpt lat="38.2757150" lon="-0.9226200">
        <ele>413.8</ele>
        <time>2020-10-12T07:01:59Z</time>
      </trkpt>
      <trkpt lat="38.2757710" lon="-0.9225660">
        <ele>413.6</ele>
        <time>2020-10-12T07:02:00Z</time>
      </trkpt>
      <trkpt lat="38.2758270" lon="-0.9225100">
        <ele>413.4</ele>
        <time>2020-10-12T07:02:01Z</time>
      </trkpt>
      <trkpt lat="38.2758800" lon="-0.9224570">
        <ele>413.2</ele>
        <time>2020-10-12T07:02:02Z</time>
      </trkpt>
      <trkpt lat="38.2759300" lon="-0.9224050">
        <ele>413.2</ele>
        <time>2020-10-12T07:02:03Z</time>
      </trkpt>
      <trkpt lat="38.2759800" lon="-0.9223580">
        <ele>413.0</ele>
        <time>2020-10-12T07:02:04Z</time>
      </trkpt>
      <trkpt lat="38.2760300" lon="-0.9223100">
        <ele>413.0</ele>
        <time>2020-10-12T07:02:05Z</time>
      </trkpt>
      <trkpt lat="38.2760780" lon="-0.9222650">
        <ele>413.0</ele>
        <time>2020-10-12T07:02:06Z</time>
      </trkpt>
      <trkpt lat="38.2761260" lon="-0.9222200">
        <ele>413.0</ele>
        <time>2020-10-12T07:02:07Z</time>
      </trkpt>
      <trkpt lat="38.2761750" lon="-0.9221750">
        <ele>413.0</ele>
        <time>2020-10-12T07:02:08Z</time>
      </trkpt>
      <trkpt lat="38.2762210" lon="-0.9221300">
        <ele>413.2</ele>
        <time>2020-10-12T07:02:09Z</time>
      </trkpt>
      <trkpt lat="38.2762700" lon="-0.9220800">
        <ele>413.4</ele>
        <time>2020-10-12T07:02:10Z</time>
      </trkpt>
      <trkpt lat="38.2763200" lon="-0.9220330">
        <ele>413.4</ele>
        <time>2020-10-12T07:02:11Z</time>
      </trkpt>
      <trkpt lat="38.2763700" lon="-0.9219820">
        <ele>413.6</ele>
        <time>2020-10-12T07:02:12Z</time>
      </trkpt>
      <trkpt lat="38.2764180" lon="-0.9219360">
        <ele>413.6</ele>
        <time>2020-10-12T07:02:13Z</time>
      </trkpt>
      <trkpt lat="38.2764670" lon="-0.9218900">
        <ele>413.6</ele>
        <time>2020-10-12T07:02:14Z</time>
      </trkpt>
      <trkpt lat="38.2765150" lon="-0.9218410">
        <ele>413.8</ele>
        <time>2020-10-12T07:02:15Z</time>
      </trkpt>
      <trkpt lat="38.2765640" lon="-0.9217960">
        <ele>414.0</ele>
        <time>2020-10-12T07:02:16Z</time>
      </trkpt>
      <trkpt lat="38.2766120" lon="-0.9217480">
        <ele>414.2</ele>
        <time>2020-10-12T07:02:17Z</time>
      </trkpt>
      <trkpt lat="38.2766590" lon="-0.9216980">
        <ele>414.6</ele>
        <time>2020-10-12T07:02:18Z</time>
      </trkpt>
      <trkpt lat="38.2767100" lon="-0.9216520">
        <ele>414.8</ele>
        <time>2020-10-12T07:02:19Z</time>
      </trkpt>
      <trkpt lat="38.2767620" lon="-0.9216050">
        <ele>415.0</ele>
        <time>2020-10-12T07:02:20Z</time>
      </trkpt>
      <trkpt lat="38.2768120" lon="-0.9215560">
        <ele>415.4</ele>
        <time>2020-10-12T07:02:21Z</time>
      </trkpt>
      <trkpt lat="38.2768640" lon="-0.9215060">
        <ele>415.6</ele>
        <time>2020-10-12T07:02:22Z</time>
      </trkpt>
      <trkpt lat="38.2769120" lon="-0.9214550">
        <ele>415.8</ele>
        <time>2020-10-12T07:02:23Z</time>
      </trkpt>
      <trkpt lat="38.2769630" lon="-0.9214040">
        <ele>415.8</ele>
        <time>2020-10-12T07:02:24Z</time>
      </trkpt>
      <trkpt lat="38.2770130" lon="-0.9213530">
        <ele>415.8</ele>
        <time>2020-10-12T07:02:25Z</time>
      </trkpt>
      <trkpt lat="38.2770610" lon="-0.9213030">
        <ele>415.8</ele>
        <time>2020-10-12T07:02:26Z</time>
      </trkpt>
      <trkpt lat="38.2771130" lon="-0.9212520">
        <ele>415.8</ele>
        <time>2020-10-12T07:02:27Z</time>
      </trkpt>
      <trkpt lat="38.2771630" lon="-0.9212010">
        <ele>415.8</ele>
        <time>2020-10-12T07:02:28Z</time>
      </trkpt>
      <trkpt lat="38.2772160" lon="-0.9211520">
        <ele>415.6</ele>
        <time>2020-10-12T07:02:29Z</time>
      </trkpt>
      <trkpt lat="38.2772700" lon="-0.9211040">
        <ele>415.2</ele>
        <time>2020-10-12T07:02:30Z</time>
      </trkpt>
      <trkpt lat="38.2773220" lon="-0.9210560">
        <ele>414.8</ele>
        <time>2020-10-12T07:02:31Z</time>
      </trkpt>
      <trkpt lat="38.2773740" lon="-0.9210080">
        <ele>414.4</ele>
        <time>2020-10-12T07:02:32Z</time>
      </trkpt>
      <trkpt lat="38.2774250" lon="-0.9209590">
        <ele>414.2</ele>
        <time>2020-10-12T07:02:33Z</time>
      </trkpt>
      <trkpt lat="38.2774760" lon="-0.9209100">
        <ele>414.2</ele>
        <time>2020-10-12T07:02:34Z</time>
      </trkpt>
      <trkpt lat="38.2775280" lon="-0.9208600">
        <ele>414.4</ele>
        <time>2020-10-12T07:02:35Z</time>
      </trkpt>
      <trkpt lat="38.2775810" lon="-0.9208090">
        <ele>414.2</ele>
        <time>2020-10-12T07:02:36Z</time>
      </trkpt>
      <trkpt lat="38.2776330" lon="-0.9207590">
        <ele>414.2</ele>
        <time>2020-10-12T07:02:37Z</time>
      </trkpt>
      <trkpt lat="38.2776840" lon="-0.9207090">
        <ele>414.2</ele>
        <time>2020-10-12T07:02:38Z</time>
      </trkpt>
      <trkpt lat="38.2777340" lon="-0.9206600">
        <ele>414.4</ele>
        <time>2020-10-12T07:02:39Z</time>
      </trkpt>
      <trkpt lat="38.2777880" lon="-0.9206120">
        <ele>414.4</ele>
        <time>2020-10-12T07:02:40Z</time>
      </trkpt>
      <trkpt lat="38.2778410" lon="-0.9205630">
        <ele>414.6</ele>
        <time>2020-10-12T07:02:41Z</time>
      </trkpt>
      <trkpt lat="38.2778920" lon="-0.9205150">
        <ele>414.6</ele>
        <time>2020-10-12T07:02:42Z</time>
      </trkpt>
      <trkpt lat="38.2779420" lon="-0.9204640">
        <ele>414.6</ele>
        <time>2020-10-12T07:02:43Z</time>
      </trkpt>
      <trkpt lat="38.2779930" lon="-0.9204110">
        <ele>414.6</ele>
        <time>2020-10-12T07:02:44Z</time>
      </trkpt>
      <trkpt lat="38.2780450" lon="-0.9203580">
        <ele>414.8</ele>
        <time>2020-10-12T07:02:45Z</time>
      </trkpt>
      <trkpt lat="38.2780980" lon="-0.9203080">
        <ele>414.8</ele>
        <time>2020-10-12T07:02:46Z</time>
      </trkpt>
      <trkpt lat="38.2781520" lon="-0.9202580">
        <ele>415.0</ele>
        <time>2020-10-12T07:02:47Z</time>
      </trkpt>
      <trkpt lat="38.2782050" lon="-0.9202050">
        <ele>415.2</ele>
        <time>2020-10-12T07:02:48Z</time>
      </trkpt>
      <trkpt lat="38.2782590" lon="-0.9201520">
        <ele>415.4</ele>
        <time>2020-10-12T07:02:49Z</time>
      </trkpt>
      <trkpt lat="38.2783130" lon="-0.9201000">
        <ele>415.8</ele>
        <time>2020-10-12T07:02:50Z</time>
      </trkpt>
      <trkpt lat="38.2783670" lon="-0.9200470">
        <ele>415.8</ele>
        <time>2020-10-12T07:02:51Z</time>
      </trkpt>
      <trkpt lat="38.2784200" lon="-0.9199950">
        <ele>415.8</ele>
        <time>2020-10-12T07:02:52Z</time>
      </trkpt>
      <trkpt lat="38.2784730" lon="-0.9199420">
        <ele>415.8</ele>
        <time>2020-10-12T07:02:53Z</time>
      </trkpt>
      <trkpt lat="38.2785280" lon="-0.9198890">
        <ele>415.8</ele>
        <time>2020-10-12T07:02:54Z</time>
      </trkpt>
      <trkpt lat="38.2785820" lon="-0.9198370">
        <ele>415.8</ele>
        <time>2020-10-12T07:02:55Z</time>
      </trkpt>
      <trkpt lat="38.2786360" lon="-0.9197850">
        <ele>415.8</ele>
        <time>2020-10-12T07:02:56Z</time>
      </trkpt>
      <trkpt lat="38.2786890" lon="-0.9197330">
        <ele>415.6</ele>
        <time>2020-10-12T07:02:57Z</time>
      </trkpt>
      <trkpt lat="38.2787430" lon="-0.9196820">
        <ele>415.4</ele>
        <time>2020-10-12T07:02:58Z</time>
      </trkpt>
      <trkpt lat="38.2787970" lon="-0.9196310">
        <ele>415.4</ele>
        <time>2020-10-12T07:02:59Z</time>
      </trkpt>
      <trkpt lat="38.2788500" lon="-0.9195800">
        <ele>415.4</ele>
        <time>2020-10-12T07:03:00Z</time>
      </trkpt>
      <trkpt lat="38.2789020" lon="-0.9195280">
        <ele>415.6</ele>
        <time>2020-10-12T07:03:01Z</time>
      </trkpt>
      <trkpt lat="38.2789530" lon="-0.9194770">
        <ele>415.6</ele>
        <time>2020-10-12T07:03:02Z</time>
      </trkpt>
      <trkpt lat="38.2790050" lon="-0.9194260">
        <ele>415.6</ele>
        <time>2020-10-12T07:03:03Z</time>
      </trkpt>
      <trkpt lat="38.2790570" lon="-0.9193730">
        <ele>415.6</ele>
        <time>2020-10-12T07:03:04Z</time>
      </trkpt>
      <trkpt lat="38.2791070" lon="-0.9193210">
        <ele>415.8</ele>
        <time>2020-10-12T07:03:05Z</time>
      </trkpt>
      <trkpt lat="38.2791580" lon="-0.9192680">
        <ele>416.0</ele>
        <time>2020-10-12T07:03:06Z</time>
      </trkpt>
      <trkpt lat="38.2792090" lon="-0.9192150">
        <ele>416.2</ele>
        <time>2020-10-12T07:03:07Z</time>
      </trkpt>
      <trkpt lat="38.2792620" lon="-0.9191630">
        <ele>416.4</ele>
        <time>2020-10-12T07:03:08Z</time>
      </trkpt>
      <trkpt lat="38.2793160" lon="-0.9191090">
        <ele>416.6</ele>
        <time>2020-10-12T07:03:09Z</time>
      </trkpt>
      <trkpt lat="38.2793700" lon="-0.9190560">
        <ele>416.8</ele>
        <time>2020-10-12T07:03:10Z</time>
      </trkpt>
      <trkpt lat="38.2794240" lon="-0.9190030">
        <ele>416.8</ele>
        <time>2020-10-12T07:03:11Z</time>
      </trkpt>
      <trkpt lat="38.2794780" lon="-0.9189510">
        <ele>416.8</ele>
        <time>2020-10-12T07:03:12Z</time>
      </trkpt>
      <trkpt lat="38.2795320" lon="-0.9188990">
        <ele>416.8</ele>
        <time>2020-10-12T07:03:13Z</time>
      </trkpt>
      <trkpt lat="38.2795860" lon="-0.9188480">
        <ele>416.6</ele>
        <time>2020-10-12T07:03:14Z</time>
      </trkpt>
      <trkpt lat="38.2796390" lon="-0.9187960">
        <ele>416.2</ele>
        <time>2020-10-12T07:03:15Z</time>
      </trkpt>
      <trkpt lat="38.2796910" lon="-0.9187430">
        <ele>415.8</ele>
        <time>2020-10-12T07:03:16Z</time>
      </trkpt>
      <trkpt lat="38.2797440" lon="-0.9186920">
        <ele>415.2</ele>
        <time>2020-10-12T07:03:17Z</time>
      </trkpt>
      <trkpt lat="38.2797950" lon="-0.9186440">
        <ele>415.0</ele>
        <time>2020-10-12T07:03:18Z</time>
      </trkpt>
      <trkpt lat="38.2798450" lon="-0.9185950">
        <ele>414.8</ele>
        <time>2020-10-12T07:03:19Z</time>
      </trkpt>
      <trkpt lat="38.2798910" lon="-0.9185460">
        <ele>415.2</ele>
        <time>2020-10-12T07:03:20Z</time>
      </trkpt>
      <trkpt lat="38.2799360" lon="-0.9184990">
        <ele>416.0</ele>
        <time>2020-10-12T07:03:21Z</time>
      </trkpt>
      <trkpt lat="38.2799840" lon="-0.9184600">
        <ele>417.0</ele>
        <time>2020-10-12T07:03:22Z</time>
      </trkpt>
      <trkpt lat="38.2800330" lon="-0.9184190">
        <ele>417.8</ele>
        <time>2020-10-12T07:03:23Z</time>
      </trkpt>
      <trkpt lat="38.2800850" lon="-0.9183750">
        <ele>418.4</ele>
        <time>2020-10-12T07:03:24Z</time>
      </trkpt>
      <trkpt lat="38.2801340" lon="-0.9183310">
        <ele>419.2</ele>
        <time>2020-10-12T07:03:25Z</time>
      </trkpt>
      <trkpt lat="38.2801840" lon="-0.9182850">
        <ele>419.8</ele>
        <time>2020-10-12T07:03:26Z</time>
      </trkpt>
      <trkpt lat="38.2802340" lon="-0.9182370">
        <ele>420.0</ele>
        <time>2020-10-12T07:03:27Z</time>
      </trkpt>
      <trkpt lat="38.2802870" lon="-0.9181920">
        <ele>420.2</ele>
        <time>2020-10-12T07:03:28Z</time>
      </trkpt>
      <trkpt lat="38.2803360" lon="-0.9181450">
        <ele>420.0</ele>
        <time>2020-10-12T07:03:29Z</time>
      </trkpt>
      <trkpt lat="38.2803860" lon="-0.9180980">
        <ele>420.0</ele>
        <time>2020-10-12T07:03:30Z</time>
      </trkpt>
      <trkpt lat="38.2804350" lon="-0.9180500">
        <ele>420.0</ele>
        <time>2020-10-12T07:03:31Z</time>
      </trkpt>
      <trkpt lat="38.2804830" lon="-0.9180010">
        <ele>419.8</ele>
        <time>2020-10-12T07:03:32Z</time>
      </trkpt>
      <trkpt lat="38.2805310" lon="-0.9179530">
        <ele>419.8</ele>
        <time>2020-10-12T07:03:33Z</time>
      </trkpt>
      <trkpt lat="38.2805790" lon="-0.9179050">
        <ele>420.0</ele>
        <time>2020-10-12T07:03:34Z</time>
      </trkpt>
      <trkpt lat="38.2806270" lon="-0.9178520">
        <ele>420.2</ele>
        <time>2020-10-12T07:03:35Z</time>
      </trkpt>
      <trkpt lat="38.2806740" lon="-0.9178010">
        <ele>420.4</ele>
        <time>2020-10-12T07:03:36Z</time>
      </trkpt>
      <trkpt lat="38.2807240" lon="-0.9177530">
        <ele>420.8</ele>
        <time>2020-10-12T07:03:37Z</time>
      </trkpt>
      <trkpt lat="38.2807740" lon="-0.9177030">
        <ele>420.8</ele>
        <time>2020-10-12T07:03:38Z</time>
      </trkpt>
      <trkpt lat="38.2808240" lon="-0.9176500">
        <ele>421.0</ele>
        <time>2020-10-12T07:03:39Z</time>
      </trkpt>
      <trkpt lat="38.2808750" lon="-0.9176020">
        <ele>421.0</ele>
        <time>2020-10-12T07:03:40Z</time>
      </trkpt>
      <trkpt lat="38.2809240" lon="-0.9175540">
        <ele>421.0</ele>
        <time>2020-10-12T07:03:41Z</time>
      </trkpt>
      <trkpt lat="38.2809710" lon="-0.9175030">
        <ele>421.0</ele>
        <time>2020-10-12T07:03:42Z</time>
      </trkpt>
      <trkpt lat="38.2810190" lon="-0.9174520">
        <ele>421.2</ele>
        <time>2020-10-12T07:03:43Z</time>
      </trkpt>
      <trkpt lat="38.2810700" lon="-0.9174040">
        <ele>421.2</ele>
        <time>2020-10-12T07:03:44Z</time>
      </trkpt>
      <trkpt lat="38.2811180" lon="-0.9173560">
        <ele>421.2</ele>
        <time>2020-10-12T07:03:45Z</time>
      </trkpt>
      <trkpt lat="38.2811670" lon="-0.9173080">
        <ele>421.4</ele>
        <time>2020-10-12T07:03:46Z</time>
      </trkpt>
      <trkpt lat="38.2812160" lon="-0.9172590">
        <ele>421.6</ele>
        <time>2020-10-12T07:03:47Z</time>
      </trkpt>
      <trkpt lat="38.2812650" lon="-0.9172100">
        <ele>421.8</ele>
        <time>2020-10-12T07:03:48Z</time>
      </trkpt>
      <trkpt lat="38.2813160" lon="-0.9171600">
        <ele>421.8</ele>
        <time>2020-10-12T07:03:49Z</time>
      </trkpt>
      <trkpt lat="38.2813680" lon="-0.9171080">
        <ele>421.8</ele>
        <time>2020-10-12T07:03:50Z</time>
      </trkpt>
      <trkpt lat="38.2814170" lon="-0.9170620">
        <ele>422.0</ele>
        <time>2020-10-12T07:03:51Z</time>
      </trkpt>
      <trkpt lat="38.2814640" lon="-0.9170120">
        <ele>422.0</ele>
        <time>2020-10-12T07:03:52Z</time>
      </trkpt>
      <trkpt lat="38.2815110" lon="-0.9169610">
        <ele>422.2</ele>
        <time>2020-10-12T07:03:53Z</time>
      </trkpt>
      <trkpt lat="38.2815630" lon="-0.9169110">
        <ele>422.4</ele>
        <time>2020-10-12T07:03:54Z</time>
      </trkpt>
      <trkpt lat="38.2816140" lon="-0.9168620">
        <ele>422.4</ele>
        <time>2020-10-12T07:03:55Z</time>
      </trkpt>
      <trkpt lat="38.2816690" lon="-0.9168140">
        <ele>422.6</ele>
        <time>2020-10-12T07:03:56Z</time>
      </trkpt>
      <trkpt lat="38.2817190" lon="-0.9167670">
        <ele>422.6</ele>
        <time>2020-10-12T07:03:57Z</time>
      </trkpt>
      <trkpt lat="38.2817730" lon="-0.9167200">
        <ele>422.8</ele>
        <time>2020-10-12T07:03:58Z</time>
      </trkpt>
      <trkpt lat="38.2818220" lon="-0.9166710">
        <ele>422.8</ele>
        <time>2020-10-12T07:03:59Z</time>
      </trkpt>
      <trkpt lat="38.2818710" lon="-0.9166200">
        <ele>422.8</ele>
        <time>2020-10-12T07:04:00Z</time>
      </trkpt>
      <trkpt lat="38.2819220" lon="-0.9165690">
        <ele>423.0</ele>
        <time>2020-10-12T07:04:01Z</time>
      </trkpt>
      <trkpt lat="38.2819770" lon="-0.9165160">
        <ele>423.2</ele>
        <time>2020-10-12T07:04:02Z</time>
      </trkpt>
      <trkpt lat="38.2820300" lon="-0.9164630">
        <ele>423.2</ele>
        <time>2020-10-12T07:04:03Z</time>
      </trkpt>
      <trkpt lat="38.2820830" lon="-0.9164120">
        <ele>423.4</ele>
        <time>2020-10-12T07:04:04Z</time>
      </trkpt>
      <trkpt lat="38.2821350" lon="-0.9163580">
        <ele>423.4</ele>
        <time>2020-10-12T07:04:05Z</time>
      </trkpt>
      <trkpt lat="38.2821890" lon="-0.9163050">
        <ele>423.2</ele>
        <time>2020-10-12T07:04:06Z</time>
      </trkpt>
      <trkpt lat="38.2822420" lon="-0.9162500">
        <ele>423.2</ele>
        <time>2020-10-12T07:04:07Z</time>
      </trkpt>
      <trkpt lat="38.2822980" lon="-0.9161950">
        <ele>423.2</ele>
        <time>2020-10-12T07:04:08Z</time>
      </trkpt>
      <trkpt lat="38.2823530" lon="-0.9161410">
        <ele>423.0</ele>
        <time>2020-10-12T07:04:09Z</time>
      </trkpt>
      <trkpt lat="38.2824110" lon="-0.9160860">
        <ele>422.8</ele>
        <time>2020-10-12T07:04:10Z</time>
      </trkpt>
      <trkpt lat="38.2824690" lon="-0.9160320">
        <ele>422.8</ele>
        <time>2020-10-12T07:04:11Z</time>
      </trkpt>
      <trkpt lat="38.2825270" lon="-0.9159760">
        <ele>422.6</ele>
        <time>2020-10-12T07:04:12Z</time>
      </trkpt>
      <trkpt lat="38.2825840" lon="-0.9159240">
        <ele>422.4</ele>
        <time>2020-10-12T07:04:13Z</time>
      </trkpt>
      <trkpt lat="38.2826410" lon="-0.9158710">
        <ele>422.4</ele>
        <time>2020-10-12T07:04:14Z</time>
      </trkpt>
      <trkpt lat="38.2826960" lon="-0.9158160">
        <ele>422.2</ele>
        <time>2020-10-12T07:04:15Z</time>
      </trkpt>
      <trkpt lat="38.2827530" lon="-0.9157610">
        <ele>422.2</ele>
        <time>2020-10-12T07:04:16Z</time>
      </trkpt>
      <trkpt lat="38.2828120" lon="-0.9157080">
        <ele>422.2</ele>
        <time>2020-10-12T07:04:17Z</time>
      </trkpt>
      <trkpt lat="38.2828700" lon="-0.9156530">
        <ele>422.4</ele>
        <time>2020-10-12T07:04:18Z</time>
      </trkpt>
      <trkpt lat="38.2829260" lon="-0.9155980">
        <ele>422.4</ele>
        <time>2020-10-12T07:04:19Z</time>
      </trkpt>
      <trkpt lat="38.2829810" lon="-0.9155440">
        <ele>422.6</ele>
        <time>2020-10-12T07:04:20Z</time>
      </trkpt>
      <trkpt lat="38.2830380" lon="-0.9154880">
        <ele>422.8</ele>
        <time>2020-10-12T07:04:21Z</time>
      </trkpt>
      <trkpt lat="38.2830950" lon="-0.9154320">
        <ele>422.8</ele>
        <time>2020-10-12T07:04:22Z</time>
      </trkpt>
      <trkpt lat="38.2831560" lon="-0.9153740">
        <ele>422.6</ele>
        <time>2020-10-12T07:04:23Z</time>
      </trkpt>
      <trkpt lat="38.2832170" lon="-0.9153160">
        <ele>422.4</ele>
        <time>2020-10-12T07:04:24Z</time>
      </trkpt>
      <trkpt lat="38.2832780" lon="-0.9152600">
        <ele>422.4</ele>
        <time>2020-10-12T07:04:25Z</time>
      </trkpt>
      <trkpt lat="38.2833390" lon="-0.9152000">
        <ele>422.4</ele>
        <time>2020-10-12T07:04:26Z</time>
      </trkpt>
      <trkpt lat="38.2834000" lon="-0.9151400">
        <ele>422.2</ele>
        <time>2020-10-12T07:04:27Z</time>
      </trkpt>
      <trkpt lat="38.2834600" lon="-0.9150780">
        <ele>422.0</ele>
        <time>2020-10-12T07:04:28Z</time>
      </trkpt>
      <trkpt lat="38.2835220" lon="-0.9150150">
        <ele>421.8</ele>
        <time>2020-10-12T07:04:29Z</time>
      </trkpt>
      <trkpt lat="38.2835850" lon="-0.9149530">
        <ele>421.4</ele>
        <time>2020-10-12T07:04:30Z</time>
      </trkpt>
      <trkpt lat="38.2836500" lon="-0.9148920">
        <ele>421.0</ele>
        <time>2020-10-12T07:04:31Z</time>
      </trkpt>
      <trkpt lat="38.2837140" lon="-0.9148300">
        <ele>420.6</ele>
        <time>2020-10-12T07:04:32Z</time>
      </trkpt>
      <trkpt lat="38.2837780" lon="-0.9147690">
        <ele>420.2</ele>
        <time>2020-10-12T07:04:33Z</time>
      </trkpt>
      <trkpt lat="38.2838450" lon="-0.9147060">
        <ele>420.0</ele>
        <time>2020-10-12T07:04:34Z</time>
      </trkpt>
      <trkpt lat="38.2839110" lon="-0.9146430">
        <ele>419.8</ele>
        <time>2020-10-12T07:04:35Z</time>
      </trkpt>
      <trkpt lat="38.2839760" lon="-0.9145780">
        <ele>419.8</ele>
        <time>2020-10-12T07:04:36Z</time>
      </trkpt>
      <trkpt lat="38.2840420" lon="-0.9145150">
        <ele>419.8</ele>
        <time>2020-10-12T07:04:37Z</time>
      </trkpt>
      <trkpt lat="38.2841100" lon="-0.9144490">
        <ele>419.6</ele>
        <time>2020-10-12T07:04:38Z</time>
      </trkpt>
      <trkpt lat="38.2841790" lon="-0.9143840">
        <ele>419.2</ele>
        <time>2020-10-12T07:04:39Z</time>
      </trkpt>
      <trkpt lat="38.2842450" lon="-0.9143180">
        <ele>419.0</ele>
        <time>2020-10-12T07:04:40Z</time>
      </trkpt>
      <trkpt lat="38.2843090" lon="-0.9142530">
        <ele>418.8</ele>
        <time>2020-10-12T07:04:41Z</time>
      </trkpt>
      <trkpt lat="38.2843750" lon="-0.9141880">
        <ele>418.4</ele>
        <time>2020-10-12T07:04:42Z</time>
      </trkpt>
      <trkpt lat="38.2844390" lon="-0.9141260">
        <ele>418.0</ele>
        <time>2020-10-12T07:04:43Z</time>
      </trkpt>
      <trkpt lat="38.2845030" lon="-0.9140630">
        <ele>418.0</ele>
        <time>2020-10-12T07:04:44Z</time>
      </trkpt>
      <trkpt lat="38.2845710" lon="-0.9140000">
        <ele>418.0</ele>
        <time>2020-10-12T07:04:45Z</time>
      </trkpt>
      <trkpt lat="38.2846390" lon="-0.9139360">
        <ele>418.2</ele>
        <time>2020-10-12T07:04:46Z</time>
      </trkpt>
      <trkpt lat="38.2847060" lon="-0.9138720">
        <ele>418.0</ele>
        <time>2020-10-12T07:04:47Z</time>
      </trkpt>
      <trkpt lat="38.2847710" lon="-0.9138070">
        <ele>418.0</ele>
        <time>2020-10-12T07:04:48Z</time>
      </trkpt>
      <trkpt lat="38.2848350" lon="-0.9137430">
        <ele>417.8</ele>
        <time>2020-10-12T07:04:49Z</time>
      </trkpt>
      <trkpt lat="38.2848990" lon="-0.9136790">
        <ele>418.0</ele>
        <time>2020-10-12T07:04:50Z</time>
      </trkpt>
      <trkpt lat="38.2849620" lon="-0.9136150">
        <ele>418.0</ele>
        <time>2020-10-12T07:04:51Z</time>
      </trkpt>
      <trkpt lat="38.2850270" lon="-0.9135510">
        <ele>417.8</ele>
        <time>2020-10-12T07:04:52Z</time>
      </trkpt>
      <trkpt lat="38.2850910" lon="-0.9134870">
        <ele>417.6</ele>
        <time>2020-10-12T07:04:53Z</time>
      </trkpt>
      <trkpt lat="38.2851580" lon="-0.9134260">
        <ele>417.4</ele>
        <time>2020-10-12T07:04:54Z</time>
      </trkpt>
      <trkpt lat="38.2852260" lon="-0.9133630">
        <ele>417.2</ele>
        <time>2020-10-12T07:04:55Z</time>
      </trkpt>
      <trkpt lat="38.2852930" lon="-0.9133010">
        <ele>417.0</ele>
        <time>2020-10-12T07:04:56Z</time>
      </trkpt>
      <trkpt lat="38.2853590" lon="-0.9132370">
        <ele>417.0</ele>
        <time>2020-10-12T07:04:57Z</time>
      </trkpt>
      <trkpt lat="38.2854260" lon="-0.9131720">
        <ele>417.0</ele>
        <time>2020-10-12T07:04:58Z</time>
      </trkpt>
      <trkpt lat="38.2854930" lon="-0.9131060">
        <ele>417.0</ele>
        <time>2020-10-12T07:04:59Z</time>
      </trkpt>
      <trkpt lat="38.2855580" lon="-0.9130420">
        <ele>417.0</ele>
        <time>2020-10-12T07:05:00Z</time>
      </trkpt>
      <trkpt lat="38.2856230" lon="-0.9129760">
        <ele>417.0</ele>
        <time>2020-10-12T07:05:01Z</time>
      </trkpt>
      <trkpt lat="38.2856890" lon="-0.9129120">
        <ele>417.2</ele>
        <time>2020-10-12T07:05:02Z</time>
      </trkpt>
      <trkpt lat="38.2857540" lon="-0.9128490">
        <ele>417.2</ele>
        <time>2020-10-12T07:05:03Z</time>
      </trkpt>
      <trkpt lat="38.2858170" lon="-0.9127880">
        <ele>417.2</ele>
        <time>2020-10-12T07:05:04Z</time>
      </trkpt>
      <trkpt lat="38.2858800" lon="-0.9127260">
        <ele>417.0</ele>
        <time>2020-10-12T07:05:05Z</time>
      </trkpt>
      <trkpt lat="38.2859430" lon="-0.9126640">
        <ele>416.8</ele>
        <time>2020-10-12T07:05:06Z</time>
      </trkpt>
      <trkpt lat="38.2860060" lon="-0.9126030">
        <ele>416.8</ele>
        <time>2020-10-12T07:05:07Z</time>
      </trkpt>
      <trkpt lat="38.2860690" lon="-0.9125400">
        <ele>416.8</ele>
        <time>2020-10-12T07:05:08Z</time>
      </trkpt>
      <trkpt lat="38.2861310" lon="-0.9124740">
        <ele>417.0</ele>
        <time>2020-10-12T07:05:09Z</time>
      </trkpt>
      <trkpt lat="38.2861950" lon="-0.9124100">
        <ele>417.0</ele>
        <time>2020-10-12T07:05:10Z</time>
      </trkpt>
      <trkpt lat="38.2862550" lon="-0.9123480">
        <ele>417.0</ele>
        <time>2020-10-12T07:05:11Z</time>
      </trkpt>
      <trkpt lat="38.2863170" lon="-0.9122840">
        <ele>417.0</ele>
        <time>2020-10-12T07:05:12Z</time>
      </trkpt>
      <trkpt lat="38.2863810" lon="-0.9122220">
        <ele>417.0</ele>
        <time>2020-10-12T07:05:13Z</time>
      </trkpt>
      <trkpt lat="38.2864460" lon="-0.9121620">
        <ele>417.0</ele>
        <time>2020-10-12T07:05:14Z</time>
      </trkpt>
      <trkpt lat="38.2865090" lon="-0.9120980">
        <ele>417.0</ele>
        <time>2020-10-12T07:05:15Z</time>
      </trkpt>
      <trkpt lat="38.2865700" lon="-0.9120350">
        <ele>416.8</ele>
        <time>2020-10-12T07:05:16Z</time>
      </trkpt>
      <trkpt lat="38.2866330" lon="-0.9119720">
        <ele>416.8</ele>
        <time>2020-10-12T07:05:17Z</time>
      </trkpt>
      <trkpt lat="38.2866970" lon="-0.9119090">
        <ele>416.6</ele>
        <time>2020-10-12T07:05:18Z</time>
      </trkpt>
      <trkpt lat="38.2867610" lon="-0.9118460">
        <ele>416.6</ele>
        <time>2020-10-12T07:05:19Z</time>
      </trkpt>
      <trkpt lat="38.2868240" lon="-0.9117840">
        <ele>416.6</ele>
        <time>2020-10-12T07:05:20Z</time>
      </trkpt>
      <trkpt lat="38.2868890" lon="-0.9117210">
        <ele>416.6</ele>
        <time>2020-10-12T07:05:21Z</time>
      </trkpt>
      <trkpt lat="38.2869520" lon="-0.9116600">
        <ele>416.2</ele>
        <time>2020-10-12T07:05:22Z</time>
      </trkpt>
      <trkpt lat="38.2870150" lon="-0.9116010">
        <ele>415.8</ele>
        <time>2020-10-12T07:05:23Z</time>
      </trkpt>
      <trkpt lat="38.2870770" lon="-0.9115410">
        <ele>415.0</ele>
        <time>2020-10-12T07:05:24Z</time>
      </trkpt>
      <trkpt lat="38.2871390" lon="-0.9114810">
        <ele>414.6</ele>
        <time>2020-10-12T07:05:25Z</time>
      </trkpt>
      <trkpt lat="38.2872000" lon="-0.9114200">
        <ele>414.4</ele>
        <time>2020-10-12T07:05:26Z</time>
      </trkpt>
      <trkpt lat="38.2872630" lon="-0.9113590">
        <ele>414.2</ele>
        <time>2020-10-12T07:05:27Z</time>
      </trkpt>
      <trkpt lat="38.2873240" lon="-0.9112980">
        <ele>414.0</ele>
        <time>2020-10-12T07:05:28Z</time>
      </trkpt>
      <trkpt lat="38.2873840" lon="-0.9112390">
        <ele>413.6</ele>
        <time>2020-10-12T07:05:29Z</time>
      </trkpt>
      <trkpt lat="38.2874450" lon="-0.9111780">
        <ele>413.4</ele>
        <time>2020-10-12T07:05:30Z</time>
      </trkpt>
      <trkpt lat="38.2875120" lon="-0.9111160">
        <ele>413.0</ele>
        <time>2020-10-12T07:05:31Z</time>
      </trkpt>
      <trkpt lat="38.2875780" lon="-0.9110540">
        <ele>412.8</ele>
        <time>2020-10-12T07:05:32Z</time>
      </trkpt>
      <trkpt lat="38.2876440" lon="-0.9109940">
        <ele>412.8</ele>
        <time>2020-10-12T07:05:33Z</time>
      </trkpt>
      <trkpt lat="38.2877110" lon="-0.9109320">
        <ele>412.8</ele>
        <time>2020-10-12T07:05:34Z</time>
      </trkpt>
      <trkpt lat="38.2877750" lon="-0.9108700">
        <ele>412.8</ele>
        <time>2020-10-12T07:05:35Z</time>
      </trkpt>
      <trkpt lat="38.2878390" lon="-0.9108080">
        <ele>412.8</ele>
        <time>2020-10-12T07:05:36Z</time>
      </trkpt>
      <trkpt lat="38.2879020" lon="-0.9107460">
        <ele>412.8</ele>
        <time>2020-10-12T07:05:37Z</time>
      </trkpt>
      <trkpt lat="38.2879650" lon="-0.9106820">
        <ele>413.0</ele>
        <time>2020-10-12T07:05:38Z</time>
      </trkpt>
      <trkpt lat="38.2880240" lon="-0.9106150">
        <ele>413.0</ele>
        <time>2020-10-12T07:05:39Z</time>
      </trkpt>
      <trkpt lat="38.2880860" lon="-0.9105460">
        <ele>413.0</ele>
        <time>2020-10-12T07:05:40Z</time>
      </trkpt>
      <trkpt lat="38.2881500" lon="-0.9104790">
        <ele>413.0</ele>
        <time>2020-10-12T07:05:41Z</time>
      </trkpt>
      <trkpt lat="38.2882160" lon="-0.9104140">
        <ele>412.8</ele>
        <time>2020-10-12T07:05:42Z</time>
      </trkpt>
      <trkpt lat="38.2882810" lon="-0.9103480">
        <ele>413.0</ele>
        <time>2020-10-12T07:05:43Z</time>
      </trkpt>
      <trkpt lat="38.2883480" lon="-0.9102810">
        <ele>413.0</ele>
        <time>2020-10-12T07:05:44Z</time>
      </trkpt>
      <trkpt lat="38.2884130" lon="-0.9102120">
        <ele>413.0</ele>
        <time>2020-10-12T07:05:45Z</time>
      </trkpt>
      <trkpt lat="38.2884770" lon="-0.9101460">
        <ele>412.8</ele>
        <time>2020-10-12T07:05:46Z</time>
      </trkpt>
      <trkpt lat="38.2885420" lon="-0.9100790">
        <ele>412.8</ele>
        <time>2020-10-12T07:05:47Z</time>
      </trkpt>
      <trkpt lat="38.2886070" lon="-0.9100100">
        <ele>412.8</ele>
        <time>2020-10-12T07:05:48Z</time>
      </trkpt>
      <trkpt lat="38.2886730" lon="-0.9099420">
        <ele>412.8</ele>
        <time>2020-10-12T07:05:49Z</time>
      </trkpt>
      <trkpt lat="38.2887360" lon="-0.9098740">
        <ele>412.8</ele>
        <time>2020-10-12T07:05:50Z</time>
      </trkpt>
      <trkpt lat="38.2887980" lon="-0.9098040">
        <ele>413.2</ele>
        <time>2020-10-12T07:05:51Z</time>
      </trkpt>
      <trkpt lat="38.2888600" lon="-0.9097330">
        <ele>413.4</ele>
        <time>2020-10-12T07:05:52Z</time>
      </trkpt>
      <trkpt lat="38.2889220" lon="-0.9096660">
        <ele>413.2</ele>
        <time>2020-10-12T07:05:53Z</time>
      </trkpt>
      <trkpt lat="38.2889850" lon="-0.9095980">
        <ele>413.2</ele>
        <time>2020-10-12T07:05:54Z</time>
      </trkpt>
      <trkpt lat="38.2890450" lon="-0.9095310">
        <ele>413.0</ele>
        <time>2020-10-12T07:05:55Z</time>
      </trkpt>
      <trkpt lat="38.2891050" lon="-0.9094630">
        <ele>413.2</ele>
        <time>2020-10-12T07:05:56Z</time>
      </trkpt>
      <trkpt lat="38.2891640" lon="-0.9093980">
        <ele>413.2</ele>
        <time>2020-10-12T07:05:57Z</time>
      </trkpt>
      <trkpt lat="38.2892240" lon="-0.9093320">
        <ele>413.2</ele>
        <time>2020-10-12T07:05:58Z</time>
      </trkpt>
      <trkpt lat="38.2892850" lon="-0.9092630">
        <ele>412.8</ele>
        <time>2020-10-12T07:05:59Z</time>
      </trkpt>
      <trkpt lat="38.2893450" lon="-0.9091970">
        <ele>412.8</ele>
        <time>2020-10-12T07:06:00Z</time>
      </trkpt>
      <trkpt lat="38.2894040" lon="-0.9091310">
        <ele>412.8</ele>
        <time>2020-10-12T07:06:01Z</time>
      </trkpt>
      <trkpt lat="38.2894640" lon="-0.9090650">
        <ele>412.6</ele>
        <time>2020-10-12T07:06:02Z</time>
      </trkpt>
      <trkpt lat="38.2895280" lon="-0.9089990">
        <ele>412.2</ele>
        <time>2020-10-12T07:06:03Z</time>
      </trkpt>
      <trkpt lat="38.2895910" lon="-0.9089320">
        <ele>412.0</ele>
        <time>2020-10-12T07:06:04Z</time>
      </trkpt>
      <trkpt lat="38.2896540" lon="-0.9088650">
        <ele>412.2</ele>
        <time>2020-10-12T07:06:05Z</time>
      </trkpt>
      <trkpt lat="38.2897180" lon="-0.9087960">
        <ele>412.2</ele>
        <time>2020-10-12T07:06:06Z</time>
      </trkpt>
      <trkpt lat="38.2897800" lon="-0.9087270">
        <ele>412.2</ele>
        <time>2020-10-12T07:06:07Z</time>
      </trkpt>
      <trkpt lat="38.2898390" lon="-0.9086580">
        <ele>412.2</ele>
        <time>2020-10-12T07:06:08Z</time>
      </trkpt>
      <trkpt lat="38.2899010" lon="-0.9085910">
        <ele>412.2</ele>
        <time>2020-10-12T07:06:09Z</time>
      </trkpt>
      <trkpt lat="38.2899640" lon="-0.9085170">
        <ele>412.2</ele>
        <time>2020-10-12T07:06:10Z</time>
      </trkpt>
      <trkpt lat="38.2900240" lon="-0.9084460">
        <ele>412.4</ele>
        <time>2020-10-12T07:06:11Z</time>
      </trkpt>
      <trkpt lat="38.2900870" lon="-0.9083740">
        <ele>412.4</ele>
        <time>2020-10-12T07:06:12Z</time>
      </trkpt>
      <trkpt lat="38.2901490" lon="-0.9083050">
        <ele>412.6</ele>
        <time>2020-10-12T07:06:13Z</time>
      </trkpt>
      <trkpt lat="38.2902150" lon="-0.9082410">
        <ele>412.8</ele>
        <time>2020-10-12T07:06:14Z</time>
      </trkpt>
      <trkpt lat="38.2902790" lon="-0.9081740">
        <ele>412.8</ele>
        <time>2020-10-12T07:06:15Z</time>
      </trkpt>
      <trkpt lat="38.2903410" lon="-0.9081040">
        <ele>412.6</ele>
        <time>2020-10-12T07:06:16Z</time>
      </trkpt>
      <trkpt lat="38.2904030" lon="-0.9080340">
        <ele>412.8</ele>
        <time>2020-10-12T07:06:17Z</time>
      </trkpt>
      <trkpt lat="38.2904640" lon="-0.9079670">
        <ele>412.8</ele>
        <time>2020-10-12T07:06:18Z</time>
      </trkpt>
      <trkpt lat="38.2905250" lon="-0.9079030">
        <ele>412.8</ele>
        <time>2020-10-12T07:06:19Z</time>
      </trkpt>
      <trkpt lat="38.2905880" lon="-0.9078380">
        <ele>412.6</ele>
        <time>2020-10-12T07:06:20Z</time>
      </trkpt>
      <trkpt lat="38.2906500" lon="-0.9077720">
        <ele>412.2</ele>
        <time>2020-10-12T07:06:21Z</time>
      </trkpt>
      <trkpt lat="38.2907130" lon="-0.9077100">
        <ele>411.6</ele>
        <time>2020-10-12T07:06:22Z</time>
      </trkpt>
      <trkpt lat="38.2907770" lon="-0.9076460">
        <ele>411.4</ele>
        <time>2020-10-12T07:06:23Z</time>
      </trkpt>
      <trkpt lat="38.2908390" lon="-0.9075790">
        <ele>411.2</ele>
        <time>2020-10-12T07:06:24Z</time>
      </trkpt>
      <trkpt lat="38.2908980" lon="-0.9075090">
        <ele>411.2</ele>
        <time>2020-10-12T07:06:25Z</time>
      </trkpt>
      <trkpt lat="38.2909550" lon="-0.9074360">
        <ele>411.0</ele>
        <time>2020-10-12T07:06:26Z</time>
      </trkpt>
      <trkpt lat="38.2910160" lon="-0.9073680">
        <ele>411.0</ele>
        <time>2020-10-12T07:06:27Z</time>
      </trkpt>
      <trkpt lat="38.2910770" lon="-0.9072990">
        <ele>411.0</ele>
        <time>2020-10-12T07:06:28Z</time>
      </trkpt>
      <trkpt lat="38.2911370" lon="-0.9072310">
        <ele>411.2</ele>
        <time>2020-10-12T07:06:29Z</time>
      </trkpt>
      <trkpt lat="38.2911960" lon="-0.9071620">
        <ele>411.2</ele>
        <time>2020-10-12T07:06:30Z</time>
      </trkpt>
      <trkpt lat="38.2912580" lon="-0.9070940">
        <ele>411.2</ele>
        <time>2020-10-12T07:06:31Z</time>
      </trkpt>
      <trkpt lat="38.2913190" lon="-0.9070270">
        <ele>411.0</ele>
        <time>2020-10-12T07:06:32Z</time>
      </trkpt>
      <trkpt lat="38.2913800" lon="-0.9069570">
        <ele>411.2</ele>
        <time>2020-10-12T07:06:33Z</time>
      </trkpt>
      <trkpt lat="38.2914380" lon="-0.9068870">
        <ele>411.0</ele>
        <time>2020-10-12T07:06:34Z</time>
      </trkpt>
      <trkpt lat="38.2914950" lon="-0.9068130">
        <ele>410.6</ele>
        <time>2020-10-12T07:06:35Z</time>
      </trkpt>
      <trkpt lat="38.2915510" lon="-0.9067370">
        <ele>410.6</ele>
        <time>2020-10-12T07:06:36Z</time>
      </trkpt>
      <trkpt lat="38.2916020" lon="-0.9066600">
        <ele>410.8</ele>
        <time>2020-10-12T07:06:37Z</time>
      </trkpt>
      <trkpt lat="38.2916510" lon="-0.9065810">
        <ele>410.8</ele>
        <time>2020-10-12T07:06:38Z</time>
      </trkpt>
      <trkpt lat="38.2916990" lon="-0.9064990">
        <ele>410.8</ele>
        <time>2020-10-12T07:06:39Z</time>
      </trkpt>
      <trkpt lat="38.2917460" lon="-0.9064130">
        <ele>410.8</ele>
        <time>2020-10-12T07:06:40Z</time>
      </trkpt>
      <trkpt lat="38.2917900" lon="-0.9063220">
        <ele>411.0</ele>
        <time>2020-10-12T07:06:41Z</time>
      </trkpt>
      <trkpt lat="38.2918350" lon="-0.9062340">
        <ele>411.2</ele>
        <time>2020-10-12T07:06:42Z</time>
      </trkpt>
      <trkpt lat="38.2918820" lon="-0.9061480">
        <ele>411.4</ele>
        <time>2020-10-12T07:06:43Z</time>
      </trkpt>
      <trkpt lat="38.2919280" lon="-0.9060610">
        <ele>411.4</ele>
        <time>2020-10-12T07:06:44Z</time>
      </trkpt>
      <trkpt lat="38.2919760" lon="-0.9059760">
        <ele>411.6</ele>
        <time>2020-10-12T07:06:45Z</time>
      </trkpt>
      <trkpt lat="38.2920240" lon="-0.9058900">
        <ele>411.6</ele>
        <time>2020-10-12T07:06:46Z</time>
      </trkpt>
      <trkpt lat="38.2920720" lon="-0.9058050">
        <ele>411.6</ele>
        <time>2020-10-12T07:06:47Z</time>
      </trkpt>
      <trkpt lat="38.2921180" lon="-0.9057210">
        <ele>411.4</ele>
        <time>2020-10-12T07:06:48Z</time>
      </trkpt>
      <trkpt lat="38.2921630" lon="-0.9056340">
        <ele>411.2</ele>
        <time>2020-10-12T07:06:49Z</time>
      </trkpt>
      <trkpt lat="38.2922090" lon="-0.9055490">
        <ele>411.2</ele>
        <time>2020-10-12T07:06:50Z</time>
      </trkpt>
      <trkpt lat="38.2922530" lon="-0.9054640">
        <ele>411.2</ele>
        <time>2020-10-12T07:06:51Z</time>
      </trkpt>
      <trkpt lat="38.2922980" lon="-0.9053790">
        <ele>411.4</ele>
        <time>2020-10-12T07:06:52Z</time>
      </trkpt>
      <trkpt lat="38.2923450" lon="-0.9052950">
        <ele>411.4</ele>
        <time>2020-10-12T07:06:53Z</time>
      </trkpt>
      <trkpt lat="38.2923920" lon="-0.9052100">
        <ele>411.4</ele>
        <time>2020-10-12T07:06:54Z</time>
      </trkpt>
      <trkpt lat="38.2924370" lon="-0.9051230">
        <ele>411.4</ele>
        <time>2020-10-12T07:06:55Z</time>
      </trkpt>
      <trkpt lat="38.2924820" lon="-0.9050380">
        <ele>411.4</ele>
        <time>2020-10-12T07:06:56Z</time>
      </trkpt>
      <trkpt lat="38.2925280" lon="-0.9049530">
        <ele>411.4</ele>
        <time>2020-10-12T07:06:57Z</time>
      </trkpt>
      <trkpt lat="38.2925730" lon="-0.9048670">
        <ele>411.2</ele>
        <time>2020-10-12T07:06:58Z</time>
      </trkpt>
      <trkpt lat="38.2926190" lon="-0.9047810">
        <ele>411.0</ele>
        <time>2020-10-12T07:06:59Z</time>
      </trkpt>
      <trkpt lat="38.2926630" lon="-0.9046970">
        <ele>411.0</ele>
        <time>2020-10-12T07:07:00Z</time>
      </trkpt>
      <trkpt lat="38.2927080" lon="-0.9046120">
        <ele>411.0</ele>
        <time>2020-10-12T07:07:01Z</time>
      </trkpt>
      <trkpt lat="38.2927530" lon="-0.9045270">
        <ele>411.2</ele>
        <time>2020-10-12T07:07:02Z</time>
      </trkpt>
      <trkpt lat="38.2928000" lon="-0.9044440">
        <ele>411.2</ele>
        <time>2020-10-12T07:07:03Z</time>
      </trkpt>
      <trkpt lat="38.2928460" lon="-0.9043600">
        <ele>411.2</ele>
        <time>2020-10-12T07:07:04Z</time>
      </trkpt>
      <trkpt lat="38.2928920" lon="-0.9042760">
        <ele>411.2</ele>
        <time>2020-10-12T07:07:05Z</time>
      </trkpt>
      <trkpt lat="38.2929380" lon="-0.9041920">
        <ele>411.2</ele>
        <time>2020-10-12T07:07:06Z</time>
      </trkpt>
      <trkpt lat="38.2929840" lon="-0.9041080">
        <ele>411.0</ele>
        <time>2020-10-12T07:07:07Z</time>
      </trkpt>
      <trkpt lat="38.2930290" lon="-0.9040250">
        <ele>410.8</ele>
        <time>2020-10-12T07:07:08Z</time>
      </trkpt>
      <trkpt lat="38.2930740" lon="-0.9039400">
        <ele>410.6</ele>
        <time>2020-10-12T07:07:09Z</time>
      </trkpt>
      <trkpt lat="38.2931200" lon="-0.9038530">
        <ele>410.6</ele>
        <time>2020-10-12T07:07:10Z</time>
      </trkpt>
      <trkpt lat="38.2931670" lon="-0.9037650">
        <ele>410.6</ele>
        <time>2020-10-12T07:07:11Z</time>
      </trkpt>
      <trkpt lat="38.2932130" lon="-0.9036780">
        <ele>410.6</ele>
        <time>2020-10-12T07:07:12Z</time>
      </trkpt>
      <trkpt lat="38.2932580" lon="-0.9035930">
        <ele>410.4</ele>
        <time>2020-10-12T07:07:13Z</time>
      </trkpt>
      <trkpt lat="38.2933050" lon="-0.9035050">
        <ele>410.4</ele>
        <time>2020-10-12T07:07:14Z</time>
      </trkpt>
      <trkpt lat="38.2933520" lon="-0.9034170">
        <ele>410.4</ele>
        <time>2020-10-12T07:07:15Z</time>
      </trkpt>
      <trkpt lat="38.2933980" lon="-0.9033280">
        <ele>410.6</ele>
        <time>2020-10-12T07:07:16Z</time>
      </trkpt>
      <trkpt lat="38.2934430" lon="-0.9032370">
        <ele>410.8</ele>
        <time>2020-10-12T07:07:17Z</time>
      </trkpt>
      <trkpt lat="38.2934910" lon="-0.9031480">
        <ele>411.2</ele>
        <time>2020-10-12T07:07:18Z</time>
      </trkpt>
      <trkpt lat="38.2935370" lon="-0.9030590">
        <ele>411.2</ele>
        <time>2020-10-12T07:07:19Z</time>
      </trkpt>
      <trkpt lat="38.2935840" lon="-0.9029660">
        <ele>411.6</ele>
        <time>2020-10-12T07:07:20Z</time>
      </trkpt>
      <trkpt lat="38.2936340" lon="-0.9028790">
        <ele>412.0</ele>
        <time>2020-10-12T07:07:21Z</time>
      </trkpt>
      <trkpt lat="38.2936820" lon="-0.9027950">
        <ele>412.4</ele>
        <time>2020-10-12T07:07:22Z</time>
      </trkpt>
      <trkpt lat="38.2937270" lon="-0.9027100">
        <ele>412.6</ele>
        <time>2020-10-12T07:07:23Z</time>
      </trkpt>
      <trkpt lat="38.2937710" lon="-0.9026230">
        <ele>412.8</ele>
        <time>2020-10-12T07:07:24Z</time>
      </trkpt>
      <trkpt lat="38.2938160" lon="-0.9025340">
        <ele>412.8</ele>
        <time>2020-10-12T07:07:25Z</time>
      </trkpt>
      <trkpt lat="38.2938630" lon="-0.9024470">
        <ele>412.8</ele>
        <time>2020-10-12T07:07:26Z</time>
      </trkpt>
      <trkpt lat="38.2939140" lon="-0.9023610">
        <ele>413.0</ele>
        <time>2020-10-12T07:07:27Z</time>
      </trkpt>
      <trkpt lat="38.2939640" lon="-0.9022750">
        <ele>413.2</ele>
        <time>2020-10-12T07:07:28Z</time>
      </trkpt>
      <trkpt lat="38.2940120" lon="-0.9021870">
        <ele>413.2</ele>
        <time>2020-10-12T07:07:29Z</time>
      </trkpt>
      <trkpt lat="38.2940590" lon="-0.9020980">
        <ele>413.2</ele>
        <time>2020-10-12T07:07:30Z</time>
      </trkpt>
      <trkpt lat="38.2941060" lon="-0.9020140">
        <ele>412.8</ele>
        <time>2020-10-12T07:07:31Z</time>
      </trkpt>
      <trkpt lat="38.2941530" lon="-0.9019290">
        <ele>412.6</ele>
        <time>2020-10-12T07:07:32Z</time>
      </trkpt>
      <trkpt lat="38.2941980" lon="-0.9018450">
        <ele>412.8</ele>
        <time>2020-10-12T07:07:33Z</time>
      </trkpt>
      <trkpt lat="38.2942400" lon="-0.9017580">
        <ele>412.8</ele>
        <time>2020-10-12T07:07:34Z</time>
      </trkpt>
      <trkpt lat="38.2942850" lon="-0.9016700">
        <ele>412.8</ele>
        <time>2020-10-12T07:07:35Z</time>
      </trkpt>
      <trkpt lat="38.2943290" lon="-0.9015820">
        <ele>413.0</ele>
        <time>2020-10-12T07:07:36Z</time>
      </trkpt>
      <trkpt lat="38.2943720" lon="-0.9014940">
        <ele>413.2</ele>
        <time>2020-10-12T07:07:37Z</time>
      </trkpt>
      <trkpt lat="38.2944180" lon="-0.9014100">
        <ele>413.4</ele>
        <time>2020-10-12T07:07:38Z</time>
      </trkpt>
      <trkpt lat="38.2944620" lon="-0.9013260">
        <ele>413.6</ele>
        <time>2020-10-12T07:07:39Z</time>
      </trkpt>
      <trkpt lat="38.2945070" lon="-0.9012410">
        <ele>413.6</ele>
        <time>2020-10-12T07:07:40Z</time>
      </trkpt>
      <trkpt lat="38.2945530" lon="-0.9011540">
        <ele>413.4</ele>
        <time>2020-10-12T07:07:41Z</time>
      </trkpt>
      <trkpt lat="38.2946010" lon="-0.9010660">
        <ele>413.2</ele>
        <time>2020-10-12T07:07:42Z</time>
      </trkpt>
      <trkpt lat="38.2946490" lon="-0.9009800">
        <ele>413.0</ele>
        <time>2020-10-12T07:07:43Z</time>
      </trkpt>
      <trkpt lat="38.2946940" lon="-0.9008970">
        <ele>412.8</ele>
        <time>2020-10-12T07:07:44Z</time>
      </trkpt>
      <trkpt lat="38.2947390" lon="-0.9008110">
        <ele>412.8</ele>
        <time>2020-10-12T07:07:45Z</time>
      </trkpt>
      <trkpt lat="38.2947860" lon="-0.9007290">
        <ele>412.8</ele>
        <time>2020-10-12T07:07:46Z</time>
      </trkpt>
      <trkpt lat="38.2948300" lon="-0.9006440">
        <ele>412.8</ele>
        <time>2020-10-12T07:07:47Z</time>
      </trkpt>
      <trkpt lat="38.2948750" lon="-0.9005590">
        <ele>412.8</ele>
        <time>2020-10-12T07:07:48Z</time>
      </trkpt>
      <trkpt lat="38.2949200" lon="-0.9004740">
        <ele>412.8</ele>
        <time>2020-10-12T07:07:49Z</time>
      </trkpt>
      <trkpt lat="38.2949650" lon="-0.9003880">
        <ele>412.6</ele>
        <time>2020-10-12T07:07:50Z</time>
      </trkpt>
      <trkpt lat="38.2950110" lon="-0.9003000">
        <ele>412.6</ele>
        <time>2020-10-12T07:07:51Z</time>
      </trkpt>
      <trkpt lat="38.2950590" lon="-0.9002130">
        <ele>412.6</ele>
        <time>2020-10-12T07:07:52Z</time>
      </trkpt>
      <trkpt lat="38.2951080" lon="-0.9001290">
        <ele>412.6</ele>
        <time>2020-10-12T07:07:53Z</time>
      </trkpt>
      <trkpt lat="38.2951570" lon="-0.9000430">
        <ele>412.6</ele>
        <time>2020-10-12T07:07:54Z</time>
      </trkpt>
      <trkpt lat="38.2952070" lon="-0.8999590">
        <ele>412.4</ele>
        <time>2020-10-12T07:07:55Z</time>
      </trkpt>
      <trkpt lat="38.2952560" lon="-0.8998740">
        <ele>412.2</ele>
        <time>2020-10-12T07:07:56Z</time>
      </trkpt>
      <trkpt lat="38.2953010" lon="-0.8997920">
        <ele>412.2</ele>
        <time>2020-10-12T07:07:57Z</time>
      </trkpt>
      <trkpt lat="38.2953450" lon="-0.8997070">
        <ele>412.0</ele>
        <time>2020-10-12T07:07:58Z</time>
      </trkpt>
      <trkpt lat="38.2953900" lon="-0.8996210">
        <ele>411.8</ele>
        <time>2020-10-12T07:07:59Z</time>
      </trkpt>
      <trkpt lat="38.2954370" lon="-0.8995380">
        <ele>411.6</ele>
        <time>2020-10-12T07:08:00Z</time>
      </trkpt>
      <trkpt lat="38.2954820" lon="-0.8994570">
        <ele>411.6</ele>
        <time>2020-10-12T07:08:01Z</time>
      </trkpt>
      <trkpt lat="38.2955240" lon="-0.8993740">
        <ele>411.8</ele>
        <time>2020-10-12T07:08:02Z</time>
      </trkpt>
      <trkpt lat="38.2955650" lon="-0.8992900">
        <ele>411.8</ele>
        <time>2020-10-12T07:08:03Z</time>
      </trkpt>
      <trkpt lat="38.2956020" lon="-0.8992080">
        <ele>411.8</ele>
        <time>2020-10-12T07:08:04Z</time>
      </trkpt>
      <trkpt lat="38.2956290" lon="-0.8991200">
        <ele>411.8</ele>
        <time>2020-10-12T07:08:05Z</time>
      </trkpt>
      <trkpt lat="38.2956440" lon="-0.8990260">
        <ele>412.0</ele>
        <time>2020-10-12T07:08:06Z</time>
      </trkpt>
      <trkpt lat="38.2956470" lon="-0.8989290">
        <ele>412.0</ele>
        <time>2020-10-12T07:08:07Z</time>
      </trkpt>
      <trkpt lat="38.2956500" lon="-0.8988270">
        <ele>411.8</ele>
        <time>2020-10-12T07:08:08Z</time>
      </trkpt>
      <trkpt lat="38.2956590" lon="-0.8987290">
        <ele>411.8</ele>
        <time>2020-10-12T07:08:09Z</time>
      </trkpt>
      <trkpt lat="38.2956850" lon="-0.8986390">
        <ele>411.6</ele>
        <time>2020-10-12T07:08:10Z</time>
      </trkpt>
      <trkpt lat="38.2957290" lon="-0.8985620">
        <ele>411.4</ele>
        <time>2020-10-12T07:08:11Z</time>
      </trkpt>
      <trkpt lat="38.2957880" lon="-0.8985020">
        <ele>411.4</ele>
        <time>2020-10-12T07:08:12Z</time>
      </trkpt>
      <trkpt lat="38.2958580" lon="-0.8984550">
        <ele>411.6</ele>
        <time>2020-10-12T07:08:13Z</time>
      </trkpt>
      <trkpt lat="38.2959280" lon="-0.8984120">
        <ele>411.8</ele>
        <time>2020-10-12T07:08:14Z</time>
      </trkpt>
      <trkpt lat="38.2959950" lon="-0.8983650">
        <ele>412.0</ele>
        <time>2020-10-12T07:08:15Z</time>
      </trkpt>
      <trkpt lat="38.2960570" lon="-0.8983100">
        <ele>412.0</ele>
        <time>2020-10-12T07:08:16Z</time>
      </trkpt>
      <trkpt lat="38.2961150" lon="-0.8982450">
        <ele>412.2</ele>
        <time>2020-10-12T07:08:17Z</time>
      </trkpt>
      <trkpt lat="38.2961660" lon="-0.8981690">
        <ele>412.2</ele>
        <time>2020-10-12T07:08:18Z</time>
      </trkpt>
      <trkpt lat="38.2962130" lon="-0.8980860">
        <ele>412.2</ele>
        <time>2020-10-12T07:08:19Z</time>
      </trkpt>
      <trkpt lat="38.2962590" lon="-0.8980030">
        <ele>412.0</ele>
        <time>2020-10-12T07:08:20Z</time>
      </trkpt>
      <trkpt lat="38.2963040" lon="-0.8979190">
        <ele>412.0</ele>
        <time>2020-10-12T07:08:21Z</time>
      </trkpt>
      <trkpt lat="38.2963500" lon="-0.8978330">
        <ele>412.0</ele>
        <time>2020-10-12T07:08:22Z</time>
      </trkpt>
      <trkpt lat="38.2963960" lon="-0.8977490">
        <ele>412.0</ele>
        <time>2020-10-12T07:08:23Z</time>
      </trkpt>
      <trkpt lat="38.2964390" lon="-0.8976610">
        <ele>411.8</ele>
        <time>2020-10-12T07:08:24Z</time>
      </trkpt>
      <trkpt lat="38.2964830" lon="-0.8975740">
        <ele>411.8</ele>
        <time>2020-10-12T07:08:25Z</time>
      </trkpt>
      <trkpt lat="38.2965280" lon="-0.8974940">
        <ele>411.8</ele>
        <time>2020-10-12T07:08:26Z</time>
      </trkpt>
      <trkpt lat="38.2965730" lon="-0.8974120">
        <ele>411.8</ele>
        <time>2020-10-12T07:08:27Z</time>
      </trkpt>
      <trkpt lat="38.2966180" lon="-0.8973250">
        <ele>411.8</ele>
        <time>2020-10-12T07:08:28Z</time>
      </trkpt>
      <trkpt lat="38.2966630" lon="-0.8972450">
        <ele>412.0</ele>
        <time>2020-10-12T07:08:29Z</time>
      </trkpt>
      <trkpt lat="38.2967080" lon="-0.8971610">
        <ele>412.0</ele>
        <time>2020-10-12T07:08:30Z</time>
      </trkpt>
      <trkpt lat="38.2967530" lon="-0.8970790">
        <ele>412.0</ele>
        <time>2020-10-12T07:08:31Z</time>
      </trkpt>
      <trkpt lat="38.2967970" lon="-0.8969940">
        <ele>412.0</ele>
        <time>2020-10-12T07:08:32Z</time>
      </trkpt>
      <trkpt lat="38.2968390" lon="-0.8969130">
        <ele>412.0</ele>
        <time>2020-10-12T07:08:33Z</time>
      </trkpt>
      <trkpt lat="38.2968830" lon="-0.8968320">
        <ele>412.0</ele>
        <time>2020-10-12T07:08:34Z</time>
      </trkpt>
      <trkpt lat="38.2969260" lon="-0.8967420">
        <ele>412.0</ele>
        <time>2020-10-12T07:08:35Z</time>
      </trkpt>
      <trkpt lat="38.2969680" lon="-0.8966580">
        <ele>412.0</ele>
        <time>2020-10-12T07:08:36Z</time>
      </trkpt>
      <trkpt lat="38.2970130" lon="-0.8965650">
        <ele>412.0</ele>
        <time>2020-10-12T07:08:37Z</time>
      </trkpt>
      <trkpt lat="38.2970570" lon="-0.8964730">
        <ele>412.2</ele>
        <time>2020-10-12T07:08:38Z</time>
      </trkpt>
      <trkpt lat="38.2971010" lon="-0.8963860">
        <ele>412.2</ele>
        <time>2020-10-12T07:08:39Z</time>
      </trkpt>
      <trkpt lat="38.2971450" lon="-0.8963020">
        <ele>412.4</ele>
        <time>2020-10-12T07:08:40Z</time>
      </trkpt>
      <trkpt lat="38.2971930" lon="-0.8962180">
        <ele>412.4</ele>
        <time>2020-10-12T07:08:41Z</time>
      </trkpt>
      <trkpt lat="38.2972410" lon="-0.8961360">
        <ele>412.4</ele>
        <time>2020-10-12T07:08:42Z</time>
      </trkpt>
      <trkpt lat="38.2972880" lon="-0.8960510">
        <ele>412.2</ele>
        <time>2020-10-12T07:08:43Z</time>
      </trkpt>
      <trkpt lat="38.2973350" lon="-0.8959660">
        <ele>412.2</ele>
        <time>2020-10-12T07:08:44Z</time>
      </trkpt>
      <trkpt lat="38.2973810" lon="-0.8958800">
        <ele>412.2</ele>
        <time>2020-10-12T07:08:45Z</time>
      </trkpt>
      <trkpt lat="38.2974220" lon="-0.8957950">
        <ele>412.0</ele>
        <time>2020-10-12T07:08:46Z</time>
      </trkpt>
      <trkpt lat="38.2974670" lon="-0.8957090">
        <ele>412.0</ele>
        <time>2020-10-12T07:08:47Z</time>
      </trkpt>
      <trkpt lat="38.2975140" lon="-0.8956240">
        <ele>412.2</ele>
        <time>2020-10-12T07:08:48Z</time>
      </trkpt>
      <trkpt lat="38.2975600" lon="-0.8955370">
        <ele>412.2</ele>
        <time>2020-10-12T07:08:49Z</time>
      </trkpt>
      <trkpt lat="38.2976060" lon="-0.8954520">
        <ele>412.4</ele>
        <time>2020-10-12T07:08:50Z</time>
      </trkpt>
      <trkpt lat="38.2976550" lon="-0.8953680">
        <ele>412.4</ele>
        <time>2020-10-12T07:08:51Z</time>
      </trkpt>
      <trkpt lat="38.2977030" lon="-0.8952840">
        <ele>412.4</ele>
        <time>2020-10-12T07:08:52Z</time>
      </trkpt>
      <trkpt lat="38.2977510" lon="-0.8952000">
        <ele>412.2</ele>
        <time>2020-10-12T07:08:53Z</time>
      </trkpt>
      <trkpt lat="38.2977990" lon="-0.8951140">
        <ele>412.0</ele>
        <time>2020-10-12T07:08:54Z</time>
      </trkpt>
      <trkpt lat="38.2978450" lon="-0.8950290">
        <ele>411.8</ele>
        <time>2020-10-12T07:08:55Z</time>
      </trkpt>
      <trkpt lat="38.2978900" lon="-0.8949440">
        <ele>411.8</ele>
        <time>2020-10-12T07:08:56Z</time>
      </trkpt>
      <trkpt lat="38.2979360" lon="-0.8948590">
        <ele>411.8</ele>
        <time>2020-10-12T07:08:57Z</time>
      </trkpt>
      <trkpt lat="38.2979840" lon="-0.8947740">
        <ele>411.8</ele>
        <time>2020-10-12T07:08:58Z</time>
      </trkpt>
      <trkpt lat="38.2980310" lon="-0.8946850">
        <ele>411.8</ele>
        <time>2020-10-12T07:08:59Z</time>
      </trkpt>
      <trkpt lat="38.2980790" lon="-0.8945980">
        <ele>411.8</ele>
        <time>2020-10-12T07:09:00Z</time>
      </trkpt>
      <trkpt lat="38.2981240" lon="-0.8945120">
        <ele>411.8</ele>
        <time>2020-10-12T07:09:01Z</time>
      </trkpt>
      <trkpt lat="38.2981690" lon="-0.8944270">
        <ele>411.8</ele>
        <time>2020-10-12T07:09:02Z</time>
      </trkpt>
      <trkpt lat="38.2982140" lon="-0.8943420">
        <ele>412.0</ele>
        <time>2020-10-12T07:09:03Z</time>
      </trkpt>
      <trkpt lat="38.2982610" lon="-0.8942540">
        <ele>412.0</ele>
        <time>2020-10-12T07:09:04Z</time>
      </trkpt>
      <trkpt lat="38.2983090" lon="-0.8941670">
        <ele>412.0</ele>
        <time>2020-10-12T07:09:05Z</time>
      </trkpt>
      <trkpt lat="38.2983520" lon="-0.8940810">
        <ele>411.8</ele>
        <time>2020-10-12T07:09:06Z</time>
      </trkpt>
      <trkpt lat="38.2983990" lon="-0.8939920">
        <ele>411.4</ele>
        <time>2020-10-12T07:09:07Z</time>
      </trkpt>
      <trkpt lat="38.2984480" lon="-0.8939070">
        <ele>411.2</ele>
        <time>2020-10-12T07:09:08Z</time>
      </trkpt>
      <trkpt lat="38.2984990" lon="-0.8938190">
        <ele>411.0</ele>
        <time>2020-10-12T07:09:09Z</time>
      </trkpt>
      <trkpt lat="38.2985500" lon="-0.8937320">
        <ele>410.8</ele>
        <time>2020-10-12T07:09:10Z</time>
      </trkpt>
      <trkpt lat="38.2986020" lon="-0.8936420">
        <ele>410.6</ele>
        <time>2020-10-12T07:09:11Z</time>
      </trkpt>
      <trkpt lat="38.2986550" lon="-0.8935510">
        <ele>410.6</ele>
        <time>2020-10-12T07:09:12Z</time>
      </trkpt>
      <trkpt lat="38.2987070" lon="-0.8934580">
        <ele>410.8</ele>
        <time>2020-10-12T07:09:13Z</time>
      </trkpt>
      <trkpt lat="38.2987590" lon="-0.8933690">
        <ele>410.8</ele>
        <time>2020-10-12T07:09:14Z</time>
      </trkpt>
      <trkpt lat="38.2988100" lon="-0.8932780">
        <ele>410.8</ele>
        <time>2020-10-12T07:09:15Z</time>
      </trkpt>
      <trkpt lat="38.2988630" lon="-0.8931840">
        <ele>410.8</ele>
        <time>2020-10-12T07:09:16Z</time>
      </trkpt>
      <trkpt lat="38.2989140" lon="-0.8930910">
        <ele>410.6</ele>
        <time>2020-10-12T07:09:17Z</time>
      </trkpt>
      <trkpt lat="38.2989670" lon="-0.8930000">
        <ele>410.6</ele>
        <time>2020-10-12T07:09:18Z</time>
      </trkpt>
      <trkpt lat="38.2990210" lon="-0.8929050">
        <ele>410.4</ele>
        <time>2020-10-12T07:09:19Z</time>
      </trkpt>
      <trkpt lat="38.2990730" lon="-0.8928090">
        <ele>410.4</ele>
        <time>2020-10-12T07:09:20Z</time>
      </trkpt>
      <trkpt lat="38.2991240" lon="-0.8927100">
        <ele>410.2</ele>
        <time>2020-10-12T07:09:21Z</time>
      </trkpt>
      <trkpt lat="38.2991760" lon="-0.8926110">
        <ele>410.2</ele>
        <time>2020-10-12T07:09:22Z</time>
      </trkpt>
      <trkpt lat="38.2992290" lon="-0.8925110">
        <ele>410.0</ele>
        <time>2020-10-12T07:09:23Z</time>
      </trkpt>
      <trkpt lat="38.2992830" lon="-0.8924120">
        <ele>409.8</ele>
        <time>2020-10-12T07:09:24Z</time>
      </trkpt>
      <trkpt lat="38.2993370" lon="-0.8923110">
        <ele>409.4</ele>
        <time>2020-10-12T07:09:25Z</time>
      </trkpt>
      <trkpt lat="38.2993890" lon="-0.8922120">
        <ele>409.2</ele>
        <time>2020-10-12T07:09:26Z</time>
      </trkpt>
      <trkpt lat="38.2994410" lon="-0.8921130">
        <ele>408.8</ele>
        <time>2020-10-12T07:09:27Z</time>
      </trkpt>
      <trkpt lat="38.2994940" lon="-0.8920140">
        <ele>408.6</ele>
        <time>2020-10-12T07:09:28Z</time>
      </trkpt>
      <trkpt lat="38.2995450" lon="-0.8919160">
        <ele>408.6</ele>
        <time>2020-10-12T07:09:29Z</time>
      </trkpt>
      <trkpt lat="38.2995980" lon="-0.8918190">
        <ele>408.4</ele>
        <time>2020-10-12T07:09:30Z</time>
      </trkpt>
      <trkpt lat="38.2996490" lon="-0.8917210">
        <ele>408.2</ele>
        <time>2020-10-12T07:09:31Z</time>
      </trkpt>
      <trkpt lat="38.2997010" lon="-0.8916250">
        <ele>408.0</ele>
        <time>2020-10-12T07:09:32Z</time>
      </trkpt>
      <trkpt lat="38.2997540" lon="-0.8915270">
        <ele>407.6</ele>
        <time>2020-10-12T07:09:33Z</time>
      </trkpt>
      <trkpt lat="38.2998060" lon="-0.8914320">
        <ele>407.4</ele>
        <time>2020-10-12T07:09:34Z</time>
      </trkpt>
      <trkpt lat="38.2998580" lon="-0.8913320">
        <ele>407.0</ele>
        <time>2020-10-12T07:09:35Z</time>
      </trkpt>
      <trkpt lat="38.2999100" lon="-0.8912330">
        <ele>406.6</ele>
        <time>2020-10-12T07:09:36Z</time>
      </trkpt>
      <trkpt lat="38.2999640" lon="-0.8911340">
        <ele>406.4</ele>
        <time>2020-10-12T07:09:37Z</time>
      </trkpt>
      <trkpt lat="38.3000190" lon="-0.8910350">
        <ele>406.4</ele>
        <time>2020-10-12T07:09:38Z</time>
      </trkpt>
      <trkpt lat="38.3000740" lon="-0.8909380">
        <ele>406.4</ele>
        <time>2020-10-12T07:09:39Z</time>
      </trkpt>
      <trkpt lat="38.3001280" lon="-0.8908440">
        <ele>406.4</ele>
        <time>2020-10-12T07:09:40Z</time>
      </trkpt>
      <trkpt lat="38.3001810" lon="-0.8907460">
        <ele>406.2</ele>
        <time>2020-10-12T07:09:41Z</time>
      </trkpt>
      <trkpt lat="38.3002330" lon="-0.8906460">
        <ele>406.0</ele>
        <time>2020-10-12T07:09:42Z</time>
      </trkpt>
      <trkpt lat="38.3002860" lon="-0.8905450">
        <ele>406.0</ele>
        <time>2020-10-12T07:09:43Z</time>
      </trkpt>
      <trkpt lat="38.3003380" lon="-0.8904470">
        <ele>406.0</ele>
        <time>2020-10-12T07:09:44Z</time>
      </trkpt>
      <trkpt lat="38.3003910" lon="-0.8903500">
        <ele>406.0</ele>
        <time>2020-10-12T07:09:45Z</time>
      </trkpt>
      <trkpt lat="38.3004430" lon="-0.8902540">
        <ele>406.0</ele>
        <time>2020-10-12T07:09:46Z</time>
      </trkpt>
      <trkpt lat="38.3004960" lon="-0.8901590">
        <ele>405.8</ele>
        <time>2020-10-12T07:09:47Z</time>
      </trkpt>
      <trkpt lat="38.3005480" lon="-0.8900650">
        <ele>405.8</ele>
        <time>2020-10-12T07:09:48Z</time>
      </trkpt>
      <trkpt lat="38.3005990" lon="-0.8899700">
        <ele>406.0</ele>
        <time>2020-10-12T07:09:49Z</time>
      </trkpt>
      <trkpt lat="38.3006510" lon="-0.8898730">
        <ele>406.0</ele>
        <time>2020-10-12T07:09:50Z</time>
      </trkpt>
      <trkpt lat="38.3007030" lon="-0.8897720">
        <ele>406.0</ele>
        <time>2020-10-12T07:09:51Z</time>
      </trkpt>
      <trkpt lat="38.3007560" lon="-0.8896710">
        <ele>406.0</ele>
        <time>2020-10-12T07:09:52Z</time>
      </trkpt>
      <trkpt lat="38.3008070" lon="-0.8895730">
        <ele>406.2</ele>
        <time>2020-10-12T07:09:53Z</time>
      </trkpt>
      <trkpt lat="38.3008540" lon="-0.8894710">
        <ele>406.2</ele>
        <time>2020-10-12T07:09:54Z</time>
      </trkpt>
      <trkpt lat="38.3009020" lon="-0.8893720">
        <ele>406.2</ele>
        <time>2020-10-12T07:09:55Z</time>
      </trkpt>
      <trkpt lat="38.3009470" lon="-0.8892730">
        <ele>406.2</ele>
        <time>2020-10-12T07:09:56Z</time>
      </trkpt>
      <trkpt lat="38.3009890" lon="-0.8891720">
        <ele>406.2</ele>
        <time>2020-10-12T07:09:57Z</time>
      </trkpt>
      <trkpt lat="38.3010300" lon="-0.8890720">
        <ele>406.2</ele>
        <time>2020-10-12T07:09:58Z</time>
      </trkpt>
      <trkpt lat="38.3010690" lon="-0.8889720">
        <ele>406.0</ele>
        <time>2020-10-12T07:09:59Z</time>
      </trkpt>
      <trkpt lat="38.3011080" lon="-0.8888730">
        <ele>405.6</ele>
        <time>2020-10-12T07:10:00Z</time>
      </trkpt>
      <trkpt lat="38.3011450" lon="-0.8887710">
        <ele>405.4</ele>
        <time>2020-10-12T07:10:01Z</time>
      </trkpt>
      <trkpt lat="38.3011810" lon="-0.8886670">
        <ele>405.4</ele>
        <time>2020-10-12T07:10:02Z</time>
      </trkpt>
      <trkpt lat="38.3012180" lon="-0.8885670">
        <ele>405.4</ele>
        <time>2020-10-12T07:10:03Z</time>
      </trkpt>
      <trkpt lat="38.3012590" lon="-0.8884640">
        <ele>405.2</ele>
        <time>2020-10-12T07:10:04Z</time>
      </trkpt>
      <trkpt lat="38.3012990" lon="-0.8883600">
        <ele>405.2</ele>
        <time>2020-10-12T07:10:05Z</time>
      </trkpt>
      <trkpt lat="38.3013390" lon="-0.8882570">
        <ele>405.2</ele>
        <time>2020-10-12T07:10:06Z</time>
      </trkpt>
      <trkpt lat="38.3013760" lon="-0.8881520">
        <ele>405.0</ele>
        <time>2020-10-12T07:10:07Z</time>
      </trkpt>
      <trkpt lat="38.3014150" lon="-0.8880490">
        <ele>405.0</ele>
        <time>2020-10-12T07:10:08Z</time>
      </trkpt>
      <trkpt lat="38.3014570" lon="-0.8879440">
        <ele>404.6</ele>
        <time>2020-10-12T07:10:09Z</time>
      </trkpt>
      <trkpt lat="38.3014980" lon="-0.8878360">
        <ele>404.4</ele>
        <time>2020-10-12T07:10:10Z</time>
      </trkpt>
      <trkpt lat="38.3015400" lon="-0.8877290">
        <ele>404.0</ele>
        <time>2020-10-12T07:10:11Z</time>
      </trkpt>
      <trkpt lat="38.3015820" lon="-0.8876230">
        <ele>403.8</ele>
        <time>2020-10-12T07:10:12Z</time>
      </trkpt>
      <trkpt lat="38.3016230" lon="-0.8875140">
        <ele>403.8</ele>
        <time>2020-10-12T07:10:13Z</time>
      </trkpt>
      <trkpt lat="38.3016640" lon="-0.8874070">
        <ele>403.6</ele>
        <time>2020-10-12T07:10:14Z</time>
      </trkpt>
      <trkpt lat="38.3017040" lon="-0.8872990">
        <ele>403.6</ele>
        <time>2020-10-12T07:10:15Z</time>
      </trkpt>
      <trkpt lat="38.3017460" lon="-0.8871930">
        <ele>403.6</ele>
        <time>2020-10-12T07:10:16Z</time>
      </trkpt>
      <trkpt lat="38.3017890" lon="-0.8870880">
        <ele>403.4</ele>
        <time>2020-10-12T07:10:17Z</time>
      </trkpt>
      <trkpt lat="38.3018340" lon="-0.8869790">
        <ele>403.4</ele>
        <time>2020-10-12T07:10:18Z</time>
      </trkpt>
      <trkpt lat="38.3018780" lon="-0.8868700">
        <ele>403.0</ele>
        <time>2020-10-12T07:10:19Z</time>
      </trkpt>
      <trkpt lat="38.3019220" lon="-0.8867590">
        <ele>403.0</ele>
        <time>2020-10-12T07:10:20Z</time>
      </trkpt>
      <trkpt lat="38.3019670" lon="-0.8866480">
        <ele>402.6</ele>
        <time>2020-10-12T07:10:21Z</time>
      </trkpt>
      <trkpt lat="38.3020100" lon="-0.8865360">
        <ele>402.4</ele>
        <time>2020-10-12T07:10:22Z</time>
      </trkpt>
      <trkpt lat="38.3020530" lon="-0.8864220">
        <ele>402.2</ele>
        <time>2020-10-12T07:10:23Z</time>
      </trkpt>
      <trkpt lat="38.3020970" lon="-0.8863070">
        <ele>402.0</ele>
        <time>2020-10-12T07:10:24Z</time>
      </trkpt>
      <trkpt lat="38.3021420" lon="-0.8861940">
        <ele>402.0</ele>
        <time>2020-10-12T07:10:25Z</time>
      </trkpt>
      <trkpt lat="38.3021870" lon="-0.8860800">
        <ele>401.8</ele>
        <time>2020-10-12T07:10:26Z</time>
      </trkpt>
      <trkpt lat="38.3022330" lon="-0.8859660">
        <ele>401.6</ele>
        <time>2020-10-12T07:10:27Z</time>
      </trkpt>
      <trkpt lat="38.3022770" lon="-0.8858520">
        <ele>401.4</ele>
        <time>2020-10-12T07:10:28Z</time>
      </trkpt>
      <trkpt lat="38.3023240" lon="-0.8857410">
        <ele>400.8</ele>
        <time>2020-10-12T07:10:29Z</time>
      </trkpt>
      <trkpt lat="38.3023710" lon="-0.8856270">
        <ele>400.6</ele>
        <time>2020-10-12T07:10:30Z</time>
      </trkpt>
      <trkpt lat="38.3024150" lon="-0.8855160">
        <ele>400.2</ele>
        <time>2020-10-12T07:10:31Z</time>
      </trkpt>
      <trkpt lat="38.3024600" lon="-0.8854070">
        <ele>399.6</ele>
        <time>2020-10-12T07:10:32Z</time>
      </trkpt>
      <trkpt lat="38.3025030" lon="-0.8852990">
        <ele>399.2</ele>
        <time>2020-10-12T07:10:33Z</time>
      </trkpt>
      <trkpt lat="38.3025500" lon="-0.8851930">
        <ele>398.8</ele>
        <time>2020-10-12T07:10:34Z</time>
      </trkpt>
      <trkpt lat="38.3026010" lon="-0.8850900">
        <ele>398.6</ele>
        <time>2020-10-12T07:10:35Z</time>
      </trkpt>
      <trkpt lat="38.3026580" lon="-0.8849880">
        <ele>398.4</ele>
        <time>2020-10-12T07:10:36Z</time>
      </trkpt>
      <trkpt lat="38.3027210" lon="-0.8848940">
        <ele>398.4</ele>
        <time>2020-10-12T07:10:37Z</time>
      </trkpt>
      <trkpt lat="38.3027880" lon="-0.8848040">
        <ele>398.4</ele>
        <time>2020-10-12T07:10:38Z</time>
      </trkpt>
      <trkpt lat="38.3028570" lon="-0.8847150">
        <ele>398.2</ele>
        <time>2020-10-12T07:10:39Z</time>
      </trkpt>
      <trkpt lat="38.3029270" lon="-0.8846310">
        <ele>398.4</ele>
        <time>2020-10-12T07:10:40Z</time>
      </trkpt>
      <trkpt lat="38.3029950" lon="-0.8845500">
        <ele>398.6</ele>
        <time>2020-10-12T07:10:41Z</time>
      </trkpt>
      <trkpt lat="38.3030640" lon="-0.8844660">
        <ele>398.4</ele>
        <time>2020-10-12T07:10:42Z</time>
      </trkpt>
      <trkpt lat="38.3031340" lon="-0.8843800">
        <ele>398.4</ele>
        <time>2020-10-12T07:10:43Z</time>
      </trkpt>
      <trkpt lat="38.3032040" lon="-0.8842930">
        <ele>398.2</ele>
        <time>2020-10-12T07:10:44Z</time>
      </trkpt>
      <trkpt lat="38.3032740" lon="-0.8842090">
        <ele>398.0</ele>
        <time>2020-10-12T07:10:45Z</time>
      </trkpt>
      <trkpt lat="38.3033450" lon="-0.8841220">
        <ele>397.6</ele>
        <time>2020-10-12T07:10:46Z</time>
      </trkpt>
      <trkpt lat="38.3034160" lon="-0.8840370">
        <ele>397.4</ele>
        <time>2020-10-12T07:10:47Z</time>
      </trkpt>
      <trkpt lat="38.3034880" lon="-0.8839510">
        <ele>397.2</ele>
        <time>2020-10-12T07:10:48Z</time>
      </trkpt>
      <trkpt lat="38.3035600" lon="-0.8838640">
        <ele>397.0</ele>
        <time>2020-10-12T07:10:49Z</time>
      </trkpt>
      <trkpt lat="38.3036320" lon="-0.8837770">
        <ele>396.8</ele>
        <time>2020-10-12T07:10:50Z</time>
      </trkpt>
      <trkpt lat="38.3037040" lon="-0.8836830">
        <ele>396.6</ele>
        <time>2020-10-12T07:10:51Z</time>
      </trkpt>
      <trkpt lat="38.3037740" lon="-0.8835970">
        <ele>396.4</ele>
        <time>2020-10-12T07:10:52Z</time>
      </trkpt>
      <trkpt lat="38.3038460" lon="-0.8835110">
        <ele>396.2</ele>
        <time>2020-10-12T07:10:53Z</time>
      </trkpt>
      <trkpt lat="38.3039150" lon="-0.8834270">
        <ele>396.0</ele>
        <time>2020-10-12T07:10:54Z</time>
      </trkpt>
      <trkpt lat="38.3039850" lon="-0.8833420">
        <ele>396.0</ele>
        <time>2020-10-12T07:10:55Z</time>
      </trkpt>
      <trkpt lat="38.3040550" lon="-0.8832560">
        <ele>395.8</ele>
        <time>2020-10-12T07:10:56Z</time>
      </trkpt>
      <trkpt lat="38.3041250" lon="-0.8831690">
        <ele>395.2</ele>
        <time>2020-10-12T07:10:57Z</time>
      </trkpt>
      <trkpt lat="38.3041930" lon="-0.8830860">
        <ele>395.0</ele>
        <time>2020-10-12T07:10:58Z</time>
      </trkpt>
      <trkpt lat="38.3042630" lon="-0.8830020">
        <ele>394.4</ele>
        <time>2020-10-12T07:10:59Z</time>
      </trkpt>
      <trkpt lat="38.3043320" lon="-0.8829150">
        <ele>394.2</ele>
        <time>2020-10-12T07:11:00Z</time>
      </trkpt>
      <trkpt lat="38.3044020" lon="-0.8828300">
        <ele>394.0</ele>
        <time>2020-10-12T07:11:01Z</time>
      </trkpt>
      <trkpt lat="38.3044720" lon="-0.8827460">
        <ele>394.0</ele>
        <time>2020-10-12T07:11:02Z</time>
      </trkpt>
      <trkpt lat="38.3045420" lon="-0.8826610">
        <ele>393.6</ele>
        <time>2020-10-12T07:11:03Z</time>
      </trkpt>
      <trkpt lat="38.3046120" lon="-0.8825760">
        <ele>393.6</ele>
        <time>2020-10-12T07:11:04Z</time>
      </trkpt>
      <trkpt lat="38.3046830" lon="-0.8824910">
        <ele>393.4</ele>
        <time>2020-10-12T07:11:05Z</time>
      </trkpt>
      <trkpt lat="38.3047550" lon="-0.8824060">
        <ele>393.0</ele>
        <time>2020-10-12T07:11:06Z</time>
      </trkpt>
      <trkpt lat="38.3048250" lon="-0.8823220">
        <ele>392.8</ele>
        <time>2020-10-12T07:11:07Z</time>
      </trkpt>
      <trkpt lat="38.3048960" lon="-0.8822390">
        <ele>392.4</ele>
        <time>2020-10-12T07:11:08Z</time>
      </trkpt>
      <trkpt lat="38.3049660" lon="-0.8821550">
        <ele>392.2</ele>
        <time>2020-10-12T07:11:09Z</time>
      </trkpt>
      <trkpt lat="38.3050370" lon="-0.8820700">
        <ele>392.2</ele>
        <time>2020-10-12T07:11:10Z</time>
      </trkpt>
      <trkpt lat="38.3051080" lon="-0.8819830">
        <ele>392.2</ele>
        <time>2020-10-12T07:11:11Z</time>
      </trkpt>
      <trkpt lat="38.3051810" lon="-0.8818940">
        <ele>392.2</ele>
        <time>2020-10-12T07:11:12Z</time>
      </trkpt>
      <trkpt lat="38.3052550" lon="-0.8818020">
        <ele>392.4</ele>
        <time>2020-10-12T07:11:13Z</time>
      </trkpt>
      <trkpt lat="38.3053270" lon="-0.8817140">
        <ele>392.2</ele>
        <time>2020-10-12T07:11:14Z</time>
      </trkpt>
      <trkpt lat="38.3054000" lon="-0.8816270">
        <ele>392.2</ele>
        <time>2020-10-12T07:11:15Z</time>
      </trkpt>
      <trkpt lat="38.3054750" lon="-0.8815400">
        <ele>391.8</ele>
        <time>2020-10-12T07:11:16Z</time>
      </trkpt>
      <trkpt lat="38.3055490" lon="-0.8814510">
        <ele>391.8</ele>
        <time>2020-10-12T07:11:17Z</time>
      </trkpt>
      <trkpt lat="38.3056220" lon="-0.8813620">
        <ele>391.4</ele>
        <time>2020-10-12T07:11:18Z</time>
      </trkpt>
      <trkpt lat="38.3056950" lon="-0.8812710">
        <ele>391.4</ele>
        <time>2020-10-12T07:11:19Z</time>
      </trkpt>
      <trkpt lat="38.3057660" lon="-0.8811830">
        <ele>391.4</ele>
        <time>2020-10-12T07:11:20Z</time>
      </trkpt>
      <trkpt lat="38.3058350" lon="-0.8810910">
        <ele>391.4</ele>
        <time>2020-10-12T07:11:21Z</time>
      </trkpt>
      <trkpt lat="38.3059060" lon="-0.8810000">
        <ele>391.4</ele>
        <time>2020-10-12T07:11:22Z</time>
      </trkpt>
      <trkpt lat="38.3059780" lon="-0.8809060">
        <ele>391.4</ele>
        <time>2020-10-12T07:11:23Z</time>
      </trkpt>
      <trkpt lat="38.3060470" lon="-0.8808130">
        <ele>391.4</ele>
        <time>2020-10-12T07:11:24Z</time>
      </trkpt>
      <trkpt lat="38.3061190" lon="-0.8807190">
        <ele>391.4</ele>
        <time>2020-10-12T07:11:25Z</time>
      </trkpt>
      <trkpt lat="38.3061920" lon="-0.8806250">
        <ele>391.2</ele>
        <time>2020-10-12T07:11:26Z</time>
      </trkpt>
      <trkpt lat="38.3062610" lon="-0.8805290">
        <ele>391.0</ele>
        <time>2020-10-12T07:11:27Z</time>
      </trkpt>
      <trkpt lat="38.3063300" lon="-0.8804320">
        <ele>390.8</ele>
        <time>2020-10-12T07:11:28Z</time>
      </trkpt>
      <trkpt lat="38.3063990" lon="-0.8803370">
        <ele>390.4</ele>
        <time>2020-10-12T07:11:29Z</time>
      </trkpt>
      <trkpt lat="38.3064670" lon="-0.8802390">
        <ele>389.8</ele>
        <time>2020-10-12T07:11:30Z</time>
      </trkpt>
      <trkpt lat="38.3065360" lon="-0.8801430">
        <ele>389.2</ele>
        <time>2020-10-12T07:11:31Z</time>
      </trkpt>
      <trkpt lat="38.3066040" lon="-0.8800490">
        <ele>389.0</ele>
        <time>2020-10-12T07:11:32Z</time>
      </trkpt>
      <trkpt lat="38.3066690" lon="-0.8799530">
        <ele>388.8</ele>
        <time>2020-10-12T07:11:33Z</time>
      </trkpt>
      <trkpt lat="38.3067330" lon="-0.8798580">
        <ele>388.4</ele>
        <time>2020-10-12T07:11:34Z</time>
      </trkpt>
      <trkpt lat="38.3067970" lon="-0.8797680">
        <ele>388.2</ele>
        <time>2020-10-12T07:11:35Z</time>
      </trkpt>
      <trkpt lat="38.3068590" lon="-0.8796760">
        <ele>388.2</ele>
        <time>2020-10-12T07:11:36Z</time>
      </trkpt>
      <trkpt lat="38.3069200" lon="-0.8795800">
        <ele>388.0</ele>
        <time>2020-10-12T07:11:37Z</time>
      </trkpt>
      <trkpt lat="38.3069830" lon="-0.8794870">
        <ele>387.8</ele>
        <time>2020-10-12T07:11:38Z</time>
      </trkpt>
      <trkpt lat="38.3070470" lon="-0.8793930">
        <ele>387.8</ele>
        <time>2020-10-12T07:11:39Z</time>
      </trkpt>
      <trkpt lat="38.3071120" lon="-0.8793010">
        <ele>387.8</ele>
        <time>2020-10-12T07:11:40Z</time>
      </trkpt>
      <trkpt lat="38.3071760" lon="-0.8792090">
        <ele>387.6</ele>
        <time>2020-10-12T07:11:41Z</time>
      </trkpt>
      <trkpt lat="38.3072400" lon="-0.8791140">
        <ele>387.6</ele>
        <time>2020-10-12T07:11:42Z</time>
      </trkpt>
      <trkpt lat="38.3073040" lon="-0.8790190">
        <ele>387.4</ele>
        <time>2020-10-12T07:11:43Z</time>
      </trkpt>
      <trkpt lat="38.3073670" lon="-0.8789230">
        <ele>387.2</ele>
        <time>2020-10-12T07:11:44Z</time>
      </trkpt>
      <trkpt lat="38.3074310" lon="-0.8788300">
        <ele>387.2</ele>
        <time>2020-10-12T07:11:45Z</time>
      </trkpt>
      <trkpt lat="38.3074950" lon="-0.8787390">
        <ele>387.0</ele>
        <time>2020-10-12T07:11:46Z</time>
      </trkpt>
      <trkpt lat="38.3075570" lon="-0.8786480">
        <ele>386.8</ele>
        <time>2020-10-12T07:11:47Z</time>
      </trkpt>
      <trkpt lat="38.3076230" lon="-0.8785550">
        <ele>386.6</ele>
        <time>2020-10-12T07:11:48Z</time>
      </trkpt>
      <trkpt lat="38.3076890" lon="-0.8784600">
        <ele>386.6</ele>
        <time>2020-10-12T07:11:49Z</time>
      </trkpt>
      <trkpt lat="38.3077540" lon="-0.8783600">
        <ele>386.4</ele>
        <time>2020-10-12T07:11:50Z</time>
      </trkpt>
      <trkpt lat="38.3078180" lon="-0.8782640">
        <ele>386.4</ele>
        <time>2020-10-12T07:11:51Z</time>
      </trkpt>
      <trkpt lat="38.3078820" lon="-0.8781680">
        <ele>386.2</ele>
        <time>2020-10-12T07:11:52Z</time>
      </trkpt>
      <trkpt lat="38.3079470" lon="-0.8780690">
        <ele>386.0</ele>
        <time>2020-10-12T07:11:53Z</time>
      </trkpt>
      <trkpt lat="38.3080100" lon="-0.8779750">
        <ele>386.0</ele>
        <time>2020-10-12T07:11:54Z</time>
      </trkpt>
      <trkpt lat="38.3080710" lon="-0.8778810">
        <ele>385.8</ele>
        <time>2020-10-12T07:11:55Z</time>
      </trkpt>
      <trkpt lat="38.3081340" lon="-0.8777820">
        <ele>385.8</ele>
        <time>2020-10-12T07:11:56Z</time>
      </trkpt>
      <trkpt lat="38.3081950" lon="-0.8776940">
        <ele>385.6</ele>
        <time>2020-10-12T07:11:57Z</time>
      </trkpt>
      <trkpt lat="38.3082580" lon="-0.8776060">
        <ele>385.6</ele>
        <time>2020-10-12T07:11:58Z</time>
      </trkpt>
      <trkpt lat="38.3083190" lon="-0.8775160">
        <ele>385.4</ele>
        <time>2020-10-12T07:11:59Z</time>
      </trkpt>
      <trkpt lat="38.3083820" lon="-0.8774210">
        <ele>385.4</ele>
        <time>2020-10-12T07:12:00Z</time>
      </trkpt>
      <trkpt lat="38.3084440" lon="-0.8773280">
        <ele>385.4</ele>
        <time>2020-10-12T07:12:01Z</time>
      </trkpt>
      <trkpt lat="38.3085080" lon="-0.8772360">
        <ele>385.4</ele>
        <time>2020-10-12T07:12:02Z</time>
      </trkpt>
      <trkpt lat="38.3085740" lon="-0.8771420">
        <ele>385.4</ele>
        <time>2020-10-12T07:12:03Z</time>
      </trkpt>
      <trkpt lat="38.3086390" lon="-0.8770480">
        <ele>385.2</ele>
        <time>2020-10-12T07:12:04Z</time>
      </trkpt>
      <trkpt lat="38.3087020" lon="-0.8769530">
        <ele>385.0</ele>
        <time>2020-10-12T07:12:05Z</time>
      </trkpt>
      <trkpt lat="38.3087650" lon="-0.8768570">
        <ele>384.8</ele>
        <time>2020-10-12T07:12:06Z</time>
      </trkpt>
      <trkpt lat="38.3088270" lon="-0.8767580">
        <ele>384.8</ele>
        <time>2020-10-12T07:12:07Z</time>
      </trkpt>
      <trkpt lat="38.3088880" lon="-0.8766620">
        <ele>384.6</ele>
        <time>2020-10-12T07:12:08Z</time>
      </trkpt>
      <trkpt lat="38.3089470" lon="-0.8765620">
        <ele>384.6</ele>
        <time>2020-10-12T07:12:09Z</time>
      </trkpt>
      <trkpt lat="38.3090070" lon="-0.8764610">
        <ele>384.4</ele>
        <time>2020-10-12T07:12:10Z</time>
      </trkpt>
      <trkpt lat="38.3090690" lon="-0.8763610">
        <ele>384.4</ele>
        <time>2020-10-12T07:12:11Z</time>
      </trkpt>
      <trkpt lat="38.3091320" lon="-0.8762630">
        <ele>384.2</ele>
        <time>2020-10-12T07:12:12Z</time>
      </trkpt>
      <trkpt lat="38.3091950" lon="-0.8761660">
        <ele>384.2</ele>
        <time>2020-10-12T07:12:13Z</time>
      </trkpt>
      <trkpt lat="38.3092620" lon="-0.8760720">
        <ele>384.2</ele>
        <time>2020-10-12T07:12:14Z</time>
      </trkpt>
      <trkpt lat="38.3093290" lon="-0.8759750">
        <ele>383.8</ele>
        <time>2020-10-12T07:12:15Z</time>
      </trkpt>
      <trkpt lat="38.3093950" lon="-0.8758720">
        <ele>383.6</ele>
        <time>2020-10-12T07:12:16Z</time>
      </trkpt>
      <trkpt lat="38.3094600" lon="-0.8757680">
        <ele>383.6</ele>
        <time>2020-10-12T07:12:17Z</time>
      </trkpt>
      <trkpt lat="38.3095240" lon="-0.8756650">
        <ele>383.4</ele>
        <time>2020-10-12T07:12:18Z</time>
      </trkpt>
      <trkpt lat="38.3095890" lon="-0.8755640">
        <ele>383.4</ele>
        <time>2020-10-12T07:12:19Z</time>
      </trkpt>
      <trkpt lat="38.3096530" lon="-0.8754640">
        <ele>383.2</ele>
        <time>2020-10-12T07:12:20Z</time>
      </trkpt>
      <trkpt lat="38.3097200" lon="-0.8753650">
        <ele>383.0</ele>
        <time>2020-10-12T07:12:21Z</time>
      </trkpt>
      <trkpt lat="38.3097840" lon="-0.8752610">
        <ele>383.0</ele>
        <time>2020-10-12T07:12:22Z</time>
      </trkpt>
      <trkpt lat="38.3098470" lon="-0.8751610">
        <ele>382.8</ele>
        <time>2020-10-12T07:12:23Z</time>
      </trkpt>
      <trkpt lat="38.3099080" lon="-0.8750630">
        <ele>382.6</ele>
        <time>2020-10-12T07:12:24Z</time>
      </trkpt>
      <trkpt lat="38.3099680" lon="-0.8749630">
        <ele>382.6</ele>
        <time>2020-10-12T07:12:25Z</time>
      </trkpt>
      <trkpt lat="38.3100260" lon="-0.8748580">
        <ele>382.4</ele>
        <time>2020-10-12T07:12:26Z</time>
      </trkpt>
      <trkpt lat="38.3100810" lon="-0.8747500">
        <ele>382.2</ele>
        <time>2020-10-12T07:12:27Z</time>
      </trkpt>
      <trkpt lat="38.3101320" lon="-0.8746420">
        <ele>382.0</ele>
        <time>2020-10-12T07:12:28Z</time>
      </trkpt>
      <trkpt lat="38.3101790" lon="-0.8745290">
        <ele>381.8</ele>
        <time>2020-10-12T07:12:29Z</time>
      </trkpt>
      <trkpt lat="38.3102210" lon="-0.8744150">
        <ele>381.4</ele>
        <time>2020-10-12T07:12:30Z</time>
      </trkpt>
      <trkpt lat="38.3102580" lon="-0.8743020">
        <ele>381.0</ele>
        <time>2020-10-12T07:12:31Z</time>
      </trkpt>
      <trkpt lat="38.3102920" lon="-0.8741870">
        <ele>380.6</ele>
        <time>2020-10-12T07:12:32Z</time>
      </trkpt>
      <trkpt lat="38.3103240" lon="-0.8740730">
        <ele>380.4</ele>
        <time>2020-10-12T07:12:33Z</time>
      </trkpt>
      <trkpt lat="38.3103550" lon="-0.8739580">
        <ele>380.2</ele>
        <time>2020-10-12T07:12:34Z</time>
      </trkpt>
      <trkpt lat="38.3103850" lon="-0.8738450">
        <ele>380.2</ele>
        <time>2020-10-12T07:12:35Z</time>
      </trkpt>
      <trkpt lat="38.3104180" lon="-0.8737310">
        <ele>380.0</ele>
        <time>2020-10-12T07:12:36Z</time>
      </trkpt>
      <trkpt lat="38.3104530" lon="-0.8736150">
        <ele>379.8</ele>
        <time>2020-10-12T07:12:37Z</time>
      </trkpt>
      <trkpt lat="38.3104860" lon="-0.8735020">
        <ele>380.0</ele>
        <time>2020-10-12T07:12:38Z</time>
      </trkpt>
      <trkpt lat="38.3105210" lon="-0.8733900">
        <ele>380.0</ele>
        <time>2020-10-12T07:12:39Z</time>
      </trkpt>
      <trkpt lat="38.3105570" lon="-0.8732770">
        <ele>379.8</ele>
        <time>2020-10-12T07:12:40Z</time>
      </trkpt>
      <trkpt lat="38.3105910" lon="-0.8731650">
        <ele>379.6</ele>
        <time>2020-10-12T07:12:41Z</time>
      </trkpt>
      <trkpt lat="38.3106230" lon="-0.8730510">
        <ele>379.4</ele>
        <time>2020-10-12T07:12:42Z</time>
      </trkpt>
      <trkpt lat="38.3106540" lon="-0.8729360">
        <ele>379.2</ele>
        <time>2020-10-12T07:12:43Z</time>
      </trkpt>
      <trkpt lat="38.3106880" lon="-0.8728200">
        <ele>378.8</ele>
        <time>2020-10-12T07:12:44Z</time>
      </trkpt>
      <trkpt lat="38.3107230" lon="-0.8727030">
        <ele>378.6</ele>
        <time>2020-10-12T07:12:45Z</time>
      </trkpt>
      <trkpt lat="38.3107580" lon="-0.8725870">
        <ele>378.6</ele>
        <time>2020-10-12T07:12:46Z</time>
      </trkpt>
      <trkpt lat="38.3107930" lon="-0.8724700">
        <ele>378.6</ele>
        <time>2020-10-12T07:12:47Z</time>
      </trkpt>
      <trkpt lat="38.3108270" lon="-0.8723560">
        <ele>378.4</ele>
        <time>2020-10-12T07:12:48Z</time>
      </trkpt>
      <trkpt lat="38.3108620" lon="-0.8722430">
        <ele>378.2</ele>
        <time>2020-10-12T07:12:49Z</time>
      </trkpt>
      <trkpt lat="38.3108960" lon="-0.8721250">
        <ele>378.0</ele>
        <time>2020-10-12T07:12:50Z</time>
      </trkpt>
      <trkpt lat="38.3109290" lon="-0.8720060">
        <ele>378.2</ele>
        <time>2020-10-12T07:12:51Z</time>
      </trkpt>
      <trkpt lat="38.3109570" lon="-0.8718860">
        <ele>378.0</ele>
        <time>2020-10-12T07:12:52Z</time>
      </trkpt>
      <trkpt lat="38.3109810" lon="-0.8717630">
        <ele>378.0</ele>
        <time>2020-10-12T07:12:53Z</time>
      </trkpt>
      <trkpt lat="38.3110010" lon="-0.8716390">
        <ele>377.8</ele>
        <time>2020-10-12T07:12:54Z</time>
      </trkpt>
      <trkpt lat="38.3110190" lon="-0.8715130">
        <ele>377.8</ele>
        <time>2020-10-12T07:12:55Z</time>
      </trkpt>
      <trkpt lat="38.3110360" lon="-0.8713890">
        <ele>377.4</ele>
        <time>2020-10-12T07:12:56Z</time>
      </trkpt>
      <trkpt lat="38.3110550" lon="-0.8712620">
        <ele>377.6</ele>
        <time>2020-10-12T07:12:57Z</time>
      </trkpt>
      <trkpt lat="38.3110740" lon="-0.8711330">
        <ele>377.4</ele>
        <time>2020-10-12T07:12:58Z</time>
      </trkpt>
      <trkpt lat="38.3110930" lon="-0.8710050">
        <ele>377.2</ele>
        <time>2020-10-12T07:12:59Z</time>
      </trkpt>
      <trkpt lat="38.3111100" lon="-0.8708760">
        <ele>377.2</ele>
        <time>2020-10-12T07:13:00Z</time>
      </trkpt>
      <trkpt lat="38.3111240" lon="-0.8707480">
        <ele>377.0</ele>
        <time>2020-10-12T07:13:01Z</time>
      </trkpt>
      <trkpt lat="38.3111390" lon="-0.8706210">
        <ele>377.0</ele>
        <time>2020-10-12T07:13:02Z</time>
      </trkpt>
      <trkpt lat="38.3111530" lon="-0.8704920">
        <ele>377.0</ele>
        <time>2020-10-12T07:13:03Z</time>
      </trkpt>
      <trkpt lat="38.3111680" lon="-0.8703620">
        <ele>376.6</ele>
        <time>2020-10-12T07:13:04Z</time>
      </trkpt>
      <trkpt lat="38.3111830" lon="-0.8702320">
        <ele>376.2</ele>
        <time>2020-10-12T07:13:05Z</time>
      </trkpt>
      <trkpt lat="38.3111990" lon="-0.8701030">
        <ele>376.0</ele>
        <time>2020-10-12T07:13:06Z</time>
      </trkpt>
      <trkpt lat="38.3112170" lon="-0.8699760">
        <ele>375.4</ele>
        <time>2020-10-12T07:13:07Z</time>
      </trkpt>
      <trkpt lat="38.3112350" lon="-0.8698480">
        <ele>375.0</ele>
        <time>2020-10-12T07:13:08Z</time>
      </trkpt>
      <trkpt lat="38.3112510" lon="-0.8697210">
        <ele>374.4</ele>
        <time>2020-10-12T07:13:09Z</time>
      </trkpt>
      <trkpt lat="38.3112690" lon="-0.8695930">
        <ele>374.0</ele>
        <time>2020-10-12T07:13:10Z</time>
      </trkpt>
      <trkpt lat="38.3112850" lon="-0.8694650">
        <ele>373.8</ele>
        <time>2020-10-12T07:13:11Z</time>
      </trkpt>
      <trkpt lat="38.3113020" lon="-0.8693400">
        <ele>373.6</ele>
        <time>2020-10-12T07:13:12Z</time>
      </trkpt>
      <trkpt lat="38.3113160" lon="-0.8692190">
        <ele>373.6</ele>
        <time>2020-10-12T07:13:13Z</time>
      </trkpt>
      <trkpt lat="38.3113320" lon="-0.8690990">
        <ele>373.6</ele>
        <time>2020-10-12T07:13:14Z</time>
      </trkpt>
      <trkpt lat="38.3113480" lon="-0.8689830">
        <ele>373.4</ele>
        <time>2020-10-12T07:13:15Z</time>
      </trkpt>
      <trkpt lat="38.3113620" lon="-0.8688700">
        <ele>373.2</ele>
        <time>2020-10-12T07:13:16Z</time>
      </trkpt>
      <trkpt lat="38.3113740" lon="-0.8687610">
        <ele>373.0</ele>
        <time>2020-10-12T07:13:17Z</time>
      </trkpt>
      <trkpt lat="38.3113820" lon="-0.8686490">
        <ele>372.8</ele>
        <time>2020-10-12T07:13:18Z</time>
      </trkpt>
      <trkpt lat="38.3113830" lon="-0.8685390">
        <ele>372.6</ele>
        <time>2020-10-12T07:13:19Z</time>
      </trkpt>
      <trkpt lat="38.3113810" lon="-0.8684280">
        <ele>372.4</ele>
        <time>2020-10-12T07:13:20Z</time>
      </trkpt>
      <trkpt lat="38.3113720" lon="-0.8683200">
        <ele>372.2</ele>
        <time>2020-10-12T07:13:21Z</time>
      </trkpt>
      <trkpt lat="38.3113570" lon="-0.8682130">
        <ele>371.8</ele>
        <time>2020-10-12T07:13:22Z</time>
      </trkpt>
      <trkpt lat="38.3113360" lon="-0.8681140">
        <ele>371.6</ele>
        <time>2020-10-12T07:13:23Z</time>
      </trkpt>
      <trkpt lat="38.3113120" lon="-0.8680200">
        <ele>371.4</ele>
        <time>2020-10-12T07:13:24Z</time>
      </trkpt>
      <trkpt lat="38.3112870" lon="-0.8679260">
        <ele>371.2</ele>
        <time>2020-10-12T07:13:25Z</time>
      </trkpt>
      <trkpt lat="38.3112620" lon="-0.8678350">
        <ele>371.2</ele>
        <time>2020-10-12T07:13:26Z</time>
      </trkpt>
      <trkpt lat="38.3112390" lon="-0.8677420">
        <ele>371.0</ele>
        <time>2020-10-12T07:13:27Z</time>
      </trkpt>
      <trkpt lat="38.3112140" lon="-0.8676510">
        <ele>371.0</ele>
        <time>2020-10-12T07:13:28Z</time>
      </trkpt>
      <trkpt lat="38.3111890" lon="-0.8675600">
        <ele>370.8</ele>
        <time>2020-10-12T07:13:29Z</time>
      </trkpt>
      <trkpt lat="38.3111640" lon="-0.8674680">
        <ele>370.8</ele>
        <time>2020-10-12T07:13:30Z</time>
      </trkpt>
      <trkpt lat="38.3111380" lon="-0.8673770">
        <ele>370.6</ele>
        <time>2020-10-12T07:13:31Z</time>
      </trkpt>
      <trkpt lat="38.3111140" lon="-0.8672830">
        <ele>370.6</ele>
        <time>2020-10-12T07:13:32Z</time>
      </trkpt>
      <trkpt lat="38.3110900" lon="-0.8671880">
        <ele>370.6</ele>
        <time>2020-10-12T07:13:33Z</time>
      </trkpt>
      <trkpt lat="38.3110620" lon="-0.8670930">
        <ele>370.6</ele>
        <time>2020-10-12T07:13:34Z</time>
      </trkpt>
      <trkpt lat="38.3110330" lon="-0.8670000">
        <ele>370.6</ele>
        <time>2020-10-12T07:13:35Z</time>
      </trkpt>
      <trkpt lat="38.3110060" lon="-0.8669050">
        <ele>370.6</ele>
        <time>2020-10-12T07:13:36Z</time>
      </trkpt>
      <trkpt lat="38.3109820" lon="-0.8668090">
        <ele>370.4</ele>
        <time>2020-10-12T07:13:37Z</time>
      </trkpt>
      <trkpt lat="38.3109590" lon="-0.8667190">
        <ele>370.2</ele>
        <time>2020-10-12T07:13:38Z</time>
      </trkpt>
      <trkpt lat="38.3109350" lon="-0.8666330">
        <ele>369.8</ele>
        <time>2020-10-12T07:13:39Z</time>
      </trkpt>
      <trkpt lat="38.3109110" lon="-0.8665480">
        <ele>369.6</ele>
        <time>2020-10-12T07:13:40Z</time>
      </trkpt>
      <trkpt lat="38.3108880" lon="-0.8664620">
        <ele>369.4</ele>
        <time>2020-10-12T07:13:41Z</time>
      </trkpt>
      <trkpt lat="38.3108640" lon="-0.8663750">
        <ele>369.0</ele>
        <time>2020-10-12T07:13:42Z</time>
      </trkpt>
      <trkpt lat="38.3108400" lon="-0.8662870">
        <ele>368.8</ele>
        <time>2020-10-12T07:13:43Z</time>
      </trkpt>
      <trkpt lat="38.3108160" lon="-0.8661990">
        <ele>368.6</ele>
        <time>2020-10-12T07:13:44Z</time>
      </trkpt>
      <trkpt lat="38.3107930" lon="-0.8661130">
        <ele>368.2</ele>
        <time>2020-10-12T07:13:45Z</time>
      </trkpt>
      <trkpt lat="38.3107710" lon="-0.8660290">
        <ele>368.0</ele>
        <time>2020-10-12T07:13:46Z</time>
      </trkpt>
      <trkpt lat="38.3107490" lon="-0.8659470">
        <ele>368.0</ele>
        <time>2020-10-12T07:13:47Z</time>
      </trkpt>
      <trkpt lat="38.3107270" lon="-0.8658620">
        <ele>367.8</ele>
        <time>2020-10-12T07:13:48Z</time>
      </trkpt>
      <trkpt lat="38.3107020" lon="-0.8657790">
        <ele>367.6</ele>
        <time>2020-10-12T07:13:49Z</time>
      </trkpt>
      <trkpt lat="38.3106780" lon="-0.8656960">
        <ele>367.4</ele>
        <time>2020-10-12T07:13:50Z</time>
      </trkpt>
      <trkpt lat="38.3106540" lon="-0.8656140">
        <ele>367.4</ele>
        <time>2020-10-12T07:13:51Z</time>
      </trkpt>
      <trkpt lat="38.3106300" lon="-0.8655330">
        <ele>367.4</ele>
        <time>2020-10-12T07:13:52Z</time>
      </trkpt>
      <trkpt lat="38.3106080" lon="-0.8654510">
        <ele>367.2</ele>
        <time>2020-10-12T07:13:53Z</time>
      </trkpt>
      <trkpt lat="38.3105850" lon="-0.8653700">
        <ele>367.2</ele>
        <time>2020-10-12T07:13:54Z</time>
      </trkpt>
      <trkpt lat="38.3105630" lon="-0.8652890">
        <ele>367.0</ele>
        <time>2020-10-12T07:13:55Z</time>
      </trkpt>
      <trkpt lat="38.3105410" lon="-0.8652070">
        <ele>367.0</ele>
        <time>2020-10-12T07:13:56Z</time>
      </trkpt>
      <trkpt lat="38.3105190" lon="-0.8651260">
        <ele>367.0</ele>
        <time>2020-10-12T07:13:57Z</time>
      </trkpt>
      <trkpt lat="38.3104950" lon="-0.8650470">
        <ele>366.6</ele>
        <time>2020-10-12T07:13:58Z</time>
      </trkpt>
      <trkpt lat="38.3104720" lon="-0.8649700">
        <ele>366.4</ele>
        <time>2020-10-12T07:13:59Z</time>
      </trkpt>
      <trkpt lat="38.3104510" lon="-0.8648950">
        <ele>366.4</ele>
        <time>2020-10-12T07:14:00Z</time>
      </trkpt>
      <trkpt lat="38.3104300" lon="-0.8648200">
        <ele>366.2</ele>
        <time>2020-10-12T07:14:01Z</time>
      </trkpt>
      <trkpt lat="38.3104120" lon="-0.8647430">
        <ele>366.2</ele>
        <time>2020-10-12T07:14:02Z</time>
      </trkpt>
      <trkpt lat="38.3103950" lon="-0.8646670">
        <ele>366.0</ele>
        <time>2020-10-12T07:14:03Z</time>
      </trkpt>
      <trkpt lat="38.3103710" lon="-0.8645880">
        <ele>366.2</ele>
        <time>2020-10-12T07:14:04Z</time>
      </trkpt>
      <trkpt lat="38.3103490" lon="-0.8645040">
        <ele>366.4</ele>
        <time>2020-10-12T07:14:05Z</time>
      </trkpt>
      <trkpt lat="38.3103290" lon="-0.8644100">
        <ele>366.8</ele>
        <time>2020-10-12T07:14:06Z</time>
      </trkpt>
      <trkpt lat="38.3103010" lon="-0.8643210">
        <ele>366.6</ele>
        <time>2020-10-12T07:14:07Z</time>
      </trkpt>
      <trkpt lat="38.3102760" lon="-0.8642300">
        <ele>366.6</ele>
        <time>2020-10-12T07:14:08Z</time>
      </trkpt>
      <trkpt lat="38.3102510" lon="-0.8641400">
        <ele>366.8</ele>
        <time>2020-10-12T07:14:09Z</time>
      </trkpt>
      <trkpt lat="38.3102280" lon="-0.8640450">
        <ele>367.0</ele>
        <time>2020-10-12T07:14:10Z</time>
      </trkpt>
      <trkpt lat="38.3102020" lon="-0.8639520">
        <ele>366.6</ele>
        <time>2020-10-12T07:14:11Z</time>
      </trkpt>
      <trkpt lat="38.3101770" lon="-0.8638620">
        <ele>366.6</ele>
        <time>2020-10-12T07:14:12Z</time>
      </trkpt>
      <trkpt lat="38.3101540" lon="-0.8637730">
        <ele>366.4</ele>
        <time>2020-10-12T07:14:13Z</time>
      </trkpt>
      <trkpt lat="38.3101310" lon="-0.8636830">
        <ele>366.2</ele>
        <time>2020-10-12T07:14:14Z</time>
      </trkpt>
      <trkpt lat="38.3101100" lon="-0.8635980">
        <ele>366.2</ele>
        <time>2020-10-12T07:14:15Z</time>
      </trkpt>
      <trkpt lat="38.3100890" lon="-0.8635110">
        <ele>365.6</ele>
        <time>2020-10-12T07:14:16Z</time>
      </trkpt>
      <trkpt lat="38.3100680" lon="-0.8634260">
        <ele>364.8</ele>
        <time>2020-10-12T07:14:17Z</time>
      </trkpt>
      <trkpt lat="38.3100440" lon="-0.8633420">
        <ele>364.2</ele>
        <time>2020-10-12T07:14:18Z</time>
      </trkpt>
      <trkpt lat="38.3100200" lon="-0.8632550">
        <ele>364.0</ele>
        <time>2020-10-12T07:14:19Z</time>
      </trkpt>
      <trkpt lat="38.3099960" lon="-0.8631670">
        <ele>363.8</ele>
        <time>2020-10-12T07:14:20Z</time>
      </trkpt>
      <trkpt lat="38.3099730" lon="-0.8630770">
        <ele>363.8</ele>
        <time>2020-10-12T07:14:21Z</time>
      </trkpt>
      <trkpt lat="38.3099500" lon="-0.8629880">
        <ele>363.8</ele>
        <time>2020-10-12T07:14:22Z</time>
      </trkpt>
      <trkpt lat="38.3099260" lon="-0.8628990">
        <ele>363.8</ele>
        <time>2020-10-12T07:14:23Z</time>
      </trkpt>
      <trkpt lat="38.3099020" lon="-0.8628100">
        <ele>363.6</ele>
        <time>2020-10-12T07:14:24Z</time>
      </trkpt>
      <trkpt lat="38.3098790" lon="-0.8627210">
        <ele>363.6</ele>
        <time>2020-10-12T07:14:25Z</time>
      </trkpt>
      <trkpt lat="38.3098570" lon="-0.8626330">
        <ele>363.4</ele>
        <time>2020-10-12T07:14:26Z</time>
      </trkpt>
      <trkpt lat="38.3098340" lon="-0.8625430">
        <ele>363.2</ele>
        <time>2020-10-12T07:14:27Z</time>
      </trkpt>
      <trkpt lat="38.3098100" lon="-0.8624530">
        <ele>363.2</ele>
        <time>2020-10-12T07:14:28Z</time>
      </trkpt>
      <trkpt lat="38.3097870" lon="-0.8623590">
        <ele>363.2</ele>
        <time>2020-10-12T07:14:29Z</time>
      </trkpt>
      <trkpt lat="38.3097640" lon="-0.8622660">
        <ele>363.2</ele>
        <time>2020-10-12T07:14:30Z</time>
      </trkpt>
      <trkpt lat="38.3097380" lon="-0.8621740">
        <ele>363.2</ele>
        <time>2020-10-12T07:14:31Z</time>
      </trkpt>
      <trkpt lat="38.3097130" lon="-0.8620820">
        <ele>363.2</ele>
        <time>2020-10-12T07:14:32Z</time>
      </trkpt>
      <trkpt lat="38.3096910" lon="-0.8619900">
        <ele>363.2</ele>
        <time>2020-10-12T07:14:33Z</time>
      </trkpt>
      <trkpt lat="38.3096720" lon="-0.8618990">
        <ele>363.2</ele>
        <time>2020-10-12T07:14:34Z</time>
      </trkpt>
      <trkpt lat="38.3096540" lon="-0.8618060">
        <ele>363.2</ele>
        <time>2020-10-12T07:14:35Z</time>
      </trkpt>
      <trkpt lat="38.3096340" lon="-0.8617130">
        <ele>363.0</ele>
        <time>2020-10-12T07:14:36Z</time>
      </trkpt>
      <trkpt lat="38.3096160" lon="-0.8616170">
        <ele>363.0</ele>
        <time>2020-10-12T07:14:37Z</time>
      </trkpt>
      <trkpt lat="38.3096010" lon="-0.8615240">
        <ele>363.0</ele>
        <time>2020-10-12T07:14:38Z</time>
      </trkpt>
      <trkpt lat="38.3095850" lon="-0.8614300">
        <ele>363.0</ele>
        <time>2020-10-12T07:14:39Z</time>
      </trkpt>
      <trkpt lat="38.3095710" lon="-0.8613340">
        <ele>363.0</ele>
        <time>2020-10-12T07:14:40Z</time>
      </trkpt>
      <trkpt lat="38.3095570" lon="-0.8612380">
        <ele>363.2</ele>
        <time>2020-10-12T07:14:41Z</time>
      </trkpt>
      <trkpt lat="38.3095420" lon="-0.8611450">
        <ele>363.4</ele>
        <time>2020-10-12T07:14:42Z</time>
      </trkpt>
      <trkpt lat="38.3095280" lon="-0.8610520">
        <ele>363.4</ele>
        <time>2020-10-12T07:14:43Z</time>
      </trkpt>
      <trkpt lat="38.3095140" lon="-0.8609580">
        <ele>363.6</ele>
        <time>2020-10-12T07:14:44Z</time>
      </trkpt>
      <trkpt lat="38.3094980" lon="-0.8608630">
        <ele>363.6</ele>
        <time>2020-10-12T07:14:45Z</time>
      </trkpt>
      <trkpt lat="38.3094830" lon="-0.8607720">
        <ele>363.6</ele>
        <time>2020-10-12T07:14:46Z</time>
      </trkpt>
      <trkpt lat="38.3094670" lon="-0.8606740">
        <ele>363.6</ele>
        <time>2020-10-12T07:14:47Z</time>
      </trkpt>
      <trkpt lat="38.3094520" lon="-0.8605780">
        <ele>363.6</ele>
        <time>2020-10-12T07:14:48Z</time>
      </trkpt>
      <trkpt lat="38.3094380" lon="-0.8604830">
        <ele>363.6</ele>
        <time>2020-10-12T07:14:49Z</time>
      </trkpt>
      <trkpt lat="38.3094230" lon="-0.8603870">
        <ele>363.4</ele>
        <time>2020-10-12T07:14:50Z</time>
      </trkpt>
      <trkpt lat="38.3094060" lon="-0.8602890">
        <ele>363.2</ele>
        <time>2020-10-12T07:14:51Z</time>
      </trkpt>
      <trkpt lat="38.3093910" lon="-0.8601910">
        <ele>363.2</ele>
        <time>2020-10-12T07:14:52Z</time>
      </trkpt>
      <trkpt lat="38.3093750" lon="-0.8600940">
        <ele>363.0</ele>
        <time>2020-10-12T07:14:53Z</time>
      </trkpt>
      <trkpt lat="38.3093600" lon="-0.8600010">
        <ele>363.0</ele>
        <time>2020-10-12T07:14:54Z</time>
      </trkpt>
      <trkpt lat="38.3093470" lon="-0.8599080">
        <ele>362.8</ele>
        <time>2020-10-12T07:14:55Z</time>
      </trkpt>
      <trkpt lat="38.3093300" lon="-0.8598150">
        <ele>362.6</ele>
        <time>2020-10-12T07:14:56Z</time>
      </trkpt>
      <trkpt lat="38.3093140" lon="-0.8597180">
        <ele>362.4</ele>
        <time>2020-10-12T07:14:57Z</time>
      </trkpt>
      <trkpt lat="38.3093000" lon="-0.8596130">
        <ele>362.0</ele>
        <time>2020-10-12T07:14:58Z</time>
      </trkpt>
      <trkpt lat="38.3092840" lon="-0.8595120">
        <ele>361.6</ele>
        <time>2020-10-12T07:14:59Z</time>
      </trkpt>
      <trkpt lat="38.3092670" lon="-0.8594140">
        <ele>361.4</ele>
        <time>2020-10-12T07:15:00Z</time>
      </trkpt>
      <trkpt lat="38.3092510" lon="-0.8593170">
        <ele>361.2</ele>
        <time>2020-10-12T07:15:01Z</time>
      </trkpt>
      <trkpt lat="38.3092370" lon="-0.8592190">
        <ele>361.2</ele>
        <time>2020-10-12T07:15:02Z</time>
      </trkpt>
      <trkpt lat="38.3092250" lon="-0.8591210">
        <ele>361.2</ele>
        <time>2020-10-12T07:15:03Z</time>
      </trkpt>
      <trkpt lat="38.3092160" lon="-0.8590240">
        <ele>361.2</ele>
        <time>2020-10-12T07:15:04Z</time>
      </trkpt>
      <trkpt lat="38.3092080" lon="-0.8589250">
        <ele>361.2</ele>
        <time>2020-10-12T07:15:05Z</time>
      </trkpt>
      <trkpt lat="38.3092010" lon="-0.8588230">
        <ele>361.2</ele>
        <time>2020-10-12T07:15:06Z</time>
      </trkpt>
      <trkpt lat="38.3091950" lon="-0.8587220">
        <ele>361.2</ele>
        <time>2020-10-12T07:15:07Z</time>
      </trkpt>
      <trkpt lat="38.3091910" lon="-0.8586230">
        <ele>361.2</ele>
        <time>2020-10-12T07:15:08Z</time>
      </trkpt>
      <trkpt lat="38.3091870" lon="-0.8585240">
        <ele>361.2</ele>
        <time>2020-10-12T07:15:09Z</time>
      </trkpt>
      <trkpt lat="38.3091830" lon="-0.8584220">
        <ele>361.2</ele>
        <time>2020-10-12T07:15:10Z</time>
      </trkpt>
      <trkpt lat="38.3091770" lon="-0.8583220">
        <ele>361.0</ele>
        <time>2020-10-12T07:15:11Z</time>
      </trkpt>
      <trkpt lat="38.3091740" lon="-0.8582230">
        <ele>361.0</ele>
        <time>2020-10-12T07:15:12Z</time>
      </trkpt>
      <trkpt lat="38.3091710" lon="-0.8581240">
        <ele>361.0</ele>
        <time>2020-10-12T07:15:13Z</time>
      </trkpt>
      <trkpt lat="38.3091690" lon="-0.8580250">
        <ele>361.0</ele>
        <time>2020-10-12T07:15:14Z</time>
      </trkpt>
      <trkpt lat="38.3091630" lon="-0.8579290">
        <ele>361.2</ele>
        <time>2020-10-12T07:15:15Z</time>
      </trkpt>
      <trkpt lat="38.3091570" lon="-0.8578320">
        <ele>361.2</ele>
        <time>2020-10-12T07:15:16Z</time>
      </trkpt>
      <trkpt lat="38.3091540" lon="-0.8577320">
        <ele>361.2</ele>
        <time>2020-10-12T07:15:17Z</time>
      </trkpt>
      <trkpt lat="38.3091500" lon="-0.8576320">
        <ele>361.2</ele>
        <time>2020-10-12T07:15:18Z</time>
      </trkpt>
      <trkpt lat="38.3091450" lon="-0.8575310">
        <ele>361.2</ele>
        <time>2020-10-12T07:15:19Z</time>
      </trkpt>
      <trkpt lat="38.3091400" lon="-0.8574300">
        <ele>361.0</ele>
        <time>2020-10-12T07:15:20Z</time>
      </trkpt>
      <trkpt lat="38.3091330" lon="-0.8573290">
        <ele>361.0</ele>
        <time>2020-10-12T07:15:21Z</time>
      </trkpt>
      <trkpt lat="38.3091250" lon="-0.8572290">
        <ele>360.8</ele>
        <time>2020-10-12T07:15:22Z</time>
      </trkpt>
      <trkpt lat="38.3091150" lon="-0.8571250">
        <ele>360.8</ele>
        <time>2020-10-12T07:15:23Z</time>
      </trkpt>
      <trkpt lat="38.3091040" lon="-0.8570250">
        <ele>360.8</ele>
        <time>2020-10-12T07:15:24Z</time>
      </trkpt>
      <trkpt lat="38.3090910" lon="-0.8569280">
        <ele>361.0</ele>
        <time>2020-10-12T07:15:25Z</time>
      </trkpt>
      <trkpt lat="38.3090770" lon="-0.8568300">
        <ele>361.0</ele>
        <time>2020-10-12T07:15:26Z</time>
      </trkpt>
      <trkpt lat="38.3090620" lon="-0.8567380">
        <ele>361.2</ele>
        <time>2020-10-12T07:15:27Z</time>
      </trkpt>
      <trkpt lat="38.3090460" lon="-0.8566440">
        <ele>361.4</ele>
        <time>2020-10-12T07:15:28Z</time>
      </trkpt>
      <trkpt lat="38.3090290" lon="-0.8565520">
        <ele>361.8</ele>
        <time>2020-10-12T07:15:29Z</time>
      </trkpt>
      <trkpt lat="38.3090130" lon="-0.8564640">
        <ele>362.2</ele>
        <time>2020-10-12T07:15:30Z</time>
      </trkpt>
      <trkpt lat="38.3089990" lon="-0.8563760">
        <ele>362.6</ele>
        <time>2020-10-12T07:15:31Z</time>
      </trkpt>
      <trkpt lat="38.3089850" lon="-0.8562910">
        <ele>362.8</ele>
        <time>2020-10-12T07:15:32Z</time>
      </trkpt>
      <trkpt lat="38.3089710" lon="-0.8562120">
        <ele>363.2</ele>
        <time>2020-10-12T07:15:33Z</time>
      </trkpt>
      <trkpt lat="38.3089560" lon="-0.8561370">
        <ele>363.0</ele>
        <time>2020-10-12T07:15:34Z</time>
      </trkpt>
      <trkpt lat="38.3089410" lon="-0.8560580">
        <ele>363.2</ele>
        <time>2020-10-12T07:15:35Z</time>
      </trkpt>
      <trkpt lat="38.3089280" lon="-0.8559780">
        <ele>363.2</ele>
        <time>2020-10-12T07:15:36Z</time>
      </trkpt>
      <trkpt lat="38.3089150" lon="-0.8558970">
        <ele>363.2</ele>
        <time>2020-10-12T07:15:37Z</time>
      </trkpt>
      <trkpt lat="38.3089030" lon="-0.8558180">
        <ele>363.4</ele>
        <time>2020-10-12T07:15:38Z</time>
      </trkpt>
      <trkpt lat="38.3088890" lon="-0.8557380">
        <ele>363.4</ele>
        <time>2020-10-12T07:15:39Z</time>
      </trkpt>
      <trkpt lat="38.3088740" lon="-0.8556580">
        <ele>363.2</ele>
        <time>2020-10-12T07:15:40Z</time>
      </trkpt>
      <trkpt lat="38.3088580" lon="-0.8555760">
        <ele>363.2</ele>
        <time>2020-10-12T07:15:41Z</time>
      </trkpt>
      <trkpt lat="38.3088430" lon="-0.8554940">
        <ele>363.0</ele>
        <time>2020-10-12T07:15:42Z</time>
      </trkpt>
      <trkpt lat="38.3088280" lon="-0.8554130">
        <ele>362.8</ele>
        <time>2020-10-12T07:15:43Z</time>
      </trkpt>
      <trkpt lat="38.3088190" lon="-0.8553230">
        <ele>362.8</ele>
        <time>2020-10-12T07:15:44Z</time>
      </trkpt>
      <trkpt lat="38.3088020" lon="-0.8552400">
        <ele>362.8</ele>
        <time>2020-10-12T07:15:45Z</time>
      </trkpt>
      <trkpt lat="38.3087840" lon="-0.8551520">
        <ele>362.8</ele>
        <time>2020-10-12T07:15:46Z</time>
      </trkpt>
      <trkpt lat="38.3087620" lon="-0.8550660">
        <ele>362.8</ele>
        <time>2020-10-12T07:15:47Z</time>
      </trkpt>
      <trkpt lat="38.3087390" lon="-0.8549810">
        <ele>363.0</ele>
        <time>2020-10-12T07:15:48Z</time>
      </trkpt>
      <trkpt lat="38.3087190" lon="-0.8548960">
        <ele>363.0</ele>
        <time>2020-10-12T07:15:49Z</time>
      </trkpt>
      <trkpt lat="38.3087020" lon="-0.8548120">
        <ele>363.0</ele>
        <time>2020-10-12T07:15:50Z</time>
      </trkpt>
      <trkpt lat="38.3086910" lon="-0.8547250">
        <ele>363.2</ele>
        <time>2020-10-12T07:15:51Z</time>
      </trkpt>
      <trkpt lat="38.3086840" lon="-0.8546390">
        <ele>363.4</ele>
        <time>2020-10-12T07:15:52Z</time>
      </trkpt>
      <trkpt lat="38.3086830" lon="-0.8545530">
        <ele>363.6</ele>
        <time>2020-10-12T07:15:53Z</time>
      </trkpt>
      <trkpt lat="38.3086840" lon="-0.8544690">
        <ele>363.8</ele>
        <time>2020-10-12T07:15:54Z</time>
      </trkpt>
      <trkpt lat="38.3086900" lon="-0.8543890">
        <ele>363.8</ele>
        <time>2020-10-12T07:15:55Z</time>
      </trkpt>
      <trkpt lat="38.3086980" lon="-0.8543100">
        <ele>364.0</ele>
        <time>2020-10-12T07:15:56Z</time>
      </trkpt>
      <trkpt lat="38.3087070" lon="-0.8542380">
        <ele>364.2</ele>
        <time>2020-10-12T07:15:57Z</time>
      </trkpt>
      <trkpt lat="38.3087150" lon="-0.8541730">
        <ele>364.4</ele>
        <time>2020-10-12T07:15:58Z</time>
      </trkpt>
      <trkpt lat="38.3087220" lon="-0.8541130">
        <ele>364.4</ele>
        <time>2020-10-12T07:15:59Z</time>
      </trkpt>
      <trkpt lat="38.3087340" lon="-0.8540450">
        <ele>364.6</ele>
        <time>2020-10-12T07:16:00Z</time>
      </trkpt>
      <trkpt lat="38.3087420" lon="-0.8539880">
        <ele>364.8</ele>
        <time>2020-10-12T07:16:01Z</time>
      </trkpt>
      <trkpt lat="38.3087480" lon="-0.8539340">
        <ele>364.8</ele>
        <time>2020-10-12T07:16:02Z</time>
      </trkpt>
      <trkpt lat="38.3087380" lon="-0.8539050">
        <ele>365.0</ele>
        <time>2020-10-12T07:16:03Z</time>
      </trkpt>
      <trkpt lat="38.3087320" lon="-0.8538890">
        <ele>365.0</ele>
        <time>2020-10-12T07:16:04Z</time>
      </trkpt>
      <trkpt lat="38.3087310" lon="-0.8538900">
        <ele>365.0</ele>
        <time>2020-10-12T07:16:05Z</time>
      </trkpt>
      <trkpt lat="38.3087360" lon="-0.8538800">
        <ele>365.0</ele>
        <time>2020-10-12T07:16:06Z</time>
      </trkpt>
      <trkpt lat="38.3087350" lon="-0.8538760">
        <ele>365.0</ele>
        <time>2020-10-12T07:16:07Z</time>
      </trkpt>
      <trkpt lat="38.3087400" lon="-0.8538790">
        <ele>365.0</ele>
        <time>2020-10-12T07:16:08Z</time>
      </trkpt>
      <trkpt lat="38.3087400" lon="-0.8538810">
        <ele>365.0</ele>
        <time>2020-10-12T07:16:09Z</time>
      </trkpt>
      <trkpt lat="38.3087400" lon="-0.8538810">
        <ele>365.2</ele>
        <time>2020-10-12T07:17:04Z</time>
      </trkpt>
      <trkpt lat="38.3087400" lon="-0.8538810">
        <ele>365.2</ele>
        <time>2020-10-12T07:17:05Z</time>
      </trkpt>
      <trkpt lat="38.3087400" lon="-0.8538810">
        <ele>365.2</ele>
        <time>2020-10-12T07:17:06Z</time>
      </trkpt>
      <trkpt lat="38.3087400" lon="-0.8538810">
        <ele>365.2</ele>
        <time>2020-10-12T07:17:07Z</time>
      </trkpt>
      <trkpt lat="38.3087430" lon="-0.8538720">
        <ele>365.2</ele>
        <time>2020-10-12T07:17:08Z</time>
      </trkpt>
      <trkpt lat="38.3087500" lon="-0.8538570">
        <ele>365.2</ele>
        <time>2020-10-12T07:17:09Z</time>
      </trkpt>
      <trkpt lat="38.3087540" lon="-0.8538370">
        <ele>365.2</ele>
        <time>2020-10-12T07:17:10Z</time>
      </trkpt>
      <trkpt lat="38.3087580" lon="-0.8538140">
        <ele>365.0</ele>
        <time>2020-10-12T07:17:11Z</time>
      </trkpt>
      <trkpt lat="38.3087580" lon="-0.8537890">
        <ele>365.0</ele>
        <time>2020-10-12T07:17:12Z</time>
      </trkpt>
      <trkpt lat="38.3087580" lon="-0.8537550">
        <ele>365.0</ele>
        <time>2020-10-12T07:17:13Z</time>
      </trkpt>
      <trkpt lat="38.3087600" lon="-0.8537180">
        <ele>365.0</ele>
        <time>2020-10-12T07:17:14Z</time>
      </trkpt>
      <trkpt lat="38.3087700" lon="-0.8536790">
        <ele>365.0</ele>
        <time>2020-10-12T07:17:15Z</time>
      </trkpt>
      <trkpt lat="38.3087780" lon="-0.8536330">
        <ele>365.0</ele>
        <time>2020-10-12T07:17:16Z</time>
      </trkpt>
      <trkpt lat="38.3087860" lon="-0.8535900">
        <ele>365.2</ele>
        <time>2020-10-12T07:17:17Z</time>
      </trkpt>
      <trkpt lat="38.3087920" lon="-0.8535460">
        <ele>365.4</ele>
        <time>2020-10-12T07:17:18Z</time>
      </trkpt>
      <trkpt lat="38.3088060" lon="-0.8534810">
        <ele>365.4</ele>
        <time>2020-10-12T07:17:19Z</time>
      </trkpt>
      <trkpt lat="38.3088130" lon="-0.8534260">
        <ele>365.4</ele>
        <time>2020-10-12T07:17:20Z</time>
      </trkpt>
      <trkpt lat="38.3088110" lon="-0.8533690">
        <ele>365.6</ele>
        <time>2020-10-12T07:17:21Z</time>
      </trkpt>
      <trkpt lat="38.3088140" lon="-0.8533140">
        <ele>365.6</ele>
        <time>2020-10-12T07:17:22Z</time>
      </trkpt>
      <trkpt lat="38.3088200" lon="-0.8532560">
        <ele>365.6</ele>
        <time>2020-10-12T07:17:23Z</time>
      </trkpt>
      <trkpt lat="38.3088300" lon="-0.8531940">
        <ele>365.6</ele>
        <time>2020-10-12T07:17:24Z</time>
      </trkpt>
      <trkpt lat="38.3088380" lon="-0.8531390">
        <ele>365.6</ele>
        <time>2020-10-12T07:17:25Z</time>
      </trkpt>
      <trkpt lat="38.3088440" lon="-0.8530760">
        <ele>365.6</ele>
        <time>2020-10-12T07:17:26Z</time>
      </trkpt>
      <trkpt lat="38.3088520" lon="-0.8530170">
        <ele>365.4</ele>
        <time>2020-10-12T07:17:27Z</time>
      </trkpt>
      <trkpt lat="38.3088590" lon="-0.8529570">
        <ele>365.2</ele>
        <time>2020-10-12T07:17:28Z</time>
      </trkpt>
      <trkpt lat="38.3088660" lon="-0.8528980">
        <ele>364.8</ele>
        <time>2020-10-12T07:17:29Z</time>
      </trkpt>
      <trkpt lat="38.3088730" lon="-0.8528390">
        <ele>364.6</ele>
        <time>2020-10-12T07:17:30Z</time>
      </trkpt>
      <trkpt lat="38.3088830" lon="-0.8527710">
        <ele>364.4</ele>
        <time>2020-10-12T07:17:31Z</time>
      </trkpt>
      <trkpt lat="38.3088960" lon="-0.8526970">
        <ele>364.2</ele>
        <time>2020-10-12T07:17:32Z</time>
      </trkpt>
      <trkpt lat="38.3089130" lon="-0.8526180">
        <ele>364.0</ele>
        <time>2020-10-12T07:17:33Z</time>
      </trkpt>
      <trkpt lat="38.3089340" lon="-0.8525350">
        <ele>363.8</ele>
        <time>2020-10-12T07:17:34Z</time>
      </trkpt>
      <trkpt lat="38.3089550" lon="-0.8524540">
        <ele>363.6</ele>
        <time>2020-10-12T07:17:35Z</time>
      </trkpt>
      <trkpt lat="38.3089830" lon="-0.8523710">
        <ele>363.2</ele>
        <time>2020-10-12T07:17:36Z</time>
      </trkpt>
      <trkpt lat="38.3090140" lon="-0.8522910">
        <ele>363.2</ele>
        <time>2020-10-12T07:17:37Z</time>
      </trkpt>
      <trkpt lat="38.3090470" lon="-0.8522060">
        <ele>363.0</ele>
        <time>2020-10-12T07:17:38Z</time>
      </trkpt>
      <trkpt lat="38.3090860" lon="-0.8521110">
        <ele>362.6</ele>
        <time>2020-10-12T07:17:39Z</time>
      </trkpt>
      <trkpt lat="38.3091190" lon="-0.8520170">
        <ele>362.2</ele>
        <time>2020-10-12T07:17:40Z</time>
      </trkpt>
      <trkpt lat="38.3091550" lon="-0.8519210">
        <ele>361.8</ele>
        <time>2020-10-12T07:17:41Z</time>
      </trkpt>
      <trkpt lat="38.3092050" lon="-0.8518110">
        <ele>361.6</ele>
        <time>2020-10-12T07:17:42Z</time>
      </trkpt>
      <trkpt lat="38.3092400" lon="-0.8517080">
        <ele>361.4</ele>
        <time>2020-10-12T07:17:43Z</time>
      </trkpt>
      <trkpt lat="38.3092760" lon="-0.8515960">
        <ele>361.0</ele>
        <time>2020-10-12T07:17:44Z</time>
      </trkpt>
      <trkpt lat="38.3093120" lon="-0.8514810">
        <ele>360.8</ele>
        <time>2020-10-12T07:17:45Z</time>
      </trkpt>
      <trkpt lat="38.3093480" lon="-0.8513740">
        <ele>360.4</ele>
        <time>2020-10-12T07:17:46Z</time>
      </trkpt>
      <trkpt lat="38.3093850" lon="-0.8512660">
        <ele>359.8</ele>
        <time>2020-10-12T07:17:47Z</time>
      </trkpt>
      <trkpt lat="38.3094220" lon="-0.8511520">
        <ele>359.2</ele>
        <time>2020-10-12T07:17:48Z</time>
      </trkpt>
      <trkpt lat="38.3094620" lon="-0.8510370">
        <ele>358.6</ele>
        <time>2020-10-12T07:17:49Z</time>
      </trkpt>
      <trkpt lat="38.3095030" lon="-0.8509260">
        <ele>358.4</ele>
        <time>2020-10-12T07:17:50Z</time>
      </trkpt>
      <trkpt lat="38.3095440" lon="-0.8508160">
        <ele>358.2</ele>
        <time>2020-10-12T07:17:51Z</time>
      </trkpt>
      <trkpt lat="38.3095810" lon="-0.8507070">
        <ele>358.0</ele>
        <time>2020-10-12T07:17:52Z</time>
      </trkpt>
      <trkpt lat="38.3096200" lon="-0.8505930">
        <ele>357.4</ele>
        <time>2020-10-12T07:17:53Z</time>
      </trkpt>
      <trkpt lat="38.3096600" lon="-0.8504820">
        <ele>356.8</ele>
        <time>2020-10-12T07:17:54Z</time>
      </trkpt>
      <trkpt lat="38.3097020" lon="-0.8503720">
        <ele>356.0</ele>
        <time>2020-10-12T07:17:55Z</time>
      </trkpt>
      <trkpt lat="38.3097440" lon="-0.8502610">
        <ele>355.4</ele>
        <time>2020-10-12T07:17:56Z</time>
      </trkpt>
      <trkpt lat="38.3097870" lon="-0.8501480">
        <ele>354.6</ele>
        <time>2020-10-12T07:17:57Z</time>
      </trkpt>
      <trkpt lat="38.3098300" lon="-0.8500340">
        <ele>353.8</ele>
        <time>2020-10-12T07:17:58Z</time>
      </trkpt>
      <trkpt lat="38.3098740" lon="-0.8499220">
        <ele>353.2</ele>
        <time>2020-10-12T07:17:59Z</time>
      </trkpt>
      <trkpt lat="38.3099160" lon="-0.8498120">
        <ele>352.8</ele>
        <time>2020-10-12T07:18:00Z</time>
      </trkpt>
      <trkpt lat="38.3099580" lon="-0.8497040">
        <ele>352.6</ele>
        <time>2020-10-12T07:18:01Z</time>
      </trkpt>
      <trkpt lat="38.3099990" lon="-0.8495960">
        <ele>352.4</ele>
        <time>2020-10-12T07:18:02Z</time>
      </trkpt>
      <trkpt lat="38.3100410" lon="-0.8494860">
        <ele>352.2</ele>
        <time>2020-10-12T07:18:03Z</time>
      </trkpt>
      <trkpt lat="38.3100810" lon="-0.8493760">
        <ele>352.2</ele>
        <time>2020-10-12T07:18:04Z</time>
      </trkpt>
      <trkpt lat="38.3101200" lon="-0.8492690">
        <ele>352.4</ele>
        <time>2020-10-12T07:18:05Z</time>
      </trkpt>
      <trkpt lat="38.3101570" lon="-0.8491620">
        <ele>352.4</ele>
        <time>2020-10-12T07:18:06Z</time>
      </trkpt>
      <trkpt lat="38.3101940" lon="-0.8490540">
        <ele>352.4</ele>
        <time>2020-10-12T07:18:07Z</time>
      </trkpt>
      <trkpt lat="38.3102280" lon="-0.8489500">
        <ele>352.4</ele>
        <time>2020-10-12T07:18:08Z</time>
      </trkpt>
      <trkpt lat="38.3102690" lon="-0.8488410">
        <ele>352.4</ele>
        <time>2020-10-12T07:18:09Z</time>
      </trkpt>
      <trkpt lat="38.3103030" lon="-0.8487340">
        <ele>352.2</ele>
        <time>2020-10-12T07:18:10Z</time>
      </trkpt>
      <trkpt lat="38.3103320" lon="-0.8486260">
        <ele>352.0</ele>
        <time>2020-10-12T07:18:11Z</time>
      </trkpt>
      <trkpt lat="38.3103600" lon="-0.8485200">
        <ele>351.6</ele>
        <time>2020-10-12T07:18:12Z</time>
      </trkpt>
      <trkpt lat="38.3103870" lon="-0.8484120">
        <ele>351.4</ele>
        <time>2020-10-12T07:18:13Z</time>
      </trkpt>
      <trkpt lat="38.3104100" lon="-0.8483060">
        <ele>351.2</ele>
        <time>2020-10-12T07:18:14Z</time>
      </trkpt>
      <trkpt lat="38.3104290" lon="-0.8481970">
        <ele>351.2</ele>
        <time>2020-10-12T07:18:15Z</time>
      </trkpt>
      <trkpt lat="38.3104480" lon="-0.8480790">
        <ele>351.2</ele>
        <time>2020-10-12T07:18:16Z</time>
      </trkpt>
      <trkpt lat="38.3104620" lon="-0.8479690">
        <ele>351.4</ele>
        <time>2020-10-12T07:18:17Z</time>
      </trkpt>
      <trkpt lat="38.3104780" lon="-0.8478600">
        <ele>351.6</ele>
        <time>2020-10-12T07:18:18Z</time>
      </trkpt>
      <trkpt lat="38.3104920" lon="-0.8477510">
        <ele>351.8</ele>
        <time>2020-10-12T07:18:19Z</time>
      </trkpt>
      <trkpt lat="38.3105040" lon="-0.8476410">
        <ele>351.8</ele>
        <time>2020-10-12T07:18:20Z</time>
      </trkpt>
      <trkpt lat="38.3105100" lon="-0.8475330">
        <ele>351.8</ele>
        <time>2020-10-12T07:18:21Z</time>
      </trkpt>
      <trkpt lat="38.3105180" lon="-0.8474260">
        <ele>352.0</ele>
        <time>2020-10-12T07:18:22Z</time>
      </trkpt>
      <trkpt lat="38.3105270" lon="-0.8473200">
        <ele>351.8</ele>
        <time>2020-10-12T07:18:23Z</time>
      </trkpt>
      <trkpt lat="38.3105310" lon="-0.8472100">
        <ele>351.8</ele>
        <time>2020-10-12T07:18:24Z</time>
      </trkpt>
      <trkpt lat="38.3105400" lon="-0.8471160">
        <ele>351.8</ele>
        <time>2020-10-12T07:18:25Z</time>
      </trkpt>
      <trkpt lat="38.3105410" lon="-0.8470130">
        <ele>351.6</ele>
        <time>2020-10-12T07:18:26Z</time>
      </trkpt>
      <trkpt lat="38.3105440" lon="-0.8469100">
        <ele>351.4</ele>
        <time>2020-10-12T07:18:27Z</time>
      </trkpt>
      <trkpt lat="38.3105490" lon="-0.8468070">
        <ele>351.4</ele>
        <time>2020-10-12T07:18:28Z</time>
      </trkpt>
      <trkpt lat="38.3105520" lon="-0.8467040">
        <ele>351.4</ele>
        <time>2020-10-12T07:18:29Z</time>
      </trkpt>
      <trkpt lat="38.3105540" lon="-0.8466010">
        <ele>351.2</ele>
        <time>2020-10-12T07:18:30Z</time>
      </trkpt>
      <trkpt lat="38.3105600" lon="-0.8464980">
        <ele>351.0</ele>
        <time>2020-10-12T07:18:31Z</time>
      </trkpt>
      <trkpt lat="38.3105660" lon="-0.8463940">
        <ele>351.0</ele>
        <time>2020-10-12T07:18:32Z</time>
      </trkpt>
      <trkpt lat="38.3105710" lon="-0.8462890">
        <ele>350.8</ele>
        <time>2020-10-12T07:18:33Z</time>
      </trkpt>
      <trkpt lat="38.3105720" lon="-0.8461830">
        <ele>350.8</ele>
        <time>2020-10-12T07:18:34Z</time>
      </trkpt>
      <trkpt lat="38.3105730" lon="-0.8460770">
        <ele>350.6</ele>
        <time>2020-10-12T07:18:35Z</time>
      </trkpt>
      <trkpt lat="38.3105710" lon="-0.8459710">
        <ele>350.4</ele>
        <time>2020-10-12T07:18:36Z</time>
      </trkpt>
      <trkpt lat="38.3105680" lon="-0.8458660">
        <ele>350.4</ele>
        <time>2020-10-12T07:18:37Z</time>
      </trkpt>
      <trkpt lat="38.3105650" lon="-0.8457610">
        <ele>350.4</ele>
        <time>2020-10-12T07:18:38Z</time>
      </trkpt>
      <trkpt lat="38.3105610" lon="-0.8456570">
        <ele>350.4</ele>
        <time>2020-10-12T07:18:39Z</time>
      </trkpt>
      <trkpt lat="38.3105570" lon="-0.8455570">
        <ele>350.4</ele>
        <time>2020-10-12T07:18:40Z</time>
      </trkpt>
      <trkpt lat="38.3105530" lon="-0.8454590">
        <ele>350.4</ele>
        <time>2020-10-12T07:18:41Z</time>
      </trkpt>
      <trkpt lat="38.3105500" lon="-0.8453610">
        <ele>350.4</ele>
        <time>2020-10-12T07:18:42Z</time>
      </trkpt>
      <trkpt lat="38.3105460" lon="-0.8452630">
        <ele>350.4</ele>
        <time>2020-10-12T07:18:43Z</time>
      </trkpt>
      <trkpt lat="38.3105410" lon="-0.8451650">
        <ele>350.6</ele>
        <time>2020-10-12T07:18:44Z</time>
      </trkpt>
      <trkpt lat="38.3105350" lon="-0.8450670">
        <ele>351.0</ele>
        <time>2020-10-12T07:18:45Z</time>
      </trkpt>
      <trkpt lat="38.3105300" lon="-0.8449700">
        <ele>351.2</ele>
        <time>2020-10-12T07:18:46Z</time>
      </trkpt>
      <trkpt lat="38.3105270" lon="-0.8448740">
        <ele>351.4</ele>
        <time>2020-10-12T07:18:47Z</time>
      </trkpt>
      <trkpt lat="38.3105240" lon="-0.8447790">
        <ele>351.6</ele>
        <time>2020-10-12T07:18:48Z</time>
      </trkpt>
      <trkpt lat="38.3105200" lon="-0.8446870">
        <ele>351.6</ele>
        <time>2020-10-12T07:18:49Z</time>
      </trkpt>
      <trkpt lat="38.3105130" lon="-0.8445960">
        <ele>351.6</ele>
        <time>2020-10-12T07:18:50Z</time>
      </trkpt>
      <trkpt lat="38.3105060" lon="-0.8445050">
        <ele>351.6</ele>
        <time>2020-10-12T07:18:51Z</time>
      </trkpt>
      <trkpt lat="38.3104950" lon="-0.8444150">
        <ele>351.6</ele>
        <time>2020-10-12T07:18:52Z</time>
      </trkpt>
      <trkpt lat="38.3104830" lon="-0.8443270">
        <ele>351.6</ele>
        <time>2020-10-12T07:18:53Z</time>
      </trkpt>
      <trkpt lat="38.3104690" lon="-0.8442400">
        <ele>351.8</ele>
        <time>2020-10-12T07:18:54Z</time>
      </trkpt>
      <trkpt lat="38.3104520" lon="-0.8441520">
        <ele>351.8</ele>
        <time>2020-10-12T07:18:55Z</time>
      </trkpt>
      <trkpt lat="38.3104310" lon="-0.8440680">
        <ele>351.8</ele>
        <time>2020-10-12T07:18:56Z</time>
      </trkpt>
      <trkpt lat="38.3104030" lon="-0.8439850">
        <ele>351.8</ele>
        <time>2020-10-12T07:18:57Z</time>
      </trkpt>
      <trkpt lat="38.3103630" lon="-0.8439120">
        <ele>351.8</ele>
        <time>2020-10-12T07:18:58Z</time>
      </trkpt>
      <trkpt lat="38.3103100" lon="-0.8438480">
        <ele>351.8</ele>
        <time>2020-10-12T07:18:59Z</time>
      </trkpt>
      <trkpt lat="38.3102610" lon="-0.8437790">
        <ele>352.0</ele>
        <time>2020-10-12T07:19:00Z</time>
      </trkpt>
      <trkpt lat="38.3102140" lon="-0.8437090">
        <ele>352.0</ele>
        <time>2020-10-12T07:19:01Z</time>
      </trkpt>
      <trkpt lat="38.3101810" lon="-0.8436290">
        <ele>352.2</ele>
        <time>2020-10-12T07:19:02Z</time>
      </trkpt>
      <trkpt lat="38.3101670" lon="-0.8435360">
        <ele>352.4</ele>
        <time>2020-10-12T07:19:03Z</time>
      </trkpt>
      <trkpt lat="38.3101790" lon="-0.8434430">
        <ele>352.4</ele>
        <time>2020-10-12T07:19:04Z</time>
      </trkpt>
      <trkpt lat="38.3102070" lon="-0.8433610">
        <ele>352.6</ele>
        <time>2020-10-12T07:19:05Z</time>
      </trkpt>
      <trkpt lat="38.3102430" lon="-0.8432830">
        <ele>352.6</ele>
        <time>2020-10-12T07:19:06Z</time>
      </trkpt>
      <trkpt lat="38.3102770" lon="-0.8432120">
        <ele>352.6</ele>
        <time>2020-10-12T07:19:07Z</time>
      </trkpt>
      <trkpt lat="38.3103080" lon="-0.8431350">
        <ele>352.4</ele>
        <time>2020-10-12T07:19:08Z</time>
      </trkpt>
      <trkpt lat="38.3103310" lon="-0.8430570">
        <ele>352.2</ele>
        <time>2020-10-12T07:19:09Z</time>
      </trkpt>
      <trkpt lat="38.3103490" lon="-0.8429800">
        <ele>352.0</ele>
        <time>2020-10-12T07:19:10Z</time>
      </trkpt>
      <trkpt lat="38.3103620" lon="-0.8429050">
        <ele>352.0</ele>
        <time>2020-10-12T07:19:11Z</time>
      </trkpt>
      <trkpt lat="38.3103730" lon="-0.8428300">
        <ele>352.0</ele>
        <time>2020-10-12T07:19:12Z</time>
      </trkpt>
      <trkpt lat="38.3103800" lon="-0.8427540">
        <ele>352.0</ele>
        <time>2020-10-12T07:19:13Z</time>
      </trkpt>
      <trkpt lat="38.3103850" lon="-0.8426790">
        <ele>352.2</ele>
        <time>2020-10-12T07:19:14Z</time>
      </trkpt>
      <trkpt lat="38.3103880" lon="-0.8426050">
        <ele>352.6</ele>
        <time>2020-10-12T07:19:15Z</time>
      </trkpt>
      <trkpt lat="38.3103910" lon="-0.8425310">
        <ele>352.8</ele>
        <time>2020-10-12T07:19:16Z</time>
      </trkpt>
      <trkpt lat="38.3103920" lon="-0.8424540">
        <ele>353.2</ele>
        <time>2020-10-12T07:19:17Z</time>
      </trkpt>
      <trkpt lat="38.3103910" lon="-0.8423750">
        <ele>353.2</ele>
        <time>2020-10-12T07:19:18Z</time>
      </trkpt>
      <trkpt lat="38.3103870" lon="-0.8422980">
        <ele>353.4</ele>
        <time>2020-10-12T07:19:19Z</time>
      </trkpt>
      <trkpt lat="38.3103850" lon="-0.8422210">
        <ele>353.4</ele>
        <time>2020-10-12T07:19:20Z</time>
      </trkpt>
      <trkpt lat="38.3103830" lon="-0.8421440">
        <ele>353.4</ele>
        <time>2020-10-12T07:19:21Z</time>
      </trkpt>
      <trkpt lat="38.3103820" lon="-0.8420680">
        <ele>353.4</ele>
        <time>2020-10-12T07:19:22Z</time>
      </trkpt>
      <trkpt lat="38.3103810" lon="-0.8419900">
        <ele>353.4</ele>
        <time>2020-10-12T07:19:23Z</time>
      </trkpt>
      <trkpt lat="38.3103790" lon="-0.8419140">
        <ele>353.6</ele>
        <time>2020-10-12T07:19:24Z</time>
      </trkpt>
      <trkpt lat="38.3103760" lon="-0.8418350">
        <ele>353.6</ele>
        <time>2020-10-12T07:19:25Z</time>
      </trkpt>
      <trkpt lat="38.3103730" lon="-0.8417570">
        <ele>353.8</ele>
        <time>2020-10-12T07:19:26Z</time>
      </trkpt>
      <trkpt lat="38.3103720" lon="-0.8416790">
        <ele>353.8</ele>
        <time>2020-10-12T07:19:27Z</time>
      </trkpt>
      <trkpt lat="38.3103710" lon="-0.8416040">
        <ele>354.0</ele>
        <time>2020-10-12T07:19:28Z</time>
      </trkpt>
      <trkpt lat="38.3103700" lon="-0.8415260">
        <ele>354.2</ele>
        <time>2020-10-12T07:19:29Z</time>
      </trkpt>
      <trkpt lat="38.3103680" lon="-0.8414500">
        <ele>354.4</ele>
        <time>2020-10-12T07:19:30Z</time>
      </trkpt>
      <trkpt lat="38.3103640" lon="-0.8413720">
        <ele>354.6</ele>
        <time>2020-10-12T07:19:31Z</time>
      </trkpt>
      <trkpt lat="38.3103580" lon="-0.8412960">
        <ele>354.6</ele>
        <time>2020-10-12T07:19:32Z</time>
      </trkpt>
      <trkpt lat="38.3103540" lon="-0.8412170">
        <ele>354.6</ele>
        <time>2020-10-12T07:19:33Z</time>
      </trkpt>
      <trkpt lat="38.3103510" lon="-0.8411390">
        <ele>354.2</ele>
        <time>2020-10-12T07:19:34Z</time>
      </trkpt>
      <trkpt lat="38.3103490" lon="-0.8410610">
        <ele>354.0</ele>
        <time>2020-10-12T07:19:35Z</time>
      </trkpt>
      <trkpt lat="38.3103480" lon="-0.8409860">
        <ele>353.6</ele>
        <time>2020-10-12T07:19:36Z</time>
      </trkpt>
      <trkpt lat="38.3103460" lon="-0.8409120">
        <ele>353.4</ele>
        <time>2020-10-12T07:19:37Z</time>
      </trkpt>
      <trkpt lat="38.3103430" lon="-0.8408360">
        <ele>353.4</ele>
        <time>2020-10-12T07:19:38Z</time>
      </trkpt>
      <trkpt lat="38.3103420" lon="-0.8407590">
        <ele>353.4</ele>
        <time>2020-10-12T07:19:39Z</time>
      </trkpt>
      <trkpt lat="38.3103400" lon="-0.8406830">
        <ele>353.4</ele>
        <time>2020-10-12T07:19:40Z</time>
      </trkpt>
      <trkpt lat="38.3103360" lon="-0.8406070">
        <ele>353.6</ele>
        <time>2020-10-12T07:19:41Z</time>
      </trkpt>
      <trkpt lat="38.3103300" lon="-0.8405310">
        <ele>353.6</ele>
        <time>2020-10-12T07:19:42Z</time>
      </trkpt>
      <trkpt lat="38.3103240" lon="-0.8404540">
        <ele>353.6</ele>
        <time>2020-10-12T07:19:43Z</time>
      </trkpt>
      <trkpt lat="38.3103200" lon="-0.8403770">
        <ele>353.8</ele>
        <time>2020-10-12T07:19:44Z</time>
      </trkpt>
      <trkpt lat="38.3103190" lon="-0.8403000">
        <ele>354.0</ele>
        <time>2020-10-12T07:19:45Z</time>
      </trkpt>
      <trkpt lat="38.3103190" lon="-0.8402230">
        <ele>354.0</ele>
        <time>2020-10-12T07:19:46Z</time>
      </trkpt>
      <trkpt lat="38.3103180" lon="-0.8401430">
        <ele>354.2</ele>
        <time>2020-10-12T07:19:47Z</time>
      </trkpt>
      <trkpt lat="38.3103180" lon="-0.8400640">
        <ele>354.4</ele>
        <time>2020-10-12T07:19:48Z</time>
      </trkpt>
      <trkpt lat="38.3103200" lon="-0.8399860">
        <ele>354.6</ele>
        <time>2020-10-12T07:19:49Z</time>
      </trkpt>
      <trkpt lat="38.3103210" lon="-0.8399090">
        <ele>354.8</ele>
        <time>2020-10-12T07:19:50Z</time>
      </trkpt>
      <trkpt lat="38.3103240" lon="-0.8398330">
        <ele>355.0</ele>
        <time>2020-10-12T07:19:51Z</time>
      </trkpt>
      <trkpt lat="38.3103260" lon="-0.8397590">
        <ele>355.0</ele>
        <time>2020-10-12T07:19:52Z</time>
      </trkpt>
      <trkpt lat="38.3103310" lon="-0.8396820">
        <ele>355.2</ele>
        <time>2020-10-12T07:19:53Z</time>
      </trkpt>
      <trkpt lat="38.3103370" lon="-0.8396070">
        <ele>355.6</ele>
        <time>2020-10-12T07:19:54Z</time>
      </trkpt>
      <trkpt lat="38.3103440" lon="-0.8395310">
        <ele>355.8</ele>
        <time>2020-10-12T07:19:55Z</time>
      </trkpt>
      <trkpt lat="38.3103510" lon="-0.8394560">
        <ele>356.0</ele>
        <time>2020-10-12T07:19:56Z</time>
      </trkpt>
      <trkpt lat="38.3103600" lon="-0.8393810">
        <ele>356.2</ele>
        <time>2020-10-12T07:19:57Z</time>
      </trkpt>
      <trkpt lat="38.3103710" lon="-0.8393090">
        <ele>356.4</ele>
        <time>2020-10-12T07:19:58Z</time>
      </trkpt>
      <trkpt lat="38.3103840" lon="-0.8392360">
        <ele>356.8</ele>
        <time>2020-10-12T07:19:59Z</time>
      </trkpt>
      <trkpt lat="38.3103980" lon="-0.8391630">
        <ele>357.0</ele>
        <time>2020-10-12T07:20:00Z</time>
      </trkpt>
      <trkpt lat="38.3104110" lon="-0.8390910">
        <ele>357.2</ele>
        <time>2020-10-12T07:20:01Z</time>
      </trkpt>
      <trkpt lat="38.3104250" lon="-0.8390190">
        <ele>357.4</ele>
        <time>2020-10-12T07:20:02Z</time>
      </trkpt>
      <trkpt lat="38.3104400" lon="-0.8389490">
        <ele>357.4</ele>
        <time>2020-10-12T07:20:03Z</time>
      </trkpt>
      <trkpt lat="38.3104570" lon="-0.8388780">
        <ele>357.6</ele>
        <time>2020-10-12T07:20:04Z</time>
      </trkpt>
      <trkpt lat="38.3104750" lon="-0.8388080">
        <ele>357.6</ele>
        <time>2020-10-12T07:20:05Z</time>
      </trkpt>
      <trkpt lat="38.3104960" lon="-0.8387390">
        <ele>357.8</ele>
        <time>2020-10-12T07:20:06Z</time>
      </trkpt>
      <trkpt lat="38.3105170" lon="-0.8386700">
        <ele>357.8</ele>
        <time>2020-10-12T07:20:07Z</time>
      </trkpt>
      <trkpt lat="38.3105370" lon="-0.8386010">
        <ele>358.0</ele>
        <time>2020-10-12T07:20:08Z</time>
      </trkpt>
      <trkpt lat="38.3105580" lon="-0.8385310">
        <ele>358.2</ele>
        <time>2020-10-12T07:20:09Z</time>
      </trkpt>
      <trkpt lat="38.3105790" lon="-0.8384640">
        <ele>358.4</ele>
        <time>2020-10-12T07:20:10Z</time>
      </trkpt>
      <trkpt lat="38.3106000" lon="-0.8383970">
        <ele>358.8</ele>
        <time>2020-10-12T07:20:11Z</time>
      </trkpt>
      <trkpt lat="38.3106200" lon="-0.8383300">
        <ele>359.0</ele>
        <time>2020-10-12T07:20:12Z</time>
      </trkpt>
      <trkpt lat="38.3106390" lon="-0.8382670">
        <ele>359.2</ele>
        <time>2020-10-12T07:20:13Z</time>
      </trkpt>
      <trkpt lat="38.3106570" lon="-0.8382020">
        <ele>359.4</ele>
        <time>2020-10-12T07:20:14Z</time>
      </trkpt>
      <trkpt lat="38.3106780" lon="-0.8381370">
        <ele>359.4</ele>
        <time>2020-10-12T07:20:15Z</time>
      </trkpt>
      <trkpt lat="38.3106990" lon="-0.8380700">
        <ele>359.6</ele>
        <time>2020-10-12T07:20:16Z</time>
      </trkpt>
      <trkpt lat="38.3107200" lon="-0.8380010">
        <ele>359.6</ele>
        <time>2020-10-12T07:20:17Z</time>
      </trkpt>
      <trkpt lat="38.3107410" lon="-0.8379300">
        <ele>359.8</ele>
        <time>2020-10-12T07:20:18Z</time>
      </trkpt>
      <trkpt lat="38.3107610" lon="-0.8378590">
        <ele>360.0</ele>
        <time>2020-10-12T07:20:19Z</time>
      </trkpt>
      <trkpt lat="38.3107830" lon="-0.8377860">
        <ele>360.0</ele>
        <time>2020-10-12T07:20:20Z</time>
      </trkpt>
      <trkpt lat="38.3108050" lon="-0.8377130">
        <ele>360.2</ele>
        <time>2020-10-12T07:20:21Z</time>
      </trkpt>
      <trkpt lat="38.3108240" lon="-0.8376410">
        <ele>360.2</ele>
        <time>2020-10-12T07:20:22Z</time>
      </trkpt>
      <trkpt lat="38.3108440" lon="-0.8375670">
        <ele>360.2</ele>
        <time>2020-10-12T07:20:23Z</time>
      </trkpt>
      <trkpt lat="38.3108670" lon="-0.8374920">
        <ele>360.2</ele>
        <time>2020-10-12T07:20:24Z</time>
      </trkpt>
      <trkpt lat="38.3108900" lon="-0.8374190">
        <ele>360.2</ele>
        <time>2020-10-12T07:20:25Z</time>
      </trkpt>
      <trkpt lat="38.3109110" lon="-0.8373430">
        <ele>360.4</ele>
        <time>2020-10-12T07:20:26Z</time>
      </trkpt>
      <trkpt lat="38.3109340" lon="-0.8372670">
        <ele>360.4</ele>
        <time>2020-10-12T07:20:27Z</time>
      </trkpt>
      <trkpt lat="38.3109590" lon="-0.8371910">
        <ele>360.4</ele>
        <time>2020-10-12T07:20:28Z</time>
      </trkpt>
      <trkpt lat="38.3109820" lon="-0.8371130">
        <ele>360.4</ele>
        <time>2020-10-12T07:20:29Z</time>
      </trkpt>
      <trkpt lat="38.3110040" lon="-0.8370350">
        <ele>360.6</ele>
        <time>2020-10-12T07:20:30Z</time>
      </trkpt>
      <trkpt lat="38.3110270" lon="-0.8369570">
        <ele>360.6</ele>
        <time>2020-10-12T07:20:31Z</time>
      </trkpt>
      <trkpt lat="38.3110490" lon="-0.8368780">
        <ele>360.8</ele>
        <time>2020-10-12T07:20:32Z</time>
      </trkpt>
      <trkpt lat="38.3110710" lon="-0.8367980">
        <ele>361.0</ele>
        <time>2020-10-12T07:20:33Z</time>
      </trkpt>
      <trkpt lat="38.3110960" lon="-0.8367180">
        <ele>361.0</ele>
        <time>2020-10-12T07:20:34Z</time>
      </trkpt>
      <trkpt lat="38.3111210" lon="-0.8366370">
        <ele>361.2</ele>
        <time>2020-10-12T07:20:35Z</time>
      </trkpt>
      <trkpt lat="38.3111440" lon="-0.8365480">
        <ele>361.2</ele>
        <time>2020-10-12T07:20:36Z</time>
      </trkpt>
      <trkpt lat="38.3111660" lon="-0.8364590">
        <ele>361.2</ele>
        <time>2020-10-12T07:20:37Z</time>
      </trkpt>
      <trkpt lat="38.3111830" lon="-0.8363650">
        <ele>361.2</ele>
        <time>2020-10-12T07:20:38Z</time>
      </trkpt>
      <trkpt lat="38.3111940" lon="-0.8362650">
        <ele>361.0</ele>
        <time>2020-10-12T07:20:39Z</time>
      </trkpt>
      <trkpt lat="38.3111990" lon="-0.8361580">
        <ele>361.0</ele>
        <time>2020-10-12T07:20:40Z</time>
      </trkpt>
      <trkpt lat="38.3111960" lon="-0.8360470">
        <ele>360.8</ele>
        <time>2020-10-12T07:20:41Z</time>
      </trkpt>
      <trkpt lat="38.3111840" lon="-0.8359360">
        <ele>360.6</ele>
        <time>2020-10-12T07:20:42Z</time>
      </trkpt>
      <trkpt lat="38.3111630" lon="-0.8358240">
        <ele>360.4</ele>
        <time>2020-10-12T07:20:43Z</time>
      </trkpt>
      <trkpt lat="38.3111400" lon="-0.8357130">
        <ele>360.2</ele>
        <time>2020-10-12T07:20:44Z</time>
      </trkpt>
      <trkpt lat="38.3111160" lon="-0.8356000">
        <ele>359.8</ele>
        <time>2020-10-12T07:20:45Z</time>
      </trkpt>
      <trkpt lat="38.3110900" lon="-0.8354910">
        <ele>359.6</ele>
        <time>2020-10-12T07:20:46Z</time>
      </trkpt>
      <trkpt lat="38.3110690" lon="-0.8353780">
        <ele>359.4</ele>
        <time>2020-10-12T07:20:47Z</time>
      </trkpt>
      <trkpt lat="38.3110500" lon="-0.8352680">
        <ele>359.4</ele>
        <time>2020-10-12T07:20:48Z</time>
      </trkpt>
      <trkpt lat="38.3110340" lon="-0.8351520">
        <ele>359.2</ele>
        <time>2020-10-12T07:20:49Z</time>
      </trkpt>
      <trkpt lat="38.3110240" lon="-0.8350390">
        <ele>358.8</ele>
        <time>2020-10-12T07:20:50Z</time>
      </trkpt>
      <trkpt lat="38.3110220" lon="-0.8349210">
        <ele>358.4</ele>
        <time>2020-10-12T07:20:51Z</time>
      </trkpt>
      <trkpt lat="38.3110310" lon="-0.8347990">
        <ele>358.2</ele>
        <time>2020-10-12T07:20:52Z</time>
      </trkpt>
      <trkpt lat="38.3110490" lon="-0.8346820">
        <ele>357.4</ele>
        <time>2020-10-12T07:20:53Z</time>
      </trkpt>
      <trkpt lat="38.3110750" lon="-0.8345730">
        <ele>357.0</ele>
        <time>2020-10-12T07:20:54Z</time>
      </trkpt>
      <trkpt lat="38.3111110" lon="-0.8344660">
        <ele>356.6</ele>
        <time>2020-10-12T07:20:55Z</time>
      </trkpt>
      <trkpt lat="38.3111540" lon="-0.8343620">
        <ele>356.0</ele>
        <time>2020-10-12T07:20:56Z</time>
      </trkpt>
      <trkpt lat="38.3112030" lon="-0.8342620">
        <ele>355.8</ele>
        <time>2020-10-12T07:20:57Z</time>
      </trkpt>
      <trkpt lat="38.3112570" lon="-0.8341630">
        <ele>355.4</ele>
        <time>2020-10-12T07:20:58Z</time>
      </trkpt>
      <trkpt lat="38.3113130" lon="-0.8340690">
        <ele>355.2</ele>
        <time>2020-10-12T07:20:59Z</time>
      </trkpt>
      <trkpt lat="38.3113740" lon="-0.8339750">
        <ele>354.8</ele>
        <time>2020-10-12T07:21:00Z</time>
      </trkpt>
      <trkpt lat="38.3114390" lon="-0.8338790">
        <ele>354.2</ele>
        <time>2020-10-12T07:21:01Z</time>
      </trkpt>
      <trkpt lat="38.3115030" lon="-0.8337770">
        <ele>353.6</ele>
        <time>2020-10-12T07:21:02Z</time>
      </trkpt>
      <trkpt lat="38.3115650" lon="-0.8336740">
        <ele>353.2</ele>
        <time>2020-10-12T07:21:03Z</time>
      </trkpt>
      <trkpt lat="38.3116250" lon="-0.8335730">
        <ele>352.8</ele>
        <time>2020-10-12T07:21:04Z</time>
      </trkpt>
      <trkpt lat="38.3116870" lon="-0.8334720">
        <ele>352.6</ele>
        <time>2020-10-12T07:21:05Z</time>
      </trkpt>
      <trkpt lat="38.3117460" lon="-0.8333730">
        <ele>352.2</ele>
        <time>2020-10-12T07:21:06Z</time>
      </trkpt>
      <trkpt lat="38.3118060" lon="-0.8332780">
        <ele>352.0</ele>
        <time>2020-10-12T07:21:07Z</time>
      </trkpt>
      <trkpt lat="38.3118710" lon="-0.8331780">
        <ele>351.6</ele>
        <time>2020-10-12T07:21:08Z</time>
      </trkpt>
      <trkpt lat="38.3119420" lon="-0.8330840">
        <ele>351.4</ele>
        <time>2020-10-12T07:21:09Z</time>
      </trkpt>
      <trkpt lat="38.3120150" lon="-0.8329940">
        <ele>350.8</ele>
        <time>2020-10-12T07:21:10Z</time>
      </trkpt>
      <trkpt lat="38.3120910" lon="-0.8329090">
        <ele>350.4</ele>
        <time>2020-10-12T07:21:11Z</time>
      </trkpt>
      <trkpt lat="38.3121660" lon="-0.8328290">
        <ele>349.8</ele>
        <time>2020-10-12T07:21:12Z</time>
      </trkpt>
      <trkpt lat="38.3122420" lon="-0.8327500">
        <ele>349.4</ele>
        <time>2020-10-12T07:21:13Z</time>
      </trkpt>
      <trkpt lat="38.3123170" lon="-0.8326710">
        <ele>349.0</ele>
        <time>2020-10-12T07:21:14Z</time>
      </trkpt>
      <trkpt lat="38.3123940" lon="-0.8325910">
        <ele>348.6</ele>
        <time>2020-10-12T07:21:15Z</time>
      </trkpt>
      <trkpt lat="38.3124730" lon="-0.8325090">
        <ele>348.0</ele>
        <time>2020-10-12T07:21:16Z</time>
      </trkpt>
      <trkpt lat="38.3125550" lon="-0.8324270">
        <ele>347.6</ele>
        <time>2020-10-12T07:21:17Z</time>
      </trkpt>
      <trkpt lat="38.3126360" lon="-0.8323470">
        <ele>346.8</ele>
        <time>2020-10-12T07:21:18Z</time>
      </trkpt>
      <trkpt lat="38.3127170" lon="-0.8322660">
        <ele>345.8</ele>
        <time>2020-10-12T07:21:19Z</time>
      </trkpt>
      <trkpt lat="38.3127970" lon="-0.8321880">
        <ele>345.2</ele>
        <time>2020-10-12T07:21:20Z</time>
      </trkpt>
      <trkpt lat="38.3128740" lon="-0.8321080">
        <ele>344.6</ele>
        <time>2020-10-12T07:21:21Z</time>
      </trkpt>
      <trkpt lat="38.3129530" lon="-0.8320290">
        <ele>344.0</ele>
        <time>2020-10-12T07:21:22Z</time>
      </trkpt>
      <trkpt lat="38.3130340" lon="-0.8319460">
        <ele>343.4</ele>
        <time>2020-10-12T07:21:23Z</time>
      </trkpt>
      <trkpt lat="38.3131120" lon="-0.8318560">
        <ele>343.0</ele>
        <time>2020-10-12T07:21:24Z</time>
      </trkpt>
      <trkpt lat="38.3131890" lon="-0.8317590">
        <ele>342.8</ele>
        <time>2020-10-12T07:21:25Z</time>
      </trkpt>
      <trkpt lat="38.3132600" lon="-0.8316530">
        <ele>342.4</ele>
        <time>2020-10-12T07:21:26Z</time>
      </trkpt>
      <trkpt lat="38.3133250" lon="-0.8315430">
        <ele>341.8</ele>
        <time>2020-10-12T07:21:27Z</time>
      </trkpt>
      <trkpt lat="38.3133800" lon="-0.8314250">
        <ele>341.6</ele>
        <time>2020-10-12T07:21:28Z</time>
      </trkpt>
      <trkpt lat="38.3134290" lon="-0.8313030">
        <ele>341.2</ele>
        <time>2020-10-12T07:21:29Z</time>
      </trkpt>
      <trkpt lat="38.3134710" lon="-0.8311760">
        <ele>341.2</ele>
        <time>2020-10-12T07:21:30Z</time>
      </trkpt>
      <trkpt lat="38.3135030" lon="-0.8310440">
        <ele>341.2</ele>
        <time>2020-10-12T07:21:31Z</time>
      </trkpt>
      <trkpt lat="38.3135310" lon="-0.8309130">
        <ele>341.0</ele>
        <time>2020-10-12T07:21:32Z</time>
      </trkpt>
      <trkpt lat="38.3135560" lon="-0.8307810">
        <ele>340.8</ele>
        <time>2020-10-12T07:21:33Z</time>
      </trkpt>
      <trkpt lat="38.3135770" lon="-0.8306470">
        <ele>340.6</ele>
        <time>2020-10-12T07:21:34Z</time>
      </trkpt>
      <trkpt lat="38.3135950" lon="-0.8305110">
        <ele>340.4</ele>
        <time>2020-10-12T07:21:35Z</time>
      </trkpt>
      <trkpt lat="38.3136100" lon="-0.8303690">
        <ele>339.8</ele>
        <time>2020-10-12T07:21:36Z</time>
      </trkpt>
      <trkpt lat="38.3136240" lon="-0.8302260">
        <ele>339.0</ele>
        <time>2020-10-12T07:21:37Z</time>
      </trkpt>
      <trkpt lat="38.3136420" lon="-0.8300880">
        <ele>338.2</ele>
        <time>2020-10-12T07:21:38Z</time>
      </trkpt>
      <trkpt lat="38.3136600" lon="-0.8299480">
        <ele>337.4</ele>
        <time>2020-10-12T07:21:39Z</time>
      </trkpt>
      <trkpt lat="38.3136850" lon="-0.8298100">
        <ele>337.0</ele>
        <time>2020-10-12T07:21:40Z</time>
      </trkpt>
      <trkpt lat="38.3137200" lon="-0.8296750">
        <ele>336.6</ele>
        <time>2020-10-12T07:21:41Z</time>
      </trkpt>
      <trkpt lat="38.3137620" lon="-0.8295430">
        <ele>336.4</ele>
        <time>2020-10-12T07:21:42Z</time>
      </trkpt>
      <trkpt lat="38.3138130" lon="-0.8294190">
        <ele>336.0</ele>
        <time>2020-10-12T07:21:43Z</time>
      </trkpt>
      <trkpt lat="38.3138690" lon="-0.8292980">
        <ele>335.4</ele>
        <time>2020-10-12T07:21:44Z</time>
      </trkpt>
      <trkpt lat="38.3139300" lon="-0.8291830">
        <ele>334.8</ele>
        <time>2020-10-12T07:21:45Z</time>
      </trkpt>
      <trkpt lat="38.3139930" lon="-0.8290700">
        <ele>334.0</ele>
        <time>2020-10-12T07:21:46Z</time>
      </trkpt>
      <trkpt lat="38.3140540" lon="-0.8289570">
        <ele>333.6</ele>
        <time>2020-10-12T07:21:47Z</time>
      </trkpt>
      <trkpt lat="38.3141160" lon="-0.8288430">
        <ele>333.2</ele>
        <time>2020-10-12T07:21:48Z</time>
      </trkpt>
      <trkpt lat="38.3141790" lon="-0.8287310">
        <ele>332.8</ele>
        <time>2020-10-12T07:21:49Z</time>
      </trkpt>
      <trkpt lat="38.3142440" lon="-0.8286140">
        <ele>332.4</ele>
        <time>2020-10-12T07:21:50Z</time>
      </trkpt>
      <trkpt lat="38.3143060" lon="-0.8284990">
        <ele>331.8</ele>
        <time>2020-10-12T07:21:51Z</time>
      </trkpt>
      <trkpt lat="38.3143630" lon="-0.8283810">
        <ele>331.4</ele>
        <time>2020-10-12T07:21:52Z</time>
      </trkpt>
      <trkpt lat="38.3144140" lon="-0.8282580">
        <ele>331.2</ele>
        <time>2020-10-12T07:21:53Z</time>
      </trkpt>
      <trkpt lat="38.3144610" lon="-0.8281350">
        <ele>331.0</ele>
        <time>2020-10-12T07:21:54Z</time>
      </trkpt>
      <trkpt lat="38.3145060" lon="-0.8280110">
        <ele>330.4</ele>
        <time>2020-10-12T07:21:55Z</time>
      </trkpt>
      <trkpt lat="38.3145430" lon="-0.8278850">
        <ele>330.0</ele>
        <time>2020-10-12T07:21:56Z</time>
      </trkpt>
      <trkpt lat="38.3145740" lon="-0.8277620">
        <ele>329.6</ele>
        <time>2020-10-12T07:21:57Z</time>
      </trkpt>
      <trkpt lat="38.3145980" lon="-0.8276340">
        <ele>329.0</ele>
        <time>2020-10-12T07:21:58Z</time>
      </trkpt>
      <trkpt lat="38.3146160" lon="-0.8274980">
        <ele>328.6</ele>
        <time>2020-10-12T07:21:59Z</time>
      </trkpt>
      <trkpt lat="38.3146280" lon="-0.8273580">
        <ele>328.0</ele>
        <time>2020-10-12T07:22:00Z</time>
      </trkpt>
      <trkpt lat="38.3146290" lon="-0.8272150">
        <ele>327.6</ele>
        <time>2020-10-12T07:22:01Z</time>
      </trkpt>
      <trkpt lat="38.3146150" lon="-0.8270730">
        <ele>327.2</ele>
        <time>2020-10-12T07:22:02Z</time>
      </trkpt>
      <trkpt lat="38.3145860" lon="-0.8269340">
        <ele>327.0</ele>
        <time>2020-10-12T07:22:03Z</time>
      </trkpt>
      <trkpt lat="38.3145350" lon="-0.8268050">
        <ele>326.6</ele>
        <time>2020-10-12T07:22:04Z</time>
      </trkpt>
      <trkpt lat="38.3144750" lon="-0.8266780">
        <ele>326.0</ele>
        <time>2020-10-12T07:22:05Z</time>
      </trkpt>
      <trkpt lat="38.3144090" lon="-0.8265630">
        <ele>325.6</ele>
        <time>2020-10-12T07:22:06Z</time>
      </trkpt>
      <trkpt lat="38.3143500" lon="-0.8264410">
        <ele>324.8</ele>
        <time>2020-10-12T07:22:07Z</time>
      </trkpt>
      <trkpt lat="38.3142970" lon="-0.8263190">
        <ele>324.2</ele>
        <time>2020-10-12T07:22:08Z</time>
      </trkpt>
      <trkpt lat="38.3142600" lon="-0.8261900">
        <ele>323.8</ele>
        <time>2020-10-12T07:22:09Z</time>
      </trkpt>
      <trkpt lat="38.3142330" lon="-0.8260580">
        <ele>323.4</ele>
        <time>2020-10-12T07:22:10Z</time>
      </trkpt>
      <trkpt lat="38.3142180" lon="-0.8259190">
        <ele>323.4</ele>
        <time>2020-10-12T07:22:11Z</time>
      </trkpt>
      <trkpt lat="38.3142110" lon="-0.8257770">
        <ele>323.2</ele>
        <time>2020-10-12T07:22:12Z</time>
      </trkpt>
      <trkpt lat="38.3142080" lon="-0.8256360">
        <ele>322.8</ele>
        <time>2020-10-12T07:22:13Z</time>
      </trkpt>
      <trkpt lat="38.3142090" lon="-0.8254930">
        <ele>322.2</ele>
        <time>2020-10-12T07:22:14Z</time>
      </trkpt>
      <trkpt lat="38.3142160" lon="-0.8253520">
        <ele>321.8</ele>
        <time>2020-10-12T07:22:15Z</time>
      </trkpt>
      <trkpt lat="38.3142330" lon="-0.8252120">
        <ele>321.2</ele>
        <time>2020-10-12T07:22:16Z</time>
      </trkpt>
      <trkpt lat="38.3142630" lon="-0.8250760">
        <ele>320.6</ele>
        <time>2020-10-12T07:22:17Z</time>
      </trkpt>
      <trkpt lat="38.3142980" lon="-0.8249510">
        <ele>320.4</ele>
        <time>2020-10-12T07:22:18Z</time>
      </trkpt>
      <trkpt lat="38.3143430" lon="-0.8248220">
        <ele>320.2</ele>
        <time>2020-10-12T07:22:19Z</time>
      </trkpt>
      <trkpt lat="38.3143890" lon="-0.8246980">
        <ele>320.0</ele>
        <time>2020-10-12T07:22:20Z</time>
      </trkpt>
      <trkpt lat="38.3144340" lon="-0.8245660">
        <ele>319.6</ele>
        <time>2020-10-12T07:22:21Z</time>
      </trkpt>
      <trkpt lat="38.3144720" lon="-0.8244310">
        <ele>319.2</ele>
        <time>2020-10-12T07:22:22Z</time>
      </trkpt>
      <trkpt lat="38.3145040" lon="-0.8242950">
        <ele>318.6</ele>
        <time>2020-10-12T07:22:23Z</time>
      </trkpt>
      <trkpt lat="38.3145340" lon="-0.8241600">
        <ele>317.6</ele>
        <time>2020-10-12T07:22:24Z</time>
      </trkpt>
      <trkpt lat="38.3145600" lon="-0.8240240">
        <ele>316.8</ele>
        <time>2020-10-12T07:22:25Z</time>
      </trkpt>
      <trkpt lat="38.3145810" lon="-0.8238840">
        <ele>315.8</ele>
        <time>2020-10-12T07:22:26Z</time>
      </trkpt>
      <trkpt lat="38.3146010" lon="-0.8237450">
        <ele>315.4</ele>
        <time>2020-10-12T07:22:27Z</time>
      </trkpt>
      <trkpt lat="38.3146240" lon="-0.8236040">
        <ele>314.8</ele>
        <time>2020-10-12T07:22:28Z</time>
      </trkpt>
      <trkpt lat="38.3146460" lon="-0.8234640">
        <ele>314.4</ele>
        <time>2020-10-12T07:22:29Z</time>
      </trkpt>
      <trkpt lat="38.3146680" lon="-0.8233220">
        <ele>314.0</ele>
        <time>2020-10-12T07:22:30Z</time>
      </trkpt>
      <trkpt lat="38.3146910" lon="-0.8231810">
        <ele>313.6</ele>
        <time>2020-10-12T07:22:31Z</time>
      </trkpt>
      <trkpt lat="38.3147110" lon="-0.8230360">
        <ele>313.2</ele>
        <time>2020-10-12T07:22:32Z</time>
      </trkpt>
      <trkpt lat="38.3147270" lon="-0.8228920">
        <ele>313.0</ele>
        <time>2020-10-12T07:22:33Z</time>
      </trkpt>
      <trkpt lat="38.3147450" lon="-0.8227500">
        <ele>312.6</ele>
        <time>2020-10-12T07:22:34Z</time>
      </trkpt>
      <trkpt lat="38.3147670" lon="-0.8226090">
        <ele>312.0</ele>
        <time>2020-10-12T07:22:35Z</time>
      </trkpt>
      <trkpt lat="38.3147890" lon="-0.8224690">
        <ele>311.4</ele>
        <time>2020-10-12T07:22:36Z</time>
      </trkpt>
      <trkpt lat="38.3148110" lon="-0.8223270">
        <ele>310.8</ele>
        <time>2020-10-12T07:22:37Z</time>
      </trkpt>
      <trkpt lat="38.3148340" lon="-0.8221850">
        <ele>310.4</ele>
        <time>2020-10-12T07:22:38Z</time>
      </trkpt>
      <trkpt lat="38.3148580" lon="-0.8220440">
        <ele>310.0</ele>
        <time>2020-10-12T07:22:39Z</time>
      </trkpt>
      <trkpt lat="38.3148820" lon="-0.8218980">
        <ele>309.4</ele>
        <time>2020-10-12T07:22:40Z</time>
      </trkpt>
      <trkpt lat="38.3149100" lon="-0.8217540">
        <ele>309.2</ele>
        <time>2020-10-12T07:22:41Z</time>
      </trkpt>
      <trkpt lat="38.3149440" lon="-0.8216060">
        <ele>309.0</ele>
        <time>2020-10-12T07:22:42Z</time>
      </trkpt>
      <trkpt lat="38.3149820" lon="-0.8214610">
        <ele>308.4</ele>
        <time>2020-10-12T07:22:43Z</time>
      </trkpt>
      <trkpt lat="38.3150230" lon="-0.8213170">
        <ele>308.2</ele>
        <time>2020-10-12T07:22:44Z</time>
      </trkpt>
      <trkpt lat="38.3150660" lon="-0.8211770">
        <ele>308.0</ele>
        <time>2020-10-12T07:22:45Z</time>
      </trkpt>
      <trkpt lat="38.3151110" lon="-0.8210380">
        <ele>307.6</ele>
        <time>2020-10-12T07:22:46Z</time>
      </trkpt>
      <trkpt lat="38.3151580" lon="-0.8209000">
        <ele>306.8</ele>
        <time>2020-10-12T07:22:47Z</time>
      </trkpt>
      <trkpt lat="38.3152050" lon="-0.8207590">
        <ele>306.0</ele>
        <time>2020-10-12T07:22:48Z</time>
      </trkpt>
      <trkpt lat="38.3152520" lon="-0.8206220">
        <ele>305.4</ele>
        <time>2020-10-12T07:22:49Z</time>
      </trkpt>
      <trkpt lat="38.3152980" lon="-0.8204850">
        <ele>304.6</ele>
        <time>2020-10-12T07:22:50Z</time>
      </trkpt>
      <trkpt lat="38.3153450" lon="-0.8203490">
        <ele>304.4</ele>
        <time>2020-10-12T07:22:51Z</time>
      </trkpt>
      <trkpt lat="38.3153930" lon="-0.8202130">
        <ele>304.0</ele>
        <time>2020-10-12T07:22:52Z</time>
      </trkpt>
      <trkpt lat="38.3154430" lon="-0.8200780">
        <ele>304.0</ele>
        <time>2020-10-12T07:22:53Z</time>
      </trkpt>
      <trkpt lat="38.3154890" lon="-0.8199380">
        <ele>303.8</ele>
        <time>2020-10-12T07:22:54Z</time>
      </trkpt>
      <trkpt lat="38.3155350" lon="-0.8197980">
        <ele>303.6</ele>
        <time>2020-10-12T07:22:55Z</time>
      </trkpt>
      <trkpt lat="38.3155820" lon="-0.8196550">
        <ele>302.8</ele>
        <time>2020-10-12T07:22:56Z</time>
      </trkpt>
      <trkpt lat="38.3156300" lon="-0.8195210">
        <ele>302.0</ele>
        <time>2020-10-12T07:22:57Z</time>
      </trkpt>
      <trkpt lat="38.3156770" lon="-0.8193890">
        <ele>301.0</ele>
        <time>2020-10-12T07:22:58Z</time>
      </trkpt>
      <trkpt lat="38.3157220" lon="-0.8192600">
        <ele>300.4</ele>
        <time>2020-10-12T07:22:59Z</time>
      </trkpt>
      <trkpt lat="38.3157690" lon="-0.8191340">
        <ele>300.2</ele>
        <time>2020-10-12T07:23:00Z</time>
      </trkpt>
      <trkpt lat="38.3158150" lon="-0.8190080">
        <ele>300.4</ele>
        <time>2020-10-12T07:23:01Z</time>
      </trkpt>
      <trkpt lat="38.3158600" lon="-0.8188870">
        <ele>300.8</ele>
        <time>2020-10-12T07:23:02Z</time>
      </trkpt>
      <trkpt lat="38.3158920" lon="-0.8187570">
        <ele>301.0</ele>
        <time>2020-10-12T07:23:03Z</time>
      </trkpt>
      <trkpt lat="38.3159310" lon="-0.8186310">
        <ele>301.0</ele>
        <time>2020-10-12T07:23:04Z</time>
      </trkpt>
      <trkpt lat="38.3159730" lon="-0.8185070">
        <ele>301.0</ele>
        <time>2020-10-12T07:23:05Z</time>
      </trkpt>
      <trkpt lat="38.3160200" lon="-0.8183800">
        <ele>300.6</ele>
        <time>2020-10-12T07:23:06Z</time>
      </trkpt>
      <trkpt lat="38.3160640" lon="-0.8182560">
        <ele>299.8</ele>
        <time>2020-10-12T07:23:07Z</time>
      </trkpt>
      <trkpt lat="38.3161040" lon="-0.8181350">
        <ele>298.8</ele>
        <time>2020-10-12T07:23:08Z</time>
      </trkpt>
      <trkpt lat="38.3161460" lon="-0.8180150">
        <ele>298.4</ele>
        <time>2020-10-12T07:23:09Z</time>
      </trkpt>
      <trkpt lat="38.3161890" lon="-0.8178990">
        <ele>297.6</ele>
        <time>2020-10-12T07:23:10Z</time>
      </trkpt>
      <trkpt lat="38.3162340" lon="-0.8177840">
        <ele>297.2</ele>
        <time>2020-10-12T07:23:11Z</time>
      </trkpt>
      <trkpt lat="38.3162770" lon="-0.8176730">
        <ele>297.2</ele>
        <time>2020-10-12T07:23:12Z</time>
      </trkpt>
      <trkpt lat="38.3163210" lon="-0.8175630">
        <ele>297.4</ele>
        <time>2020-10-12T07:23:13Z</time>
      </trkpt>
      <trkpt lat="38.3163640" lon="-0.8174540">
        <ele>297.6</ele>
        <time>2020-10-12T07:23:14Z</time>
      </trkpt>
      <trkpt lat="38.3164070" lon="-0.8173410">
        <ele>297.6</ele>
        <time>2020-10-12T07:23:15Z</time>
      </trkpt>
      <trkpt lat="38.3164510" lon="-0.8172290">
        <ele>297.4</ele>
        <time>2020-10-12T07:23:16Z</time>
      </trkpt>
      <trkpt lat="38.3164940" lon="-0.8171160">
        <ele>297.4</ele>
        <time>2020-10-12T07:23:17Z</time>
      </trkpt>
      <trkpt lat="38.3165330" lon="-0.8170060">
        <ele>297.0</ele>
        <time>2020-10-12T07:23:18Z</time>
      </trkpt>
      <trkpt lat="38.3165730" lon="-0.8169010">
        <ele>296.6</ele>
        <time>2020-10-12T07:23:19Z</time>
      </trkpt>
      <trkpt lat="38.3166090" lon="-0.8167980">
        <ele>296.4</ele>
        <time>2020-10-12T07:23:20Z</time>
      </trkpt>
      <trkpt lat="38.3166470" lon="-0.8166940">
        <ele>296.2</ele>
        <time>2020-10-12T07:23:21Z</time>
      </trkpt>
      <trkpt lat="38.3166830" lon="-0.8165940">
        <ele>296.2</ele>
        <time>2020-10-12T07:23:22Z</time>
      </trkpt>
      <trkpt lat="38.3167210" lon="-0.8164910">
        <ele>296.0</ele>
        <time>2020-10-12T07:23:23Z</time>
      </trkpt>
      <trkpt lat="38.3167580" lon="-0.8163890">
        <ele>296.2</ele>
        <time>2020-10-12T07:23:24Z</time>
      </trkpt>
      <trkpt lat="38.3167940" lon="-0.8162900">
        <ele>296.2</ele>
        <time>2020-10-12T07:23:25Z</time>
      </trkpt>
      <trkpt lat="38.3168330" lon="-0.8161920">
        <ele>296.2</ele>
        <time>2020-10-12T07:23:26Z</time>
      </trkpt>
      <trkpt lat="38.3168710" lon="-0.8160960">
        <ele>296.2</ele>
        <time>2020-10-12T07:23:27Z</time>
      </trkpt>
      <trkpt lat="38.3169080" lon="-0.8160010">
        <ele>296.0</ele>
        <time>2020-10-12T07:23:28Z</time>
      </trkpt>
      <trkpt lat="38.3169470" lon="-0.8159040">
        <ele>295.8</ele>
        <time>2020-10-12T07:23:29Z</time>
      </trkpt>
      <trkpt lat="38.3169840" lon="-0.8158070">
        <ele>295.8</ele>
        <time>2020-10-12T07:23:30Z</time>
      </trkpt>
      <trkpt lat="38.3170210" lon="-0.8157140">
        <ele>295.6</ele>
        <time>2020-10-12T07:23:31Z</time>
      </trkpt>
      <trkpt lat="38.3170600" lon="-0.8156170">
        <ele>295.6</ele>
        <time>2020-10-12T07:23:32Z</time>
      </trkpt>
      <trkpt lat="38.3170980" lon="-0.8155210">
        <ele>295.6</ele>
        <time>2020-10-12T07:23:33Z</time>
      </trkpt>
      <trkpt lat="38.3171350" lon="-0.8154250">
        <ele>295.6</ele>
        <time>2020-10-12T07:23:34Z</time>
      </trkpt>
      <trkpt lat="38.3171720" lon="-0.8153300">
        <ele>295.8</ele>
        <time>2020-10-12T07:23:35Z</time>
      </trkpt>
      <trkpt lat="38.3172080" lon="-0.8152360">
        <ele>295.8</ele>
        <time>2020-10-12T07:23:36Z</time>
      </trkpt>
      <trkpt lat="38.3172430" lon="-0.8151410">
        <ele>295.6</ele>
        <time>2020-10-12T07:23:37Z</time>
      </trkpt>
      <trkpt lat="38.3172800" lon="-0.8150430">
        <ele>295.4</ele>
        <time>2020-10-12T07:23:38Z</time>
      </trkpt>
      <trkpt lat="38.3173170" lon="-0.8149480">
        <ele>295.2</ele>
        <time>2020-10-12T07:23:39Z</time>
      </trkpt>
      <trkpt lat="38.3173540" lon="-0.8148550">
        <ele>294.8</ele>
        <time>2020-10-12T07:23:40Z</time>
      </trkpt>
      <trkpt lat="38.3173940" lon="-0.8147620">
        <ele>294.6</ele>
        <time>2020-10-12T07:23:41Z</time>
      </trkpt>
      <trkpt lat="38.3174340" lon="-0.8146640">
        <ele>294.6</ele>
        <time>2020-10-12T07:23:42Z</time>
      </trkpt>
      <trkpt lat="38.3174720" lon="-0.8145660">
        <ele>294.8</ele>
        <time>2020-10-12T07:23:43Z</time>
      </trkpt>
      <trkpt lat="38.3175090" lon="-0.8144720">
        <ele>295.2</ele>
        <time>2020-10-12T07:23:44Z</time>
      </trkpt>
      <trkpt lat="38.3175450" lon="-0.8143760">
        <ele>295.6</ele>
        <time>2020-10-12T07:23:45Z</time>
      </trkpt>
      <trkpt lat="38.3175810" lon="-0.8142750">
        <ele>295.8</ele>
        <time>2020-10-12T07:23:46Z</time>
      </trkpt>
      <trkpt lat="38.3176140" lon="-0.8141750">
        <ele>296.0</ele>
        <time>2020-10-12T07:23:47Z</time>
      </trkpt>
      <trkpt lat="38.3176490" lon="-0.8140770">
        <ele>295.6</ele>
        <time>2020-10-12T07:23:48Z</time>
      </trkpt>
      <trkpt lat="38.3176880" lon="-0.8139790">
        <ele>295.4</ele>
        <time>2020-10-12T07:23:49Z</time>
      </trkpt>
      <trkpt lat="38.3177270" lon="-0.8138800">
        <ele>295.0</ele>
        <time>2020-10-12T07:23:50Z</time>
      </trkpt>
      <trkpt lat="38.3177670" lon="-0.8137830">
        <ele>294.8</ele>
        <time>2020-10-12T07:23:51Z</time>
      </trkpt>
      <trkpt lat="38.3178050" lon="-0.8136860">
        <ele>294.4</ele>
        <time>2020-10-12T07:23:52Z</time>
      </trkpt>
      <trkpt lat="38.3178460" lon="-0.8135880">
        <ele>294.6</ele>
        <time>2020-10-12T07:23:53Z</time>
      </trkpt>
      <trkpt lat="38.3178840" lon="-0.8134950">
        <ele>294.8</ele>
        <time>2020-10-12T07:23:54Z</time>
      </trkpt>
      <trkpt lat="38.3179230" lon="-0.8134000">
        <ele>294.8</ele>
        <time>2020-10-12T07:23:55Z</time>
      </trkpt>
      <trkpt lat="38.3179640" lon="-0.8133040">
        <ele>294.8</ele>
        <time>2020-10-12T07:23:56Z</time>
      </trkpt>
      <trkpt lat="38.3180030" lon="-0.8132080">
        <ele>294.6</ele>
        <time>2020-10-12T07:23:57Z</time>
      </trkpt>
      <trkpt lat="38.3180420" lon="-0.8131120">
        <ele>294.4</ele>
        <time>2020-10-12T07:23:58Z</time>
      </trkpt>
      <trkpt lat="38.3180790" lon="-0.8130170">
        <ele>294.2</ele>
        <time>2020-10-12T07:23:59Z</time>
      </trkpt>
      <trkpt lat="38.3181170" lon="-0.8129200">
        <ele>294.0</ele>
        <time>2020-10-12T07:24:00Z</time>
      </trkpt>
      <trkpt lat="38.3181550" lon="-0.8128230">
        <ele>294.0</ele>
        <time>2020-10-12T07:24:01Z</time>
      </trkpt>
      <trkpt lat="38.3181920" lon="-0.8127290">
        <ele>293.8</ele>
        <time>2020-10-12T07:24:02Z</time>
      </trkpt>
      <trkpt lat="38.3182300" lon="-0.8126320">
        <ele>293.8</ele>
        <time>2020-10-12T07:24:03Z</time>
      </trkpt>
      <trkpt lat="38.3182670" lon="-0.8125320">
        <ele>293.8</ele>
        <time>2020-10-12T07:24:04Z</time>
      </trkpt>
      <trkpt lat="38.3183050" lon="-0.8124360">
        <ele>293.6</ele>
        <time>2020-10-12T07:24:05Z</time>
      </trkpt>
      <trkpt lat="38.3183440" lon="-0.8123370">
        <ele>293.6</ele>
        <time>2020-10-12T07:24:06Z</time>
      </trkpt>
      <trkpt lat="38.3183830" lon="-0.8122390">
        <ele>293.4</ele>
        <time>2020-10-12T07:24:07Z</time>
      </trkpt>
      <trkpt lat="38.3184200" lon="-0.8121430">
        <ele>293.4</ele>
        <time>2020-10-12T07:24:08Z</time>
      </trkpt>
      <trkpt lat="38.3184580" lon="-0.8120450">
        <ele>293.4</ele>
        <time>2020-10-12T07:24:09Z</time>
      </trkpt>
      <trkpt lat="38.3184980" lon="-0.8119450">
        <ele>293.4</ele>
        <time>2020-10-12T07:24:10Z</time>
      </trkpt>
      <trkpt lat="38.3185350" lon="-0.8118490">
        <ele>293.6</ele>
        <time>2020-10-12T07:24:11Z</time>
      </trkpt>
      <trkpt lat="38.3185720" lon="-0.8117530">
        <ele>293.8</ele>
        <time>2020-10-12T07:24:12Z</time>
      </trkpt>
      <trkpt lat="38.3186110" lon="-0.8116550">
        <ele>294.0</ele>
        <time>2020-10-12T07:24:13Z</time>
      </trkpt>
      <trkpt lat="38.3186510" lon="-0.8115540">
        <ele>294.0</ele>
        <time>2020-10-12T07:24:14Z</time>
      </trkpt>
      <trkpt lat="38.3186890" lon="-0.8114530">
        <ele>294.0</ele>
        <time>2020-10-12T07:24:15Z</time>
      </trkpt>
      <trkpt lat="38.3187280" lon="-0.8113520">
        <ele>293.8</ele>
        <time>2020-10-12T07:24:16Z</time>
      </trkpt>
      <trkpt lat="38.3187660" lon="-0.8112520">
        <ele>293.2</ele>
        <time>2020-10-12T07:24:17Z</time>
      </trkpt>
      <trkpt lat="38.3188050" lon="-0.8111500">
        <ele>292.8</ele>
        <time>2020-10-12T07:24:18Z</time>
      </trkpt>
      <trkpt lat="38.3188430" lon="-0.8110500">
        <ele>292.4</ele>
        <time>2020-10-12T07:24:19Z</time>
      </trkpt>
      <trkpt lat="38.3188810" lon="-0.8109490">
        <ele>292.2</ele>
        <time>2020-10-12T07:24:20Z</time>
      </trkpt>
      <trkpt lat="38.3189190" lon="-0.8108520">
        <ele>291.8</ele>
        <time>2020-10-12T07:24:21Z</time>
      </trkpt>
      <trkpt lat="38.3189530" lon="-0.8107570">
        <ele>291.8</ele>
        <time>2020-10-12T07:24:22Z</time>
      </trkpt>
      <trkpt lat="38.3189850" lon="-0.8106680">
        <ele>291.6</ele>
        <time>2020-10-12T07:24:23Z</time>
      </trkpt>
      <trkpt lat="38.3190170" lon="-0.8105780">
        <ele>291.4</ele>
        <time>2020-10-12T07:24:24Z</time>
      </trkpt>
      <trkpt lat="38.3190510" lon="-0.8104860">
        <ele>291.0</ele>
        <time>2020-10-12T07:24:25Z</time>
      </trkpt>
      <trkpt lat="38.3190880" lon="-0.8103910">
        <ele>290.6</ele>
        <time>2020-10-12T07:24:26Z</time>
      </trkpt>
      <trkpt lat="38.3191270" lon="-0.8102910">
        <ele>290.4</ele>
        <time>2020-10-12T07:24:27Z</time>
      </trkpt>
      <trkpt lat="38.3191660" lon="-0.8101920">
        <ele>290.6</ele>
        <time>2020-10-12T07:24:28Z</time>
      </trkpt>
      <trkpt lat="38.3192050" lon="-0.8100950">
        <ele>290.6</ele>
        <time>2020-10-12T07:24:29Z</time>
      </trkpt>
      <trkpt lat="38.3192450" lon="-0.8099980">
        <ele>290.0</ele>
        <time>2020-10-12T07:24:30Z</time>
      </trkpt>
      <trkpt lat="38.3192850" lon="-0.8099000">
        <ele>289.8</ele>
        <time>2020-10-12T07:24:31Z</time>
      </trkpt>
      <trkpt lat="38.3193250" lon="-0.8098040">
        <ele>290.0</ele>
        <time>2020-10-12T07:24:32Z</time>
      </trkpt>
      <trkpt lat="38.3193650" lon="-0.8097090">
        <ele>290.0</ele>
        <time>2020-10-12T07:24:33Z</time>
      </trkpt>
      <trkpt lat="38.3194020" lon="-0.8096130">
        <ele>289.8</ele>
        <time>2020-10-12T07:24:34Z</time>
      </trkpt>
      <trkpt lat="38.3194380" lon="-0.8095150">
        <ele>289.6</ele>
        <time>2020-10-12T07:24:35Z</time>
      </trkpt>
      <trkpt lat="38.3194750" lon="-0.8094190">
        <ele>289.4</ele>
        <time>2020-10-12T07:24:36Z</time>
      </trkpt>
      <trkpt lat="38.3195130" lon="-0.8093220">
        <ele>289.4</ele>
        <time>2020-10-12T07:24:37Z</time>
      </trkpt>
      <trkpt lat="38.3195510" lon="-0.8092210">
        <ele>289.6</ele>
        <time>2020-10-12T07:24:38Z</time>
      </trkpt>
      <trkpt lat="38.3195900" lon="-0.8091230">
        <ele>289.6</ele>
        <time>2020-10-12T07:24:39Z</time>
      </trkpt>
      <trkpt lat="38.3196280" lon="-0.8090230">
        <ele>289.4</ele>
        <time>2020-10-12T07:24:40Z</time>
      </trkpt>
      <trkpt lat="38.3196660" lon="-0.8089260">
        <ele>289.4</ele>
        <time>2020-10-12T07:24:41Z</time>
      </trkpt>
      <trkpt lat="38.3197040" lon="-0.8088280">
        <ele>289.2</ele>
        <time>2020-10-12T07:24:42Z</time>
      </trkpt>
      <trkpt lat="38.3197440" lon="-0.8087300">
        <ele>289.2</ele>
        <time>2020-10-12T07:24:43Z</time>
      </trkpt>
      <trkpt lat="38.3197840" lon="-0.8086300">
        <ele>289.0</ele>
        <time>2020-10-12T07:24:44Z</time>
      </trkpt>
      <trkpt lat="38.3198250" lon="-0.8085300">
        <ele>288.8</ele>
        <time>2020-10-12T07:24:45Z</time>
      </trkpt>
      <trkpt lat="38.3198640" lon="-0.8084330">
        <ele>288.6</ele>
        <time>2020-10-12T07:24:46Z</time>
      </trkpt>
      <trkpt lat="38.3199040" lon="-0.8083340">
        <ele>288.2</ele>
        <time>2020-10-12T07:24:47Z</time>
      </trkpt>
      <trkpt lat="38.3199420" lon="-0.8082360">
        <ele>288.0</ele>
        <time>2020-10-12T07:24:48Z</time>
      </trkpt>
      <trkpt lat="38.3199830" lon="-0.8081350">
        <ele>287.8</ele>
        <time>2020-10-12T07:24:49Z</time>
      </trkpt>
      <trkpt lat="38.3200240" lon="-0.8080350">
        <ele>287.6</ele>
        <time>2020-10-12T07:24:50Z</time>
      </trkpt>
      <trkpt lat="38.3200630" lon="-0.8079370">
        <ele>287.4</ele>
        <time>2020-10-12T07:24:51Z</time>
      </trkpt>
      <trkpt lat="38.3201020" lon="-0.8078380">
        <ele>287.2</ele>
        <time>2020-10-12T07:24:52Z</time>
      </trkpt>
      <trkpt lat="38.3201420" lon="-0.8077370">
        <ele>287.2</ele>
        <time>2020-10-12T07:24:53Z</time>
      </trkpt>
      <trkpt lat="38.3201800" lon="-0.8076370">
        <ele>287.0</ele>
        <time>2020-10-12T07:24:54Z</time>
      </trkpt>
      <trkpt lat="38.3202210" lon="-0.8075360">
        <ele>287.2</ele>
        <time>2020-10-12T07:24:55Z</time>
      </trkpt>
      <trkpt lat="38.3202610" lon="-0.8074350">
        <ele>287.0</ele>
        <time>2020-10-12T07:24:56Z</time>
      </trkpt>
      <trkpt lat="38.3203000" lon="-0.8073350">
        <ele>287.0</ele>
        <time>2020-10-12T07:24:57Z</time>
      </trkpt>
      <trkpt lat="38.3203400" lon="-0.8072330">
        <ele>286.6</ele>
        <time>2020-10-12T07:24:58Z</time>
      </trkpt>
      <trkpt lat="38.3203800" lon="-0.8071300">
        <ele>286.4</ele>
        <time>2020-10-12T07:24:59Z</time>
      </trkpt>
      <trkpt lat="38.3204190" lon="-0.8070260">
        <ele>286.2</ele>
        <time>2020-10-12T07:25:00Z</time>
      </trkpt>
      <trkpt lat="38.3204600" lon="-0.8069250">
        <ele>286.0</ele>
        <time>2020-10-12T07:25:01Z</time>
      </trkpt>
      <trkpt lat="38.3205000" lon="-0.8068250">
        <ele>285.8</ele>
        <time>2020-10-12T07:25:02Z</time>
      </trkpt>
      <trkpt lat="38.3205410" lon="-0.8067220">
        <ele>285.6</ele>
        <time>2020-10-12T07:25:03Z</time>
      </trkpt>
      <trkpt lat="38.3205820" lon="-0.8066190">
        <ele>285.6</ele>
        <time>2020-10-12T07:25:04Z</time>
      </trkpt>
      <trkpt lat="38.3206220" lon="-0.8065170">
        <ele>285.2</ele>
        <time>2020-10-12T07:25:05Z</time>
      </trkpt>
      <trkpt lat="38.3206610" lon="-0.8064140">
        <ele>285.0</ele>
        <time>2020-10-12T07:25:06Z</time>
      </trkpt>
      <trkpt lat="38.3207020" lon="-0.8063080">
        <ele>285.0</ele>
        <time>2020-10-12T07:25:07Z</time>
      </trkpt>
      <trkpt lat="38.3207440" lon="-0.8062050">
        <ele>285.0</ele>
        <time>2020-10-12T07:25:08Z</time>
      </trkpt>
      <trkpt lat="38.3207850" lon="-0.8060990">
        <ele>284.8</ele>
        <time>2020-10-12T07:25:09Z</time>
      </trkpt>
      <trkpt lat="38.3208230" lon="-0.8059920">
        <ele>284.8</ele>
        <time>2020-10-12T07:25:10Z</time>
      </trkpt>
      <trkpt lat="38.3208630" lon="-0.8058830">
        <ele>284.8</ele>
        <time>2020-10-12T07:25:11Z</time>
      </trkpt>
      <trkpt lat="38.3209050" lon="-0.8057750">
        <ele>284.8</ele>
        <time>2020-10-12T07:25:12Z</time>
      </trkpt>
      <trkpt lat="38.3209460" lon="-0.8056680">
        <ele>284.6</ele>
        <time>2020-10-12T07:25:13Z</time>
      </trkpt>
      <trkpt lat="38.3209890" lon="-0.8055570">
        <ele>284.2</ele>
        <time>2020-10-12T07:25:14Z</time>
      </trkpt>
      <trkpt lat="38.3210310" lon="-0.8054480">
        <ele>284.0</ele>
        <time>2020-10-12T07:25:15Z</time>
      </trkpt>
      <trkpt lat="38.3210720" lon="-0.8053400">
        <ele>283.8</ele>
        <time>2020-10-12T07:25:16Z</time>
      </trkpt>
      <trkpt lat="38.3211130" lon="-0.8052310">
        <ele>283.6</ele>
        <time>2020-10-12T07:25:17Z</time>
      </trkpt>
      <trkpt lat="38.3211560" lon="-0.8051220">
        <ele>283.6</ele>
        <time>2020-10-12T07:25:18Z</time>
      </trkpt>
      <trkpt lat="38.3211990" lon="-0.8050130">
        <ele>283.6</ele>
        <time>2020-10-12T07:25:19Z</time>
      </trkpt>
      <trkpt lat="38.3212400" lon="-0.8049110">
        <ele>283.4</ele>
        <time>2020-10-12T07:25:20Z</time>
      </trkpt>
      <trkpt lat="38.3212810" lon="-0.8048060">
        <ele>283.4</ele>
        <time>2020-10-12T07:25:21Z</time>
      </trkpt>
      <trkpt lat="38.3213240" lon="-0.8046980">
        <ele>283.4</ele>
        <time>2020-10-12T07:25:22Z</time>
      </trkpt>
      <trkpt lat="38.3213660" lon="-0.8045890">
        <ele>283.4</ele>
        <time>2020-10-12T07:25:23Z</time>
      </trkpt>
      <trkpt lat="38.3214070" lon="-0.8044800">
        <ele>283.4</ele>
        <time>2020-10-12T07:25:24Z</time>
      </trkpt>
      <trkpt lat="38.3214480" lon="-0.8043710">
        <ele>283.2</ele>
        <time>2020-10-12T07:25:25Z</time>
      </trkpt>
      <trkpt lat="38.3214910" lon="-0.8042650">
        <ele>282.8</ele>
        <time>2020-10-12T07:25:26Z</time>
      </trkpt>
      <trkpt lat="38.3215320" lon="-0.8041580">
        <ele>282.2</ele>
        <time>2020-10-12T07:25:27Z</time>
      </trkpt>
      <trkpt lat="38.3215750" lon="-0.8040490">
        <ele>281.6</ele>
        <time>2020-10-12T07:25:28Z</time>
      </trkpt>
      <trkpt lat="38.3216170" lon="-0.8039410">
        <ele>281.4</ele>
        <time>2020-10-12T07:25:29Z</time>
      </trkpt>
      <trkpt lat="38.3216570" lon="-0.8038340">
        <ele>281.2</ele>
        <time>2020-10-12T07:25:30Z</time>
      </trkpt>
      <trkpt lat="38.3216990" lon="-0.8037280">
        <ele>281.6</ele>
        <time>2020-10-12T07:25:31Z</time>
      </trkpt>
      <trkpt lat="38.3217420" lon="-0.8036200">
        <ele>282.0</ele>
        <time>2020-10-12T07:25:32Z</time>
      </trkpt>
      <trkpt lat="38.3217830" lon="-0.8035110">
        <ele>282.4</ele>
        <time>2020-10-12T07:25:33Z</time>
      </trkpt>
      <trkpt lat="38.3218250" lon="-0.8034000">
        <ele>282.6</ele>
        <time>2020-10-12T07:25:34Z</time>
      </trkpt>
      <trkpt lat="38.3218670" lon="-0.8032930">
        <ele>282.6</ele>
        <time>2020-10-12T07:25:35Z</time>
      </trkpt>
      <trkpt lat="38.3219110" lon="-0.8031820">
        <ele>282.4</ele>
        <time>2020-10-12T07:25:36Z</time>
      </trkpt>
      <trkpt lat="38.3219560" lon="-0.8030710">
        <ele>281.8</ele>
        <time>2020-10-12T07:25:37Z</time>
      </trkpt>
      <trkpt lat="38.3220000" lon="-0.8029590">
        <ele>280.8</ele>
        <time>2020-10-12T07:25:38Z</time>
      </trkpt>
      <trkpt lat="38.3220430" lon="-0.8028470">
        <ele>279.8</ele>
        <time>2020-10-12T07:25:39Z</time>
      </trkpt>
      <trkpt lat="38.3220860" lon="-0.8027360">
        <ele>279.2</ele>
        <time>2020-10-12T07:25:40Z</time>
      </trkpt>
      <trkpt lat="38.3221300" lon="-0.8026250">
        <ele>279.0</ele>
        <time>2020-10-12T07:25:41Z</time>
      </trkpt>
      <trkpt lat="38.3221720" lon="-0.8025150">
        <ele>278.8</ele>
        <time>2020-10-12T07:25:42Z</time>
      </trkpt>
      <trkpt lat="38.3222150" lon="-0.8024030">
        <ele>278.8</ele>
        <time>2020-10-12T07:25:43Z</time>
      </trkpt>
      <trkpt lat="38.3222590" lon="-0.8022950">
        <ele>278.4</ele>
        <time>2020-10-12T07:25:44Z</time>
      </trkpt>
      <trkpt lat="38.3223030" lon="-0.8021810">
        <ele>278.2</ele>
        <time>2020-10-12T07:25:45Z</time>
      </trkpt>
      <trkpt lat="38.3223450" lon="-0.8020720">
        <ele>278.2</ele>
        <time>2020-10-12T07:25:46Z</time>
      </trkpt>
      <trkpt lat="38.3223870" lon="-0.8019610">
        <ele>277.8</ele>
        <time>2020-10-12T07:25:47Z</time>
      </trkpt>
      <trkpt lat="38.3224290" lon="-0.8018480">
        <ele>277.6</ele>
        <time>2020-10-12T07:25:48Z</time>
      </trkpt>
      <trkpt lat="38.3224720" lon="-0.8017370">
        <ele>277.0</ele>
        <time>2020-10-12T07:25:49Z</time>
      </trkpt>
      <trkpt lat="38.3225150" lon="-0.8016270">
        <ele>276.6</ele>
        <time>2020-10-12T07:25:50Z</time>
      </trkpt>
      <trkpt lat="38.3225580" lon="-0.8015170">
        <ele>276.2</ele>
        <time>2020-10-12T07:25:51Z</time>
      </trkpt>
      <trkpt lat="38.3226010" lon="-0.8014060">
        <ele>276.0</ele>
        <time>2020-10-12T07:25:52Z</time>
      </trkpt>
      <trkpt lat="38.3226450" lon="-0.8012930">
        <ele>275.8</ele>
        <time>2020-10-12T07:25:53Z</time>
      </trkpt>
      <trkpt lat="38.3226890" lon="-0.8011810">
        <ele>275.6</ele>
        <time>2020-10-12T07:25:54Z</time>
      </trkpt>
      <trkpt lat="38.3227320" lon="-0.8010730">
        <ele>275.2</ele>
        <time>2020-10-12T07:25:55Z</time>
      </trkpt>
      <trkpt lat="38.3227760" lon="-0.8009620">
        <ele>275.0</ele>
        <time>2020-10-12T07:25:56Z</time>
      </trkpt>
      <trkpt lat="38.3228200" lon="-0.8008470">
        <ele>275.0</ele>
        <time>2020-10-12T07:25:57Z</time>
      </trkpt>
      <trkpt lat="38.3228640" lon="-0.8007350">
        <ele>274.8</ele>
        <time>2020-10-12T07:25:58Z</time>
      </trkpt>
      <trkpt lat="38.3229080" lon="-0.8006210">
        <ele>274.6</ele>
        <time>2020-10-12T07:25:59Z</time>
      </trkpt>
      <trkpt lat="38.3229530" lon="-0.8005060">
        <ele>274.4</ele>
        <time>2020-10-12T07:26:00Z</time>
      </trkpt>
      <trkpt lat="38.3229990" lon="-0.8003900">
        <ele>274.2</ele>
        <time>2020-10-12T07:26:01Z</time>
      </trkpt>
      <trkpt lat="38.3230450" lon="-0.8002760">
        <ele>274.2</ele>
        <time>2020-10-12T07:26:02Z</time>
      </trkpt>
      <trkpt lat="38.3230900" lon="-0.8001620">
        <ele>274.0</ele>
        <time>2020-10-12T07:26:03Z</time>
      </trkpt>
      <trkpt lat="38.3231350" lon="-0.8000480">
        <ele>273.8</ele>
        <time>2020-10-12T07:26:04Z</time>
      </trkpt>
      <trkpt lat="38.3231810" lon="-0.7999310">
        <ele>273.6</ele>
        <time>2020-10-12T07:26:05Z</time>
      </trkpt>
      <trkpt lat="38.3232240" lon="-0.7998190">
        <ele>273.2</ele>
        <time>2020-10-12T07:26:06Z</time>
      </trkpt>
      <trkpt lat="38.3232690" lon="-0.7997060">
        <ele>273.0</ele>
        <time>2020-10-12T07:26:07Z</time>
      </trkpt>
      <trkpt lat="38.3233140" lon="-0.7995940">
        <ele>273.0</ele>
        <time>2020-10-12T07:26:08Z</time>
      </trkpt>
      <trkpt lat="38.3233580" lon="-0.7994830">
        <ele>273.0</ele>
        <time>2020-10-12T07:26:09Z</time>
      </trkpt>
      <trkpt lat="38.3234020" lon="-0.7993710">
        <ele>273.0</ele>
        <time>2020-10-12T07:26:10Z</time>
      </trkpt>
      <trkpt lat="38.3234450" lon="-0.7992590">
        <ele>273.0</ele>
        <time>2020-10-12T07:26:11Z</time>
      </trkpt>
      <trkpt lat="38.3234870" lon="-0.7991500">
        <ele>272.8</ele>
        <time>2020-10-12T07:26:12Z</time>
      </trkpt>
      <trkpt lat="38.3235300" lon="-0.7990380">
        <ele>272.6</ele>
        <time>2020-10-12T07:26:13Z</time>
      </trkpt>
      <trkpt lat="38.3235730" lon="-0.7989260">
        <ele>272.4</ele>
        <time>2020-10-12T07:26:14Z</time>
      </trkpt>
      <trkpt lat="38.3236170" lon="-0.7988100">
        <ele>272.2</ele>
        <time>2020-10-12T07:26:15Z</time>
      </trkpt>
      <trkpt lat="38.3236600" lon="-0.7986960">
        <ele>272.0</ele>
        <time>2020-10-12T07:26:16Z</time>
      </trkpt>
      <trkpt lat="38.3237050" lon="-0.7985820">
        <ele>271.6</ele>
        <time>2020-10-12T07:26:17Z</time>
      </trkpt>
      <trkpt lat="38.3237500" lon="-0.7984670">
        <ele>271.6</ele>
        <time>2020-10-12T07:26:18Z</time>
      </trkpt>
      <trkpt lat="38.3237940" lon="-0.7983590">
        <ele>271.2</ele>
        <time>2020-10-12T07:26:19Z</time>
      </trkpt>
      <trkpt lat="38.3238390" lon="-0.7982500">
        <ele>271.0</ele>
        <time>2020-10-12T07:26:20Z</time>
      </trkpt>
      <trkpt lat="38.3238830" lon="-0.7981400">
        <ele>270.8</ele>
        <time>2020-10-12T07:26:21Z</time>
      </trkpt>
      <trkpt lat="38.3239260" lon="-0.7980310">
        <ele>270.4</ele>
        <time>2020-10-12T07:26:22Z</time>
      </trkpt>
      <trkpt lat="38.3239690" lon="-0.7979210">
        <ele>270.4</ele>
        <time>2020-10-12T07:26:23Z</time>
      </trkpt>
      <trkpt lat="38.3240110" lon="-0.7978130">
        <ele>270.4</ele>
        <time>2020-10-12T07:26:24Z</time>
      </trkpt>
      <trkpt lat="38.3240530" lon="-0.7977060">
        <ele>270.4</ele>
        <time>2020-10-12T07:26:25Z</time>
      </trkpt>
      <trkpt lat="38.3240940" lon="-0.7975980">
        <ele>270.4</ele>
        <time>2020-10-12T07:26:26Z</time>
      </trkpt>
      <trkpt lat="38.3241370" lon="-0.7974890">
        <ele>270.2</ele>
        <time>2020-10-12T07:26:27Z</time>
      </trkpt>
      <trkpt lat="38.3241780" lon="-0.7973800">
        <ele>270.0</ele>
        <time>2020-10-12T07:26:28Z</time>
      </trkpt>
      <trkpt lat="38.3242210" lon="-0.7972700">
        <ele>270.0</ele>
        <time>2020-10-12T07:26:29Z</time>
      </trkpt>
      <trkpt lat="38.3242620" lon="-0.7971590">
        <ele>270.0</ele>
        <time>2020-10-12T07:26:30Z</time>
      </trkpt>
      <trkpt lat="38.3243040" lon="-0.7970480">
        <ele>269.8</ele>
        <time>2020-10-12T07:26:31Z</time>
      </trkpt>
      <trkpt lat="38.3243470" lon="-0.7969370">
        <ele>269.6</ele>
        <time>2020-10-12T07:26:32Z</time>
      </trkpt>
      <trkpt lat="38.3243870" lon="-0.7968280">
        <ele>269.4</ele>
        <time>2020-10-12T07:26:33Z</time>
      </trkpt>
      <trkpt lat="38.3244290" lon="-0.7967180">
        <ele>269.0</ele>
        <time>2020-10-12T07:26:34Z</time>
      </trkpt>
      <trkpt lat="38.3244710" lon="-0.7966100">
        <ele>269.0</ele>
        <time>2020-10-12T07:26:35Z</time>
      </trkpt>
      <trkpt lat="38.3245130" lon="-0.7965020">
        <ele>268.8</ele>
        <time>2020-10-12T07:26:36Z</time>
      </trkpt>
      <trkpt lat="38.3245550" lon="-0.7963930">
        <ele>268.2</ele>
        <time>2020-10-12T07:26:37Z</time>
      </trkpt>
      <trkpt lat="38.3245980" lon="-0.7962840">
        <ele>268.0</ele>
        <time>2020-10-12T07:26:38Z</time>
      </trkpt>
      <trkpt lat="38.3246400" lon="-0.7961760">
        <ele>267.6</ele>
        <time>2020-10-12T07:26:39Z</time>
      </trkpt>
      <trkpt lat="38.3246810" lon="-0.7960690">
        <ele>267.2</ele>
        <time>2020-10-12T07:26:40Z</time>
      </trkpt>
      <trkpt lat="38.3247210" lon="-0.7959640">
        <ele>267.0</ele>
        <time>2020-10-12T07:26:41Z</time>
      </trkpt>
      <trkpt lat="38.3247610" lon="-0.7958590">
        <ele>267.0</ele>
        <time>2020-10-12T07:26:42Z</time>
      </trkpt>
      <trkpt lat="38.3248020" lon="-0.7957530">
        <ele>267.6</ele>
        <time>2020-10-12T07:26:43Z</time>
      </trkpt>
      <trkpt lat="38.3248430" lon="-0.7956450">
        <ele>268.0</ele>
        <time>2020-10-12T07:26:44Z</time>
      </trkpt>
      <trkpt lat="38.3248860" lon="-0.7955360">
        <ele>268.4</ele>
        <time>2020-10-12T07:26:45Z</time>
      </trkpt>
      <trkpt lat="38.3249280" lon="-0.7954280">
        <ele>268.6</ele>
        <time>2020-10-12T07:26:46Z</time>
      </trkpt>
      <trkpt lat="38.3249700" lon="-0.7953200">
        <ele>269.0</ele>
        <time>2020-10-12T07:26:47Z</time>
      </trkpt>
      <trkpt lat="38.3250120" lon="-0.7952130">
        <ele>269.2</ele>
        <time>2020-10-12T07:26:48Z</time>
      </trkpt>
      <trkpt lat="38.3250550" lon="-0.7951080">
        <ele>269.0</ele>
        <time>2020-10-12T07:26:49Z</time>
      </trkpt>
      <trkpt lat="38.3250980" lon="-0.7950020">
        <ele>268.8</ele>
        <time>2020-10-12T07:26:50Z</time>
      </trkpt>
      <trkpt lat="38.3251400" lon="-0.7948940">
        <ele>268.6</ele>
        <time>2020-10-12T07:26:51Z</time>
      </trkpt>
      <trkpt lat="38.3251820" lon="-0.7947870">
        <ele>268.2</ele>
        <time>2020-10-12T07:26:52Z</time>
      </trkpt>
      <trkpt lat="38.3252250" lon="-0.7946810">
        <ele>267.8</ele>
        <time>2020-10-12T07:26:53Z</time>
      </trkpt>
      <trkpt lat="38.3252690" lon="-0.7945780">
        <ele>267.2</ele>
        <time>2020-10-12T07:26:54Z</time>
      </trkpt>
      <trkpt lat="38.3253110" lon="-0.7944730">
        <ele>266.8</ele>
        <time>2020-10-12T07:26:55Z</time>
      </trkpt>
      <trkpt lat="38.3253530" lon="-0.7943670">
        <ele>266.2</ele>
        <time>2020-10-12T07:26:56Z</time>
      </trkpt>
      <trkpt lat="38.3253950" lon="-0.7942600">
        <ele>266.0</ele>
        <time>2020-10-12T07:26:57Z</time>
      </trkpt>
      <trkpt lat="38.3254360" lon="-0.7941540">
        <ele>266.2</ele>
        <time>2020-10-12T07:26:58Z</time>
      </trkpt>
      <trkpt lat="38.3254780" lon="-0.7940460">
        <ele>266.6</ele>
        <time>2020-10-12T07:26:59Z</time>
      </trkpt>
      <trkpt lat="38.3255190" lon="-0.7939400">
        <ele>266.6</ele>
        <time>2020-10-12T07:27:00Z</time>
      </trkpt>
      <trkpt lat="38.3255600" lon="-0.7938330">
        <ele>266.6</ele>
        <time>2020-10-12T07:27:01Z</time>
      </trkpt>
      <trkpt lat="38.3256030" lon="-0.7937290">
        <ele>266.8</ele>
        <time>2020-10-12T07:27:02Z</time>
      </trkpt>
      <trkpt lat="38.3256450" lon="-0.7936240">
        <ele>266.8</ele>
        <time>2020-10-12T07:27:03Z</time>
      </trkpt>
      <trkpt lat="38.3256860" lon="-0.7935190">
        <ele>266.6</ele>
        <time>2020-10-12T07:27:04Z</time>
      </trkpt>
      <trkpt lat="38.3257270" lon="-0.7934140">
        <ele>266.6</ele>
        <time>2020-10-12T07:27:05Z</time>
      </trkpt>
      <trkpt lat="38.3257680" lon="-0.7933080">
        <ele>266.4</ele>
        <time>2020-10-12T07:27:06Z</time>
      </trkpt>
      <trkpt lat="38.3258090" lon="-0.7932020">
        <ele>266.4</ele>
        <time>2020-10-12T07:27:07Z</time>
      </trkpt>
      <trkpt lat="38.3258490" lon="-0.7930960">
        <ele>266.4</ele>
        <time>2020-10-12T07:27:08Z</time>
      </trkpt>
      <trkpt lat="38.3258910" lon="-0.7929910">
        <ele>266.0</ele>
        <time>2020-10-12T07:27:09Z</time>
      </trkpt>
      <trkpt lat="38.3259310" lon="-0.7928860">
        <ele>265.8</ele>
        <time>2020-10-12T07:27:10Z</time>
      </trkpt>
      <trkpt lat="38.3259710" lon="-0.7927810">
        <ele>265.4</ele>
        <time>2020-10-12T07:27:11Z</time>
      </trkpt>
      <trkpt lat="38.3260110" lon="-0.7926770">
        <ele>265.0</ele>
        <time>2020-10-12T07:27:12Z</time>
      </trkpt>
      <trkpt lat="38.3260530" lon="-0.7925740">
        <ele>264.4</ele>
        <time>2020-10-12T07:27:13Z</time>
      </trkpt>
      <trkpt lat="38.3260930" lon="-0.7924700">
        <ele>263.8</ele>
        <time>2020-10-12T07:27:14Z</time>
      </trkpt>
      <trkpt lat="38.3261340" lon="-0.7923650">
        <ele>263.4</ele>
        <time>2020-10-12T07:27:15Z</time>
      </trkpt>
      <trkpt lat="38.3261750" lon="-0.7922610">
        <ele>263.0</ele>
        <time>2020-10-12T07:27:16Z</time>
      </trkpt>
      <trkpt lat="38.3262180" lon="-0.7921550">
        <ele>262.6</ele>
        <time>2020-10-12T07:27:17Z</time>
      </trkpt>
      <trkpt lat="38.3262600" lon="-0.7920500">
        <ele>262.2</ele>
        <time>2020-10-12T07:27:18Z</time>
      </trkpt>
      <trkpt lat="38.3263000" lon="-0.7919440">
        <ele>262.0</ele>
        <time>2020-10-12T07:27:19Z</time>
      </trkpt>
      <trkpt lat="38.3263410" lon="-0.7918390">
        <ele>262.0</ele>
        <time>2020-10-12T07:27:20Z</time>
      </trkpt>
      <trkpt lat="38.3263830" lon="-0.7917320">
        <ele>262.0</ele>
        <time>2020-10-12T07:27:21Z</time>
      </trkpt>
      <trkpt lat="38.3264250" lon="-0.7916260">
        <ele>262.0</ele>
        <time>2020-10-12T07:27:22Z</time>
      </trkpt>
      <trkpt lat="38.3264670" lon="-0.7915220">
        <ele>262.0</ele>
        <time>2020-10-12T07:27:23Z</time>
      </trkpt>
      <trkpt lat="38.3265090" lon="-0.7914180">
        <ele>262.2</ele>
        <time>2020-10-12T07:27:24Z</time>
      </trkpt>
      <trkpt lat="38.3265510" lon="-0.7913120">
        <ele>262.6</ele>
        <time>2020-10-12T07:27:25Z</time>
      </trkpt>
      <trkpt lat="38.3265910" lon="-0.7912100">
        <ele>263.2</ele>
        <time>2020-10-12T07:27:26Z</time>
      </trkpt>
      <trkpt lat="38.3266310" lon="-0.7911060">
        <ele>263.6</ele>
        <time>2020-10-12T07:27:27Z</time>
      </trkpt>
      <trkpt lat="38.3266720" lon="-0.7910040">
        <ele>263.6</ele>
        <time>2020-10-12T07:27:28Z</time>
      </trkpt>
      <trkpt lat="38.3267140" lon="-0.7908990">
        <ele>263.8</ele>
        <time>2020-10-12T07:27:29Z</time>
      </trkpt>
      <trkpt lat="38.3267540" lon="-0.7907960">
        <ele>264.2</ele>
        <time>2020-10-12T07:27:30Z</time>
      </trkpt>
      <trkpt lat="38.3267960" lon="-0.7906880">
        <ele>264.2</ele>
        <time>2020-10-12T07:27:31Z</time>
      </trkpt>
      <trkpt lat="38.3268360" lon="-0.7905820">
        <ele>264.2</ele>
        <time>2020-10-12T07:27:32Z</time>
      </trkpt>
      <trkpt lat="38.3268780" lon="-0.7904750">
        <ele>264.2</ele>
        <time>2020-10-12T07:27:33Z</time>
      </trkpt>
      <trkpt lat="38.3269200" lon="-0.7903700">
        <ele>264.2</ele>
        <time>2020-10-12T07:27:34Z</time>
      </trkpt>
      <trkpt lat="38.3269620" lon="-0.7902650">
        <ele>264.2</ele>
        <time>2020-10-12T07:27:35Z</time>
      </trkpt>
      <trkpt lat="38.3270040" lon="-0.7901590">
        <ele>264.2</ele>
        <time>2020-10-12T07:27:36Z</time>
      </trkpt>
      <trkpt lat="38.3270460" lon="-0.7900560">
        <ele>264.2</ele>
        <time>2020-10-12T07:27:37Z</time>
      </trkpt>
      <trkpt lat="38.3270870" lon="-0.7899530">
        <ele>264.0</ele>
        <time>2020-10-12T07:27:38Z</time>
      </trkpt>
      <trkpt lat="38.3271260" lon="-0.7898450">
        <ele>264.0</ele>
        <time>2020-10-12T07:27:39Z</time>
      </trkpt>
      <trkpt lat="38.3271670" lon="-0.7897390">
        <ele>264.0</ele>
        <time>2020-10-12T07:27:40Z</time>
      </trkpt>
      <trkpt lat="38.3272090" lon="-0.7896330">
        <ele>263.6</ele>
        <time>2020-10-12T07:27:41Z</time>
      </trkpt>
      <trkpt lat="38.3272520" lon="-0.7895250">
        <ele>263.4</ele>
        <time>2020-10-12T07:27:42Z</time>
      </trkpt>
      <trkpt lat="38.3272920" lon="-0.7894210">
        <ele>263.2</ele>
        <time>2020-10-12T07:27:43Z</time>
      </trkpt>
      <trkpt lat="38.3273340" lon="-0.7893140">
        <ele>263.2</ele>
        <time>2020-10-12T07:27:44Z</time>
      </trkpt>
      <trkpt lat="38.3273750" lon="-0.7892090">
        <ele>263.2</ele>
        <time>2020-10-12T07:27:45Z</time>
      </trkpt>
      <trkpt lat="38.3274160" lon="-0.7891060">
        <ele>263.2</ele>
        <time>2020-10-12T07:27:46Z</time>
      </trkpt>
      <trkpt lat="38.3274560" lon="-0.7890000">
        <ele>263.4</ele>
        <time>2020-10-12T07:27:47Z</time>
      </trkpt>
      <trkpt lat="38.3274970" lon="-0.7888950">
        <ele>263.4</ele>
        <time>2020-10-12T07:27:48Z</time>
      </trkpt>
      <trkpt lat="38.3275390" lon="-0.7887890">
        <ele>263.4</ele>
        <time>2020-10-12T07:27:49Z</time>
      </trkpt>
      <trkpt lat="38.3275800" lon="-0.7886820">
        <ele>263.2</ele>
        <time>2020-10-12T07:27:50Z</time>
      </trkpt>
      <trkpt lat="38.3276190" lon="-0.7885780">
        <ele>263.2</ele>
        <time>2020-10-12T07:27:51Z</time>
      </trkpt>
      <trkpt lat="38.3276620" lon="-0.7884740">
        <ele>262.8</ele>
        <time>2020-10-12T07:27:52Z</time>
      </trkpt>
      <trkpt lat="38.3277080" lon="-0.7883720">
        <ele>262.6</ele>
        <time>2020-10-12T07:27:53Z</time>
      </trkpt>
      <trkpt lat="38.3277520" lon="-0.7882670">
        <ele>262.2</ele>
        <time>2020-10-12T07:27:54Z</time>
      </trkpt>
      <trkpt lat="38.3277950" lon="-0.7881610">
        <ele>261.8</ele>
        <time>2020-10-12T07:27:55Z</time>
      </trkpt>
      <trkpt lat="38.3278340" lon="-0.7880540">
        <ele>261.4</ele>
        <time>2020-10-12T07:27:56Z</time>
      </trkpt>
      <trkpt lat="38.3278750" lon="-0.7879480">
        <ele>261.2</ele>
        <time>2020-10-12T07:27:57Z</time>
      </trkpt>
      <trkpt lat="38.3279170" lon="-0.7878440">
        <ele>261.0</ele>
        <time>2020-10-12T07:27:58Z</time>
      </trkpt>
      <trkpt lat="38.3279590" lon="-0.7877360">
        <ele>260.8</ele>
        <time>2020-10-12T07:27:59Z</time>
      </trkpt>
      <trkpt lat="38.3280010" lon="-0.7876260">
        <ele>260.6</ele>
        <time>2020-10-12T07:28:00Z</time>
      </trkpt>
      <trkpt lat="38.3280450" lon="-0.7875170">
        <ele>260.6</ele>
        <time>2020-10-12T07:28:01Z</time>
      </trkpt>
      <trkpt lat="38.3280860" lon="-0.7874100">
        <ele>260.8</ele>
        <time>2020-10-12T07:28:02Z</time>
      </trkpt>
      <trkpt lat="38.3281270" lon="-0.7873020">
        <ele>260.8</ele>
        <time>2020-10-12T07:28:03Z</time>
      </trkpt>
      <trkpt lat="38.3281700" lon="-0.7871970">
        <ele>260.8</ele>
        <time>2020-10-12T07:28:04Z</time>
      </trkpt>
      <trkpt lat="38.3282130" lon="-0.7870920">
        <ele>260.8</ele>
        <time>2020-10-12T07:28:05Z</time>
      </trkpt>
      <trkpt lat="38.3282530" lon="-0.7869850">
        <ele>260.8</ele>
        <time>2020-10-12T07:28:06Z</time>
      </trkpt>
      <trkpt lat="38.3282930" lon="-0.7868790">
        <ele>260.8</ele>
        <time>2020-10-12T07:28:07Z</time>
      </trkpt>
      <trkpt lat="38.3283330" lon="-0.7867760">
        <ele>260.4</ele>
        <time>2020-10-12T07:28:08Z</time>
      </trkpt>
      <trkpt lat="38.3283700" lon="-0.7866760">
        <ele>260.0</ele>
        <time>2020-10-12T07:28:09Z</time>
      </trkpt>
      <trkpt lat="38.3284060" lon="-0.7865750">
        <ele>259.4</ele>
        <time>2020-10-12T07:28:10Z</time>
      </trkpt>
      <trkpt lat="38.3284440" lon="-0.7864720">
        <ele>259.2</ele>
        <time>2020-10-12T07:28:11Z</time>
      </trkpt>
      <trkpt lat="38.3284840" lon="-0.7863700">
        <ele>259.2</ele>
        <time>2020-10-12T07:28:12Z</time>
      </trkpt>
      <trkpt lat="38.3285210" lon="-0.7862670">
        <ele>259.2</ele>
        <time>2020-10-12T07:28:13Z</time>
      </trkpt>
      <trkpt lat="38.3285580" lon="-0.7861650">
        <ele>259.2</ele>
        <time>2020-10-12T07:28:14Z</time>
      </trkpt>
      <trkpt lat="38.3285990" lon="-0.7860610">
        <ele>259.2</ele>
        <time>2020-10-12T07:28:15Z</time>
      </trkpt>
      <trkpt lat="38.3286410" lon="-0.7859580">
        <ele>258.8</ele>
        <time>2020-10-12T07:28:16Z</time>
      </trkpt>
      <trkpt lat="38.3286850" lon="-0.7858560">
        <ele>258.2</ele>
        <time>2020-10-12T07:28:17Z</time>
      </trkpt>
      <trkpt lat="38.3287290" lon="-0.7857510">
        <ele>257.2</ele>
        <time>2020-10-12T07:28:18Z</time>
      </trkpt>
      <trkpt lat="38.3287700" lon="-0.7856480">
        <ele>256.0</ele>
        <time>2020-10-12T07:28:19Z</time>
      </trkpt>
      <trkpt lat="38.3288130" lon="-0.7855450">
        <ele>255.6</ele>
        <time>2020-10-12T07:28:20Z</time>
      </trkpt>
      <trkpt lat="38.3288530" lon="-0.7854400">
        <ele>255.2</ele>
        <time>2020-10-12T07:28:21Z</time>
      </trkpt>
      <trkpt lat="38.3288940" lon="-0.7853350">
        <ele>255.0</ele>
        <time>2020-10-12T07:28:22Z</time>
      </trkpt>
      <trkpt lat="38.3289330" lon="-0.7852310">
        <ele>255.2</ele>
        <time>2020-10-12T07:28:23Z</time>
      </trkpt>
      <trkpt lat="38.3289720" lon="-0.7851240">
        <ele>255.2</ele>
        <time>2020-10-12T07:28:24Z</time>
      </trkpt>
      <trkpt lat="38.3290120" lon="-0.7850190">
        <ele>255.2</ele>
        <time>2020-10-12T07:28:25Z</time>
      </trkpt>
      <trkpt lat="38.3290520" lon="-0.7849130">
        <ele>255.0</ele>
        <time>2020-10-12T07:28:26Z</time>
      </trkpt>
      <trkpt lat="38.3290910" lon="-0.7848060">
        <ele>255.0</ele>
        <time>2020-10-12T07:28:27Z</time>
      </trkpt>
      <trkpt lat="38.3291300" lon="-0.7847020">
        <ele>255.0</ele>
        <time>2020-10-12T07:28:28Z</time>
      </trkpt>
      <trkpt lat="38.3291730" lon="-0.7845980">
        <ele>254.8</ele>
        <time>2020-10-12T07:28:29Z</time>
      </trkpt>
      <trkpt lat="38.3292160" lon="-0.7844940">
        <ele>254.6</ele>
        <time>2020-10-12T07:28:30Z</time>
      </trkpt>
      <trkpt lat="38.3292580" lon="-0.7843900">
        <ele>254.6</ele>
        <time>2020-10-12T07:28:31Z</time>
      </trkpt>
      <trkpt lat="38.3292980" lon="-0.7842860">
        <ele>254.8</ele>
        <time>2020-10-12T07:28:32Z</time>
      </trkpt>
      <trkpt lat="38.3293370" lon="-0.7841820">
        <ele>254.8</ele>
        <time>2020-10-12T07:28:33Z</time>
      </trkpt>
      <trkpt lat="38.3293740" lon="-0.7840750">
        <ele>254.8</ele>
        <time>2020-10-12T07:28:34Z</time>
      </trkpt>
      <trkpt lat="38.3294110" lon="-0.7839710">
        <ele>254.8</ele>
        <time>2020-10-12T07:28:35Z</time>
      </trkpt>
      <trkpt lat="38.3294490" lon="-0.7838680">
        <ele>254.8</ele>
        <time>2020-10-12T07:28:36Z</time>
      </trkpt>
      <trkpt lat="38.3294890" lon="-0.7837640">
        <ele>254.8</ele>
        <time>2020-10-12T07:28:37Z</time>
      </trkpt>
      <trkpt lat="38.3295330" lon="-0.7836590">
        <ele>254.8</ele>
        <time>2020-10-12T07:28:38Z</time>
      </trkpt>
      <trkpt lat="38.3295760" lon="-0.7835520">
        <ele>254.8</ele>
        <time>2020-10-12T07:28:39Z</time>
      </trkpt>
      <trkpt lat="38.3296160" lon="-0.7834480">
        <ele>255.0</ele>
        <time>2020-10-12T07:28:40Z</time>
      </trkpt>
      <trkpt lat="38.3296550" lon="-0.7833410">
        <ele>255.0</ele>
        <time>2020-10-12T07:28:41Z</time>
      </trkpt>
      <trkpt lat="38.3296970" lon="-0.7832370">
        <ele>255.0</ele>
        <time>2020-10-12T07:28:42Z</time>
      </trkpt>
      <trkpt lat="38.3297390" lon="-0.7831280">
        <ele>254.8</ele>
        <time>2020-10-12T07:28:43Z</time>
      </trkpt>
      <trkpt lat="38.3297800" lon="-0.7830180">
        <ele>254.6</ele>
        <time>2020-10-12T07:28:44Z</time>
      </trkpt>
      <trkpt lat="38.3298170" lon="-0.7829130">
        <ele>254.8</ele>
        <time>2020-10-12T07:28:45Z</time>
      </trkpt>
      <trkpt lat="38.3298540" lon="-0.7828100">
        <ele>254.6</ele>
        <time>2020-10-12T07:28:46Z</time>
      </trkpt>
      <trkpt lat="38.3298900" lon="-0.7827140">
        <ele>254.6</ele>
        <time>2020-10-12T07:28:47Z</time>
      </trkpt>
      <trkpt lat="38.3299240" lon="-0.7826210">
        <ele>254.8</ele>
        <time>2020-10-12T07:28:48Z</time>
      </trkpt>
      <trkpt lat="38.3299610" lon="-0.7825320">
        <ele>255.0</ele>
        <time>2020-10-12T07:28:49Z</time>
      </trkpt>
      <trkpt lat="38.3299910" lon="-0.7824440">
        <ele>255.2</ele>
        <time>2020-10-12T07:28:50Z</time>
      </trkpt>
      <trkpt lat="38.3300130" lon="-0.7823580">
        <ele>255.4</ele>
        <time>2020-10-12T07:28:51Z</time>
      </trkpt>
      <trkpt lat="38.3300300" lon="-0.7822710">
        <ele>255.8</ele>
        <time>2020-10-12T07:28:52Z</time>
      </trkpt>
      <trkpt lat="38.3300420" lon="-0.7821850">
        <ele>256.2</ele>
        <time>2020-10-12T07:28:53Z</time>
      </trkpt>
      <trkpt lat="38.3300470" lon="-0.7821000">
        <ele>256.2</ele>
        <time>2020-10-12T07:28:54Z</time>
      </trkpt>
      <trkpt lat="38.3300470" lon="-0.7820160">
        <ele>256.4</ele>
        <time>2020-10-12T07:28:55Z</time>
      </trkpt>
      <trkpt lat="38.3300420" lon="-0.7819360">
        <ele>256.6</ele>
        <time>2020-10-12T07:28:56Z</time>
      </trkpt>
      <trkpt lat="38.3300320" lon="-0.7818570">
        <ele>256.8</ele>
        <time>2020-10-12T07:28:57Z</time>
      </trkpt>
      <trkpt lat="38.3300170" lon="-0.7817780">
        <ele>257.0</ele>
        <time>2020-10-12T07:28:58Z</time>
      </trkpt>
      <trkpt lat="38.3299940" lon="-0.7817010">
        <ele>257.0</ele>
        <time>2020-10-12T07:28:59Z</time>
      </trkpt>
      <trkpt lat="38.3299670" lon="-0.7816270">
        <ele>257.2</ele>
        <time>2020-10-12T07:29:00Z</time>
      </trkpt>
      <trkpt lat="38.3299440" lon="-0.7815530">
        <ele>257.4</ele>
        <time>2020-10-12T07:29:01Z</time>
      </trkpt>
      <trkpt lat="38.3299270" lon="-0.7814790">
        <ele>257.6</ele>
        <time>2020-10-12T07:29:02Z</time>
      </trkpt>
      <trkpt lat="38.3299170" lon="-0.7814010">
        <ele>258.0</ele>
        <time>2020-10-12T07:29:03Z</time>
      </trkpt>
      <trkpt lat="38.3299190" lon="-0.7813250">
        <ele>258.4</ele>
        <time>2020-10-12T07:29:04Z</time>
      </trkpt>
      <trkpt lat="38.3299330" lon="-0.7812570">
        <ele>258.8</ele>
        <time>2020-10-12T07:29:05Z</time>
      </trkpt>
      <trkpt lat="38.3299570" lon="-0.7811920">
        <ele>259.0</ele>
        <time>2020-10-12T07:29:06Z</time>
      </trkpt>
      <trkpt lat="38.3299920" lon="-0.7811330">
        <ele>259.2</ele>
        <time>2020-10-12T07:29:07Z</time>
      </trkpt>
      <trkpt lat="38.3300370" lon="-0.7810810">
        <ele>259.6</ele>
        <time>2020-10-12T07:29:08Z</time>
      </trkpt>
      <trkpt lat="38.3300890" lon="-0.7810390">
        <ele>260.0</ele>
        <time>2020-10-12T07:29:09Z</time>
      </trkpt>
      <trkpt lat="38.3301490" lon="-0.7809980">
        <ele>260.2</ele>
        <time>2020-10-12T07:29:10Z</time>
      </trkpt>
      <trkpt lat="38.3302090" lon="-0.7809690">
        <ele>260.6</ele>
        <time>2020-10-12T07:29:11Z</time>
      </trkpt>
      <trkpt lat="38.3302730" lon="-0.7809450">
        <ele>260.8</ele>
        <time>2020-10-12T07:29:12Z</time>
      </trkpt>
      <trkpt lat="38.3303360" lon="-0.7809190">
        <ele>260.8</ele>
        <time>2020-10-12T07:29:13Z</time>
      </trkpt>
      <trkpt lat="38.3303900" lon="-0.7808910">
        <ele>260.8</ele>
        <time>2020-10-12T07:29:14Z</time>
      </trkpt>
      <trkpt lat="38.3304470" lon="-0.7808590">
        <ele>260.4</ele>
        <time>2020-10-12T07:29:15Z</time>
      </trkpt>
      <trkpt lat="38.3305080" lon="-0.7808290">
        <ele>260.0</ele>
        <time>2020-10-12T07:29:16Z</time>
      </trkpt>
      <trkpt lat="38.3305730" lon="-0.7807930">
        <ele>259.8</ele>
        <time>2020-10-12T07:29:17Z</time>
      </trkpt>
      <trkpt lat="38.3306390" lon="-0.7807580">
        <ele>259.4</ele>
        <time>2020-10-12T07:29:18Z</time>
      </trkpt>
      <trkpt lat="38.3307060" lon="-0.7807240">
        <ele>259.0</ele>
        <time>2020-10-12T07:29:19Z</time>
      </trkpt>
      <trkpt lat="38.3307740" lon="-0.7806880">
        <ele>258.8</ele>
        <time>2020-10-12T07:29:20Z</time>
      </trkpt>
      <trkpt lat="38.3308450" lon="-0.7806500">
        <ele>258.8</ele>
        <time>2020-10-12T07:29:21Z</time>
      </trkpt>
      <trkpt lat="38.3309140" lon="-0.7806170">
        <ele>258.8</ele>
        <time>2020-10-12T07:29:22Z</time>
      </trkpt>
      <trkpt lat="38.3309850" lon="-0.7805860">
        <ele>258.8</ele>
        <time>2020-10-12T07:29:23Z</time>
      </trkpt>
      <trkpt lat="38.3310560" lon="-0.7805570">
        <ele>258.8</ele>
        <time>2020-10-12T07:29:24Z</time>
      </trkpt>
      <trkpt lat="38.3311230" lon="-0.7805280">
        <ele>258.6</ele>
        <time>2020-10-12T07:29:25Z</time>
      </trkpt>
      <trkpt lat="38.3311920" lon="-0.7804980">
        <ele>258.8</ele>
        <time>2020-10-12T07:29:26Z</time>
      </trkpt>
      <trkpt lat="38.3312610" lon="-0.7804690">
        <ele>258.8</ele>
        <time>2020-10-12T07:29:27Z</time>
      </trkpt>
      <trkpt lat="38.3313300" lon="-0.7804400">
        <ele>258.8</ele>
        <time>2020-10-12T07:29:28Z</time>
      </trkpt>
      <trkpt lat="38.3314010" lon="-0.7804120">
        <ele>258.8</ele>
        <time>2020-10-12T07:29:29Z</time>
      </trkpt>
      <trkpt lat="38.3314720" lon="-0.7803860">
        <ele>258.6</ele>
        <time>2020-10-12T07:29:30Z</time>
      </trkpt>
      <trkpt lat="38.3315430" lon="-0.7803560">
        <ele>258.6</ele>
        <time>2020-10-12T07:29:31Z</time>
      </trkpt>
      <trkpt lat="38.3316130" lon="-0.7803250">
        <ele>258.6</ele>
        <time>2020-10-12T07:29:32Z</time>
      </trkpt>
      <trkpt lat="38.3316790" lon="-0.7802980">
        <ele>258.8</ele>
        <time>2020-10-12T07:29:33Z</time>
      </trkpt>
      <trkpt lat="38.3317460" lon="-0.7802740">
        <ele>259.0</ele>
        <time>2020-10-12T07:29:34Z</time>
      </trkpt>
      <trkpt lat="38.3318080" lon="-0.7802500">
        <ele>259.6</ele>
        <time>2020-10-12T07:29:35Z</time>
      </trkpt>
      <trkpt lat="38.3318690" lon="-0.7802290">
        <ele>260.0</ele>
        <time>2020-10-12T07:29:36Z</time>
      </trkpt>
      <trkpt lat="38.3319260" lon="-0.7802140">
        <ele>260.4</ele>
        <time>2020-10-12T07:29:37Z</time>
      </trkpt>
      <trkpt lat="38.3319830" lon="-0.7802040">
        <ele>260.6</ele>
        <time>2020-10-12T07:29:38Z</time>
      </trkpt>
      <trkpt lat="38.3320370" lon="-0.7802010">
        <ele>260.6</ele>
        <time>2020-10-12T07:29:39Z</time>
      </trkpt>
      <trkpt lat="38.3320940" lon="-0.7801870">
        <ele>260.6</ele>
        <time>2020-10-12T07:29:40Z</time>
      </trkpt>
      <trkpt lat="38.3321540" lon="-0.7801660">
        <ele>260.2</ele>
        <time>2020-10-12T07:29:41Z</time>
      </trkpt>
      <trkpt lat="38.3322200" lon="-0.7801450">
        <ele>259.8</ele>
        <time>2020-10-12T07:29:42Z</time>
      </trkpt>
      <trkpt lat="38.3322890" lon="-0.7801360">
        <ele>259.4</ele>
        <time>2020-10-12T07:29:43Z</time>
      </trkpt>
      <trkpt lat="38.3323870" lon="-0.7801170">
        <ele>259.2</ele>
        <time>2020-10-12T07:29:44Z</time>
      </trkpt>
      <trkpt lat="38.3324910" lon="-0.7800390">
        <ele>259.0</ele>
        <time>2020-10-12T07:29:45Z</time>
      </trkpt>
      <trkpt lat="38.3325780" lon="-0.7799830">
        <ele>258.6</ele>
        <time>2020-10-12T07:29:46Z</time>
      </trkpt>
      <trkpt lat="38.3326560" lon="-0.7799440">
        <ele>258.2</ele>
        <time>2020-10-12T07:29:47Z</time>
      </trkpt>
      <trkpt lat="38.3327310" lon="-0.7799120">
        <ele>257.8</ele>
        <time>2020-10-12T07:29:48Z</time>
      </trkpt>
      <trkpt lat="38.3328000" lon="-0.7798850">
        <ele>257.6</ele>
        <time>2020-10-12T07:29:49Z</time>
      </trkpt>
      <trkpt lat="38.3328720" lon="-0.7798560">
        <ele>257.4</ele>
        <time>2020-10-12T07:29:50Z</time>
      </trkpt>
      <trkpt lat="38.3329430" lon="-0.7798240">
        <ele>257.6</ele>
        <time>2020-10-12T07:29:51Z</time>
      </trkpt>
      <trkpt lat="38.3330090" lon="-0.7797930">
        <ele>257.8</ele>
        <time>2020-10-12T07:29:52Z</time>
      </trkpt>
      <trkpt lat="38.3330920" lon="-0.7797590">
        <ele>257.8</ele>
        <time>2020-10-12T07:29:53Z</time>
      </trkpt>
      <trkpt lat="38.3331670" lon="-0.7797240">
        <ele>257.8</ele>
        <time>2020-10-12T07:29:54Z</time>
      </trkpt>
      <trkpt lat="38.3332390" lon="-0.7796930">
        <ele>257.6</ele>
        <time>2020-10-12T07:29:55Z</time>
      </trkpt>
      <trkpt lat="38.3333110" lon="-0.7796650">
        <ele>257.2</ele>
        <time>2020-10-12T07:29:56Z</time>
      </trkpt>
      <trkpt lat="38.3333830" lon="-0.7796350">
        <ele>256.8</ele>
        <time>2020-10-12T07:29:57Z</time>
      </trkpt>
      <trkpt lat="38.3334530" lon="-0.7796020">
        <ele>256.4</ele>
        <time>2020-10-12T07:29:58Z</time>
      </trkpt>
      <trkpt lat="38.3335250" lon="-0.7795750">
        <ele>256.4</ele>
        <time>2020-10-12T07:29:59Z</time>
      </trkpt>
      <trkpt lat="38.3335960" lon="-0.7795470">
        <ele>256.2</ele>
        <time>2020-10-12T07:30:00Z</time>
      </trkpt>
      <trkpt lat="38.3336690" lon="-0.7795160">
        <ele>256.2</ele>
        <time>2020-10-12T07:30:01Z</time>
      </trkpt>
      <trkpt lat="38.3337430" lon="-0.7794830">
        <ele>256.0</ele>
        <time>2020-10-12T07:30:02Z</time>
      </trkpt>
      <trkpt lat="38.3338090" lon="-0.7794580">
        <ele>255.8</ele>
        <time>2020-10-12T07:30:03Z</time>
      </trkpt>
      <trkpt lat="38.3338800" lon="-0.7794300">
        <ele>255.6</ele>
        <time>2020-10-12T07:30:04Z</time>
      </trkpt>
      <trkpt lat="38.3339500" lon="-0.7793990">
        <ele>255.6</ele>
        <time>2020-10-12T07:30:05Z</time>
      </trkpt>
      <trkpt lat="38.3340170" lon="-0.7793770">
        <ele>255.6</ele>
        <time>2020-10-12T07:30:06Z</time>
      </trkpt>
      <trkpt lat="38.3340850" lon="-0.7793480">
        <ele>255.6</ele>
        <time>2020-10-12T07:30:07Z</time>
      </trkpt>
      <trkpt lat="38.3341530" lon="-0.7793220">
        <ele>255.4</ele>
        <time>2020-10-12T07:30:08Z</time>
      </trkpt>
      <trkpt lat="38.3342240" lon="-0.7792960">
        <ele>255.4</ele>
        <time>2020-10-12T07:30:09Z</time>
      </trkpt>
      <trkpt lat="38.3342960" lon="-0.7792690">
        <ele>255.4</ele>
        <time>2020-10-12T07:30:10Z</time>
      </trkpt>
      <trkpt lat="38.3343700" lon="-0.7792380">
        <ele>255.4</ele>
        <time>2020-10-12T07:30:11Z</time>
      </trkpt>
      <trkpt lat="38.3344420" lon="-0.7792040">
        <ele>255.4</ele>
        <time>2020-10-12T07:30:12Z</time>
      </trkpt>
      <trkpt lat="38.3345140" lon="-0.7791700">
        <ele>255.2</ele>
        <time>2020-10-12T07:30:13Z</time>
      </trkpt>
      <trkpt lat="38.3345810" lon="-0.7791390">
        <ele>255.2</ele>
        <time>2020-10-12T07:30:14Z</time>
      </trkpt>
      <trkpt lat="38.3346470" lon="-0.7791100">
        <ele>255.2</ele>
        <time>2020-10-12T07:30:15Z</time>
      </trkpt>
      <trkpt lat="38.3347130" lon="-0.7790810">
        <ele>255.0</ele>
        <time>2020-10-12T07:30:16Z</time>
      </trkpt>
      <trkpt lat="38.3347800" lon="-0.7790470">
        <ele>254.8</ele>
        <time>2020-10-12T07:30:17Z</time>
      </trkpt>
      <trkpt lat="38.3348480" lon="-0.7790140">
        <ele>254.8</ele>
        <time>2020-10-12T07:30:18Z</time>
      </trkpt>
      <trkpt lat="38.3349170" lon="-0.7789810">
        <ele>254.4</ele>
        <time>2020-10-12T07:30:19Z</time>
      </trkpt>
      <trkpt lat="38.3349880" lon="-0.7789490">
        <ele>254.2</ele>
        <time>2020-10-12T07:30:20Z</time>
      </trkpt>
      <trkpt lat="38.3350600" lon="-0.7789160">
        <ele>254.0</ele>
        <time>2020-10-12T07:30:21Z</time>
      </trkpt>
      <trkpt lat="38.3351320" lon="-0.7788810">
        <ele>254.0</ele>
        <time>2020-10-12T07:30:22Z</time>
      </trkpt>
      <trkpt lat="38.3352020" lon="-0.7788480">
        <ele>253.8</ele>
        <time>2020-10-12T07:30:23Z</time>
      </trkpt>
      <trkpt lat="38.3352730" lon="-0.7788110">
        <ele>253.8</ele>
        <time>2020-10-12T07:30:24Z</time>
      </trkpt>
      <trkpt lat="38.3353330" lon="-0.7787570">
        <ele>253.4</ele>
        <time>2020-10-12T07:30:25Z</time>
      </trkpt>
      <trkpt lat="38.3353690" lon="-0.7786830">
        <ele>253.2</ele>
        <time>2020-10-12T07:30:26Z</time>
      </trkpt>
      <trkpt lat="38.3353990" lon="-0.7785940">
        <ele>252.8</ele>
        <time>2020-10-12T07:30:27Z</time>
      </trkpt>
      <trkpt lat="38.3354290" lon="-0.7785100">
        <ele>252.4</ele>
        <time>2020-10-12T07:30:28Z</time>
      </trkpt>
      <trkpt lat="38.3354660" lon="-0.7784320">
        <ele>252.0</ele>
        <time>2020-10-12T07:30:29Z</time>
      </trkpt>
      <trkpt lat="38.3355090" lon="-0.7783630">
        <ele>252.0</ele>
        <time>2020-10-12T07:30:30Z</time>
      </trkpt>
      <trkpt lat="38.3355640" lon="-0.7783080">
        <ele>251.8</ele>
        <time>2020-10-12T07:30:31Z</time>
      </trkpt>
      <trkpt lat="38.3356360" lon="-0.7782720">
        <ele>251.8</ele>
        <time>2020-10-12T07:30:32Z</time>
      </trkpt>
      <trkpt lat="38.3357100" lon="-0.7782620">
        <ele>251.8</ele>
        <time>2020-10-12T07:30:33Z</time>
      </trkpt>
      <trkpt lat="38.3357920" lon="-0.7782690">
        <ele>251.8</ele>
        <time>2020-10-12T07:30:34Z</time>
      </trkpt>
      <trkpt lat="38.3358720" lon="-0.7782800">
        <ele>251.8</ele>
        <time>2020-10-12T07:30:35Z</time>
      </trkpt>
      <trkpt lat="38.3359530" lon="-0.7782910">
        <ele>252.0</ele>
        <time>2020-10-12T07:30:36Z</time>
      </trkpt>
      <trkpt lat="38.3360320" lon="-0.7782890">
        <ele>252.0</ele>
        <time>2020-10-12T07:30:37Z</time>
      </trkpt>
      <trkpt lat="38.3361090" lon="-0.7782720">
        <ele>252.0</ele>
        <time>2020-10-12T07:30:38Z</time>
      </trkpt>
      <trkpt lat="38.3361800" lon="-0.7782460">
        <ele>252.0</ele>
        <time>2020-10-12T07:30:39Z</time>
      </trkpt>
      <trkpt lat="38.3362490" lon="-0.7782140">
        <ele>252.0</ele>
        <time>2020-10-12T07:30:40Z</time>
      </trkpt>
      <trkpt lat="38.3363190" lon="-0.7781820">
        <ele>252.0</ele>
        <time>2020-10-12T07:30:41Z</time>
      </trkpt>
      <trkpt lat="38.3363880" lon="-0.7781510">
        <ele>252.0</ele>
        <time>2020-10-12T07:30:42Z</time>
      </trkpt>
      <trkpt lat="38.3364540" lon="-0.7781210">
        <ele>251.8</ele>
        <time>2020-10-12T07:30:43Z</time>
      </trkpt>
      <trkpt lat="38.3365150" lon="-0.7780930">
        <ele>251.4</ele>
        <time>2020-10-12T07:30:44Z</time>
      </trkpt>
      <trkpt lat="38.3365750" lon="-0.7780610">
        <ele>251.0</ele>
        <time>2020-10-12T07:30:45Z</time>
      </trkpt>
      <trkpt lat="38.3366280" lon="-0.7780280">
        <ele>250.8</ele>
        <time>2020-10-12T07:30:46Z</time>
      </trkpt>
      <trkpt lat="38.3366820" lon="-0.7779970">
        <ele>250.8</ele>
        <time>2020-10-12T07:30:47Z</time>
      </trkpt>
      <trkpt lat="38.3367380" lon="-0.7779680">
        <ele>251.0</ele>
        <time>2020-10-12T07:30:48Z</time>
      </trkpt>
      <trkpt lat="38.3368000" lon="-0.7779320">
        <ele>251.0</ele>
        <time>2020-10-12T07:30:49Z</time>
      </trkpt>
      <trkpt lat="38.3368650" lon="-0.7778980">
        <ele>251.0</ele>
        <time>2020-10-12T07:30:50Z</time>
      </trkpt>
      <trkpt lat="38.3369370" lon="-0.7778600">
        <ele>251.0</ele>
        <time>2020-10-12T07:30:51Z</time>
      </trkpt>
      <trkpt lat="38.3370070" lon="-0.7778260">
        <ele>251.0</ele>
        <time>2020-10-12T07:30:52Z</time>
      </trkpt>
      <trkpt lat="38.3370740" lon="-0.7777920">
        <ele>250.8</ele>
        <time>2020-10-12T07:30:53Z</time>
      </trkpt>
      <trkpt lat="38.3371400" lon="-0.7777590">
        <ele>250.8</ele>
        <time>2020-10-12T07:30:54Z</time>
      </trkpt>
      <trkpt lat="38.3372020" lon="-0.7777230">
        <ele>250.8</ele>
        <time>2020-10-12T07:30:55Z</time>
      </trkpt>
      <trkpt lat="38.3372660" lon="-0.7776870">
        <ele>250.8</ele>
        <time>2020-10-12T07:30:56Z</time>
      </trkpt>
      <trkpt lat="38.3373310" lon="-0.7776510">
        <ele>250.8</ele>
        <time>2020-10-12T07:30:57Z</time>
      </trkpt>
      <trkpt lat="38.3373960" lon="-0.7776120">
        <ele>250.8</ele>
        <time>2020-10-12T07:30:58Z</time>
      </trkpt>
      <trkpt lat="38.3374590" lon="-0.7775720">
        <ele>250.8</ele>
        <time>2020-10-12T07:30:59Z</time>
      </trkpt>
      <trkpt lat="38.3375240" lon="-0.7775340">
        <ele>251.0</ele>
        <time>2020-10-12T07:31:00Z</time>
      </trkpt>
      <trkpt lat="38.3375880" lon="-0.7774950">
        <ele>251.0</ele>
        <time>2020-10-12T07:31:01Z</time>
      </trkpt>
      <trkpt lat="38.3376480" lon="-0.7774600">
        <ele>251.0</ele>
        <time>2020-10-12T07:31:02Z</time>
      </trkpt>
      <trkpt lat="38.3377030" lon="-0.7774250">
        <ele>250.8</ele>
        <time>2020-10-12T07:31:03Z</time>
      </trkpt>
      <trkpt lat="38.3377510" lon="-0.7773910">
        <ele>250.8</ele>
        <time>2020-10-12T07:31:04Z</time>
      </trkpt>
      <trkpt lat="38.3378010" lon="-0.7773650">
        <ele>250.8</ele>
        <time>2020-10-12T07:31:05Z</time>
      </trkpt>
      <trkpt lat="38.3378490" lon="-0.7773360">
        <ele>250.8</ele>
        <time>2020-10-12T07:31:06Z</time>
      </trkpt>
      <trkpt lat="38.3378980" lon="-0.7772950">
        <ele>250.8</ele>
        <time>2020-10-12T07:31:07Z</time>
      </trkpt>
      <trkpt lat="38.3379560" lon="-0.7772490">
        <ele>250.4</ele>
        <time>2020-10-12T07:31:08Z</time>
      </trkpt>
      <trkpt lat="38.3380090" lon="-0.7772010">
        <ele>250.4</ele>
        <time>2020-10-12T07:31:09Z</time>
      </trkpt>
      <trkpt lat="38.3380590" lon="-0.7771500">
        <ele>250.6</ele>
        <time>2020-10-12T07:31:10Z</time>
      </trkpt>
      <trkpt lat="38.3381090" lon="-0.7770950">
        <ele>250.8</ele>
        <time>2020-10-12T07:31:11Z</time>
      </trkpt>
      <trkpt lat="38.3381600" lon="-0.7770350">
        <ele>251.4</ele>
        <time>2020-10-12T07:31:12Z</time>
      </trkpt>
      <trkpt lat="38.3382150" lon="-0.7769740">
        <ele>251.8</ele>
        <time>2020-10-12T07:31:13Z</time>
      </trkpt>
      <trkpt lat="38.3382680" lon="-0.7769130">
        <ele>252.0</ele>
        <time>2020-10-12T07:31:14Z</time>
      </trkpt>
      <trkpt lat="38.3383230" lon="-0.7768560">
        <ele>252.2</ele>
        <time>2020-10-12T07:31:15Z</time>
      </trkpt>
      <trkpt lat="38.3383790" lon="-0.7768070">
        <ele>252.2</ele>
        <time>2020-10-12T07:31:16Z</time>
      </trkpt>
      <trkpt lat="38.3384340" lon="-0.7767470">
        <ele>251.8</ele>
        <time>2020-10-12T07:31:17Z</time>
      </trkpt>
      <trkpt lat="38.3384880" lon="-0.7766850">
        <ele>251.4</ele>
        <time>2020-10-12T07:31:18Z</time>
      </trkpt>
      <trkpt lat="38.3385430" lon="-0.7766210">
        <ele>251.0</ele>
        <time>2020-10-12T07:31:19Z</time>
      </trkpt>
      <trkpt lat="38.3385900" lon="-0.7765500">
        <ele>250.6</ele>
        <time>2020-10-12T07:31:20Z</time>
      </trkpt>
      <trkpt lat="38.3386380" lon="-0.7764810">
        <ele>250.0</ele>
        <time>2020-10-12T07:31:21Z</time>
      </trkpt>
      <trkpt lat="38.3386880" lon="-0.7764210">
        <ele>249.2</ele>
        <time>2020-10-12T07:31:22Z</time>
      </trkpt>
      <trkpt lat="38.3387390" lon="-0.7763650">
        <ele>248.2</ele>
        <time>2020-10-12T07:31:23Z</time>
      </trkpt>
      <trkpt lat="38.3387900" lon="-0.7763120">
        <ele>247.6</ele>
        <time>2020-10-12T07:31:24Z</time>
      </trkpt>
      <trkpt lat="38.3388460" lon="-0.7762550">
        <ele>247.4</ele>
        <time>2020-10-12T07:31:25Z</time>
      </trkpt>
      <trkpt lat="38.3388990" lon="-0.7761990">
        <ele>247.2</ele>
        <time>2020-10-12T07:31:26Z</time>
      </trkpt>
      <trkpt lat="38.3389490" lon="-0.7761410">
        <ele>247.2</ele>
        <time>2020-10-12T07:31:27Z</time>
      </trkpt>
      <trkpt lat="38.3390000" lon="-0.7760780">
        <ele>247.4</ele>
        <time>2020-10-12T07:31:28Z</time>
      </trkpt>
      <trkpt lat="38.3390550" lon="-0.7760170">
        <ele>247.6</ele>
        <time>2020-10-12T07:31:29Z</time>
      </trkpt>
      <trkpt lat="38.3391080" lon="-0.7759560">
        <ele>247.6</ele>
        <time>2020-10-12T07:31:30Z</time>
      </trkpt>
      <trkpt lat="38.3391620" lon="-0.7758950">
        <ele>247.6</ele>
        <time>2020-10-12T07:31:31Z</time>
      </trkpt>
      <trkpt lat="38.3392120" lon="-0.7758340">
        <ele>247.4</ele>
        <time>2020-10-12T07:31:32Z</time>
      </trkpt>
      <trkpt lat="38.3392640" lon="-0.7757760">
        <ele>247.0</ele>
        <time>2020-10-12T07:31:33Z</time>
      </trkpt>
      <trkpt lat="38.3393160" lon="-0.7757170">
        <ele>246.4</ele>
        <time>2020-10-12T07:31:34Z</time>
      </trkpt>
      <trkpt lat="38.3393580" lon="-0.7756580">
        <ele>246.0</ele>
        <time>2020-10-12T07:31:35Z</time>
      </trkpt>
      <trkpt lat="38.3394040" lon="-0.7755990">
        <ele>245.8</ele>
        <time>2020-10-12T07:31:36Z</time>
      </trkpt>
      <trkpt lat="38.3394540" lon="-0.7755400">
        <ele>245.4</ele>
        <time>2020-10-12T07:31:37Z</time>
      </trkpt>
      <trkpt lat="38.3395020" lon="-0.7754830">
        <ele>245.2</ele>
        <time>2020-10-12T07:31:38Z</time>
      </trkpt>
      <trkpt lat="38.3395550" lon="-0.7754190">
        <ele>245.4</ele>
        <time>2020-10-12T07:31:39Z</time>
      </trkpt>
      <trkpt lat="38.3396200" lon="-0.7753510">
        <ele>246.0</ele>
        <time>2020-10-12T07:31:40Z</time>
      </trkpt>
      <trkpt lat="38.3396780" lon="-0.7752870">
        <ele>246.8</ele>
        <time>2020-10-12T07:31:41Z</time>
      </trkpt>
      <trkpt lat="38.3397360" lon="-0.7752250">
        <ele>247.4</ele>
        <time>2020-10-12T07:31:42Z</time>
      </trkpt>
      <trkpt lat="38.3397860" lon="-0.7751620">
        <ele>247.6</ele>
        <time>2020-10-12T07:31:43Z</time>
      </trkpt>
      <trkpt lat="38.3398360" lon="-0.7751030">
        <ele>247.8</ele>
        <time>2020-10-12T07:31:44Z</time>
      </trkpt>
      <trkpt lat="38.3398840" lon="-0.7750520">
        <ele>247.6</ele>
        <time>2020-10-12T07:31:45Z</time>
      </trkpt>
      <trkpt lat="38.3399410" lon="-0.7749980">
        <ele>247.0</ele>
        <time>2020-10-12T07:31:46Z</time>
      </trkpt>
      <trkpt lat="38.3399960" lon="-0.7749470">
        <ele>246.4</ele>
        <time>2020-10-12T07:31:47Z</time>
      </trkpt>
      <trkpt lat="38.3400400" lon="-0.7748920">
        <ele>246.0</ele>
        <time>2020-10-12T07:31:48Z</time>
      </trkpt>
      <trkpt lat="38.3400730" lon="-0.7748390">
        <ele>245.8</ele>
        <time>2020-10-12T07:31:49Z</time>
      </trkpt>
      <trkpt lat="38.3400940" lon="-0.7747950">
        <ele>246.0</ele>
        <time>2020-10-12T07:31:50Z</time>
      </trkpt>
      <trkpt lat="38.3401100" lon="-0.7747630">
        <ele>246.4</ele>
        <time>2020-10-12T07:31:51Z</time>
      </trkpt>
      <trkpt lat="38.3401240" lon="-0.7747400">
        <ele>246.6</ele>
        <time>2020-10-12T07:31:52Z</time>
      </trkpt>
      <trkpt lat="38.3401400" lon="-0.7747240">
        <ele>246.8</ele>
        <time>2020-10-12T07:31:53Z</time>
      </trkpt>
      <trkpt lat="38.3401610" lon="-0.7747110">
        <ele>247.0</ele>
        <time>2020-10-12T07:31:54Z</time>
      </trkpt>
      <trkpt lat="38.3401820" lon="-0.7746970">
        <ele>247.2</ele>
        <time>2020-10-12T07:31:55Z</time>
      </trkpt>
      <trkpt lat="38.3402060" lon="-0.7746850">
        <ele>247.2</ele>
        <time>2020-10-12T07:31:56Z</time>
      </trkpt>
      <trkpt lat="38.3402300" lon="-0.7746710">
        <ele>247.4</ele>
        <time>2020-10-12T07:31:57Z</time>
      </trkpt>
      <trkpt lat="38.3402540" lon="-0.7746480">
        <ele>247.2</ele>
        <time>2020-10-12T07:31:58Z</time>
      </trkpt>
      <trkpt lat="38.3402790" lon="-0.7746210">
        <ele>247.0</ele>
        <time>2020-10-12T07:31:59Z</time>
      </trkpt>
      <trkpt lat="38.3403020" lon="-0.7746000">
        <ele>246.8</ele>
        <time>2020-10-12T07:32:00Z</time>
      </trkpt>
      <trkpt lat="38.3403270" lon="-0.7745860">
        <ele>246.6</ele>
        <time>2020-10-12T07:32:01Z</time>
      </trkpt>
      <trkpt lat="38.3403480" lon="-0.7745740">
        <ele>246.4</ele>
        <time>2020-10-12T07:32:02Z</time>
      </trkpt>
      <trkpt lat="38.3403680" lon="-0.7745670">
        <ele>246.4</ele>
        <time>2020-10-12T07:32:03Z</time>
      </trkpt>
      <trkpt lat="38.3403920" lon="-0.7745640">
        <ele>246.4</ele>
        <time>2020-10-12T07:32:04Z</time>
      </trkpt>
      <trkpt lat="38.3404190" lon="-0.7745610">
        <ele>246.4</ele>
        <time>2020-10-12T07:32:05Z</time>
      </trkpt>
      <trkpt lat="38.3404500" lon="-0.7745680">
        <ele>246.4</ele>
        <time>2020-10-12T07:32:06Z</time>
      </trkpt>
      <trkpt lat="38.3404770" lon="-0.7745720">
        <ele>246.4</ele>
        <time>2020-10-12T07:32:07Z</time>
      </trkpt>
      <trkpt lat="38.3404970" lon="-0.7745770">
        <ele>246.4</ele>
        <time>2020-10-12T07:32:08Z</time>
      </trkpt>
      <trkpt lat="38.3405070" lon="-0.7745780">
        <ele>246.4</ele>
        <time>2020-10-12T07:32:09Z</time>
      </trkpt>
      <trkpt lat="38.3405080" lon="-0.7745770">
        <ele>246.4</ele>
        <time>2020-10-12T07:32:10Z</time>
      </trkpt>
      <trkpt lat="38.3405090" lon="-0.7745730">
        <ele>246.4</ele>
        <time>2020-10-12T07:32:11Z</time>
      </trkpt>
      <trkpt lat="38.3405110" lon="-0.7745760">
        <ele>246.2</ele>
        <time>2020-10-12T07:32:12Z</time>
      </trkpt>
      <trkpt lat="38.3405090" lon="-0.7745880">
        <ele>246.2</ele>
        <time>2020-10-12T07:32:13Z</time>
      </trkpt>
      <trkpt lat="38.3405080" lon="-0.7745850">
        <ele>246.2</ele>
        <time>2020-10-12T07:32:14Z</time>
      </trkpt>
      <trkpt lat="38.3405080" lon="-0.7745850">
        <ele>246.2</ele>
        <time>2020-10-12T07:32:15Z</time>
      </trkpt>
      <trkpt lat="38.3405080" lon="-0.7745850">
        <ele>246.2</ele>
        <time>2020-10-12T07:32:16Z</time>
      </trkpt>
      <trkpt lat="38.3405080" lon="-0.7745850">
        <ele>246.2</ele>
        <time>2020-10-12T07:32:17Z</time>
      </trkpt>
      <trkpt lat="38.3405080" lon="-0.7745850">
        <ele>246.2</ele>
        <time>2020-10-12T07:32:18Z</time>
      </trkpt>
      <trkpt lat="38.3405080" lon="-0.7745850">
        <ele>246.2</ele>
        <time>2020-10-12T07:32:19Z</time>
      </trkpt>
      <trkpt lat="38.3405080" lon="-0.7745850">
        <ele>246.2</ele>
        <time>2020-10-12T07:32:20Z</time>
      </trkpt>
      <trkpt lat="38.3405080" lon="-0.7745850">
        <ele>246.2</ele>
        <time>2020-10-12T07:32:21Z</time>
      </trkpt>
      <trkpt lat="38.3405080" lon="-0.7745850">
        <ele>246.2</ele>
        <time>2020-10-12T07:32:22Z</time>
      </trkpt>
      <trkpt lat="38.3405080" lon="-0.7745850">
        <ele>246.4</ele>
        <time>2020-10-12T07:32:23Z</time>
      </trkpt>
      <trkpt lat="38.3405080" lon="-0.7745850">
        <ele>246.4</ele>
        <time>2020-10-12T07:32:24Z</time>
      </trkpt>
      <trkpt lat="38.3405100" lon="-0.7745910">
        <ele>246.4</ele>
        <time>2020-10-12T07:32:25Z</time>
      </trkpt>
      <trkpt lat="38.3404920" lon="-0.7744280">
        <ele>246.0</ele>
        <time>2020-10-12T07:35:54Z</time>
      </trkpt>
      <trkpt lat="38.3405110" lon="-0.7744130">
        <ele>245.8</ele>
        <time>2020-10-12T07:35:55Z</time>
      </trkpt>
      <trkpt lat="38.3405340" lon="-0.7743910">
        <ele>246.0</ele>
        <time>2020-10-12T07:35:56Z</time>
      </trkpt>
      <trkpt lat="38.3405540" lon="-0.7743640">
        <ele>245.8</ele>
        <time>2020-10-12T07:35:57Z</time>
      </trkpt>
      <trkpt lat="38.3405720" lon="-0.7743390">
        <ele>245.8</ele>
        <time>2020-10-12T07:35:58Z</time>
      </trkpt>
      <trkpt lat="38.3405910" lon="-0.7743170">
        <ele>246.0</ele>
        <time>2020-10-12T07:35:59Z</time>
      </trkpt>
      <trkpt lat="38.3406090" lon="-0.7742960">
        <ele>246.0</ele>
        <time>2020-10-12T07:36:00Z</time>
      </trkpt>
      <trkpt lat="38.3406240" lon="-0.7742730">
        <ele>245.8</ele>
        <time>2020-10-12T07:36:01Z</time>
      </trkpt>
      <trkpt lat="38.3406340" lon="-0.7742550">
        <ele>245.8</ele>
        <time>2020-10-12T07:36:02Z</time>
      </trkpt>
      <trkpt lat="38.3406480" lon="-0.7742380">
        <ele>245.8</ele>
        <time>2020-10-12T07:36:03Z</time>
      </trkpt>
      <trkpt lat="38.3406610" lon="-0.7742260">
        <ele>245.8</ele>
        <time>2020-10-12T07:36:04Z</time>
      </trkpt>
      <trkpt lat="38.3406790" lon="-0.7742100">
        <ele>245.8</ele>
        <time>2020-10-12T07:36:05Z</time>
      </trkpt>
      <trkpt lat="38.3407020" lon="-0.7741930">
        <ele>245.8</ele>
        <time>2020-10-12T07:36:06Z</time>
      </trkpt>
      <trkpt lat="38.3407260" lon="-0.7741680">
        <ele>245.8</ele>
        <time>2020-10-12T07:36:07Z</time>
      </trkpt>
      <trkpt lat="38.3407530" lon="-0.7741390">
        <ele>245.6</ele>
        <time>2020-10-12T07:36:08Z</time>
      </trkpt>
      <trkpt lat="38.3407770" lon="-0.7741060">
        <ele>245.6</ele>
        <time>2020-10-12T07:36:09Z</time>
      </trkpt>
      <trkpt lat="38.3408010" lon="-0.7740720">
        <ele>245.6</ele>
        <time>2020-10-12T07:36:10Z</time>
      </trkpt>
      <trkpt lat="38.3408250" lon="-0.7740270">
        <ele>245.4</ele>
        <time>2020-10-12T07:36:11Z</time>
      </trkpt>
      <trkpt lat="38.3408500" lon="-0.7739870">
        <ele>245.4</ele>
        <time>2020-10-12T07:36:12Z</time>
      </trkpt>
      <trkpt lat="38.3408760" lon="-0.7739470">
        <ele>245.4</ele>
        <time>2020-10-12T07:36:13Z</time>
      </trkpt>
      <trkpt lat="38.3409050" lon="-0.7739110">
        <ele>245.2</ele>
        <time>2020-10-12T07:36:14Z</time>
      </trkpt>
      <trkpt lat="38.3409350" lon="-0.7738740">
        <ele>245.2</ele>
        <time>2020-10-12T07:36:15Z</time>
      </trkpt>
      <trkpt lat="38.3409630" lon="-0.7738370">
        <ele>245.0</ele>
        <time>2020-10-12T07:36:16Z</time>
      </trkpt>
      <trkpt lat="38.3409900" lon="-0.7737950">
        <ele>245.2</ele>
        <time>2020-10-12T07:36:17Z</time>
      </trkpt>
      <trkpt lat="38.3410130" lon="-0.7737350">
        <ele>245.2</ele>
        <time>2020-10-12T07:36:18Z</time>
      </trkpt>
      <trkpt lat="38.3410400" lon="-0.7736810">
        <ele>245.2</ele>
        <time>2020-10-12T07:36:19Z</time>
      </trkpt>
      <trkpt lat="38.3410690" lon="-0.7736260">
        <ele>245.2</ele>
        <time>2020-10-12T07:36:20Z</time>
      </trkpt>
      <trkpt lat="38.3410970" lon="-0.7735710">
        <ele>245.4</ele>
        <time>2020-10-12T07:36:21Z</time>
      </trkpt>
      <trkpt lat="38.3411200" lon="-0.7735160">
        <ele>245.4</ele>
        <time>2020-10-12T07:36:22Z</time>
      </trkpt>
      <trkpt lat="38.3411470" lon="-0.7734650">
        <ele>245.4</ele>
        <time>2020-10-12T07:36:23Z</time>
      </trkpt>
      <trkpt lat="38.3411730" lon="-0.7734180">
        <ele>245.4</ele>
        <time>2020-10-12T07:36:24Z</time>
      </trkpt>
      <trkpt lat="38.3412020" lon="-0.7733730">
        <ele>245.4</ele>
        <time>2020-10-12T07:36:25Z</time>
      </trkpt>
      <trkpt lat="38.3412420" lon="-0.7733350">
        <ele>245.2</ele>
        <time>2020-10-12T07:36:26Z</time>
      </trkpt>
      <trkpt lat="38.3412720" lon="-0.7732900">
        <ele>245.0</ele>
        <time>2020-10-12T07:36:27Z</time>
      </trkpt>
      <trkpt lat="38.3413060" lon="-0.7732450">
        <ele>244.8</ele>
        <time>2020-10-12T07:36:28Z</time>
      </trkpt>
      <trkpt lat="38.3413420" lon="-0.7732020">
        <ele>244.6</ele>
        <time>2020-10-12T07:36:29Z</time>
      </trkpt>
      <trkpt lat="38.3413740" lon="-0.7731500">
        <ele>244.2</ele>
        <time>2020-10-12T07:36:30Z</time>
      </trkpt>
      <trkpt lat="38.3414080" lon="-0.7730860">
        <ele>244.2</ele>
        <time>2020-10-12T07:36:31Z</time>
      </trkpt>
      <trkpt lat="38.3414350" lon="-0.7730330">
        <ele>244.0</ele>
        <time>2020-10-12T07:36:32Z</time>
      </trkpt>
      <trkpt lat="38.3414620" lon="-0.7729820">
        <ele>243.8</ele>
        <time>2020-10-12T07:36:33Z</time>
      </trkpt>
      <trkpt lat="38.3414840" lon="-0.7729270">
        <ele>243.8</ele>
        <time>2020-10-12T07:36:34Z</time>
      </trkpt>
      <trkpt lat="38.3415130" lon="-0.7728710">
        <ele>243.6</ele>
        <time>2020-10-12T07:36:35Z</time>
      </trkpt>
      <trkpt lat="38.3415420" lon="-0.7728130">
        <ele>243.6</ele>
        <time>2020-10-12T07:36:36Z</time>
      </trkpt>
      <trkpt lat="38.3415710" lon="-0.7727580">
        <ele>243.6</ele>
        <time>2020-10-12T07:36:37Z</time>
      </trkpt>
      <trkpt lat="38.3416030" lon="-0.7727010">
        <ele>243.6</ele>
        <time>2020-10-12T07:36:38Z</time>
      </trkpt>
      <trkpt lat="38.3416370" lon="-0.7726370">
        <ele>243.6</ele>
        <time>2020-10-12T07:36:39Z</time>
      </trkpt>
      <trkpt lat="38.3416660" lon="-0.7725770">
        <ele>243.8</ele>
        <time>2020-10-12T07:36:40Z</time>
      </trkpt>
      <trkpt lat="38.3416840" lon="-0.7725160">
        <ele>243.8</ele>
        <time>2020-10-12T07:36:41Z</time>
      </trkpt>
      <trkpt lat="38.3416970" lon="-0.7724500">
        <ele>244.0</ele>
        <time>2020-10-12T07:36:42Z</time>
      </trkpt>
      <trkpt lat="38.3417120" lon="-0.7723840">
        <ele>244.4</ele>
        <time>2020-10-12T07:36:43Z</time>
      </trkpt>
      <trkpt lat="38.3417340" lon="-0.7723180">
        <ele>244.4</ele>
        <time>2020-10-12T07:36:44Z</time>
      </trkpt>
      <trkpt lat="38.3417570" lon="-0.7722600">
        <ele>244.4</ele>
        <time>2020-10-12T07:36:45Z</time>
      </trkpt>
      <trkpt lat="38.3417960" lon="-0.7721950">
        <ele>244.2</ele>
        <time>2020-10-12T07:36:46Z</time>
      </trkpt>
      <trkpt lat="38.3418240" lon="-0.7721160">
        <ele>244.0</ele>
        <time>2020-10-12T07:36:47Z</time>
      </trkpt>
      <trkpt lat="38.3418690" lon="-0.7720720">
        <ele>244.0</ele>
        <time>2020-10-12T07:36:48Z</time>
      </trkpt>
      <trkpt lat="38.3419180" lon="-0.7720290">
        <ele>244.0</ele>
        <time>2020-10-12T07:36:49Z</time>
      </trkpt>
      <trkpt lat="38.3419970" lon="-0.7720140">
        <ele>244.0</ele>
        <time>2020-10-12T07:36:50Z</time>
      </trkpt>
      <trkpt lat="38.3420560" lon="-0.7719710">
        <ele>244.0</ele>
        <time>2020-10-12T07:36:51Z</time>
      </trkpt>
      <trkpt lat="38.3421080" lon="-0.7719240">
        <ele>244.2</ele>
        <time>2020-10-12T07:36:52Z</time>
      </trkpt>
      <trkpt lat="38.3421650" lon="-0.7718880">
        <ele>244.4</ele>
        <time>2020-10-12T07:36:53Z</time>
      </trkpt>
      <trkpt lat="38.3422160" lon="-0.7718460">
        <ele>244.6</ele>
        <time>2020-10-12T07:36:54Z</time>
      </trkpt>
      <trkpt lat="38.3422770" lon="-0.7718050">
        <ele>244.4</ele>
        <time>2020-10-12T07:36:55Z</time>
      </trkpt>
      <trkpt lat="38.3423300" lon="-0.7717600">
        <ele>244.2</ele>
        <time>2020-10-12T07:36:56Z</time>
      </trkpt>
      <trkpt lat="38.3423830" lon="-0.7717180">
        <ele>244.0</ele>
        <time>2020-10-12T07:36:57Z</time>
      </trkpt>
      <trkpt lat="38.3424320" lon="-0.7716740">
        <ele>243.8</ele>
        <time>2020-10-12T07:36:58Z</time>
      </trkpt>
      <trkpt lat="38.3424890" lon="-0.7716310">
        <ele>243.8</ele>
        <time>2020-10-12T07:36:59Z</time>
      </trkpt>
      <trkpt lat="38.3425430" lon="-0.7715740">
        <ele>243.6</ele>
        <time>2020-10-12T07:37:00Z</time>
      </trkpt>
      <trkpt lat="38.3425960" lon="-0.7715230">
        <ele>243.4</ele>
        <time>2020-10-12T07:37:01Z</time>
      </trkpt>
      <trkpt lat="38.3426580" lon="-0.7714810">
        <ele>243.2</ele>
        <time>2020-10-12T07:37:02Z</time>
      </trkpt>
      <trkpt lat="38.3427110" lon="-0.7714260">
        <ele>243.2</ele>
        <time>2020-10-12T07:37:03Z</time>
      </trkpt>
      <trkpt lat="38.3427790" lon="-0.7713830">
        <ele>243.0</ele>
        <time>2020-10-12T07:37:04Z</time>
      </trkpt>
      <trkpt lat="38.3428410" lon="-0.7713350">
        <ele>243.0</ele>
        <time>2020-10-12T07:37:05Z</time>
      </trkpt>
      <trkpt lat="38.3429020" lon="-0.7712910">
        <ele>242.8</ele>
        <time>2020-10-12T07:37:06Z</time>
      </trkpt>
      <trkpt lat="38.3429570" lon="-0.7712490">
        <ele>242.4</ele>
        <time>2020-10-12T07:37:07Z</time>
      </trkpt>
      <trkpt lat="38.3430030" lon="-0.7712080">
        <ele>242.2</ele>
        <time>2020-10-12T07:37:08Z</time>
      </trkpt>
      <trkpt lat="38.3430450" lon="-0.7711720">
        <ele>241.8</ele>
        <time>2020-10-12T07:37:09Z</time>
      </trkpt>
      <trkpt lat="38.3430790" lon="-0.7711070">
        <ele>241.2</ele>
        <time>2020-10-12T07:37:10Z</time>
      </trkpt>
      <trkpt lat="38.3431020" lon="-0.7710570">
        <ele>240.6</ele>
        <time>2020-10-12T07:37:11Z</time>
      </trkpt>
      <trkpt lat="38.3431210" lon="-0.7710330">
        <ele>239.8</ele>
        <time>2020-10-12T07:37:12Z</time>
      </trkpt>
      <trkpt lat="38.3431310" lon="-0.7710160">
        <ele>239.4</ele>
        <time>2020-10-12T07:37:13Z</time>
      </trkpt>
      <trkpt lat="38.3431330" lon="-0.7709940">
        <ele>239.0</ele>
        <time>2020-10-12T07:37:14Z</time>
      </trkpt>
      <trkpt lat="38.3431330" lon="-0.7709770">
        <ele>238.8</ele>
        <time>2020-10-12T07:37:15Z</time>
      </trkpt>
      <trkpt lat="38.3431320" lon="-0.7709670">
        <ele>238.6</ele>
        <time>2020-10-12T07:37:16Z</time>
      </trkpt>
      <trkpt lat="38.3431310" lon="-0.7709610">
        <ele>238.6</ele>
        <time>2020-10-12T07:37:17Z</time>
      </trkpt>
      <trkpt lat="38.3431340" lon="-0.7709570">
        <ele>238.6</ele>
        <time>2020-10-12T07:37:18Z</time>
      </trkpt>
      <trkpt lat="38.3431350" lon="-0.7709540">
        <ele>238.6</ele>
        <time>2020-10-12T07:37:19Z</time>
      </trkpt>
      <trkpt lat="38.3431350" lon="-0.7709540">
        <ele>238.6</ele>
        <time>2020-10-12T07:37:20Z</time>
      </trkpt>
      <trkpt lat="38.3431390" lon="-0.7709520">
        <ele>238.6</ele>
        <time>2020-10-12T07:37:21Z</time>
      </trkpt>
      <trkpt lat="38.3431390" lon="-0.7709520">
        <ele>238.6</ele>
        <time>2020-10-12T07:37:22Z</time>
      </trkpt>
      <trkpt lat="38.3431390" lon="-0.7709520">
        <ele>238.4</ele>
        <time>2020-10-12T07:37:23Z</time>
      </trkpt>
      <trkpt lat="38.3431390" lon="-0.7709520">
        <ele>238.4</ele>
        <time>2020-10-12T07:37:24Z</time>
      </trkpt>
      <trkpt lat="38.3431390" lon="-0.7709520">
        <ele>238.2</ele>
        <time>2020-10-12T07:37:25Z</time>
      </trkpt>
      <trkpt lat="38.3431390" lon="-0.7709520">
        <ele>238.2</ele>
        <time>2020-10-12T07:37:26Z</time>
      </trkpt>
      <trkpt lat="38.3431390" lon="-0.7709520">
        <ele>238.2</ele>
        <time>2020-10-12T07:37:27Z</time>
      </trkpt>
      <trkpt lat="38.3431390" lon="-0.7709520">
        <ele>238.2</ele>
        <time>2020-10-12T07:37:28Z</time>
      </trkpt>
      <trkpt lat="38.3431390" lon="-0.7709520">
        <ele>238.2</ele>
        <time>2020-10-12T07:37:29Z</time>
      </trkpt>
      <trkpt lat="38.3431390" lon="-0.7709520">
        <ele>238.2</ele>
        <time>2020-10-12T07:37:30Z</time>
      </trkpt>
      <trkpt lat="38.3431390" lon="-0.7709520">
        <ele>238.2</ele>
        <time>2020-10-12T07:37:31Z</time>
      </trkpt>
      <trkpt lat="38.3431390" lon="-0.7709520">
        <ele>238.2</ele>
        <time>2020-10-12T07:37:32Z</time>
      </trkpt>
      <trkpt lat="38.3431390" lon="-0.7709520">
        <ele>238.2</ele>
        <time>2020-10-12T07:37:33Z</time>
      </trkpt>
      <trkpt lat="38.3431390" lon="-0.7709520">
        <ele>238.2</ele>
        <time>2020-10-12T07:37:34Z</time>
      </trkpt>
      <trkpt lat="38.3431390" lon="-0.7709520">
        <ele>238.2</ele>
        <time>2020-10-12T07:37:35Z</time>
      </trkpt>
      <trkpt lat="38.3431390" lon="-0.7709520">
        <ele>238.2</ele>
        <time>2020-10-12T07:37:36Z</time>
      </trkpt>
      <trkpt lat="38.3431390" lon="-0.7709520">
        <ele>238.2</ele>
        <time>2020-10-12T07:37:37Z</time>
      </trkpt>
      <trkpt lat="38.3431390" lon="-0.7709520">
        <ele>238.2</ele>
        <time>2020-10-12T07:37:38Z</time>
      </trkpt>
      <trkpt lat="38.3431390" lon="-0.7709520">
        <ele>238.2</ele>
        <time>2020-10-12T07:37:39Z</time>
      </trkpt>
      <trkpt lat="38.3431390" lon="-0.7709520">
        <ele>238.2</ele>
        <time>2020-10-12T07:37:40Z</time>
      </trkpt>
      <trkpt lat="38.3431390" lon="-0.7709520">
        <ele>238.4</ele>
        <time>2020-10-12T07:37:41Z</time>
      </trkpt>
      <trkpt lat="38.3431390" lon="-0.7709520">
        <ele>238.4</ele>
        <time>2020-10-12T07:37:42Z</time>
      </trkpt>
      <trkpt lat="38.3431390" lon="-0.7709520">
        <ele>238.4</ele>
        <time>2020-10-12T07:37:43Z</time>
      </trkpt>
      <trkpt lat="38.3431390" lon="-0.7709520">
        <ele>238.4</ele>
        <time>2020-10-12T07:37:44Z</time>
      </trkpt>
      <trkpt lat="38.3431390" lon="-0.7709520">
        <ele>238.2</ele>
        <time>2020-10-12T07:37:45Z</time>
      </trkpt>
      <trkpt lat="38.3431390" lon="-0.7709520">
        <ele>238.2</ele>
        <time>2020-10-12T07:37:46Z</time>
      </trkpt>
      <trkpt lat="38.3431390" lon="-0.7709520">
        <ele>238.2</ele>
        <time>2020-10-12T07:37:47Z</time>
      </trkpt>
      <trkpt lat="38.3431390" lon="-0.7709520">
        <ele>238.2</ele>
        <time>2020-10-12T07:37:48Z</time>
      </trkpt>
      <trkpt lat="38.3431390" lon="-0.7709520">
        <ele>238.0</ele>
        <time>2020-10-12T07:37:49Z</time>
      </trkpt>
      <trkpt lat="38.3431390" lon="-0.7709520">
        <ele>238.0</ele>
        <time>2020-10-12T07:37:50Z</time>
      </trkpt>
      <trkpt lat="38.3431390" lon="-0.7709520">
        <ele>238.0</ele>
        <time>2020-10-12T07:37:51Z</time>
      </trkpt>
      <trkpt lat="38.3431390" lon="-0.7709520">
        <ele>238.2</ele>
        <time>2020-10-12T07:37:52Z</time>
      </trkpt>
      <trkpt lat="38.3431390" lon="-0.7709520">
        <ele>238.2</ele>
        <time>2020-10-12T07:37:53Z</time>
      </trkpt>
      <trkpt lat="38.3431390" lon="-0.7709520">
        <ele>238.2</ele>
        <time>2020-10-12T07:37:54Z</time>
      </trkpt>
      <trkpt lat="38.3431390" lon="-0.7709520">
        <ele>238.2</ele>
        <time>2020-10-12T07:37:55Z</time>
      </trkpt>
      <trkpt lat="38.3431390" lon="-0.7709520">
        <ele>238.2</ele>
        <time>2020-10-12T07:37:56Z</time>
      </trkpt>
      <trkpt lat="38.3431390" lon="-0.7709520">
        <ele>238.2</ele>
        <time>2020-10-12T07:37:57Z</time>
      </trkpt>
      <trkpt lat="38.3431390" lon="-0.7709520">
        <ele>238.2</ele>
        <time>2020-10-12T07:37:58Z</time>
      </trkpt>
      <trkpt lat="38.3431390" lon="-0.7709520">
        <ele>238.2</ele>
        <time>2020-10-12T07:37:59Z</time>
      </trkpt>
      <trkpt lat="38.3431390" lon="-0.7709520">
        <ele>238.2</ele>
        <time>2020-10-12T07:38:00Z</time>
      </trkpt>
      <trkpt lat="38.3431390" lon="-0.7709520">
        <ele>238.2</ele>
        <time>2020-10-12T07:38:01Z</time>
      </trkpt>
      <trkpt lat="38.3431390" lon="-0.7709520">
        <ele>238.2</ele>
        <time>2020-10-12T07:38:02Z</time>
      </trkpt>
      <trkpt lat="38.3431390" lon="-0.7709520">
        <ele>238.4</ele>
        <time>2020-10-12T07:38:03Z</time>
      </trkpt>
      <trkpt lat="38.3431390" lon="-0.7709520">
        <ele>238.4</ele>
        <time>2020-10-12T07:38:04Z</time>
      </trkpt>
      <trkpt lat="38.3431390" lon="-0.7709520">
        <ele>238.4</ele>
        <time>2020-10-12T07:38:05Z</time>
      </trkpt>
      <trkpt lat="38.3431390" lon="-0.7709520">
        <ele>238.2</ele>
        <time>2020-10-12T07:38:06Z</time>
      </trkpt>
      <trkpt lat="38.3431390" lon="-0.7709520">
        <ele>238.2</ele>
        <time>2020-10-12T07:38:07Z</time>
      </trkpt>
      <trkpt lat="38.3431390" lon="-0.7709520">
        <ele>238.2</ele>
        <time>2020-10-12T07:38:08Z</time>
      </trkpt>
      <trkpt lat="38.3431390" lon="-0.7709520">
        <ele>238.2</ele>
        <time>2020-10-12T07:38:09Z</time>
      </trkpt>
      <trkpt lat="38.3431390" lon="-0.7709520">
        <ele>238.2</ele>
        <time>2020-10-12T07:38:10Z</time>
      </trkpt>
      <trkpt lat="38.3431390" lon="-0.7709520">
        <ele>238.2</ele>
        <time>2020-10-12T07:38:11Z</time>
      </trkpt>
      <trkpt lat="38.3431390" lon="-0.7709520">
        <ele>238.2</ele>
        <time>2020-10-12T07:38:12Z</time>
      </trkpt>
      <trkpt lat="38.3431390" lon="-0.7709520">
        <ele>238.2</ele>
        <time>2020-10-12T07:38:13Z</time>
      </trkpt>
      <trkpt lat="38.3431390" lon="-0.7709520">
        <ele>238.2</ele>
        <time>2020-10-12T07:38:14Z</time>
      </trkpt>
      <trkpt lat="38.3431390" lon="-0.7709520">
        <ele>238.2</ele>
        <time>2020-10-12T07:38:15Z</time>
      </trkpt>
      <trkpt lat="38.3431390" lon="-0.7709520">
        <ele>238.2</ele>
        <time>2020-10-12T07:38:16Z</time>
      </trkpt>
      <trkpt lat="38.3431390" lon="-0.7709520">
        <ele>238.2</ele>
        <time>2020-10-12T07:38:17Z</time>
      </trkpt>
      <trkpt lat="38.3431390" lon="-0.7709520">
        <ele>238.2</ele>
        <time>2020-10-12T07:38:18Z</time>
      </trkpt>
      <trkpt lat="38.3431390" lon="-0.7709520">
        <ele>238.2</ele>
        <time>2020-10-12T07:38:19Z</time>
      </trkpt>
      <trkpt lat="38.3431390" lon="-0.7709520">
        <ele>238.2</ele>
        <time>2020-10-12T07:38:20Z</time>
      </trkpt>
      <trkpt lat="38.3431390" lon="-0.7709520">
        <ele>238.0</ele>
        <time>2020-10-12T07:38:21Z</time>
      </trkpt>
      <trkpt lat="38.3431390" lon="-0.7709520">
        <ele>238.0</ele>
        <time>2020-10-12T07:38:22Z</time>
      </trkpt>
      <trkpt lat="38.3431390" lon="-0.7709520">
        <ele>237.8</ele>
        <time>2020-10-12T07:38:23Z</time>
      </trkpt>
      <trkpt lat="38.3431390" lon="-0.7709520">
        <ele>237.8</ele>
        <time>2020-10-12T07:38:24Z</time>
      </trkpt>
      <trkpt lat="38.3431390" lon="-0.7709520">
        <ele>237.6</ele>
        <time>2020-10-12T07:38:25Z</time>
      </trkpt>
      <trkpt lat="38.3431390" lon="-0.7709520">
        <ele>237.6</ele>
        <time>2020-10-12T07:38:26Z</time>
      </trkpt>
      <trkpt lat="38.3431390" lon="-0.7709520">
        <ele>237.6</ele>
        <time>2020-10-12T07:38:27Z</time>
      </trkpt>
      <trkpt lat="38.3431480" lon="-0.7709460">
        <ele>237.6</ele>
        <time>2020-10-12T07:38:28Z</time>
      </trkpt>
      <trkpt lat="38.3431660" lon="-0.7709330">
        <ele>237.8</ele>
        <time>2020-10-12T07:38:29Z</time>
      </trkpt>
      <trkpt lat="38.3431890" lon="-0.7709160">
        <ele>238.0</ele>
        <time>2020-10-12T07:38:30Z</time>
      </trkpt>
      <trkpt lat="38.3432160" lon="-0.7708960">
        <ele>238.2</ele>
        <time>2020-10-12T07:38:31Z</time>
      </trkpt>
      <trkpt lat="38.3432480" lon="-0.7708720">
        <ele>238.4</ele>
        <time>2020-10-12T07:38:32Z</time>
      </trkpt>
      <trkpt lat="38.3432800" lon="-0.7708420">
        <ele>238.4</ele>
        <time>2020-10-12T07:38:33Z</time>
      </trkpt>
      <trkpt lat="38.3433120" lon="-0.7708070">
        <ele>238.4</ele>
        <time>2020-10-12T07:38:34Z</time>
      </trkpt>
      <trkpt lat="38.3433510" lon="-0.7707790">
        <ele>238.4</ele>
        <time>2020-10-12T07:38:35Z</time>
      </trkpt>
      <trkpt lat="38.3433940" lon="-0.7707500">
        <ele>238.4</ele>
        <time>2020-10-12T07:38:36Z</time>
      </trkpt>
      <trkpt lat="38.3434380" lon="-0.7707200">
        <ele>238.2</ele>
        <time>2020-10-12T07:38:37Z</time>
      </trkpt>
      <trkpt lat="38.3434790" lon="-0.7706870">
        <ele>238.0</ele>
        <time>2020-10-12T07:38:38Z</time>
      </trkpt>
      <trkpt lat="38.3435180" lon="-0.7706510">
        <ele>237.8</ele>
        <time>2020-10-12T07:38:39Z</time>
      </trkpt>
      <trkpt lat="38.3435550" lon="-0.7706090">
        <ele>237.6</ele>
        <time>2020-10-12T07:38:40Z</time>
      </trkpt>
      <trkpt lat="38.3435920" lon="-0.7705590">
        <ele>237.6</ele>
        <time>2020-10-12T07:38:41Z</time>
      </trkpt>
      <trkpt lat="38.3436330" lon="-0.7705110">
        <ele>237.6</ele>
        <time>2020-10-12T07:38:42Z</time>
      </trkpt>
      <trkpt lat="38.3436740" lon="-0.7704690">
        <ele>237.8</ele>
        <time>2020-10-12T07:38:43Z</time>
      </trkpt>
      <trkpt lat="38.3437190" lon="-0.7704310">
        <ele>238.0</ele>
        <time>2020-10-12T07:38:44Z</time>
      </trkpt>
      <trkpt lat="38.3437620" lon="-0.7703900">
        <ele>238.2</ele>
        <time>2020-10-12T07:38:45Z</time>
      </trkpt>
      <trkpt lat="38.3438010" lon="-0.7703380">
        <ele>238.2</ele>
        <time>2020-10-12T07:38:46Z</time>
      </trkpt>
      <trkpt lat="38.3438420" lon="-0.7702950">
        <ele>238.2</ele>
        <time>2020-10-12T07:38:47Z</time>
      </trkpt>
      <trkpt lat="38.3438860" lon="-0.7702480">
        <ele>238.2</ele>
        <time>2020-10-12T07:38:48Z</time>
      </trkpt>
      <trkpt lat="38.3439350" lon="-0.7701980">
        <ele>238.2</ele>
        <time>2020-10-12T07:38:49Z</time>
      </trkpt>
      <trkpt lat="38.3439840" lon="-0.7701510">
        <ele>238.0</ele>
        <time>2020-10-12T07:38:50Z</time>
      </trkpt>
      <trkpt lat="38.3440160" lon="-0.7700660">
        <ele>238.2</ele>
        <time>2020-10-12T07:38:51Z</time>
      </trkpt>
      <trkpt lat="38.3440560" lon="-0.7699990">
        <ele>238.4</ele>
        <time>2020-10-12T07:38:52Z</time>
      </trkpt>
      <trkpt lat="38.3440990" lon="-0.7699490">
        <ele>238.4</ele>
        <time>2020-10-12T07:38:53Z</time>
      </trkpt>
      <trkpt lat="38.3441680" lon="-0.7699050">
        <ele>238.4</ele>
        <time>2020-10-12T07:38:54Z</time>
      </trkpt>
      <trkpt lat="38.3442170" lon="-0.7698790">
        <ele>238.2</ele>
        <time>2020-10-12T07:38:55Z</time>
      </trkpt>
      <trkpt lat="38.3442700" lon="-0.7698450">
        <ele>237.8</ele>
        <time>2020-10-12T07:38:56Z</time>
      </trkpt>
      <trkpt lat="38.3443190" lon="-0.7698230">
        <ele>237.0</ele>
        <time>2020-10-12T07:38:57Z</time>
      </trkpt>
      <trkpt lat="38.3443710" lon="-0.7698030">
        <ele>236.4</ele>
        <time>2020-10-12T07:38:58Z</time>
      </trkpt>
      <trkpt lat="38.3444250" lon="-0.7698080">
        <ele>235.8</ele>
        <time>2020-10-12T07:38:59Z</time>
      </trkpt>
      <trkpt lat="38.3444890" lon="-0.7698190">
        <ele>235.6</ele>
        <time>2020-10-12T07:39:00Z</time>
      </trkpt>
      <trkpt lat="38.3445540" lon="-0.7698310">
        <ele>235.4</ele>
        <time>2020-10-12T07:39:01Z</time>
      </trkpt>
      <trkpt lat="38.3446410" lon="-0.7698610">
        <ele>235.4</ele>
        <time>2020-10-12T07:39:02Z</time>
      </trkpt>
      <trkpt lat="38.3447310" lon="-0.7698450">
        <ele>235.4</ele>
        <time>2020-10-12T07:39:03Z</time>
      </trkpt>
      <trkpt lat="38.3448070" lon="-0.7698290">
        <ele>235.2</ele>
        <time>2020-10-12T07:39:04Z</time>
      </trkpt>
      <trkpt lat="38.3448740" lon="-0.7698100">
        <ele>235.2</ele>
        <time>2020-10-12T07:39:05Z</time>
      </trkpt>
      <trkpt lat="38.3449400" lon="-0.7697900">
        <ele>235.2</ele>
        <time>2020-10-12T07:39:06Z</time>
      </trkpt>
      <trkpt lat="38.3449990" lon="-0.7697610">
        <ele>235.0</ele>
        <time>2020-10-12T07:39:07Z</time>
      </trkpt>
      <trkpt lat="38.3450510" lon="-0.7697140">
        <ele>234.6</ele>
        <time>2020-10-12T07:39:08Z</time>
      </trkpt>
      <trkpt lat="38.3451110" lon="-0.7696790">
        <ele>234.2</ele>
        <time>2020-10-12T07:39:09Z</time>
      </trkpt>
      <trkpt lat="38.3451710" lon="-0.7696560">
        <ele>234.0</ele>
        <time>2020-10-12T07:39:10Z</time>
      </trkpt>
      <trkpt lat="38.3452290" lon="-0.7696260">
        <ele>234.2</ele>
        <time>2020-10-12T07:39:11Z</time>
      </trkpt>
      <trkpt lat="38.3452660" lon="-0.7696200">
        <ele>234.2</ele>
        <time>2020-10-12T07:39:12Z</time>
      </trkpt>
      <trkpt lat="38.3452970" lon="-0.7695810">
        <ele>233.8</ele>
        <time>2020-10-12T07:39:13Z</time>
      </trkpt>
      <trkpt lat="38.3453560" lon="-0.7695670">
        <ele>233.4</ele>
        <time>2020-10-12T07:39:14Z</time>
      </trkpt>
      <trkpt lat="38.3454330" lon="-0.7695450">
        <ele>233.0</ele>
        <time>2020-10-12T07:39:15Z</time>
      </trkpt>
      <trkpt lat="38.3455190" lon="-0.7695190">
        <ele>232.8</ele>
        <time>2020-10-12T07:39:16Z</time>
      </trkpt>
      <trkpt lat="38.3456070" lon="-0.7694950">
        <ele>232.4</ele>
        <time>2020-10-12T07:39:17Z</time>
      </trkpt>
      <trkpt lat="38.3457270" lon="-0.7694560">
        <ele>232.2</ele>
        <time>2020-10-12T07:39:18Z</time>
      </trkpt>
      <trkpt lat="38.3458270" lon="-0.7694350">
        <ele>231.8</ele>
        <time>2020-10-12T07:39:19Z</time>
      </trkpt>
      <trkpt lat="38.3459340" lon="-0.7694050">
        <ele>231.2</ele>
        <time>2020-10-12T07:39:20Z</time>
      </trkpt>
      <trkpt lat="38.3460020" lon="-0.7693680">
        <ele>230.8</ele>
        <time>2020-10-12T07:39:21Z</time>
      </trkpt>
      <trkpt lat="38.3460750" lon="-0.7693400">
        <ele>230.4</ele>
        <time>2020-10-12T07:39:22Z</time>
      </trkpt>
      <trkpt lat="38.3461310" lon="-0.7693190">
        <ele>230.4</ele>
        <time>2020-10-12T07:39:23Z</time>
      </trkpt>
      <trkpt lat="38.3461930" lon="-0.7692910">
        <ele>230.4</ele>
        <time>2020-10-12T07:39:24Z</time>
      </trkpt>
      <trkpt lat="38.3462490" lon="-0.7692550">
        <ele>230.2</ele>
        <time>2020-10-12T07:39:25Z</time>
      </trkpt>
      <trkpt lat="38.3463160" lon="-0.7692260">
        <ele>230.0</ele>
        <time>2020-10-12T07:39:26Z</time>
      </trkpt>
      <trkpt lat="38.3463820" lon="-0.7692000">
        <ele>230.0</ele>
        <time>2020-10-12T07:39:27Z</time>
      </trkpt>
      <trkpt lat="38.3464470" lon="-0.7691730">
        <ele>230.0</ele>
        <time>2020-10-12T07:39:28Z</time>
      </trkpt>
      <trkpt lat="38.3465110" lon="-0.7691480">
        <ele>229.6</ele>
        <time>2020-10-12T07:39:29Z</time>
      </trkpt>
      <trkpt lat="38.3465910" lon="-0.7691230">
        <ele>229.2</ele>
        <time>2020-10-12T07:39:30Z</time>
      </trkpt>
      <trkpt lat="38.3466610" lon="-0.7690890">
        <ele>228.8</ele>
        <time>2020-10-12T07:39:31Z</time>
      </trkpt>
      <trkpt lat="38.3467260" lon="-0.7690570">
        <ele>228.6</ele>
        <time>2020-10-12T07:39:32Z</time>
      </trkpt>
      <trkpt lat="38.3467900" lon="-0.7690300">
        <ele>228.6</ele>
        <time>2020-10-12T07:39:33Z</time>
      </trkpt>
      <trkpt lat="38.3468470" lon="-0.7690020">
        <ele>228.2</ele>
        <time>2020-10-12T07:39:34Z</time>
      </trkpt>
      <trkpt lat="38.3469140" lon="-0.7690050">
        <ele>228.0</ele>
        <time>2020-10-12T07:39:35Z</time>
      </trkpt>
      <trkpt lat="38.3469900" lon="-0.7690320">
        <ele>227.6</ele>
        <time>2020-10-12T07:39:36Z</time>
      </trkpt>
      <trkpt lat="38.3470510" lon="-0.7690570">
        <ele>227.6</ele>
        <time>2020-10-12T07:39:37Z</time>
      </trkpt>
      <trkpt lat="38.3471130" lon="-0.7690750">
        <ele>227.6</ele>
        <time>2020-10-12T07:39:38Z</time>
      </trkpt>
      <trkpt lat="38.3471710" lon="-0.7690870">
        <ele>227.6</ele>
        <time>2020-10-12T07:39:39Z</time>
      </trkpt>
      <trkpt lat="38.3472320" lon="-0.7691030">
        <ele>227.4</ele>
        <time>2020-10-12T07:39:40Z</time>
      </trkpt>
      <trkpt lat="38.3472950" lon="-0.7691220">
        <ele>227.2</ele>
        <time>2020-10-12T07:39:41Z</time>
      </trkpt>
      <trkpt lat="38.3473760" lon="-0.7691540">
        <ele>227.4</ele>
        <time>2020-10-12T07:39:42Z</time>
      </trkpt>
      <trkpt lat="38.3474300" lon="-0.7691860">
        <ele>227.2</ele>
        <time>2020-10-12T07:39:43Z</time>
      </trkpt>
      <trkpt lat="38.3475070" lon="-0.7692230">
        <ele>227.0</ele>
        <time>2020-10-12T07:39:44Z</time>
      </trkpt>
      <trkpt lat="38.3475780" lon="-0.7692480">
        <ele>226.4</ele>
        <time>2020-10-12T07:39:45Z</time>
      </trkpt>
      <trkpt lat="38.3476420" lon="-0.7692650">
        <ele>226.0</ele>
        <time>2020-10-12T07:39:46Z</time>
      </trkpt>
      <trkpt lat="38.3476980" lon="-0.7692830">
        <ele>225.4</ele>
        <time>2020-10-12T07:39:47Z</time>
      </trkpt>
      <trkpt lat="38.3477430" lon="-0.7692890">
        <ele>225.0</ele>
        <time>2020-10-12T07:39:48Z</time>
      </trkpt>
      <trkpt lat="38.3477860" lon="-0.7692930">
        <ele>224.4</ele>
        <time>2020-10-12T07:39:49Z</time>
      </trkpt>
      <trkpt lat="38.3478200" lon="-0.7692890">
        <ele>223.8</ele>
        <time>2020-10-12T07:39:50Z</time>
      </trkpt>
      <trkpt lat="38.3478460" lon="-0.7692880">
        <ele>223.4</ele>
        <time>2020-10-12T07:39:51Z</time>
      </trkpt>
      <trkpt lat="38.3478630" lon="-0.7692960">
        <ele>223.0</ele>
        <time>2020-10-12T07:39:52Z</time>
      </trkpt>
      <trkpt lat="38.3478690" lon="-0.7692930">
        <ele>222.8</ele>
        <time>2020-10-12T07:39:53Z</time>
      </trkpt>
      <trkpt lat="38.3478680" lon="-0.7692870">
        <ele>222.6</ele>
        <time>2020-10-12T07:39:54Z</time>
      </trkpt>
      <trkpt lat="38.3478660" lon="-0.7692970">
        <ele>222.6</ele>
        <time>2020-10-12T07:39:55Z</time>
      </trkpt>
      <trkpt lat="38.3478620" lon="-0.7693110">
        <ele>222.6</ele>
        <time>2020-10-12T07:39:56Z</time>
      </trkpt>
      <trkpt lat="38.3478620" lon="-0.7693130">
        <ele>222.6</ele>
        <time>2020-10-12T07:39:57Z</time>
      </trkpt>
      <trkpt lat="38.3478620" lon="-0.7693130">
        <ele>222.4</ele>
        <time>2020-10-12T07:39:58Z</time>
      </trkpt>
      <trkpt lat="38.3478620" lon="-0.7693130">
        <ele>222.4</ele>
        <time>2020-10-12T07:39:59Z</time>
      </trkpt>
      <trkpt lat="38.3478620" lon="-0.7693130">
        <ele>222.4</ele>
        <time>2020-10-12T07:40:00Z</time>
      </trkpt>
      <trkpt lat="38.3478620" lon="-0.7693130">
        <ele>222.4</ele>
        <time>2020-10-12T07:40:01Z</time>
      </trkpt>
      <trkpt lat="38.3478620" lon="-0.7693130">
        <ele>222.4</ele>
        <time>2020-10-12T07:40:02Z</time>
      </trkpt>
      <trkpt lat="38.3478620" lon="-0.7693130">
        <ele>222.4</ele>
        <time>2020-10-12T07:40:03Z</time>
      </trkpt>
      <trkpt lat="38.3478620" lon="-0.7693130">
        <ele>222.4</ele>
        <time>2020-10-12T07:40:04Z</time>
      </trkpt>
      <trkpt lat="38.3478620" lon="-0.7693130">
        <ele>222.4</ele>
        <time>2020-10-12T07:40:05Z</time>
      </trkpt>
      <trkpt lat="38.3478620" lon="-0.7693130">
        <ele>222.4</ele>
        <time>2020-10-12T07:40:06Z</time>
      </trkpt>
      <trkpt lat="38.3478620" lon="-0.7693130">
        <ele>222.4</ele>
        <time>2020-10-12T07:40:07Z</time>
      </trkpt>
      <trkpt lat="38.3478620" lon="-0.7693130">
        <ele>222.4</ele>
        <time>2020-10-12T07:40:08Z</time>
      </trkpt>
      <trkpt lat="38.3478620" lon="-0.7693130">
        <ele>222.4</ele>
        <time>2020-10-12T07:40:09Z</time>
      </trkpt>
      <trkpt lat="38.3478620" lon="-0.7693130">
        <ele>222.4</ele>
        <time>2020-10-12T07:40:10Z</time>
      </trkpt>
      <trkpt lat="38.3478680" lon="-0.7693140">
        <ele>222.4</ele>
        <time>2020-10-12T07:40:11Z</time>
      </trkpt>
      <trkpt lat="38.3478730" lon="-0.7693340">
        <ele>222.4</ele>
        <time>2020-10-12T07:40:12Z</time>
      </trkpt>
      <trkpt lat="38.3478850" lon="-0.7693360">
        <ele>222.4</ele>
        <time>2020-10-12T07:40:13Z</time>
      </trkpt>
      <trkpt lat="38.3478970" lon="-0.7693440">
        <ele>222.6</ele>
        <time>2020-10-12T07:40:14Z</time>
      </trkpt>
      <trkpt lat="38.3479280" lon="-0.7693710">
        <ele>222.6</ele>
        <time>2020-10-12T07:40:15Z</time>
      </trkpt>
      <trkpt lat="38.3479730" lon="-0.7693950">
        <ele>222.8</ele>
        <time>2020-10-12T07:40:16Z</time>
      </trkpt>
      <trkpt lat="38.3480110" lon="-0.7694080">
        <ele>222.8</ele>
        <time>2020-10-12T07:40:17Z</time>
      </trkpt>
      <trkpt lat="38.3480520" lon="-0.7694190">
        <ele>223.0</ele>
        <time>2020-10-12T07:40:18Z</time>
      </trkpt>
      <trkpt lat="38.3481020" lon="-0.7694280">
        <ele>222.8</ele>
        <time>2020-10-12T07:40:19Z</time>
      </trkpt>
      <trkpt lat="38.3481580" lon="-0.7694390">
        <ele>222.6</ele>
        <time>2020-10-12T07:40:20Z</time>
      </trkpt>
      <trkpt lat="38.3482200" lon="-0.7694510">
        <ele>222.4</ele>
        <time>2020-10-12T07:40:21Z</time>
      </trkpt>
      <trkpt lat="38.3482720" lon="-0.7694640">
        <ele>222.4</ele>
        <time>2020-10-12T07:40:22Z</time>
      </trkpt>
      <trkpt lat="38.3483250" lon="-0.7694730">
        <ele>222.2</ele>
        <time>2020-10-12T07:40:23Z</time>
      </trkpt>
      <trkpt lat="38.3483730" lon="-0.7694810">
        <ele>222.6</ele>
        <time>2020-10-12T07:40:24Z</time>
      </trkpt>
      <trkpt lat="38.3484210" lon="-0.7694970">
        <ele>222.4</ele>
        <time>2020-10-12T07:40:25Z</time>
      </trkpt>
      <trkpt lat="38.3484670" lon="-0.7694880">
        <ele>222.4</ele>
        <time>2020-10-12T07:40:26Z</time>
      </trkpt>
      <trkpt lat="38.3485110" lon="-0.7694640">
        <ele>222.4</ele>
        <time>2020-10-12T07:40:27Z</time>
      </trkpt>
      <trkpt lat="38.3485520" lon="-0.7694290">
        <ele>222.2</ele>
        <time>2020-10-12T07:40:28Z</time>
      </trkpt>
      <trkpt lat="38.3485880" lon="-0.7693780">
        <ele>222.2</ele>
        <time>2020-10-12T07:40:29Z</time>
      </trkpt>
      <trkpt lat="38.3486270" lon="-0.7693240">
        <ele>222.0</ele>
        <time>2020-10-12T07:40:30Z</time>
      </trkpt>
      <trkpt lat="38.3486690" lon="-0.7692690">
        <ele>221.6</ele>
        <time>2020-10-12T07:40:31Z</time>
      </trkpt>
      <trkpt lat="38.3487110" lon="-0.7692130">
        <ele>221.6</ele>
        <time>2020-10-12T07:40:32Z</time>
      </trkpt>
      <trkpt lat="38.3487550" lon="-0.7691550">
        <ele>221.4</ele>
        <time>2020-10-12T07:40:33Z</time>
      </trkpt>
      <trkpt lat="38.3488030" lon="-0.7690950">
        <ele>221.4</ele>
        <time>2020-10-12T07:40:34Z</time>
      </trkpt>
      <trkpt lat="38.3488630" lon="-0.7690430">
        <ele>221.2</ele>
        <time>2020-10-12T07:40:35Z</time>
      </trkpt>
      <trkpt lat="38.3489250" lon="-0.7689870">
        <ele>221.2</ele>
        <time>2020-10-12T07:40:36Z</time>
      </trkpt>
      <trkpt lat="38.3489850" lon="-0.7689260">
        <ele>221.0</ele>
        <time>2020-10-12T07:40:37Z</time>
      </trkpt>
      <trkpt lat="38.3490460" lon="-0.7688670">
        <ele>221.0</ele>
        <time>2020-10-12T07:40:38Z</time>
      </trkpt>
      <trkpt lat="38.3491090" lon="-0.7688100">
        <ele>220.8</ele>
        <time>2020-10-12T07:40:39Z</time>
      </trkpt>
      <trkpt lat="38.3491720" lon="-0.7687610">
        <ele>220.6</ele>
        <time>2020-10-12T07:40:40Z</time>
      </trkpt>
      <trkpt lat="38.3492350" lon="-0.7687140">
        <ele>220.4</ele>
        <time>2020-10-12T07:40:41Z</time>
      </trkpt>
      <trkpt lat="38.3492980" lon="-0.7686650">
        <ele>220.2</ele>
        <time>2020-10-12T07:40:42Z</time>
      </trkpt>
      <trkpt lat="38.3493600" lon="-0.7686170">
        <ele>219.8</ele>
        <time>2020-10-12T07:40:43Z</time>
      </trkpt>
      <trkpt lat="38.3494240" lon="-0.7685690">
        <ele>219.4</ele>
        <time>2020-10-12T07:40:44Z</time>
      </trkpt>
      <trkpt lat="38.3494900" lon="-0.7685180">
        <ele>219.0</ele>
        <time>2020-10-12T07:40:45Z</time>
      </trkpt>
      <trkpt lat="38.3495570" lon="-0.7684660">
        <ele>218.4</ele>
        <time>2020-10-12T07:40:46Z</time>
      </trkpt>
      <trkpt lat="38.3496220" lon="-0.7684130">
        <ele>217.4</ele>
        <time>2020-10-12T07:40:47Z</time>
      </trkpt>
      <trkpt lat="38.3496820" lon="-0.7683550">
        <ele>216.6</ele>
        <time>2020-10-12T07:40:48Z</time>
      </trkpt>
      <trkpt lat="38.3497370" lon="-0.7682930">
        <ele>216.0</ele>
        <time>2020-10-12T07:40:49Z</time>
      </trkpt>
      <trkpt lat="38.3497860" lon="-0.7682250">
        <ele>215.6</ele>
        <time>2020-10-12T07:40:50Z</time>
      </trkpt>
      <trkpt lat="38.3498330" lon="-0.7681530">
        <ele>215.4</ele>
        <time>2020-10-12T07:40:51Z</time>
      </trkpt>
      <trkpt lat="38.3498760" lon="-0.7680770">
        <ele>215.6</ele>
        <time>2020-10-12T07:40:52Z</time>
      </trkpt>
      <trkpt lat="38.3499190" lon="-0.7680030">
        <ele>215.6</ele>
        <time>2020-10-12T07:40:53Z</time>
      </trkpt>
      <trkpt lat="38.3499660" lon="-0.7679280">
        <ele>215.8</ele>
        <time>2020-10-12T07:40:54Z</time>
      </trkpt>
      <trkpt lat="38.3500140" lon="-0.7678550">
        <ele>215.8</ele>
        <time>2020-10-12T07:40:55Z</time>
      </trkpt>
      <trkpt lat="38.3500640" lon="-0.7677820">
        <ele>215.8</ele>
        <time>2020-10-12T07:40:56Z</time>
      </trkpt>
      <trkpt lat="38.3501120" lon="-0.7677110">
        <ele>215.8</ele>
        <time>2020-10-12T07:40:57Z</time>
      </trkpt>
      <trkpt lat="38.3501590" lon="-0.7676400">
        <ele>215.6</ele>
        <time>2020-10-12T07:40:58Z</time>
      </trkpt>
      <trkpt lat="38.3502050" lon="-0.7675690">
        <ele>215.6</ele>
        <time>2020-10-12T07:40:59Z</time>
      </trkpt>
      <trkpt lat="38.3502510" lon="-0.7674930">
        <ele>215.4</ele>
        <time>2020-10-12T07:41:00Z</time>
      </trkpt>
      <trkpt lat="38.3502980" lon="-0.7674170">
        <ele>215.2</ele>
        <time>2020-10-12T07:41:01Z</time>
      </trkpt>
      <trkpt lat="38.3503450" lon="-0.7673400">
        <ele>215.0</ele>
        <time>2020-10-12T07:41:02Z</time>
      </trkpt>
      <trkpt lat="38.3503920" lon="-0.7672660">
        <ele>214.8</ele>
        <time>2020-10-12T07:41:03Z</time>
      </trkpt>
      <trkpt lat="38.3504440" lon="-0.7671960">
        <ele>214.8</ele>
        <time>2020-10-12T07:41:04Z</time>
      </trkpt>
      <trkpt lat="38.3504970" lon="-0.7671330">
        <ele>214.6</ele>
        <time>2020-10-12T07:41:05Z</time>
      </trkpt>
      <trkpt lat="38.3505560" lon="-0.7670730">
        <ele>214.6</ele>
        <time>2020-10-12T07:41:06Z</time>
      </trkpt>
      <trkpt lat="38.3506190" lon="-0.7670220">
        <ele>214.6</ele>
        <time>2020-10-12T07:41:07Z</time>
      </trkpt>
      <trkpt lat="38.3506850" lon="-0.7669770">
        <ele>214.4</ele>
        <time>2020-10-12T07:41:08Z</time>
      </trkpt>
      <trkpt lat="38.3507530" lon="-0.7669390">
        <ele>214.2</ele>
        <time>2020-10-12T07:41:09Z</time>
      </trkpt>
      <trkpt lat="38.3508230" lon="-0.7669040">
        <ele>214.0</ele>
        <time>2020-10-12T07:41:10Z</time>
      </trkpt>
      <trkpt lat="38.3508910" lon="-0.7668750">
        <ele>213.8</ele>
        <time>2020-10-12T07:41:11Z</time>
      </trkpt>
      <trkpt lat="38.3509600" lon="-0.7668530">
        <ele>213.6</ele>
        <time>2020-10-12T07:41:12Z</time>
      </trkpt>
      <trkpt lat="38.3510310" lon="-0.7668400">
        <ele>213.6</ele>
        <time>2020-10-12T07:41:13Z</time>
      </trkpt>
      <trkpt lat="38.3510980" lon="-0.7668230">
        <ele>214.2</ele>
        <time>2020-10-12T07:41:14Z</time>
      </trkpt>
      <trkpt lat="38.3511570" lon="-0.7668070">
        <ele>215.4</ele>
        <time>2020-10-12T07:41:15Z</time>
      </trkpt>
      <trkpt lat="38.3512100" lon="-0.7667940">
        <ele>216.6</ele>
        <time>2020-10-12T07:41:16Z</time>
      </trkpt>
      <trkpt lat="38.3512590" lon="-0.7667800">
        <ele>217.4</ele>
        <time>2020-10-12T07:41:17Z</time>
      </trkpt>
      <trkpt lat="38.3512940" lon="-0.7667590">
        <ele>217.6</ele>
        <time>2020-10-12T07:41:18Z</time>
      </trkpt>
      <trkpt lat="38.3513170" lon="-0.7667320">
        <ele>217.8</ele>
        <time>2020-10-12T07:41:19Z</time>
      </trkpt>
      <trkpt lat="38.3513410" lon="-0.7667030">
        <ele>217.4</ele>
        <time>2020-10-12T07:41:20Z</time>
      </trkpt>
      <trkpt lat="38.3513660" lon="-0.7666620">
        <ele>217.2</ele>
        <time>2020-10-12T07:41:21Z</time>
      </trkpt>
      <trkpt lat="38.3513980" lon="-0.7666150">
        <ele>216.8</ele>
        <time>2020-10-12T07:41:22Z</time>
      </trkpt>
      <trkpt lat="38.3514330" lon="-0.7665650">
        <ele>216.4</ele>
        <time>2020-10-12T07:41:23Z</time>
      </trkpt>
      <trkpt lat="38.3514680" lon="-0.7665110">
        <ele>215.8</ele>
        <time>2020-10-12T07:41:24Z</time>
      </trkpt>
      <trkpt lat="38.3515120" lon="-0.7664470">
        <ele>215.6</ele>
        <time>2020-10-12T07:41:25Z</time>
      </trkpt>
      <trkpt lat="38.3515570" lon="-0.7663830">
        <ele>215.6</ele>
        <time>2020-10-12T07:41:26Z</time>
      </trkpt>
      <trkpt lat="38.3516020" lon="-0.7663140">
        <ele>215.6</ele>
        <time>2020-10-12T07:41:27Z</time>
      </trkpt>
      <trkpt lat="38.3516490" lon="-0.7662480">
        <ele>215.6</ele>
        <time>2020-10-12T07:41:28Z</time>
      </trkpt>
      <trkpt lat="38.3516940" lon="-0.7661750">
        <ele>215.6</ele>
        <time>2020-10-12T07:41:29Z</time>
      </trkpt>
      <trkpt lat="38.3517410" lon="-0.7661000">
        <ele>215.4</ele>
        <time>2020-10-12T07:41:30Z</time>
      </trkpt>
      <trkpt lat="38.3517870" lon="-0.7660270">
        <ele>215.4</ele>
        <time>2020-10-12T07:41:31Z</time>
      </trkpt>
      <trkpt lat="38.3518340" lon="-0.7659530">
        <ele>215.4</ele>
        <time>2020-10-12T07:41:32Z</time>
      </trkpt>
      <trkpt lat="38.3518820" lon="-0.7658810">
        <ele>215.4</ele>
        <time>2020-10-12T07:41:33Z</time>
      </trkpt>
      <trkpt lat="38.3519280" lon="-0.7658090">
        <ele>215.2</ele>
        <time>2020-10-12T07:41:34Z</time>
      </trkpt>
      <trkpt lat="38.3519740" lon="-0.7657400">
        <ele>215.0</ele>
        <time>2020-10-12T07:41:35Z</time>
      </trkpt>
      <trkpt lat="38.3520210" lon="-0.7656720">
        <ele>214.8</ele>
        <time>2020-10-12T07:41:36Z</time>
      </trkpt>
      <trkpt lat="38.3520680" lon="-0.7656030">
        <ele>214.4</ele>
        <time>2020-10-12T07:41:37Z</time>
      </trkpt>
      <trkpt lat="38.3521130" lon="-0.7655370">
        <ele>214.2</ele>
        <time>2020-10-12T07:41:38Z</time>
      </trkpt>
      <trkpt lat="38.3521550" lon="-0.7654700">
        <ele>213.8</ele>
        <time>2020-10-12T07:41:39Z</time>
      </trkpt>
      <trkpt lat="38.3521990" lon="-0.7654040">
        <ele>213.6</ele>
        <time>2020-10-12T07:41:40Z</time>
      </trkpt>
      <trkpt lat="38.3522430" lon="-0.7653370">
        <ele>213.4</ele>
        <time>2020-10-12T07:41:41Z</time>
      </trkpt>
      <trkpt lat="38.3522890" lon="-0.7652680">
        <ele>213.6</ele>
        <time>2020-10-12T07:41:42Z</time>
      </trkpt>
      <trkpt lat="38.3523330" lon="-0.7651990">
        <ele>213.6</ele>
        <time>2020-10-12T07:41:43Z</time>
      </trkpt>
      <trkpt lat="38.3523790" lon="-0.7651240">
        <ele>213.6</ele>
        <time>2020-10-12T07:41:44Z</time>
      </trkpt>
      <trkpt lat="38.3524220" lon="-0.7650540">
        <ele>213.6</ele>
        <time>2020-10-12T07:41:45Z</time>
      </trkpt>
      <trkpt lat="38.3524670" lon="-0.7649830">
        <ele>213.6</ele>
        <time>2020-10-12T07:41:46Z</time>
      </trkpt>
      <trkpt lat="38.3525110" lon="-0.7649130">
        <ele>213.6</ele>
        <time>2020-10-12T07:41:47Z</time>
      </trkpt>
      <trkpt lat="38.3525560" lon="-0.7648450">
        <ele>213.4</ele>
        <time>2020-10-12T07:41:48Z</time>
      </trkpt>
      <trkpt lat="38.3526010" lon="-0.7647780">
        <ele>213.2</ele>
        <time>2020-10-12T07:41:49Z</time>
      </trkpt>
      <trkpt lat="38.3526450" lon="-0.7647090">
        <ele>213.2</ele>
        <time>2020-10-12T07:41:50Z</time>
      </trkpt>
      <trkpt lat="38.3526880" lon="-0.7646410">
        <ele>213.2</ele>
        <time>2020-10-12T07:41:51Z</time>
      </trkpt>
      <trkpt lat="38.3527320" lon="-0.7645720">
        <ele>213.4</ele>
        <time>2020-10-12T07:41:52Z</time>
      </trkpt>
      <trkpt lat="38.3527770" lon="-0.7645030">
        <ele>213.4</ele>
        <time>2020-10-12T07:41:53Z</time>
      </trkpt>
      <trkpt lat="38.3528210" lon="-0.7644310">
        <ele>213.4</ele>
        <time>2020-10-12T07:41:54Z</time>
      </trkpt>
      <trkpt lat="38.3528670" lon="-0.7643580">
        <ele>213.6</ele>
        <time>2020-10-12T07:41:55Z</time>
      </trkpt>
      <trkpt lat="38.3529130" lon="-0.7642850">
        <ele>213.4</ele>
        <time>2020-10-12T07:41:56Z</time>
      </trkpt>
      <trkpt lat="38.3529610" lon="-0.7642130">
        <ele>213.2</ele>
        <time>2020-10-12T07:41:57Z</time>
      </trkpt>
      <trkpt lat="38.3530090" lon="-0.7641400">
        <ele>213.0</ele>
        <time>2020-10-12T07:41:58Z</time>
      </trkpt>
      <trkpt lat="38.3530560" lon="-0.7640660">
        <ele>212.8</ele>
        <time>2020-10-12T07:41:59Z</time>
      </trkpt>
      <trkpt lat="38.3531020" lon="-0.7639940">
        <ele>212.4</ele>
        <time>2020-10-12T07:42:00Z</time>
      </trkpt>
      <trkpt lat="38.3531500" lon="-0.7639240">
        <ele>212.2</ele>
        <time>2020-10-12T07:42:01Z</time>
      </trkpt>
      <trkpt lat="38.3531970" lon="-0.7638530">
        <ele>212.0</ele>
        <time>2020-10-12T07:42:02Z</time>
      </trkpt>
      <trkpt lat="38.3532440" lon="-0.7637820">
        <ele>211.8</ele>
        <time>2020-10-12T07:42:03Z</time>
      </trkpt>
      <trkpt lat="38.3532910" lon="-0.7637110">
        <ele>211.8</ele>
        <time>2020-10-12T07:42:04Z</time>
      </trkpt>
      <trkpt lat="38.3533380" lon="-0.7636390">
        <ele>211.8</ele>
        <time>2020-10-12T07:42:05Z</time>
      </trkpt>
      <trkpt lat="38.3533840" lon="-0.7635670">
        <ele>211.6</ele>
        <time>2020-10-12T07:42:06Z</time>
      </trkpt>
      <trkpt lat="38.3534300" lon="-0.7634940">
        <ele>211.6</ele>
        <time>2020-10-12T07:42:07Z</time>
      </trkpt>
      <trkpt lat="38.3534760" lon="-0.7634210">
        <ele>211.6</ele>
        <time>2020-10-12T07:42:08Z</time>
      </trkpt>
      <trkpt lat="38.3535230" lon="-0.7633470">
        <ele>211.8</ele>
        <time>2020-10-12T07:42:09Z</time>
      </trkpt>
      <trkpt lat="38.3535710" lon="-0.7632740">
        <ele>211.8</ele>
        <time>2020-10-12T07:42:10Z</time>
      </trkpt>
      <trkpt lat="38.3536180" lon="-0.7632000">
        <ele>211.8</ele>
        <time>2020-10-12T07:42:11Z</time>
      </trkpt>
      <trkpt lat="38.3536660" lon="-0.7631260">
        <ele>211.8</ele>
        <time>2020-10-12T07:42:12Z</time>
      </trkpt>
      <trkpt lat="38.3537130" lon="-0.7630520">
        <ele>212.0</ele>
        <time>2020-10-12T07:42:13Z</time>
      </trkpt>
      <trkpt lat="38.3537610" lon="-0.7629770">
        <ele>212.0</ele>
        <time>2020-10-12T07:42:14Z</time>
      </trkpt>
      <trkpt lat="38.3538100" lon="-0.7629030">
        <ele>212.0</ele>
        <time>2020-10-12T07:42:15Z</time>
      </trkpt>
      <trkpt lat="38.3538570" lon="-0.7628280">
        <ele>212.0</ele>
        <time>2020-10-12T07:42:16Z</time>
      </trkpt>
      <trkpt lat="38.3539060" lon="-0.7627530">
        <ele>211.8</ele>
        <time>2020-10-12T07:42:17Z</time>
      </trkpt>
      <trkpt lat="38.3539550" lon="-0.7626770">
        <ele>211.8</ele>
        <time>2020-10-12T07:42:18Z</time>
      </trkpt>
      <trkpt lat="38.3540040" lon="-0.7626010">
        <ele>211.6</ele>
        <time>2020-10-12T07:42:19Z</time>
      </trkpt>
      <trkpt lat="38.3540530" lon="-0.7625260">
        <ele>211.6</ele>
        <time>2020-10-12T07:42:20Z</time>
      </trkpt>
      <trkpt lat="38.3541030" lon="-0.7624500">
        <ele>211.4</ele>
        <time>2020-10-12T07:42:21Z</time>
      </trkpt>
      <trkpt lat="38.3541540" lon="-0.7623730">
        <ele>211.4</ele>
        <time>2020-10-12T07:42:22Z</time>
      </trkpt>
      <trkpt lat="38.3542060" lon="-0.7622960">
        <ele>211.2</ele>
        <time>2020-10-12T07:42:23Z</time>
      </trkpt>
      <trkpt lat="38.3542590" lon="-0.7622180">
        <ele>211.0</ele>
        <time>2020-10-12T07:42:24Z</time>
      </trkpt>
      <trkpt lat="38.3543120" lon="-0.7621390">
        <ele>210.8</ele>
        <time>2020-10-12T07:42:25Z</time>
      </trkpt>
      <trkpt lat="38.3543660" lon="-0.7620600">
        <ele>210.4</ele>
        <time>2020-10-12T07:42:26Z</time>
      </trkpt>
      <trkpt lat="38.3544210" lon="-0.7619790">
        <ele>210.2</ele>
        <time>2020-10-12T07:42:27Z</time>
      </trkpt>
      <trkpt lat="38.3544750" lon="-0.7618960">
        <ele>210.0</ele>
        <time>2020-10-12T07:42:28Z</time>
      </trkpt>
      <trkpt lat="38.3545300" lon="-0.7618140">
        <ele>209.4</ele>
        <time>2020-10-12T07:42:29Z</time>
      </trkpt>
      <trkpt lat="38.3545850" lon="-0.7617320">
        <ele>208.8</ele>
        <time>2020-10-12T07:42:30Z</time>
      </trkpt>
      <trkpt lat="38.3546390" lon="-0.7616490">
        <ele>208.2</ele>
        <time>2020-10-12T07:42:31Z</time>
      </trkpt>
      <trkpt lat="38.3546900" lon="-0.7615670">
        <ele>207.8</ele>
        <time>2020-10-12T07:42:32Z</time>
      </trkpt>
      <trkpt lat="38.3547420" lon="-0.7614860">
        <ele>207.4</ele>
        <time>2020-10-12T07:42:33Z</time>
      </trkpt>
      <trkpt lat="38.3547930" lon="-0.7614070">
        <ele>207.4</ele>
        <time>2020-10-12T07:42:34Z</time>
      </trkpt>
      <trkpt lat="38.3548440" lon="-0.7613300">
        <ele>207.2</ele>
        <time>2020-10-12T07:42:35Z</time>
      </trkpt>
      <trkpt lat="38.3548940" lon="-0.7612520">
        <ele>207.2</ele>
        <time>2020-10-12T07:42:36Z</time>
      </trkpt>
      <trkpt lat="38.3549440" lon="-0.7611730">
        <ele>207.2</ele>
        <time>2020-10-12T07:42:37Z</time>
      </trkpt>
      <trkpt lat="38.3549930" lon="-0.7610960">
        <ele>207.2</ele>
        <time>2020-10-12T07:42:38Z</time>
      </trkpt>
      <trkpt lat="38.3550420" lon="-0.7610190">
        <ele>207.4</ele>
        <time>2020-10-12T07:42:39Z</time>
      </trkpt>
      <trkpt lat="38.3550910" lon="-0.7609440">
        <ele>207.6</ele>
        <time>2020-10-12T07:42:40Z</time>
      </trkpt>
      <trkpt lat="38.3551410" lon="-0.7608680">
        <ele>207.8</ele>
        <time>2020-10-12T07:42:41Z</time>
      </trkpt>
      <trkpt lat="38.3551900" lon="-0.7607930">
        <ele>208.0</ele>
        <time>2020-10-12T07:42:42Z</time>
      </trkpt>
      <trkpt lat="38.3552390" lon="-0.7607190">
        <ele>208.2</ele>
        <time>2020-10-12T07:42:43Z</time>
      </trkpt>
      <trkpt lat="38.3552890" lon="-0.7606450">
        <ele>208.4</ele>
        <time>2020-10-12T07:42:44Z</time>
      </trkpt>
      <trkpt lat="38.3553390" lon="-0.7605700">
        <ele>208.6</ele>
        <time>2020-10-12T07:42:45Z</time>
      </trkpt>
      <trkpt lat="38.3553900" lon="-0.7604960">
        <ele>208.6</ele>
        <time>2020-10-12T07:42:46Z</time>
      </trkpt>
      <trkpt lat="38.3554400" lon="-0.7604220">
        <ele>208.6</ele>
        <time>2020-10-12T07:42:47Z</time>
      </trkpt>
      <trkpt lat="38.3554900" lon="-0.7603490">
        <ele>208.6</ele>
        <time>2020-10-12T07:42:48Z</time>
      </trkpt>
      <trkpt lat="38.3555400" lon="-0.7602750">
        <ele>208.6</ele>
        <time>2020-10-12T07:42:49Z</time>
      </trkpt>
      <trkpt lat="38.3555900" lon="-0.7602020">
        <ele>208.6</ele>
        <time>2020-10-12T07:42:50Z</time>
      </trkpt>
      <trkpt lat="38.3556390" lon="-0.7601300">
        <ele>208.6</ele>
        <time>2020-10-12T07:42:51Z</time>
      </trkpt>
      <trkpt lat="38.3556870" lon="-0.7600580">
        <ele>208.6</ele>
        <time>2020-10-12T07:42:52Z</time>
      </trkpt>
      <trkpt lat="38.3557340" lon="-0.7599870">
        <ele>208.6</ele>
        <time>2020-10-12T07:42:53Z</time>
      </trkpt>
      <trkpt lat="38.3557820" lon="-0.7599170">
        <ele>208.8</ele>
        <time>2020-10-12T07:42:54Z</time>
      </trkpt>
      <trkpt lat="38.3558310" lon="-0.7598480">
        <ele>209.0</ele>
        <time>2020-10-12T07:42:55Z</time>
      </trkpt>
      <trkpt lat="38.3558810" lon="-0.7597800">
        <ele>209.2</ele>
        <time>2020-10-12T07:42:56Z</time>
      </trkpt>
      <trkpt lat="38.3559320" lon="-0.7597140">
        <ele>209.0</ele>
        <time>2020-10-12T07:42:57Z</time>
      </trkpt>
      <trkpt lat="38.3559850" lon="-0.7596500">
        <ele>209.0</ele>
        <time>2020-10-12T07:42:58Z</time>
      </trkpt>
      <trkpt lat="38.3560400" lon="-0.7595880">
        <ele>209.0</ele>
        <time>2020-10-12T07:42:59Z</time>
      </trkpt>
      <trkpt lat="38.3560960" lon="-0.7595270">
        <ele>208.8</ele>
        <time>2020-10-12T07:43:00Z</time>
      </trkpt>
      <trkpt lat="38.3561520" lon="-0.7594680">
        <ele>208.8</ele>
        <time>2020-10-12T07:43:01Z</time>
      </trkpt>
      <trkpt lat="38.3562090" lon="-0.7594100">
        <ele>208.6</ele>
        <time>2020-10-12T07:43:02Z</time>
      </trkpt>
      <trkpt lat="38.3562650" lon="-0.7593510">
        <ele>208.6</ele>
        <time>2020-10-12T07:43:03Z</time>
      </trkpt>
      <trkpt lat="38.3563230" lon="-0.7592940">
        <ele>208.4</ele>
        <time>2020-10-12T07:43:04Z</time>
      </trkpt>
      <trkpt lat="38.3563810" lon="-0.7592390">
        <ele>208.4</ele>
        <time>2020-10-12T07:43:05Z</time>
      </trkpt>
      <trkpt lat="38.3564410" lon="-0.7591850">
        <ele>208.4</ele>
        <time>2020-10-12T07:43:06Z</time>
      </trkpt>
      <trkpt lat="38.3565030" lon="-0.7591320">
        <ele>208.2</ele>
        <time>2020-10-12T07:43:07Z</time>
      </trkpt>
      <trkpt lat="38.3565650" lon="-0.7590800">
        <ele>208.0</ele>
        <time>2020-10-12T07:43:08Z</time>
      </trkpt>
      <trkpt lat="38.3566270" lon="-0.7590260">
        <ele>208.0</ele>
        <time>2020-10-12T07:43:09Z</time>
      </trkpt>
      <trkpt lat="38.3566880" lon="-0.7589740">
        <ele>208.0</ele>
        <time>2020-10-12T07:43:10Z</time>
      </trkpt>
      <trkpt lat="38.3567500" lon="-0.7589230">
        <ele>208.2</ele>
        <time>2020-10-12T07:43:11Z</time>
      </trkpt>
      <trkpt lat="38.3568110" lon="-0.7588720">
        <ele>208.2</ele>
        <time>2020-10-12T07:43:12Z</time>
      </trkpt>
      <trkpt lat="38.3568730" lon="-0.7588190">
        <ele>208.2</ele>
        <time>2020-10-12T07:43:13Z</time>
      </trkpt>
      <trkpt lat="38.3569340" lon="-0.7587670">
        <ele>208.2</ele>
        <time>2020-10-12T07:43:14Z</time>
      </trkpt>
      <trkpt lat="38.3569960" lon="-0.7587130">
        <ele>208.4</ele>
        <time>2020-10-12T07:43:15Z</time>
      </trkpt>
      <trkpt lat="38.3570590" lon="-0.7586600">
        <ele>208.4</ele>
        <time>2020-10-12T07:43:16Z</time>
      </trkpt>
      <trkpt lat="38.3571220" lon="-0.7586060">
        <ele>208.4</ele>
        <time>2020-10-12T07:43:17Z</time>
      </trkpt>
      <trkpt lat="38.3571860" lon="-0.7585520">
        <ele>208.2</ele>
        <time>2020-10-12T07:43:18Z</time>
      </trkpt>
      <trkpt lat="38.3572510" lon="-0.7584960">
        <ele>208.0</ele>
        <time>2020-10-12T07:43:19Z</time>
      </trkpt>
      <trkpt lat="38.3573160" lon="-0.7584400">
        <ele>208.0</ele>
        <time>2020-10-12T07:43:20Z</time>
      </trkpt>
      <trkpt lat="38.3573830" lon="-0.7583840">
        <ele>207.8</ele>
        <time>2020-10-12T07:43:21Z</time>
      </trkpt>
      <trkpt lat="38.3574490" lon="-0.7583250">
        <ele>207.6</ele>
        <time>2020-10-12T07:43:22Z</time>
      </trkpt>
      <trkpt lat="38.3575140" lon="-0.7582630">
        <ele>207.4</ele>
        <time>2020-10-12T07:43:23Z</time>
      </trkpt>
      <trkpt lat="38.3575770" lon="-0.7581940">
        <ele>207.2</ele>
        <time>2020-10-12T07:43:24Z</time>
      </trkpt>
      <trkpt lat="38.3576370" lon="-0.7581220">
        <ele>207.0</ele>
        <time>2020-10-12T07:43:25Z</time>
      </trkpt>
      <trkpt lat="38.3576950" lon="-0.7580480">
        <ele>206.8</ele>
        <time>2020-10-12T07:43:26Z</time>
      </trkpt>
      <trkpt lat="38.3577520" lon="-0.7579720">
        <ele>206.6</ele>
        <time>2020-10-12T07:43:27Z</time>
      </trkpt>
      <trkpt lat="38.3578070" lon="-0.7578970">
        <ele>206.6</ele>
        <time>2020-10-12T07:43:28Z</time>
      </trkpt>
      <trkpt lat="38.3578610" lon="-0.7578200">
        <ele>206.6</ele>
        <time>2020-10-12T07:43:29Z</time>
      </trkpt>
      <trkpt lat="38.3579160" lon="-0.7577440">
        <ele>206.4</ele>
        <time>2020-10-12T07:43:30Z</time>
      </trkpt>
      <trkpt lat="38.3579710" lon="-0.7576690">
        <ele>206.6</ele>
        <time>2020-10-12T07:43:31Z</time>
      </trkpt>
      <trkpt lat="38.3580250" lon="-0.7575950">
        <ele>206.6</ele>
        <time>2020-10-12T07:43:32Z</time>
      </trkpt>
      <trkpt lat="38.3580820" lon="-0.7575200">
        <ele>206.8</ele>
        <time>2020-10-12T07:43:33Z</time>
      </trkpt>
      <trkpt lat="38.3581400" lon="-0.7574440">
        <ele>206.6</ele>
        <time>2020-10-12T07:43:34Z</time>
      </trkpt>
      <trkpt lat="38.3581970" lon="-0.7573670">
        <ele>206.4</ele>
        <time>2020-10-12T07:43:35Z</time>
      </trkpt>
      <trkpt lat="38.3582540" lon="-0.7572910">
        <ele>206.2</ele>
        <time>2020-10-12T07:43:36Z</time>
      </trkpt>
      <trkpt lat="38.3583110" lon="-0.7572150">
        <ele>206.0</ele>
        <time>2020-10-12T07:43:37Z</time>
      </trkpt>
      <trkpt lat="38.3583690" lon="-0.7571390">
        <ele>205.8</ele>
        <time>2020-10-12T07:43:38Z</time>
      </trkpt>
      <trkpt lat="38.3584260" lon="-0.7570630">
        <ele>205.6</ele>
        <time>2020-10-12T07:43:39Z</time>
      </trkpt>
      <trkpt lat="38.3584820" lon="-0.7569870">
        <ele>205.6</ele>
        <time>2020-10-12T07:43:40Z</time>
      </trkpt>
      <trkpt lat="38.3585370" lon="-0.7569110">
        <ele>205.4</ele>
        <time>2020-10-12T07:43:41Z</time>
      </trkpt>
      <trkpt lat="38.3585940" lon="-0.7568350">
        <ele>205.4</ele>
        <time>2020-10-12T07:43:42Z</time>
      </trkpt>
      <trkpt lat="38.3586500" lon="-0.7567590">
        <ele>205.4</ele>
        <time>2020-10-12T07:43:43Z</time>
      </trkpt>
      <trkpt lat="38.3587060" lon="-0.7566820">
        <ele>205.4</ele>
        <time>2020-10-12T07:43:44Z</time>
      </trkpt>
      <trkpt lat="38.3587620" lon="-0.7566040">
        <ele>205.6</ele>
        <time>2020-10-12T07:43:45Z</time>
      </trkpt>
      <trkpt lat="38.3588170" lon="-0.7565250">
        <ele>205.8</ele>
        <time>2020-10-12T07:43:46Z</time>
      </trkpt>
      <trkpt lat="38.3588710" lon="-0.7564430">
        <ele>206.0</ele>
        <time>2020-10-12T07:43:47Z</time>
      </trkpt>
      <trkpt lat="38.3589230" lon="-0.7563590">
        <ele>206.0</ele>
        <time>2020-10-12T07:43:48Z</time>
      </trkpt>
      <trkpt lat="38.3589740" lon="-0.7562730">
        <ele>205.8</ele>
        <time>2020-10-12T07:43:49Z</time>
      </trkpt>
      <trkpt lat="38.3590220" lon="-0.7561850">
        <ele>205.8</ele>
        <time>2020-10-12T07:43:50Z</time>
      </trkpt>
      <trkpt lat="38.3590700" lon="-0.7560960">
        <ele>205.6</ele>
        <time>2020-10-12T07:43:51Z</time>
      </trkpt>
      <trkpt lat="38.3591180" lon="-0.7560060">
        <ele>205.4</ele>
        <time>2020-10-12T07:43:52Z</time>
      </trkpt>
      <trkpt lat="38.3591660" lon="-0.7559180">
        <ele>205.2</ele>
        <time>2020-10-12T07:43:53Z</time>
      </trkpt>
      <trkpt lat="38.3592140" lon="-0.7558310">
        <ele>205.0</ele>
        <time>2020-10-12T07:43:54Z</time>
      </trkpt>
      <trkpt lat="38.3592600" lon="-0.7557430">
        <ele>204.8</ele>
        <time>2020-10-12T07:43:55Z</time>
      </trkpt>
      <trkpt lat="38.3593050" lon="-0.7556560">
        <ele>204.6</ele>
        <time>2020-10-12T07:43:56Z</time>
      </trkpt>
      <trkpt lat="38.3593520" lon="-0.7555660">
        <ele>204.6</ele>
        <time>2020-10-12T07:43:57Z</time>
      </trkpt>
      <trkpt lat="38.3593970" lon="-0.7554720">
        <ele>204.4</ele>
        <time>2020-10-12T07:43:58Z</time>
      </trkpt>
      <trkpt lat="38.3594390" lon="-0.7553750">
        <ele>204.2</ele>
        <time>2020-10-12T07:43:59Z</time>
      </trkpt>
      <trkpt lat="38.3594790" lon="-0.7552720">
        <ele>204.0</ele>
        <time>2020-10-12T07:44:00Z</time>
      </trkpt>
      <trkpt lat="38.3595130" lon="-0.7551630">
        <ele>203.6</ele>
        <time>2020-10-12T07:44:01Z</time>
      </trkpt>
      <trkpt lat="38.3595420" lon="-0.7550500">
        <ele>203.4</ele>
        <time>2020-10-12T07:44:02Z</time>
      </trkpt>
      <trkpt lat="38.3595700" lon="-0.7549350">
        <ele>203.0</ele>
        <time>2020-10-12T07:44:03Z</time>
      </trkpt>
      <trkpt lat="38.3595960" lon="-0.7548180">
        <ele>202.8</ele>
        <time>2020-10-12T07:44:04Z</time>
      </trkpt>
      <trkpt lat="38.3596220" lon="-0.7547010">
        <ele>202.2</ele>
        <time>2020-10-12T07:44:05Z</time>
      </trkpt>
      <trkpt lat="38.3596490" lon="-0.7545830">
        <ele>201.8</ele>
        <time>2020-10-12T07:44:06Z</time>
      </trkpt>
      <trkpt lat="38.3596750" lon="-0.7544650">
        <ele>201.2</ele>
        <time>2020-10-12T07:44:07Z</time>
      </trkpt>
      <trkpt lat="38.3597010" lon="-0.7543450">
        <ele>200.8</ele>
        <time>2020-10-12T07:44:08Z</time>
      </trkpt>
      <trkpt lat="38.3597280" lon="-0.7542260">
        <ele>200.4</ele>
        <time>2020-10-12T07:44:09Z</time>
      </trkpt>
      <trkpt lat="38.3597550" lon="-0.7541060">
        <ele>200.0</ele>
        <time>2020-10-12T07:44:10Z</time>
      </trkpt>
      <trkpt lat="38.3597820" lon="-0.7539860">
        <ele>199.4</ele>
        <time>2020-10-12T07:44:11Z</time>
      </trkpt>
      <trkpt lat="38.3598080" lon="-0.7538620">
        <ele>199.0</ele>
        <time>2020-10-12T07:44:12Z</time>
      </trkpt>
      <trkpt lat="38.3598350" lon="-0.7537380">
        <ele>198.6</ele>
        <time>2020-10-12T07:44:13Z</time>
      </trkpt>
      <trkpt lat="38.3598650" lon="-0.7536130">
        <ele>198.2</ele>
        <time>2020-10-12T07:44:14Z</time>
      </trkpt>
      <trkpt lat="38.3598970" lon="-0.7534850">
        <ele>197.8</ele>
        <time>2020-10-12T07:44:15Z</time>
      </trkpt>
      <trkpt lat="38.3599320" lon="-0.7533570">
        <ele>197.4</ele>
        <time>2020-10-12T07:44:16Z</time>
      </trkpt>
      <trkpt lat="38.3599740" lon="-0.7532290">
        <ele>196.8</ele>
        <time>2020-10-12T07:44:17Z</time>
      </trkpt>
      <trkpt lat="38.3600250" lon="-0.7531010">
        <ele>196.2</ele>
        <time>2020-10-12T07:44:18Z</time>
      </trkpt>
      <trkpt lat="38.3600850" lon="-0.7529760">
        <ele>195.4</ele>
        <time>2020-10-12T07:44:19Z</time>
      </trkpt>
      <trkpt lat="38.3601500" lon="-0.7528500">
        <ele>194.4</ele>
        <time>2020-10-12T07:44:20Z</time>
      </trkpt>
      <trkpt lat="38.3602170" lon="-0.7527210">
        <ele>193.4</ele>
        <time>2020-10-12T07:44:21Z</time>
      </trkpt>
      <trkpt lat="38.3602860" lon="-0.7525920">
        <ele>192.4</ele>
        <time>2020-10-12T07:44:22Z</time>
      </trkpt>
      <trkpt lat="38.3603540" lon="-0.7524630">
        <ele>191.6</ele>
        <time>2020-10-12T07:44:23Z</time>
      </trkpt>
      <trkpt lat="38.3604200" lon="-0.7523420">
        <ele>191.0</ele>
        <time>2020-10-12T07:44:24Z</time>
      </trkpt>
      <trkpt lat="38.3604840" lon="-0.7522230">
        <ele>190.6</ele>
        <time>2020-10-12T07:44:25Z</time>
      </trkpt>
      <trkpt lat="38.3605440" lon="-0.7521110">
        <ele>190.6</ele>
        <time>2020-10-12T07:44:26Z</time>
      </trkpt>
      <trkpt lat="38.3606000" lon="-0.7520020">
        <ele>190.8</ele>
        <time>2020-10-12T07:44:27Z</time>
      </trkpt>
      <trkpt lat="38.3606540" lon="-0.7519010">
        <ele>191.8</ele>
        <time>2020-10-12T07:44:28Z</time>
      </trkpt>
      <trkpt lat="38.3607060" lon="-0.7518050">
        <ele>193.0</ele>
        <time>2020-10-12T07:44:29Z</time>
      </trkpt>
      <trkpt lat="38.3607540" lon="-0.7517120">
        <ele>194.6</ele>
        <time>2020-10-12T07:44:30Z</time>
      </trkpt>
      <trkpt lat="38.3608010" lon="-0.7516240">
        <ele>195.8</ele>
        <time>2020-10-12T07:44:31Z</time>
      </trkpt>
      <trkpt lat="38.3608470" lon="-0.7515370">
        <ele>197.0</ele>
        <time>2020-10-12T07:44:32Z</time>
      </trkpt>
      <trkpt lat="38.3608920" lon="-0.7514500">
        <ele>197.8</ele>
        <time>2020-10-12T07:44:33Z</time>
      </trkpt>
      <trkpt lat="38.3609360" lon="-0.7513640">
        <ele>199.0</ele>
        <time>2020-10-12T07:44:34Z</time>
      </trkpt>
      <trkpt lat="38.3609800" lon="-0.7512790">
        <ele>199.6</ele>
        <time>2020-10-12T07:44:35Z</time>
      </trkpt>
      <trkpt lat="38.3610240" lon="-0.7511950">
        <ele>200.0</ele>
        <time>2020-10-12T07:44:36Z</time>
      </trkpt>
      <trkpt lat="38.3610650" lon="-0.7511100">
        <ele>200.6</ele>
        <time>2020-10-12T07:44:37Z</time>
      </trkpt>
      <trkpt lat="38.3611080" lon="-0.7510270">
        <ele>201.2</ele>
        <time>2020-10-12T07:44:38Z</time>
      </trkpt>
      <trkpt lat="38.3611530" lon="-0.7509430">
        <ele>201.0</ele>
        <time>2020-10-12T07:44:39Z</time>
      </trkpt>
      <trkpt lat="38.3611960" lon="-0.7508570">
        <ele>201.0</ele>
        <time>2020-10-12T07:44:40Z</time>
      </trkpt>
      <trkpt lat="38.3612410" lon="-0.7507670">
        <ele>201.0</ele>
        <time>2020-10-12T07:44:41Z</time>
      </trkpt>
      <trkpt lat="38.3612850" lon="-0.7506720">
        <ele>201.2</ele>
        <time>2020-10-12T07:44:42Z</time>
      </trkpt>
      <trkpt lat="38.3613280" lon="-0.7505730">
        <ele>201.2</ele>
        <time>2020-10-12T07:44:43Z</time>
      </trkpt>
      <trkpt lat="38.3613710" lon="-0.7504720">
        <ele>201.0</ele>
        <time>2020-10-12T07:44:44Z</time>
      </trkpt>
      <trkpt lat="38.3614150" lon="-0.7503710">
        <ele>200.6</ele>
        <time>2020-10-12T07:44:45Z</time>
      </trkpt>
      <trkpt lat="38.3614610" lon="-0.7502670">
        <ele>200.8</ele>
        <time>2020-10-12T07:44:46Z</time>
      </trkpt>
      <trkpt lat="38.3615070" lon="-0.7501610">
        <ele>200.8</ele>
        <time>2020-10-12T07:44:47Z</time>
      </trkpt>
      <trkpt lat="38.3615520" lon="-0.7500540">
        <ele>200.8</ele>
        <time>2020-10-12T07:44:48Z</time>
      </trkpt>
      <trkpt lat="38.3615980" lon="-0.7499480">
        <ele>200.4</ele>
        <time>2020-10-12T07:44:49Z</time>
      </trkpt>
      <trkpt lat="38.3616430" lon="-0.7498420">
        <ele>200.4</ele>
        <time>2020-10-12T07:44:50Z</time>
      </trkpt>
      <trkpt lat="38.3616870" lon="-0.7497360">
        <ele>200.6</ele>
        <time>2020-10-12T07:44:51Z</time>
      </trkpt>
      <trkpt lat="38.3617310" lon="-0.7496300">
        <ele>200.4</ele>
        <time>2020-10-12T07:44:52Z</time>
      </trkpt>
      <trkpt lat="38.3617770" lon="-0.7495230">
        <ele>200.0</ele>
        <time>2020-10-12T07:44:53Z</time>
      </trkpt>
      <trkpt lat="38.3618230" lon="-0.7494160">
        <ele>199.4</ele>
        <time>2020-10-12T07:44:54Z</time>
      </trkpt>
      <trkpt lat="38.3618690" lon="-0.7493090">
        <ele>199.0</ele>
        <time>2020-10-12T07:44:55Z</time>
      </trkpt>
      <trkpt lat="38.3619140" lon="-0.7492030">
        <ele>198.8</ele>
        <time>2020-10-12T07:44:56Z</time>
      </trkpt>
      <trkpt lat="38.3619620" lon="-0.7490960">
        <ele>198.4</ele>
        <time>2020-10-12T07:44:57Z</time>
      </trkpt>
      <trkpt lat="38.3620090" lon="-0.7489890">
        <ele>198.2</ele>
        <time>2020-10-12T07:44:58Z</time>
      </trkpt>
      <trkpt lat="38.3620560" lon="-0.7488800">
        <ele>198.0</ele>
        <time>2020-10-12T07:44:59Z</time>
      </trkpt>
      <trkpt lat="38.3621030" lon="-0.7487730">
        <ele>197.8</ele>
        <time>2020-10-12T07:45:00Z</time>
      </trkpt>
      <trkpt lat="38.3621500" lon="-0.7486650">
        <ele>197.6</ele>
        <time>2020-10-12T07:45:01Z</time>
      </trkpt>
      <trkpt lat="38.3621970" lon="-0.7485600">
        <ele>197.4</ele>
        <time>2020-10-12T07:45:02Z</time>
      </trkpt>
      <trkpt lat="38.3622450" lon="-0.7484540">
        <ele>197.4</ele>
        <time>2020-10-12T07:45:03Z</time>
      </trkpt>
      <trkpt lat="38.3622900" lon="-0.7483490">
        <ele>197.4</ele>
        <time>2020-10-12T07:45:04Z</time>
      </trkpt>
      <trkpt lat="38.3623330" lon="-0.7482460">
        <ele>197.4</ele>
        <time>2020-10-12T07:45:05Z</time>
      </trkpt>
      <trkpt lat="38.3623740" lon="-0.7481450">
        <ele>197.2</ele>
        <time>2020-10-12T07:45:06Z</time>
      </trkpt>
      <trkpt lat="38.3624160" lon="-0.7480490">
        <ele>197.2</ele>
        <time>2020-10-12T07:45:07Z</time>
      </trkpt>
      <trkpt lat="38.3624550" lon="-0.7479540">
        <ele>197.0</ele>
        <time>2020-10-12T07:45:08Z</time>
      </trkpt>
      <trkpt lat="38.3624940" lon="-0.7478650">
        <ele>197.2</ele>
        <time>2020-10-12T07:45:09Z</time>
      </trkpt>
      <trkpt lat="38.3625350" lon="-0.7477780">
        <ele>197.2</ele>
        <time>2020-10-12T07:45:10Z</time>
      </trkpt>
      <trkpt lat="38.3625710" lon="-0.7476920">
        <ele>197.4</ele>
        <time>2020-10-12T07:45:11Z</time>
      </trkpt>
      <trkpt lat="38.3626060" lon="-0.7476070">
        <ele>197.6</ele>
        <time>2020-10-12T07:45:12Z</time>
      </trkpt>
      <trkpt lat="38.3626400" lon="-0.7475230">
        <ele>198.0</ele>
        <time>2020-10-12T07:45:13Z</time>
      </trkpt>
      <trkpt lat="38.3626750" lon="-0.7474360">
        <ele>198.6</ele>
        <time>2020-10-12T07:45:14Z</time>
      </trkpt>
      <trkpt lat="38.3627140" lon="-0.7473530">
        <ele>198.8</ele>
        <time>2020-10-12T07:45:15Z</time>
      </trkpt>
      <trkpt lat="38.3627520" lon="-0.7472690">
        <ele>199.2</ele>
        <time>2020-10-12T07:45:16Z</time>
      </trkpt>
      <trkpt lat="38.3627900" lon="-0.7471870">
        <ele>199.6</ele>
        <time>2020-10-12T07:45:17Z</time>
      </trkpt>
      <trkpt lat="38.3628270" lon="-0.7471010">
        <ele>199.8</ele>
        <time>2020-10-12T07:45:18Z</time>
      </trkpt>
      <trkpt lat="38.3628600" lon="-0.7470150">
        <ele>200.0</ele>
        <time>2020-10-12T07:45:19Z</time>
      </trkpt>
      <trkpt lat="38.3628960" lon="-0.7469310">
        <ele>200.2</ele>
        <time>2020-10-12T07:45:20Z</time>
      </trkpt>
      <trkpt lat="38.3629320" lon="-0.7468510">
        <ele>200.2</ele>
        <time>2020-10-12T07:45:21Z</time>
      </trkpt>
      <trkpt lat="38.3629690" lon="-0.7467690">
        <ele>200.4</ele>
        <time>2020-10-12T07:45:22Z</time>
      </trkpt>
      <trkpt lat="38.3630060" lon="-0.7466860">
        <ele>200.4</ele>
        <time>2020-10-12T07:45:23Z</time>
      </trkpt>
      <trkpt lat="38.3630430" lon="-0.7466020">
        <ele>200.4</ele>
        <time>2020-10-12T07:45:24Z</time>
      </trkpt>
      <trkpt lat="38.3630800" lon="-0.7465180">
        <ele>200.4</ele>
        <time>2020-10-12T07:45:25Z</time>
      </trkpt>
      <trkpt lat="38.3631170" lon="-0.7464330">
        <ele>200.6</ele>
        <time>2020-10-12T07:45:26Z</time>
      </trkpt>
      <trkpt lat="38.3631560" lon="-0.7463490">
        <ele>200.6</ele>
        <time>2020-10-12T07:45:27Z</time>
      </trkpt>
      <trkpt lat="38.3631960" lon="-0.7462680">
        <ele>200.8</ele>
        <time>2020-10-12T07:45:28Z</time>
      </trkpt>
      <trkpt lat="38.3632370" lon="-0.7461900">
        <ele>200.8</ele>
        <time>2020-10-12T07:45:29Z</time>
      </trkpt>
      <trkpt lat="38.3632820" lon="-0.7461160">
        <ele>200.8</ele>
        <time>2020-10-12T07:45:30Z</time>
      </trkpt>
      <trkpt lat="38.3633290" lon="-0.7460470">
        <ele>200.8</ele>
        <time>2020-10-12T07:45:31Z</time>
      </trkpt>
      <trkpt lat="38.3633810" lon="-0.7459830">
        <ele>200.8</ele>
        <time>2020-10-12T07:45:32Z</time>
      </trkpt>
      <trkpt lat="38.3634350" lon="-0.7459190">
        <ele>200.8</ele>
        <time>2020-10-12T07:45:33Z</time>
      </trkpt>
      <trkpt lat="38.3634900" lon="-0.7458560">
        <ele>200.8</ele>
        <time>2020-10-12T07:45:34Z</time>
      </trkpt>
      <trkpt lat="38.3635470" lon="-0.7457920">
        <ele>201.0</ele>
        <time>2020-10-12T07:45:35Z</time>
      </trkpt>
      <trkpt lat="38.3636050" lon="-0.7457300">
        <ele>201.0</ele>
        <time>2020-10-12T07:45:36Z</time>
      </trkpt>
      <trkpt lat="38.3636630" lon="-0.7456670">
        <ele>201.2</ele>
        <time>2020-10-12T07:45:37Z</time>
      </trkpt>
      <trkpt lat="38.3637190" lon="-0.7456040">
        <ele>201.4</ele>
        <time>2020-10-12T07:45:38Z</time>
      </trkpt>
      <trkpt lat="38.3637760" lon="-0.7455410">
        <ele>201.6</ele>
        <time>2020-10-12T07:45:39Z</time>
      </trkpt>
      <trkpt lat="38.3638340" lon="-0.7454760">
        <ele>201.6</ele>
        <time>2020-10-12T07:45:40Z</time>
      </trkpt>
      <trkpt lat="38.3638930" lon="-0.7454110">
        <ele>201.6</ele>
        <time>2020-10-12T07:45:41Z</time>
      </trkpt>
      <trkpt lat="38.3639530" lon="-0.7453480">
        <ele>201.4</ele>
        <time>2020-10-12T07:45:42Z</time>
      </trkpt>
      <trkpt lat="38.3640140" lon="-0.7452840">
        <ele>201.4</ele>
        <time>2020-10-12T07:45:43Z</time>
      </trkpt>
      <trkpt lat="38.3640730" lon="-0.7452210">
        <ele>201.0</ele>
        <time>2020-10-12T07:45:44Z</time>
      </trkpt>
      <trkpt lat="38.3641320" lon="-0.7451580">
        <ele>201.0</ele>
        <time>2020-10-12T07:45:45Z</time>
      </trkpt>
      <trkpt lat="38.3641900" lon="-0.7450950">
        <ele>200.8</ele>
        <time>2020-10-12T07:45:46Z</time>
      </trkpt>
      <trkpt lat="38.3642490" lon="-0.7450310">
        <ele>200.8</ele>
        <time>2020-10-12T07:45:47Z</time>
      </trkpt>
      <trkpt lat="38.3643090" lon="-0.7449650">
        <ele>200.6</ele>
        <time>2020-10-12T07:45:48Z</time>
      </trkpt>
      <trkpt lat="38.3643690" lon="-0.7448970">
        <ele>200.6</ele>
        <time>2020-10-12T07:45:49Z</time>
      </trkpt>
      <trkpt lat="38.3644290" lon="-0.7448280">
        <ele>200.6</ele>
        <time>2020-10-12T07:45:50Z</time>
      </trkpt>
      <trkpt lat="38.3644870" lon="-0.7447590">
        <ele>200.8</ele>
        <time>2020-10-12T07:45:51Z</time>
      </trkpt>
      <trkpt lat="38.3645450" lon="-0.7446920">
        <ele>201.0</ele>
        <time>2020-10-12T07:45:52Z</time>
      </trkpt>
      <trkpt lat="38.3646010" lon="-0.7446220">
        <ele>200.8</ele>
        <time>2020-10-12T07:45:53Z</time>
      </trkpt>
      <trkpt lat="38.3646570" lon="-0.7445490">
        <ele>200.6</ele>
        <time>2020-10-12T07:45:54Z</time>
      </trkpt>
      <trkpt lat="38.3647110" lon="-0.7444740">
        <ele>200.8</ele>
        <time>2020-10-12T07:45:55Z</time>
      </trkpt>
      <trkpt lat="38.3647630" lon="-0.7443970">
        <ele>201.0</ele>
        <time>2020-10-12T07:45:56Z</time>
      </trkpt>
      <trkpt lat="38.3648130" lon="-0.7443180">
        <ele>201.2</ele>
        <time>2020-10-12T07:45:57Z</time>
      </trkpt>
      <trkpt lat="38.3648610" lon="-0.7442370">
        <ele>201.2</ele>
        <time>2020-10-12T07:45:58Z</time>
      </trkpt>
      <trkpt lat="38.3649070" lon="-0.7441540">
        <ele>201.2</ele>
        <time>2020-10-12T07:45:59Z</time>
      </trkpt>
      <trkpt lat="38.3649520" lon="-0.7440720">
        <ele>201.2</ele>
        <time>2020-10-12T07:46:00Z</time>
      </trkpt>
      <trkpt lat="38.3649980" lon="-0.7439890">
        <ele>201.4</ele>
        <time>2020-10-12T07:46:01Z</time>
      </trkpt>
      <trkpt lat="38.3650430" lon="-0.7439060">
        <ele>201.6</ele>
        <time>2020-10-12T07:46:02Z</time>
      </trkpt>
      <trkpt lat="38.3650880" lon="-0.7438230">
        <ele>201.6</ele>
        <time>2020-10-12T07:46:03Z</time>
      </trkpt>
      <trkpt lat="38.3651340" lon="-0.7437430">
        <ele>201.6</ele>
        <time>2020-10-12T07:46:04Z</time>
      </trkpt>
      <trkpt lat="38.3651790" lon="-0.7436650">
        <ele>201.6</ele>
        <time>2020-10-12T07:46:05Z</time>
      </trkpt>
      <trkpt lat="38.3652220" lon="-0.7435860">
        <ele>201.8</ele>
        <time>2020-10-12T07:46:06Z</time>
      </trkpt>
      <trkpt lat="38.3652610" lon="-0.7435060">
        <ele>201.6</ele>
        <time>2020-10-12T07:46:07Z</time>
      </trkpt>
      <trkpt lat="38.3653030" lon="-0.7434260">
        <ele>201.6</ele>
        <time>2020-10-12T07:46:08Z</time>
      </trkpt>
      <trkpt lat="38.3653420" lon="-0.7433470">
        <ele>201.6</ele>
        <time>2020-10-12T07:46:09Z</time>
      </trkpt>
      <trkpt lat="38.3653850" lon="-0.7432650">
        <ele>201.6</ele>
        <time>2020-10-12T07:46:10Z</time>
      </trkpt>
      <trkpt lat="38.3654300" lon="-0.7431840">
        <ele>201.8</ele>
        <time>2020-10-12T07:46:11Z</time>
      </trkpt>
      <trkpt lat="38.3654750" lon="-0.7431050">
        <ele>201.8</ele>
        <time>2020-10-12T07:46:12Z</time>
      </trkpt>
      <trkpt lat="38.3655190" lon="-0.7430250">
        <ele>202.0</ele>
        <time>2020-10-12T07:46:13Z</time>
      </trkpt>
      <trkpt lat="38.3655600" lon="-0.7429460">
        <ele>202.2</ele>
        <time>2020-10-12T07:46:14Z</time>
      </trkpt>
      <trkpt lat="38.3656010" lon="-0.7428680">
        <ele>202.2</ele>
        <time>2020-10-12T07:46:15Z</time>
      </trkpt>
      <trkpt lat="38.3656420" lon="-0.7427870">
        <ele>202.2</ele>
        <time>2020-10-12T07:46:16Z</time>
      </trkpt>
      <trkpt lat="38.3656820" lon="-0.7427080">
        <ele>202.4</ele>
        <time>2020-10-12T07:46:17Z</time>
      </trkpt>
      <trkpt lat="38.3657230" lon="-0.7426320">
        <ele>202.4</ele>
        <time>2020-10-12T07:46:18Z</time>
      </trkpt>
      <trkpt lat="38.3657640" lon="-0.7425550">
        <ele>202.8</ele>
        <time>2020-10-12T07:46:19Z</time>
      </trkpt>
      <trkpt lat="38.3658070" lon="-0.7424790">
        <ele>203.0</ele>
        <time>2020-10-12T07:46:20Z</time>
      </trkpt>
      <trkpt lat="38.3658510" lon="-0.7424020">
        <ele>203.2</ele>
        <time>2020-10-12T07:46:21Z</time>
      </trkpt>
      <trkpt lat="38.3658940" lon="-0.7423260">
        <ele>203.6</ele>
        <time>2020-10-12T07:46:22Z</time>
      </trkpt>
      <trkpt lat="38.3659390" lon="-0.7422480">
        <ele>203.6</ele>
        <time>2020-10-12T07:46:23Z</time>
      </trkpt>
      <trkpt lat="38.3659850" lon="-0.7421730">
        <ele>203.6</ele>
        <time>2020-10-12T07:46:24Z</time>
      </trkpt>
      <trkpt lat="38.3660330" lon="-0.7420980">
        <ele>203.4</ele>
        <time>2020-10-12T07:46:25Z</time>
      </trkpt>
      <trkpt lat="38.3660830" lon="-0.7420270">
        <ele>203.2</ele>
        <time>2020-10-12T07:46:26Z</time>
      </trkpt>
      <trkpt lat="38.3661370" lon="-0.7419610">
        <ele>203.0</ele>
        <time>2020-10-12T07:46:27Z</time>
      </trkpt>
      <trkpt lat="38.3661930" lon="-0.7419010">
        <ele>202.8</ele>
        <time>2020-10-12T07:46:28Z</time>
      </trkpt>
      <trkpt lat="38.3662500" lon="-0.7418430">
        <ele>202.8</ele>
        <time>2020-10-12T07:46:29Z</time>
      </trkpt>
      <trkpt lat="38.3663100" lon="-0.7417880">
        <ele>202.6</ele>
        <time>2020-10-12T07:46:30Z</time>
      </trkpt>
      <trkpt lat="38.3663680" lon="-0.7417340">
        <ele>202.8</ele>
        <time>2020-10-12T07:46:31Z</time>
      </trkpt>
      <trkpt lat="38.3664280" lon="-0.7416820">
        <ele>202.8</ele>
        <time>2020-10-12T07:46:32Z</time>
      </trkpt>
      <trkpt lat="38.3664860" lon="-0.7416300">
        <ele>203.0</ele>
        <time>2020-10-12T07:46:33Z</time>
      </trkpt>
      <trkpt lat="38.3665450" lon="-0.7415770">
        <ele>203.2</ele>
        <time>2020-10-12T07:46:34Z</time>
      </trkpt>
      <trkpt lat="38.3666060" lon="-0.7415230">
        <ele>203.2</ele>
        <time>2020-10-12T07:46:35Z</time>
      </trkpt>
      <trkpt lat="38.3666690" lon="-0.7414700">
        <ele>203.4</ele>
        <time>2020-10-12T07:46:36Z</time>
      </trkpt>
      <trkpt lat="38.3667340" lon="-0.7414180">
        <ele>203.4</ele>
        <time>2020-10-12T07:46:37Z</time>
      </trkpt>
      <trkpt lat="38.3667970" lon="-0.7413630">
        <ele>203.6</ele>
        <time>2020-10-12T07:46:38Z</time>
      </trkpt>
      <trkpt lat="38.3668580" lon="-0.7413060">
        <ele>203.6</ele>
        <time>2020-10-12T07:46:39Z</time>
      </trkpt>
      <trkpt lat="38.3669190" lon="-0.7412490">
        <ele>203.8</ele>
        <time>2020-10-12T07:46:40Z</time>
      </trkpt>
      <trkpt lat="38.3669810" lon="-0.7411940">
        <ele>203.6</ele>
        <time>2020-10-12T07:46:41Z</time>
      </trkpt>
      <trkpt lat="38.3670430" lon="-0.7411370">
        <ele>203.8</ele>
        <time>2020-10-12T07:46:42Z</time>
      </trkpt>
      <trkpt lat="38.3671070" lon="-0.7410800">
        <ele>203.6</ele>
        <time>2020-10-12T07:46:43Z</time>
      </trkpt>
      <trkpt lat="38.3671710" lon="-0.7410240">
        <ele>203.4</ele>
        <time>2020-10-12T07:46:44Z</time>
      </trkpt>
      <trkpt lat="38.3672350" lon="-0.7409700">
        <ele>203.0</ele>
        <time>2020-10-12T07:46:45Z</time>
      </trkpt>
      <trkpt lat="38.3672980" lon="-0.7409150">
        <ele>202.4</ele>
        <time>2020-10-12T07:46:46Z</time>
      </trkpt>
      <trkpt lat="38.3673590" lon="-0.7408600">
        <ele>202.4</ele>
        <time>2020-10-12T07:46:47Z</time>
      </trkpt>
      <trkpt lat="38.3674200" lon="-0.7408070">
        <ele>202.6</ele>
        <time>2020-10-12T07:46:48Z</time>
      </trkpt>
      <trkpt lat="38.3674800" lon="-0.7407530">
        <ele>202.8</ele>
        <time>2020-10-12T07:46:49Z</time>
      </trkpt>
      <trkpt lat="38.3675420" lon="-0.7406970">
        <ele>202.8</ele>
        <time>2020-10-12T07:46:50Z</time>
      </trkpt>
      <trkpt lat="38.3676030" lon="-0.7406390">
        <ele>202.8</ele>
        <time>2020-10-12T07:46:51Z</time>
      </trkpt>
      <trkpt lat="38.3676630" lon="-0.7405800">
        <ele>202.8</ele>
        <time>2020-10-12T07:46:52Z</time>
      </trkpt>
      <trkpt lat="38.3677230" lon="-0.7405210">
        <ele>202.8</ele>
        <time>2020-10-12T07:46:53Z</time>
      </trkpt>
      <trkpt lat="38.3677800" lon="-0.7404620">
        <ele>203.0</ele>
        <time>2020-10-12T07:46:54Z</time>
      </trkpt>
      <trkpt lat="38.3678390" lon="-0.7404010">
        <ele>202.8</ele>
        <time>2020-10-12T07:46:55Z</time>
      </trkpt>
      <trkpt lat="38.3678960" lon="-0.7403370">
        <ele>202.6</ele>
        <time>2020-10-12T07:46:56Z</time>
      </trkpt>
      <trkpt lat="38.3679510" lon="-0.7402710">
        <ele>202.6</ele>
        <time>2020-10-12T07:46:57Z</time>
      </trkpt>
      <trkpt lat="38.3680050" lon="-0.7402040">
        <ele>202.6</ele>
        <time>2020-10-12T07:46:58Z</time>
      </trkpt>
      <trkpt lat="38.3680580" lon="-0.7401340">
        <ele>202.8</ele>
        <time>2020-10-12T07:46:59Z</time>
      </trkpt>
      <trkpt lat="38.3681130" lon="-0.7400620">
        <ele>202.8</ele>
        <time>2020-10-12T07:47:00Z</time>
      </trkpt>
      <trkpt lat="38.3681650" lon="-0.7399910">
        <ele>203.0</ele>
        <time>2020-10-12T07:47:01Z</time>
      </trkpt>
      <trkpt lat="38.3682180" lon="-0.7399200">
        <ele>203.4</ele>
        <time>2020-10-12T07:47:02Z</time>
      </trkpt>
      <trkpt lat="38.3682720" lon="-0.7398490">
        <ele>203.6</ele>
        <time>2020-10-12T07:47:03Z</time>
      </trkpt>
      <trkpt lat="38.3683250" lon="-0.7397790">
        <ele>203.8</ele>
        <time>2020-10-12T07:47:04Z</time>
      </trkpt>
      <trkpt lat="38.3683790" lon="-0.7397080">
        <ele>203.8</ele>
        <time>2020-10-12T07:47:05Z</time>
      </trkpt>
      <trkpt lat="38.3684310" lon="-0.7396400">
        <ele>204.0</ele>
        <time>2020-10-12T07:47:06Z</time>
      </trkpt>
      <trkpt lat="38.3684830" lon="-0.7395700">
        <ele>204.0</ele>
        <time>2020-10-12T07:47:07Z</time>
      </trkpt>
      <trkpt lat="38.3685350" lon="-0.7394990">
        <ele>203.8</ele>
        <time>2020-10-12T07:47:08Z</time>
      </trkpt>
      <trkpt lat="38.3685880" lon="-0.7394270">
        <ele>203.8</ele>
        <time>2020-10-12T07:47:09Z</time>
      </trkpt>
      <trkpt lat="38.3686400" lon="-0.7393530">
        <ele>203.8</ele>
        <time>2020-10-12T07:47:10Z</time>
      </trkpt>
      <trkpt lat="38.3686930" lon="-0.7392830">
        <ele>203.6</ele>
        <time>2020-10-12T07:47:11Z</time>
      </trkpt>
      <trkpt lat="38.3687470" lon="-0.7392120">
        <ele>203.4</ele>
        <time>2020-10-12T07:47:12Z</time>
      </trkpt>
      <trkpt lat="38.3688000" lon="-0.7391410">
        <ele>203.2</ele>
        <time>2020-10-12T07:47:13Z</time>
      </trkpt>
      <trkpt lat="38.3688510" lon="-0.7390700">
        <ele>203.2</ele>
        <time>2020-10-12T07:47:14Z</time>
      </trkpt>
      <trkpt lat="38.3689030" lon="-0.7389990">
        <ele>203.2</ele>
        <time>2020-10-12T07:47:15Z</time>
      </trkpt>
      <trkpt lat="38.3689560" lon="-0.7389270">
        <ele>203.2</ele>
        <time>2020-10-12T07:47:16Z</time>
      </trkpt>
      <trkpt lat="38.3690090" lon="-0.7388540">
        <ele>203.2</ele>
        <time>2020-10-12T07:47:17Z</time>
      </trkpt>
      <trkpt lat="38.3690620" lon="-0.7387830">
        <ele>203.0</ele>
        <time>2020-10-12T07:47:18Z</time>
      </trkpt>
      <trkpt lat="38.3691150" lon="-0.7387100">
        <ele>203.0</ele>
        <time>2020-10-12T07:47:19Z</time>
      </trkpt>
      <trkpt lat="38.3691670" lon="-0.7386350">
        <ele>203.2</ele>
        <time>2020-10-12T07:47:20Z</time>
      </trkpt>
      <trkpt lat="38.3692180" lon="-0.7385580">
        <ele>203.4</ele>
        <time>2020-10-12T07:47:21Z</time>
      </trkpt>
      <trkpt lat="38.3692680" lon="-0.7384800">
        <ele>203.4</ele>
        <time>2020-10-12T07:47:22Z</time>
      </trkpt>
      <trkpt lat="38.3693180" lon="-0.7384010">
        <ele>203.4</ele>
        <time>2020-10-12T07:47:23Z</time>
      </trkpt>
      <trkpt lat="38.3693680" lon="-0.7383220">
        <ele>203.2</ele>
        <time>2020-10-12T07:47:24Z</time>
      </trkpt>
      <trkpt lat="38.3694180" lon="-0.7382430">
        <ele>203.2</ele>
        <time>2020-10-12T07:47:25Z</time>
      </trkpt>
      <trkpt lat="38.3694680" lon="-0.7381630">
        <ele>203.2</ele>
        <time>2020-10-12T07:47:26Z</time>
      </trkpt>
      <trkpt lat="38.3695180" lon="-0.7380850">
        <ele>203.2</ele>
        <time>2020-10-12T07:47:27Z</time>
      </trkpt>
      <trkpt lat="38.3695690" lon="-0.7380090">
        <ele>203.0</ele>
        <time>2020-10-12T07:47:28Z</time>
      </trkpt>
      <trkpt lat="38.3696190" lon="-0.7379330">
        <ele>203.2</ele>
        <time>2020-10-12T07:47:29Z</time>
      </trkpt>
      <trkpt lat="38.3696680" lon="-0.7378550">
        <ele>203.4</ele>
        <time>2020-10-12T07:47:30Z</time>
      </trkpt>
      <trkpt lat="38.3697170" lon="-0.7377790">
        <ele>203.4</ele>
        <time>2020-10-12T07:47:31Z</time>
      </trkpt>
      <trkpt lat="38.3697660" lon="-0.7377020">
        <ele>203.6</ele>
        <time>2020-10-12T07:47:32Z</time>
      </trkpt>
      <trkpt lat="38.3698150" lon="-0.7376260">
        <ele>203.8</ele>
        <time>2020-10-12T07:47:33Z</time>
      </trkpt>
      <trkpt lat="38.3698650" lon="-0.7375500">
        <ele>204.0</ele>
        <time>2020-10-12T07:47:34Z</time>
      </trkpt>
      <trkpt lat="38.3699140" lon="-0.7374740">
        <ele>204.2</ele>
        <time>2020-10-12T07:47:35Z</time>
      </trkpt>
      <trkpt lat="38.3699620" lon="-0.7373980">
        <ele>204.6</ele>
        <time>2020-10-12T07:47:36Z</time>
      </trkpt>
      <trkpt lat="38.3700100" lon="-0.7373250">
        <ele>204.8</ele>
        <time>2020-10-12T07:47:37Z</time>
      </trkpt>
      <trkpt lat="38.3700570" lon="-0.7372500">
        <ele>205.0</ele>
        <time>2020-10-12T07:47:38Z</time>
      </trkpt>
      <trkpt lat="38.3701040" lon="-0.7371760">
        <ele>205.0</ele>
        <time>2020-10-12T07:47:39Z</time>
      </trkpt>
      <trkpt lat="38.3701530" lon="-0.7371040">
        <ele>205.2</ele>
        <time>2020-10-12T07:47:40Z</time>
      </trkpt>
      <trkpt lat="38.3702010" lon="-0.7370320">
        <ele>205.2</ele>
        <time>2020-10-12T07:47:41Z</time>
      </trkpt>
      <trkpt lat="38.3702490" lon="-0.7369580">
        <ele>205.2</ele>
        <time>2020-10-12T07:47:42Z</time>
      </trkpt>
      <trkpt lat="38.3702970" lon="-0.7368830">
        <ele>205.2</ele>
        <time>2020-10-12T07:47:43Z</time>
      </trkpt>
      <trkpt lat="38.3703450" lon="-0.7368080">
        <ele>205.0</ele>
        <time>2020-10-12T07:47:44Z</time>
      </trkpt>
      <trkpt lat="38.3703930" lon="-0.7367340">
        <ele>205.0</ele>
        <time>2020-10-12T07:47:45Z</time>
      </trkpt>
      <trkpt lat="38.3704400" lon="-0.7366610">
        <ele>204.8</ele>
        <time>2020-10-12T07:47:46Z</time>
      </trkpt>
      <trkpt lat="38.3704870" lon="-0.7365890">
        <ele>204.8</ele>
        <time>2020-10-12T07:47:47Z</time>
      </trkpt>
      <trkpt lat="38.3705330" lon="-0.7365170">
        <ele>204.4</ele>
        <time>2020-10-12T07:47:48Z</time>
      </trkpt>
      <trkpt lat="38.3705790" lon="-0.7364440">
        <ele>204.2</ele>
        <time>2020-10-12T07:47:49Z</time>
      </trkpt>
      <trkpt lat="38.3706260" lon="-0.7363710">
        <ele>204.4</ele>
        <time>2020-10-12T07:47:50Z</time>
      </trkpt>
      <trkpt lat="38.3706730" lon="-0.7362990">
        <ele>204.4</ele>
        <time>2020-10-12T07:47:51Z</time>
      </trkpt>
      <trkpt lat="38.3707190" lon="-0.7362250">
        <ele>204.8</ele>
        <time>2020-10-12T07:47:52Z</time>
      </trkpt>
      <trkpt lat="38.3707660" lon="-0.7361520">
        <ele>205.2</ele>
        <time>2020-10-12T07:47:53Z</time>
      </trkpt>
      <trkpt lat="38.3708130" lon="-0.7360790">
        <ele>205.4</ele>
        <time>2020-10-12T07:47:54Z</time>
      </trkpt>
      <trkpt lat="38.3708610" lon="-0.7360060">
        <ele>205.6</ele>
        <time>2020-10-12T07:47:55Z</time>
      </trkpt>
      <trkpt lat="38.3709100" lon="-0.7359380">
        <ele>205.8</ele>
        <time>2020-10-12T07:47:56Z</time>
      </trkpt>
      <trkpt lat="38.3709610" lon="-0.7358700">
        <ele>205.8</ele>
        <time>2020-10-12T07:47:57Z</time>
      </trkpt>
      <trkpt lat="38.3710130" lon="-0.7358050">
        <ele>206.0</ele>
        <time>2020-10-12T07:47:58Z</time>
      </trkpt>
      <trkpt lat="38.3710660" lon="-0.7357410">
        <ele>206.0</ele>
        <time>2020-10-12T07:47:59Z</time>
      </trkpt>
      <trkpt lat="38.3711210" lon="-0.7356780">
        <ele>206.0</ele>
        <time>2020-10-12T07:48:00Z</time>
      </trkpt>
      <trkpt lat="38.3711760" lon="-0.7356160">
        <ele>206.0</ele>
        <time>2020-10-12T07:48:01Z</time>
      </trkpt>
      <trkpt lat="38.3712340" lon="-0.7355570">
        <ele>206.0</ele>
        <time>2020-10-12T07:48:02Z</time>
      </trkpt>
      <trkpt lat="38.3712910" lon="-0.7355020">
        <ele>206.0</ele>
        <time>2020-10-12T07:48:03Z</time>
      </trkpt>
      <trkpt lat="38.3713510" lon="-0.7354490">
        <ele>206.0</ele>
        <time>2020-10-12T07:48:04Z</time>
      </trkpt>
      <trkpt lat="38.3714120" lon="-0.7353970">
        <ele>205.6</ele>
        <time>2020-10-12T07:48:05Z</time>
      </trkpt>
      <trkpt lat="38.3714720" lon="-0.7353460">
        <ele>205.8</ele>
        <time>2020-10-12T07:48:06Z</time>
      </trkpt>
      <trkpt lat="38.3715340" lon="-0.7352970">
        <ele>206.0</ele>
        <time>2020-10-12T07:48:07Z</time>
      </trkpt>
      <trkpt lat="38.3715980" lon="-0.7352510">
        <ele>205.8</ele>
        <time>2020-10-12T07:48:08Z</time>
      </trkpt>
      <trkpt lat="38.3716620" lon="-0.7352070">
        <ele>206.0</ele>
        <time>2020-10-12T07:48:09Z</time>
      </trkpt>
      <trkpt lat="38.3717270" lon="-0.7351670">
        <ele>205.8</ele>
        <time>2020-10-12T07:48:10Z</time>
      </trkpt>
      <trkpt lat="38.3717910" lon="-0.7351300">
        <ele>205.8</ele>
        <time>2020-10-12T07:48:11Z</time>
      </trkpt>
      <trkpt lat="38.3718570" lon="-0.7350940">
        <ele>205.8</ele>
        <time>2020-10-12T07:48:12Z</time>
      </trkpt>
      <trkpt lat="38.3719240" lon="-0.7350600">
        <ele>205.8</ele>
        <time>2020-10-12T07:48:13Z</time>
      </trkpt>
      <trkpt lat="38.3719900" lon="-0.7350280">
        <ele>205.8</ele>
        <time>2020-10-12T07:48:14Z</time>
      </trkpt>
      <trkpt lat="38.3720570" lon="-0.7349980">
        <ele>206.0</ele>
        <time>2020-10-12T07:48:15Z</time>
      </trkpt>
      <trkpt lat="38.3721240" lon="-0.7349670">
        <ele>206.0</ele>
        <time>2020-10-12T07:48:16Z</time>
      </trkpt>
      <trkpt lat="38.3721920" lon="-0.7349370">
        <ele>206.2</ele>
        <time>2020-10-12T07:48:17Z</time>
      </trkpt>
      <trkpt lat="38.3722610" lon="-0.7349080">
        <ele>206.2</ele>
        <time>2020-10-12T07:48:18Z</time>
      </trkpt>
      <trkpt lat="38.3723300" lon="-0.7348800">
        <ele>206.4</ele>
        <time>2020-10-12T07:48:19Z</time>
      </trkpt>
      <trkpt lat="38.3723990" lon="-0.7348530">
        <ele>206.2</ele>
        <time>2020-10-12T07:48:20Z</time>
      </trkpt>
      <trkpt lat="38.3724680" lon="-0.7348250">
        <ele>206.0</ele>
        <time>2020-10-12T07:48:21Z</time>
      </trkpt>
      <trkpt lat="38.3725370" lon="-0.7347970">
        <ele>206.0</ele>
        <time>2020-10-12T07:48:22Z</time>
      </trkpt>
      <trkpt lat="38.3726060" lon="-0.7347700">
        <ele>206.0</ele>
        <time>2020-10-12T07:48:23Z</time>
      </trkpt>
      <trkpt lat="38.3726750" lon="-0.7347440">
        <ele>206.0</ele>
        <time>2020-10-12T07:48:24Z</time>
      </trkpt>
      <trkpt lat="38.3727430" lon="-0.7347180">
        <ele>206.0</ele>
        <time>2020-10-12T07:48:25Z</time>
      </trkpt>
      <trkpt lat="38.3728100" lon="-0.7346920">
        <ele>206.0</ele>
        <time>2020-10-12T07:48:26Z</time>
      </trkpt>
      <trkpt lat="38.3728770" lon="-0.7346660">
        <ele>206.0</ele>
        <time>2020-10-12T07:48:27Z</time>
      </trkpt>
      <trkpt lat="38.3729430" lon="-0.7346410">
        <ele>206.0</ele>
        <time>2020-10-12T07:48:28Z</time>
      </trkpt>
      <trkpt lat="38.3730100" lon="-0.7346170">
        <ele>205.8</ele>
        <time>2020-10-12T07:48:29Z</time>
      </trkpt>
      <trkpt lat="38.3730760" lon="-0.7345910">
        <ele>205.6</ele>
        <time>2020-10-12T07:48:30Z</time>
      </trkpt>
      <trkpt lat="38.3731410" lon="-0.7345640">
        <ele>205.6</ele>
        <time>2020-10-12T07:48:31Z</time>
      </trkpt>
      <trkpt lat="38.3732070" lon="-0.7345380">
        <ele>205.4</ele>
        <time>2020-10-12T07:48:32Z</time>
      </trkpt>
      <trkpt lat="38.3732730" lon="-0.7345130">
        <ele>205.6</ele>
        <time>2020-10-12T07:48:33Z</time>
      </trkpt>
      <trkpt lat="38.3733380" lon="-0.7344870">
        <ele>205.6</ele>
        <time>2020-10-12T07:48:34Z</time>
      </trkpt>
      <trkpt lat="38.3734040" lon="-0.7344580">
        <ele>205.8</ele>
        <time>2020-10-12T07:48:35Z</time>
      </trkpt>
      <trkpt lat="38.3734690" lon="-0.7344300">
        <ele>205.8</ele>
        <time>2020-10-12T07:48:36Z</time>
      </trkpt>
      <trkpt lat="38.3735420" lon="-0.7344050">
        <ele>205.8</ele>
        <time>2020-10-12T07:48:37Z</time>
      </trkpt>
      <trkpt lat="38.3736150" lon="-0.7343790">
        <ele>205.8</ele>
        <time>2020-10-12T07:48:38Z</time>
      </trkpt>
      <trkpt lat="38.3736830" lon="-0.7343520">
        <ele>205.8</ele>
        <time>2020-10-12T07:48:39Z</time>
      </trkpt>
      <trkpt lat="38.3737520" lon="-0.7343260">
        <ele>205.6</ele>
        <time>2020-10-12T07:48:40Z</time>
      </trkpt>
      <trkpt lat="38.3738200" lon="-0.7342980">
        <ele>205.6</ele>
        <time>2020-10-12T07:48:41Z</time>
      </trkpt>
      <trkpt lat="38.3738840" lon="-0.7342710">
        <ele>205.4</ele>
        <time>2020-10-12T07:48:42Z</time>
      </trkpt>
      <trkpt lat="38.3739490" lon="-0.7342460">
        <ele>205.6</ele>
        <time>2020-10-12T07:48:43Z</time>
      </trkpt>
      <trkpt lat="38.3740130" lon="-0.7342220">
        <ele>205.4</ele>
        <time>2020-10-12T07:48:44Z</time>
      </trkpt>
      <trkpt lat="38.3740770" lon="-0.7341960">
        <ele>205.4</ele>
        <time>2020-10-12T07:48:45Z</time>
      </trkpt>
      <trkpt lat="38.3741410" lon="-0.7341680">
        <ele>205.2</ele>
        <time>2020-10-12T07:48:46Z</time>
      </trkpt>
      <trkpt lat="38.3742050" lon="-0.7341400">
        <ele>205.0</ele>
        <time>2020-10-12T07:48:47Z</time>
      </trkpt>
      <trkpt lat="38.3742700" lon="-0.7341130">
        <ele>205.2</ele>
        <time>2020-10-12T07:48:48Z</time>
      </trkpt>
      <trkpt lat="38.3743340" lon="-0.7340880">
        <ele>205.2</ele>
        <time>2020-10-12T07:48:49Z</time>
      </trkpt>
      <trkpt lat="38.3743990" lon="-0.7340620">
        <ele>205.0</ele>
        <time>2020-10-12T07:48:50Z</time>
      </trkpt>
      <trkpt lat="38.3744640" lon="-0.7340350">
        <ele>205.0</ele>
        <time>2020-10-12T07:48:51Z</time>
      </trkpt>
      <trkpt lat="38.3745280" lon="-0.7340080">
        <ele>205.0</ele>
        <time>2020-10-12T07:48:52Z</time>
      </trkpt>
      <trkpt lat="38.3745900" lon="-0.7339800">
        <ele>205.2</ele>
        <time>2020-10-12T07:48:53Z</time>
      </trkpt>
      <trkpt lat="38.3746520" lon="-0.7339510">
        <ele>205.2</ele>
        <time>2020-10-12T07:48:54Z</time>
      </trkpt>
      <trkpt lat="38.3747140" lon="-0.7339220">
        <ele>205.2</ele>
        <time>2020-10-12T07:48:55Z</time>
      </trkpt>
      <trkpt lat="38.3747760" lon="-0.7338910">
        <ele>205.2</ele>
        <time>2020-10-12T07:48:56Z</time>
      </trkpt>
      <trkpt lat="38.3748380" lon="-0.7338590">
        <ele>205.4</ele>
        <time>2020-10-12T07:48:57Z</time>
      </trkpt>
      <trkpt lat="38.3749040" lon="-0.7338240">
        <ele>205.4</ele>
        <time>2020-10-12T07:48:58Z</time>
      </trkpt>
      <trkpt lat="38.3749670" lon="-0.7337930">
        <ele>205.4</ele>
        <time>2020-10-12T07:48:59Z</time>
      </trkpt>
      <trkpt lat="38.3750320" lon="-0.7337600">
        <ele>205.4</ele>
        <time>2020-10-12T07:49:00Z</time>
      </trkpt>
      <trkpt lat="38.3750960" lon="-0.7337230">
        <ele>205.4</ele>
        <time>2020-10-12T07:49:01Z</time>
      </trkpt>
      <trkpt lat="38.3751560" lon="-0.7336850">
        <ele>205.4</ele>
        <time>2020-10-12T07:49:02Z</time>
      </trkpt>
      <trkpt lat="38.3752160" lon="-0.7336450">
        <ele>205.0</ele>
        <time>2020-10-12T07:49:03Z</time>
      </trkpt>
      <trkpt lat="38.3752760" lon="-0.7336050">
        <ele>205.0</ele>
        <time>2020-10-12T07:49:04Z</time>
      </trkpt>
      <trkpt lat="38.3753350" lon="-0.7335650">
        <ele>204.8</ele>
        <time>2020-10-12T07:49:05Z</time>
      </trkpt>
      <trkpt lat="38.3753950" lon="-0.7335230">
        <ele>204.6</ele>
        <time>2020-10-12T07:49:06Z</time>
      </trkpt>
      <trkpt lat="38.3754540" lon="-0.7334820">
        <ele>204.4</ele>
        <time>2020-10-12T07:49:07Z</time>
      </trkpt>
      <trkpt lat="38.3755140" lon="-0.7334420">
        <ele>204.2</ele>
        <time>2020-10-12T07:49:08Z</time>
      </trkpt>
      <trkpt lat="38.3755730" lon="-0.7334010">
        <ele>204.4</ele>
        <time>2020-10-12T07:49:09Z</time>
      </trkpt>
      <trkpt lat="38.3756300" lon="-0.7333610">
        <ele>204.8</ele>
        <time>2020-10-12T07:49:10Z</time>
      </trkpt>
      <trkpt lat="38.3756890" lon="-0.7333230">
        <ele>204.8</ele>
        <time>2020-10-12T07:49:11Z</time>
      </trkpt>
      <trkpt lat="38.3757490" lon="-0.7332870">
        <ele>205.0</ele>
        <time>2020-10-12T07:49:12Z</time>
      </trkpt>
      <trkpt lat="38.3758080" lon="-0.7332520">
        <ele>205.4</ele>
        <time>2020-10-12T07:49:13Z</time>
      </trkpt>
      <trkpt lat="38.3758680" lon="-0.7332190">
        <ele>205.6</ele>
        <time>2020-10-12T07:49:14Z</time>
      </trkpt>
      <trkpt lat="38.3759250" lon="-0.7331880">
        <ele>205.4</ele>
        <time>2020-10-12T07:49:15Z</time>
      </trkpt>
      <trkpt lat="38.3759840" lon="-0.7331580">
        <ele>205.4</ele>
        <time>2020-10-12T07:49:16Z</time>
      </trkpt>
      <trkpt lat="38.3760440" lon="-0.7331290">
        <ele>205.4</ele>
        <time>2020-10-12T07:49:17Z</time>
      </trkpt>
      <trkpt lat="38.3761050" lon="-0.7330980">
        <ele>205.4</ele>
        <time>2020-10-12T07:49:18Z</time>
      </trkpt>
      <trkpt lat="38.3761670" lon="-0.7330700">
        <ele>205.6</ele>
        <time>2020-10-12T07:49:19Z</time>
      </trkpt>
      <trkpt lat="38.3762300" lon="-0.7330410">
        <ele>205.8</ele>
        <time>2020-10-12T07:49:20Z</time>
      </trkpt>
      <trkpt lat="38.3762950" lon="-0.7330150">
        <ele>205.6</ele>
        <time>2020-10-12T07:49:21Z</time>
      </trkpt>
      <trkpt lat="38.3763610" lon="-0.7329890">
        <ele>205.8</ele>
        <time>2020-10-12T07:49:22Z</time>
      </trkpt>
      <trkpt lat="38.3764260" lon="-0.7329620">
        <ele>206.0</ele>
        <time>2020-10-12T07:49:23Z</time>
      </trkpt>
      <trkpt lat="38.3764890" lon="-0.7329340">
        <ele>206.2</ele>
        <time>2020-10-12T07:49:24Z</time>
      </trkpt>
      <trkpt lat="38.3765520" lon="-0.7329060">
        <ele>206.2</ele>
        <time>2020-10-12T07:49:25Z</time>
      </trkpt>
      <trkpt lat="38.3766160" lon="-0.7328790">
        <ele>206.4</ele>
        <time>2020-10-12T07:49:26Z</time>
      </trkpt>
      <trkpt lat="38.3766800" lon="-0.7328510">
        <ele>206.8</ele>
        <time>2020-10-12T07:49:27Z</time>
      </trkpt>
      <trkpt lat="38.3767440" lon="-0.7328230">
        <ele>207.2</ele>
        <time>2020-10-12T07:49:28Z</time>
      </trkpt>
      <trkpt lat="38.3768090" lon="-0.7327950">
        <ele>207.6</ele>
        <time>2020-10-12T07:49:29Z</time>
      </trkpt>
      <trkpt lat="38.3768730" lon="-0.7327680">
        <ele>207.6</ele>
        <time>2020-10-12T07:49:30Z</time>
      </trkpt>
      <trkpt lat="38.3769380" lon="-0.7327420">
        <ele>207.8</ele>
        <time>2020-10-12T07:49:31Z</time>
      </trkpt>
      <trkpt lat="38.3770030" lon="-0.7327170">
        <ele>207.8</ele>
        <time>2020-10-12T07:49:32Z</time>
      </trkpt>
      <trkpt lat="38.3770670" lon="-0.7326900">
        <ele>207.6</ele>
        <time>2020-10-12T07:49:33Z</time>
      </trkpt>
      <trkpt lat="38.3771320" lon="-0.7326640">
        <ele>207.2</ele>
        <time>2020-10-12T07:49:34Z</time>
      </trkpt>
      <trkpt lat="38.3771970" lon="-0.7326390">
        <ele>207.0</ele>
        <time>2020-10-12T07:49:35Z</time>
      </trkpt>
      <trkpt lat="38.3772650" lon="-0.7326130">
        <ele>206.8</ele>
        <time>2020-10-12T07:49:36Z</time>
      </trkpt>
      <trkpt lat="38.3773320" lon="-0.7325870">
        <ele>206.8</ele>
        <time>2020-10-12T07:49:37Z</time>
      </trkpt>
      <trkpt lat="38.3773990" lon="-0.7325610">
        <ele>207.0</ele>
        <time>2020-10-12T07:49:38Z</time>
      </trkpt>
      <trkpt lat="38.3774640" lon="-0.7325310">
        <ele>207.4</ele>
        <time>2020-10-12T07:49:39Z</time>
      </trkpt>
      <trkpt lat="38.3775280" lon="-0.7324990">
        <ele>208.0</ele>
        <time>2020-10-12T07:49:40Z</time>
      </trkpt>
      <trkpt lat="38.3775910" lon="-0.7324640">
        <ele>208.2</ele>
        <time>2020-10-12T07:49:41Z</time>
      </trkpt>
      <trkpt lat="38.3776510" lon="-0.7324250">
        <ele>208.4</ele>
        <time>2020-10-12T07:49:42Z</time>
      </trkpt>
      <trkpt lat="38.3777070" lon="-0.7323840">
        <ele>208.4</ele>
        <time>2020-10-12T07:49:43Z</time>
      </trkpt>
      <trkpt lat="38.3777600" lon="-0.7323350">
        <ele>208.4</ele>
        <time>2020-10-12T07:49:44Z</time>
      </trkpt>
      <trkpt lat="38.3778150" lon="-0.7322760">
        <ele>208.2</ele>
        <time>2020-10-12T07:49:45Z</time>
      </trkpt>
      <trkpt lat="38.3778690" lon="-0.7322220">
        <ele>208.2</ele>
        <time>2020-10-12T07:49:46Z</time>
      </trkpt>
      <trkpt lat="38.3779250" lon="-0.7321850">
        <ele>208.0</ele>
        <time>2020-10-12T07:49:47Z</time>
      </trkpt>
      <trkpt lat="38.3779830" lon="-0.7321690">
        <ele>208.0</ele>
        <time>2020-10-12T07:49:48Z</time>
      </trkpt>
      <trkpt lat="38.3780380" lon="-0.7321710">
        <ele>208.2</ele>
        <time>2020-10-12T07:49:49Z</time>
      </trkpt>
      <trkpt lat="38.3780960" lon="-0.7321790">
        <ele>208.6</ele>
        <time>2020-10-12T07:49:50Z</time>
      </trkpt>
      <trkpt lat="38.3781590" lon="-0.7321840">
        <ele>209.4</ele>
        <time>2020-10-12T07:49:51Z</time>
      </trkpt>
      <trkpt lat="38.3782200" lon="-0.7321730">
        <ele>210.0</ele>
        <time>2020-10-12T07:49:52Z</time>
      </trkpt>
      <trkpt lat="38.3782790" lon="-0.7321550">
        <ele>210.6</ele>
        <time>2020-10-12T07:49:53Z</time>
      </trkpt>
      <trkpt lat="38.3783370" lon="-0.7321330">
        <ele>211.0</ele>
        <time>2020-10-12T07:49:54Z</time>
      </trkpt>
      <trkpt lat="38.3783980" lon="-0.7321110">
        <ele>211.0</ele>
        <time>2020-10-12T07:49:55Z</time>
      </trkpt>
      <trkpt lat="38.3784550" lon="-0.7320870">
        <ele>211.0</ele>
        <time>2020-10-12T07:49:56Z</time>
      </trkpt>
      <trkpt lat="38.3785100" lon="-0.7320620">
        <ele>211.0</ele>
        <time>2020-10-12T07:49:57Z</time>
      </trkpt>
      <trkpt lat="38.3785630" lon="-0.7320360">
        <ele>210.8</ele>
        <time>2020-10-12T07:49:58Z</time>
      </trkpt>
      <trkpt lat="38.3786100" lon="-0.7320010">
        <ele>210.4</ele>
        <time>2020-10-12T07:49:59Z</time>
      </trkpt>
      <trkpt lat="38.3786660" lon="-0.7319790">
        <ele>209.8</ele>
        <time>2020-10-12T07:50:00Z</time>
      </trkpt>
      <trkpt lat="38.3787210" lon="-0.7319570">
        <ele>209.0</ele>
        <time>2020-10-12T07:50:01Z</time>
      </trkpt>
      <trkpt lat="38.3787780" lon="-0.7319360">
        <ele>209.0</ele>
        <time>2020-10-12T07:50:02Z</time>
      </trkpt>
      <trkpt lat="38.3788360" lon="-0.7319180">
        <ele>209.0</ele>
        <time>2020-10-12T07:50:03Z</time>
      </trkpt>
      <trkpt lat="38.3788900" lon="-0.7319020">
        <ele>208.8</ele>
        <time>2020-10-12T07:50:04Z</time>
      </trkpt>
      <trkpt lat="38.3789390" lon="-0.7318790">
        <ele>208.4</ele>
        <time>2020-10-12T07:50:05Z</time>
      </trkpt>
      <trkpt lat="38.3789850" lon="-0.7318510">
        <ele>208.2</ele>
        <time>2020-10-12T07:50:06Z</time>
      </trkpt>
      <trkpt lat="38.3790300" lon="-0.7318250">
        <ele>209.0</ele>
        <time>2020-10-12T07:50:07Z</time>
      </trkpt>
      <trkpt lat="38.3790730" lon="-0.7318170">
        <ele>210.0</ele>
        <time>2020-10-12T07:50:08Z</time>
      </trkpt>
      <trkpt lat="38.3791150" lon="-0.7318090">
        <ele>210.6</ele>
        <time>2020-10-12T07:50:09Z</time>
      </trkpt>
      <trkpt lat="38.3791560" lon="-0.7317940">
        <ele>210.8</ele>
        <time>2020-10-12T07:50:10Z</time>
      </trkpt>
      <trkpt lat="38.3791910" lon="-0.7317770">
        <ele>211.8</ele>
        <time>2020-10-12T07:50:11Z</time>
      </trkpt>
      <trkpt lat="38.3792230" lon="-0.7317660">
        <ele>212.2</ele>
        <time>2020-10-12T07:50:12Z</time>
      </trkpt>
      <trkpt lat="38.3792540" lon="-0.7317520">
        <ele>212.4</ele>
        <time>2020-10-12T07:50:13Z</time>
      </trkpt>
      <trkpt lat="38.3792880" lon="-0.7317440">
        <ele>212.4</ele>
        <time>2020-10-12T07:50:14Z</time>
      </trkpt>
      <trkpt lat="38.3793180" lon="-0.7317460">
        <ele>212.4</ele>
        <time>2020-10-12T07:50:15Z</time>
      </trkpt>
      <trkpt lat="38.3793570" lon="-0.7317380">
        <ele>212.0</ele>
        <time>2020-10-12T07:50:16Z</time>
      </trkpt>
      <trkpt lat="38.3793970" lon="-0.7317180">
        <ele>211.4</ele>
        <time>2020-10-12T07:50:17Z</time>
      </trkpt>
      <trkpt lat="38.3794410" lon="-0.7317050">
        <ele>211.2</ele>
        <time>2020-10-12T07:50:18Z</time>
      </trkpt>
      <trkpt lat="38.3794900" lon="-0.7316850">
        <ele>211.0</ele>
        <time>2020-10-12T07:50:19Z</time>
      </trkpt>
      <trkpt lat="38.3795330" lon="-0.7316550">
        <ele>210.8</ele>
        <time>2020-10-12T07:50:20Z</time>
      </trkpt>
      <trkpt lat="38.3795660" lon="-0.7316290">
        <ele>210.8</ele>
        <time>2020-10-12T07:50:21Z</time>
      </trkpt>
      <trkpt lat="38.3796140" lon="-0.7316100">
        <ele>210.8</ele>
        <time>2020-10-12T07:50:22Z</time>
      </trkpt>
      <trkpt lat="38.3796700" lon="-0.7315800">
        <ele>211.2</ele>
        <time>2020-10-12T07:50:23Z</time>
      </trkpt>
      <trkpt lat="38.3797200" lon="-0.7315340">
        <ele>211.4</ele>
        <time>2020-10-12T07:50:24Z</time>
      </trkpt>
      <trkpt lat="38.3797680" lon="-0.7314820">
        <ele>211.8</ele>
        <time>2020-10-12T07:50:25Z</time>
      </trkpt>
      <trkpt lat="38.3798140" lon="-0.7314350">
        <ele>212.2</ele>
        <time>2020-10-12T07:50:26Z</time>
      </trkpt>
      <trkpt lat="38.3798590" lon="-0.7313760">
        <ele>212.4</ele>
        <time>2020-10-12T07:50:27Z</time>
      </trkpt>
      <trkpt lat="38.3799050" lon="-0.7313190">
        <ele>212.6</ele>
        <time>2020-10-12T07:50:28Z</time>
      </trkpt>
      <trkpt lat="38.3799610" lon="-0.7312650">
        <ele>212.8</ele>
        <time>2020-10-12T07:50:29Z</time>
      </trkpt>
      <trkpt lat="38.3800170" lon="-0.7312080">
        <ele>212.6</ele>
        <time>2020-10-12T07:50:30Z</time>
      </trkpt>
      <trkpt lat="38.3800680" lon="-0.7311490">
        <ele>212.4</ele>
        <time>2020-10-12T07:50:31Z</time>
      </trkpt>
      <trkpt lat="38.3801200" lon="-0.7310930">
        <ele>212.0</ele>
        <time>2020-10-12T07:50:32Z</time>
      </trkpt>
      <trkpt lat="38.3801680" lon="-0.7310420">
        <ele>211.6</ele>
        <time>2020-10-12T07:50:33Z</time>
      </trkpt>
      <trkpt lat="38.3802180" lon="-0.7309920">
        <ele>211.4</ele>
        <time>2020-10-12T07:50:34Z</time>
      </trkpt>
      <trkpt lat="38.3802680" lon="-0.7309400">
        <ele>211.2</ele>
        <time>2020-10-12T07:50:35Z</time>
      </trkpt>
      <trkpt lat="38.3803160" lon="-0.7308920">
        <ele>211.2</ele>
        <time>2020-10-12T07:50:36Z</time>
      </trkpt>
      <trkpt lat="38.3803650" lon="-0.7308440">
        <ele>211.2</ele>
        <time>2020-10-12T07:50:37Z</time>
      </trkpt>
      <trkpt lat="38.3804110" lon="-0.7307990">
        <ele>211.2</ele>
        <time>2020-10-12T07:50:38Z</time>
      </trkpt>
      <trkpt lat="38.3804570" lon="-0.7307540">
        <ele>211.4</ele>
        <time>2020-10-12T07:50:39Z</time>
      </trkpt>
      <trkpt lat="38.3805020" lon="-0.7307010">
        <ele>211.4</ele>
        <time>2020-10-12T07:50:40Z</time>
      </trkpt>
      <trkpt lat="38.3805350" lon="-0.7306220">
        <ele>211.6</ele>
        <time>2020-10-12T07:50:41Z</time>
      </trkpt>
      <trkpt lat="38.3805670" lon="-0.7305690">
        <ele>211.6</ele>
        <time>2020-10-12T07:50:42Z</time>
      </trkpt>
      <trkpt lat="38.3805990" lon="-0.7305090">
        <ele>211.8</ele>
        <time>2020-10-12T07:50:43Z</time>
      </trkpt>
      <trkpt lat="38.3806330" lon="-0.7304690">
        <ele>212.0</ele>
        <time>2020-10-12T07:50:44Z</time>
      </trkpt>
      <trkpt lat="38.3806620" lon="-0.7304180">
        <ele>212.2</ele>
        <time>2020-10-12T07:50:45Z</time>
      </trkpt>
      <trkpt lat="38.3806890" lon="-0.7303630">
        <ele>212.4</ele>
        <time>2020-10-12T07:50:46Z</time>
      </trkpt>
      <trkpt lat="38.3807170" lon="-0.7303020">
        <ele>212.6</ele>
        <time>2020-10-12T07:50:47Z</time>
      </trkpt>
      <trkpt lat="38.3807430" lon="-0.7302410">
        <ele>212.8</ele>
        <time>2020-10-12T07:50:48Z</time>
      </trkpt>
      <trkpt lat="38.3807640" lon="-0.7301810">
        <ele>212.8</ele>
        <time>2020-10-12T07:50:49Z</time>
      </trkpt>
      <trkpt lat="38.3807780" lon="-0.7301250">
        <ele>213.0</ele>
        <time>2020-10-12T07:50:50Z</time>
      </trkpt>
      <trkpt lat="38.3807850" lon="-0.7300770">
        <ele>212.8</ele>
        <time>2020-10-12T07:50:51Z</time>
      </trkpt>
      <trkpt lat="38.3807830" lon="-0.7300410">
        <ele>212.8</ele>
        <time>2020-10-12T07:50:52Z</time>
      </trkpt>
      <trkpt lat="38.3807800" lon="-0.7300140">
        <ele>212.8</ele>
        <time>2020-10-12T07:50:53Z</time>
      </trkpt>
      <trkpt lat="38.3807750" lon="-0.7299900">
        <ele>212.8</ele>
        <time>2020-10-12T07:50:54Z</time>
      </trkpt>
      <trkpt lat="38.3807720" lon="-0.7299610">
        <ele>212.8</ele>
        <time>2020-10-12T07:50:55Z</time>
      </trkpt>
      <trkpt lat="38.3807680" lon="-0.7299330">
        <ele>212.8</ele>
        <time>2020-10-12T07:50:56Z</time>
      </trkpt>
      <trkpt lat="38.3807630" lon="-0.7299060">
        <ele>212.8</ele>
        <time>2020-10-12T07:50:57Z</time>
      </trkpt>
      <trkpt lat="38.3807590" lon="-0.7298870">
        <ele>212.6</ele>
        <time>2020-10-12T07:50:58Z</time>
      </trkpt>
      <trkpt lat="38.3807530" lon="-0.7298760">
        <ele>212.6</ele>
        <time>2020-10-12T07:50:59Z</time>
      </trkpt>
      <trkpt lat="38.3807510" lon="-0.7298710">
        <ele>212.4</ele>
        <time>2020-10-12T07:51:00Z</time>
      </trkpt>
      <trkpt lat="38.3807530" lon="-0.7298640">
        <ele>212.4</ele>
        <time>2020-10-12T07:51:01Z</time>
      </trkpt>
      <trkpt lat="38.3807500" lon="-0.7298580">
        <ele>212.4</ele>
        <time>2020-10-12T07:51:02Z</time>
      </trkpt>
      <trkpt lat="38.3807480" lon="-0.7298560">
        <ele>212.2</ele>
        <time>2020-10-12T07:51:03Z</time>
      </trkpt>
      <trkpt lat="38.3807490" lon="-0.7298580">
        <ele>212.2</ele>
        <time>2020-10-12T07:51:04Z</time>
      </trkpt>
      <trkpt lat="38.3807490" lon="-0.7298580">
        <ele>212.2</ele>
        <time>2020-10-12T07:51:05Z</time>
      </trkpt>
      <trkpt lat="38.3807490" lon="-0.7298580">
        <ele>212.2</ele>
        <time>2020-10-12T07:51:06Z</time>
      </trkpt>
      <trkpt lat="38.3807490" lon="-0.7298580">
        <ele>212.4</ele>
        <time>2020-10-12T07:51:07Z</time>
      </trkpt>
      <trkpt lat="38.3807490" lon="-0.7298580">
        <ele>212.4</ele>
        <time>2020-10-12T07:51:08Z</time>
      </trkpt>
      <trkpt lat="38.3807490" lon="-0.7298580">
        <ele>212.6</ele>
        <time>2020-10-12T07:51:09Z</time>
      </trkpt>
      <trkpt lat="38.3807490" lon="-0.7298580">
        <ele>212.6</ele>
        <time>2020-10-12T07:51:10Z</time>
      </trkpt>
      <trkpt lat="38.3807490" lon="-0.7298580">
        <ele>212.8</ele>
        <time>2020-10-12T07:51:11Z</time>
      </trkpt>
      <trkpt lat="38.3807490" lon="-0.7298580">
        <ele>212.8</ele>
        <time>2020-10-12T07:51:12Z</time>
      </trkpt>
      <trkpt lat="38.3807490" lon="-0.7298580">
        <ele>212.8</ele>
        <time>2020-10-12T07:51:13Z</time>
      </trkpt>
      <trkpt lat="38.3807490" lon="-0.7298580">
        <ele>212.6</ele>
        <time>2020-10-12T07:51:14Z</time>
      </trkpt>
      <trkpt lat="38.3807490" lon="-0.7298580">
        <ele>212.6</ele>
        <time>2020-10-12T07:51:15Z</time>
      </trkpt>
      <trkpt lat="38.3807490" lon="-0.7298580">
        <ele>212.6</ele>
        <time>2020-10-12T07:51:16Z</time>
      </trkpt>
      <trkpt lat="38.3807490" lon="-0.7298580">
        <ele>212.4</ele>
        <time>2020-10-12T07:51:17Z</time>
      </trkpt>
      <trkpt lat="38.3807490" lon="-0.7298580">
        <ele>212.4</ele>
        <time>2020-10-12T07:51:18Z</time>
      </trkpt>
      <trkpt lat="38.3807490" lon="-0.7298580">
        <ele>212.4</ele>
        <time>2020-10-12T07:51:19Z</time>
      </trkpt>
      <trkpt lat="38.3807490" lon="-0.7298580">
        <ele>212.4</ele>
        <time>2020-10-12T07:51:20Z</time>
      </trkpt>
      <trkpt lat="38.3807490" lon="-0.7298580">
        <ele>212.4</ele>
        <time>2020-10-12T07:51:21Z</time>
      </trkpt>
      <trkpt lat="38.3807490" lon="-0.7298580">
        <ele>212.4</ele>
        <time>2020-10-12T07:51:22Z</time>
      </trkpt>
      <trkpt lat="38.3807460" lon="-0.7298420">
        <ele>212.4</ele>
        <time>2020-10-12T07:51:23Z</time>
      </trkpt>
      <trkpt lat="38.3807470" lon="-0.7298160">
        <ele>212.4</ele>
        <time>2020-10-12T07:51:24Z</time>
      </trkpt>
      <trkpt lat="38.3807470" lon="-0.7297810">
        <ele>212.6</ele>
        <time>2020-10-12T07:51:25Z</time>
      </trkpt>
      <trkpt lat="38.3807430" lon="-0.7297450">
        <ele>212.6</ele>
        <time>2020-10-12T07:51:26Z</time>
      </trkpt>
      <trkpt lat="38.3807390" lon="-0.7297040">
        <ele>212.6</ele>
        <time>2020-10-12T07:51:27Z</time>
      </trkpt>
      <trkpt lat="38.3807380" lon="-0.7296610">
        <ele>212.6</ele>
        <time>2020-10-12T07:51:28Z</time>
      </trkpt>
      <trkpt lat="38.3807390" lon="-0.7296160">
        <ele>212.6</ele>
        <time>2020-10-12T07:51:29Z</time>
      </trkpt>
      <trkpt lat="38.3807400" lon="-0.7295680">
        <ele>212.6</ele>
        <time>2020-10-12T07:51:30Z</time>
      </trkpt>
      <trkpt lat="38.3807410" lon="-0.7295190">
        <ele>212.6</ele>
        <time>2020-10-12T07:51:31Z</time>
      </trkpt>
      <trkpt lat="38.3807430" lon="-0.7294720">
        <ele>212.6</ele>
        <time>2020-10-12T07:51:32Z</time>
      </trkpt>
      <trkpt lat="38.3807510" lon="-0.7294200">
        <ele>212.6</ele>
        <time>2020-10-12T07:51:33Z</time>
      </trkpt>
      <trkpt lat="38.3807660" lon="-0.7293670">
        <ele>212.8</ele>
        <time>2020-10-12T07:51:34Z</time>
      </trkpt>
      <trkpt lat="38.3807890" lon="-0.7293120">
        <ele>212.8</ele>
        <time>2020-10-12T07:51:35Z</time>
      </trkpt>
      <trkpt lat="38.3808150" lon="-0.7292570">
        <ele>213.0</ele>
        <time>2020-10-12T07:51:36Z</time>
      </trkpt>
      <trkpt lat="38.3808490" lon="-0.7291960">
        <ele>213.2</ele>
        <time>2020-10-12T07:51:37Z</time>
      </trkpt>
      <trkpt lat="38.3808800" lon="-0.7291330">
        <ele>213.4</ele>
        <time>2020-10-12T07:51:38Z</time>
      </trkpt>
      <trkpt lat="38.3809150" lon="-0.7290750">
        <ele>213.8</ele>
        <time>2020-10-12T07:51:39Z</time>
      </trkpt>
      <trkpt lat="38.3809480" lon="-0.7290180">
        <ele>214.2</ele>
        <time>2020-10-12T07:51:40Z</time>
      </trkpt>
      <trkpt lat="38.3809840" lon="-0.7289520">
        <ele>214.4</ele>
        <time>2020-10-12T07:51:41Z</time>
      </trkpt>
      <trkpt lat="38.3810150" lon="-0.7288800">
        <ele>214.4</ele>
        <time>2020-10-12T07:51:42Z</time>
      </trkpt>
      <trkpt lat="38.3810510" lon="-0.7288150">
        <ele>214.6</ele>
        <time>2020-10-12T07:51:43Z</time>
      </trkpt>
      <trkpt lat="38.3810890" lon="-0.7287570">
        <ele>214.4</ele>
        <time>2020-10-12T07:51:44Z</time>
      </trkpt>
      <trkpt lat="38.3811290" lon="-0.7286990">
        <ele>214.4</ele>
        <time>2020-10-12T07:51:45Z</time>
      </trkpt>
      <trkpt lat="38.3811630" lon="-0.7286400">
        <ele>214.0</ele>
        <time>2020-10-12T07:51:46Z</time>
      </trkpt>
      <trkpt lat="38.3811890" lon="-0.7285780">
        <ele>213.8</ele>
        <time>2020-10-12T07:51:47Z</time>
      </trkpt>
      <trkpt lat="38.3812120" lon="-0.7285240">
        <ele>213.6</ele>
        <time>2020-10-12T07:51:48Z</time>
      </trkpt>
      <trkpt lat="38.3812370" lon="-0.7284600">
        <ele>213.6</ele>
        <time>2020-10-12T07:51:49Z</time>
      </trkpt>
      <trkpt lat="38.3812580" lon="-0.7283940">
        <ele>213.6</ele>
        <time>2020-10-12T07:51:50Z</time>
      </trkpt>
      <trkpt lat="38.3812800" lon="-0.7283250">
        <ele>214.0</ele>
        <time>2020-10-12T07:51:51Z</time>
      </trkpt>
      <trkpt lat="38.3813000" lon="-0.7282590">
        <ele>214.2</ele>
        <time>2020-10-12T07:51:52Z</time>
      </trkpt>
      <trkpt lat="38.3813170" lon="-0.7281910">
        <ele>214.4</ele>
        <time>2020-10-12T07:51:53Z</time>
      </trkpt>
      <trkpt lat="38.3813310" lon="-0.7281230">
        <ele>214.6</ele>
        <time>2020-10-12T07:51:54Z</time>
      </trkpt>
      <trkpt lat="38.3813530" lon="-0.7280560">
        <ele>214.8</ele>
        <time>2020-10-12T07:51:55Z</time>
      </trkpt>
      <trkpt lat="38.3813690" lon="-0.7279900">
        <ele>214.8</ele>
        <time>2020-10-12T07:51:56Z</time>
      </trkpt>
      <trkpt lat="38.3813950" lon="-0.7279230">
        <ele>215.0</ele>
        <time>2020-10-12T07:51:57Z</time>
      </trkpt>
      <trkpt lat="38.3814200" lon="-0.7278550">
        <ele>215.6</ele>
        <time>2020-10-12T07:51:58Z</time>
      </trkpt>
      <trkpt lat="38.3814370" lon="-0.7277840">
        <ele>216.0</ele>
        <time>2020-10-12T07:51:59Z</time>
      </trkpt>
      <trkpt lat="38.3814570" lon="-0.7277110">
        <ele>216.2</ele>
        <time>2020-10-12T07:52:00Z</time>
      </trkpt>
      <trkpt lat="38.3814760" lon="-0.7276420">
        <ele>216.4</ele>
        <time>2020-10-12T07:52:01Z</time>
      </trkpt>
      <trkpt lat="38.3814950" lon="-0.7275740">
        <ele>216.6</ele>
        <time>2020-10-12T07:52:02Z</time>
      </trkpt>
      <trkpt lat="38.3815170" lon="-0.7275090">
        <ele>217.0</ele>
        <time>2020-10-12T07:52:03Z</time>
      </trkpt>
      <trkpt lat="38.3815280" lon="-0.7274490">
        <ele>217.0</ele>
        <time>2020-10-12T07:52:04Z</time>
      </trkpt>
      <trkpt lat="38.3815350" lon="-0.7273920">
        <ele>217.0</ele>
        <time>2020-10-12T07:52:05Z</time>
      </trkpt>
      <trkpt lat="38.3815420" lon="-0.7273350">
        <ele>217.2</ele>
        <time>2020-10-12T07:52:06Z</time>
      </trkpt>
      <trkpt lat="38.3815470" lon="-0.7272750">
        <ele>217.4</ele>
        <time>2020-10-12T07:52:07Z</time>
      </trkpt>
      <trkpt lat="38.3815530" lon="-0.7272240">
        <ele>217.4</ele>
        <time>2020-10-12T07:52:08Z</time>
      </trkpt>
      <trkpt lat="38.3815580" lon="-0.7271660">
        <ele>217.6</ele>
        <time>2020-10-12T07:52:09Z</time>
      </trkpt>
      <trkpt lat="38.3815630" lon="-0.7271130">
        <ele>217.8</ele>
        <time>2020-10-12T07:52:10Z</time>
      </trkpt>
      <trkpt lat="38.3815670" lon="-0.7270630">
        <ele>218.4</ele>
        <time>2020-10-12T07:52:11Z</time>
      </trkpt>
      <trkpt lat="38.3815710" lon="-0.7270150">
        <ele>218.8</ele>
        <time>2020-10-12T07:52:12Z</time>
      </trkpt>
      <trkpt lat="38.3815760" lon="-0.7269670">
        <ele>219.2</ele>
        <time>2020-10-12T07:52:13Z</time>
      </trkpt>
      <trkpt lat="38.3815780" lon="-0.7269160">
        <ele>219.4</ele>
        <time>2020-10-12T07:52:14Z</time>
      </trkpt>
      <trkpt lat="38.3815790" lon="-0.7268650">
        <ele>219.4</ele>
        <time>2020-10-12T07:52:15Z</time>
      </trkpt>
      <trkpt lat="38.3815960" lon="-0.7268100">
        <ele>219.4</ele>
        <time>2020-10-12T07:52:16Z</time>
      </trkpt>
      <trkpt lat="38.3816060" lon="-0.7267600">
        <ele>219.4</ele>
        <time>2020-10-12T07:52:17Z</time>
      </trkpt>
      <trkpt lat="38.3816150" lon="-0.7267050">
        <ele>219.4</ele>
        <time>2020-10-12T07:52:18Z</time>
      </trkpt>
      <trkpt lat="38.3816260" lon="-0.7266470">
        <ele>219.2</ele>
        <time>2020-10-12T07:52:19Z</time>
      </trkpt>
      <trkpt lat="38.3816370" lon="-0.7265770">
        <ele>219.2</ele>
        <time>2020-10-12T07:52:20Z</time>
      </trkpt>
      <trkpt lat="38.3816540" lon="-0.7265020">
        <ele>219.4</ele>
        <time>2020-10-12T07:52:21Z</time>
      </trkpt>
      <trkpt lat="38.3816750" lon="-0.7264320">
        <ele>219.6</ele>
        <time>2020-10-12T07:52:22Z</time>
      </trkpt>
      <trkpt lat="38.3816970" lon="-0.7263630">
        <ele>220.0</ele>
        <time>2020-10-12T07:52:23Z</time>
      </trkpt>
      <trkpt lat="38.3817170" lon="-0.7262960">
        <ele>220.0</ele>
        <time>2020-10-12T07:52:24Z</time>
      </trkpt>
      <trkpt lat="38.3817380" lon="-0.7262290">
        <ele>220.0</ele>
        <time>2020-10-12T07:52:25Z</time>
      </trkpt>
      <trkpt lat="38.3817620" lon="-0.7261610">
        <ele>220.2</ele>
        <time>2020-10-12T07:52:26Z</time>
      </trkpt>
      <trkpt lat="38.3817840" lon="-0.7260940">
        <ele>220.2</ele>
        <time>2020-10-12T07:52:27Z</time>
      </trkpt>
      <trkpt lat="38.3818080" lon="-0.7260270">
        <ele>220.2</ele>
        <time>2020-10-12T07:52:28Z</time>
      </trkpt>
      <trkpt lat="38.3818350" lon="-0.7259610">
        <ele>220.2</ele>
        <time>2020-10-12T07:52:29Z</time>
      </trkpt>
      <trkpt lat="38.3818620" lon="-0.7258930">
        <ele>220.0</ele>
        <time>2020-10-12T07:52:30Z</time>
      </trkpt>
      <trkpt lat="38.3818880" lon="-0.7258320">
        <ele>220.4</ele>
        <time>2020-10-12T07:52:31Z</time>
      </trkpt>
      <trkpt lat="38.3819080" lon="-0.7257730">
        <ele>220.6</ele>
        <time>2020-10-12T07:52:32Z</time>
      </trkpt>
      <trkpt lat="38.3819230" lon="-0.7257150">
        <ele>221.0</ele>
        <time>2020-10-12T07:52:33Z</time>
      </trkpt>
      <trkpt lat="38.3819280" lon="-0.7256570">
        <ele>221.0</ele>
        <time>2020-10-12T07:52:34Z</time>
      </trkpt>
      <trkpt lat="38.3819230" lon="-0.7255980">
        <ele>221.2</ele>
        <time>2020-10-12T07:52:35Z</time>
      </trkpt>
      <trkpt lat="38.3819120" lon="-0.7255370">
        <ele>221.4</ele>
        <time>2020-10-12T07:52:36Z</time>
      </trkpt>
      <trkpt lat="38.3818990" lon="-0.7254730">
        <ele>221.4</ele>
        <time>2020-10-12T07:52:37Z</time>
      </trkpt>
      <trkpt lat="38.3818950" lon="-0.7254080">
        <ele>221.4</ele>
        <time>2020-10-12T07:52:38Z</time>
      </trkpt>
      <trkpt lat="38.3819040" lon="-0.7253500">
        <ele>221.4</ele>
        <time>2020-10-12T07:52:39Z</time>
      </trkpt>
      <trkpt lat="38.3819250" lon="-0.7252960">
        <ele>221.2</ele>
        <time>2020-10-12T07:52:40Z</time>
      </trkpt>
      <trkpt lat="38.3819600" lon="-0.7252570">
        <ele>221.0</ele>
        <time>2020-10-12T07:52:41Z</time>
      </trkpt>
      <trkpt lat="38.3820010" lon="-0.7252300">
        <ele>220.8</ele>
        <time>2020-10-12T07:52:42Z</time>
      </trkpt>
      <trkpt lat="38.3820450" lon="-0.7252130">
        <ele>220.8</ele>
        <time>2020-10-12T07:52:43Z</time>
      </trkpt>
      <trkpt lat="38.3820920" lon="-0.7252040">
        <ele>221.0</ele>
        <time>2020-10-12T07:52:44Z</time>
      </trkpt>
      <trkpt lat="38.3821380" lon="-0.7252070">
        <ele>221.2</ele>
        <time>2020-10-12T07:52:45Z</time>
      </trkpt>
      <trkpt lat="38.3821840" lon="-0.7252120">
        <ele>221.2</ele>
        <time>2020-10-12T07:52:46Z</time>
      </trkpt>
      <trkpt lat="38.3822330" lon="-0.7252150">
        <ele>221.2</ele>
        <time>2020-10-12T07:52:47Z</time>
      </trkpt>
      <trkpt lat="38.3822890" lon="-0.7252090">
        <ele>221.6</ele>
        <time>2020-10-12T07:52:48Z</time>
      </trkpt>
      <trkpt lat="38.3823410" lon="-0.7251870">
        <ele>221.6</ele>
        <time>2020-10-12T07:52:49Z</time>
      </trkpt>
      <trkpt lat="38.3823920" lon="-0.7251520">
        <ele>221.6</ele>
        <time>2020-10-12T07:52:50Z</time>
      </trkpt>
      <trkpt lat="38.3824430" lon="-0.7251090">
        <ele>221.6</ele>
        <time>2020-10-12T07:52:51Z</time>
      </trkpt>
      <trkpt lat="38.3824960" lon="-0.7250640">
        <ele>222.2</ele>
        <time>2020-10-12T07:52:52Z</time>
      </trkpt>
      <trkpt lat="38.3825420" lon="-0.7250170">
        <ele>223.0</ele>
        <time>2020-10-12T07:52:53Z</time>
      </trkpt>
      <trkpt lat="38.3825860" lon="-0.7249720">
        <ele>223.6</ele>
        <time>2020-10-12T07:52:54Z</time>
      </trkpt>
      <trkpt lat="38.3826310" lon="-0.7249260">
        <ele>223.8</ele>
        <time>2020-10-12T07:52:55Z</time>
      </trkpt>
      <trkpt lat="38.3826770" lon="-0.7248810">
        <ele>224.0</ele>
        <time>2020-10-12T07:52:56Z</time>
      </trkpt>
      <trkpt lat="38.3827270" lon="-0.7248360">
        <ele>224.2</ele>
        <time>2020-10-12T07:52:57Z</time>
      </trkpt>
      <trkpt lat="38.3827800" lon="-0.7247950">
        <ele>224.2</ele>
        <time>2020-10-12T07:52:58Z</time>
      </trkpt>
      <trkpt lat="38.3828310" lon="-0.7247510">
        <ele>224.2</ele>
        <time>2020-10-12T07:52:59Z</time>
      </trkpt>
      <trkpt lat="38.3828760" lon="-0.7247050">
        <ele>224.2</ele>
        <time>2020-10-12T07:53:00Z</time>
      </trkpt>
      <trkpt lat="38.3829220" lon="-0.7246570">
        <ele>224.6</ele>
        <time>2020-10-12T07:53:01Z</time>
      </trkpt>
      <trkpt lat="38.3829700" lon="-0.7246090">
        <ele>224.6</ele>
        <time>2020-10-12T07:53:02Z</time>
      </trkpt>
      <trkpt lat="38.3830190" lon="-0.7245660">
        <ele>224.6</ele>
        <time>2020-10-12T07:53:03Z</time>
      </trkpt>
      <trkpt lat="38.3830690" lon="-0.7245220">
        <ele>224.6</ele>
        <time>2020-10-12T07:53:04Z</time>
      </trkpt>
      <trkpt lat="38.3831190" lon="-0.7244780">
        <ele>224.6</ele>
        <time>2020-10-12T07:53:05Z</time>
      </trkpt>
      <trkpt lat="38.3831680" lon="-0.7244330">
        <ele>224.4</ele>
        <time>2020-10-12T07:53:06Z</time>
      </trkpt>
      <trkpt lat="38.3832150" lon="-0.7243860">
        <ele>224.2</ele>
        <time>2020-10-12T07:53:07Z</time>
      </trkpt>
      <trkpt lat="38.3832560" lon="-0.7243320">
        <ele>224.0</ele>
        <time>2020-10-12T07:53:08Z</time>
      </trkpt>
      <trkpt lat="38.3833020" lon="-0.7242870">
        <ele>223.8</ele>
        <time>2020-10-12T07:53:09Z</time>
      </trkpt>
      <trkpt lat="38.3833500" lon="-0.7242410">
        <ele>224.0</ele>
        <time>2020-10-12T07:53:10Z</time>
      </trkpt>
      <trkpt lat="38.3833950" lon="-0.7241960">
        <ele>224.0</ele>
        <time>2020-10-12T07:53:11Z</time>
      </trkpt>
      <trkpt lat="38.3834460" lon="-0.7241530">
        <ele>224.0</ele>
        <time>2020-10-12T07:53:12Z</time>
      </trkpt>
      <trkpt lat="38.3834950" lon="-0.7241110">
        <ele>223.8</ele>
        <time>2020-10-12T07:53:13Z</time>
      </trkpt>
      <trkpt lat="38.3835420" lon="-0.7240670">
        <ele>223.8</ele>
        <time>2020-10-12T07:53:14Z</time>
      </trkpt>
      <trkpt lat="38.3835900" lon="-0.7240230">
        <ele>223.8</ele>
        <time>2020-10-12T07:53:15Z</time>
      </trkpt>
      <trkpt lat="38.3836380" lon="-0.7239760">
        <ele>223.6</ele>
        <time>2020-10-12T07:53:16Z</time>
      </trkpt>
      <trkpt lat="38.3836860" lon="-0.7239300">
        <ele>223.6</ele>
        <time>2020-10-12T07:53:17Z</time>
      </trkpt>
      <trkpt lat="38.3837340" lon="-0.7238860">
        <ele>223.4</ele>
        <time>2020-10-12T07:53:18Z</time>
      </trkpt>
      <trkpt lat="38.3837790" lon="-0.7238430">
        <ele>223.4</ele>
        <time>2020-10-12T07:53:19Z</time>
      </trkpt>
      <trkpt lat="38.3838250" lon="-0.7237990">
        <ele>223.2</ele>
        <time>2020-10-12T07:53:20Z</time>
      </trkpt>
      <trkpt lat="38.3838710" lon="-0.7237540">
        <ele>223.2</ele>
        <time>2020-10-12T07:53:21Z</time>
      </trkpt>
      <trkpt lat="38.3839170" lon="-0.7237060">
        <ele>223.0</ele>
        <time>2020-10-12T07:53:22Z</time>
      </trkpt>
      <trkpt lat="38.3839630" lon="-0.7236550">
        <ele>223.0</ele>
        <time>2020-10-12T07:53:23Z</time>
      </trkpt>
      <trkpt lat="38.3840080" lon="-0.7236010">
        <ele>223.2</ele>
        <time>2020-10-12T07:53:24Z</time>
      </trkpt>
      <trkpt lat="38.3840490" lon="-0.7235400">
        <ele>223.4</ele>
        <time>2020-10-12T07:53:25Z</time>
      </trkpt>
      <trkpt lat="38.3840830" lon="-0.7234750">
        <ele>223.4</ele>
        <time>2020-10-12T07:53:26Z</time>
      </trkpt>
      <trkpt lat="38.3841070" lon="-0.7234060">
        <ele>223.4</ele>
        <time>2020-10-12T07:53:27Z</time>
      </trkpt>
      <trkpt lat="38.3841290" lon="-0.7233380">
        <ele>223.2</ele>
        <time>2020-10-12T07:53:28Z</time>
      </trkpt>
      <trkpt lat="38.3841590" lon="-0.7232790">
        <ele>223.2</ele>
        <time>2020-10-12T07:53:29Z</time>
      </trkpt>
      <trkpt lat="38.3841970" lon="-0.7232340">
        <ele>223.0</ele>
        <time>2020-10-12T07:53:30Z</time>
      </trkpt>
      <trkpt lat="38.3842390" lon="-0.7232110">
        <ele>222.8</ele>
        <time>2020-10-12T07:53:31Z</time>
      </trkpt>
      <trkpt lat="38.3842940" lon="-0.7231990">
        <ele>222.6</ele>
        <time>2020-10-12T07:53:32Z</time>
      </trkpt>
      <trkpt lat="38.3843520" lon="-0.7231800">
        <ele>222.6</ele>
        <time>2020-10-12T07:53:33Z</time>
      </trkpt>
      <trkpt lat="38.3844090" lon="-0.7231460">
        <ele>222.4</ele>
        <time>2020-10-12T07:53:34Z</time>
      </trkpt>
      <trkpt lat="38.3844610" lon="-0.7230950">
        <ele>222.4</ele>
        <time>2020-10-12T07:53:35Z</time>
      </trkpt>
      <trkpt lat="38.3845070" lon="-0.7230360">
        <ele>222.2</ele>
        <time>2020-10-12T07:53:36Z</time>
      </trkpt>
      <trkpt lat="38.3845520" lon="-0.7229800">
        <ele>222.2</ele>
        <time>2020-10-12T07:53:37Z</time>
      </trkpt>
      <trkpt lat="38.3845960" lon="-0.7229280">
        <ele>222.6</ele>
        <time>2020-10-12T07:53:38Z</time>
      </trkpt>
      <trkpt lat="38.3846430" lon="-0.7228800">
        <ele>223.0</ele>
        <time>2020-10-12T07:53:39Z</time>
      </trkpt>
      <trkpt lat="38.3846910" lon="-0.7228300">
        <ele>223.8</ele>
        <time>2020-10-12T07:53:40Z</time>
      </trkpt>
      <trkpt lat="38.3847370" lon="-0.7227800">
        <ele>224.4</ele>
        <time>2020-10-12T07:53:41Z</time>
      </trkpt>
      <trkpt lat="38.3847910" lon="-0.7227420">
        <ele>224.6</ele>
        <time>2020-10-12T07:53:42Z</time>
      </trkpt>
      <trkpt lat="38.3848090" lon="-0.7226630">
        <ele>224.8</ele>
        <time>2020-10-12T07:53:43Z</time>
      </trkpt>
      <trkpt lat="38.3848560" lon="-0.7226000">
        <ele>224.4</ele>
        <time>2020-10-12T07:53:44Z</time>
      </trkpt>
      <trkpt lat="38.3848990" lon="-0.7225370">
        <ele>223.6</ele>
        <time>2020-10-12T07:53:45Z</time>
      </trkpt>
      <trkpt lat="38.3849360" lon="-0.7224660">
        <ele>223.0</ele>
        <time>2020-10-12T07:53:46Z</time>
      </trkpt>
      <trkpt lat="38.3849610" lon="-0.7223920">
        <ele>222.8</ele>
        <time>2020-10-12T07:53:47Z</time>
      </trkpt>
      <trkpt lat="38.3849780" lon="-0.7223230">
        <ele>222.6</ele>
        <time>2020-10-12T07:53:48Z</time>
      </trkpt>
      <trkpt lat="38.3849960" lon="-0.7222610">
        <ele>222.8</ele>
        <time>2020-10-12T07:53:49Z</time>
      </trkpt>
      <trkpt lat="38.3850290" lon="-0.7222140">
        <ele>222.8</ele>
        <time>2020-10-12T07:53:50Z</time>
      </trkpt>
      <trkpt lat="38.3850740" lon="-0.7221890">
        <ele>223.0</ele>
        <time>2020-10-12T07:53:51Z</time>
      </trkpt>
      <trkpt lat="38.3851340" lon="-0.7221740">
        <ele>223.0</ele>
        <time>2020-10-12T07:53:52Z</time>
      </trkpt>
      <trkpt lat="38.3851990" lon="-0.7221550">
        <ele>223.0</ele>
        <time>2020-10-12T07:53:53Z</time>
      </trkpt>
      <trkpt lat="38.3852590" lon="-0.7221250">
        <ele>222.8</ele>
        <time>2020-10-12T07:53:54Z</time>
      </trkpt>
      <trkpt lat="38.3853120" lon="-0.7220790">
        <ele>222.6</ele>
        <time>2020-10-12T07:53:55Z</time>
      </trkpt>
      <trkpt lat="38.3853600" lon="-0.7220200">
        <ele>222.6</ele>
        <time>2020-10-12T07:53:56Z</time>
      </trkpt>
      <trkpt lat="38.3854080" lon="-0.7219580">
        <ele>222.6</ele>
        <time>2020-10-12T07:53:57Z</time>
      </trkpt>
      <trkpt lat="38.3854530" lon="-0.7218990">
        <ele>222.6</ele>
        <time>2020-10-12T07:53:58Z</time>
      </trkpt>
      <trkpt lat="38.3854980" lon="-0.7218440">
        <ele>222.8</ele>
        <time>2020-10-12T07:53:59Z</time>
      </trkpt>
      <trkpt lat="38.3855450" lon="-0.7217900">
        <ele>222.6</ele>
        <time>2020-10-12T07:54:00Z</time>
      </trkpt>
      <trkpt lat="38.3855910" lon="-0.7217390">
        <ele>222.6</ele>
        <time>2020-10-12T07:54:01Z</time>
      </trkpt>
      <trkpt lat="38.3856370" lon="-0.7216870">
        <ele>222.6</ele>
        <time>2020-10-12T07:54:02Z</time>
      </trkpt>
      <trkpt lat="38.3856820" lon="-0.7216350">
        <ele>222.4</ele>
        <time>2020-10-12T07:54:03Z</time>
      </trkpt>
      <trkpt lat="38.3857280" lon="-0.7215820">
        <ele>222.2</ele>
        <time>2020-10-12T07:54:04Z</time>
      </trkpt>
      <trkpt lat="38.3857760" lon="-0.7215290">
        <ele>222.0</ele>
        <time>2020-10-12T07:54:05Z</time>
      </trkpt>
      <trkpt lat="38.3858250" lon="-0.7214770">
        <ele>221.8</ele>
        <time>2020-10-12T07:54:06Z</time>
      </trkpt>
      <trkpt lat="38.3858710" lon="-0.7214260">
        <ele>221.8</ele>
        <time>2020-10-12T07:54:07Z</time>
      </trkpt>
      <trkpt lat="38.3859140" lon="-0.7213730">
        <ele>222.0</ele>
        <time>2020-10-12T07:54:08Z</time>
      </trkpt>
      <trkpt lat="38.3859590" lon="-0.7213170">
        <ele>222.2</ele>
        <time>2020-10-12T07:54:09Z</time>
      </trkpt>
      <trkpt lat="38.3860050" lon="-0.7212600">
        <ele>222.8</ele>
        <time>2020-10-12T07:54:10Z</time>
      </trkpt>
      <trkpt lat="38.3860520" lon="-0.7212020">
        <ele>223.6</ele>
        <time>2020-10-12T07:54:11Z</time>
      </trkpt>
      <trkpt lat="38.3860990" lon="-0.7211470">
        <ele>223.8</ele>
        <time>2020-10-12T07:54:12Z</time>
      </trkpt>
      <trkpt lat="38.3861430" lon="-0.7210940">
        <ele>224.2</ele>
        <time>2020-10-12T07:54:13Z</time>
      </trkpt>
      <trkpt lat="38.3861890" lon="-0.7210400">
        <ele>224.2</ele>
        <time>2020-10-12T07:54:14Z</time>
      </trkpt>
      <trkpt lat="38.3862380" lon="-0.7209850">
        <ele>224.2</ele>
        <time>2020-10-12T07:54:15Z</time>
      </trkpt>
      <trkpt lat="38.3862870" lon="-0.7209310">
        <ele>224.4</ele>
        <time>2020-10-12T07:54:16Z</time>
      </trkpt>
      <trkpt lat="38.3863330" lon="-0.7208750">
        <ele>224.2</ele>
        <time>2020-10-12T07:54:17Z</time>
      </trkpt>
      <trkpt lat="38.3863810" lon="-0.7208160">
        <ele>224.2</ele>
        <time>2020-10-12T07:54:18Z</time>
      </trkpt>
      <trkpt lat="38.3864280" lon="-0.7207590">
        <ele>224.2</ele>
        <time>2020-10-12T07:54:19Z</time>
      </trkpt>
      <trkpt lat="38.3864750" lon="-0.7207020">
        <ele>224.2</ele>
        <time>2020-10-12T07:54:20Z</time>
      </trkpt>
      <trkpt lat="38.3865220" lon="-0.7206460">
        <ele>224.2</ele>
        <time>2020-10-12T07:54:21Z</time>
      </trkpt>
      <trkpt lat="38.3865680" lon="-0.7205890">
        <ele>224.2</ele>
        <time>2020-10-12T07:54:22Z</time>
      </trkpt>
      <trkpt lat="38.3866140" lon="-0.7205330">
        <ele>224.4</ele>
        <time>2020-10-12T07:54:23Z</time>
      </trkpt>
      <trkpt lat="38.3866600" lon="-0.7204750">
        <ele>224.4</ele>
        <time>2020-10-12T07:54:24Z</time>
      </trkpt>
      <trkpt lat="38.3867070" lon="-0.7204180">
        <ele>224.6</ele>
        <time>2020-10-12T07:54:25Z</time>
      </trkpt>
      <trkpt lat="38.3867540" lon="-0.7203620">
        <ele>225.0</ele>
        <time>2020-10-12T07:54:26Z</time>
      </trkpt>
      <trkpt lat="38.3868020" lon="-0.7203050">
        <ele>225.4</ele>
        <time>2020-10-12T07:54:27Z</time>
      </trkpt>
      <trkpt lat="38.3868490" lon="-0.7202480">
        <ele>225.8</ele>
        <time>2020-10-12T07:54:28Z</time>
      </trkpt>
      <trkpt lat="38.3868960" lon="-0.7201930">
        <ele>226.0</ele>
        <time>2020-10-12T07:54:29Z</time>
      </trkpt>
      <trkpt lat="38.3869450" lon="-0.7201370">
        <ele>226.0</ele>
        <time>2020-10-12T07:54:30Z</time>
      </trkpt>
      <trkpt lat="38.3869920" lon="-0.7200820">
        <ele>225.8</ele>
        <time>2020-10-12T07:54:31Z</time>
      </trkpt>
      <trkpt lat="38.3870390" lon="-0.7200260">
        <ele>225.6</ele>
        <time>2020-10-12T07:54:32Z</time>
      </trkpt>
      <trkpt lat="38.3870870" lon="-0.7199680">
        <ele>225.2</ele>
        <time>2020-10-12T07:54:33Z</time>
      </trkpt>
      <trkpt lat="38.3871350" lon="-0.7199070">
        <ele>225.0</ele>
        <time>2020-10-12T07:54:34Z</time>
      </trkpt>
      <trkpt lat="38.3871840" lon="-0.7198510">
        <ele>225.0</ele>
        <time>2020-10-12T07:54:35Z</time>
      </trkpt>
      <trkpt lat="38.3872330" lon="-0.7197960">
        <ele>225.0</ele>
        <time>2020-10-12T07:54:36Z</time>
      </trkpt>
      <trkpt lat="38.3872790" lon="-0.7197410">
        <ele>225.0</ele>
        <time>2020-10-12T07:54:37Z</time>
      </trkpt>
      <trkpt lat="38.3873260" lon="-0.7196880">
        <ele>225.0</ele>
        <time>2020-10-12T07:54:38Z</time>
      </trkpt>
      <trkpt lat="38.3873750" lon="-0.7196360">
        <ele>225.2</ele>
        <time>2020-10-12T07:54:39Z</time>
      </trkpt>
      <trkpt lat="38.3874220" lon="-0.7195800">
        <ele>225.4</ele>
        <time>2020-10-12T07:54:40Z</time>
      </trkpt>
      <trkpt lat="38.3874680" lon="-0.7195260">
        <ele>225.8</ele>
        <time>2020-10-12T07:54:41Z</time>
      </trkpt>
      <trkpt lat="38.3875130" lon="-0.7194730">
        <ele>226.0</ele>
        <time>2020-10-12T07:54:42Z</time>
      </trkpt>
      <trkpt lat="38.3875580" lon="-0.7194180">
        <ele>226.2</ele>
        <time>2020-10-12T07:54:43Z</time>
      </trkpt>
      <trkpt lat="38.3876010" lon="-0.7193640">
        <ele>226.2</ele>
        <time>2020-10-12T07:54:44Z</time>
      </trkpt>
      <trkpt lat="38.3876470" lon="-0.7193100">
        <ele>226.4</ele>
        <time>2020-10-12T07:54:45Z</time>
      </trkpt>
      <trkpt lat="38.3876910" lon="-0.7192570">
        <ele>226.4</ele>
        <time>2020-10-12T07:54:46Z</time>
      </trkpt>
      <trkpt lat="38.3877340" lon="-0.7192040">
        <ele>226.6</ele>
        <time>2020-10-12T07:54:47Z</time>
      </trkpt>
      <trkpt lat="38.3877800" lon="-0.7191500">
        <ele>226.6</ele>
        <time>2020-10-12T07:54:48Z</time>
      </trkpt>
      <trkpt lat="38.3878280" lon="-0.7190940">
        <ele>226.8</ele>
        <time>2020-10-12T07:54:49Z</time>
      </trkpt>
      <trkpt lat="38.3878760" lon="-0.7190380">
        <ele>226.8</ele>
        <time>2020-10-12T07:54:50Z</time>
      </trkpt>
      <trkpt lat="38.3879230" lon="-0.7189820">
        <ele>226.8</ele>
        <time>2020-10-12T07:54:51Z</time>
      </trkpt>
      <trkpt lat="38.3879700" lon="-0.7189260">
        <ele>227.0</ele>
        <time>2020-10-12T07:54:52Z</time>
      </trkpt>
      <trkpt lat="38.3880170" lon="-0.7188710">
        <ele>227.0</ele>
        <time>2020-10-12T07:54:53Z</time>
      </trkpt>
      <trkpt lat="38.3880630" lon="-0.7188170">
        <ele>227.0</ele>
        <time>2020-10-12T07:54:54Z</time>
      </trkpt>
      <trkpt lat="38.3881090" lon="-0.7187610">
        <ele>227.0</ele>
        <time>2020-10-12T07:54:55Z</time>
      </trkpt>
      <trkpt lat="38.3881560" lon="-0.7187060">
        <ele>227.2</ele>
        <time>2020-10-12T07:54:56Z</time>
      </trkpt>
      <trkpt lat="38.3882030" lon="-0.7186490">
        <ele>227.4</ele>
        <time>2020-10-12T07:54:57Z</time>
      </trkpt>
      <trkpt lat="38.3882500" lon="-0.7185890">
        <ele>227.6</ele>
        <time>2020-10-12T07:54:58Z</time>
      </trkpt>
      <trkpt lat="38.3882980" lon="-0.7185320">
        <ele>227.8</ele>
        <time>2020-10-12T07:54:59Z</time>
      </trkpt>
      <trkpt lat="38.3883460" lon="-0.7184730">
        <ele>227.8</ele>
        <time>2020-10-12T07:55:00Z</time>
      </trkpt>
      <trkpt lat="38.3883930" lon="-0.7184150">
        <ele>228.2</ele>
        <time>2020-10-12T07:55:01Z</time>
      </trkpt>
      <trkpt lat="38.3884390" lon="-0.7183560">
        <ele>228.4</ele>
        <time>2020-10-12T07:55:02Z</time>
      </trkpt>
      <trkpt lat="38.3884870" lon="-0.7182980">
        <ele>228.6</ele>
        <time>2020-10-12T07:55:03Z</time>
      </trkpt>
      <trkpt lat="38.3885350" lon="-0.7182330">
        <ele>228.8</ele>
        <time>2020-10-12T07:55:04Z</time>
      </trkpt>
      <trkpt lat="38.3885840" lon="-0.7181670">
        <ele>228.8</ele>
        <time>2020-10-12T07:55:05Z</time>
      </trkpt>
      <trkpt lat="38.3886330" lon="-0.7181040">
        <ele>229.0</ele>
        <time>2020-10-12T07:55:06Z</time>
      </trkpt>
      <trkpt lat="38.3886820" lon="-0.7180410">
        <ele>229.0</ele>
        <time>2020-10-12T07:55:07Z</time>
      </trkpt>
      <trkpt lat="38.3887310" lon="-0.7179820">
        <ele>229.0</ele>
        <time>2020-10-12T07:55:08Z</time>
      </trkpt>
      <trkpt lat="38.3887810" lon="-0.7179230">
        <ele>229.2</ele>
        <time>2020-10-12T07:55:09Z</time>
      </trkpt>
      <trkpt lat="38.3888320" lon="-0.7178630">
        <ele>229.2</ele>
        <time>2020-10-12T07:55:10Z</time>
      </trkpt>
      <trkpt lat="38.3888820" lon="-0.7178060">
        <ele>229.0</ele>
        <time>2020-10-12T07:55:11Z</time>
      </trkpt>
      <trkpt lat="38.3889310" lon="-0.7177490">
        <ele>229.0</ele>
        <time>2020-10-12T07:55:12Z</time>
      </trkpt>
      <trkpt lat="38.3889780" lon="-0.7176920">
        <ele>228.6</ele>
        <time>2020-10-12T07:55:13Z</time>
      </trkpt>
      <trkpt lat="38.3890280" lon="-0.7176370">
        <ele>228.4</ele>
        <time>2020-10-12T07:55:14Z</time>
      </trkpt>
      <trkpt lat="38.3890760" lon="-0.7175820">
        <ele>228.2</ele>
        <time>2020-10-12T07:55:15Z</time>
      </trkpt>
      <trkpt lat="38.3891250" lon="-0.7175260">
        <ele>228.0</ele>
        <time>2020-10-12T07:55:16Z</time>
      </trkpt>
      <trkpt lat="38.3891710" lon="-0.7174680">
        <ele>228.0</ele>
        <time>2020-10-12T07:55:17Z</time>
      </trkpt>
      <trkpt lat="38.3892180" lon="-0.7174100">
        <ele>228.4</ele>
        <time>2020-10-12T07:55:18Z</time>
      </trkpt>
      <trkpt lat="38.3892650" lon="-0.7173550">
        <ele>229.0</ele>
        <time>2020-10-12T07:55:19Z</time>
      </trkpt>
      <trkpt lat="38.3893110" lon="-0.7172990">
        <ele>229.4</ele>
        <time>2020-10-12T07:55:20Z</time>
      </trkpt>
      <trkpt lat="38.3893570" lon="-0.7172430">
        <ele>229.6</ele>
        <time>2020-10-12T07:55:21Z</time>
      </trkpt>
      <trkpt lat="38.3894020" lon="-0.7171890">
        <ele>229.8</ele>
        <time>2020-10-12T07:55:22Z</time>
      </trkpt>
      <trkpt lat="38.3894480" lon="-0.7171350">
        <ele>230.0</ele>
        <time>2020-10-12T07:55:23Z</time>
      </trkpt>
      <trkpt lat="38.3894940" lon="-0.7170790">
        <ele>230.0</ele>
        <time>2020-10-12T07:55:24Z</time>
      </trkpt>
      <trkpt lat="38.3895410" lon="-0.7170230">
        <ele>230.0</ele>
        <time>2020-10-12T07:55:25Z</time>
      </trkpt>
      <trkpt lat="38.3895870" lon="-0.7169670">
        <ele>230.0</ele>
        <time>2020-10-12T07:55:26Z</time>
      </trkpt>
      <trkpt lat="38.3896340" lon="-0.7169120">
        <ele>230.2</ele>
        <time>2020-10-12T07:55:27Z</time>
      </trkpt>
      <trkpt lat="38.3896800" lon="-0.7168570">
        <ele>230.2</ele>
        <time>2020-10-12T07:55:28Z</time>
      </trkpt>
      <trkpt lat="38.3897250" lon="-0.7168030">
        <ele>230.4</ele>
        <time>2020-10-12T07:55:29Z</time>
      </trkpt>
      <trkpt lat="38.3897710" lon="-0.7167500">
        <ele>230.6</ele>
        <time>2020-10-12T07:55:30Z</time>
      </trkpt>
      <trkpt lat="38.3898160" lon="-0.7166950">
        <ele>230.8</ele>
        <time>2020-10-12T07:55:31Z</time>
      </trkpt>
      <trkpt lat="38.3898620" lon="-0.7166410">
        <ele>231.2</ele>
        <time>2020-10-12T07:55:32Z</time>
      </trkpt>
      <trkpt lat="38.3899070" lon="-0.7165870">
        <ele>231.4</ele>
        <time>2020-10-12T07:55:33Z</time>
      </trkpt>
      <trkpt lat="38.3899530" lon="-0.7165320">
        <ele>231.6</ele>
        <time>2020-10-12T07:55:34Z</time>
      </trkpt>
      <trkpt lat="38.3899990" lon="-0.7164770">
        <ele>231.8</ele>
        <time>2020-10-12T07:55:35Z</time>
      </trkpt>
      <trkpt lat="38.3900450" lon="-0.7164210">
        <ele>231.8</ele>
        <time>2020-10-12T07:55:36Z</time>
      </trkpt>
      <trkpt lat="38.3900910" lon="-0.7163650">
        <ele>232.0</ele>
        <time>2020-10-12T07:55:37Z</time>
      </trkpt>
      <trkpt lat="38.3901360" lon="-0.7163090">
        <ele>232.0</ele>
        <time>2020-10-12T07:55:38Z</time>
      </trkpt>
      <trkpt lat="38.3901810" lon="-0.7162530">
        <ele>232.0</ele>
        <time>2020-10-12T07:55:39Z</time>
      </trkpt>
      <trkpt lat="38.3902270" lon="-0.7161990">
        <ele>232.2</ele>
        <time>2020-10-12T07:55:40Z</time>
      </trkpt>
      <trkpt lat="38.3902720" lon="-0.7161430">
        <ele>232.0</ele>
        <time>2020-10-12T07:55:41Z</time>
      </trkpt>
      <trkpt lat="38.3903160" lon="-0.7160890">
        <ele>232.2</ele>
        <time>2020-10-12T07:55:42Z</time>
      </trkpt>
      <trkpt lat="38.3903610" lon="-0.7160360">
        <ele>232.2</ele>
        <time>2020-10-12T07:55:43Z</time>
      </trkpt>
      <trkpt lat="38.3904070" lon="-0.7159830">
        <ele>232.4</ele>
        <time>2020-10-12T07:55:44Z</time>
      </trkpt>
      <trkpt lat="38.3904500" lon="-0.7159310">
        <ele>232.6</ele>
        <time>2020-10-12T07:55:45Z</time>
      </trkpt>
      <trkpt lat="38.3904950" lon="-0.7158760">
        <ele>232.8</ele>
        <time>2020-10-12T07:55:46Z</time>
      </trkpt>
      <trkpt lat="38.3905410" lon="-0.7158220">
        <ele>233.0</ele>
        <time>2020-10-12T07:55:47Z</time>
      </trkpt>
      <trkpt lat="38.3905850" lon="-0.7157680">
        <ele>233.2</ele>
        <time>2020-10-12T07:55:48Z</time>
      </trkpt>
      <trkpt lat="38.3906300" lon="-0.7157150">
        <ele>233.4</ele>
        <time>2020-10-12T07:55:49Z</time>
      </trkpt>
      <trkpt lat="38.3906750" lon="-0.7156620">
        <ele>233.4</ele>
        <time>2020-10-12T07:55:50Z</time>
      </trkpt>
      <trkpt lat="38.3907200" lon="-0.7156080">
        <ele>233.6</ele>
        <time>2020-10-12T07:55:51Z</time>
      </trkpt>
      <trkpt lat="38.3907660" lon="-0.7155550">
        <ele>233.4</ele>
        <time>2020-10-12T07:55:52Z</time>
      </trkpt>
      <trkpt lat="38.3908120" lon="-0.7155000">
        <ele>233.0</ele>
        <time>2020-10-12T07:55:53Z</time>
      </trkpt>
      <trkpt lat="38.3908580" lon="-0.7154470">
        <ele>233.0</ele>
        <time>2020-10-12T07:55:54Z</time>
      </trkpt>
      <trkpt lat="38.3909030" lon="-0.7153930">
        <ele>232.6</ele>
        <time>2020-10-12T07:55:55Z</time>
      </trkpt>
      <trkpt lat="38.3909490" lon="-0.7153390">
        <ele>232.4</ele>
        <time>2020-10-12T07:55:56Z</time>
      </trkpt>
      <trkpt lat="38.3909940" lon="-0.7152860">
        <ele>232.6</ele>
        <time>2020-10-12T07:55:57Z</time>
      </trkpt>
      <trkpt lat="38.3910380" lon="-0.7152310">
        <ele>232.8</ele>
        <time>2020-10-12T07:55:58Z</time>
      </trkpt>
      <trkpt lat="38.3910820" lon="-0.7151780">
        <ele>232.8</ele>
        <time>2020-10-12T07:55:59Z</time>
      </trkpt>
      <trkpt lat="38.3911260" lon="-0.7151230">
        <ele>232.8</ele>
        <time>2020-10-12T07:56:00Z</time>
      </trkpt>
      <trkpt lat="38.3911710" lon="-0.7150690">
        <ele>232.8</ele>
        <time>2020-10-12T07:56:01Z</time>
      </trkpt>
      <trkpt lat="38.3912150" lon="-0.7150130">
        <ele>233.0</ele>
        <time>2020-10-12T07:56:02Z</time>
      </trkpt>
      <trkpt lat="38.3912590" lon="-0.7149600">
        <ele>232.8</ele>
        <time>2020-10-12T07:56:03Z</time>
      </trkpt>
      <trkpt lat="38.3913030" lon="-0.7149060">
        <ele>232.8</ele>
        <time>2020-10-12T07:56:04Z</time>
      </trkpt>
      <trkpt lat="38.3913460" lon="-0.7148490">
        <ele>232.8</ele>
        <time>2020-10-12T07:56:05Z</time>
      </trkpt>
      <trkpt lat="38.3913890" lon="-0.7147930">
        <ele>232.8</ele>
        <time>2020-10-12T07:56:06Z</time>
      </trkpt>
      <trkpt lat="38.3914340" lon="-0.7147400">
        <ele>233.0</ele>
        <time>2020-10-12T07:56:07Z</time>
      </trkpt>
      <trkpt lat="38.3914780" lon="-0.7146880">
        <ele>233.4</ele>
        <time>2020-10-12T07:56:08Z</time>
      </trkpt>
      <trkpt lat="38.3915230" lon="-0.7146350">
        <ele>233.6</ele>
        <time>2020-10-12T07:56:09Z</time>
      </trkpt>
      <trkpt lat="38.3915680" lon="-0.7145820">
        <ele>234.0</ele>
        <time>2020-10-12T07:56:10Z</time>
      </trkpt>
      <trkpt lat="38.3916120" lon="-0.7145270">
        <ele>234.0</ele>
        <time>2020-10-12T07:56:11Z</time>
      </trkpt>
      <trkpt lat="38.3916570" lon="-0.7144740">
        <ele>234.2</ele>
        <time>2020-10-12T07:56:12Z</time>
      </trkpt>
      <trkpt lat="38.3917030" lon="-0.7144180">
        <ele>234.2</ele>
        <time>2020-10-12T07:56:13Z</time>
      </trkpt>
      <trkpt lat="38.3917480" lon="-0.7143640">
        <ele>234.2</ele>
        <time>2020-10-12T07:56:14Z</time>
      </trkpt>
      <trkpt lat="38.3917930" lon="-0.7143100">
        <ele>234.6</ele>
        <time>2020-10-12T07:56:15Z</time>
      </trkpt>
      <trkpt lat="38.3918390" lon="-0.7142580">
        <ele>234.8</ele>
        <time>2020-10-12T07:56:16Z</time>
      </trkpt>
      <trkpt lat="38.3918840" lon="-0.7142060">
        <ele>235.4</ele>
        <time>2020-10-12T07:56:17Z</time>
      </trkpt>
      <trkpt lat="38.3919280" lon="-0.7141530">
        <ele>235.8</ele>
        <time>2020-10-12T07:56:18Z</time>
      </trkpt>
      <trkpt lat="38.3919730" lon="-0.7140990">
        <ele>236.4</ele>
        <time>2020-10-12T07:56:19Z</time>
      </trkpt>
      <trkpt lat="38.3920180" lon="-0.7140460">
        <ele>236.6</ele>
        <time>2020-10-12T07:56:20Z</time>
      </trkpt>
      <trkpt lat="38.3920630" lon="-0.7139920">
        <ele>236.4</ele>
        <time>2020-10-12T07:56:21Z</time>
      </trkpt>
      <trkpt lat="38.3921080" lon="-0.7139370">
        <ele>236.4</ele>
        <time>2020-10-12T07:56:22Z</time>
      </trkpt>
      <trkpt lat="38.3921540" lon="-0.7138840">
        <ele>236.4</ele>
        <time>2020-10-12T07:56:23Z</time>
      </trkpt>
      <trkpt lat="38.3922000" lon="-0.7138300">
        <ele>236.2</ele>
        <time>2020-10-12T07:56:24Z</time>
      </trkpt>
      <trkpt lat="38.3922450" lon="-0.7137760">
        <ele>236.2</ele>
        <time>2020-10-12T07:56:25Z</time>
      </trkpt>
      <trkpt lat="38.3922880" lon="-0.7137200">
        <ele>236.2</ele>
        <time>2020-10-12T07:56:26Z</time>
      </trkpt>
      <trkpt lat="38.3923330" lon="-0.7136660">
        <ele>236.4</ele>
        <time>2020-10-12T07:56:27Z</time>
      </trkpt>
      <trkpt lat="38.3923780" lon="-0.7136100">
        <ele>236.6</ele>
        <time>2020-10-12T07:56:28Z</time>
      </trkpt>
      <trkpt lat="38.3924230" lon="-0.7135560">
        <ele>236.6</ele>
        <time>2020-10-12T07:56:29Z</time>
      </trkpt>
      <trkpt lat="38.3924690" lon="-0.7135010">
        <ele>236.4</ele>
        <time>2020-10-12T07:56:30Z</time>
      </trkpt>
      <trkpt lat="38.3925140" lon="-0.7134460">
        <ele>236.4</ele>
        <time>2020-10-12T07:56:31Z</time>
      </trkpt>
      <trkpt lat="38.3925600" lon="-0.7133880">
        <ele>236.6</ele>
        <time>2020-10-12T07:56:32Z</time>
      </trkpt>
      <trkpt lat="38.3926060" lon="-0.7133320">
        <ele>236.8</ele>
        <time>2020-10-12T07:56:33Z</time>
      </trkpt>
      <trkpt lat="38.3926530" lon="-0.7132750">
        <ele>236.8</ele>
        <time>2020-10-12T07:56:34Z</time>
      </trkpt>
      <trkpt lat="38.3927010" lon="-0.7132200">
        <ele>236.8</ele>
        <time>2020-10-12T07:56:35Z</time>
      </trkpt>
      <trkpt lat="38.3927500" lon="-0.7131620">
        <ele>236.6</ele>
        <time>2020-10-12T07:56:36Z</time>
      </trkpt>
      <trkpt lat="38.3927980" lon="-0.7131060">
        <ele>236.8</ele>
        <time>2020-10-12T07:56:37Z</time>
      </trkpt>
      <trkpt lat="38.3928460" lon="-0.7130490">
        <ele>236.8</ele>
        <time>2020-10-12T07:56:38Z</time>
      </trkpt>
      <trkpt lat="38.3928930" lon="-0.7129930">
        <ele>236.6</ele>
        <time>2020-10-12T07:56:39Z</time>
      </trkpt>
      <trkpt lat="38.3929400" lon="-0.7129380">
        <ele>236.4</ele>
        <time>2020-10-12T07:56:40Z</time>
      </trkpt>
      <trkpt lat="38.3929860" lon="-0.7128820">
        <ele>236.2</ele>
        <time>2020-10-12T07:56:41Z</time>
      </trkpt>
      <trkpt lat="38.3930320" lon="-0.7128260">
        <ele>236.2</ele>
        <time>2020-10-12T07:56:42Z</time>
      </trkpt>
      <trkpt lat="38.3930770" lon="-0.7127670">
        <ele>236.2</ele>
        <time>2020-10-12T07:56:43Z</time>
      </trkpt>
      <trkpt lat="38.3931240" lon="-0.7127120">
        <ele>236.4</ele>
        <time>2020-10-12T07:56:44Z</time>
      </trkpt>
      <trkpt lat="38.3931720" lon="-0.7126560">
        <ele>236.6</ele>
        <time>2020-10-12T07:56:45Z</time>
      </trkpt>
      <trkpt lat="38.3932210" lon="-0.7126000">
        <ele>236.8</ele>
        <time>2020-10-12T07:56:46Z</time>
      </trkpt>
      <trkpt lat="38.3932710" lon="-0.7125450">
        <ele>236.8</ele>
        <time>2020-10-12T07:56:47Z</time>
      </trkpt>
      <trkpt lat="38.3933180" lon="-0.7124870">
        <ele>236.6</ele>
        <time>2020-10-12T07:56:48Z</time>
      </trkpt>
      <trkpt lat="38.3933640" lon="-0.7124300">
        <ele>236.8</ele>
        <time>2020-10-12T07:56:49Z</time>
      </trkpt>
      <trkpt lat="38.3934110" lon="-0.7123730">
        <ele>237.0</ele>
        <time>2020-10-12T07:56:50Z</time>
      </trkpt>
      <trkpt lat="38.3934580" lon="-0.7123160">
        <ele>237.0</ele>
        <time>2020-10-12T07:56:51Z</time>
      </trkpt>
      <trkpt lat="38.3935050" lon="-0.7122550">
        <ele>237.0</ele>
        <time>2020-10-12T07:56:52Z</time>
      </trkpt>
      <trkpt lat="38.3935540" lon="-0.7121960">
        <ele>237.2</ele>
        <time>2020-10-12T07:56:53Z</time>
      </trkpt>
      <trkpt lat="38.3936030" lon="-0.7121400">
        <ele>237.4</ele>
        <time>2020-10-12T07:56:54Z</time>
      </trkpt>
      <trkpt lat="38.3936510" lon="-0.7120800">
        <ele>237.6</ele>
        <time>2020-10-12T07:56:55Z</time>
      </trkpt>
      <trkpt lat="38.3937010" lon="-0.7120220">
        <ele>237.6</ele>
        <time>2020-10-12T07:56:56Z</time>
      </trkpt>
      <trkpt lat="38.3937510" lon="-0.7119590">
        <ele>237.6</ele>
        <time>2020-10-12T07:56:57Z</time>
      </trkpt>
      <trkpt lat="38.3938020" lon="-0.7119000">
        <ele>237.4</ele>
        <time>2020-10-12T07:56:58Z</time>
      </trkpt>
      <trkpt lat="38.3938510" lon="-0.7118380">
        <ele>237.4</ele>
        <time>2020-10-12T07:56:59Z</time>
      </trkpt>
      <trkpt lat="38.3939000" lon="-0.7117780">
        <ele>237.4</ele>
        <time>2020-10-12T07:57:00Z</time>
      </trkpt>
      <trkpt lat="38.3939490" lon="-0.7117180">
        <ele>237.6</ele>
        <time>2020-10-12T07:57:01Z</time>
      </trkpt>
      <trkpt lat="38.3939990" lon="-0.7116580">
        <ele>237.6</ele>
        <time>2020-10-12T07:57:02Z</time>
      </trkpt>
      <trkpt lat="38.3940490" lon="-0.7115990">
        <ele>237.6</ele>
        <time>2020-10-12T07:57:03Z</time>
      </trkpt>
      <trkpt lat="38.3941000" lon="-0.7115420">
        <ele>237.6</ele>
        <time>2020-10-12T07:57:04Z</time>
      </trkpt>
      <trkpt lat="38.3941490" lon="-0.7114850">
        <ele>237.6</ele>
        <time>2020-10-12T07:57:05Z</time>
      </trkpt>
      <trkpt lat="38.3941980" lon="-0.7114270">
        <ele>237.4</ele>
        <time>2020-10-12T07:57:06Z</time>
      </trkpt>
      <trkpt lat="38.3942460" lon="-0.7113690">
        <ele>237.4</ele>
        <time>2020-10-12T07:57:07Z</time>
      </trkpt>
      <trkpt lat="38.3942940" lon="-0.7113070">
        <ele>237.2</ele>
        <time>2020-10-12T07:57:08Z</time>
      </trkpt>
      <trkpt lat="38.3943420" lon="-0.7112490">
        <ele>237.2</ele>
        <time>2020-10-12T07:57:09Z</time>
      </trkpt>
      <trkpt lat="38.3943910" lon="-0.7111870">
        <ele>237.4</ele>
        <time>2020-10-12T07:57:10Z</time>
      </trkpt>
      <trkpt lat="38.3944400" lon="-0.7111260">
        <ele>237.6</ele>
        <time>2020-10-12T07:57:11Z</time>
      </trkpt>
      <trkpt lat="38.3944920" lon="-0.7110670">
        <ele>237.4</ele>
        <time>2020-10-12T07:57:12Z</time>
      </trkpt>
      <trkpt lat="38.3945420" lon="-0.7110080">
        <ele>237.4</ele>
        <time>2020-10-12T07:57:13Z</time>
      </trkpt>
      <trkpt lat="38.3945940" lon="-0.7109500">
        <ele>237.6</ele>
        <time>2020-10-12T07:57:14Z</time>
      </trkpt>
      <trkpt lat="38.3946450" lon="-0.7108890">
        <ele>237.8</ele>
        <time>2020-10-12T07:57:15Z</time>
      </trkpt>
      <trkpt lat="38.3946970" lon="-0.7108310">
        <ele>237.6</ele>
        <time>2020-10-12T07:57:16Z</time>
      </trkpt>
      <trkpt lat="38.3947470" lon="-0.7107720">
        <ele>237.4</ele>
        <time>2020-10-12T07:57:17Z</time>
      </trkpt>
      <trkpt lat="38.3947990" lon="-0.7107130">
        <ele>237.6</ele>
        <time>2020-10-12T07:57:18Z</time>
      </trkpt>
      <trkpt lat="38.3948490" lon="-0.7106520">
        <ele>238.0</ele>
        <time>2020-10-12T07:57:19Z</time>
      </trkpt>
      <trkpt lat="38.3949020" lon="-0.7105910">
        <ele>238.4</ele>
        <time>2020-10-12T07:57:20Z</time>
      </trkpt>
      <trkpt lat="38.3949540" lon="-0.7105290">
        <ele>238.6</ele>
        <time>2020-10-12T07:57:21Z</time>
      </trkpt>
      <trkpt lat="38.3950070" lon="-0.7104650">
        <ele>238.6</ele>
        <time>2020-10-12T07:57:22Z</time>
      </trkpt>
      <trkpt lat="38.3950590" lon="-0.7104020">
        <ele>238.8</ele>
        <time>2020-10-12T07:57:23Z</time>
      </trkpt>
      <trkpt lat="38.3951120" lon="-0.7103390">
        <ele>239.2</ele>
        <time>2020-10-12T07:57:24Z</time>
      </trkpt>
      <trkpt lat="38.3951640" lon="-0.7102770">
        <ele>239.4</ele>
        <time>2020-10-12T07:57:25Z</time>
      </trkpt>
      <trkpt lat="38.3952160" lon="-0.7102140">
        <ele>239.4</ele>
        <time>2020-10-12T07:57:26Z</time>
      </trkpt>
      <trkpt lat="38.3952680" lon="-0.7101500">
        <ele>239.2</ele>
        <time>2020-10-12T07:57:27Z</time>
      </trkpt>
      <trkpt lat="38.3953200" lon="-0.7100880">
        <ele>239.4</ele>
        <time>2020-10-12T07:57:28Z</time>
      </trkpt>
      <trkpt lat="38.3953720" lon="-0.7100230">
        <ele>239.4</ele>
        <time>2020-10-12T07:57:29Z</time>
      </trkpt>
      <trkpt lat="38.3954230" lon="-0.7099590">
        <ele>239.2</ele>
        <time>2020-10-12T07:57:30Z</time>
      </trkpt>
      <trkpt lat="38.3954750" lon="-0.7098940">
        <ele>239.0</ele>
        <time>2020-10-12T07:57:31Z</time>
      </trkpt>
      <trkpt lat="38.3955270" lon="-0.7098290">
        <ele>238.8</ele>
        <time>2020-10-12T07:57:32Z</time>
      </trkpt>
      <trkpt lat="38.3955800" lon="-0.7097680">
        <ele>238.6</ele>
        <time>2020-10-12T07:57:33Z</time>
      </trkpt>
      <trkpt lat="38.3956330" lon="-0.7097040">
        <ele>238.6</ele>
        <time>2020-10-12T07:57:34Z</time>
      </trkpt>
      <trkpt lat="38.3956850" lon="-0.7096400">
        <ele>238.6</ele>
        <time>2020-10-12T07:57:35Z</time>
      </trkpt>
      <trkpt lat="38.3957390" lon="-0.7095760">
        <ele>238.6</ele>
        <time>2020-10-12T07:57:36Z</time>
      </trkpt>
      <trkpt lat="38.3957940" lon="-0.7095110">
        <ele>238.6</ele>
        <time>2020-10-12T07:57:37Z</time>
      </trkpt>
      <trkpt lat="38.3958480" lon="-0.7094480">
        <ele>238.8</ele>
        <time>2020-10-12T07:57:38Z</time>
      </trkpt>
      <trkpt lat="38.3959020" lon="-0.7093860">
        <ele>238.8</ele>
        <time>2020-10-12T07:57:39Z</time>
      </trkpt>
      <trkpt lat="38.3959560" lon="-0.7093250">
        <ele>239.0</ele>
        <time>2020-10-12T07:57:40Z</time>
      </trkpt>
      <trkpt lat="38.3960100" lon="-0.7092630">
        <ele>239.0</ele>
        <time>2020-10-12T07:57:41Z</time>
      </trkpt>
      <trkpt lat="38.3960640" lon="-0.7091980">
        <ele>239.0</ele>
        <time>2020-10-12T07:57:42Z</time>
      </trkpt>
      <trkpt lat="38.3961170" lon="-0.7091370">
        <ele>239.0</ele>
        <time>2020-10-12T07:57:43Z</time>
      </trkpt>
      <trkpt lat="38.3961710" lon="-0.7090730">
        <ele>239.0</ele>
        <time>2020-10-12T07:57:44Z</time>
      </trkpt>
      <trkpt lat="38.3962240" lon="-0.7090110">
        <ele>239.2</ele>
        <time>2020-10-12T07:57:45Z</time>
      </trkpt>
      <trkpt lat="38.3962770" lon="-0.7089470">
        <ele>239.2</ele>
        <time>2020-10-12T07:57:46Z</time>
      </trkpt>
      <trkpt lat="38.3963290" lon="-0.7088820">
        <ele>239.0</ele>
        <time>2020-10-12T07:57:47Z</time>
      </trkpt>
      <trkpt lat="38.3963810" lon="-0.7088190">
        <ele>239.0</ele>
        <time>2020-10-12T07:57:48Z</time>
      </trkpt>
      <trkpt lat="38.3964330" lon="-0.7087560">
        <ele>239.0</ele>
        <time>2020-10-12T07:57:49Z</time>
      </trkpt>
      <trkpt lat="38.3964850" lon="-0.7086940">
        <ele>239.0</ele>
        <time>2020-10-12T07:57:50Z</time>
      </trkpt>
      <trkpt lat="38.3965370" lon="-0.7086320">
        <ele>239.2</ele>
        <time>2020-10-12T07:57:51Z</time>
      </trkpt>
      <trkpt lat="38.3965890" lon="-0.7085690">
        <ele>239.2</ele>
        <time>2020-10-12T07:57:52Z</time>
      </trkpt>
      <trkpt lat="38.3966400" lon="-0.7085050">
        <ele>239.4</ele>
        <time>2020-10-12T07:57:53Z</time>
      </trkpt>
      <trkpt lat="38.3966910" lon="-0.7084420">
        <ele>239.4</ele>
        <time>2020-10-12T07:57:54Z</time>
      </trkpt>
      <trkpt lat="38.3967420" lon="-0.7083760">
        <ele>239.6</ele>
        <time>2020-10-12T07:57:55Z</time>
      </trkpt>
      <trkpt lat="38.3967930" lon="-0.7083110">
        <ele>239.6</ele>
        <time>2020-10-12T07:57:56Z</time>
      </trkpt>
      <trkpt lat="38.3968460" lon="-0.7082470">
        <ele>239.8</ele>
        <time>2020-10-12T07:57:57Z</time>
      </trkpt>
      <trkpt lat="38.3968990" lon="-0.7081820">
        <ele>239.8</ele>
        <time>2020-10-12T07:57:58Z</time>
      </trkpt>
      <trkpt lat="38.3969530" lon="-0.7081180">
        <ele>240.0</ele>
        <time>2020-10-12T07:57:59Z</time>
      </trkpt>
      <trkpt lat="38.3970060" lon="-0.7080540">
        <ele>240.0</ele>
        <time>2020-10-12T07:58:00Z</time>
      </trkpt>
      <trkpt lat="38.3970580" lon="-0.7079890">
        <ele>240.0</ele>
        <time>2020-10-12T07:58:01Z</time>
      </trkpt>
      <trkpt lat="38.3971080" lon="-0.7079240">
        <ele>240.0</ele>
        <time>2020-10-12T07:58:02Z</time>
      </trkpt>
      <trkpt lat="38.3971580" lon="-0.7078590">
        <ele>240.0</ele>
        <time>2020-10-12T07:58:03Z</time>
      </trkpt>
      <trkpt lat="38.3972090" lon="-0.7078000">
        <ele>240.0</ele>
        <time>2020-10-12T07:58:04Z</time>
      </trkpt>
      <trkpt lat="38.3972590" lon="-0.7077430">
        <ele>240.2</ele>
        <time>2020-10-12T07:58:05Z</time>
      </trkpt>
      <trkpt lat="38.3973100" lon="-0.7076820">
        <ele>240.4</ele>
        <time>2020-10-12T07:58:06Z</time>
      </trkpt>
      <trkpt lat="38.3973610" lon="-0.7076190">
        <ele>240.8</ele>
        <time>2020-10-12T07:58:07Z</time>
      </trkpt>
      <trkpt lat="38.3974130" lon="-0.7075590">
        <ele>241.2</ele>
        <time>2020-10-12T07:58:08Z</time>
      </trkpt>
      <trkpt lat="38.3974650" lon="-0.7074990">
        <ele>241.4</ele>
        <time>2020-10-12T07:58:09Z</time>
      </trkpt>
      <trkpt lat="38.3975170" lon="-0.7074370">
        <ele>242.0</ele>
        <time>2020-10-12T07:58:10Z</time>
      </trkpt>
      <trkpt lat="38.3975700" lon="-0.7073770">
        <ele>242.4</ele>
        <time>2020-10-12T07:58:11Z</time>
      </trkpt>
      <trkpt lat="38.3976230" lon="-0.7073150">
        <ele>242.4</ele>
        <time>2020-10-12T07:58:12Z</time>
      </trkpt>
      <trkpt lat="38.3976740" lon="-0.7072530">
        <ele>242.6</ele>
        <time>2020-10-12T07:58:13Z</time>
      </trkpt>
      <trkpt lat="38.3977240" lon="-0.7071940">
        <ele>242.6</ele>
        <time>2020-10-12T07:58:14Z</time>
      </trkpt>
      <trkpt lat="38.3977750" lon="-0.7071330">
        <ele>242.2</ele>
        <time>2020-10-12T07:58:15Z</time>
      </trkpt>
      <trkpt lat="38.3978250" lon="-0.7070700">
        <ele>242.4</ele>
        <time>2020-10-12T07:58:16Z</time>
      </trkpt>
      <trkpt lat="38.3978760" lon="-0.7070110">
        <ele>242.4</ele>
        <time>2020-10-12T07:58:17Z</time>
      </trkpt>
      <trkpt lat="38.3979270" lon="-0.7069540">
        <ele>242.6</ele>
        <time>2020-10-12T07:58:18Z</time>
      </trkpt>
      <trkpt lat="38.3979800" lon="-0.7068920">
        <ele>242.8</ele>
        <time>2020-10-12T07:58:19Z</time>
      </trkpt>
      <trkpt lat="38.3980330" lon="-0.7068340">
        <ele>243.0</ele>
        <time>2020-10-12T07:58:20Z</time>
      </trkpt>
      <trkpt lat="38.3980850" lon="-0.7067750">
        <ele>243.6</ele>
        <time>2020-10-12T07:58:21Z</time>
      </trkpt>
      <trkpt lat="38.3981360" lon="-0.7067130">
        <ele>244.0</ele>
        <time>2020-10-12T07:58:22Z</time>
      </trkpt>
      <trkpt lat="38.3981850" lon="-0.7066530">
        <ele>244.2</ele>
        <time>2020-10-12T07:58:23Z</time>
      </trkpt>
      <trkpt lat="38.3982340" lon="-0.7065940">
        <ele>244.2</ele>
        <time>2020-10-12T07:58:24Z</time>
      </trkpt>
      <trkpt lat="38.3982820" lon="-0.7065320">
        <ele>244.0</ele>
        <time>2020-10-12T07:58:25Z</time>
      </trkpt>
      <trkpt lat="38.3983300" lon="-0.7064730">
        <ele>244.0</ele>
        <time>2020-10-12T07:58:26Z</time>
      </trkpt>
      <trkpt lat="38.3983790" lon="-0.7064150">
        <ele>244.0</ele>
        <time>2020-10-12T07:58:27Z</time>
      </trkpt>
      <trkpt lat="38.3984260" lon="-0.7063560">
        <ele>244.0</ele>
        <time>2020-10-12T07:58:28Z</time>
      </trkpt>
      <trkpt lat="38.3984740" lon="-0.7062970">
        <ele>244.0</ele>
        <time>2020-10-12T07:58:29Z</time>
      </trkpt>
      <trkpt lat="38.3985220" lon="-0.7062390">
        <ele>243.8</ele>
        <time>2020-10-12T07:58:30Z</time>
      </trkpt>
      <trkpt lat="38.3985700" lon="-0.7061810">
        <ele>244.0</ele>
        <time>2020-10-12T07:58:31Z</time>
      </trkpt>
      <trkpt lat="38.3986180" lon="-0.7061220">
        <ele>244.0</ele>
        <time>2020-10-12T07:58:32Z</time>
      </trkpt>
      <trkpt lat="38.3986660" lon="-0.7060650">
        <ele>244.0</ele>
        <time>2020-10-12T07:58:33Z</time>
      </trkpt>
      <trkpt lat="38.3987150" lon="-0.7060070">
        <ele>244.0</ele>
        <time>2020-10-12T07:58:34Z</time>
      </trkpt>
      <trkpt lat="38.3987640" lon="-0.7059480">
        <ele>244.2</ele>
        <time>2020-10-12T07:58:35Z</time>
      </trkpt>
      <trkpt lat="38.3988120" lon="-0.7058910">
        <ele>244.6</ele>
        <time>2020-10-12T07:58:36Z</time>
      </trkpt>
      <trkpt lat="38.3988600" lon="-0.7058330">
        <ele>244.8</ele>
        <time>2020-10-12T07:58:37Z</time>
      </trkpt>
      <trkpt lat="38.3989080" lon="-0.7057780">
        <ele>245.0</ele>
        <time>2020-10-12T07:58:38Z</time>
      </trkpt>
      <trkpt lat="38.3989560" lon="-0.7057180">
        <ele>245.2</ele>
        <time>2020-10-12T07:58:39Z</time>
      </trkpt>
      <trkpt lat="38.3990050" lon="-0.7056650">
        <ele>245.4</ele>
        <time>2020-10-12T07:58:40Z</time>
      </trkpt>
      <trkpt lat="38.3990550" lon="-0.7056110">
        <ele>245.4</ele>
        <time>2020-10-12T07:58:41Z</time>
      </trkpt>
      <trkpt lat="38.3991030" lon="-0.7055540">
        <ele>245.6</ele>
        <time>2020-10-12T07:58:42Z</time>
      </trkpt>
      <trkpt lat="38.3991500" lon="-0.7054970">
        <ele>245.6</ele>
        <time>2020-10-12T07:58:43Z</time>
      </trkpt>
      <trkpt lat="38.3991980" lon="-0.7054400">
        <ele>245.8</ele>
        <time>2020-10-12T07:58:44Z</time>
      </trkpt>
      <trkpt lat="38.3992460" lon="-0.7053820">
        <ele>246.2</ele>
        <time>2020-10-12T07:58:45Z</time>
      </trkpt>
      <trkpt lat="38.3992940" lon="-0.7053230">
        <ele>246.4</ele>
        <time>2020-10-12T07:58:46Z</time>
      </trkpt>
      <trkpt lat="38.3993420" lon="-0.7052640">
        <ele>247.0</ele>
        <time>2020-10-12T07:58:47Z</time>
      </trkpt>
      <trkpt lat="38.3993900" lon="-0.7052080">
        <ele>247.4</ele>
        <time>2020-10-12T07:58:48Z</time>
      </trkpt>
      <trkpt lat="38.3994380" lon="-0.7051510">
        <ele>247.6</ele>
        <time>2020-10-12T07:58:49Z</time>
      </trkpt>
      <trkpt lat="38.3994850" lon="-0.7050940">
        <ele>247.8</ele>
        <time>2020-10-12T07:58:50Z</time>
      </trkpt>
      <trkpt lat="38.3995320" lon="-0.7050390">
        <ele>247.8</ele>
        <time>2020-10-12T07:58:51Z</time>
      </trkpt>
      <trkpt lat="38.3995780" lon="-0.7049830">
        <ele>247.8</ele>
        <time>2020-10-12T07:58:52Z</time>
      </trkpt>
      <trkpt lat="38.3996250" lon="-0.7049270">
        <ele>248.0</ele>
        <time>2020-10-12T07:58:53Z</time>
      </trkpt>
      <trkpt lat="38.3996710" lon="-0.7048690">
        <ele>248.0</ele>
        <time>2020-10-12T07:58:54Z</time>
      </trkpt>
      <trkpt lat="38.3997180" lon="-0.7048140">
        <ele>248.0</ele>
        <time>2020-10-12T07:58:55Z</time>
      </trkpt>
      <trkpt lat="38.3997650" lon="-0.7047580">
        <ele>248.2</ele>
        <time>2020-10-12T07:58:56Z</time>
      </trkpt>
      <trkpt lat="38.3998130" lon="-0.7047010">
        <ele>248.2</ele>
        <time>2020-10-12T07:58:57Z</time>
      </trkpt>
      <trkpt lat="38.3998600" lon="-0.7046420">
        <ele>248.2</ele>
        <time>2020-10-12T07:58:58Z</time>
      </trkpt>
      <trkpt lat="38.3999070" lon="-0.7045850">
        <ele>248.2</ele>
        <time>2020-10-12T07:58:59Z</time>
      </trkpt>
      <trkpt lat="38.3999530" lon="-0.7045290">
        <ele>248.0</ele>
        <time>2020-10-12T07:59:00Z</time>
      </trkpt>
      <trkpt lat="38.4000000" lon="-0.7044730">
        <ele>248.2</ele>
        <time>2020-10-12T07:59:01Z</time>
      </trkpt>
      <trkpt lat="38.4000470" lon="-0.7044140">
        <ele>248.0</ele>
        <time>2020-10-12T07:59:02Z</time>
      </trkpt>
      <trkpt lat="38.4000930" lon="-0.7043560">
        <ele>248.0</ele>
        <time>2020-10-12T07:59:03Z</time>
      </trkpt>
      <trkpt lat="38.4001400" lon="-0.7043000">
        <ele>248.2</ele>
        <time>2020-10-12T07:59:04Z</time>
      </trkpt>
      <trkpt lat="38.4001870" lon="-0.7042440">
        <ele>248.2</ele>
        <time>2020-10-12T07:59:05Z</time>
      </trkpt>
      <trkpt lat="38.4002330" lon="-0.7041880">
        <ele>248.6</ele>
        <time>2020-10-12T07:59:06Z</time>
      </trkpt>
      <trkpt lat="38.4002790" lon="-0.7041340">
        <ele>248.8</ele>
        <time>2020-10-12T07:59:07Z</time>
      </trkpt>
      <trkpt lat="38.4003250" lon="-0.7040810">
        <ele>248.8</ele>
        <time>2020-10-12T07:59:08Z</time>
      </trkpt>
      <trkpt lat="38.4003720" lon="-0.7040280">
        <ele>249.0</ele>
        <time>2020-10-12T07:59:09Z</time>
      </trkpt>
      <trkpt lat="38.4004180" lon="-0.7039740">
        <ele>249.2</ele>
        <time>2020-10-12T07:59:10Z</time>
      </trkpt>
      <trkpt lat="38.4004640" lon="-0.7039190">
        <ele>249.4</ele>
        <time>2020-10-12T07:59:11Z</time>
      </trkpt>
      <trkpt lat="38.4005100" lon="-0.7038640">
        <ele>249.2</ele>
        <time>2020-10-12T07:59:12Z</time>
      </trkpt>
      <trkpt lat="38.4005560" lon="-0.7038080">
        <ele>249.2</ele>
        <time>2020-10-12T07:59:13Z</time>
      </trkpt>
      <trkpt lat="38.4006010" lon="-0.7037520">
        <ele>249.4</ele>
        <time>2020-10-12T07:59:14Z</time>
      </trkpt>
      <trkpt lat="38.4006460" lon="-0.7036950">
        <ele>250.0</ele>
        <time>2020-10-12T07:59:15Z</time>
      </trkpt>
      <trkpt lat="38.4006920" lon="-0.7036390">
        <ele>250.6</ele>
        <time>2020-10-12T07:59:16Z</time>
      </trkpt>
      <trkpt lat="38.4007380" lon="-0.7035830">
        <ele>251.0</ele>
        <time>2020-10-12T07:59:17Z</time>
      </trkpt>
      <trkpt lat="38.4007830" lon="-0.7035270">
        <ele>251.2</ele>
        <time>2020-10-12T07:59:18Z</time>
      </trkpt>
      <trkpt lat="38.4008280" lon="-0.7034710">
        <ele>251.4</ele>
        <time>2020-10-12T07:59:19Z</time>
      </trkpt>
      <trkpt lat="38.4008740" lon="-0.7034150">
        <ele>251.8</ele>
        <time>2020-10-12T07:59:20Z</time>
      </trkpt>
      <trkpt lat="38.4009200" lon="-0.7033600">
        <ele>251.8</ele>
        <time>2020-10-12T07:59:21Z</time>
      </trkpt>
      <trkpt lat="38.4009660" lon="-0.7033070">
        <ele>252.0</ele>
        <time>2020-10-12T07:59:22Z</time>
      </trkpt>
      <trkpt lat="38.4010120" lon="-0.7032520">
        <ele>252.0</ele>
        <time>2020-10-12T07:59:23Z</time>
      </trkpt>
      <trkpt lat="38.4010560" lon="-0.7031960">
        <ele>252.0</ele>
        <time>2020-10-12T07:59:24Z</time>
      </trkpt>
      <trkpt lat="38.4011000" lon="-0.7031400">
        <ele>251.8</ele>
        <time>2020-10-12T07:59:25Z</time>
      </trkpt>
      <trkpt lat="38.4011450" lon="-0.7030840">
        <ele>251.8</ele>
        <time>2020-10-12T07:59:26Z</time>
      </trkpt>
      <trkpt lat="38.4011910" lon="-0.7030300">
        <ele>251.6</ele>
        <time>2020-10-12T07:59:27Z</time>
      </trkpt>
      <trkpt lat="38.4012350" lon="-0.7029760">
        <ele>251.8</ele>
        <time>2020-10-12T07:59:28Z</time>
      </trkpt>
      <trkpt lat="38.4012780" lon="-0.7029210">
        <ele>252.2</ele>
        <time>2020-10-12T07:59:29Z</time>
      </trkpt>
      <trkpt lat="38.4013220" lon="-0.7028680">
        <ele>252.2</ele>
        <time>2020-10-12T07:59:30Z</time>
      </trkpt>
      <trkpt lat="38.4013680" lon="-0.7028140">
        <ele>252.4</ele>
        <time>2020-10-12T07:59:31Z</time>
      </trkpt>
      <trkpt lat="38.4014140" lon="-0.7027590">
        <ele>252.6</ele>
        <time>2020-10-12T07:59:32Z</time>
      </trkpt>
      <trkpt lat="38.4014610" lon="-0.7027040">
        <ele>252.8</ele>
        <time>2020-10-12T07:59:33Z</time>
      </trkpt>
      <trkpt lat="38.4015050" lon="-0.7026440">
        <ele>253.0</ele>
        <time>2020-10-12T07:59:34Z</time>
      </trkpt>
      <trkpt lat="38.4015480" lon="-0.7025860">
        <ele>253.4</ele>
        <time>2020-10-12T07:59:35Z</time>
      </trkpt>
      <trkpt lat="38.4015940" lon="-0.7025290">
        <ele>253.6</ele>
        <time>2020-10-12T07:59:36Z</time>
      </trkpt>
      <trkpt lat="38.4016410" lon="-0.7024760">
        <ele>253.8</ele>
        <time>2020-10-12T07:59:37Z</time>
      </trkpt>
      <trkpt lat="38.4016880" lon="-0.7024230">
        <ele>254.0</ele>
        <time>2020-10-12T07:59:38Z</time>
      </trkpt>
      <trkpt lat="38.4017330" lon="-0.7023670">
        <ele>254.2</ele>
        <time>2020-10-12T07:59:39Z</time>
      </trkpt>
      <trkpt lat="38.4017810" lon="-0.7023110">
        <ele>254.4</ele>
        <time>2020-10-12T07:59:40Z</time>
      </trkpt>
      <trkpt lat="38.4018330" lon="-0.7022540">
        <ele>254.6</ele>
        <time>2020-10-12T07:59:41Z</time>
      </trkpt>
      <trkpt lat="38.4018840" lon="-0.7021980">
        <ele>255.0</ele>
        <time>2020-10-12T07:59:42Z</time>
      </trkpt>
      <trkpt lat="38.4019340" lon="-0.7021410">
        <ele>255.4</ele>
        <time>2020-10-12T07:59:43Z</time>
      </trkpt>
      <trkpt lat="38.4019840" lon="-0.7020800">
        <ele>255.8</ele>
        <time>2020-10-12T07:59:44Z</time>
      </trkpt>
      <trkpt lat="38.4020310" lon="-0.7020180">
        <ele>256.0</ele>
        <time>2020-10-12T07:59:45Z</time>
      </trkpt>
      <trkpt lat="38.4020780" lon="-0.7019570">
        <ele>256.2</ele>
        <time>2020-10-12T07:59:46Z</time>
      </trkpt>
      <trkpt lat="38.4021260" lon="-0.7018990">
        <ele>256.2</ele>
        <time>2020-10-12T07:59:47Z</time>
      </trkpt>
      <trkpt lat="38.4021730" lon="-0.7018430">
        <ele>256.4</ele>
        <time>2020-10-12T07:59:48Z</time>
      </trkpt>
      <trkpt lat="38.4022200" lon="-0.7017860">
        <ele>256.6</ele>
        <time>2020-10-12T07:59:49Z</time>
      </trkpt>
      <trkpt lat="38.4022650" lon="-0.7017270">
        <ele>256.8</ele>
        <time>2020-10-12T07:59:50Z</time>
      </trkpt>
      <trkpt lat="38.4023110" lon="-0.7016690">
        <ele>256.8</ele>
        <time>2020-10-12T07:59:51Z</time>
      </trkpt>
      <trkpt lat="38.4023570" lon="-0.7016140">
        <ele>256.8</ele>
        <time>2020-10-12T07:59:52Z</time>
      </trkpt>
      <trkpt lat="38.4024020" lon="-0.7015610">
        <ele>256.8</ele>
        <time>2020-10-12T07:59:53Z</time>
      </trkpt>
      <trkpt lat="38.4024490" lon="-0.7015060">
        <ele>257.0</ele>
        <time>2020-10-12T07:59:54Z</time>
      </trkpt>
      <trkpt lat="38.4024940" lon="-0.7014510">
        <ele>257.0</ele>
        <time>2020-10-12T07:59:55Z</time>
      </trkpt>
      <trkpt lat="38.4025400" lon="-0.7013920">
        <ele>257.2</ele>
        <time>2020-10-12T07:59:56Z</time>
      </trkpt>
      <trkpt lat="38.4025840" lon="-0.7013340">
        <ele>257.2</ele>
        <time>2020-10-12T07:59:57Z</time>
      </trkpt>
      <trkpt lat="38.4026320" lon="-0.7012770">
        <ele>257.4</ele>
        <time>2020-10-12T07:59:58Z</time>
      </trkpt>
      <trkpt lat="38.4026790" lon="-0.7012220">
        <ele>257.6</ele>
        <time>2020-10-12T07:59:59Z</time>
      </trkpt>
      <trkpt lat="38.4027260" lon="-0.7011650">
        <ele>257.6</ele>
        <time>2020-10-12T08:00:00Z</time>
      </trkpt>
      <trkpt lat="38.4027740" lon="-0.7011060">
        <ele>257.8</ele>
        <time>2020-10-12T08:00:01Z</time>
      </trkpt>
      <trkpt lat="38.4028220" lon="-0.7010440">
        <ele>258.2</ele>
        <time>2020-10-12T08:00:02Z</time>
      </trkpt>
      <trkpt lat="38.4028680" lon="-0.7009830">
        <ele>258.4</ele>
        <time>2020-10-12T08:00:03Z</time>
      </trkpt>
      <trkpt lat="38.4029160" lon="-0.7009250">
        <ele>258.8</ele>
        <time>2020-10-12T08:00:04Z</time>
      </trkpt>
      <trkpt lat="38.4029640" lon="-0.7008680">
        <ele>258.8</ele>
        <time>2020-10-12T08:00:05Z</time>
      </trkpt>
      <trkpt lat="38.4030130" lon="-0.7008120">
        <ele>259.0</ele>
        <time>2020-10-12T08:00:06Z</time>
      </trkpt>
      <trkpt lat="38.4030640" lon="-0.7007570">
        <ele>259.0</ele>
        <time>2020-10-12T08:00:07Z</time>
      </trkpt>
      <trkpt lat="38.4031140" lon="-0.7006970">
        <ele>259.0</ele>
        <time>2020-10-12T08:00:08Z</time>
      </trkpt>
      <trkpt lat="38.4031610" lon="-0.7006330">
        <ele>259.0</ele>
        <time>2020-10-12T08:00:09Z</time>
      </trkpt>
      <trkpt lat="38.4032080" lon="-0.7005710">
        <ele>259.0</ele>
        <time>2020-10-12T08:00:10Z</time>
      </trkpt>
      <trkpt lat="38.4032570" lon="-0.7005080">
        <ele>259.2</ele>
        <time>2020-10-12T08:00:11Z</time>
      </trkpt>
      <trkpt lat="38.4033050" lon="-0.7004430">
        <ele>259.2</ele>
        <time>2020-10-12T08:00:12Z</time>
      </trkpt>
      <trkpt lat="38.4033520" lon="-0.7003780">
        <ele>259.4</ele>
        <time>2020-10-12T08:00:13Z</time>
      </trkpt>
      <trkpt lat="38.4033960" lon="-0.7003110">
        <ele>259.6</ele>
        <time>2020-10-12T08:00:14Z</time>
      </trkpt>
      <trkpt lat="38.4034380" lon="-0.7002420">
        <ele>259.6</ele>
        <time>2020-10-12T08:00:15Z</time>
      </trkpt>
      <trkpt lat="38.4034780" lon="-0.7001680">
        <ele>259.6</ele>
        <time>2020-10-12T08:00:16Z</time>
      </trkpt>
      <trkpt lat="38.4035180" lon="-0.7000940">
        <ele>259.8</ele>
        <time>2020-10-12T08:00:17Z</time>
      </trkpt>
      <trkpt lat="38.4035560" lon="-0.7000190">
        <ele>260.2</ele>
        <time>2020-10-12T08:00:18Z</time>
      </trkpt>
      <trkpt lat="38.4035950" lon="-0.6999420">
        <ele>260.4</ele>
        <time>2020-10-12T08:00:19Z</time>
      </trkpt>
      <trkpt lat="38.4036330" lon="-0.6998640">
        <ele>260.6</ele>
        <time>2020-10-12T08:00:20Z</time>
      </trkpt>
      <trkpt lat="38.4036670" lon="-0.6997840">
        <ele>260.8</ele>
        <time>2020-10-12T08:00:21Z</time>
      </trkpt>
      <trkpt lat="38.4036990" lon="-0.6997020">
        <ele>261.0</ele>
        <time>2020-10-12T08:00:22Z</time>
      </trkpt>
      <trkpt lat="38.4037310" lon="-0.6996200">
        <ele>261.2</ele>
        <time>2020-10-12T08:00:23Z</time>
      </trkpt>
      <trkpt lat="38.4037610" lon="-0.6995400">
        <ele>261.2</ele>
        <time>2020-10-12T08:00:24Z</time>
      </trkpt>
      <trkpt lat="38.4037900" lon="-0.6994620">
        <ele>261.2</ele>
        <time>2020-10-12T08:00:25Z</time>
      </trkpt>
      <trkpt lat="38.4038180" lon="-0.6993830">
        <ele>261.4</ele>
        <time>2020-10-12T08:00:26Z</time>
      </trkpt>
      <trkpt lat="38.4038460" lon="-0.6993010">
        <ele>261.4</ele>
        <time>2020-10-12T08:00:27Z</time>
      </trkpt>
      <trkpt lat="38.4038750" lon="-0.6992140">
        <ele>261.6</ele>
        <time>2020-10-12T08:00:28Z</time>
      </trkpt>
      <trkpt lat="38.4039050" lon="-0.6991210">
        <ele>261.8</ele>
        <time>2020-10-12T08:00:29Z</time>
      </trkpt>
      <trkpt lat="38.4039340" lon="-0.6990330">
        <ele>261.8</ele>
        <time>2020-10-12T08:00:30Z</time>
      </trkpt>
      <trkpt lat="38.4039610" lon="-0.6989480">
        <ele>262.0</ele>
        <time>2020-10-12T08:00:31Z</time>
      </trkpt>
      <trkpt lat="38.4039880" lon="-0.6988660">
        <ele>262.2</ele>
        <time>2020-10-12T08:00:32Z</time>
      </trkpt>
      <trkpt lat="38.4040150" lon="-0.6987840">
        <ele>262.2</ele>
        <time>2020-10-12T08:00:33Z</time>
      </trkpt>
      <trkpt lat="38.4040430" lon="-0.6987020">
        <ele>262.4</ele>
        <time>2020-10-12T08:00:34Z</time>
      </trkpt>
      <trkpt lat="38.4040720" lon="-0.6986170">
        <ele>262.4</ele>
        <time>2020-10-12T08:00:35Z</time>
      </trkpt>
      <trkpt lat="38.4040980" lon="-0.6985290">
        <ele>262.6</ele>
        <time>2020-10-12T08:00:36Z</time>
      </trkpt>
      <trkpt lat="38.4041240" lon="-0.6984400">
        <ele>262.6</ele>
        <time>2020-10-12T08:00:37Z</time>
      </trkpt>
      <trkpt lat="38.4041520" lon="-0.6983520">
        <ele>262.8</ele>
        <time>2020-10-12T08:00:38Z</time>
      </trkpt>
      <trkpt lat="38.4041770" lon="-0.6982650">
        <ele>263.0</ele>
        <time>2020-10-12T08:00:39Z</time>
      </trkpt>
      <trkpt lat="38.4041990" lon="-0.6981770">
        <ele>263.0</ele>
        <time>2020-10-12T08:00:40Z</time>
      </trkpt>
      <trkpt lat="38.4042180" lon="-0.6980900">
        <ele>263.2</ele>
        <time>2020-10-12T08:00:41Z</time>
      </trkpt>
      <trkpt lat="38.4042310" lon="-0.6980030">
        <ele>263.2</ele>
        <time>2020-10-12T08:00:42Z</time>
      </trkpt>
      <trkpt lat="38.4042380" lon="-0.6979120">
        <ele>263.2</ele>
        <time>2020-10-12T08:00:43Z</time>
      </trkpt>
      <trkpt lat="38.4042370" lon="-0.6978200">
        <ele>263.2</ele>
        <time>2020-10-12T08:00:44Z</time>
      </trkpt>
      <trkpt lat="38.4042330" lon="-0.6977270">
        <ele>263.2</ele>
        <time>2020-10-12T08:00:45Z</time>
      </trkpt>
      <trkpt lat="38.4042390" lon="-0.6976360">
        <ele>263.0</ele>
        <time>2020-10-12T08:00:46Z</time>
      </trkpt>
      <trkpt lat="38.4042600" lon="-0.6975520">
        <ele>262.8</ele>
        <time>2020-10-12T08:00:47Z</time>
      </trkpt>
      <trkpt lat="38.4042990" lon="-0.6974850">
        <ele>262.6</ele>
        <time>2020-10-12T08:00:48Z</time>
      </trkpt>
      <trkpt lat="38.4043490" lon="-0.6974380">
        <ele>262.6</ele>
        <time>2020-10-12T08:00:49Z</time>
      </trkpt>
      <trkpt lat="38.4044030" lon="-0.6974300">
        <ele>262.8</ele>
        <time>2020-10-12T08:00:50Z</time>
      </trkpt>
      <trkpt lat="38.4044610" lon="-0.6974500">
        <ele>263.0</ele>
        <time>2020-10-12T08:00:51Z</time>
      </trkpt>
      <trkpt lat="38.4045280" lon="-0.6974900">
        <ele>263.0</ele>
        <time>2020-10-12T08:00:52Z</time>
      </trkpt>
      <trkpt lat="38.4045940" lon="-0.6975350">
        <ele>263.4</ele>
        <time>2020-10-12T08:00:53Z</time>
      </trkpt>
      <trkpt lat="38.4046610" lon="-0.6975680">
        <ele>263.8</ele>
        <time>2020-10-12T08:00:54Z</time>
      </trkpt>
      <trkpt lat="38.4047260" lon="-0.6975890">
        <ele>263.8</ele>
        <time>2020-10-12T08:00:55Z</time>
      </trkpt>
      <trkpt lat="38.4047940" lon="-0.6976030">
        <ele>264.0</ele>
        <time>2020-10-12T08:00:56Z</time>
      </trkpt>
      <trkpt lat="38.4048620" lon="-0.6976090">
        <ele>264.2</ele>
        <time>2020-10-12T08:00:57Z</time>
      </trkpt>
      <trkpt lat="38.4049280" lon="-0.6976120">
        <ele>264.2</ele>
        <time>2020-10-12T08:00:58Z</time>
      </trkpt>
      <trkpt lat="38.4049950" lon="-0.6976120">
        <ele>264.4</ele>
        <time>2020-10-12T08:00:59Z</time>
      </trkpt>
      <trkpt lat="38.4050650" lon="-0.6976130">
        <ele>264.8</ele>
        <time>2020-10-12T08:01:00Z</time>
      </trkpt>
      <trkpt lat="38.4051360" lon="-0.6976100">
        <ele>265.0</ele>
        <time>2020-10-12T08:01:01Z</time>
      </trkpt>
      <trkpt lat="38.4052070" lon="-0.6976090">
        <ele>265.2</ele>
        <time>2020-10-12T08:01:02Z</time>
      </trkpt>
      <trkpt lat="38.4052740" lon="-0.6976110">
        <ele>265.0</ele>
        <time>2020-10-12T08:01:03Z</time>
      </trkpt>
      <trkpt lat="38.4053430" lon="-0.6976090">
        <ele>264.8</ele>
        <time>2020-10-12T08:01:04Z</time>
      </trkpt>
      <trkpt lat="38.4054090" lon="-0.6976060">
        <ele>264.8</ele>
        <time>2020-10-12T08:01:05Z</time>
      </trkpt>
      <trkpt lat="38.4054760" lon="-0.6976080">
        <ele>264.6</ele>
        <time>2020-10-12T08:01:06Z</time>
      </trkpt>
      <trkpt lat="38.4055450" lon="-0.6976110">
        <ele>264.6</ele>
        <time>2020-10-12T08:01:07Z</time>
      </trkpt>
      <trkpt lat="38.4056150" lon="-0.6976130">
        <ele>264.6</ele>
        <time>2020-10-12T08:01:08Z</time>
      </trkpt>
      <trkpt lat="38.4056830" lon="-0.6976160">
        <ele>264.8</ele>
        <time>2020-10-12T08:01:09Z</time>
      </trkpt>
      <trkpt lat="38.4057510" lon="-0.6976100">
        <ele>264.8</ele>
        <time>2020-10-12T08:01:10Z</time>
      </trkpt>
      <trkpt lat="38.4058230" lon="-0.6976070">
        <ele>264.8</ele>
        <time>2020-10-12T08:01:11Z</time>
      </trkpt>
      <trkpt lat="38.4058940" lon="-0.6976030">
        <ele>264.8</ele>
        <time>2020-10-12T08:01:12Z</time>
      </trkpt>
      <trkpt lat="38.4059650" lon="-0.6975960">
        <ele>265.0</ele>
        <time>2020-10-12T08:01:13Z</time>
      </trkpt>
      <trkpt lat="38.4060340" lon="-0.6975910">
        <ele>265.4</ele>
        <time>2020-10-12T08:01:14Z</time>
      </trkpt>
      <trkpt lat="38.4061010" lon="-0.6975870">
        <ele>265.6</ele>
        <time>2020-10-12T08:01:15Z</time>
      </trkpt>
      <trkpt lat="38.4061660" lon="-0.6975810">
        <ele>265.8</ele>
        <time>2020-10-12T08:01:16Z</time>
      </trkpt>
      <trkpt lat="38.4062510" lon="-0.6976080">
        <ele>266.0</ele>
        <time>2020-10-12T08:01:17Z</time>
      </trkpt>
      <trkpt lat="38.4063130" lon="-0.6975890">
        <ele>266.4</ele>
        <time>2020-10-12T08:01:18Z</time>
      </trkpt>
      <trkpt lat="38.4063750" lon="-0.6975670">
        <ele>266.6</ele>
        <time>2020-10-12T08:01:19Z</time>
      </trkpt>
      <trkpt lat="38.4064480" lon="-0.6975640">
        <ele>266.4</ele>
        <time>2020-10-12T08:01:20Z</time>
      </trkpt>
      <trkpt lat="38.4065110" lon="-0.6975630">
        <ele>266.0</ele>
        <time>2020-10-12T08:01:21Z</time>
      </trkpt>
      <trkpt lat="38.4065940" lon="-0.6975880">
        <ele>266.0</ele>
        <time>2020-10-12T08:01:22Z</time>
      </trkpt>
      <trkpt lat="38.4066490" lon="-0.6975910">
        <ele>265.8</ele>
        <time>2020-10-12T08:01:23Z</time>
      </trkpt>
      <trkpt lat="38.4066980" lon="-0.6975710">
        <ele>266.0</ele>
        <time>2020-10-12T08:01:24Z</time>
      </trkpt>
      <trkpt lat="38.4067760" lon="-0.6975700">
        <ele>266.0</ele>
        <time>2020-10-12T08:01:25Z</time>
      </trkpt>
      <trkpt lat="38.4068460" lon="-0.6975650">
        <ele>266.2</ele>
        <time>2020-10-12T08:01:26Z</time>
      </trkpt>
      <trkpt lat="38.4069080" lon="-0.6975580">
        <ele>266.4</ele>
        <time>2020-10-12T08:01:27Z</time>
      </trkpt>
      <trkpt lat="38.4069680" lon="-0.6975500">
        <ele>266.6</ele>
        <time>2020-10-12T08:01:28Z</time>
      </trkpt>
      <trkpt lat="38.4070290" lon="-0.6975420">
        <ele>266.8</ele>
        <time>2020-10-12T08:01:29Z</time>
      </trkpt>
      <trkpt lat="38.4070890" lon="-0.6975330">
        <ele>267.0</ele>
        <time>2020-10-12T08:01:30Z</time>
      </trkpt>
      <trkpt lat="38.4071520" lon="-0.6975250">
        <ele>267.2</ele>
        <time>2020-10-12T08:01:31Z</time>
      </trkpt>
      <trkpt lat="38.4072140" lon="-0.6975170">
        <ele>267.4</ele>
        <time>2020-10-12T08:01:32Z</time>
      </trkpt>
      <trkpt lat="38.4072730" lon="-0.6975080">
        <ele>267.6</ele>
        <time>2020-10-12T08:01:33Z</time>
      </trkpt>
      <trkpt lat="38.4073320" lon="-0.6974990">
        <ele>268.0</ele>
        <time>2020-10-12T08:01:34Z</time>
      </trkpt>
      <trkpt lat="38.4073910" lon="-0.6974890">
        <ele>268.6</ele>
        <time>2020-10-12T08:01:35Z</time>
      </trkpt>
      <trkpt lat="38.4074450" lon="-0.6974800">
        <ele>269.4</ele>
        <time>2020-10-12T08:01:36Z</time>
      </trkpt>
      <trkpt lat="38.4075020" lon="-0.6974730">
        <ele>269.8</ele>
        <time>2020-10-12T08:01:37Z</time>
      </trkpt>
      <trkpt lat="38.4075580" lon="-0.6974670">
        <ele>270.2</ele>
        <time>2020-10-12T08:01:38Z</time>
      </trkpt>
      <trkpt lat="38.4076130" lon="-0.6974580">
        <ele>270.4</ele>
        <time>2020-10-12T08:01:39Z</time>
      </trkpt>
      <trkpt lat="38.4076710" lon="-0.6974470">
        <ele>270.6</ele>
        <time>2020-10-12T08:01:40Z</time>
      </trkpt>
      <trkpt lat="38.4077270" lon="-0.6974370">
        <ele>270.6</ele>
        <time>2020-10-12T08:01:41Z</time>
      </trkpt>
      <trkpt lat="38.4077840" lon="-0.6974250">
        <ele>270.8</ele>
        <time>2020-10-12T08:01:42Z</time>
      </trkpt>
      <trkpt lat="38.4078390" lon="-0.6974160">
        <ele>270.8</ele>
        <time>2020-10-12T08:01:43Z</time>
      </trkpt>
      <trkpt lat="38.4078890" lon="-0.6974100">
        <ele>271.0</ele>
        <time>2020-10-12T08:01:44Z</time>
      </trkpt>
      <trkpt lat="38.4079400" lon="-0.6974060">
        <ele>271.2</ele>
        <time>2020-10-12T08:01:45Z</time>
      </trkpt>
      <trkpt lat="38.4079890" lon="-0.6974010">
        <ele>271.6</ele>
        <time>2020-10-12T08:01:46Z</time>
      </trkpt>
      <trkpt lat="38.4080400" lon="-0.6973930">
        <ele>272.0</ele>
        <time>2020-10-12T08:01:47Z</time>
      </trkpt>
      <trkpt lat="38.4080900" lon="-0.6973890">
        <ele>272.0</ele>
        <time>2020-10-12T08:01:48Z</time>
      </trkpt>
      <trkpt lat="38.4081380" lon="-0.6973880">
        <ele>272.2</ele>
        <time>2020-10-12T08:01:49Z</time>
      </trkpt>
      <trkpt lat="38.4081870" lon="-0.6973930">
        <ele>272.2</ele>
        <time>2020-10-12T08:01:50Z</time>
      </trkpt>
      <trkpt lat="38.4082370" lon="-0.6974000">
        <ele>272.4</ele>
        <time>2020-10-12T08:01:51Z</time>
      </trkpt>
      <trkpt lat="38.4082880" lon="-0.6974060">
        <ele>272.6</ele>
        <time>2020-10-12T08:01:52Z</time>
      </trkpt>
      <trkpt lat="38.4083370" lon="-0.6974090">
        <ele>272.8</ele>
        <time>2020-10-12T08:01:53Z</time>
      </trkpt>
      <trkpt lat="38.4083890" lon="-0.6974090">
        <ele>273.0</ele>
        <time>2020-10-12T08:01:54Z</time>
      </trkpt>
      <trkpt lat="38.4084410" lon="-0.6974070">
        <ele>273.2</ele>
        <time>2020-10-12T08:01:55Z</time>
      </trkpt>
      <trkpt lat="38.4084930" lon="-0.6974010">
        <ele>273.4</ele>
        <time>2020-10-12T08:01:56Z</time>
      </trkpt>
      <trkpt lat="38.4085430" lon="-0.6973940">
        <ele>273.4</ele>
        <time>2020-10-12T08:01:57Z</time>
      </trkpt>
      <trkpt lat="38.4085910" lon="-0.6973850">
        <ele>273.6</ele>
        <time>2020-10-12T08:01:58Z</time>
      </trkpt>
      <trkpt lat="38.4086380" lon="-0.6973740">
        <ele>273.8</ele>
        <time>2020-10-12T08:01:59Z</time>
      </trkpt>
      <trkpt lat="38.4086900" lon="-0.6973660">
        <ele>274.0</ele>
        <time>2020-10-12T08:02:00Z</time>
      </trkpt>
      <trkpt lat="38.4087410" lon="-0.6973600">
        <ele>274.4</ele>
        <time>2020-10-12T08:02:01Z</time>
      </trkpt>
      <trkpt lat="38.4087940" lon="-0.6973540">
        <ele>274.8</ele>
        <time>2020-10-12T08:02:02Z</time>
      </trkpt>
      <trkpt lat="38.4088490" lon="-0.6973500">
        <ele>275.2</ele>
        <time>2020-10-12T08:02:03Z</time>
      </trkpt>
      <trkpt lat="38.4089060" lon="-0.6973460">
        <ele>275.4</ele>
        <time>2020-10-12T08:02:04Z</time>
      </trkpt>
      <trkpt lat="38.4089620" lon="-0.6973470">
        <ele>275.6</ele>
        <time>2020-10-12T08:02:05Z</time>
      </trkpt>
      <trkpt lat="38.4090160" lon="-0.6973480">
        <ele>275.8</ele>
        <time>2020-10-12T08:02:06Z</time>
      </trkpt>
      <trkpt lat="38.4090690" lon="-0.6973490">
        <ele>276.0</ele>
        <time>2020-10-12T08:02:07Z</time>
      </trkpt>
      <trkpt lat="38.4091220" lon="-0.6973500">
        <ele>276.2</ele>
        <time>2020-10-12T08:02:08Z</time>
      </trkpt>
      <trkpt lat="38.4091720" lon="-0.6973480">
        <ele>276.6</ele>
        <time>2020-10-12T08:02:09Z</time>
      </trkpt>
      <trkpt lat="38.4092230" lon="-0.6973440">
        <ele>277.0</ele>
        <time>2020-10-12T08:02:10Z</time>
      </trkpt>
      <trkpt lat="38.4092740" lon="-0.6973400">
        <ele>277.4</ele>
        <time>2020-10-12T08:02:11Z</time>
      </trkpt>
      <trkpt lat="38.4093240" lon="-0.6973340">
        <ele>277.6</ele>
        <time>2020-10-12T08:02:12Z</time>
      </trkpt>
      <trkpt lat="38.4093750" lon="-0.6973290">
        <ele>278.0</ele>
        <time>2020-10-12T08:02:13Z</time>
      </trkpt>
      <trkpt lat="38.4094270" lon="-0.6973240">
        <ele>278.2</ele>
        <time>2020-10-12T08:02:14Z</time>
      </trkpt>
      <trkpt lat="38.4094780" lon="-0.6973200">
        <ele>278.4</ele>
        <time>2020-10-12T08:02:15Z</time>
      </trkpt>
      <trkpt lat="38.4095290" lon="-0.6973170">
        <ele>278.8</ele>
        <time>2020-10-12T08:02:16Z</time>
      </trkpt>
      <trkpt lat="38.4095800" lon="-0.6973140">
        <ele>279.2</ele>
        <time>2020-10-12T08:02:17Z</time>
      </trkpt>
      <trkpt lat="38.4096310" lon="-0.6973120">
        <ele>279.8</ele>
        <time>2020-10-12T08:02:18Z</time>
      </trkpt>
      <trkpt lat="38.4096830" lon="-0.6973080">
        <ele>280.0</ele>
        <time>2020-10-12T08:02:19Z</time>
      </trkpt>
      <trkpt lat="38.4097350" lon="-0.6973040">
        <ele>280.2</ele>
        <time>2020-10-12T08:02:20Z</time>
      </trkpt>
      <trkpt lat="38.4097870" lon="-0.6973000">
        <ele>280.4</ele>
        <time>2020-10-12T08:02:21Z</time>
      </trkpt>
      <trkpt lat="38.4098390" lon="-0.6972970">
        <ele>280.8</ele>
        <time>2020-10-12T08:02:22Z</time>
      </trkpt>
      <trkpt lat="38.4098900" lon="-0.6972940">
        <ele>281.0</ele>
        <time>2020-10-12T08:02:23Z</time>
      </trkpt>
      <trkpt lat="38.4099400" lon="-0.6972910">
        <ele>281.4</ele>
        <time>2020-10-12T08:02:24Z</time>
      </trkpt>
      <trkpt lat="38.4099910" lon="-0.6972890">
        <ele>281.8</ele>
        <time>2020-10-12T08:02:25Z</time>
      </trkpt>
      <trkpt lat="38.4100420" lon="-0.6972850">
        <ele>282.2</ele>
        <time>2020-10-12T08:02:26Z</time>
      </trkpt>
      <trkpt lat="38.4100930" lon="-0.6972800">
        <ele>282.6</ele>
        <time>2020-10-12T08:02:27Z</time>
      </trkpt>
      <trkpt lat="38.4101450" lon="-0.6972790">
        <ele>282.8</ele>
        <time>2020-10-12T08:02:28Z</time>
      </trkpt>
      <trkpt lat="38.4101970" lon="-0.6972760">
        <ele>283.0</ele>
        <time>2020-10-12T08:02:29Z</time>
      </trkpt>
      <trkpt lat="38.4102470" lon="-0.6972720">
        <ele>283.4</ele>
        <time>2020-10-12T08:02:30Z</time>
      </trkpt>
      <trkpt lat="38.4102970" lon="-0.6972670">
        <ele>283.8</ele>
        <time>2020-10-12T08:02:31Z</time>
      </trkpt>
      <trkpt lat="38.4103480" lon="-0.6972630">
        <ele>284.2</ele>
        <time>2020-10-12T08:02:32Z</time>
      </trkpt>
      <trkpt lat="38.4103990" lon="-0.6972600">
        <ele>284.4</ele>
        <time>2020-10-12T08:02:33Z</time>
      </trkpt>
      <trkpt lat="38.4104500" lon="-0.6972580">
        <ele>284.8</ele>
        <time>2020-10-12T08:02:34Z</time>
      </trkpt>
      <trkpt lat="38.4105000" lon="-0.6972560">
        <ele>285.0</ele>
        <time>2020-10-12T08:02:35Z</time>
      </trkpt>
      <trkpt lat="38.4105490" lon="-0.6972550">
        <ele>285.2</ele>
        <time>2020-10-12T08:02:36Z</time>
      </trkpt>
      <trkpt lat="38.4105980" lon="-0.6972570">
        <ele>285.4</ele>
        <time>2020-10-12T08:02:37Z</time>
      </trkpt>
      <trkpt lat="38.4106470" lon="-0.6972550">
        <ele>285.6</ele>
        <time>2020-10-12T08:02:38Z</time>
      </trkpt>
      <trkpt lat="38.4106960" lon="-0.6972520">
        <ele>285.8</ele>
        <time>2020-10-12T08:02:39Z</time>
      </trkpt>
      <trkpt lat="38.4107460" lon="-0.6972480">
        <ele>286.0</ele>
        <time>2020-10-12T08:02:40Z</time>
      </trkpt>
      <trkpt lat="38.4107970" lon="-0.6972450">
        <ele>286.4</ele>
        <time>2020-10-12T08:02:41Z</time>
      </trkpt>
      <trkpt lat="38.4108480" lon="-0.6972420">
        <ele>286.6</ele>
        <time>2020-10-12T08:02:42Z</time>
      </trkpt>
      <trkpt lat="38.4109010" lon="-0.6972390">
        <ele>286.8</ele>
        <time>2020-10-12T08:02:43Z</time>
      </trkpt>
      <trkpt lat="38.4109530" lon="-0.6972390">
        <ele>286.8</ele>
        <time>2020-10-12T08:02:44Z</time>
      </trkpt>
      <trkpt lat="38.4110050" lon="-0.6972400">
        <ele>287.0</ele>
        <time>2020-10-12T08:02:45Z</time>
      </trkpt>
      <trkpt lat="38.4110560" lon="-0.6972390">
        <ele>287.0</ele>
        <time>2020-10-12T08:02:46Z</time>
      </trkpt>
      <trkpt lat="38.4111070" lon="-0.6972340">
        <ele>287.0</ele>
        <time>2020-10-12T08:02:47Z</time>
      </trkpt>
      <trkpt lat="38.4111600" lon="-0.6972300">
        <ele>287.2</ele>
        <time>2020-10-12T08:02:48Z</time>
      </trkpt>
      <trkpt lat="38.4112120" lon="-0.6972280">
        <ele>287.4</ele>
        <time>2020-10-12T08:02:49Z</time>
      </trkpt>
      <trkpt lat="38.4112660" lon="-0.6972240">
        <ele>287.6</ele>
        <time>2020-10-12T08:02:50Z</time>
      </trkpt>
      <trkpt lat="38.4113200" lon="-0.6972210">
        <ele>287.6</ele>
        <time>2020-10-12T08:02:51Z</time>
      </trkpt>
      <trkpt lat="38.4113740" lon="-0.6972200">
        <ele>287.6</ele>
        <time>2020-10-12T08:02:52Z</time>
      </trkpt>
      <trkpt lat="38.4114270" lon="-0.6972160">
        <ele>287.6</ele>
        <time>2020-10-12T08:02:53Z</time>
      </trkpt>
      <trkpt lat="38.4114810" lon="-0.6972110">
        <ele>287.8</ele>
        <time>2020-10-12T08:02:54Z</time>
      </trkpt>
      <trkpt lat="38.4115350" lon="-0.6972040">
        <ele>287.8</ele>
        <time>2020-10-12T08:02:55Z</time>
      </trkpt>
      <trkpt lat="38.4115880" lon="-0.6971990">
        <ele>287.8</ele>
        <time>2020-10-12T08:02:56Z</time>
      </trkpt>
      <trkpt lat="38.4116410" lon="-0.6971940">
        <ele>287.8</ele>
        <time>2020-10-12T08:02:57Z</time>
      </trkpt>
      <trkpt lat="38.4116940" lon="-0.6971920">
        <ele>287.8</ele>
        <time>2020-10-12T08:02:58Z</time>
      </trkpt>
      <trkpt lat="38.4117470" lon="-0.6971920">
        <ele>288.0</ele>
        <time>2020-10-12T08:02:59Z</time>
      </trkpt>
      <trkpt lat="38.4118000" lon="-0.6971900">
        <ele>288.2</ele>
        <time>2020-10-12T08:03:00Z</time>
      </trkpt>
      <trkpt lat="38.4118530" lon="-0.6971850">
        <ele>288.2</ele>
        <time>2020-10-12T08:03:01Z</time>
      </trkpt>
      <trkpt lat="38.4119070" lon="-0.6971800">
        <ele>288.2</ele>
        <time>2020-10-12T08:03:02Z</time>
      </trkpt>
      <trkpt lat="38.4119620" lon="-0.6971760">
        <ele>288.4</ele>
        <time>2020-10-12T08:03:03Z</time>
      </trkpt>
      <trkpt lat="38.4120170" lon="-0.6971730">
        <ele>288.4</ele>
        <time>2020-10-12T08:03:04Z</time>
      </trkpt>
      <trkpt lat="38.4120720" lon="-0.6971720">
        <ele>288.6</ele>
        <time>2020-10-12T08:03:05Z</time>
      </trkpt>
      <trkpt lat="38.4121280" lon="-0.6971720">
        <ele>288.6</ele>
        <time>2020-10-12T08:03:06Z</time>
      </trkpt>
      <trkpt lat="38.4121830" lon="-0.6971700">
        <ele>288.8</ele>
        <time>2020-10-12T08:03:07Z</time>
      </trkpt>
      <trkpt lat="38.4122370" lon="-0.6971650">
        <ele>288.8</ele>
        <time>2020-10-12T08:03:08Z</time>
      </trkpt>
      <trkpt lat="38.4122910" lon="-0.6971620">
        <ele>289.0</ele>
        <time>2020-10-12T08:03:09Z</time>
      </trkpt>
      <trkpt lat="38.4123460" lon="-0.6971590">
        <ele>289.0</ele>
        <time>2020-10-12T08:03:10Z</time>
      </trkpt>
      <trkpt lat="38.4123990" lon="-0.6971590">
        <ele>289.2</ele>
        <time>2020-10-12T08:03:11Z</time>
      </trkpt>
      <trkpt lat="38.4124520" lon="-0.6971570">
        <ele>289.4</ele>
        <time>2020-10-12T08:03:12Z</time>
      </trkpt>
      <trkpt lat="38.4125060" lon="-0.6971530">
        <ele>289.6</ele>
        <time>2020-10-12T08:03:13Z</time>
      </trkpt>
      <trkpt lat="38.4125590" lon="-0.6971480">
        <ele>289.8</ele>
        <time>2020-10-12T08:03:14Z</time>
      </trkpt>
      <trkpt lat="38.4126130" lon="-0.6971430">
        <ele>289.8</ele>
        <time>2020-10-12T08:03:15Z</time>
      </trkpt>
      <trkpt lat="38.4126650" lon="-0.6971400">
        <ele>290.0</ele>
        <time>2020-10-12T08:03:16Z</time>
      </trkpt>
      <trkpt lat="38.4127160" lon="-0.6971370">
        <ele>290.4</ele>
        <time>2020-10-12T08:03:17Z</time>
      </trkpt>
      <trkpt lat="38.4127670" lon="-0.6971360">
        <ele>290.6</ele>
        <time>2020-10-12T08:03:18Z</time>
      </trkpt>
      <trkpt lat="38.4128170" lon="-0.6971330">
        <ele>291.0</ele>
        <time>2020-10-12T08:03:19Z</time>
      </trkpt>
      <trkpt lat="38.4128690" lon="-0.6971280">
        <ele>291.6</ele>
        <time>2020-10-12T08:03:20Z</time>
      </trkpt>
      <trkpt lat="38.4129200" lon="-0.6971250">
        <ele>292.2</ele>
        <time>2020-10-12T08:03:21Z</time>
      </trkpt>
      <trkpt lat="38.4129710" lon="-0.6971250">
        <ele>292.8</ele>
        <time>2020-10-12T08:03:22Z</time>
      </trkpt>
      <trkpt lat="38.4130210" lon="-0.6971250">
        <ele>293.4</ele>
        <time>2020-10-12T08:03:23Z</time>
      </trkpt>
      <trkpt lat="38.4130680" lon="-0.6971230">
        <ele>293.8</ele>
        <time>2020-10-12T08:03:24Z</time>
      </trkpt>
      <trkpt lat="38.4131150" lon="-0.6971230">
        <ele>294.2</ele>
        <time>2020-10-12T08:03:25Z</time>
      </trkpt>
      <trkpt lat="38.4131610" lon="-0.6971210">
        <ele>294.4</ele>
        <time>2020-10-12T08:03:26Z</time>
      </trkpt>
      <trkpt lat="38.4132080" lon="-0.6971200">
        <ele>294.8</ele>
        <time>2020-10-12T08:03:27Z</time>
      </trkpt>
      <trkpt lat="38.4132560" lon="-0.6971160">
        <ele>295.0</ele>
        <time>2020-10-12T08:03:28Z</time>
      </trkpt>
      <trkpt lat="38.4133040" lon="-0.6971120">
        <ele>295.2</ele>
        <time>2020-10-12T08:03:29Z</time>
      </trkpt>
      <trkpt lat="38.4133530" lon="-0.6971070">
        <ele>295.4</ele>
        <time>2020-10-12T08:03:30Z</time>
      </trkpt>
      <trkpt lat="38.4134030" lon="-0.6971020">
        <ele>295.6</ele>
        <time>2020-10-12T08:03:31Z</time>
      </trkpt>
      <trkpt lat="38.4134520" lon="-0.6970980">
        <ele>295.8</ele>
        <time>2020-10-12T08:03:32Z</time>
      </trkpt>
      <trkpt lat="38.4135020" lon="-0.6970970">
        <ele>296.0</ele>
        <time>2020-10-12T08:03:33Z</time>
      </trkpt>
      <trkpt lat="38.4135520" lon="-0.6970960">
        <ele>296.2</ele>
        <time>2020-10-12T08:03:34Z</time>
      </trkpt>
      <trkpt lat="38.4136020" lon="-0.6970930">
        <ele>296.4</ele>
        <time>2020-10-12T08:03:35Z</time>
      </trkpt>
      <trkpt lat="38.4136520" lon="-0.6970900">
        <ele>296.4</ele>
        <time>2020-10-12T08:03:36Z</time>
      </trkpt>
      <trkpt lat="38.4137040" lon="-0.6970870">
        <ele>296.4</ele>
        <time>2020-10-12T08:03:37Z</time>
      </trkpt>
      <trkpt lat="38.4137560" lon="-0.6970850">
        <ele>296.6</ele>
        <time>2020-10-12T08:03:38Z</time>
      </trkpt>
      <trkpt lat="38.4138110" lon="-0.6970830">
        <ele>296.6</ele>
        <time>2020-10-12T08:03:39Z</time>
      </trkpt>
      <trkpt lat="38.4138660" lon="-0.6970790">
        <ele>296.8</ele>
        <time>2020-10-12T08:03:40Z</time>
      </trkpt>
      <trkpt lat="38.4139200" lon="-0.6970730">
        <ele>297.0</ele>
        <time>2020-10-12T08:03:41Z</time>
      </trkpt>
      <trkpt lat="38.4139760" lon="-0.6970670">
        <ele>297.0</ele>
        <time>2020-10-12T08:03:42Z</time>
      </trkpt>
      <trkpt lat="38.4140330" lon="-0.6970640">
        <ele>297.0</ele>
        <time>2020-10-12T08:03:43Z</time>
      </trkpt>
      <trkpt lat="38.4140930" lon="-0.6970600">
        <ele>297.0</ele>
        <time>2020-10-12T08:03:44Z</time>
      </trkpt>
      <trkpt lat="38.4141530" lon="-0.6970570">
        <ele>297.0</ele>
        <time>2020-10-12T08:03:45Z</time>
      </trkpt>
      <trkpt lat="38.4142100" lon="-0.6970550">
        <ele>297.0</ele>
        <time>2020-10-12T08:03:46Z</time>
      </trkpt>
      <trkpt lat="38.4142660" lon="-0.6970550">
        <ele>297.2</ele>
        <time>2020-10-12T08:03:47Z</time>
      </trkpt>
      <trkpt lat="38.4143200" lon="-0.6970520">
        <ele>297.6</ele>
        <time>2020-10-12T08:03:48Z</time>
      </trkpt>
      <trkpt lat="38.4143750" lon="-0.6970500">
        <ele>297.8</ele>
        <time>2020-10-12T08:03:49Z</time>
      </trkpt>
      <trkpt lat="38.4144300" lon="-0.6970480">
        <ele>298.0</ele>
        <time>2020-10-12T08:03:50Z</time>
      </trkpt>
      <trkpt lat="38.4144830" lon="-0.6970460">
        <ele>298.2</ele>
        <time>2020-10-12T08:03:51Z</time>
      </trkpt>
      <trkpt lat="38.4145360" lon="-0.6970430">
        <ele>298.2</ele>
        <time>2020-10-12T08:03:52Z</time>
      </trkpt>
      <trkpt lat="38.4145880" lon="-0.6970390">
        <ele>298.2</ele>
        <time>2020-10-12T08:03:53Z</time>
      </trkpt>
      <trkpt lat="38.4146380" lon="-0.6970360">
        <ele>298.4</ele>
        <time>2020-10-12T08:03:54Z</time>
      </trkpt>
      <trkpt lat="38.4146880" lon="-0.6970320">
        <ele>298.4</ele>
        <time>2020-10-12T08:03:55Z</time>
      </trkpt>
      <trkpt lat="38.4147380" lon="-0.6970260">
        <ele>298.6</ele>
        <time>2020-10-12T08:03:56Z</time>
      </trkpt>
      <trkpt lat="38.4147840" lon="-0.6970220">
        <ele>298.8</ele>
        <time>2020-10-12T08:03:57Z</time>
      </trkpt>
      <trkpt lat="38.4148320" lon="-0.6970200">
        <ele>299.2</ele>
        <time>2020-10-12T08:03:58Z</time>
      </trkpt>
      <trkpt lat="38.4148830" lon="-0.6970150">
        <ele>299.4</ele>
        <time>2020-10-12T08:03:59Z</time>
      </trkpt>
      <trkpt lat="38.4149330" lon="-0.6970130">
        <ele>299.8</ele>
        <time>2020-10-12T08:04:00Z</time>
      </trkpt>
      <trkpt lat="38.4149830" lon="-0.6970120">
        <ele>300.0</ele>
        <time>2020-10-12T08:04:01Z</time>
      </trkpt>
      <trkpt lat="38.4150310" lon="-0.6970090">
        <ele>300.4</ele>
        <time>2020-10-12T08:04:02Z</time>
      </trkpt>
      <trkpt lat="38.4150780" lon="-0.6970050">
        <ele>301.0</ele>
        <time>2020-10-12T08:04:03Z</time>
      </trkpt>
      <trkpt lat="38.4151260" lon="-0.6970000">
        <ele>301.2</ele>
        <time>2020-10-12T08:04:04Z</time>
      </trkpt>
      <trkpt lat="38.4151730" lon="-0.6969980">
        <ele>301.4</ele>
        <time>2020-10-12T08:04:05Z</time>
      </trkpt>
      <trkpt lat="38.4152190" lon="-0.6969960">
        <ele>302.0</ele>
        <time>2020-10-12T08:04:06Z</time>
      </trkpt>
      <trkpt lat="38.4152650" lon="-0.6969990">
        <ele>302.4</ele>
        <time>2020-10-12T08:04:07Z</time>
      </trkpt>
      <trkpt lat="38.4153140" lon="-0.6970030">
        <ele>302.6</ele>
        <time>2020-10-12T08:04:08Z</time>
      </trkpt>
      <trkpt lat="38.4153590" lon="-0.6970050">
        <ele>302.8</ele>
        <time>2020-10-12T08:04:09Z</time>
      </trkpt>
      <trkpt lat="38.4153980" lon="-0.6970070">
        <ele>302.8</ele>
        <time>2020-10-12T08:04:10Z</time>
      </trkpt>
      <trkpt lat="38.4154370" lon="-0.6970110">
        <ele>303.0</ele>
        <time>2020-10-12T08:04:11Z</time>
      </trkpt>
      <trkpt lat="38.4154780" lon="-0.6970180">
        <ele>303.2</ele>
        <time>2020-10-12T08:04:12Z</time>
      </trkpt>
      <trkpt lat="38.4155190" lon="-0.6970280">
        <ele>303.2</ele>
        <time>2020-10-12T08:04:13Z</time>
      </trkpt>
      <trkpt lat="38.4155580" lon="-0.6970400">
        <ele>303.4</ele>
        <time>2020-10-12T08:04:14Z</time>
      </trkpt>
      <trkpt lat="38.4155970" lon="-0.6970510">
        <ele>303.6</ele>
        <time>2020-10-12T08:04:15Z</time>
      </trkpt>
      <trkpt lat="38.4156340" lon="-0.6970610">
        <ele>303.6</ele>
        <time>2020-10-12T08:04:16Z</time>
      </trkpt>
      <trkpt lat="38.4156710" lon="-0.6970700">
        <ele>303.8</ele>
        <time>2020-10-12T08:04:17Z</time>
      </trkpt>
      <trkpt lat="38.4157090" lon="-0.6970760">
        <ele>304.0</ele>
        <time>2020-10-12T08:04:18Z</time>
      </trkpt>
      <trkpt lat="38.4157510" lon="-0.6970780">
        <ele>304.0</ele>
        <time>2020-10-12T08:04:19Z</time>
      </trkpt>
      <trkpt lat="38.4157900" lon="-0.6970770">
        <ele>303.8</ele>
        <time>2020-10-12T08:04:20Z</time>
      </trkpt>
      <trkpt lat="38.4158350" lon="-0.6970720">
        <ele>303.8</ele>
        <time>2020-10-12T08:04:21Z</time>
      </trkpt>
      <trkpt lat="38.4158760" lon="-0.6970570">
        <ele>303.8</ele>
        <time>2020-10-12T08:04:22Z</time>
      </trkpt>
      <trkpt lat="38.4159140" lon="-0.6970320">
        <ele>304.0</ele>
        <time>2020-10-12T08:04:23Z</time>
      </trkpt>
      <trkpt lat="38.4159500" lon="-0.6970010">
        <ele>304.0</ele>
        <time>2020-10-12T08:04:24Z</time>
      </trkpt>
      <trkpt lat="38.4159860" lon="-0.6969610">
        <ele>304.2</ele>
        <time>2020-10-12T08:04:25Z</time>
      </trkpt>
      <trkpt lat="38.4160200" lon="-0.6969080">
        <ele>304.2</ele>
        <time>2020-10-12T08:04:26Z</time>
      </trkpt>
      <trkpt lat="38.4160540" lon="-0.6968490">
        <ele>304.4</ele>
        <time>2020-10-12T08:04:27Z</time>
      </trkpt>
      <trkpt lat="38.4160900" lon="-0.6967930">
        <ele>304.4</ele>
        <time>2020-10-12T08:04:28Z</time>
      </trkpt>
      <trkpt lat="38.4161210" lon="-0.6967370">
        <ele>304.4</ele>
        <time>2020-10-12T08:04:29Z</time>
      </trkpt>
      <trkpt lat="38.4161480" lon="-0.6966780">
        <ele>304.4</ele>
        <time>2020-10-12T08:04:30Z</time>
      </trkpt>
      <trkpt lat="38.4161720" lon="-0.6966180">
        <ele>304.6</ele>
        <time>2020-10-12T08:04:31Z</time>
      </trkpt>
      <trkpt lat="38.4161970" lon="-0.6965560">
        <ele>304.8</ele>
        <time>2020-10-12T08:04:32Z</time>
      </trkpt>
      <trkpt lat="38.4162190" lon="-0.6964990">
        <ele>304.8</ele>
        <time>2020-10-12T08:04:33Z</time>
      </trkpt>
      <trkpt lat="38.4162390" lon="-0.6964420">
        <ele>305.2</ele>
        <time>2020-10-12T08:04:34Z</time>
      </trkpt>
      <trkpt lat="38.4162580" lon="-0.6963810">
        <ele>305.6</ele>
        <time>2020-10-12T08:04:35Z</time>
      </trkpt>
      <trkpt lat="38.4162770" lon="-0.6963220">
        <ele>305.8</ele>
        <time>2020-10-12T08:04:36Z</time>
      </trkpt>
      <trkpt lat="38.4162930" lon="-0.6962660">
        <ele>306.0</ele>
        <time>2020-10-12T08:04:37Z</time>
      </trkpt>
      <trkpt lat="38.4163090" lon="-0.6962080">
        <ele>305.8</ele>
        <time>2020-10-12T08:04:38Z</time>
      </trkpt>
      <trkpt lat="38.4163300" lon="-0.6961630">
        <ele>306.0</ele>
        <time>2020-10-12T08:04:39Z</time>
      </trkpt>
      <trkpt lat="38.4163510" lon="-0.6961060">
        <ele>306.0</ele>
        <time>2020-10-12T08:04:40Z</time>
      </trkpt>
      <trkpt lat="38.4163720" lon="-0.6960520">
        <ele>306.0</ele>
        <time>2020-10-12T08:04:41Z</time>
      </trkpt>
      <trkpt lat="38.4163920" lon="-0.6959900">
        <ele>306.2</ele>
        <time>2020-10-12T08:04:42Z</time>
      </trkpt>
      <trkpt lat="38.4164130" lon="-0.6959250">
        <ele>306.4</ele>
        <time>2020-10-12T08:04:43Z</time>
      </trkpt>
      <trkpt lat="38.4164370" lon="-0.6958620">
        <ele>306.4</ele>
        <time>2020-10-12T08:04:44Z</time>
      </trkpt>
      <trkpt lat="38.4164620" lon="-0.6958040">
        <ele>306.6</ele>
        <time>2020-10-12T08:04:45Z</time>
      </trkpt>
      <trkpt lat="38.4164870" lon="-0.6957460">
        <ele>306.8</ele>
        <time>2020-10-12T08:04:46Z</time>
      </trkpt>
      <trkpt lat="38.4165100" lon="-0.6956840">
        <ele>306.8</ele>
        <time>2020-10-12T08:04:47Z</time>
      </trkpt>
      <trkpt lat="38.4165320" lon="-0.6956230">
        <ele>306.8</ele>
        <time>2020-10-12T08:04:48Z</time>
      </trkpt>
      <trkpt lat="38.4165530" lon="-0.6955630">
        <ele>306.8</ele>
        <time>2020-10-12T08:04:49Z</time>
      </trkpt>
      <trkpt lat="38.4165760" lon="-0.6955010">
        <ele>307.0</ele>
        <time>2020-10-12T08:04:50Z</time>
      </trkpt>
      <trkpt lat="38.4165980" lon="-0.6954380">
        <ele>307.0</ele>
        <time>2020-10-12T08:04:51Z</time>
      </trkpt>
      <trkpt lat="38.4166210" lon="-0.6953760">
        <ele>307.2</ele>
        <time>2020-10-12T08:04:52Z</time>
      </trkpt>
      <trkpt lat="38.4166410" lon="-0.6953170">
        <ele>307.4</ele>
        <time>2020-10-12T08:04:53Z</time>
      </trkpt>
      <trkpt lat="38.4166600" lon="-0.6952520">
        <ele>307.6</ele>
        <time>2020-10-12T08:04:54Z</time>
      </trkpt>
      <trkpt lat="38.4166780" lon="-0.6951910">
        <ele>307.8</ele>
        <time>2020-10-12T08:04:55Z</time>
      </trkpt>
      <trkpt lat="38.4166950" lon="-0.6951320">
        <ele>307.8</ele>
        <time>2020-10-12T08:04:56Z</time>
      </trkpt>
      <trkpt lat="38.4167130" lon="-0.6950730">
        <ele>307.8</ele>
        <time>2020-10-12T08:04:57Z</time>
      </trkpt>
      <trkpt lat="38.4167330" lon="-0.6950120">
        <ele>307.8</ele>
        <time>2020-10-12T08:04:58Z</time>
      </trkpt>
      <trkpt lat="38.4167540" lon="-0.6949530">
        <ele>307.8</ele>
        <time>2020-10-12T08:04:59Z</time>
      </trkpt>
      <trkpt lat="38.4167750" lon="-0.6948960">
        <ele>307.8</ele>
        <time>2020-10-12T08:05:00Z</time>
      </trkpt>
      <trkpt lat="38.4167990" lon="-0.6948370">
        <ele>307.8</ele>
        <time>2020-10-12T08:05:01Z</time>
      </trkpt>
      <trkpt lat="38.4168210" lon="-0.6947750">
        <ele>307.8</ele>
        <time>2020-10-12T08:05:02Z</time>
      </trkpt>
      <trkpt lat="38.4168400" lon="-0.6947140">
        <ele>308.0</ele>
        <time>2020-10-12T08:05:03Z</time>
      </trkpt>
      <trkpt lat="38.4168610" lon="-0.6946500">
        <ele>308.0</ele>
        <time>2020-10-12T08:05:04Z</time>
      </trkpt>
      <trkpt lat="38.4168790" lon="-0.6945850">
        <ele>308.0</ele>
        <time>2020-10-12T08:05:05Z</time>
      </trkpt>
      <trkpt lat="38.4168980" lon="-0.6945220">
        <ele>308.2</ele>
        <time>2020-10-12T08:05:06Z</time>
      </trkpt>
      <trkpt lat="38.4169200" lon="-0.6944630">
        <ele>308.4</ele>
        <time>2020-10-12T08:05:07Z</time>
      </trkpt>
      <trkpt lat="38.4169420" lon="-0.6944000">
        <ele>308.4</ele>
        <time>2020-10-12T08:05:08Z</time>
      </trkpt>
      <trkpt lat="38.4169650" lon="-0.6943380">
        <ele>308.2</ele>
        <time>2020-10-12T08:05:09Z</time>
      </trkpt>
      <trkpt lat="38.4169830" lon="-0.6942780">
        <ele>308.4</ele>
        <time>2020-10-12T08:05:10Z</time>
      </trkpt>
      <trkpt lat="38.4170030" lon="-0.6942150">
        <ele>308.6</ele>
        <time>2020-10-12T08:05:11Z</time>
      </trkpt>
      <trkpt lat="38.4170230" lon="-0.6941510">
        <ele>309.0</ele>
        <time>2020-10-12T08:05:12Z</time>
      </trkpt>
      <trkpt lat="38.4170440" lon="-0.6940870">
        <ele>309.2</ele>
        <time>2020-10-12T08:05:13Z</time>
      </trkpt>
      <trkpt lat="38.4170670" lon="-0.6940220">
        <ele>309.4</ele>
        <time>2020-10-12T08:05:14Z</time>
      </trkpt>
      <trkpt lat="38.4170870" lon="-0.6939540">
        <ele>309.6</ele>
        <time>2020-10-12T08:05:15Z</time>
      </trkpt>
      <trkpt lat="38.4171050" lon="-0.6938920">
        <ele>309.6</ele>
        <time>2020-10-12T08:05:16Z</time>
      </trkpt>
      <trkpt lat="38.4171250" lon="-0.6938330">
        <ele>309.8</ele>
        <time>2020-10-12T08:05:17Z</time>
      </trkpt>
      <trkpt lat="38.4171450" lon="-0.6937690">
        <ele>310.0</ele>
        <time>2020-10-12T08:05:18Z</time>
      </trkpt>
      <trkpt lat="38.4171630" lon="-0.6937080">
        <ele>310.0</ele>
        <time>2020-10-12T08:05:19Z</time>
      </trkpt>
      <trkpt lat="38.4171830" lon="-0.6936500">
        <ele>310.2</ele>
        <time>2020-10-12T08:05:20Z</time>
      </trkpt>
      <trkpt lat="38.4172050" lon="-0.6935880">
        <ele>310.2</ele>
        <time>2020-10-12T08:05:21Z</time>
      </trkpt>
      <trkpt lat="38.4172280" lon="-0.6935260">
        <ele>310.2</ele>
        <time>2020-10-12T08:05:22Z</time>
      </trkpt>
      <trkpt lat="38.4172530" lon="-0.6934670">
        <ele>310.2</ele>
        <time>2020-10-12T08:05:23Z</time>
      </trkpt>
      <trkpt lat="38.4172780" lon="-0.6934070">
        <ele>310.2</ele>
        <time>2020-10-12T08:05:24Z</time>
      </trkpt>
      <trkpt lat="38.4173000" lon="-0.6933460">
        <ele>310.0</ele>
        <time>2020-10-12T08:05:25Z</time>
      </trkpt>
      <trkpt lat="38.4173210" lon="-0.6932890">
        <ele>310.0</ele>
        <time>2020-10-12T08:05:26Z</time>
      </trkpt>
      <trkpt lat="38.4173450" lon="-0.6932310">
        <ele>310.0</ele>
        <time>2020-10-12T08:05:27Z</time>
      </trkpt>
      <trkpt lat="38.4173720" lon="-0.6931740">
        <ele>310.2</ele>
        <time>2020-10-12T08:05:28Z</time>
      </trkpt>
      <trkpt lat="38.4174010" lon="-0.6931210">
        <ele>310.4</ele>
        <time>2020-10-12T08:05:29Z</time>
      </trkpt>
      <trkpt lat="38.4174280" lon="-0.6930630">
        <ele>310.8</ele>
        <time>2020-10-12T08:05:30Z</time>
      </trkpt>
      <trkpt lat="38.4174580" lon="-0.6930080">
        <ele>310.8</ele>
        <time>2020-10-12T08:05:31Z</time>
      </trkpt>
      <trkpt lat="38.4174890" lon="-0.6929560">
        <ele>311.0</ele>
        <time>2020-10-12T08:05:32Z</time>
      </trkpt>
      <trkpt lat="38.4175180" lon="-0.6929020">
        <ele>311.0</ele>
        <time>2020-10-12T08:05:33Z</time>
      </trkpt>
      <trkpt lat="38.4175470" lon="-0.6928490">
        <ele>311.0</ele>
        <time>2020-10-12T08:05:34Z</time>
      </trkpt>
      <trkpt lat="38.4175770" lon="-0.6927980">
        <ele>311.2</ele>
        <time>2020-10-12T08:05:35Z</time>
      </trkpt>
      <trkpt lat="38.4176060" lon="-0.6927450">
        <ele>311.4</ele>
        <time>2020-10-12T08:05:36Z</time>
      </trkpt>
      <trkpt lat="38.4176400" lon="-0.6926920">
        <ele>311.6</ele>
        <time>2020-10-12T08:05:37Z</time>
      </trkpt>
      <trkpt lat="38.4176740" lon="-0.6926380">
        <ele>312.0</ele>
        <time>2020-10-12T08:05:38Z</time>
      </trkpt>
      <trkpt lat="38.4177060" lon="-0.6925850">
        <ele>312.2</ele>
        <time>2020-10-12T08:05:39Z</time>
      </trkpt>
      <trkpt lat="38.4177430" lon="-0.6925350">
        <ele>312.4</ele>
        <time>2020-10-12T08:05:40Z</time>
      </trkpt>
      <trkpt lat="38.4177790" lon="-0.6924860">
        <ele>312.4</ele>
        <time>2020-10-12T08:05:41Z</time>
      </trkpt>
      <trkpt lat="38.4178100" lon="-0.6924350">
        <ele>312.6</ele>
        <time>2020-10-12T08:05:42Z</time>
      </trkpt>
      <trkpt lat="38.4178410" lon="-0.6923870">
        <ele>312.6</ele>
        <time>2020-10-12T08:05:43Z</time>
      </trkpt>
      <trkpt lat="38.4178730" lon="-0.6923370">
        <ele>312.8</ele>
        <time>2020-10-12T08:05:44Z</time>
      </trkpt>
      <trkpt lat="38.4179050" lon="-0.6922870">
        <ele>313.0</ele>
        <time>2020-10-12T08:05:45Z</time>
      </trkpt>
      <trkpt lat="38.4179360" lon="-0.6922370">
        <ele>313.2</ele>
        <time>2020-10-12T08:05:46Z</time>
      </trkpt>
      <trkpt lat="38.4179680" lon="-0.6921850">
        <ele>313.6</ele>
        <time>2020-10-12T08:05:47Z</time>
      </trkpt>
      <trkpt lat="38.4180000" lon="-0.6921360">
        <ele>313.8</ele>
        <time>2020-10-12T08:05:48Z</time>
      </trkpt>
      <trkpt lat="38.4180320" lon="-0.6920890">
        <ele>314.0</ele>
        <time>2020-10-12T08:05:49Z</time>
      </trkpt>
      <trkpt lat="38.4180620" lon="-0.6920410">
        <ele>314.2</ele>
        <time>2020-10-12T08:05:50Z</time>
      </trkpt>
      <trkpt lat="38.4180930" lon="-0.6919940">
        <ele>314.4</ele>
        <time>2020-10-12T08:05:51Z</time>
      </trkpt>
      <trkpt lat="38.4181240" lon="-0.6919450">
        <ele>314.6</ele>
        <time>2020-10-12T08:05:52Z</time>
      </trkpt>
      <trkpt lat="38.4181540" lon="-0.6918970">
        <ele>315.0</ele>
        <time>2020-10-12T08:05:53Z</time>
      </trkpt>
      <trkpt lat="38.4181820" lon="-0.6918490">
        <ele>315.4</ele>
        <time>2020-10-12T08:05:54Z</time>
      </trkpt>
      <trkpt lat="38.4182110" lon="-0.6918000">
        <ele>315.8</ele>
        <time>2020-10-12T08:05:55Z</time>
      </trkpt>
      <trkpt lat="38.4182400" lon="-0.6917540">
        <ele>316.0</ele>
        <time>2020-10-12T08:05:56Z</time>
      </trkpt>
      <trkpt lat="38.4182710" lon="-0.6917070">
        <ele>316.0</ele>
        <time>2020-10-12T08:05:57Z</time>
      </trkpt>
      <trkpt lat="38.4183010" lon="-0.6916590">
        <ele>316.0</ele>
        <time>2020-10-12T08:05:58Z</time>
      </trkpt>
      <trkpt lat="38.4183310" lon="-0.6916100">
        <ele>316.2</ele>
        <time>2020-10-12T08:05:59Z</time>
      </trkpt>
      <trkpt lat="38.4183590" lon="-0.6915570">
        <ele>316.4</ele>
        <time>2020-10-12T08:06:00Z</time>
      </trkpt>
      <trkpt lat="38.4183890" lon="-0.6915070">
        <ele>316.4</ele>
        <time>2020-10-12T08:06:01Z</time>
      </trkpt>
      <trkpt lat="38.4184200" lon="-0.6914560">
        <ele>316.6</ele>
        <time>2020-10-12T08:06:02Z</time>
      </trkpt>
      <trkpt lat="38.4184490" lon="-0.6914030">
        <ele>316.8</ele>
        <time>2020-10-12T08:06:03Z</time>
      </trkpt>
      <trkpt lat="38.4184810" lon="-0.6913510">
        <ele>317.0</ele>
        <time>2020-10-12T08:06:04Z</time>
      </trkpt>
      <trkpt lat="38.4185120" lon="-0.6912960">
        <ele>317.2</ele>
        <time>2020-10-12T08:06:05Z</time>
      </trkpt>
      <trkpt lat="38.4185420" lon="-0.6912420">
        <ele>317.4</ele>
        <time>2020-10-12T08:06:06Z</time>
      </trkpt>
      <trkpt lat="38.4185710" lon="-0.6911870">
        <ele>317.4</ele>
        <time>2020-10-12T08:06:07Z</time>
      </trkpt>
      <trkpt lat="38.4186010" lon="-0.6911320">
        <ele>317.4</ele>
        <time>2020-10-12T08:06:08Z</time>
      </trkpt>
      <trkpt lat="38.4186310" lon="-0.6910800">
        <ele>317.4</ele>
        <time>2020-10-12T08:06:09Z</time>
      </trkpt>
      <trkpt lat="38.4186630" lon="-0.6910270">
        <ele>317.4</ele>
        <time>2020-10-12T08:06:10Z</time>
      </trkpt>
      <trkpt lat="38.4186940" lon="-0.6909740">
        <ele>317.6</ele>
        <time>2020-10-12T08:06:11Z</time>
      </trkpt>
      <trkpt lat="38.4187240" lon="-0.6909190">
        <ele>317.6</ele>
        <time>2020-10-12T08:06:12Z</time>
      </trkpt>
      <trkpt lat="38.4187550" lon="-0.6908630">
        <ele>317.6</ele>
        <time>2020-10-12T08:06:13Z</time>
      </trkpt>
      <trkpt lat="38.4187860" lon="-0.6908070">
        <ele>317.6</ele>
        <time>2020-10-12T08:06:14Z</time>
      </trkpt>
      <trkpt lat="38.4188170" lon="-0.6907530">
        <ele>317.8</ele>
        <time>2020-10-12T08:06:15Z</time>
      </trkpt>
      <trkpt lat="38.4188480" lon="-0.6906990">
        <ele>318.0</ele>
        <time>2020-10-12T08:06:16Z</time>
      </trkpt>
      <trkpt lat="38.4188800" lon="-0.6906450">
        <ele>318.2</ele>
        <time>2020-10-12T08:06:17Z</time>
      </trkpt>
      <trkpt lat="38.4189110" lon="-0.6905920">
        <ele>318.4</ele>
        <time>2020-10-12T08:06:18Z</time>
      </trkpt>
      <trkpt lat="38.4189420" lon="-0.6905370">
        <ele>318.6</ele>
        <time>2020-10-12T08:06:19Z</time>
      </trkpt>
      <trkpt lat="38.4189760" lon="-0.6904820">
        <ele>318.6</ele>
        <time>2020-10-12T08:06:20Z</time>
      </trkpt>
      <trkpt lat="38.4190060" lon="-0.6904230">
        <ele>318.6</ele>
        <time>2020-10-12T08:06:21Z</time>
      </trkpt>
      <trkpt lat="38.4190370" lon="-0.6903650">
        <ele>318.8</ele>
        <time>2020-10-12T08:06:22Z</time>
      </trkpt>
      <trkpt lat="38.4190680" lon="-0.6903100">
        <ele>319.0</ele>
        <time>2020-10-12T08:06:23Z</time>
      </trkpt>
      <trkpt lat="38.4190990" lon="-0.6902540">
        <ele>319.2</ele>
        <time>2020-10-12T08:06:24Z</time>
      </trkpt>
      <trkpt lat="38.4191290" lon="-0.6901980">
        <ele>319.0</ele>
        <time>2020-10-12T08:06:25Z</time>
      </trkpt>
      <trkpt lat="38.4191580" lon="-0.6901410">
        <ele>319.0</ele>
        <time>2020-10-12T08:06:26Z</time>
      </trkpt>
      <trkpt lat="38.4191890" lon="-0.6900860">
        <ele>319.2</ele>
        <time>2020-10-12T08:06:27Z</time>
      </trkpt>
      <trkpt lat="38.4192200" lon="-0.6900320">
        <ele>319.4</ele>
        <time>2020-10-12T08:06:28Z</time>
      </trkpt>
      <trkpt lat="38.4192500" lon="-0.6899780">
        <ele>319.6</ele>
        <time>2020-10-12T08:06:29Z</time>
      </trkpt>
      <trkpt lat="38.4192810" lon="-0.6899240">
        <ele>319.4</ele>
        <time>2020-10-12T08:06:30Z</time>
      </trkpt>
      <trkpt lat="38.4193110" lon="-0.6898690">
        <ele>319.2</ele>
        <time>2020-10-12T08:06:31Z</time>
      </trkpt>
      <trkpt lat="38.4193410" lon="-0.6898150">
        <ele>319.4</ele>
        <time>2020-10-12T08:06:32Z</time>
      </trkpt>
      <trkpt lat="38.4193710" lon="-0.6897600">
        <ele>319.4</ele>
        <time>2020-10-12T08:06:33Z</time>
      </trkpt>
      <trkpt lat="38.4194020" lon="-0.6897060">
        <ele>319.4</ele>
        <time>2020-10-12T08:06:34Z</time>
      </trkpt>
      <trkpt lat="38.4194330" lon="-0.6896510">
        <ele>319.0</ele>
        <time>2020-10-12T08:06:35Z</time>
      </trkpt>
      <trkpt lat="38.4194640" lon="-0.6895960">
        <ele>318.8</ele>
        <time>2020-10-12T08:06:36Z</time>
      </trkpt>
      <trkpt lat="38.4194940" lon="-0.6895390">
        <ele>318.8</ele>
        <time>2020-10-12T08:06:37Z</time>
      </trkpt>
      <trkpt lat="38.4195260" lon="-0.6894830">
        <ele>318.8</ele>
        <time>2020-10-12T08:06:38Z</time>
      </trkpt>
      <trkpt lat="38.4195570" lon="-0.6894250">
        <ele>318.8</ele>
        <time>2020-10-12T08:06:39Z</time>
      </trkpt>
      <trkpt lat="38.4195860" lon="-0.6893660">
        <ele>318.6</ele>
        <time>2020-10-12T08:06:40Z</time>
      </trkpt>
      <trkpt lat="38.4196160" lon="-0.6893060">
        <ele>318.6</ele>
        <time>2020-10-12T08:06:41Z</time>
      </trkpt>
      <trkpt lat="38.4196460" lon="-0.6892450">
        <ele>318.6</ele>
        <time>2020-10-12T08:06:42Z</time>
      </trkpt>
      <trkpt lat="38.4196760" lon="-0.6891830">
        <ele>318.6</ele>
        <time>2020-10-12T08:06:43Z</time>
      </trkpt>
      <trkpt lat="38.4197070" lon="-0.6891180">
        <ele>318.6</ele>
        <time>2020-10-12T08:06:44Z</time>
      </trkpt>
      <trkpt lat="38.4197360" lon="-0.6890510">
        <ele>318.6</ele>
        <time>2020-10-12T08:06:45Z</time>
      </trkpt>
      <trkpt lat="38.4197620" lon="-0.6889790">
        <ele>318.6</ele>
        <time>2020-10-12T08:06:46Z</time>
      </trkpt>
      <trkpt lat="38.4197850" lon="-0.6889060">
        <ele>318.6</ele>
        <time>2020-10-12T08:06:47Z</time>
      </trkpt>
      <trkpt lat="38.4198060" lon="-0.6888300">
        <ele>318.8</ele>
        <time>2020-10-12T08:06:48Z</time>
      </trkpt>
      <trkpt lat="38.4198270" lon="-0.6887530">
        <ele>318.8</ele>
        <time>2020-10-12T08:06:49Z</time>
      </trkpt>
      <trkpt lat="38.4198510" lon="-0.6886760">
        <ele>318.6</ele>
        <time>2020-10-12T08:06:50Z</time>
      </trkpt>
      <trkpt lat="38.4198720" lon="-0.6886020">
        <ele>318.2</ele>
        <time>2020-10-12T08:06:51Z</time>
      </trkpt>
      <trkpt lat="38.4198950" lon="-0.6885260">
        <ele>317.8</ele>
        <time>2020-10-12T08:06:52Z</time>
      </trkpt>
      <trkpt lat="38.4199180" lon="-0.6884490">
        <ele>317.2</ele>
        <time>2020-10-12T08:06:53Z</time>
      </trkpt>
      <trkpt lat="38.4199410" lon="-0.6883710">
        <ele>316.8</ele>
        <time>2020-10-12T08:06:54Z</time>
      </trkpt>
      <trkpt lat="38.4199650" lon="-0.6882920">
        <ele>316.2</ele>
        <time>2020-10-12T08:06:55Z</time>
      </trkpt>
      <trkpt lat="38.4199920" lon="-0.6882110">
        <ele>316.0</ele>
        <time>2020-10-12T08:06:56Z</time>
      </trkpt>
      <trkpt lat="38.4200170" lon="-0.6881300">
        <ele>315.6</ele>
        <time>2020-10-12T08:06:57Z</time>
      </trkpt>
      <trkpt lat="38.4200440" lon="-0.6880510">
        <ele>315.4</ele>
        <time>2020-10-12T08:06:58Z</time>
      </trkpt>
      <trkpt lat="38.4200690" lon="-0.6879690">
        <ele>315.4</ele>
        <time>2020-10-12T08:06:59Z</time>
      </trkpt>
      <trkpt lat="38.4200940" lon="-0.6878890">
        <ele>315.2</ele>
        <time>2020-10-12T08:07:00Z</time>
      </trkpt>
      <trkpt lat="38.4201190" lon="-0.6878080">
        <ele>315.0</ele>
        <time>2020-10-12T08:07:01Z</time>
      </trkpt>
      <trkpt lat="38.4201450" lon="-0.6877260">
        <ele>315.0</ele>
        <time>2020-10-12T08:07:02Z</time>
      </trkpt>
      <trkpt lat="38.4201710" lon="-0.6876420">
        <ele>314.6</ele>
        <time>2020-10-12T08:07:03Z</time>
      </trkpt>
      <trkpt lat="38.4201970" lon="-0.6875580">
        <ele>314.4</ele>
        <time>2020-10-12T08:07:04Z</time>
      </trkpt>
      <trkpt lat="38.4202230" lon="-0.6874720">
        <ele>314.4</ele>
        <time>2020-10-12T08:07:05Z</time>
      </trkpt>
      <trkpt lat="38.4202510" lon="-0.6873860">
        <ele>314.2</ele>
        <time>2020-10-12T08:07:06Z</time>
      </trkpt>
      <trkpt lat="38.4202790" lon="-0.6872990">
        <ele>314.2</ele>
        <time>2020-10-12T08:07:07Z</time>
      </trkpt>
      <trkpt lat="38.4203060" lon="-0.6872150">
        <ele>313.8</ele>
        <time>2020-10-12T08:07:08Z</time>
      </trkpt>
      <trkpt lat="38.4203350" lon="-0.6871280">
        <ele>313.6</ele>
        <time>2020-10-12T08:07:09Z</time>
      </trkpt>
      <trkpt lat="38.4203610" lon="-0.6870410">
        <ele>313.4</ele>
        <time>2020-10-12T08:07:10Z</time>
      </trkpt>
      <trkpt lat="38.4203870" lon="-0.6869550">
        <ele>313.4</ele>
        <time>2020-10-12T08:07:11Z</time>
      </trkpt>
      <trkpt lat="38.4204130" lon="-0.6868700">
        <ele>313.2</ele>
        <time>2020-10-12T08:07:12Z</time>
      </trkpt>
      <trkpt lat="38.4204400" lon="-0.6867820">
        <ele>313.0</ele>
        <time>2020-10-12T08:07:13Z</time>
      </trkpt>
      <trkpt lat="38.4204680" lon="-0.6866970">
        <ele>312.6</ele>
        <time>2020-10-12T08:07:14Z</time>
      </trkpt>
      <trkpt lat="38.4204980" lon="-0.6866090">
        <ele>312.2</ele>
        <time>2020-10-12T08:07:15Z</time>
      </trkpt>
      <trkpt lat="38.4205250" lon="-0.6865210">
        <ele>312.0</ele>
        <time>2020-10-12T08:07:16Z</time>
      </trkpt>
      <trkpt lat="38.4205540" lon="-0.6864340">
        <ele>311.8</ele>
        <time>2020-10-12T08:07:17Z</time>
      </trkpt>
      <trkpt lat="38.4205830" lon="-0.6863480">
        <ele>311.8</ele>
        <time>2020-10-12T08:07:18Z</time>
      </trkpt>
      <trkpt lat="38.4206110" lon="-0.6862610">
        <ele>311.6</ele>
        <time>2020-10-12T08:07:19Z</time>
      </trkpt>
      <trkpt lat="38.4206370" lon="-0.6861750">
        <ele>311.6</ele>
        <time>2020-10-12T08:07:20Z</time>
      </trkpt>
      <trkpt lat="38.4206640" lon="-0.6860860">
        <ele>311.6</ele>
        <time>2020-10-12T08:07:21Z</time>
      </trkpt>
      <trkpt lat="38.4206950" lon="-0.6859980">
        <ele>312.0</ele>
        <time>2020-10-12T08:07:22Z</time>
      </trkpt>
      <trkpt lat="38.4207240" lon="-0.6859090">
        <ele>312.2</ele>
        <time>2020-10-12T08:07:23Z</time>
      </trkpt>
      <trkpt lat="38.4207500" lon="-0.6858210">
        <ele>311.8</ele>
        <time>2020-10-12T08:07:24Z</time>
      </trkpt>
      <trkpt lat="38.4207770" lon="-0.6857300">
        <ele>311.4</ele>
        <time>2020-10-12T08:07:25Z</time>
      </trkpt>
      <trkpt lat="38.4208040" lon="-0.6856410">
        <ele>311.2</ele>
        <time>2020-10-12T08:07:26Z</time>
      </trkpt>
      <trkpt lat="38.4208310" lon="-0.6855490">
        <ele>310.8</ele>
        <time>2020-10-12T08:07:27Z</time>
      </trkpt>
      <trkpt lat="38.4208580" lon="-0.6854600">
        <ele>310.6</ele>
        <time>2020-10-12T08:07:28Z</time>
      </trkpt>
      <trkpt lat="38.4208860" lon="-0.6853680">
        <ele>310.4</ele>
        <time>2020-10-12T08:07:29Z</time>
      </trkpt>
      <trkpt lat="38.4209150" lon="-0.6852790">
        <ele>310.2</ele>
        <time>2020-10-12T08:07:30Z</time>
      </trkpt>
      <trkpt lat="38.4209440" lon="-0.6851880">
        <ele>310.2</ele>
        <time>2020-10-12T08:07:31Z</time>
      </trkpt>
      <trkpt lat="38.4209720" lon="-0.6850960">
        <ele>310.0</ele>
        <time>2020-10-12T08:07:32Z</time>
      </trkpt>
      <trkpt lat="38.4210020" lon="-0.6850020">
        <ele>309.6</ele>
        <time>2020-10-12T08:07:33Z</time>
      </trkpt>
      <trkpt lat="38.4210310" lon="-0.6849070">
        <ele>309.2</ele>
        <time>2020-10-12T08:07:34Z</time>
      </trkpt>
      <trkpt lat="38.4210610" lon="-0.6848110">
        <ele>309.0</ele>
        <time>2020-10-12T08:07:35Z</time>
      </trkpt>
      <trkpt lat="38.4210920" lon="-0.6847140">
        <ele>308.6</ele>
        <time>2020-10-12T08:07:36Z</time>
      </trkpt>
      <trkpt lat="38.4211230" lon="-0.6846160">
        <ele>308.4</ele>
        <time>2020-10-12T08:07:37Z</time>
      </trkpt>
      <trkpt lat="38.4211540" lon="-0.6845180">
        <ele>308.4</ele>
        <time>2020-10-12T08:07:38Z</time>
      </trkpt>
      <trkpt lat="38.4211870" lon="-0.6844180">
        <ele>308.6</ele>
        <time>2020-10-12T08:07:39Z</time>
      </trkpt>
      <trkpt lat="38.4212210" lon="-0.6843130">
        <ele>308.6</ele>
        <time>2020-10-12T08:07:40Z</time>
      </trkpt>
      <trkpt lat="38.4212550" lon="-0.6842100">
        <ele>308.4</ele>
        <time>2020-10-12T08:07:41Z</time>
      </trkpt>
      <trkpt lat="38.4212880" lon="-0.6841070">
        <ele>308.0</ele>
        <time>2020-10-12T08:07:42Z</time>
      </trkpt>
      <trkpt lat="38.4213210" lon="-0.6840020">
        <ele>307.6</ele>
        <time>2020-10-12T08:07:43Z</time>
      </trkpt>
      <trkpt lat="38.4213540" lon="-0.6839010">
        <ele>306.6</ele>
        <time>2020-10-12T08:07:44Z</time>
      </trkpt>
      <trkpt lat="38.4213860" lon="-0.6838010">
        <ele>306.0</ele>
        <time>2020-10-12T08:07:45Z</time>
      </trkpt>
      <trkpt lat="38.4214190" lon="-0.6837010">
        <ele>305.4</ele>
        <time>2020-10-12T08:07:46Z</time>
      </trkpt>
      <trkpt lat="38.4214500" lon="-0.6836020">
        <ele>305.2</ele>
        <time>2020-10-12T08:07:47Z</time>
      </trkpt>
      <trkpt lat="38.4214820" lon="-0.6835040">
        <ele>305.0</ele>
        <time>2020-10-12T08:07:48Z</time>
      </trkpt>
      <trkpt lat="38.4215150" lon="-0.6834070">
        <ele>304.8</ele>
        <time>2020-10-12T08:07:49Z</time>
      </trkpt>
      <trkpt lat="38.4215480" lon="-0.6833080">
        <ele>304.8</ele>
        <time>2020-10-12T08:07:50Z</time>
      </trkpt>
      <trkpt lat="38.4215800" lon="-0.6832110">
        <ele>304.6</ele>
        <time>2020-10-12T08:07:51Z</time>
      </trkpt>
      <trkpt lat="38.4216110" lon="-0.6831120">
        <ele>304.6</ele>
        <time>2020-10-12T08:07:52Z</time>
      </trkpt>
      <trkpt lat="38.4216440" lon="-0.6830150">
        <ele>304.6</ele>
        <time>2020-10-12T08:07:53Z</time>
      </trkpt>
      <trkpt lat="38.4216770" lon="-0.6829180">
        <ele>304.6</ele>
        <time>2020-10-12T08:07:54Z</time>
      </trkpt>
      <trkpt lat="38.4217080" lon="-0.6828200">
        <ele>304.6</ele>
        <time>2020-10-12T08:07:55Z</time>
      </trkpt>
      <trkpt lat="38.4217380" lon="-0.6827240">
        <ele>304.6</ele>
        <time>2020-10-12T08:07:56Z</time>
      </trkpt>
      <trkpt lat="38.4217680" lon="-0.6826270">
        <ele>304.6</ele>
        <time>2020-10-12T08:07:57Z</time>
      </trkpt>
      <trkpt lat="38.4217970" lon="-0.6825320">
        <ele>304.6</ele>
        <time>2020-10-12T08:07:58Z</time>
      </trkpt>
      <trkpt lat="38.4218270" lon="-0.6824380">
        <ele>304.6</ele>
        <time>2020-10-12T08:07:59Z</time>
      </trkpt>
      <trkpt lat="38.4218570" lon="-0.6823450">
        <ele>304.8</ele>
        <time>2020-10-12T08:08:00Z</time>
      </trkpt>
      <trkpt lat="38.4218870" lon="-0.6822540">
        <ele>304.8</ele>
        <time>2020-10-12T08:08:01Z</time>
      </trkpt>
      <trkpt lat="38.4219170" lon="-0.6821640">
        <ele>304.8</ele>
        <time>2020-10-12T08:08:02Z</time>
      </trkpt>
      <trkpt lat="38.4219460" lon="-0.6820770">
        <ele>304.8</ele>
        <time>2020-10-12T08:08:03Z</time>
      </trkpt>
      <trkpt lat="38.4219750" lon="-0.6819910">
        <ele>304.8</ele>
        <time>2020-10-12T08:08:04Z</time>
      </trkpt>
      <trkpt lat="38.4220030" lon="-0.6819080">
        <ele>304.8</ele>
        <time>2020-10-12T08:08:05Z</time>
      </trkpt>
      <trkpt lat="38.4220300" lon="-0.6818240">
        <ele>304.8</ele>
        <time>2020-10-12T08:08:06Z</time>
      </trkpt>
      <trkpt lat="38.4220570" lon="-0.6817400">
        <ele>304.8</ele>
        <time>2020-10-12T08:08:07Z</time>
      </trkpt>
      <trkpt lat="38.4220830" lon="-0.6816550">
        <ele>305.0</ele>
        <time>2020-10-12T08:08:08Z</time>
      </trkpt>
      <trkpt lat="38.4221100" lon="-0.6815730">
        <ele>305.2</ele>
        <time>2020-10-12T08:08:09Z</time>
      </trkpt>
      <trkpt lat="38.4221370" lon="-0.6814910">
        <ele>305.0</ele>
        <time>2020-10-12T08:08:10Z</time>
      </trkpt>
      <trkpt lat="38.4221630" lon="-0.6814090">
        <ele>305.0</ele>
        <time>2020-10-12T08:08:11Z</time>
      </trkpt>
      <trkpt lat="38.4221880" lon="-0.6813280">
        <ele>305.0</ele>
        <time>2020-10-12T08:08:12Z</time>
      </trkpt>
      <trkpt lat="38.4222130" lon="-0.6812480">
        <ele>304.8</ele>
        <time>2020-10-12T08:08:13Z</time>
      </trkpt>
      <trkpt lat="38.4222410" lon="-0.6811690">
        <ele>304.6</ele>
        <time>2020-10-12T08:08:14Z</time>
      </trkpt>
      <trkpt lat="38.4222680" lon="-0.6810910">
        <ele>304.6</ele>
        <time>2020-10-12T08:08:15Z</time>
      </trkpt>
      <trkpt lat="38.4222950" lon="-0.6810110">
        <ele>304.8</ele>
        <time>2020-10-12T08:08:16Z</time>
      </trkpt>
      <trkpt lat="38.4223190" lon="-0.6809310">
        <ele>305.0</ele>
        <time>2020-10-12T08:08:17Z</time>
      </trkpt>
      <trkpt lat="38.4223420" lon="-0.6808520">
        <ele>305.4</ele>
        <time>2020-10-12T08:08:18Z</time>
      </trkpt>
      <trkpt lat="38.4223670" lon="-0.6807720">
        <ele>305.8</ele>
        <time>2020-10-12T08:08:19Z</time>
      </trkpt>
      <trkpt lat="38.4223900" lon="-0.6806950">
        <ele>306.2</ele>
        <time>2020-10-12T08:08:20Z</time>
      </trkpt>
      <trkpt lat="38.4224110" lon="-0.6806210">
        <ele>306.4</ele>
        <time>2020-10-12T08:08:21Z</time>
      </trkpt>
      <trkpt lat="38.4224320" lon="-0.6805470">
        <ele>306.6</ele>
        <time>2020-10-12T08:08:22Z</time>
      </trkpt>
      <trkpt lat="38.4224510" lon="-0.6804760">
        <ele>306.8</ele>
        <time>2020-10-12T08:08:23Z</time>
      </trkpt>
      <trkpt lat="38.4224720" lon="-0.6804070">
        <ele>307.2</ele>
        <time>2020-10-12T08:08:24Z</time>
      </trkpt>
      <trkpt lat="38.4224920" lon="-0.6803410">
        <ele>307.4</ele>
        <time>2020-10-12T08:08:25Z</time>
      </trkpt>
      <trkpt lat="38.4225130" lon="-0.6802770">
        <ele>307.8</ele>
        <time>2020-10-12T08:08:26Z</time>
      </trkpt>
      <trkpt lat="38.4225310" lon="-0.6802140">
        <ele>308.2</ele>
        <time>2020-10-12T08:08:27Z</time>
      </trkpt>
      <trkpt lat="38.4225500" lon="-0.6801510">
        <ele>308.4</ele>
        <time>2020-10-12T08:08:28Z</time>
      </trkpt>
      <trkpt lat="38.4225670" lon="-0.6800880">
        <ele>308.8</ele>
        <time>2020-10-12T08:08:29Z</time>
      </trkpt>
      <trkpt lat="38.4225850" lon="-0.6800250">
        <ele>309.6</ele>
        <time>2020-10-12T08:08:30Z</time>
      </trkpt>
      <trkpt lat="38.4226040" lon="-0.6799640">
        <ele>310.2</ele>
        <time>2020-10-12T08:08:31Z</time>
      </trkpt>
      <trkpt lat="38.4226220" lon="-0.6799050">
        <ele>310.6</ele>
        <time>2020-10-12T08:08:32Z</time>
      </trkpt>
      <trkpt lat="38.4226370" lon="-0.6798440">
        <ele>311.0</ele>
        <time>2020-10-12T08:08:33Z</time>
      </trkpt>
      <trkpt lat="38.4226540" lon="-0.6797830">
        <ele>311.0</ele>
        <time>2020-10-12T08:08:34Z</time>
      </trkpt>
      <trkpt lat="38.4226720" lon="-0.6797210">
        <ele>311.4</ele>
        <time>2020-10-12T08:08:35Z</time>
      </trkpt>
      <trkpt lat="38.4226900" lon="-0.6796610">
        <ele>311.6</ele>
        <time>2020-10-12T08:08:36Z</time>
      </trkpt>
      <trkpt lat="38.4227070" lon="-0.6796010">
        <ele>311.8</ele>
        <time>2020-10-12T08:08:37Z</time>
      </trkpt>
      <trkpt lat="38.4227230" lon="-0.6795420">
        <ele>312.4</ele>
        <time>2020-10-12T08:08:38Z</time>
      </trkpt>
      <trkpt lat="38.4227410" lon="-0.6794820">
        <ele>312.8</ele>
        <time>2020-10-12T08:08:39Z</time>
      </trkpt>
      <trkpt lat="38.4227600" lon="-0.6794230">
        <ele>313.2</ele>
        <time>2020-10-12T08:08:40Z</time>
      </trkpt>
      <trkpt lat="38.4227810" lon="-0.6793670">
        <ele>313.6</ele>
        <time>2020-10-12T08:08:41Z</time>
      </trkpt>
      <trkpt lat="38.4228010" lon="-0.6793110">
        <ele>313.8</ele>
        <time>2020-10-12T08:08:42Z</time>
      </trkpt>
      <trkpt lat="38.4228200" lon="-0.6792560">
        <ele>314.0</ele>
        <time>2020-10-12T08:08:43Z</time>
      </trkpt>
      <trkpt lat="38.4228450" lon="-0.6791990">
        <ele>314.0</ele>
        <time>2020-10-12T08:08:44Z</time>
      </trkpt>
      <trkpt lat="38.4228710" lon="-0.6791400">
        <ele>314.4</ele>
        <time>2020-10-12T08:08:45Z</time>
      </trkpt>
      <trkpt lat="38.4229010" lon="-0.6790730">
        <ele>314.8</ele>
        <time>2020-10-12T08:08:46Z</time>
      </trkpt>
      <trkpt lat="38.4229310" lon="-0.6790080">
        <ele>315.2</ele>
        <time>2020-10-12T08:08:47Z</time>
      </trkpt>
      <trkpt lat="38.4229640" lon="-0.6789410">
        <ele>315.4</ele>
        <time>2020-10-12T08:08:48Z</time>
      </trkpt>
      <trkpt lat="38.4229980" lon="-0.6788700">
        <ele>315.6</ele>
        <time>2020-10-12T08:08:49Z</time>
      </trkpt>
      <trkpt lat="38.4230380" lon="-0.6787970">
        <ele>315.6</ele>
        <time>2020-10-12T08:08:50Z</time>
      </trkpt>
      <trkpt lat="38.4230720" lon="-0.6787230">
        <ele>315.6</ele>
        <time>2020-10-12T08:08:51Z</time>
      </trkpt>
      <trkpt lat="38.4231080" lon="-0.6786470">
        <ele>315.4</ele>
        <time>2020-10-12T08:08:52Z</time>
      </trkpt>
      <trkpt lat="38.4231460" lon="-0.6785740">
        <ele>315.0</ele>
        <time>2020-10-12T08:08:53Z</time>
      </trkpt>
      <trkpt lat="38.4231850" lon="-0.6785020">
        <ele>314.6</ele>
        <time>2020-10-12T08:08:54Z</time>
      </trkpt>
      <trkpt lat="38.4232250" lon="-0.6784290">
        <ele>314.4</ele>
        <time>2020-10-12T08:08:55Z</time>
      </trkpt>
      <trkpt lat="38.4232630" lon="-0.6783570">
        <ele>314.2</ele>
        <time>2020-10-12T08:08:56Z</time>
      </trkpt>
      <trkpt lat="38.4232990" lon="-0.6782860">
        <ele>313.8</ele>
        <time>2020-10-12T08:08:57Z</time>
      </trkpt>
      <trkpt lat="38.4233360" lon="-0.6782120">
        <ele>313.6</ele>
        <time>2020-10-12T08:08:58Z</time>
      </trkpt>
      <trkpt lat="38.4233710" lon="-0.6781430">
        <ele>313.6</ele>
        <time>2020-10-12T08:08:59Z</time>
      </trkpt>
      <trkpt lat="38.4234050" lon="-0.6780770">
        <ele>313.8</ele>
        <time>2020-10-12T08:09:00Z</time>
      </trkpt>
      <trkpt lat="38.4234440" lon="-0.6780140">
        <ele>313.8</ele>
        <time>2020-10-12T08:09:01Z</time>
      </trkpt>
      <trkpt lat="38.4234810" lon="-0.6779420">
        <ele>314.4</ele>
        <time>2020-10-12T08:09:02Z</time>
      </trkpt>
      <trkpt lat="38.4235190" lon="-0.6778660">
        <ele>315.0</ele>
        <time>2020-10-12T08:09:03Z</time>
      </trkpt>
      <trkpt lat="38.4235580" lon="-0.6777880">
        <ele>315.8</ele>
        <time>2020-10-12T08:09:04Z</time>
      </trkpt>
      <trkpt lat="38.4235950" lon="-0.6777080">
        <ele>316.0</ele>
        <time>2020-10-12T08:09:05Z</time>
      </trkpt>
      <trkpt lat="38.4236320" lon="-0.6776320">
        <ele>316.0</ele>
        <time>2020-10-12T08:09:06Z</time>
      </trkpt>
      <trkpt lat="38.4236710" lon="-0.6775580">
        <ele>315.8</ele>
        <time>2020-10-12T08:09:07Z</time>
      </trkpt>
      <trkpt lat="38.4237090" lon="-0.6774880">
        <ele>315.2</ele>
        <time>2020-10-12T08:09:08Z</time>
      </trkpt>
      <trkpt lat="38.4237480" lon="-0.6774140">
        <ele>314.8</ele>
        <time>2020-10-12T08:09:09Z</time>
      </trkpt>
      <trkpt lat="38.4237870" lon="-0.6773380">
        <ele>314.2</ele>
        <time>2020-10-12T08:09:10Z</time>
      </trkpt>
      <trkpt lat="38.4238250" lon="-0.6772560">
        <ele>313.8</ele>
        <time>2020-10-12T08:09:11Z</time>
      </trkpt>
      <trkpt lat="38.4238630" lon="-0.6771610">
        <ele>313.4</ele>
        <time>2020-10-12T08:09:12Z</time>
      </trkpt>
      <trkpt lat="38.4238970" lon="-0.6770760">
        <ele>313.2</ele>
        <time>2020-10-12T08:09:13Z</time>
      </trkpt>
      <trkpt lat="38.4239320" lon="-0.6769930">
        <ele>313.2</ele>
        <time>2020-10-12T08:09:14Z</time>
      </trkpt>
      <trkpt lat="38.4239700" lon="-0.6769130">
        <ele>312.4</ele>
        <time>2020-10-12T08:09:15Z</time>
      </trkpt>
      <trkpt lat="38.4240160" lon="-0.6768330">
        <ele>311.2</ele>
        <time>2020-10-12T08:09:16Z</time>
      </trkpt>
      <trkpt lat="38.4240580" lon="-0.6767560">
        <ele>311.0</ele>
        <time>2020-10-12T08:09:17Z</time>
      </trkpt>
      <trkpt lat="38.4240960" lon="-0.6766830">
        <ele>310.6</ele>
        <time>2020-10-12T08:09:18Z</time>
      </trkpt>
      <trkpt lat="38.4241340" lon="-0.6766070">
        <ele>310.4</ele>
        <time>2020-10-12T08:09:19Z</time>
      </trkpt>
      <trkpt lat="38.4241740" lon="-0.6765340">
        <ele>310.2</ele>
        <time>2020-10-12T08:09:20Z</time>
      </trkpt>
      <trkpt lat="38.4242160" lon="-0.6764650">
        <ele>310.2</ele>
        <time>2020-10-12T08:09:21Z</time>
      </trkpt>
      <trkpt lat="38.4242540" lon="-0.6763930">
        <ele>310.2</ele>
        <time>2020-10-12T08:09:22Z</time>
      </trkpt>
      <trkpt lat="38.4242890" lon="-0.6763180">
        <ele>310.2</ele>
        <time>2020-10-12T08:09:23Z</time>
      </trkpt>
      <trkpt lat="38.4243230" lon="-0.6762420">
        <ele>310.2</ele>
        <time>2020-10-12T08:09:24Z</time>
      </trkpt>
      <trkpt lat="38.4243570" lon="-0.6761700">
        <ele>310.2</ele>
        <time>2020-10-12T08:09:25Z</time>
      </trkpt>
      <trkpt lat="38.4243920" lon="-0.6760980">
        <ele>310.2</ele>
        <time>2020-10-12T08:09:26Z</time>
      </trkpt>
      <trkpt lat="38.4244290" lon="-0.6760260">
        <ele>310.4</ele>
        <time>2020-10-12T08:09:27Z</time>
      </trkpt>
      <trkpt lat="38.4244660" lon="-0.6759540">
        <ele>310.4</ele>
        <time>2020-10-12T08:09:28Z</time>
      </trkpt>
      <trkpt lat="38.4245010" lon="-0.6758830">
        <ele>310.4</ele>
        <time>2020-10-12T08:09:29Z</time>
      </trkpt>
      <trkpt lat="38.4245370" lon="-0.6758130">
        <ele>310.6</ele>
        <time>2020-10-12T08:09:30Z</time>
      </trkpt>
      <trkpt lat="38.4245710" lon="-0.6757420">
        <ele>310.6</ele>
        <time>2020-10-12T08:09:31Z</time>
      </trkpt>
      <trkpt lat="38.4246060" lon="-0.6756690">
        <ele>310.6</ele>
        <time>2020-10-12T08:09:32Z</time>
      </trkpt>
      <trkpt lat="38.4246410" lon="-0.6755980">
        <ele>310.6</ele>
        <time>2020-10-12T08:09:33Z</time>
      </trkpt>
      <trkpt lat="38.4246760" lon="-0.6755260">
        <ele>310.6</ele>
        <time>2020-10-12T08:09:34Z</time>
      </trkpt>
      <trkpt lat="38.4247110" lon="-0.6754650">
        <ele>310.6</ele>
        <time>2020-10-12T08:09:35Z</time>
      </trkpt>
      <trkpt lat="38.4247430" lon="-0.6753970">
        <ele>310.6</ele>
        <time>2020-10-12T08:09:36Z</time>
      </trkpt>
      <trkpt lat="38.4247770" lon="-0.6753260">
        <ele>310.6</ele>
        <time>2020-10-12T08:09:37Z</time>
      </trkpt>
      <trkpt lat="38.4248070" lon="-0.6752540">
        <ele>310.6</ele>
        <time>2020-10-12T08:09:38Z</time>
      </trkpt>
      <trkpt lat="38.4248380" lon="-0.6751810">
        <ele>310.8</ele>
        <time>2020-10-12T08:09:39Z</time>
      </trkpt>
      <trkpt lat="38.4248680" lon="-0.6751070">
        <ele>311.0</ele>
        <time>2020-10-12T08:09:40Z</time>
      </trkpt>
      <trkpt lat="38.4248940" lon="-0.6750290">
        <ele>311.2</ele>
        <time>2020-10-12T08:09:41Z</time>
      </trkpt>
      <trkpt lat="38.4249180" lon="-0.6749520">
        <ele>311.4</ele>
        <time>2020-10-12T08:09:42Z</time>
      </trkpt>
      <trkpt lat="38.4249410" lon="-0.6748740">
        <ele>311.8</ele>
        <time>2020-10-12T08:09:43Z</time>
      </trkpt>
      <trkpt lat="38.4249620" lon="-0.6747960">
        <ele>312.2</ele>
        <time>2020-10-12T08:09:44Z</time>
      </trkpt>
      <trkpt lat="38.4249820" lon="-0.6747160">
        <ele>312.6</ele>
        <time>2020-10-12T08:09:45Z</time>
      </trkpt>
      <trkpt lat="38.4250030" lon="-0.6746380">
        <ele>313.2</ele>
        <time>2020-10-12T08:09:46Z</time>
      </trkpt>
      <trkpt lat="38.4250240" lon="-0.6745610">
        <ele>313.4</ele>
        <time>2020-10-12T08:09:47Z</time>
      </trkpt>
      <trkpt lat="38.4250440" lon="-0.6744830">
        <ele>313.6</ele>
        <time>2020-10-12T08:09:48Z</time>
      </trkpt>
      <trkpt lat="38.4250650" lon="-0.6744050">
        <ele>313.6</ele>
        <time>2020-10-12T08:09:49Z</time>
      </trkpt>
      <trkpt lat="38.4250860" lon="-0.6743280">
        <ele>313.4</ele>
        <time>2020-10-12T08:09:50Z</time>
      </trkpt>
      <trkpt lat="38.4251080" lon="-0.6742490">
        <ele>313.6</ele>
        <time>2020-10-12T08:09:51Z</time>
      </trkpt>
      <trkpt lat="38.4251290" lon="-0.6741700">
        <ele>313.6</ele>
        <time>2020-10-12T08:09:52Z</time>
      </trkpt>
      <trkpt lat="38.4251500" lon="-0.6740900">
        <ele>313.6</ele>
        <time>2020-10-12T08:09:53Z</time>
      </trkpt>
      <trkpt lat="38.4251700" lon="-0.6740090">
        <ele>313.4</ele>
        <time>2020-10-12T08:09:54Z</time>
      </trkpt>
      <trkpt lat="38.4251890" lon="-0.6739280">
        <ele>313.6</ele>
        <time>2020-10-12T08:09:55Z</time>
      </trkpt>
      <trkpt lat="38.4252100" lon="-0.6738500">
        <ele>313.6</ele>
        <time>2020-10-12T08:09:56Z</time>
      </trkpt>
      <trkpt lat="38.4252330" lon="-0.6737710">
        <ele>313.6</ele>
        <time>2020-10-12T08:09:57Z</time>
      </trkpt>
      <trkpt lat="38.4252540" lon="-0.6736920">
        <ele>313.6</ele>
        <time>2020-10-12T08:09:58Z</time>
      </trkpt>
      <trkpt lat="38.4252760" lon="-0.6736150">
        <ele>313.6</ele>
        <time>2020-10-12T08:09:59Z</time>
      </trkpt>
      <trkpt lat="38.4253000" lon="-0.6735390">
        <ele>313.8</ele>
        <time>2020-10-12T08:10:00Z</time>
      </trkpt>
      <trkpt lat="38.4253240" lon="-0.6734670">
        <ele>314.0</ele>
        <time>2020-10-12T08:10:01Z</time>
      </trkpt>
      <trkpt lat="38.4253530" lon="-0.6733950">
        <ele>314.0</ele>
        <time>2020-10-12T08:10:02Z</time>
      </trkpt>
      <trkpt lat="38.4253880" lon="-0.6733250">
        <ele>314.0</ele>
        <time>2020-10-12T08:10:03Z</time>
      </trkpt>
      <trkpt lat="38.4254250" lon="-0.6732560">
        <ele>314.0</ele>
        <time>2020-10-12T08:10:04Z</time>
      </trkpt>
      <trkpt lat="38.4254600" lon="-0.6731900">
        <ele>314.0</ele>
        <time>2020-10-12T08:10:05Z</time>
      </trkpt>
      <trkpt lat="38.4254960" lon="-0.6731230">
        <ele>313.8</ele>
        <time>2020-10-12T08:10:06Z</time>
      </trkpt>
      <trkpt lat="38.4255320" lon="-0.6730510">
        <ele>313.4</ele>
        <time>2020-10-12T08:10:07Z</time>
      </trkpt>
      <trkpt lat="38.4255670" lon="-0.6729800">
        <ele>313.0</ele>
        <time>2020-10-12T08:10:08Z</time>
      </trkpt>
      <trkpt lat="38.4256020" lon="-0.6729070">
        <ele>312.6</ele>
        <time>2020-10-12T08:10:09Z</time>
      </trkpt>
      <trkpt lat="38.4256360" lon="-0.6728360">
        <ele>312.6</ele>
        <time>2020-10-12T08:10:10Z</time>
      </trkpt>
      <trkpt lat="38.4256680" lon="-0.6727660">
        <ele>312.6</ele>
        <time>2020-10-12T08:10:11Z</time>
      </trkpt>
      <trkpt lat="38.4256980" lon="-0.6726920">
        <ele>312.6</ele>
        <time>2020-10-12T08:10:12Z</time>
      </trkpt>
      <trkpt lat="38.4257230" lon="-0.6726150">
        <ele>313.0</ele>
        <time>2020-10-12T08:10:13Z</time>
      </trkpt>
      <trkpt lat="38.4257440" lon="-0.6725340">
        <ele>313.0</ele>
        <time>2020-10-12T08:10:14Z</time>
      </trkpt>
      <trkpt lat="38.4257610" lon="-0.6724510">
        <ele>313.0</ele>
        <time>2020-10-12T08:10:15Z</time>
      </trkpt>
      <trkpt lat="38.4257750" lon="-0.6723670">
        <ele>312.8</ele>
        <time>2020-10-12T08:10:16Z</time>
      </trkpt>
      <trkpt lat="38.4257860" lon="-0.6722830">
        <ele>312.8</ele>
        <time>2020-10-12T08:10:17Z</time>
      </trkpt>
      <trkpt lat="38.4257940" lon="-0.6721970">
        <ele>312.6</ele>
        <time>2020-10-12T08:10:18Z</time>
      </trkpt>
      <trkpt lat="38.4258000" lon="-0.6721110">
        <ele>312.8</ele>
        <time>2020-10-12T08:10:19Z</time>
      </trkpt>
      <trkpt lat="38.4258050" lon="-0.6720250">
        <ele>313.0</ele>
        <time>2020-10-12T08:10:20Z</time>
      </trkpt>
      <trkpt lat="38.4258100" lon="-0.6719380">
        <ele>313.2</ele>
        <time>2020-10-12T08:10:21Z</time>
      </trkpt>
      <trkpt lat="38.4258160" lon="-0.6718520">
        <ele>313.4</ele>
        <time>2020-10-12T08:10:22Z</time>
      </trkpt>
      <trkpt lat="38.4258260" lon="-0.6717660">
        <ele>313.6</ele>
        <time>2020-10-12T08:10:23Z</time>
      </trkpt>
      <trkpt lat="38.4258380" lon="-0.6716800">
        <ele>313.4</ele>
        <time>2020-10-12T08:10:24Z</time>
      </trkpt>
      <trkpt lat="38.4258510" lon="-0.6715940">
        <ele>313.4</ele>
        <time>2020-10-12T08:10:25Z</time>
      </trkpt>
      <trkpt lat="38.4258670" lon="-0.6715080">
        <ele>313.4</ele>
        <time>2020-10-12T08:10:26Z</time>
      </trkpt>
      <trkpt lat="38.4258840" lon="-0.6714230">
        <ele>313.2</ele>
        <time>2020-10-12T08:10:27Z</time>
      </trkpt>
      <trkpt lat="38.4259060" lon="-0.6713400">
        <ele>313.0</ele>
        <time>2020-10-12T08:10:28Z</time>
      </trkpt>
      <trkpt lat="38.4259290" lon="-0.6712590">
        <ele>312.6</ele>
        <time>2020-10-12T08:10:29Z</time>
      </trkpt>
      <trkpt lat="38.4259520" lon="-0.6711770">
        <ele>312.6</ele>
        <time>2020-10-12T08:10:30Z</time>
      </trkpt>
      <trkpt lat="38.4259780" lon="-0.6710970">
        <ele>312.4</ele>
        <time>2020-10-12T08:10:31Z</time>
      </trkpt>
      <trkpt lat="38.4260060" lon="-0.6710180">
        <ele>312.4</ele>
        <time>2020-10-12T08:10:32Z</time>
      </trkpt>
      <trkpt lat="38.4260360" lon="-0.6709380">
        <ele>312.4</ele>
        <time>2020-10-12T08:10:33Z</time>
      </trkpt>
      <trkpt lat="38.4260690" lon="-0.6708560">
        <ele>312.4</ele>
        <time>2020-10-12T08:10:34Z</time>
      </trkpt>
      <trkpt lat="38.4261020" lon="-0.6707760">
        <ele>312.4</ele>
        <time>2020-10-12T08:10:35Z</time>
      </trkpt>
      <trkpt lat="38.4261330" lon="-0.6706990">
        <ele>312.2</ele>
        <time>2020-10-12T08:10:36Z</time>
      </trkpt>
      <trkpt lat="38.4261620" lon="-0.6706220">
        <ele>312.2</ele>
        <time>2020-10-12T08:10:37Z</time>
      </trkpt>
      <trkpt lat="38.4261910" lon="-0.6705440">
        <ele>311.6</ele>
        <time>2020-10-12T08:10:38Z</time>
      </trkpt>
      <trkpt lat="38.4262210" lon="-0.6704660">
        <ele>311.0</ele>
        <time>2020-10-12T08:10:39Z</time>
      </trkpt>
      <trkpt lat="38.4262540" lon="-0.6703880">
        <ele>310.6</ele>
        <time>2020-10-12T08:10:40Z</time>
      </trkpt>
      <trkpt lat="38.4262900" lon="-0.6703110">
        <ele>310.0</ele>
        <time>2020-10-12T08:10:41Z</time>
      </trkpt>
      <trkpt lat="38.4263260" lon="-0.6702370">
        <ele>309.6</ele>
        <time>2020-10-12T08:10:42Z</time>
      </trkpt>
      <trkpt lat="38.4263570" lon="-0.6701630">
        <ele>309.2</ele>
        <time>2020-10-12T08:10:43Z</time>
      </trkpt>
      <trkpt lat="38.4263880" lon="-0.6700880">
        <ele>309.0</ele>
        <time>2020-10-12T08:10:44Z</time>
      </trkpt>
      <trkpt lat="38.4264200" lon="-0.6700130">
        <ele>308.8</ele>
        <time>2020-10-12T08:10:45Z</time>
      </trkpt>
      <trkpt lat="38.4264520" lon="-0.6699380">
        <ele>308.6</ele>
        <time>2020-10-12T08:10:46Z</time>
      </trkpt>
      <trkpt lat="38.4264840" lon="-0.6698610">
        <ele>308.4</ele>
        <time>2020-10-12T08:10:47Z</time>
      </trkpt>
      <trkpt lat="38.4265150" lon="-0.6697850">
        <ele>308.4</ele>
        <time>2020-10-12T08:10:48Z</time>
      </trkpt>
      <trkpt lat="38.4265470" lon="-0.6697100">
        <ele>308.2</ele>
        <time>2020-10-12T08:10:49Z</time>
      </trkpt>
      <trkpt lat="38.4265780" lon="-0.6696340">
        <ele>307.8</ele>
        <time>2020-10-12T08:10:50Z</time>
      </trkpt>
      <trkpt lat="38.4266080" lon="-0.6695570">
        <ele>307.6</ele>
        <time>2020-10-12T08:10:51Z</time>
      </trkpt>
      <trkpt lat="38.4266380" lon="-0.6694800">
        <ele>307.8</ele>
        <time>2020-10-12T08:10:52Z</time>
      </trkpt>
      <trkpt lat="38.4266700" lon="-0.6694070">
        <ele>308.0</ele>
        <time>2020-10-12T08:10:53Z</time>
      </trkpt>
      <trkpt lat="38.4267000" lon="-0.6693320">
        <ele>307.8</ele>
        <time>2020-10-12T08:10:54Z</time>
      </trkpt>
      <trkpt lat="38.4267310" lon="-0.6692550">
        <ele>307.8</ele>
        <time>2020-10-12T08:10:55Z</time>
      </trkpt>
      <trkpt lat="38.4267640" lon="-0.6691790">
        <ele>307.8</ele>
        <time>2020-10-12T08:10:56Z</time>
      </trkpt>
      <trkpt lat="38.4267980" lon="-0.6691020">
        <ele>307.8</ele>
        <time>2020-10-12T08:10:57Z</time>
      </trkpt>
      <trkpt lat="38.4268320" lon="-0.6690260">
        <ele>307.8</ele>
        <time>2020-10-12T08:10:58Z</time>
      </trkpt>
      <trkpt lat="38.4268660" lon="-0.6689520">
        <ele>307.8</ele>
        <time>2020-10-12T08:10:59Z</time>
      </trkpt>
      <trkpt lat="38.4269000" lon="-0.6688770">
        <ele>307.8</ele>
        <time>2020-10-12T08:11:00Z</time>
      </trkpt>
      <trkpt lat="38.4269330" lon="-0.6688010">
        <ele>308.0</ele>
        <time>2020-10-12T08:11:01Z</time>
      </trkpt>
      <trkpt lat="38.4269680" lon="-0.6687250">
        <ele>307.8</ele>
        <time>2020-10-12T08:11:02Z</time>
      </trkpt>
      <trkpt lat="38.4270050" lon="-0.6686480">
        <ele>307.8</ele>
        <time>2020-10-12T08:11:03Z</time>
      </trkpt>
      <trkpt lat="38.4270430" lon="-0.6685710">
        <ele>307.8</ele>
        <time>2020-10-12T08:11:04Z</time>
      </trkpt>
      <trkpt lat="38.4270820" lon="-0.6684970">
        <ele>307.8</ele>
        <time>2020-10-12T08:11:05Z</time>
      </trkpt>
      <trkpt lat="38.4271260" lon="-0.6684220">
        <ele>307.8</ele>
        <time>2020-10-12T08:11:06Z</time>
      </trkpt>
      <trkpt lat="38.4271700" lon="-0.6683490">
        <ele>307.6</ele>
        <time>2020-10-12T08:11:07Z</time>
      </trkpt>
      <trkpt lat="38.4272140" lon="-0.6682760">
        <ele>307.4</ele>
        <time>2020-10-12T08:11:08Z</time>
      </trkpt>
      <trkpt lat="38.4272560" lon="-0.6681990">
        <ele>307.2</ele>
        <time>2020-10-12T08:11:09Z</time>
      </trkpt>
      <trkpt lat="38.4272980" lon="-0.6681200">
        <ele>307.0</ele>
        <time>2020-10-12T08:11:10Z</time>
      </trkpt>
      <trkpt lat="38.4273390" lon="-0.6680390">
        <ele>306.6</ele>
        <time>2020-10-12T08:11:11Z</time>
      </trkpt>
      <trkpt lat="38.4273800" lon="-0.6679560">
        <ele>306.4</ele>
        <time>2020-10-12T08:11:12Z</time>
      </trkpt>
      <trkpt lat="38.4274200" lon="-0.6678730">
        <ele>306.2</ele>
        <time>2020-10-12T08:11:13Z</time>
      </trkpt>
      <trkpt lat="38.4274600" lon="-0.6677880">
        <ele>306.0</ele>
        <time>2020-10-12T08:11:14Z</time>
      </trkpt>
      <trkpt lat="38.4274980" lon="-0.6677030">
        <ele>306.0</ele>
        <time>2020-10-12T08:11:15Z</time>
      </trkpt>
      <trkpt lat="38.4275350" lon="-0.6676160">
        <ele>306.0</ele>
        <time>2020-10-12T08:11:16Z</time>
      </trkpt>
      <trkpt lat="38.4275730" lon="-0.6675310">
        <ele>305.8</ele>
        <time>2020-10-12T08:11:17Z</time>
      </trkpt>
      <trkpt lat="38.4276110" lon="-0.6674470">
        <ele>305.8</ele>
        <time>2020-10-12T08:11:18Z</time>
      </trkpt>
      <trkpt lat="38.4276480" lon="-0.6673620">
        <ele>305.8</ele>
        <time>2020-10-12T08:11:19Z</time>
      </trkpt>
      <trkpt lat="38.4276840" lon="-0.6672800">
        <ele>305.4</ele>
        <time>2020-10-12T08:11:20Z</time>
      </trkpt>
      <trkpt lat="38.4277190" lon="-0.6671960">
        <ele>305.2</ele>
        <time>2020-10-12T08:11:21Z</time>
      </trkpt>
      <trkpt lat="38.4277540" lon="-0.6671170">
        <ele>305.0</ele>
        <time>2020-10-12T08:11:22Z</time>
      </trkpt>
      <trkpt lat="38.4277900" lon="-0.6670340">
        <ele>305.2</ele>
        <time>2020-10-12T08:11:23Z</time>
      </trkpt>
      <trkpt lat="38.4278250" lon="-0.6669520">
        <ele>305.8</ele>
        <time>2020-10-12T08:11:24Z</time>
      </trkpt>
      <trkpt lat="38.4278620" lon="-0.6668700">
        <ele>306.6</ele>
        <time>2020-10-12T08:11:25Z</time>
      </trkpt>
      <trkpt lat="38.4278980" lon="-0.6667870">
        <ele>307.6</ele>
        <time>2020-10-12T08:11:26Z</time>
      </trkpt>
      <trkpt lat="38.4279340" lon="-0.6667030">
        <ele>308.4</ele>
        <time>2020-10-12T08:11:27Z</time>
      </trkpt>
      <trkpt lat="38.4279700" lon="-0.6666210">
        <ele>309.0</ele>
        <time>2020-10-12T08:11:28Z</time>
      </trkpt>
      <trkpt lat="38.4280030" lon="-0.6665390">
        <ele>309.2</ele>
        <time>2020-10-12T08:11:29Z</time>
      </trkpt>
      <trkpt lat="38.4280380" lon="-0.6664580">
        <ele>309.4</ele>
        <time>2020-10-12T08:11:30Z</time>
      </trkpt>
      <trkpt lat="38.4280740" lon="-0.6663780">
        <ele>309.4</ele>
        <time>2020-10-12T08:11:31Z</time>
      </trkpt>
      <trkpt lat="38.4281090" lon="-0.6662990">
        <ele>309.2</ele>
        <time>2020-10-12T08:11:32Z</time>
      </trkpt>
      <trkpt lat="38.4281490" lon="-0.6662220">
        <ele>308.8</ele>
        <time>2020-10-12T08:11:33Z</time>
      </trkpt>
      <trkpt lat="38.4281890" lon="-0.6661450">
        <ele>308.4</ele>
        <time>2020-10-12T08:11:34Z</time>
      </trkpt>
      <trkpt lat="38.4282260" lon="-0.6660690">
        <ele>308.0</ele>
        <time>2020-10-12T08:11:35Z</time>
      </trkpt>
      <trkpt lat="38.4282610" lon="-0.6659910">
        <ele>307.6</ele>
        <time>2020-10-12T08:11:36Z</time>
      </trkpt>
      <trkpt lat="38.4282940" lon="-0.6659130">
        <ele>307.4</ele>
        <time>2020-10-12T08:11:37Z</time>
      </trkpt>
      <trkpt lat="38.4283280" lon="-0.6658330">
        <ele>307.2</ele>
        <time>2020-10-12T08:11:38Z</time>
      </trkpt>
      <trkpt lat="38.4283600" lon="-0.6657520">
        <ele>306.8</ele>
        <time>2020-10-12T08:11:39Z</time>
      </trkpt>
      <trkpt lat="38.4283920" lon="-0.6656710">
        <ele>306.6</ele>
        <time>2020-10-12T08:11:40Z</time>
      </trkpt>
      <trkpt lat="38.4284230" lon="-0.6655920">
        <ele>306.6</ele>
        <time>2020-10-12T08:11:41Z</time>
      </trkpt>
      <trkpt lat="38.4284560" lon="-0.6655120">
        <ele>306.6</ele>
        <time>2020-10-12T08:11:42Z</time>
      </trkpt>
      <trkpt lat="38.4284890" lon="-0.6654310">
        <ele>306.6</ele>
        <time>2020-10-12T08:11:43Z</time>
      </trkpt>
      <trkpt lat="38.4285220" lon="-0.6653500">
        <ele>306.6</ele>
        <time>2020-10-12T08:11:44Z</time>
      </trkpt>
      <trkpt lat="38.4285560" lon="-0.6652710">
        <ele>306.8</ele>
        <time>2020-10-12T08:11:45Z</time>
      </trkpt>
      <trkpt lat="38.4285880" lon="-0.6651950">
        <ele>306.8</ele>
        <time>2020-10-12T08:11:46Z</time>
      </trkpt>
      <trkpt lat="38.4286210" lon="-0.6651170">
        <ele>306.8</ele>
        <time>2020-10-12T08:11:47Z</time>
      </trkpt>
      <trkpt lat="38.4286530" lon="-0.6650360">
        <ele>306.6</ele>
        <time>2020-10-12T08:11:48Z</time>
      </trkpt>
      <trkpt lat="38.4286830" lon="-0.6649530">
        <ele>306.4</ele>
        <time>2020-10-12T08:11:49Z</time>
      </trkpt>
      <trkpt lat="38.4287140" lon="-0.6648730">
        <ele>306.2</ele>
        <time>2020-10-12T08:11:50Z</time>
      </trkpt>
      <trkpt lat="38.4287460" lon="-0.6647930">
        <ele>306.2</ele>
        <time>2020-10-12T08:11:51Z</time>
      </trkpt>
      <trkpt lat="38.4287770" lon="-0.6647130">
        <ele>306.0</ele>
        <time>2020-10-12T08:11:52Z</time>
      </trkpt>
      <trkpt lat="38.4288090" lon="-0.6646370">
        <ele>306.0</ele>
        <time>2020-10-12T08:11:53Z</time>
      </trkpt>
      <trkpt lat="38.4288410" lon="-0.6645610">
        <ele>306.2</ele>
        <time>2020-10-12T08:11:54Z</time>
      </trkpt>
      <trkpt lat="38.4288760" lon="-0.6644840">
        <ele>306.2</ele>
        <time>2020-10-12T08:11:55Z</time>
      </trkpt>
      <trkpt lat="38.4289090" lon="-0.6644100">
        <ele>306.0</ele>
        <time>2020-10-12T08:11:56Z</time>
      </trkpt>
      <trkpt lat="38.4289400" lon="-0.6643350">
        <ele>306.0</ele>
        <time>2020-10-12T08:11:57Z</time>
      </trkpt>
      <trkpt lat="38.4289700" lon="-0.6642600">
        <ele>305.6</ele>
        <time>2020-10-12T08:11:58Z</time>
      </trkpt>
      <trkpt lat="38.4290000" lon="-0.6641860">
        <ele>305.4</ele>
        <time>2020-10-12T08:11:59Z</time>
      </trkpt>
      <trkpt lat="38.4290290" lon="-0.6641100">
        <ele>305.4</ele>
        <time>2020-10-12T08:12:00Z</time>
      </trkpt>
      <trkpt lat="38.4290570" lon="-0.6640340">
        <ele>305.4</ele>
        <time>2020-10-12T08:12:01Z</time>
      </trkpt>
      <trkpt lat="38.4290860" lon="-0.6639610">
        <ele>305.4</ele>
        <time>2020-10-12T08:12:02Z</time>
      </trkpt>
      <trkpt lat="38.4291140" lon="-0.6638870">
        <ele>305.6</ele>
        <time>2020-10-12T08:12:03Z</time>
      </trkpt>
      <trkpt lat="38.4291410" lon="-0.6638150">
        <ele>305.6</ele>
        <time>2020-10-12T08:12:04Z</time>
      </trkpt>
      <trkpt lat="38.4291670" lon="-0.6637460">
        <ele>305.8</ele>
        <time>2020-10-12T08:12:05Z</time>
      </trkpt>
      <trkpt lat="38.4291940" lon="-0.6636760">
        <ele>306.2</ele>
        <time>2020-10-12T08:12:06Z</time>
      </trkpt>
      <trkpt lat="38.4292190" lon="-0.6636090">
        <ele>306.4</ele>
        <time>2020-10-12T08:12:07Z</time>
      </trkpt>
      <trkpt lat="38.4292440" lon="-0.6635400">
        <ele>306.6</ele>
        <time>2020-10-12T08:12:08Z</time>
      </trkpt>
      <trkpt lat="38.4292700" lon="-0.6634710">
        <ele>306.6</ele>
        <time>2020-10-12T08:12:09Z</time>
      </trkpt>
      <trkpt lat="38.4292930" lon="-0.6633990">
        <ele>306.6</ele>
        <time>2020-10-12T08:12:10Z</time>
      </trkpt>
      <trkpt lat="38.4293150" lon="-0.6633260">
        <ele>307.0</ele>
        <time>2020-10-12T08:12:11Z</time>
      </trkpt>
      <trkpt lat="38.4293360" lon="-0.6632510">
        <ele>307.4</ele>
        <time>2020-10-12T08:12:12Z</time>
      </trkpt>
      <trkpt lat="38.4293560" lon="-0.6631750">
        <ele>307.8</ele>
        <time>2020-10-12T08:12:13Z</time>
      </trkpt>
      <trkpt lat="38.4293750" lon="-0.6630990">
        <ele>308.0</ele>
        <time>2020-10-12T08:12:14Z</time>
      </trkpt>
      <trkpt lat="38.4293930" lon="-0.6630210">
        <ele>308.2</ele>
        <time>2020-10-12T08:12:15Z</time>
      </trkpt>
      <trkpt lat="38.4294120" lon="-0.6629410">
        <ele>308.2</ele>
        <time>2020-10-12T08:12:16Z</time>
      </trkpt>
      <trkpt lat="38.4294290" lon="-0.6628610">
        <ele>308.2</ele>
        <time>2020-10-12T08:12:17Z</time>
      </trkpt>
      <trkpt lat="38.4294450" lon="-0.6627810">
        <ele>308.0</ele>
        <time>2020-10-12T08:12:18Z</time>
      </trkpt>
      <trkpt lat="38.4294630" lon="-0.6627010">
        <ele>308.0</ele>
        <time>2020-10-12T08:12:19Z</time>
      </trkpt>
      <trkpt lat="38.4294850" lon="-0.6626210">
        <ele>308.0</ele>
        <time>2020-10-12T08:12:20Z</time>
      </trkpt>
      <trkpt lat="38.4295070" lon="-0.6625400">
        <ele>308.0</ele>
        <time>2020-10-12T08:12:21Z</time>
      </trkpt>
      <trkpt lat="38.4295280" lon="-0.6624580">
        <ele>308.0</ele>
        <time>2020-10-12T08:12:22Z</time>
      </trkpt>
      <trkpt lat="38.4295510" lon="-0.6623780">
        <ele>308.2</ele>
        <time>2020-10-12T08:12:23Z</time>
      </trkpt>
      <trkpt lat="38.4295730" lon="-0.6622980">
        <ele>308.0</ele>
        <time>2020-10-12T08:12:24Z</time>
      </trkpt>
      <trkpt lat="38.4295940" lon="-0.6622150">
        <ele>308.0</ele>
        <time>2020-10-12T08:12:25Z</time>
      </trkpt>
      <trkpt lat="38.4296140" lon="-0.6621310">
        <ele>307.8</ele>
        <time>2020-10-12T08:12:26Z</time>
      </trkpt>
      <trkpt lat="38.4296350" lon="-0.6620510">
        <ele>307.8</ele>
        <time>2020-10-12T08:12:27Z</time>
      </trkpt>
      <trkpt lat="38.4296570" lon="-0.6619720">
        <ele>307.6</ele>
        <time>2020-10-12T08:12:28Z</time>
      </trkpt>
      <trkpt lat="38.4296790" lon="-0.6618950">
        <ele>307.4</ele>
        <time>2020-10-12T08:12:29Z</time>
      </trkpt>
      <trkpt lat="38.4296980" lon="-0.6618180">
        <ele>307.4</ele>
        <time>2020-10-12T08:12:30Z</time>
      </trkpt>
      <trkpt lat="38.4297170" lon="-0.6617440">
        <ele>307.2</ele>
        <time>2020-10-12T08:12:31Z</time>
      </trkpt>
      <trkpt lat="38.4297320" lon="-0.6616740">
        <ele>307.2</ele>
        <time>2020-10-12T08:12:32Z</time>
      </trkpt>
      <trkpt lat="38.4297470" lon="-0.6616070">
        <ele>307.4</ele>
        <time>2020-10-12T08:12:33Z</time>
      </trkpt>
      <trkpt lat="38.4297580" lon="-0.6615400">
        <ele>307.4</ele>
        <time>2020-10-12T08:12:34Z</time>
      </trkpt>
      <trkpt lat="38.4297620" lon="-0.6614800">
        <ele>307.6</ele>
        <time>2020-10-12T08:12:35Z</time>
      </trkpt>
      <trkpt lat="38.4297620" lon="-0.6614240">
        <ele>307.8</ele>
        <time>2020-10-12T08:12:36Z</time>
      </trkpt>
      <trkpt lat="38.4297550" lon="-0.6613660">
        <ele>308.0</ele>
        <time>2020-10-12T08:12:37Z</time>
      </trkpt>
      <trkpt lat="38.4297430" lon="-0.6613010">
        <ele>308.2</ele>
        <time>2020-10-12T08:12:38Z</time>
      </trkpt>
      <trkpt lat="38.4297310" lon="-0.6612340">
        <ele>308.4</ele>
        <time>2020-10-12T08:12:39Z</time>
      </trkpt>
      <trkpt lat="38.4297290" lon="-0.6611680">
        <ele>308.6</ele>
        <time>2020-10-12T08:12:40Z</time>
      </trkpt>
      <trkpt lat="38.4297430" lon="-0.6611070">
        <ele>308.8</ele>
        <time>2020-10-12T08:12:41Z</time>
      </trkpt>
      <trkpt lat="38.4297710" lon="-0.6610500">
        <ele>309.0</ele>
        <time>2020-10-12T08:12:42Z</time>
      </trkpt>
      <trkpt lat="38.4298110" lon="-0.6610010">
        <ele>309.0</ele>
        <time>2020-10-12T08:12:43Z</time>
      </trkpt>
      <trkpt lat="38.4298510" lon="-0.6609580">
        <ele>308.8</ele>
        <time>2020-10-12T08:12:44Z</time>
      </trkpt>
      <trkpt lat="38.4298780" lon="-0.6609090">
        <ele>308.6</ele>
        <time>2020-10-12T08:12:45Z</time>
      </trkpt>
      <trkpt lat="38.4299080" lon="-0.6608550">
        <ele>308.2</ele>
        <time>2020-10-12T08:12:46Z</time>
      </trkpt>
      <trkpt lat="38.4299340" lon="-0.6607930">
        <ele>308.0</ele>
        <time>2020-10-12T08:12:47Z</time>
      </trkpt>
      <trkpt lat="38.4299570" lon="-0.6607250">
        <ele>308.0</ele>
        <time>2020-10-12T08:12:48Z</time>
      </trkpt>
      <trkpt lat="38.4299780" lon="-0.6606530">
        <ele>308.0</ele>
        <time>2020-10-12T08:12:49Z</time>
      </trkpt>
      <trkpt lat="38.4299970" lon="-0.6605820">
        <ele>308.2</ele>
        <time>2020-10-12T08:12:50Z</time>
      </trkpt>
      <trkpt lat="38.4300160" lon="-0.6605100">
        <ele>308.4</ele>
        <time>2020-10-12T08:12:51Z</time>
      </trkpt>
      <trkpt lat="38.4300350" lon="-0.6604350">
        <ele>308.6</ele>
        <time>2020-10-12T08:12:52Z</time>
      </trkpt>
      <trkpt lat="38.4300540" lon="-0.6603630">
        <ele>308.6</ele>
        <time>2020-10-12T08:12:53Z</time>
      </trkpt>
      <trkpt lat="38.4300710" lon="-0.6602870">
        <ele>308.6</ele>
        <time>2020-10-12T08:12:54Z</time>
      </trkpt>
      <trkpt lat="38.4300880" lon="-0.6602150">
        <ele>308.6</ele>
        <time>2020-10-12T08:12:55Z</time>
      </trkpt>
      <trkpt lat="38.4301060" lon="-0.6601420">
        <ele>308.6</ele>
        <time>2020-10-12T08:12:56Z</time>
      </trkpt>
      <trkpt lat="38.4301240" lon="-0.6600690">
        <ele>308.4</ele>
        <time>2020-10-12T08:12:57Z</time>
      </trkpt>
      <trkpt lat="38.4301440" lon="-0.6599980">
        <ele>308.6</ele>
        <time>2020-10-12T08:12:58Z</time>
      </trkpt>
      <trkpt lat="38.4301640" lon="-0.6599250">
        <ele>308.8</ele>
        <time>2020-10-12T08:12:59Z</time>
      </trkpt>
      <trkpt lat="38.4301850" lon="-0.6598520">
        <ele>309.4</ele>
        <time>2020-10-12T08:13:00Z</time>
      </trkpt>
      <trkpt lat="38.4302040" lon="-0.6597800">
        <ele>309.6</ele>
        <time>2020-10-12T08:13:01Z</time>
      </trkpt>
      <trkpt lat="38.4302220" lon="-0.6597100">
        <ele>309.6</ele>
        <time>2020-10-12T08:13:02Z</time>
      </trkpt>
      <trkpt lat="38.4302400" lon="-0.6596390">
        <ele>310.0</ele>
        <time>2020-10-12T08:13:03Z</time>
      </trkpt>
      <trkpt lat="38.4302590" lon="-0.6595680">
        <ele>310.2</ele>
        <time>2020-10-12T08:13:04Z</time>
      </trkpt>
      <trkpt lat="38.4302800" lon="-0.6594990">
        <ele>310.2</ele>
        <time>2020-10-12T08:13:05Z</time>
      </trkpt>
      <trkpt lat="38.4303020" lon="-0.6594280">
        <ele>310.2</ele>
        <time>2020-10-12T08:13:06Z</time>
      </trkpt>
      <trkpt lat="38.4303220" lon="-0.6593550">
        <ele>310.0</ele>
        <time>2020-10-12T08:13:07Z</time>
      </trkpt>
      <trkpt lat="38.4303420" lon="-0.6592810">
        <ele>310.2</ele>
        <time>2020-10-12T08:13:08Z</time>
      </trkpt>
      <trkpt lat="38.4303630" lon="-0.6592080">
        <ele>310.0</ele>
        <time>2020-10-12T08:13:09Z</time>
      </trkpt>
      <trkpt lat="38.4303800" lon="-0.6591330">
        <ele>309.8</ele>
        <time>2020-10-12T08:13:10Z</time>
      </trkpt>
      <trkpt lat="38.4304020" lon="-0.6590580">
        <ele>309.6</ele>
        <time>2020-10-12T08:13:11Z</time>
      </trkpt>
      <trkpt lat="38.4304220" lon="-0.6589830">
        <ele>309.4</ele>
        <time>2020-10-12T08:13:12Z</time>
      </trkpt>
      <trkpt lat="38.4304430" lon="-0.6589080">
        <ele>309.4</ele>
        <time>2020-10-12T08:13:13Z</time>
      </trkpt>
      <trkpt lat="38.4304640" lon="-0.6588360">
        <ele>309.6</ele>
        <time>2020-10-12T08:13:14Z</time>
      </trkpt>
      <trkpt lat="38.4304850" lon="-0.6587640">
        <ele>309.6</ele>
        <time>2020-10-12T08:13:15Z</time>
      </trkpt>
      <trkpt lat="38.4305030" lon="-0.6586920">
        <ele>309.6</ele>
        <time>2020-10-12T08:13:16Z</time>
      </trkpt>
      <trkpt lat="38.4305200" lon="-0.6586170">
        <ele>309.8</ele>
        <time>2020-10-12T08:13:17Z</time>
      </trkpt>
      <trkpt lat="38.4305360" lon="-0.6585420">
        <ele>310.0</ele>
        <time>2020-10-12T08:13:18Z</time>
      </trkpt>
      <trkpt lat="38.4305530" lon="-0.6584630">
        <ele>310.0</ele>
        <time>2020-10-12T08:13:19Z</time>
      </trkpt>
      <trkpt lat="38.4305650" lon="-0.6583830">
        <ele>310.0</ele>
        <time>2020-10-12T08:13:20Z</time>
      </trkpt>
      <trkpt lat="38.4305750" lon="-0.6583020">
        <ele>310.2</ele>
        <time>2020-10-12T08:13:21Z</time>
      </trkpt>
      <trkpt lat="38.4305910" lon="-0.6582160">
        <ele>310.2</ele>
        <time>2020-10-12T08:13:22Z</time>
      </trkpt>
      <trkpt lat="38.4306040" lon="-0.6581320">
        <ele>310.4</ele>
        <time>2020-10-12T08:13:23Z</time>
      </trkpt>
      <trkpt lat="38.4306170" lon="-0.6580450">
        <ele>310.4</ele>
        <time>2020-10-12T08:13:24Z</time>
      </trkpt>
      <trkpt lat="38.4306320" lon="-0.6579560">
        <ele>310.6</ele>
        <time>2020-10-12T08:13:25Z</time>
      </trkpt>
      <trkpt lat="38.4306460" lon="-0.6578690">
        <ele>310.8</ele>
        <time>2020-10-12T08:13:26Z</time>
      </trkpt>
      <trkpt lat="38.4306600" lon="-0.6577800">
        <ele>310.8</ele>
        <time>2020-10-12T08:13:27Z</time>
      </trkpt>
      <trkpt lat="38.4306730" lon="-0.6576900">
        <ele>310.8</ele>
        <time>2020-10-12T08:13:28Z</time>
      </trkpt>
      <trkpt lat="38.4306850" lon="-0.6576000">
        <ele>310.8</ele>
        <time>2020-10-12T08:13:29Z</time>
      </trkpt>
      <trkpt lat="38.4306960" lon="-0.6575110">
        <ele>310.8</ele>
        <time>2020-10-12T08:13:30Z</time>
      </trkpt>
      <trkpt lat="38.4307080" lon="-0.6574200">
        <ele>310.8</ele>
        <time>2020-10-12T08:13:31Z</time>
      </trkpt>
      <trkpt lat="38.4307190" lon="-0.6573280">
        <ele>310.6</ele>
        <time>2020-10-12T08:13:32Z</time>
      </trkpt>
      <trkpt lat="38.4307290" lon="-0.6572360">
        <ele>310.6</ele>
        <time>2020-10-12T08:13:33Z</time>
      </trkpt>
      <trkpt lat="38.4307390" lon="-0.6571450">
        <ele>310.6</ele>
        <time>2020-10-12T08:13:34Z</time>
      </trkpt>
      <trkpt lat="38.4307520" lon="-0.6570530">
        <ele>310.6</ele>
        <time>2020-10-12T08:13:35Z</time>
      </trkpt>
      <trkpt lat="38.4307670" lon="-0.6569630">
        <ele>310.8</ele>
        <time>2020-10-12T08:13:36Z</time>
      </trkpt>
      <trkpt lat="38.4307810" lon="-0.6568710">
        <ele>310.8</ele>
        <time>2020-10-12T08:13:37Z</time>
      </trkpt>
      <trkpt lat="38.4307980" lon="-0.6567800">
        <ele>310.6</ele>
        <time>2020-10-12T08:13:38Z</time>
      </trkpt>
      <trkpt lat="38.4308130" lon="-0.6566890">
        <ele>310.6</ele>
        <time>2020-10-12T08:13:39Z</time>
      </trkpt>
      <trkpt lat="38.4308260" lon="-0.6565960">
        <ele>310.6</ele>
        <time>2020-10-12T08:13:40Z</time>
      </trkpt>
      <trkpt lat="38.4308390" lon="-0.6565010">
        <ele>310.6</ele>
        <time>2020-10-12T08:13:41Z</time>
      </trkpt>
      <trkpt lat="38.4308520" lon="-0.6564090">
        <ele>310.4</ele>
        <time>2020-10-12T08:13:42Z</time>
      </trkpt>
      <trkpt lat="38.4308660" lon="-0.6563190">
        <ele>310.4</ele>
        <time>2020-10-12T08:13:43Z</time>
      </trkpt>
      <trkpt lat="38.4308800" lon="-0.6562290">
        <ele>310.2</ele>
        <time>2020-10-12T08:13:44Z</time>
      </trkpt>
      <trkpt lat="38.4308930" lon="-0.6561390">
        <ele>310.2</ele>
        <time>2020-10-12T08:13:45Z</time>
      </trkpt>
      <trkpt lat="38.4309050" lon="-0.6560490">
        <ele>310.2</ele>
        <time>2020-10-12T08:13:46Z</time>
      </trkpt>
      <trkpt lat="38.4309180" lon="-0.6559550">
        <ele>310.0</ele>
        <time>2020-10-12T08:13:47Z</time>
      </trkpt>
      <trkpt lat="38.4309310" lon="-0.6558610">
        <ele>310.0</ele>
        <time>2020-10-12T08:13:48Z</time>
      </trkpt>
      <trkpt lat="38.4309420" lon="-0.6557660">
        <ele>310.0</ele>
        <time>2020-10-12T08:13:49Z</time>
      </trkpt>
      <trkpt lat="38.4309530" lon="-0.6556730">
        <ele>309.8</ele>
        <time>2020-10-12T08:13:50Z</time>
      </trkpt>
      <trkpt lat="38.4309640" lon="-0.6555810">
        <ele>309.4</ele>
        <time>2020-10-12T08:13:51Z</time>
      </trkpt>
      <trkpt lat="38.4309750" lon="-0.6554890">
        <ele>309.2</ele>
        <time>2020-10-12T08:13:52Z</time>
      </trkpt>
      <trkpt lat="38.4309870" lon="-0.6553970">
        <ele>309.0</ele>
        <time>2020-10-12T08:13:53Z</time>
      </trkpt>
      <trkpt lat="38.4310010" lon="-0.6553060">
        <ele>309.0</ele>
        <time>2020-10-12T08:13:54Z</time>
      </trkpt>
      <trkpt lat="38.4310160" lon="-0.6552150">
        <ele>309.0</ele>
        <time>2020-10-12T08:13:55Z</time>
      </trkpt>
      <trkpt lat="38.4310300" lon="-0.6551240">
        <ele>309.0</ele>
        <time>2020-10-12T08:13:56Z</time>
      </trkpt>
      <trkpt lat="38.4310450" lon="-0.6550320">
        <ele>309.0</ele>
        <time>2020-10-12T08:13:57Z</time>
      </trkpt>
      <trkpt lat="38.4310620" lon="-0.6549410">
        <ele>309.0</ele>
        <time>2020-10-12T08:13:58Z</time>
      </trkpt>
      <trkpt lat="38.4310810" lon="-0.6548510">
        <ele>308.8</ele>
        <time>2020-10-12T08:13:59Z</time>
      </trkpt>
      <trkpt lat="38.4311000" lon="-0.6547640">
        <ele>308.6</ele>
        <time>2020-10-12T08:14:00Z</time>
      </trkpt>
      <trkpt lat="38.4311250" lon="-0.6546770">
        <ele>308.2</ele>
        <time>2020-10-12T08:14:01Z</time>
      </trkpt>
      <trkpt lat="38.4311510" lon="-0.6545910">
        <ele>308.2</ele>
        <time>2020-10-12T08:14:02Z</time>
      </trkpt>
      <trkpt lat="38.4311810" lon="-0.6545070">
        <ele>308.2</ele>
        <time>2020-10-12T08:14:03Z</time>
      </trkpt>
      <trkpt lat="38.4312120" lon="-0.6544240">
        <ele>308.2</ele>
        <time>2020-10-12T08:14:04Z</time>
      </trkpt>
      <trkpt lat="38.4312430" lon="-0.6543410">
        <ele>308.2</ele>
        <time>2020-10-12T08:14:05Z</time>
      </trkpt>
      <trkpt lat="38.4312740" lon="-0.6542570">
        <ele>308.4</ele>
        <time>2020-10-12T08:14:06Z</time>
      </trkpt>
      <trkpt lat="38.4313050" lon="-0.6541720">
        <ele>308.6</ele>
        <time>2020-10-12T08:14:07Z</time>
      </trkpt>
      <trkpt lat="38.4313380" lon="-0.6540880">
        <ele>308.8</ele>
        <time>2020-10-12T08:14:08Z</time>
      </trkpt>
      <trkpt lat="38.4313700" lon="-0.6540020">
        <ele>309.0</ele>
        <time>2020-10-12T08:14:09Z</time>
      </trkpt>
      <trkpt lat="38.4314040" lon="-0.6539190">
        <ele>309.4</ele>
        <time>2020-10-12T08:14:10Z</time>
      </trkpt>
      <trkpt lat="38.4314390" lon="-0.6538350">
        <ele>309.6</ele>
        <time>2020-10-12T08:14:11Z</time>
      </trkpt>
      <trkpt lat="38.4314730" lon="-0.6537530">
        <ele>309.6</ele>
        <time>2020-10-12T08:14:12Z</time>
      </trkpt>
      <trkpt lat="38.4315070" lon="-0.6536700">
        <ele>309.8</ele>
        <time>2020-10-12T08:14:13Z</time>
      </trkpt>
      <trkpt lat="38.4315390" lon="-0.6535870">
        <ele>309.8</ele>
        <time>2020-10-12T08:14:14Z</time>
      </trkpt>
      <trkpt lat="38.4315730" lon="-0.6535030">
        <ele>310.0</ele>
        <time>2020-10-12T08:14:15Z</time>
      </trkpt>
      <trkpt lat="38.4316070" lon="-0.6534190">
        <ele>309.8</ele>
        <time>2020-10-12T08:14:16Z</time>
      </trkpt>
      <trkpt lat="38.4316420" lon="-0.6533370">
        <ele>309.6</ele>
        <time>2020-10-12T08:14:17Z</time>
      </trkpt>
      <trkpt lat="38.4316740" lon="-0.6532550">
        <ele>309.4</ele>
        <time>2020-10-12T08:14:18Z</time>
      </trkpt>
      <trkpt lat="38.4317070" lon="-0.6531710">
        <ele>309.4</ele>
        <time>2020-10-12T08:14:19Z</time>
      </trkpt>
      <trkpt lat="38.4317400" lon="-0.6530880">
        <ele>309.2</ele>
        <time>2020-10-12T08:14:20Z</time>
      </trkpt>
      <trkpt lat="38.4317710" lon="-0.6530030">
        <ele>308.8</ele>
        <time>2020-10-12T08:14:21Z</time>
      </trkpt>
      <trkpt lat="38.4318000" lon="-0.6529190">
        <ele>308.8</ele>
        <time>2020-10-12T08:14:22Z</time>
      </trkpt>
      <trkpt lat="38.4318300" lon="-0.6528350">
        <ele>308.6</ele>
        <time>2020-10-12T08:14:23Z</time>
      </trkpt>
      <trkpt lat="38.4318590" lon="-0.6527520">
        <ele>308.6</ele>
        <time>2020-10-12T08:14:24Z</time>
      </trkpt>
      <trkpt lat="38.4318870" lon="-0.6526680">
        <ele>308.2</ele>
        <time>2020-10-12T08:14:25Z</time>
      </trkpt>
      <trkpt lat="38.4319120" lon="-0.6525840">
        <ele>308.2</ele>
        <time>2020-10-12T08:14:26Z</time>
      </trkpt>
      <trkpt lat="38.4319340" lon="-0.6525000">
        <ele>308.2</ele>
        <time>2020-10-12T08:14:27Z</time>
      </trkpt>
      <trkpt lat="38.4319540" lon="-0.6524120">
        <ele>308.2</ele>
        <time>2020-10-12T08:14:28Z</time>
      </trkpt>
      <trkpt lat="38.4319740" lon="-0.6523240">
        <ele>308.2</ele>
        <time>2020-10-12T08:14:29Z</time>
      </trkpt>
      <trkpt lat="38.4319940" lon="-0.6522360">
        <ele>308.2</ele>
        <time>2020-10-12T08:14:30Z</time>
      </trkpt>
      <trkpt lat="38.4320130" lon="-0.6521500">
        <ele>308.2</ele>
        <time>2020-10-12T08:14:31Z</time>
      </trkpt>
      <trkpt lat="38.4320310" lon="-0.6520630">
        <ele>308.4</ele>
        <time>2020-10-12T08:14:32Z</time>
      </trkpt>
      <trkpt lat="38.4320460" lon="-0.6519750">
        <ele>308.4</ele>
        <time>2020-10-12T08:14:33Z</time>
      </trkpt>
      <trkpt lat="38.4320620" lon="-0.6518840">
        <ele>308.2</ele>
        <time>2020-10-12T08:14:34Z</time>
      </trkpt>
      <trkpt lat="38.4320790" lon="-0.6517930">
        <ele>308.0</ele>
        <time>2020-10-12T08:14:35Z</time>
      </trkpt>
      <trkpt lat="38.4320970" lon="-0.6517030">
        <ele>307.6</ele>
        <time>2020-10-12T08:14:36Z</time>
      </trkpt>
      <trkpt lat="38.4321150" lon="-0.6516170">
        <ele>307.4</ele>
        <time>2020-10-12T08:14:37Z</time>
      </trkpt>
      <trkpt lat="38.4321350" lon="-0.6515290">
        <ele>307.4</ele>
        <time>2020-10-12T08:14:38Z</time>
      </trkpt>
      <trkpt lat="38.4321550" lon="-0.6514410">
        <ele>307.0</ele>
        <time>2020-10-12T08:14:39Z</time>
      </trkpt>
      <trkpt lat="38.4321750" lon="-0.6513510">
        <ele>307.2</ele>
        <time>2020-10-12T08:14:40Z</time>
      </trkpt>
      <trkpt lat="38.4321960" lon="-0.6512610">
        <ele>307.8</ele>
        <time>2020-10-12T08:14:41Z</time>
      </trkpt>
      <trkpt lat="38.4322180" lon="-0.6511740">
        <ele>308.6</ele>
        <time>2020-10-12T08:14:42Z</time>
      </trkpt>
      <trkpt lat="38.4322380" lon="-0.6510910">
        <ele>309.0</ele>
        <time>2020-10-12T08:14:43Z</time>
      </trkpt>
      <trkpt lat="38.4322570" lon="-0.6510100">
        <ele>309.2</ele>
        <time>2020-10-12T08:14:44Z</time>
      </trkpt>
      <trkpt lat="38.4322760" lon="-0.6509310">
        <ele>309.4</ele>
        <time>2020-10-12T08:14:45Z</time>
      </trkpt>
      <trkpt lat="38.4322950" lon="-0.6508530">
        <ele>309.6</ele>
        <time>2020-10-12T08:14:46Z</time>
      </trkpt>
      <trkpt lat="38.4323150" lon="-0.6507790">
        <ele>310.0</ele>
        <time>2020-10-12T08:14:47Z</time>
      </trkpt>
      <trkpt lat="38.4323350" lon="-0.6507040">
        <ele>310.4</ele>
        <time>2020-10-12T08:14:48Z</time>
      </trkpt>
      <trkpt lat="38.4323550" lon="-0.6506300">
        <ele>310.6</ele>
        <time>2020-10-12T08:14:49Z</time>
      </trkpt>
      <trkpt lat="38.4323770" lon="-0.6505590">
        <ele>310.6</ele>
        <time>2020-10-12T08:14:50Z</time>
      </trkpt>
      <trkpt lat="38.4324000" lon="-0.6504860">
        <ele>310.8</ele>
        <time>2020-10-12T08:14:51Z</time>
      </trkpt>
      <trkpt lat="38.4324220" lon="-0.6504120">
        <ele>311.0</ele>
        <time>2020-10-12T08:14:52Z</time>
      </trkpt>
      <trkpt lat="38.4324480" lon="-0.6503360">
        <ele>311.4</ele>
        <time>2020-10-12T08:14:53Z</time>
      </trkpt>
      <trkpt lat="38.4324720" lon="-0.6502590">
        <ele>311.6</ele>
        <time>2020-10-12T08:14:54Z</time>
      </trkpt>
      <trkpt lat="38.4324980" lon="-0.6501810">
        <ele>311.8</ele>
        <time>2020-10-12T08:14:55Z</time>
      </trkpt>
      <trkpt lat="38.4325240" lon="-0.6501050">
        <ele>312.0</ele>
        <time>2020-10-12T08:14:56Z</time>
      </trkpt>
      <trkpt lat="38.4325480" lon="-0.6500300">
        <ele>312.0</ele>
        <time>2020-10-12T08:14:57Z</time>
      </trkpt>
      <trkpt lat="38.4325680" lon="-0.6499520">
        <ele>312.0</ele>
        <time>2020-10-12T08:14:58Z</time>
      </trkpt>
      <trkpt lat="38.4325910" lon="-0.6498750">
        <ele>312.0</ele>
        <time>2020-10-12T08:14:59Z</time>
      </trkpt>
      <trkpt lat="38.4326160" lon="-0.6497930">
        <ele>312.0</ele>
        <time>2020-10-12T08:15:00Z</time>
      </trkpt>
      <trkpt lat="38.4326400" lon="-0.6497100">
        <ele>311.6</ele>
        <time>2020-10-12T08:15:01Z</time>
      </trkpt>
      <trkpt lat="38.4326610" lon="-0.6496280">
        <ele>311.4</ele>
        <time>2020-10-12T08:15:02Z</time>
      </trkpt>
      <trkpt lat="38.4326880" lon="-0.6495460">
        <ele>311.0</ele>
        <time>2020-10-12T08:15:03Z</time>
      </trkpt>
      <trkpt lat="38.4327160" lon="-0.6494640">
        <ele>310.8</ele>
        <time>2020-10-12T08:15:04Z</time>
      </trkpt>
      <trkpt lat="38.4327420" lon="-0.6493800">
        <ele>310.8</ele>
        <time>2020-10-12T08:15:05Z</time>
      </trkpt>
      <trkpt lat="38.4327670" lon="-0.6492980">
        <ele>310.6</ele>
        <time>2020-10-12T08:15:06Z</time>
      </trkpt>
      <trkpt lat="38.4327950" lon="-0.6492180">
        <ele>310.6</ele>
        <time>2020-10-12T08:15:07Z</time>
      </trkpt>
      <trkpt lat="38.4328230" lon="-0.6491370">
        <ele>310.6</ele>
        <time>2020-10-12T08:15:08Z</time>
      </trkpt>
      <trkpt lat="38.4328510" lon="-0.6490510">
        <ele>310.6</ele>
        <time>2020-10-12T08:15:09Z</time>
      </trkpt>
      <trkpt lat="38.4328760" lon="-0.6489630">
        <ele>310.6</ele>
        <time>2020-10-12T08:15:10Z</time>
      </trkpt>
      <trkpt lat="38.4329020" lon="-0.6488730">
        <ele>310.6</ele>
        <time>2020-10-12T08:15:11Z</time>
      </trkpt>
      <trkpt lat="38.4329320" lon="-0.6487820">
        <ele>310.4</ele>
        <time>2020-10-12T08:15:12Z</time>
      </trkpt>
      <trkpt lat="38.4329630" lon="-0.6486870">
        <ele>310.2</ele>
        <time>2020-10-12T08:15:13Z</time>
      </trkpt>
      <trkpt lat="38.4329940" lon="-0.6485900">
        <ele>309.8</ele>
        <time>2020-10-12T08:15:14Z</time>
      </trkpt>
      <trkpt lat="38.4330260" lon="-0.6484930">
        <ele>309.6</ele>
        <time>2020-10-12T08:15:15Z</time>
      </trkpt>
      <trkpt lat="38.4330560" lon="-0.6483970">
        <ele>309.4</ele>
        <time>2020-10-12T08:15:16Z</time>
      </trkpt>
      <trkpt lat="38.4330860" lon="-0.6483010">
        <ele>309.2</ele>
        <time>2020-10-12T08:15:17Z</time>
      </trkpt>
      <trkpt lat="38.4331180" lon="-0.6482030">
        <ele>309.0</ele>
        <time>2020-10-12T08:15:18Z</time>
      </trkpt>
      <trkpt lat="38.4331500" lon="-0.6481040">
        <ele>309.0</ele>
        <time>2020-10-12T08:15:19Z</time>
      </trkpt>
      <trkpt lat="38.4331820" lon="-0.6480040">
        <ele>309.0</ele>
        <time>2020-10-12T08:15:20Z</time>
      </trkpt>
      <trkpt lat="38.4332130" lon="-0.6479020">
        <ele>309.0</ele>
        <time>2020-10-12T08:15:21Z</time>
      </trkpt>
      <trkpt lat="38.4332410" lon="-0.6478000">
        <ele>309.2</ele>
        <time>2020-10-12T08:15:22Z</time>
      </trkpt>
      <trkpt lat="38.4332660" lon="-0.6476960">
        <ele>309.4</ele>
        <time>2020-10-12T08:15:23Z</time>
      </trkpt>
      <trkpt lat="38.4332880" lon="-0.6475910">
        <ele>309.4</ele>
        <time>2020-10-12T08:15:24Z</time>
      </trkpt>
      <trkpt lat="38.4333070" lon="-0.6474810">
        <ele>309.4</ele>
        <time>2020-10-12T08:15:25Z</time>
      </trkpt>
      <trkpt lat="38.4333200" lon="-0.6473710">
        <ele>309.4</ele>
        <time>2020-10-12T08:15:26Z</time>
      </trkpt>
      <trkpt lat="38.4333310" lon="-0.6472590">
        <ele>309.4</ele>
        <time>2020-10-12T08:15:27Z</time>
      </trkpt>
      <trkpt lat="38.4333400" lon="-0.6471460">
        <ele>309.2</ele>
        <time>2020-10-12T08:15:28Z</time>
      </trkpt>
      <trkpt lat="38.4333490" lon="-0.6470340">
        <ele>309.0</ele>
        <time>2020-10-12T08:15:29Z</time>
      </trkpt>
      <trkpt lat="38.4333590" lon="-0.6469200">
        <ele>308.8</ele>
        <time>2020-10-12T08:15:30Z</time>
      </trkpt>
      <trkpt lat="38.4333700" lon="-0.6468040">
        <ele>308.6</ele>
        <time>2020-10-12T08:15:31Z</time>
      </trkpt>
      <trkpt lat="38.4333790" lon="-0.6466890">
        <ele>308.6</ele>
        <time>2020-10-12T08:15:32Z</time>
      </trkpt>
      <trkpt lat="38.4333890" lon="-0.6465730">
        <ele>308.4</ele>
        <time>2020-10-12T08:15:33Z</time>
      </trkpt>
      <trkpt lat="38.4334040" lon="-0.6464630">
        <ele>308.2</ele>
        <time>2020-10-12T08:15:34Z</time>
      </trkpt>
      <trkpt lat="38.4334260" lon="-0.6463550">
        <ele>308.2</ele>
        <time>2020-10-12T08:15:35Z</time>
      </trkpt>
      <trkpt lat="38.4334540" lon="-0.6462480">
        <ele>307.8</ele>
        <time>2020-10-12T08:15:36Z</time>
      </trkpt>
      <trkpt lat="38.4334870" lon="-0.6461440">
        <ele>307.6</ele>
        <time>2020-10-12T08:15:37Z</time>
      </trkpt>
      <trkpt lat="38.4335260" lon="-0.6460430">
        <ele>307.4</ele>
        <time>2020-10-12T08:15:38Z</time>
      </trkpt>
      <trkpt lat="38.4335670" lon="-0.6459460">
        <ele>307.0</ele>
        <time>2020-10-12T08:15:39Z</time>
      </trkpt>
      <trkpt lat="38.4336140" lon="-0.6458510">
        <ele>306.6</ele>
        <time>2020-10-12T08:15:40Z</time>
      </trkpt>
      <trkpt lat="38.4336630" lon="-0.6457570">
        <ele>306.4</ele>
        <time>2020-10-12T08:15:41Z</time>
      </trkpt>
      <trkpt lat="38.4337130" lon="-0.6456630">
        <ele>306.2</ele>
        <time>2020-10-12T08:15:42Z</time>
      </trkpt>
      <trkpt lat="38.4337640" lon="-0.6455700">
        <ele>305.6</ele>
        <time>2020-10-12T08:15:43Z</time>
      </trkpt>
      <trkpt lat="38.4338160" lon="-0.6454780">
        <ele>305.2</ele>
        <time>2020-10-12T08:15:44Z</time>
      </trkpt>
      <trkpt lat="38.4338710" lon="-0.6453870">
        <ele>304.8</ele>
        <time>2020-10-12T08:15:45Z</time>
      </trkpt>
      <trkpt lat="38.4339250" lon="-0.6452930">
        <ele>304.2</ele>
        <time>2020-10-12T08:15:46Z</time>
      </trkpt>
      <trkpt lat="38.4339780" lon="-0.6451970">
        <ele>304.0</ele>
        <time>2020-10-12T08:15:47Z</time>
      </trkpt>
      <trkpt lat="38.4340320" lon="-0.6451010">
        <ele>303.8</ele>
        <time>2020-10-12T08:15:48Z</time>
      </trkpt>
      <trkpt lat="38.4340830" lon="-0.6450060">
        <ele>303.6</ele>
        <time>2020-10-12T08:15:49Z</time>
      </trkpt>
      <trkpt lat="38.4341310" lon="-0.6449120">
        <ele>303.6</ele>
        <time>2020-10-12T08:15:50Z</time>
      </trkpt>
      <trkpt lat="38.4341790" lon="-0.6448210">
        <ele>303.2</ele>
        <time>2020-10-12T08:15:51Z</time>
      </trkpt>
      <trkpt lat="38.4342280" lon="-0.6447340">
        <ele>302.8</ele>
        <time>2020-10-12T08:15:52Z</time>
      </trkpt>
      <trkpt lat="38.4342800" lon="-0.6446500">
        <ele>302.4</ele>
        <time>2020-10-12T08:15:53Z</time>
      </trkpt>
      <trkpt lat="38.4343330" lon="-0.6445660">
        <ele>302.2</ele>
        <time>2020-10-12T08:15:54Z</time>
      </trkpt>
      <trkpt lat="38.4343870" lon="-0.6444860">
        <ele>302.0</ele>
        <time>2020-10-12T08:15:55Z</time>
      </trkpt>
      <trkpt lat="38.4344430" lon="-0.6444090">
        <ele>302.0</ele>
        <time>2020-10-12T08:15:56Z</time>
      </trkpt>
      <trkpt lat="38.4345010" lon="-0.6443350">
        <ele>302.2</ele>
        <time>2020-10-12T08:15:57Z</time>
      </trkpt>
      <trkpt lat="38.4345590" lon="-0.6442650">
        <ele>302.4</ele>
        <time>2020-10-12T08:15:58Z</time>
      </trkpt>
      <trkpt lat="38.4346190" lon="-0.6441950">
        <ele>302.4</ele>
        <time>2020-10-12T08:15:59Z</time>
      </trkpt>
      <trkpt lat="38.4346800" lon="-0.6441230">
        <ele>302.6</ele>
        <time>2020-10-12T08:16:00Z</time>
      </trkpt>
      <trkpt lat="38.4347410" lon="-0.6440480">
        <ele>302.6</ele>
        <time>2020-10-12T08:16:01Z</time>
      </trkpt>
      <trkpt lat="38.4348070" lon="-0.6439700">
        <ele>302.4</ele>
        <time>2020-10-12T08:16:02Z</time>
      </trkpt>
      <trkpt lat="38.4348740" lon="-0.6438900">
        <ele>302.4</ele>
        <time>2020-10-12T08:16:03Z</time>
      </trkpt>
      <trkpt lat="38.4349420" lon="-0.6438090">
        <ele>302.4</ele>
        <time>2020-10-12T08:16:04Z</time>
      </trkpt>
      <trkpt lat="38.4350130" lon="-0.6437250">
        <ele>302.2</ele>
        <time>2020-10-12T08:16:05Z</time>
      </trkpt>
      <trkpt lat="38.4350790" lon="-0.6436390">
        <ele>302.0</ele>
        <time>2020-10-12T08:16:06Z</time>
      </trkpt>
      <trkpt lat="38.4351420" lon="-0.6435540">
        <ele>302.0</ele>
        <time>2020-10-12T08:16:07Z</time>
      </trkpt>
      <trkpt lat="38.4351980" lon="-0.6434680">
        <ele>301.8</ele>
        <time>2020-10-12T08:16:08Z</time>
      </trkpt>
      <trkpt lat="38.4352520" lon="-0.6433810">
        <ele>301.8</ele>
        <time>2020-10-12T08:16:09Z</time>
      </trkpt>
      <trkpt lat="38.4353120" lon="-0.6432980">
        <ele>301.6</ele>
        <time>2020-10-12T08:16:10Z</time>
      </trkpt>
      <trkpt lat="38.4353640" lon="-0.6432180">
        <ele>301.6</ele>
        <time>2020-10-12T08:16:11Z</time>
      </trkpt>
      <trkpt lat="38.4354120" lon="-0.6431370">
        <ele>301.4</ele>
        <time>2020-10-12T08:16:12Z</time>
      </trkpt>
      <trkpt lat="38.4354610" lon="-0.6430550">
        <ele>301.2</ele>
        <time>2020-10-12T08:16:13Z</time>
      </trkpt>
      <trkpt lat="38.4355120" lon="-0.6429730">
        <ele>300.4</ele>
        <time>2020-10-12T08:16:14Z</time>
      </trkpt>
      <trkpt lat="38.4355590" lon="-0.6428950">
        <ele>299.4</ele>
        <time>2020-10-12T08:16:15Z</time>
      </trkpt>
      <trkpt lat="38.4356050" lon="-0.6428170">
        <ele>299.0</ele>
        <time>2020-10-12T08:16:16Z</time>
      </trkpt>
      <trkpt lat="38.4356540" lon="-0.6427390">
        <ele>298.8</ele>
        <time>2020-10-12T08:16:17Z</time>
      </trkpt>
      <trkpt lat="38.4357020" lon="-0.6426570">
        <ele>298.8</ele>
        <time>2020-10-12T08:16:18Z</time>
      </trkpt>
      <trkpt lat="38.4357500" lon="-0.6425790">
        <ele>299.0</ele>
        <time>2020-10-12T08:16:19Z</time>
      </trkpt>
      <trkpt lat="38.4357980" lon="-0.6425030">
        <ele>299.4</ele>
        <time>2020-10-12T08:16:20Z</time>
      </trkpt>
      <trkpt lat="38.4358460" lon="-0.6424270">
        <ele>299.6</ele>
        <time>2020-10-12T08:16:21Z</time>
      </trkpt>
      <trkpt lat="38.4358930" lon="-0.6423510">
        <ele>299.8</ele>
        <time>2020-10-12T08:16:22Z</time>
      </trkpt>
      <trkpt lat="38.4359350" lon="-0.6422830">
        <ele>299.6</ele>
        <time>2020-10-12T08:16:23Z</time>
      </trkpt>
      <trkpt lat="38.4359740" lon="-0.6422210">
        <ele>299.4</ele>
        <time>2020-10-12T08:16:24Z</time>
      </trkpt>
      <trkpt lat="38.4360090" lon="-0.6421650">
        <ele>299.2</ele>
        <time>2020-10-12T08:16:25Z</time>
      </trkpt>
      <trkpt lat="38.4360420" lon="-0.6421150">
        <ele>299.2</ele>
        <time>2020-10-12T08:16:26Z</time>
      </trkpt>
      <trkpt lat="38.4360750" lon="-0.6420650">
        <ele>299.0</ele>
        <time>2020-10-12T08:16:27Z</time>
      </trkpt>
      <trkpt lat="38.4361040" lon="-0.6420140">
        <ele>299.0</ele>
        <time>2020-10-12T08:16:28Z</time>
      </trkpt>
      <trkpt lat="38.4361310" lon="-0.6419640">
        <ele>299.0</ele>
        <time>2020-10-12T08:16:29Z</time>
      </trkpt>
      <trkpt lat="38.4361550" lon="-0.6419160">
        <ele>299.0</ele>
        <time>2020-10-12T08:16:30Z</time>
      </trkpt>
      <trkpt lat="38.4361780" lon="-0.6418680">
        <ele>299.0</ele>
        <time>2020-10-12T08:16:31Z</time>
      </trkpt>
      <trkpt lat="38.4362000" lon="-0.6418200">
        <ele>299.0</ele>
        <time>2020-10-12T08:16:32Z</time>
      </trkpt>
      <trkpt lat="38.4362210" lon="-0.6417690">
        <ele>299.0</ele>
        <time>2020-10-12T08:16:33Z</time>
      </trkpt>
      <trkpt lat="38.4362400" lon="-0.6417170">
        <ele>298.8</ele>
        <time>2020-10-12T08:16:34Z</time>
      </trkpt>
      <trkpt lat="38.4362550" lon="-0.6416680">
        <ele>298.8</ele>
        <time>2020-10-12T08:16:35Z</time>
      </trkpt>
      <trkpt lat="38.4362680" lon="-0.6416270">
        <ele>298.6</ele>
        <time>2020-10-12T08:16:36Z</time>
      </trkpt>
      <trkpt lat="38.4362800" lon="-0.6415970">
        <ele>298.6</ele>
        <time>2020-10-12T08:16:37Z</time>
      </trkpt>
      <trkpt lat="38.4362940" lon="-0.6415810">
        <ele>298.4</ele>
        <time>2020-10-12T08:16:38Z</time>
      </trkpt>
      <trkpt lat="38.4363080" lon="-0.6415770">
        <ele>298.4</ele>
        <time>2020-10-12T08:16:39Z</time>
      </trkpt>
      <trkpt lat="38.4363150" lon="-0.6415790">
        <ele>298.4</ele>
        <time>2020-10-12T08:16:40Z</time>
      </trkpt>
      <trkpt lat="38.4363150" lon="-0.6415810">
        <ele>298.4</ele>
        <time>2020-10-12T08:16:41Z</time>
      </trkpt>
      <trkpt lat="38.4363160" lon="-0.6415820">
        <ele>298.6</ele>
        <time>2020-10-12T08:16:42Z</time>
      </trkpt>
      <trkpt lat="38.4363210" lon="-0.6415820">
        <ele>298.6</ele>
        <time>2020-10-12T08:16:43Z</time>
      </trkpt>
      <trkpt lat="38.4363360" lon="-0.6416270">
        <ele>298.6</ele>
        <time>2020-10-12T08:21:29Z</time>
      </trkpt>
      <trkpt lat="38.4363380" lon="-0.6416260">
        <ele>298.6</ele>
        <time>2020-10-12T08:21:30Z</time>
      </trkpt>
      <trkpt lat="38.4363350" lon="-0.6416220">
        <ele>298.6</ele>
        <time>2020-10-12T08:21:31Z</time>
      </trkpt>
      <trkpt lat="38.4363270" lon="-0.6416150">
        <ele>298.6</ele>
        <time>2020-10-12T08:21:32Z</time>
      </trkpt>
      <trkpt lat="38.4363160" lon="-0.6416030">
        <ele>298.6</ele>
        <time>2020-10-12T08:21:33Z</time>
      </trkpt>
      <trkpt lat="38.4363050" lon="-0.6415940">
        <ele>298.8</ele>
        <time>2020-10-12T08:21:34Z</time>
      </trkpt>
      <trkpt lat="38.4362980" lon="-0.6415860">
        <ele>298.6</ele>
        <time>2020-10-12T08:21:35Z</time>
      </trkpt>
      <trkpt lat="38.4362920" lon="-0.6415800">
        <ele>298.6</ele>
        <time>2020-10-12T08:21:36Z</time>
      </trkpt>
      <trkpt lat="38.4362830" lon="-0.6415740">
        <ele>298.6</ele>
        <time>2020-10-12T08:21:37Z</time>
      </trkpt>
      <trkpt lat="38.4362730" lon="-0.6415580">
        <ele>298.6</ele>
        <time>2020-10-12T08:21:38Z</time>
      </trkpt>
      <trkpt lat="38.4362660" lon="-0.6415300">
        <ele>298.6</ele>
        <time>2020-10-12T08:21:39Z</time>
      </trkpt>
      <trkpt lat="38.4362620" lon="-0.6414920">
        <ele>298.6</ele>
        <time>2020-10-12T08:21:40Z</time>
      </trkpt>
      <trkpt lat="38.4362590" lon="-0.6414490">
        <ele>298.6</ele>
        <time>2020-10-12T08:21:41Z</time>
      </trkpt>
      <trkpt lat="38.4362530" lon="-0.6414010">
        <ele>298.6</ele>
        <time>2020-10-12T08:21:42Z</time>
      </trkpt>
      <trkpt lat="38.4362480" lon="-0.6413560">
        <ele>298.6</ele>
        <time>2020-10-12T08:21:43Z</time>
      </trkpt>
      <trkpt lat="38.4362440" lon="-0.6413140">
        <ele>298.6</ele>
        <time>2020-10-12T08:21:44Z</time>
      </trkpt>
      <trkpt lat="38.4362440" lon="-0.6412780">
        <ele>298.6</ele>
        <time>2020-10-12T08:21:45Z</time>
      </trkpt>
      <trkpt lat="38.4362450" lon="-0.6412360">
        <ele>298.4</ele>
        <time>2020-10-12T08:21:46Z</time>
      </trkpt>
      <trkpt lat="38.4362460" lon="-0.6411940">
        <ele>298.4</ele>
        <time>2020-10-12T08:21:47Z</time>
      </trkpt>
      <trkpt lat="38.4362480" lon="-0.6411520">
        <ele>298.4</ele>
        <time>2020-10-12T08:21:48Z</time>
      </trkpt>
      <trkpt lat="38.4362510" lon="-0.6411120">
        <ele>298.4</ele>
        <time>2020-10-12T08:21:49Z</time>
      </trkpt>
      <trkpt lat="38.4362520" lon="-0.6410750">
        <ele>298.2</ele>
        <time>2020-10-12T08:21:50Z</time>
      </trkpt>
      <trkpt lat="38.4362500" lon="-0.6410380">
        <ele>298.2</ele>
        <time>2020-10-12T08:21:51Z</time>
      </trkpt>
      <trkpt lat="38.4362490" lon="-0.6409940">
        <ele>298.0</ele>
        <time>2020-10-12T08:21:52Z</time>
      </trkpt>
      <trkpt lat="38.4362510" lon="-0.6409440">
        <ele>298.0</ele>
        <time>2020-10-12T08:21:53Z</time>
      </trkpt>
      <trkpt lat="38.4362550" lon="-0.6408950">
        <ele>298.4</ele>
        <time>2020-10-12T08:21:54Z</time>
      </trkpt>
      <trkpt lat="38.4362590" lon="-0.6408490">
        <ele>298.8</ele>
        <time>2020-10-12T08:21:55Z</time>
      </trkpt>
      <trkpt lat="38.4362590" lon="-0.6408040">
        <ele>299.2</ele>
        <time>2020-10-12T08:21:56Z</time>
      </trkpt>
      <trkpt lat="38.4362600" lon="-0.6407600">
        <ele>299.6</ele>
        <time>2020-10-12T08:21:57Z</time>
      </trkpt>
      <trkpt lat="38.4362610" lon="-0.6407150">
        <ele>299.8</ele>
        <time>2020-10-12T08:21:58Z</time>
      </trkpt>
      <trkpt lat="38.4362650" lon="-0.6406720">
        <ele>300.2</ele>
        <time>2020-10-12T08:21:59Z</time>
      </trkpt>
      <trkpt lat="38.4362920" lon="-0.6406340">
        <ele>300.4</ele>
        <time>2020-10-12T08:22:00Z</time>
      </trkpt>
      <trkpt lat="38.4363010" lon="-0.6405950">
        <ele>300.4</ele>
        <time>2020-10-12T08:22:01Z</time>
      </trkpt>
      <trkpt lat="38.4363240" lon="-0.6405630">
        <ele>300.6</ele>
        <time>2020-10-12T08:22:02Z</time>
      </trkpt>
      <trkpt lat="38.4363350" lon="-0.6405230">
        <ele>300.8</ele>
        <time>2020-10-12T08:22:03Z</time>
      </trkpt>
      <trkpt lat="38.4363410" lon="-0.6404780">
        <ele>300.8</ele>
        <time>2020-10-12T08:22:04Z</time>
      </trkpt>
      <trkpt lat="38.4363430" lon="-0.6404280">
        <ele>301.0</ele>
        <time>2020-10-12T08:22:05Z</time>
      </trkpt>
      <trkpt lat="38.4363440" lon="-0.6403830">
        <ele>301.4</ele>
        <time>2020-10-12T08:22:06Z</time>
      </trkpt>
      <trkpt lat="38.4363420" lon="-0.6403380">
        <ele>301.6</ele>
        <time>2020-10-12T08:22:07Z</time>
      </trkpt>
      <trkpt lat="38.4363380" lon="-0.6402750">
        <ele>301.8</ele>
        <time>2020-10-12T08:22:08Z</time>
      </trkpt>
      <trkpt lat="38.4363330" lon="-0.6402130">
        <ele>302.0</ele>
        <time>2020-10-12T08:22:09Z</time>
      </trkpt>
      <trkpt lat="38.4363300" lon="-0.6401560">
        <ele>302.0</ele>
        <time>2020-10-12T08:22:10Z</time>
      </trkpt>
      <trkpt lat="38.4363260" lon="-0.6401030">
        <ele>302.2</ele>
        <time>2020-10-12T08:22:11Z</time>
      </trkpt>
      <trkpt lat="38.4363190" lon="-0.6400510">
        <ele>302.2</ele>
        <time>2020-10-12T08:22:12Z</time>
      </trkpt>
      <trkpt lat="38.4363160" lon="-0.6400080">
        <ele>302.4</ele>
        <time>2020-10-12T08:22:13Z</time>
      </trkpt>
      <trkpt lat="38.4363100" lon="-0.6399660">
        <ele>302.6</ele>
        <time>2020-10-12T08:22:14Z</time>
      </trkpt>
      <trkpt lat="38.4363100" lon="-0.6399250">
        <ele>302.8</ele>
        <time>2020-10-12T08:22:15Z</time>
      </trkpt>
      <trkpt lat="38.4363130" lon="-0.6398840">
        <ele>302.8</ele>
        <time>2020-10-12T08:22:16Z</time>
      </trkpt>
      <trkpt lat="38.4363160" lon="-0.6398390">
        <ele>303.0</ele>
        <time>2020-10-12T08:22:17Z</time>
      </trkpt>
      <trkpt lat="38.4363170" lon="-0.6397960">
        <ele>303.0</ele>
        <time>2020-10-12T08:22:18Z</time>
      </trkpt>
      <trkpt lat="38.4363190" lon="-0.6397500">
        <ele>303.2</ele>
        <time>2020-10-12T08:22:19Z</time>
      </trkpt>
      <trkpt lat="38.4363260" lon="-0.6397100">
        <ele>303.6</ele>
        <time>2020-10-12T08:22:20Z</time>
      </trkpt>
      <trkpt lat="38.4363310" lon="-0.6396660">
        <ele>303.8</ele>
        <time>2020-10-12T08:22:21Z</time>
      </trkpt>
      <trkpt lat="38.4363370" lon="-0.6396180">
        <ele>303.8</ele>
        <time>2020-10-12T08:22:22Z</time>
      </trkpt>
      <trkpt lat="38.4363400" lon="-0.6395630">
        <ele>304.0</ele>
        <time>2020-10-12T08:22:23Z</time>
      </trkpt>
      <trkpt lat="38.4363430" lon="-0.6395170">
        <ele>304.2</ele>
        <time>2020-10-12T08:22:24Z</time>
      </trkpt>
      <trkpt lat="38.4363470" lon="-0.6394710">
        <ele>304.4</ele>
        <time>2020-10-12T08:22:25Z</time>
      </trkpt>
      <trkpt lat="38.4363510" lon="-0.6394220">
        <ele>304.6</ele>
        <time>2020-10-12T08:22:26Z</time>
      </trkpt>
      <trkpt lat="38.4363520" lon="-0.6393670">
        <ele>304.6</ele>
        <time>2020-10-12T08:22:27Z</time>
      </trkpt>
      <trkpt lat="38.4363450" lon="-0.6393050">
        <ele>304.8</ele>
        <time>2020-10-12T08:22:28Z</time>
      </trkpt>
      <trkpt lat="38.4363340" lon="-0.6392310">
        <ele>304.8</ele>
        <time>2020-10-12T08:22:29Z</time>
      </trkpt>
      <trkpt lat="38.4363220" lon="-0.6391580">
        <ele>305.0</ele>
        <time>2020-10-12T08:22:30Z</time>
      </trkpt>
      <trkpt lat="38.4363220" lon="-0.6391120">
        <ele>305.2</ele>
        <time>2020-10-12T08:22:31Z</time>
      </trkpt>
      <trkpt lat="38.4363250" lon="-0.6390620">
        <ele>305.4</ele>
        <time>2020-10-12T08:22:32Z</time>
      </trkpt>
      <trkpt lat="38.4363250" lon="-0.6390180">
        <ele>305.6</ele>
        <time>2020-10-12T08:22:33Z</time>
      </trkpt>
      <trkpt lat="38.4363270" lon="-0.6389770">
        <ele>305.6</ele>
        <time>2020-10-12T08:22:34Z</time>
      </trkpt>
      <trkpt lat="38.4363320" lon="-0.6389330">
        <ele>305.8</ele>
        <time>2020-10-12T08:22:35Z</time>
      </trkpt>
      <trkpt lat="38.4363350" lon="-0.6388830">
        <ele>306.0</ele>
        <time>2020-10-12T08:22:36Z</time>
      </trkpt>
      <trkpt lat="38.4363430" lon="-0.6388400">
        <ele>306.2</ele>
        <time>2020-10-12T08:22:37Z</time>
      </trkpt>
      <trkpt lat="38.4363460" lon="-0.6387950">
        <ele>306.4</ele>
        <time>2020-10-12T08:22:38Z</time>
      </trkpt>
      <trkpt lat="38.4363490" lon="-0.6387480">
        <ele>306.6</ele>
        <time>2020-10-12T08:22:39Z</time>
      </trkpt>
      <trkpt lat="38.4363530" lon="-0.6387010">
        <ele>306.8</ele>
        <time>2020-10-12T08:22:40Z</time>
      </trkpt>
      <trkpt lat="38.4363540" lon="-0.6386580">
        <ele>306.8</ele>
        <time>2020-10-12T08:22:41Z</time>
      </trkpt>
      <trkpt lat="38.4363560" lon="-0.6386180">
        <ele>307.0</ele>
        <time>2020-10-12T08:22:42Z</time>
      </trkpt>
      <trkpt lat="38.4363400" lon="-0.6385760">
        <ele>307.0</ele>
        <time>2020-10-12T08:22:43Z</time>
      </trkpt>
      <trkpt lat="38.4363170" lon="-0.6385290">
        <ele>307.0</ele>
        <time>2020-10-12T08:22:44Z</time>
      </trkpt>
      <trkpt lat="38.4362960" lon="-0.6384710">
        <ele>307.0</ele>
        <time>2020-10-12T08:22:45Z</time>
      </trkpt>
      <trkpt lat="38.4362830" lon="-0.6384180">
        <ele>307.0</ele>
        <time>2020-10-12T08:22:46Z</time>
      </trkpt>
      <trkpt lat="38.4362840" lon="-0.6383570">
        <ele>307.0</ele>
        <time>2020-10-12T08:22:47Z</time>
      </trkpt>
      <trkpt lat="38.4362840" lon="-0.6382730">
        <ele>307.0</ele>
        <time>2020-10-12T08:22:48Z</time>
      </trkpt>
      <trkpt lat="38.4362870" lon="-0.6382220">
        <ele>307.2</ele>
        <time>2020-10-12T08:22:49Z</time>
      </trkpt>
      <trkpt lat="38.4362850" lon="-0.6381850">
        <ele>307.2</ele>
        <time>2020-10-12T08:22:50Z</time>
      </trkpt>
      <trkpt lat="38.4362830" lon="-0.6381530">
        <ele>307.4</ele>
        <time>2020-10-12T08:22:51Z</time>
      </trkpt>
      <trkpt lat="38.4362820" lon="-0.6381260">
        <ele>307.6</ele>
        <time>2020-10-12T08:22:52Z</time>
      </trkpt>
      <trkpt lat="38.4362820" lon="-0.6381060">
        <ele>307.8</ele>
        <time>2020-10-12T08:22:53Z</time>
      </trkpt>
      <trkpt lat="38.4362910" lon="-0.6380940">
        <ele>307.8</ele>
        <time>2020-10-12T08:22:54Z</time>
      </trkpt>
      <trkpt lat="38.4363030" lon="-0.6380960">
        <ele>308.0</ele>
        <time>2020-10-12T08:22:55Z</time>
      </trkpt>
      <trkpt lat="38.4363230" lon="-0.6381330">
        <ele>308.0</ele>
        <time>2020-10-12T08:22:56Z</time>
      </trkpt>
      <trkpt lat="38.4363390" lon="-0.6381850">
        <ele>308.0</ele>
        <time>2020-10-12T08:22:57Z</time>
      </trkpt>
      <trkpt lat="38.4363590" lon="-0.6382380">
        <ele>308.0</ele>
        <time>2020-10-12T08:22:58Z</time>
      </trkpt>
      <trkpt lat="38.4363800" lon="-0.6382880">
        <ele>308.0</ele>
        <time>2020-10-12T08:22:59Z</time>
      </trkpt>
      <trkpt lat="38.4364040" lon="-0.6383360">
        <ele>307.8</ele>
        <time>2020-10-12T08:23:00Z</time>
      </trkpt>
      <trkpt lat="38.4364330" lon="-0.6383780">
        <ele>307.8</ele>
        <time>2020-10-12T08:23:01Z</time>
      </trkpt>
      <trkpt lat="38.4364660" lon="-0.6384160">
        <ele>307.8</ele>
        <time>2020-10-12T08:23:02Z</time>
      </trkpt>
      <trkpt lat="38.4365030" lon="-0.6384490">
        <ele>307.8</ele>
        <time>2020-10-12T08:23:03Z</time>
      </trkpt>
      <trkpt lat="38.4365430" lon="-0.6384730">
        <ele>308.0</ele>
        <time>2020-10-12T08:23:04Z</time>
      </trkpt>
      <trkpt lat="38.4365730" lon="-0.6385030">
        <ele>308.2</ele>
        <time>2020-10-12T08:23:05Z</time>
      </trkpt>
      <trkpt lat="38.4366070" lon="-0.6385310">
        <ele>308.2</ele>
        <time>2020-10-12T08:23:06Z</time>
      </trkpt>
      <trkpt lat="38.4366430" lon="-0.6385520">
        <ele>308.2</ele>
        <time>2020-10-12T08:23:07Z</time>
      </trkpt>
      <trkpt lat="38.4366800" lon="-0.6385800">
        <ele>308.2</ele>
        <time>2020-10-12T08:23:08Z</time>
      </trkpt>
      <trkpt lat="38.4367160" lon="-0.6386100">
        <ele>308.2</ele>
        <time>2020-10-12T08:23:09Z</time>
      </trkpt>
      <trkpt lat="38.4367420" lon="-0.6386470">
        <ele>308.0</ele>
        <time>2020-10-12T08:23:10Z</time>
      </trkpt>
      <trkpt lat="38.4367760" lon="-0.6386730">
        <ele>307.8</ele>
        <time>2020-10-12T08:23:11Z</time>
      </trkpt>
      <trkpt lat="38.4368100" lon="-0.6386990">
        <ele>307.6</ele>
        <time>2020-10-12T08:23:12Z</time>
      </trkpt>
      <trkpt lat="38.4368430" lon="-0.6387210">
        <ele>307.6</ele>
        <time>2020-10-12T08:23:13Z</time>
      </trkpt>
      <trkpt lat="38.4368800" lon="-0.6387360">
        <ele>307.6</ele>
        <time>2020-10-12T08:23:14Z</time>
      </trkpt>
      <trkpt lat="38.4369130" lon="-0.6387480">
        <ele>307.6</ele>
        <time>2020-10-12T08:23:15Z</time>
      </trkpt>
      <trkpt lat="38.4369560" lon="-0.6387720">
        <ele>307.8</ele>
        <time>2020-10-12T08:23:16Z</time>
      </trkpt>
      <trkpt lat="38.4369920" lon="-0.6387970">
        <ele>308.0</ele>
        <time>2020-10-12T08:23:17Z</time>
      </trkpt>
      <trkpt lat="38.4370250" lon="-0.6388320">
        <ele>308.4</ele>
        <time>2020-10-12T08:23:18Z</time>
      </trkpt>
      <trkpt lat="38.4370630" lon="-0.6388690">
        <ele>308.6</ele>
        <time>2020-10-12T08:23:19Z</time>
      </trkpt>
      <trkpt lat="38.4371100" lon="-0.6389080">
        <ele>308.8</ele>
        <time>2020-10-12T08:23:20Z</time>
      </trkpt>
      <trkpt lat="38.4371620" lon="-0.6389410">
        <ele>309.2</ele>
        <time>2020-10-12T08:23:21Z</time>
      </trkpt>
      <trkpt lat="38.4372000" lon="-0.6389780">
        <ele>309.6</ele>
        <time>2020-10-12T08:23:22Z</time>
      </trkpt>
      <trkpt lat="38.4372390" lon="-0.6390260">
        <ele>309.8</ele>
        <time>2020-10-12T08:23:23Z</time>
      </trkpt>
      <trkpt lat="38.4372720" lon="-0.6390730">
        <ele>310.0</ele>
        <time>2020-10-12T08:23:24Z</time>
      </trkpt>
      <trkpt lat="38.4373140" lon="-0.6391220">
        <ele>310.2</ele>
        <time>2020-10-12T08:23:25Z</time>
      </trkpt>
      <trkpt lat="38.4373550" lon="-0.6391660">
        <ele>310.4</ele>
        <time>2020-10-12T08:23:26Z</time>
      </trkpt>
      <trkpt lat="38.4373990" lon="-0.6392060">
        <ele>310.6</ele>
        <time>2020-10-12T08:23:27Z</time>
      </trkpt>
      <trkpt lat="38.4374400" lon="-0.6392470">
        <ele>310.8</ele>
        <time>2020-10-12T08:23:28Z</time>
      </trkpt>
      <trkpt lat="38.4374830" lon="-0.6392850">
        <ele>311.0</ele>
        <time>2020-10-12T08:23:29Z</time>
      </trkpt>
      <trkpt lat="38.4375200" lon="-0.6393210">
        <ele>311.2</ele>
        <time>2020-10-12T08:23:30Z</time>
      </trkpt>
      <trkpt lat="38.4375590" lon="-0.6393580">
        <ele>311.4</ele>
        <time>2020-10-12T08:23:31Z</time>
      </trkpt>
      <trkpt lat="38.4375940" lon="-0.6393940">
        <ele>311.4</ele>
        <time>2020-10-12T08:23:32Z</time>
      </trkpt>
      <trkpt lat="38.4376280" lon="-0.6394300">
        <ele>311.6</ele>
        <time>2020-10-12T08:23:33Z</time>
      </trkpt>
      <trkpt lat="38.4376600" lon="-0.6394670">
        <ele>311.8</ele>
        <time>2020-10-12T08:23:34Z</time>
      </trkpt>
      <trkpt lat="38.4376910" lon="-0.6395040">
        <ele>311.8</ele>
        <time>2020-10-12T08:23:35Z</time>
      </trkpt>
      <trkpt lat="38.4377240" lon="-0.6395370">
        <ele>312.0</ele>
        <time>2020-10-12T08:23:36Z</time>
      </trkpt>
      <trkpt lat="38.4377570" lon="-0.6395720">
        <ele>312.2</ele>
        <time>2020-10-12T08:23:37Z</time>
      </trkpt>
      <trkpt lat="38.4377870" lon="-0.6396030">
        <ele>312.2</ele>
        <time>2020-10-12T08:23:38Z</time>
      </trkpt>
      <trkpt lat="38.4378240" lon="-0.6396320">
        <ele>312.6</ele>
        <time>2020-10-12T08:23:39Z</time>
      </trkpt>
      <trkpt lat="38.4378610" lon="-0.6396620">
        <ele>312.8</ele>
        <time>2020-10-12T08:23:40Z</time>
      </trkpt>
      <trkpt lat="38.4379060" lon="-0.6396880">
        <ele>313.0</ele>
        <time>2020-10-12T08:23:41Z</time>
      </trkpt>
      <trkpt lat="38.4379500" lon="-0.6397140">
        <ele>313.0</ele>
        <time>2020-10-12T08:23:42Z</time>
      </trkpt>
      <trkpt lat="38.4379900" lon="-0.6397340">
        <ele>313.2</ele>
        <time>2020-10-12T08:23:43Z</time>
      </trkpt>
      <trkpt lat="38.4380320" lon="-0.6397500">
        <ele>313.4</ele>
        <time>2020-10-12T08:23:44Z</time>
      </trkpt>
      <trkpt lat="38.4380870" lon="-0.6397430">
        <ele>313.4</ele>
        <time>2020-10-12T08:23:45Z</time>
      </trkpt>
      <trkpt lat="38.4381420" lon="-0.6397480">
        <ele>313.4</ele>
        <time>2020-10-12T08:23:46Z</time>
      </trkpt>
      <trkpt lat="38.4381850" lon="-0.6397800">
        <ele>313.8</ele>
        <time>2020-10-12T08:23:47Z</time>
      </trkpt>
      <trkpt lat="38.4382390" lon="-0.6397960">
        <ele>314.0</ele>
        <time>2020-10-12T08:23:48Z</time>
      </trkpt>
      <trkpt lat="38.4382810" lon="-0.6398130">
        <ele>314.0</ele>
        <time>2020-10-12T08:23:49Z</time>
      </trkpt>
      <trkpt lat="38.4383120" lon="-0.6398220">
        <ele>314.0</ele>
        <time>2020-10-12T08:23:50Z</time>
      </trkpt>
      <trkpt lat="38.4383450" lon="-0.6398240">
        <ele>314.0</ele>
        <time>2020-10-12T08:23:51Z</time>
      </trkpt>
      <trkpt lat="38.4383880" lon="-0.6398300">
        <ele>314.0</ele>
        <time>2020-10-12T08:23:52Z</time>
      </trkpt>
      <trkpt lat="38.4384410" lon="-0.6398490">
        <ele>314.2</ele>
        <time>2020-10-12T08:23:53Z</time>
      </trkpt>
      <trkpt lat="38.4385030" lon="-0.6398580">
        <ele>314.4</ele>
        <time>2020-10-12T08:23:54Z</time>
      </trkpt>
      <trkpt lat="38.4385540" lon="-0.6398630">
        <ele>314.2</ele>
        <time>2020-10-12T08:23:55Z</time>
      </trkpt>
      <trkpt lat="38.4386090" lon="-0.6398660">
        <ele>313.8</ele>
        <time>2020-10-12T08:23:56Z</time>
      </trkpt>
      <trkpt lat="38.4386640" lon="-0.6398670">
        <ele>313.6</ele>
        <time>2020-10-12T08:23:57Z</time>
      </trkpt>
      <trkpt lat="38.4387190" lon="-0.6398730">
        <ele>313.2</ele>
        <time>2020-10-12T08:23:58Z</time>
      </trkpt>
      <trkpt lat="38.4387740" lon="-0.6398780">
        <ele>313.0</ele>
        <time>2020-10-12T08:23:59Z</time>
      </trkpt>
      <trkpt lat="38.4388370" lon="-0.6398720">
        <ele>312.8</ele>
        <time>2020-10-12T08:24:00Z</time>
      </trkpt>
      <trkpt lat="38.4389040" lon="-0.6398600">
        <ele>312.6</ele>
        <time>2020-10-12T08:24:01Z</time>
      </trkpt>
      <trkpt lat="38.4389680" lon="-0.6398550">
        <ele>312.6</ele>
        <time>2020-10-12T08:24:02Z</time>
      </trkpt>
      <trkpt lat="38.4390260" lon="-0.6398530">
        <ele>312.6</ele>
        <time>2020-10-12T08:24:03Z</time>
      </trkpt>
      <trkpt lat="38.4390840" lon="-0.6398560">
        <ele>312.8</ele>
        <time>2020-10-12T08:24:04Z</time>
      </trkpt>
      <trkpt lat="38.4391430" lon="-0.6398630">
        <ele>313.0</ele>
        <time>2020-10-12T08:24:05Z</time>
      </trkpt>
      <trkpt lat="38.4392040" lon="-0.6398640">
        <ele>313.2</ele>
        <time>2020-10-12T08:24:06Z</time>
      </trkpt>
      <trkpt lat="38.4392640" lon="-0.6398790">
        <ele>313.4</ele>
        <time>2020-10-12T08:24:07Z</time>
      </trkpt>
      <trkpt lat="38.4393200" lon="-0.6398820">
        <ele>313.4</ele>
        <time>2020-10-12T08:24:08Z</time>
      </trkpt>
      <trkpt lat="38.4393760" lon="-0.6398870">
        <ele>313.6</ele>
        <time>2020-10-12T08:24:09Z</time>
      </trkpt>
      <trkpt lat="38.4394300" lon="-0.6398900">
        <ele>313.6</ele>
        <time>2020-10-12T08:24:10Z</time>
      </trkpt>
      <trkpt lat="38.4394790" lon="-0.6398920">
        <ele>313.6</ele>
        <time>2020-10-12T08:24:11Z</time>
      </trkpt>
      <trkpt lat="38.4395340" lon="-0.6398930">
        <ele>313.6</ele>
        <time>2020-10-12T08:24:12Z</time>
      </trkpt>
      <trkpt lat="38.4395850" lon="-0.6398940">
        <ele>313.6</ele>
        <time>2020-10-12T08:24:13Z</time>
      </trkpt>
      <trkpt lat="38.4396340" lon="-0.6398940">
        <ele>313.8</ele>
        <time>2020-10-12T08:24:14Z</time>
      </trkpt>
      <trkpt lat="38.4396830" lon="-0.6398980">
        <ele>314.0</ele>
        <time>2020-10-12T08:24:15Z</time>
      </trkpt>
      <trkpt lat="38.4397260" lon="-0.6399050">
        <ele>314.4</ele>
        <time>2020-10-12T08:24:16Z</time>
      </trkpt>
      <trkpt lat="38.4397750" lon="-0.6399130">
        <ele>315.0</ele>
        <time>2020-10-12T08:24:17Z</time>
      </trkpt>
      <trkpt lat="38.4398290" lon="-0.6399180">
        <ele>315.4</ele>
        <time>2020-10-12T08:24:18Z</time>
      </trkpt>
      <trkpt lat="38.4398780" lon="-0.6399150">
        <ele>315.8</ele>
        <time>2020-10-12T08:24:19Z</time>
      </trkpt>
      <trkpt lat="38.4399280" lon="-0.6399150">
        <ele>316.2</ele>
        <time>2020-10-12T08:24:20Z</time>
      </trkpt>
      <trkpt lat="38.4399760" lon="-0.6399160">
        <ele>316.4</ele>
        <time>2020-10-12T08:24:21Z</time>
      </trkpt>
      <trkpt lat="38.4400500" lon="-0.6399390">
        <ele>316.8</ele>
        <time>2020-10-12T08:24:22Z</time>
      </trkpt>
      <trkpt lat="38.4400910" lon="-0.6399400">
        <ele>317.2</ele>
        <time>2020-10-12T08:24:23Z</time>
      </trkpt>
      <trkpt lat="38.4401220" lon="-0.6399430">
        <ele>317.4</ele>
        <time>2020-10-12T08:24:24Z</time>
      </trkpt>
      <trkpt lat="38.4401610" lon="-0.6399440">
        <ele>317.8</ele>
        <time>2020-10-12T08:24:25Z</time>
      </trkpt>
      <trkpt lat="38.4401970" lon="-0.6399440">
        <ele>318.2</ele>
        <time>2020-10-12T08:24:26Z</time>
      </trkpt>
      <trkpt lat="38.4402310" lon="-0.6399450">
        <ele>318.6</ele>
        <time>2020-10-12T08:24:27Z</time>
      </trkpt>
      <trkpt lat="38.4402620" lon="-0.6399410">
        <ele>319.2</ele>
        <time>2020-10-12T08:24:28Z</time>
      </trkpt>
      <trkpt lat="38.4402890" lon="-0.6399350">
        <ele>319.6</ele>
        <time>2020-10-12T08:24:29Z</time>
      </trkpt>
      <trkpt lat="38.4403210" lon="-0.6399210">
        <ele>320.0</ele>
        <time>2020-10-12T08:24:30Z</time>
      </trkpt>
      <trkpt lat="38.4403490" lon="-0.6399140">
        <ele>320.4</ele>
        <time>2020-10-12T08:24:31Z</time>
      </trkpt>
      <trkpt lat="38.4403810" lon="-0.6399080">
        <ele>320.6</ele>
        <time>2020-10-12T08:24:32Z</time>
      </trkpt>
      <trkpt lat="38.4404110" lon="-0.6399180">
        <ele>320.6</ele>
        <time>2020-10-12T08:24:33Z</time>
      </trkpt>
      <trkpt lat="38.4404440" lon="-0.6399060">
        <ele>320.8</ele>
        <time>2020-10-12T08:24:34Z</time>
      </trkpt>
      <trkpt lat="38.4404720" lon="-0.6398920">
        <ele>321.2</ele>
        <time>2020-10-12T08:24:35Z</time>
      </trkpt>
      <trkpt lat="38.4405210" lon="-0.6398700">
        <ele>321.4</ele>
        <time>2020-10-12T08:24:36Z</time>
      </trkpt>
      <trkpt lat="38.4405770" lon="-0.6398530">
        <ele>321.6</ele>
        <time>2020-10-12T08:24:37Z</time>
      </trkpt>
      <trkpt lat="38.4406230" lon="-0.6398330">
        <ele>321.8</ele>
        <time>2020-10-12T08:24:38Z</time>
      </trkpt>
      <trkpt lat="38.4406640" lon="-0.6398120">
        <ele>322.2</ele>
        <time>2020-10-12T08:24:39Z</time>
      </trkpt>
      <trkpt lat="38.4407090" lon="-0.6397940">
        <ele>322.4</ele>
        <time>2020-10-12T08:24:40Z</time>
      </trkpt>
      <trkpt lat="38.4407530" lon="-0.6397760">
        <ele>322.6</ele>
        <time>2020-10-12T08:24:41Z</time>
      </trkpt>
      <trkpt lat="38.4407930" lon="-0.6397620">
        <ele>322.8</ele>
        <time>2020-10-12T08:24:42Z</time>
      </trkpt>
      <trkpt lat="38.4408320" lon="-0.6397440">
        <ele>323.0</ele>
        <time>2020-10-12T08:24:43Z</time>
      </trkpt>
      <trkpt lat="38.4408710" lon="-0.6397280">
        <ele>323.2</ele>
        <time>2020-10-12T08:24:44Z</time>
      </trkpt>
      <trkpt lat="38.4409070" lon="-0.6397110">
        <ele>323.4</ele>
        <time>2020-10-12T08:24:45Z</time>
      </trkpt>
      <trkpt lat="38.4409420" lon="-0.6396950">
        <ele>323.6</ele>
        <time>2020-10-12T08:24:46Z</time>
      </trkpt>
      <trkpt lat="38.4409770" lon="-0.6396820">
        <ele>324.0</ele>
        <time>2020-10-12T08:24:47Z</time>
      </trkpt>
      <trkpt lat="38.4410120" lon="-0.6396640">
        <ele>324.0</ele>
        <time>2020-10-12T08:24:48Z</time>
      </trkpt>
      <trkpt lat="38.4410460" lon="-0.6396460">
        <ele>324.2</ele>
        <time>2020-10-12T08:24:49Z</time>
      </trkpt>
      <trkpt lat="38.4410860" lon="-0.6396290">
        <ele>324.2</ele>
        <time>2020-10-12T08:24:50Z</time>
      </trkpt>
      <trkpt lat="38.4411220" lon="-0.6396160">
        <ele>324.4</ele>
        <time>2020-10-12T08:24:51Z</time>
      </trkpt>
      <trkpt lat="38.4411590" lon="-0.6396050">
        <ele>324.8</ele>
        <time>2020-10-12T08:24:52Z</time>
      </trkpt>
      <trkpt lat="38.4411940" lon="-0.6395900">
        <ele>325.0</ele>
        <time>2020-10-12T08:24:53Z</time>
      </trkpt>
      <trkpt lat="38.4412250" lon="-0.6395750">
        <ele>325.0</ele>
        <time>2020-10-12T08:24:54Z</time>
      </trkpt>
      <trkpt lat="38.4412710" lon="-0.6395770">
        <ele>325.2</ele>
        <time>2020-10-12T08:24:55Z</time>
      </trkpt>
      <trkpt lat="38.4413100" lon="-0.6395680">
        <ele>325.4</ele>
        <time>2020-10-12T08:24:56Z</time>
      </trkpt>
      <trkpt lat="38.4413470" lon="-0.6395540">
        <ele>325.4</ele>
        <time>2020-10-12T08:24:57Z</time>
      </trkpt>
      <trkpt lat="38.4413810" lon="-0.6395410">
        <ele>325.6</ele>
        <time>2020-10-12T08:24:58Z</time>
      </trkpt>
      <trkpt lat="38.4414200" lon="-0.6395190">
        <ele>326.0</ele>
        <time>2020-10-12T08:24:59Z</time>
      </trkpt>
      <trkpt lat="38.4414630" lon="-0.6394860">
        <ele>326.4</ele>
        <time>2020-10-12T08:25:00Z</time>
      </trkpt>
      <trkpt lat="38.4415010" lon="-0.6394550">
        <ele>326.8</ele>
        <time>2020-10-12T08:25:01Z</time>
      </trkpt>
      <trkpt lat="38.4415400" lon="-0.6394220">
        <ele>327.0</ele>
        <time>2020-10-12T08:25:02Z</time>
      </trkpt>
      <trkpt lat="38.4415730" lon="-0.6393880">
        <ele>327.2</ele>
        <time>2020-10-12T08:25:03Z</time>
      </trkpt>
      <trkpt lat="38.4416080" lon="-0.6393600">
        <ele>327.4</ele>
        <time>2020-10-12T08:25:04Z</time>
      </trkpt>
      <trkpt lat="38.4416450" lon="-0.6393310">
        <ele>327.4</ele>
        <time>2020-10-12T08:25:05Z</time>
      </trkpt>
      <trkpt lat="38.4416790" lon="-0.6393040">
        <ele>327.2</ele>
        <time>2020-10-12T08:25:06Z</time>
      </trkpt>
      <trkpt lat="38.4417120" lon="-0.6392770">
        <ele>327.0</ele>
        <time>2020-10-12T08:25:07Z</time>
      </trkpt>
      <trkpt lat="38.4417420" lon="-0.6392470">
        <ele>327.0</ele>
        <time>2020-10-12T08:25:08Z</time>
      </trkpt>
      <trkpt lat="38.4417740" lon="-0.6392150">
        <ele>326.8</ele>
        <time>2020-10-12T08:25:09Z</time>
      </trkpt>
      <trkpt lat="38.4418070" lon="-0.6391800">
        <ele>326.6</ele>
        <time>2020-10-12T08:25:10Z</time>
      </trkpt>
      <trkpt lat="38.4418430" lon="-0.6391440">
        <ele>326.6</ele>
        <time>2020-10-12T08:25:11Z</time>
      </trkpt>
      <trkpt lat="38.4418820" lon="-0.6391180">
        <ele>326.6</ele>
        <time>2020-10-12T08:25:12Z</time>
      </trkpt>
      <trkpt lat="38.4419200" lon="-0.6390960">
        <ele>326.6</ele>
        <time>2020-10-12T08:25:13Z</time>
      </trkpt>
      <trkpt lat="38.4419550" lon="-0.6390730">
        <ele>326.8</ele>
        <time>2020-10-12T08:25:14Z</time>
      </trkpt>
      <trkpt lat="38.4419920" lon="-0.6390520">
        <ele>327.0</ele>
        <time>2020-10-12T08:25:15Z</time>
      </trkpt>
      <trkpt lat="38.4420260" lon="-0.6390260">
        <ele>327.6</ele>
        <time>2020-10-12T08:25:16Z</time>
      </trkpt>
      <trkpt lat="38.4420610" lon="-0.6389990">
        <ele>328.0</ele>
        <time>2020-10-12T08:25:17Z</time>
      </trkpt>
      <trkpt lat="38.4420970" lon="-0.6389700">
        <ele>328.4</ele>
        <time>2020-10-12T08:25:18Z</time>
      </trkpt>
      <trkpt lat="38.4421310" lon="-0.6389460">
        <ele>328.6</ele>
        <time>2020-10-12T08:25:19Z</time>
      </trkpt>
      <trkpt lat="38.4421620" lon="-0.6389200">
        <ele>328.8</ele>
        <time>2020-10-12T08:25:20Z</time>
      </trkpt>
      <trkpt lat="38.4421950" lon="-0.6388980">
        <ele>329.0</ele>
        <time>2020-10-12T08:25:21Z</time>
      </trkpt>
      <trkpt lat="38.4422260" lon="-0.6388740">
        <ele>329.0</ele>
        <time>2020-10-12T08:25:22Z</time>
      </trkpt>
      <trkpt lat="38.4422610" lon="-0.6388470">
        <ele>329.0</ele>
        <time>2020-10-12T08:25:23Z</time>
      </trkpt>
      <trkpt lat="38.4422940" lon="-0.6388200">
        <ele>329.0</ele>
        <time>2020-10-12T08:25:24Z</time>
      </trkpt>
      <trkpt lat="38.4423300" lon="-0.6387900">
        <ele>329.2</ele>
        <time>2020-10-12T08:25:25Z</time>
      </trkpt>
      <trkpt lat="38.4423630" lon="-0.6387620">
        <ele>329.6</ele>
        <time>2020-10-12T08:25:26Z</time>
      </trkpt>
      <trkpt lat="38.4423960" lon="-0.6387340">
        <ele>329.6</ele>
        <time>2020-10-12T08:25:27Z</time>
      </trkpt>
      <trkpt lat="38.4424280" lon="-0.6387050">
        <ele>329.8</ele>
        <time>2020-10-12T08:25:28Z</time>
      </trkpt>
      <trkpt lat="38.4424610" lon="-0.6386740">
        <ele>330.0</ele>
        <time>2020-10-12T08:25:29Z</time>
      </trkpt>
      <trkpt lat="38.4424890" lon="-0.6386470">
        <ele>330.2</ele>
        <time>2020-10-12T08:25:30Z</time>
      </trkpt>
      <trkpt lat="38.4425220" lon="-0.6386200">
        <ele>330.4</ele>
        <time>2020-10-12T08:25:31Z</time>
      </trkpt>
      <trkpt lat="38.4425570" lon="-0.6385940">
        <ele>330.4</ele>
        <time>2020-10-12T08:25:32Z</time>
      </trkpt>
      <trkpt lat="38.4425930" lon="-0.6385690">
        <ele>330.4</ele>
        <time>2020-10-12T08:25:33Z</time>
      </trkpt>
      <trkpt lat="38.4426250" lon="-0.6385460">
        <ele>330.4</ele>
        <time>2020-10-12T08:25:34Z</time>
      </trkpt>
      <trkpt lat="38.4426500" lon="-0.6385220">
        <ele>330.6</ele>
        <time>2020-10-12T08:25:35Z</time>
      </trkpt>
      <trkpt lat="38.4426820" lon="-0.6385000">
        <ele>330.8</ele>
        <time>2020-10-12T08:25:36Z</time>
      </trkpt>
      <trkpt lat="38.4427170" lon="-0.6384780">
        <ele>330.8</ele>
        <time>2020-10-12T08:25:37Z</time>
      </trkpt>
      <trkpt lat="38.4427560" lon="-0.6384580">
        <ele>331.2</ele>
        <time>2020-10-12T08:25:38Z</time>
      </trkpt>
      <trkpt lat="38.4427920" lon="-0.6384360">
        <ele>331.8</ele>
        <time>2020-10-12T08:25:39Z</time>
      </trkpt>
      <trkpt lat="38.4428290" lon="-0.6384130">
        <ele>332.2</ele>
        <time>2020-10-12T08:25:40Z</time>
      </trkpt>
      <trkpt lat="38.4428690" lon="-0.6383890">
        <ele>332.6</ele>
        <time>2020-10-12T08:25:41Z</time>
      </trkpt>
      <trkpt lat="38.4429100" lon="-0.6383650">
        <ele>332.8</ele>
        <time>2020-10-12T08:25:42Z</time>
      </trkpt>
      <trkpt lat="38.4429450" lon="-0.6383380">
        <ele>333.0</ele>
        <time>2020-10-12T08:25:43Z</time>
      </trkpt>
      <trkpt lat="38.4429820" lon="-0.6383120">
        <ele>333.4</ele>
        <time>2020-10-12T08:25:44Z</time>
      </trkpt>
      <trkpt lat="38.4430210" lon="-0.6382920">
        <ele>333.6</ele>
        <time>2020-10-12T08:25:45Z</time>
      </trkpt>
      <trkpt lat="38.4430560" lon="-0.6382730">
        <ele>333.8</ele>
        <time>2020-10-12T08:25:46Z</time>
      </trkpt>
      <trkpt lat="38.4430930" lon="-0.6382550">
        <ele>334.2</ele>
        <time>2020-10-12T08:25:47Z</time>
      </trkpt>
      <trkpt lat="38.4431310" lon="-0.6382350">
        <ele>334.4</ele>
        <time>2020-10-12T08:25:48Z</time>
      </trkpt>
      <trkpt lat="38.4431680" lon="-0.6382130">
        <ele>334.6</ele>
        <time>2020-10-12T08:25:49Z</time>
      </trkpt>
      <trkpt lat="38.4432050" lon="-0.6381910">
        <ele>334.6</ele>
        <time>2020-10-12T08:25:50Z</time>
      </trkpt>
      <trkpt lat="38.4432420" lon="-0.6381700">
        <ele>334.8</ele>
        <time>2020-10-12T08:25:51Z</time>
      </trkpt>
      <trkpt lat="38.4432790" lon="-0.6381480">
        <ele>334.8</ele>
        <time>2020-10-12T08:25:52Z</time>
      </trkpt>
      <trkpt lat="38.4433160" lon="-0.6381260">
        <ele>335.0</ele>
        <time>2020-10-12T08:25:53Z</time>
      </trkpt>
      <trkpt lat="38.4433530" lon="-0.6381030">
        <ele>335.0</ele>
        <time>2020-10-12T08:25:54Z</time>
      </trkpt>
      <trkpt lat="38.4433910" lon="-0.6380800">
        <ele>335.2</ele>
        <time>2020-10-12T08:25:55Z</time>
      </trkpt>
      <trkpt lat="38.4434280" lon="-0.6380580">
        <ele>335.4</ele>
        <time>2020-10-12T08:25:56Z</time>
      </trkpt>
      <trkpt lat="38.4434630" lon="-0.6380380">
        <ele>335.8</ele>
        <time>2020-10-12T08:25:57Z</time>
      </trkpt>
      <trkpt lat="38.4435000" lon="-0.6380170">
        <ele>336.0</ele>
        <time>2020-10-12T08:25:58Z</time>
      </trkpt>
      <trkpt lat="38.4435380" lon="-0.6379970">
        <ele>336.2</ele>
        <time>2020-10-12T08:25:59Z</time>
      </trkpt>
      <trkpt lat="38.4435850" lon="-0.6379740">
        <ele>336.6</ele>
        <time>2020-10-12T08:26:00Z</time>
      </trkpt>
      <trkpt lat="38.4436270" lon="-0.6379520">
        <ele>336.8</ele>
        <time>2020-10-12T08:26:01Z</time>
      </trkpt>
      <trkpt lat="38.4436710" lon="-0.6379300">
        <ele>337.0</ele>
        <time>2020-10-12T08:26:02Z</time>
      </trkpt>
      <trkpt lat="38.4437140" lon="-0.6379090">
        <ele>337.2</ele>
        <time>2020-10-12T08:26:03Z</time>
      </trkpt>
      <trkpt lat="38.4437550" lon="-0.6378870">
        <ele>337.4</ele>
        <time>2020-10-12T08:26:04Z</time>
      </trkpt>
      <trkpt lat="38.4437930" lon="-0.6378630">
        <ele>337.6</ele>
        <time>2020-10-12T08:26:05Z</time>
      </trkpt>
      <trkpt lat="38.4438290" lon="-0.6378390">
        <ele>337.8</ele>
        <time>2020-10-12T08:26:06Z</time>
      </trkpt>
      <trkpt lat="38.4438660" lon="-0.6378140">
        <ele>338.0</ele>
        <time>2020-10-12T08:26:07Z</time>
      </trkpt>
      <trkpt lat="38.4439040" lon="-0.6377910">
        <ele>338.2</ele>
        <time>2020-10-12T08:26:08Z</time>
      </trkpt>
      <trkpt lat="38.4439430" lon="-0.6377680">
        <ele>338.6</ele>
        <time>2020-10-12T08:26:09Z</time>
      </trkpt>
      <trkpt lat="38.4439830" lon="-0.6377440">
        <ele>338.8</ele>
        <time>2020-10-12T08:26:10Z</time>
      </trkpt>
      <trkpt lat="38.4440240" lon="-0.6377210">
        <ele>338.8</ele>
        <time>2020-10-12T08:26:11Z</time>
      </trkpt>
      <trkpt lat="38.4440630" lon="-0.6376980">
        <ele>339.2</ele>
        <time>2020-10-12T08:26:12Z</time>
      </trkpt>
      <trkpt lat="38.4441080" lon="-0.6376760">
        <ele>339.4</ele>
        <time>2020-10-12T08:26:13Z</time>
      </trkpt>
      <trkpt lat="38.4441530" lon="-0.6376520">
        <ele>339.6</ele>
        <time>2020-10-12T08:26:14Z</time>
      </trkpt>
      <trkpt lat="38.4441950" lon="-0.6376300">
        <ele>339.8</ele>
        <time>2020-10-12T08:26:15Z</time>
      </trkpt>
      <trkpt lat="38.4442330" lon="-0.6376050">
        <ele>340.0</ele>
        <time>2020-10-12T08:26:16Z</time>
      </trkpt>
      <trkpt lat="38.4442750" lon="-0.6375810">
        <ele>340.4</ele>
        <time>2020-10-12T08:26:17Z</time>
      </trkpt>
      <trkpt lat="38.4443150" lon="-0.6375570">
        <ele>340.6</ele>
        <time>2020-10-12T08:26:18Z</time>
      </trkpt>
      <trkpt lat="38.4443560" lon="-0.6375350">
        <ele>340.8</ele>
        <time>2020-10-12T08:26:19Z</time>
      </trkpt>
      <trkpt lat="38.4443980" lon="-0.6375130">
        <ele>341.0</ele>
        <time>2020-10-12T08:26:20Z</time>
      </trkpt>
      <trkpt lat="38.4444420" lon="-0.6374920">
        <ele>341.0</ele>
        <time>2020-10-12T08:26:21Z</time>
      </trkpt>
      <trkpt lat="38.4444820" lon="-0.6374690">
        <ele>341.0</ele>
        <time>2020-10-12T08:26:22Z</time>
      </trkpt>
      <trkpt lat="38.4445230" lon="-0.6374430">
        <ele>341.0</ele>
        <time>2020-10-12T08:26:23Z</time>
      </trkpt>
      <trkpt lat="38.4445640" lon="-0.6374170">
        <ele>341.0</ele>
        <time>2020-10-12T08:26:24Z</time>
      </trkpt>
      <trkpt lat="38.4446030" lon="-0.6373910">
        <ele>341.2</ele>
        <time>2020-10-12T08:26:25Z</time>
      </trkpt>
      <trkpt lat="38.4446430" lon="-0.6373650">
        <ele>341.0</ele>
        <time>2020-10-12T08:26:26Z</time>
      </trkpt>
      <trkpt lat="38.4446860" lon="-0.6373400">
        <ele>341.0</ele>
        <time>2020-10-12T08:26:27Z</time>
      </trkpt>
      <trkpt lat="38.4447260" lon="-0.6373150">
        <ele>341.0</ele>
        <time>2020-10-12T08:26:28Z</time>
      </trkpt>
      <trkpt lat="38.4447690" lon="-0.6372900">
        <ele>341.2</ele>
        <time>2020-10-12T08:26:29Z</time>
      </trkpt>
      <trkpt lat="38.4448100" lon="-0.6372650">
        <ele>341.2</ele>
        <time>2020-10-12T08:26:30Z</time>
      </trkpt>
      <trkpt lat="38.4448500" lon="-0.6372410">
        <ele>341.2</ele>
        <time>2020-10-12T08:26:31Z</time>
      </trkpt>
      <trkpt lat="38.4448910" lon="-0.6372160">
        <ele>341.2</ele>
        <time>2020-10-12T08:26:32Z</time>
      </trkpt>
      <trkpt lat="38.4449300" lon="-0.6371920">
        <ele>341.4</ele>
        <time>2020-10-12T08:26:33Z</time>
      </trkpt>
      <trkpt lat="38.4449720" lon="-0.6371660">
        <ele>341.6</ele>
        <time>2020-10-12T08:26:34Z</time>
      </trkpt>
      <trkpt lat="38.4450160" lon="-0.6371410">
        <ele>341.8</ele>
        <time>2020-10-12T08:26:35Z</time>
      </trkpt>
      <trkpt lat="38.4450590" lon="-0.6371160">
        <ele>342.0</ele>
        <time>2020-10-12T08:26:36Z</time>
      </trkpt>
      <trkpt lat="38.4451020" lon="-0.6370920">
        <ele>342.0</ele>
        <time>2020-10-12T08:26:37Z</time>
      </trkpt>
      <trkpt lat="38.4451460" lon="-0.6370670">
        <ele>342.2</ele>
        <time>2020-10-12T08:26:38Z</time>
      </trkpt>
      <trkpt lat="38.4451890" lon="-0.6370420">
        <ele>342.2</ele>
        <time>2020-10-12T08:26:39Z</time>
      </trkpt>
      <trkpt lat="38.4452300" lon="-0.6370190">
        <ele>342.4</ele>
        <time>2020-10-12T08:26:40Z</time>
      </trkpt>
      <trkpt lat="38.4452740" lon="-0.6369950">
        <ele>342.4</ele>
        <time>2020-10-12T08:26:41Z</time>
      </trkpt>
      <trkpt lat="38.4453150" lon="-0.6369710">
        <ele>342.4</ele>
        <time>2020-10-12T08:26:42Z</time>
      </trkpt>
      <trkpt lat="38.4453580" lon="-0.6369460">
        <ele>342.6</ele>
        <time>2020-10-12T08:26:43Z</time>
      </trkpt>
      <trkpt lat="38.4454010" lon="-0.6369210">
        <ele>342.6</ele>
        <time>2020-10-12T08:26:44Z</time>
      </trkpt>
      <trkpt lat="38.4454420" lon="-0.6368970">
        <ele>342.8</ele>
        <time>2020-10-12T08:26:45Z</time>
      </trkpt>
      <trkpt lat="38.4454850" lon="-0.6368720">
        <ele>343.0</ele>
        <time>2020-10-12T08:26:46Z</time>
      </trkpt>
      <trkpt lat="38.4455260" lon="-0.6368480">
        <ele>343.2</ele>
        <time>2020-10-12T08:26:47Z</time>
      </trkpt>
      <trkpt lat="38.4455680" lon="-0.6368230">
        <ele>343.4</ele>
        <time>2020-10-12T08:26:48Z</time>
      </trkpt>
      <trkpt lat="38.4456100" lon="-0.6367990">
        <ele>343.4</ele>
        <time>2020-10-12T08:26:49Z</time>
      </trkpt>
      <trkpt lat="38.4456450" lon="-0.6367760">
        <ele>343.4</ele>
        <time>2020-10-12T08:26:50Z</time>
      </trkpt>
      <trkpt lat="38.4456810" lon="-0.6367530">
        <ele>343.6</ele>
        <time>2020-10-12T08:26:51Z</time>
      </trkpt>
      <trkpt lat="38.4457190" lon="-0.6367280">
        <ele>343.8</ele>
        <time>2020-10-12T08:26:52Z</time>
      </trkpt>
      <trkpt lat="38.4457600" lon="-0.6367030">
        <ele>344.0</ele>
        <time>2020-10-12T08:26:53Z</time>
      </trkpt>
      <trkpt lat="38.4458010" lon="-0.6366790">
        <ele>344.0</ele>
        <time>2020-10-12T08:26:54Z</time>
      </trkpt>
      <trkpt lat="38.4458400" lon="-0.6366560">
        <ele>344.2</ele>
        <time>2020-10-12T08:26:55Z</time>
      </trkpt>
      <trkpt lat="38.4458810" lon="-0.6366330">
        <ele>344.2</ele>
        <time>2020-10-12T08:26:56Z</time>
      </trkpt>
      <trkpt lat="38.4459210" lon="-0.6366090">
        <ele>344.4</ele>
        <time>2020-10-12T08:26:57Z</time>
      </trkpt>
      <trkpt lat="38.4459630" lon="-0.6365850">
        <ele>344.6</ele>
        <time>2020-10-12T08:26:58Z</time>
      </trkpt>
      <trkpt lat="38.4460040" lon="-0.6365640">
        <ele>345.0</ele>
        <time>2020-10-12T08:26:59Z</time>
      </trkpt>
      <trkpt lat="38.4460450" lon="-0.6365410">
        <ele>345.6</ele>
        <time>2020-10-12T08:27:00Z</time>
      </trkpt>
      <trkpt lat="38.4460860" lon="-0.6365170">
        <ele>346.0</ele>
        <time>2020-10-12T08:27:01Z</time>
      </trkpt>
      <trkpt lat="38.4461300" lon="-0.6364910">
        <ele>346.4</ele>
        <time>2020-10-12T08:27:02Z</time>
      </trkpt>
      <trkpt lat="38.4461740" lon="-0.6364670">
        <ele>346.6</ele>
        <time>2020-10-12T08:27:03Z</time>
      </trkpt>
      <trkpt lat="38.4462150" lon="-0.6364420">
        <ele>346.6</ele>
        <time>2020-10-12T08:27:04Z</time>
      </trkpt>
      <trkpt lat="38.4462570" lon="-0.6364150">
        <ele>346.8</ele>
        <time>2020-10-12T08:27:05Z</time>
      </trkpt>
      <trkpt lat="38.4462980" lon="-0.6363890">
        <ele>346.8</ele>
        <time>2020-10-12T08:27:06Z</time>
      </trkpt>
      <trkpt lat="38.4463390" lon="-0.6363640">
        <ele>346.8</ele>
        <time>2020-10-12T08:27:07Z</time>
      </trkpt>
      <trkpt lat="38.4463790" lon="-0.6363420">
        <ele>347.0</ele>
        <time>2020-10-12T08:27:08Z</time>
      </trkpt>
      <trkpt lat="38.4464220" lon="-0.6363160">
        <ele>347.0</ele>
        <time>2020-10-12T08:27:09Z</time>
      </trkpt>
      <trkpt lat="38.4464650" lon="-0.6362890">
        <ele>347.0</ele>
        <time>2020-10-12T08:27:10Z</time>
      </trkpt>
      <trkpt lat="38.4465040" lon="-0.6362640">
        <ele>347.0</ele>
        <time>2020-10-12T08:27:11Z</time>
      </trkpt>
      <trkpt lat="38.4465440" lon="-0.6362390">
        <ele>347.0</ele>
        <time>2020-10-12T08:27:12Z</time>
      </trkpt>
      <trkpt lat="38.4465830" lon="-0.6362160">
        <ele>347.2</ele>
        <time>2020-10-12T08:27:13Z</time>
      </trkpt>
      <trkpt lat="38.4466190" lon="-0.6361930">
        <ele>347.4</ele>
        <time>2020-10-12T08:27:14Z</time>
      </trkpt>
      <trkpt lat="38.4466560" lon="-0.6361700">
        <ele>347.8</ele>
        <time>2020-10-12T08:27:15Z</time>
      </trkpt>
      <trkpt lat="38.4466920" lon="-0.6361480">
        <ele>348.2</ele>
        <time>2020-10-12T08:27:16Z</time>
      </trkpt>
      <trkpt lat="38.4467290" lon="-0.6361290">
        <ele>348.4</ele>
        <time>2020-10-12T08:27:17Z</time>
      </trkpt>
      <trkpt lat="38.4467690" lon="-0.6361120">
        <ele>348.6</ele>
        <time>2020-10-12T08:27:18Z</time>
      </trkpt>
      <trkpt lat="38.4468120" lon="-0.6360950">
        <ele>348.8</ele>
        <time>2020-10-12T08:27:19Z</time>
      </trkpt>
      <trkpt lat="38.4468560" lon="-0.6360800">
        <ele>349.2</ele>
        <time>2020-10-12T08:27:20Z</time>
      </trkpt>
      <trkpt lat="38.4468990" lon="-0.6360680">
        <ele>349.6</ele>
        <time>2020-10-12T08:27:21Z</time>
      </trkpt>
      <trkpt lat="38.4469390" lon="-0.6360580">
        <ele>350.0</ele>
        <time>2020-10-12T08:27:22Z</time>
      </trkpt>
      <trkpt lat="38.4469770" lon="-0.6360510">
        <ele>350.4</ele>
        <time>2020-10-12T08:27:23Z</time>
      </trkpt>
      <trkpt lat="38.4470160" lon="-0.6360440">
        <ele>350.8</ele>
        <time>2020-10-12T08:27:24Z</time>
      </trkpt>
      <trkpt lat="38.4470540" lon="-0.6360420">
        <ele>351.0</ele>
        <time>2020-10-12T08:27:25Z</time>
      </trkpt>
      <trkpt lat="38.4470970" lon="-0.6360440">
        <ele>351.0</ele>
        <time>2020-10-12T08:27:26Z</time>
      </trkpt>
      <trkpt lat="38.4471420" lon="-0.6360510">
        <ele>351.4</ele>
        <time>2020-10-12T08:27:27Z</time>
      </trkpt>
      <trkpt lat="38.4471830" lon="-0.6360580">
        <ele>351.8</ele>
        <time>2020-10-12T08:27:28Z</time>
      </trkpt>
      <trkpt lat="38.4472270" lon="-0.6360690">
        <ele>352.0</ele>
        <time>2020-10-12T08:27:29Z</time>
      </trkpt>
      <trkpt lat="38.4472690" lon="-0.6360800">
        <ele>352.2</ele>
        <time>2020-10-12T08:27:30Z</time>
      </trkpt>
      <trkpt lat="38.4473090" lon="-0.6360900">
        <ele>352.4</ele>
        <time>2020-10-12T08:27:31Z</time>
      </trkpt>
      <trkpt lat="38.4473480" lon="-0.6361010">
        <ele>352.6</ele>
        <time>2020-10-12T08:27:32Z</time>
      </trkpt>
      <trkpt lat="38.4473870" lon="-0.6361120">
        <ele>353.0</ele>
        <time>2020-10-12T08:27:33Z</time>
      </trkpt>
      <trkpt lat="38.4474280" lon="-0.6361260">
        <ele>353.4</ele>
        <time>2020-10-12T08:27:34Z</time>
      </trkpt>
      <trkpt lat="38.4474680" lon="-0.6361380">
        <ele>353.6</ele>
        <time>2020-10-12T08:27:35Z</time>
      </trkpt>
      <trkpt lat="38.4475080" lon="-0.6361500">
        <ele>353.8</ele>
        <time>2020-10-12T08:27:36Z</time>
      </trkpt>
      <trkpt lat="38.4475470" lon="-0.6361620">
        <ele>354.0</ele>
        <time>2020-10-12T08:27:37Z</time>
      </trkpt>
      <trkpt lat="38.4475890" lon="-0.6361760">
        <ele>354.0</ele>
        <time>2020-10-12T08:27:38Z</time>
      </trkpt>
      <trkpt lat="38.4476290" lon="-0.6361870">
        <ele>354.2</ele>
        <time>2020-10-12T08:27:39Z</time>
      </trkpt>
      <trkpt lat="38.4476690" lon="-0.6361970">
        <ele>354.2</ele>
        <time>2020-10-12T08:27:40Z</time>
      </trkpt>
      <trkpt lat="38.4477100" lon="-0.6362060">
        <ele>354.4</ele>
        <time>2020-10-12T08:27:41Z</time>
      </trkpt>
      <trkpt lat="38.4477510" lon="-0.6362100">
        <ele>354.6</ele>
        <time>2020-10-12T08:27:42Z</time>
      </trkpt>
      <trkpt lat="38.4477940" lon="-0.6362060">
        <ele>354.8</ele>
        <time>2020-10-12T08:27:43Z</time>
      </trkpt>
      <trkpt lat="38.4478350" lon="-0.6362040">
        <ele>355.0</ele>
        <time>2020-10-12T08:27:44Z</time>
      </trkpt>
      <trkpt lat="38.4478740" lon="-0.6361990">
        <ele>355.0</ele>
        <time>2020-10-12T08:27:45Z</time>
      </trkpt>
      <trkpt lat="38.4479080" lon="-0.6361850">
        <ele>355.0</ele>
        <time>2020-10-12T08:27:46Z</time>
      </trkpt>
      <trkpt lat="38.4479410" lon="-0.6361750">
        <ele>355.2</ele>
        <time>2020-10-12T08:27:47Z</time>
      </trkpt>
      <trkpt lat="38.4479770" lon="-0.6361600">
        <ele>355.6</ele>
        <time>2020-10-12T08:27:48Z</time>
      </trkpt>
      <trkpt lat="38.4480110" lon="-0.6361430">
        <ele>355.8</ele>
        <time>2020-10-12T08:27:49Z</time>
      </trkpt>
      <trkpt lat="38.4480470" lon="-0.6361260">
        <ele>356.0</ele>
        <time>2020-10-12T08:27:50Z</time>
      </trkpt>
      <trkpt lat="38.4480820" lon="-0.6361090">
        <ele>356.0</ele>
        <time>2020-10-12T08:27:51Z</time>
      </trkpt>
      <trkpt lat="38.4481160" lon="-0.6360930">
        <ele>356.2</ele>
        <time>2020-10-12T08:27:52Z</time>
      </trkpt>
      <trkpt lat="38.4481510" lon="-0.6360760">
        <ele>356.4</ele>
        <time>2020-10-12T08:27:53Z</time>
      </trkpt>
      <trkpt lat="38.4481860" lon="-0.6360610">
        <ele>356.6</ele>
        <time>2020-10-12T08:27:54Z</time>
      </trkpt>
      <trkpt lat="38.4482230" lon="-0.6360450">
        <ele>356.8</ele>
        <time>2020-10-12T08:27:55Z</time>
      </trkpt>
      <trkpt lat="38.4482570" lon="-0.6360290">
        <ele>357.0</ele>
        <time>2020-10-12T08:27:56Z</time>
      </trkpt>
      <trkpt lat="38.4482870" lon="-0.6360110">
        <ele>357.6</ele>
        <time>2020-10-12T08:27:57Z</time>
      </trkpt>
      <trkpt lat="38.4483220" lon="-0.6359980">
        <ele>358.0</ele>
        <time>2020-10-12T08:27:58Z</time>
      </trkpt>
      <trkpt lat="38.4483550" lon="-0.6359870">
        <ele>358.2</ele>
        <time>2020-10-12T08:27:59Z</time>
      </trkpt>
      <trkpt lat="38.4483910" lon="-0.6359780">
        <ele>358.2</ele>
        <time>2020-10-12T08:28:00Z</time>
      </trkpt>
      <trkpt lat="38.4484270" lon="-0.6359680">
        <ele>358.4</ele>
        <time>2020-10-12T08:28:01Z</time>
      </trkpt>
      <trkpt lat="38.4484640" lon="-0.6359610">
        <ele>358.4</ele>
        <time>2020-10-12T08:28:02Z</time>
      </trkpt>
      <trkpt lat="38.4485010" lon="-0.6359550">
        <ele>358.4</ele>
        <time>2020-10-12T08:28:03Z</time>
      </trkpt>
      <trkpt lat="38.4485390" lon="-0.6359500">
        <ele>358.4</ele>
        <time>2020-10-12T08:28:04Z</time>
      </trkpt>
      <trkpt lat="38.4485760" lon="-0.6359430">
        <ele>358.6</ele>
        <time>2020-10-12T08:28:05Z</time>
      </trkpt>
      <trkpt lat="38.4486120" lon="-0.6359360">
        <ele>358.6</ele>
        <time>2020-10-12T08:28:06Z</time>
      </trkpt>
      <trkpt lat="38.4486500" lon="-0.6359270">
        <ele>358.6</ele>
        <time>2020-10-12T08:28:07Z</time>
      </trkpt>
      <trkpt lat="38.4486850" lon="-0.6359150">
        <ele>358.6</ele>
        <time>2020-10-12T08:28:08Z</time>
      </trkpt>
      <trkpt lat="38.4487190" lon="-0.6359080">
        <ele>358.4</ele>
        <time>2020-10-12T08:28:09Z</time>
      </trkpt>
      <trkpt lat="38.4487550" lon="-0.6359020">
        <ele>358.6</ele>
        <time>2020-10-12T08:28:10Z</time>
      </trkpt>
      <trkpt lat="38.4487890" lon="-0.6358960">
        <ele>358.6</ele>
        <time>2020-10-12T08:28:11Z</time>
      </trkpt>
      <trkpt lat="38.4488260" lon="-0.6358910">
        <ele>358.6</ele>
        <time>2020-10-12T08:28:12Z</time>
      </trkpt>
      <trkpt lat="38.4488640" lon="-0.6358850">
        <ele>358.6</ele>
        <time>2020-10-12T08:28:13Z</time>
      </trkpt>
      <trkpt lat="38.4489000" lon="-0.6358780">
        <ele>359.0</ele>
        <time>2020-10-12T08:28:14Z</time>
      </trkpt>
      <trkpt lat="38.4489370" lon="-0.6358710">
        <ele>359.2</ele>
        <time>2020-10-12T08:28:15Z</time>
      </trkpt>
      <trkpt lat="38.4489710" lon="-0.6358610">
        <ele>359.6</ele>
        <time>2020-10-12T08:28:16Z</time>
      </trkpt>
      <trkpt lat="38.4490050" lon="-0.6358540">
        <ele>360.0</ele>
        <time>2020-10-12T08:28:17Z</time>
      </trkpt>
      <trkpt lat="38.4490390" lon="-0.6358470">
        <ele>360.4</ele>
        <time>2020-10-12T08:28:18Z</time>
      </trkpt>
      <trkpt lat="38.4490770" lon="-0.6358420">
        <ele>360.6</ele>
        <time>2020-10-12T08:28:19Z</time>
      </trkpt>
      <trkpt lat="38.4491160" lon="-0.6358380">
        <ele>360.8</ele>
        <time>2020-10-12T08:28:20Z</time>
      </trkpt>
      <trkpt lat="38.4491520" lon="-0.6358310">
        <ele>361.0</ele>
        <time>2020-10-12T08:28:21Z</time>
      </trkpt>
      <trkpt lat="38.4491870" lon="-0.6358250">
        <ele>361.0</ele>
        <time>2020-10-12T08:28:22Z</time>
      </trkpt>
      <trkpt lat="38.4492250" lon="-0.6358190">
        <ele>361.2</ele>
        <time>2020-10-12T08:28:23Z</time>
      </trkpt>
      <trkpt lat="38.4492620" lon="-0.6358120">
        <ele>361.2</ele>
        <time>2020-10-12T08:28:24Z</time>
      </trkpt>
      <trkpt lat="38.4493020" lon="-0.6358060">
        <ele>361.4</ele>
        <time>2020-10-12T08:28:25Z</time>
      </trkpt>
      <trkpt lat="38.4493410" lon="-0.6357990">
        <ele>361.4</ele>
        <time>2020-10-12T08:28:26Z</time>
      </trkpt>
      <trkpt lat="38.4493850" lon="-0.6357910">
        <ele>361.6</ele>
        <time>2020-10-12T08:28:27Z</time>
      </trkpt>
      <trkpt lat="38.4494220" lon="-0.6357830">
        <ele>362.0</ele>
        <time>2020-10-12T08:28:28Z</time>
      </trkpt>
      <trkpt lat="38.4494570" lon="-0.6357760">
        <ele>362.4</ele>
        <time>2020-10-12T08:28:29Z</time>
      </trkpt>
      <trkpt lat="38.4494970" lon="-0.6357710">
        <ele>363.0</ele>
        <time>2020-10-12T08:28:30Z</time>
      </trkpt>
      <trkpt lat="38.4495390" lon="-0.6357660">
        <ele>363.2</ele>
        <time>2020-10-12T08:28:31Z</time>
      </trkpt>
      <trkpt lat="38.4495800" lon="-0.6357600">
        <ele>363.4</ele>
        <time>2020-10-12T08:28:32Z</time>
      </trkpt>
      <trkpt lat="38.4496200" lon="-0.6357520">
        <ele>363.8</ele>
        <time>2020-10-12T08:28:33Z</time>
      </trkpt>
      <trkpt lat="38.4496590" lon="-0.6357440">
        <ele>364.0</ele>
        <time>2020-10-12T08:28:34Z</time>
      </trkpt>
      <trkpt lat="38.4496990" lon="-0.6357370">
        <ele>364.2</ele>
        <time>2020-10-12T08:28:35Z</time>
      </trkpt>
      <trkpt lat="38.4497390" lon="-0.6357290">
        <ele>364.4</ele>
        <time>2020-10-12T08:28:36Z</time>
      </trkpt>
      <trkpt lat="38.4497780" lon="-0.6357230">
        <ele>364.6</ele>
        <time>2020-10-12T08:28:37Z</time>
      </trkpt>
      <trkpt lat="38.4498160" lon="-0.6357170">
        <ele>364.8</ele>
        <time>2020-10-12T08:28:38Z</time>
      </trkpt>
      <trkpt lat="38.4498520" lon="-0.6357110">
        <ele>364.8</ele>
        <time>2020-10-12T08:28:39Z</time>
      </trkpt>
      <trkpt lat="38.4498880" lon="-0.6357060">
        <ele>365.0</ele>
        <time>2020-10-12T08:28:40Z</time>
      </trkpt>
      <trkpt lat="38.4499170" lon="-0.6357000">
        <ele>365.2</ele>
        <time>2020-10-12T08:28:41Z</time>
      </trkpt>
      <trkpt lat="38.4499480" lon="-0.6356940">
        <ele>365.2</ele>
        <time>2020-10-12T08:28:42Z</time>
      </trkpt>
      <trkpt lat="38.4499860" lon="-0.6356880">
        <ele>365.4</ele>
        <time>2020-10-12T08:28:43Z</time>
      </trkpt>
      <trkpt lat="38.4500250" lon="-0.6356850">
        <ele>365.6</ele>
        <time>2020-10-12T08:28:44Z</time>
      </trkpt>
      <trkpt lat="38.4500600" lon="-0.6356810">
        <ele>366.0</ele>
        <time>2020-10-12T08:28:45Z</time>
      </trkpt>
      <trkpt lat="38.4500950" lon="-0.6356760">
        <ele>366.4</ele>
        <time>2020-10-12T08:28:46Z</time>
      </trkpt>
      <trkpt lat="38.4501390" lon="-0.6356740">
        <ele>367.0</ele>
        <time>2020-10-12T08:28:47Z</time>
      </trkpt>
      <trkpt lat="38.4501770" lon="-0.6356730">
        <ele>367.2</ele>
        <time>2020-10-12T08:28:48Z</time>
      </trkpt>
      <trkpt lat="38.4502170" lon="-0.6356730">
        <ele>367.4</ele>
        <time>2020-10-12T08:28:49Z</time>
      </trkpt>
      <trkpt lat="38.4502570" lon="-0.6356740">
        <ele>367.8</ele>
        <time>2020-10-12T08:28:50Z</time>
      </trkpt>
      <trkpt lat="38.4502970" lon="-0.6356760">
        <ele>368.0</ele>
        <time>2020-10-12T08:28:51Z</time>
      </trkpt>
      <trkpt lat="38.4503280" lon="-0.6356770">
        <ele>368.2</ele>
        <time>2020-10-12T08:28:52Z</time>
      </trkpt>
      <trkpt lat="38.4503640" lon="-0.6356800">
        <ele>368.4</ele>
        <time>2020-10-12T08:28:53Z</time>
      </trkpt>
      <trkpt lat="38.4504000" lon="-0.6356850">
        <ele>368.4</ele>
        <time>2020-10-12T08:28:54Z</time>
      </trkpt>
      <trkpt lat="38.4504340" lon="-0.6356930">
        <ele>368.6</ele>
        <time>2020-10-12T08:28:55Z</time>
      </trkpt>
      <trkpt lat="38.4504670" lon="-0.6356970">
        <ele>368.6</ele>
        <time>2020-10-12T08:28:56Z</time>
      </trkpt>
      <trkpt lat="38.4505030" lon="-0.6357030">
        <ele>368.6</ele>
        <time>2020-10-12T08:28:57Z</time>
      </trkpt>
      <trkpt lat="38.4505390" lon="-0.6357110">
        <ele>368.8</ele>
        <time>2020-10-12T08:28:58Z</time>
      </trkpt>
      <trkpt lat="38.4505750" lon="-0.6357160">
        <ele>369.0</ele>
        <time>2020-10-12T08:28:59Z</time>
      </trkpt>
      <trkpt lat="38.4506110" lon="-0.6357220">
        <ele>369.2</ele>
        <time>2020-10-12T08:29:00Z</time>
      </trkpt>
      <trkpt lat="38.4506440" lon="-0.6357270">
        <ele>369.4</ele>
        <time>2020-10-12T08:29:01Z</time>
      </trkpt>
      <trkpt lat="38.4506780" lon="-0.6357340">
        <ele>369.6</ele>
        <time>2020-10-12T08:29:02Z</time>
      </trkpt>
      <trkpt lat="38.4507140" lon="-0.6357380">
        <ele>369.8</ele>
        <time>2020-10-12T08:29:03Z</time>
      </trkpt>
      <trkpt lat="38.4507490" lon="-0.6357440">
        <ele>370.0</ele>
        <time>2020-10-12T08:29:04Z</time>
      </trkpt>
      <trkpt lat="38.4507860" lon="-0.6357480">
        <ele>370.2</ele>
        <time>2020-10-12T08:29:05Z</time>
      </trkpt>
      <trkpt lat="38.4508250" lon="-0.6357530">
        <ele>370.6</ele>
        <time>2020-10-12T08:29:06Z</time>
      </trkpt>
      <trkpt lat="38.4508620" lon="-0.6357600">
        <ele>370.6</ele>
        <time>2020-10-12T08:29:07Z</time>
      </trkpt>
      <trkpt lat="38.4508970" lon="-0.6357620">
        <ele>370.8</ele>
        <time>2020-10-12T08:29:08Z</time>
      </trkpt>
      <trkpt lat="38.4509320" lon="-0.6357650">
        <ele>371.0</ele>
        <time>2020-10-12T08:29:09Z</time>
      </trkpt>
      <trkpt lat="38.4509670" lon="-0.6357690">
        <ele>371.0</ele>
        <time>2020-10-12T08:29:10Z</time>
      </trkpt>
      <trkpt lat="38.4510040" lon="-0.6357750">
        <ele>371.2</ele>
        <time>2020-10-12T08:29:11Z</time>
      </trkpt>
      <trkpt lat="38.4510380" lon="-0.6357820">
        <ele>371.2</ele>
        <time>2020-10-12T08:29:12Z</time>
      </trkpt>
      <trkpt lat="38.4510740" lon="-0.6357880">
        <ele>371.4</ele>
        <time>2020-10-12T08:29:13Z</time>
      </trkpt>
      <trkpt lat="38.4511110" lon="-0.6357940">
        <ele>371.4</ele>
        <time>2020-10-12T08:29:14Z</time>
      </trkpt>
      <trkpt lat="38.4511480" lon="-0.6357990">
        <ele>371.6</ele>
        <time>2020-10-12T08:29:15Z</time>
      </trkpt>
      <trkpt lat="38.4511810" lon="-0.6358040">
        <ele>371.6</ele>
        <time>2020-10-12T08:29:16Z</time>
      </trkpt>
      <trkpt lat="38.4512160" lon="-0.6358130">
        <ele>371.8</ele>
        <time>2020-10-12T08:29:17Z</time>
      </trkpt>
      <trkpt lat="38.4512470" lon="-0.6358250">
        <ele>372.0</ele>
        <time>2020-10-12T08:29:18Z</time>
      </trkpt>
      <trkpt lat="38.4512750" lon="-0.6358390">
        <ele>372.2</ele>
        <time>2020-10-12T08:29:19Z</time>
      </trkpt>
      <trkpt lat="38.4513070" lon="-0.6358560">
        <ele>372.4</ele>
        <time>2020-10-12T08:29:20Z</time>
      </trkpt>
      <trkpt lat="38.4513350" lon="-0.6358760">
        <ele>372.6</ele>
        <time>2020-10-12T08:29:21Z</time>
      </trkpt>
      <trkpt lat="38.4513610" lon="-0.6359010">
        <ele>373.0</ele>
        <time>2020-10-12T08:29:22Z</time>
      </trkpt>
      <trkpt lat="38.4513910" lon="-0.6359270">
        <ele>373.4</ele>
        <time>2020-10-12T08:29:23Z</time>
      </trkpt>
      <trkpt lat="38.4514180" lon="-0.6359570">
        <ele>374.0</ele>
        <time>2020-10-12T08:29:24Z</time>
      </trkpt>
      <trkpt lat="38.4514460" lon="-0.6359880">
        <ele>374.4</ele>
        <time>2020-10-12T08:29:25Z</time>
      </trkpt>
      <trkpt lat="38.4514740" lon="-0.6360200">
        <ele>375.0</ele>
        <time>2020-10-12T08:29:26Z</time>
      </trkpt>
      <trkpt lat="38.4514870" lon="-0.6360500">
        <ele>375.4</ele>
        <time>2020-10-12T08:29:27Z</time>
      </trkpt>
      <trkpt lat="38.4515050" lon="-0.6360850">
        <ele>375.6</ele>
        <time>2020-10-12T08:29:28Z</time>
      </trkpt>
      <trkpt lat="38.4515200" lon="-0.6361200">
        <ele>375.6</ele>
        <time>2020-10-12T08:29:29Z</time>
      </trkpt>
      <trkpt lat="38.4515370" lon="-0.6361580">
        <ele>375.8</ele>
        <time>2020-10-12T08:29:30Z</time>
      </trkpt>
      <trkpt lat="38.4515520" lon="-0.6361960">
        <ele>376.0</ele>
        <time>2020-10-12T08:29:31Z</time>
      </trkpt>
      <trkpt lat="38.4515670" lon="-0.6362290">
        <ele>376.2</ele>
        <time>2020-10-12T08:29:32Z</time>
      </trkpt>
      <trkpt lat="38.4515820" lon="-0.6362630">
        <ele>376.4</ele>
        <time>2020-10-12T08:29:33Z</time>
      </trkpt>
      <trkpt lat="38.4516000" lon="-0.6362960">
        <ele>376.8</ele>
        <time>2020-10-12T08:29:34Z</time>
      </trkpt>
      <trkpt lat="38.4516180" lon="-0.6363280">
        <ele>377.2</ele>
        <time>2020-10-12T08:29:35Z</time>
      </trkpt>
      <trkpt lat="38.4516370" lon="-0.6363560">
        <ele>377.6</ele>
        <time>2020-10-12T08:29:36Z</time>
      </trkpt>
      <trkpt lat="38.4516580" lon="-0.6363890">
        <ele>377.8</ele>
        <time>2020-10-12T08:29:37Z</time>
      </trkpt>
      <trkpt lat="38.4516820" lon="-0.6364200">
        <ele>378.2</ele>
        <time>2020-10-12T08:29:38Z</time>
      </trkpt>
      <trkpt lat="38.4517050" lon="-0.6364510">
        <ele>378.4</ele>
        <time>2020-10-12T08:29:39Z</time>
      </trkpt>
      <trkpt lat="38.4517300" lon="-0.6364830">
        <ele>378.8</ele>
        <time>2020-10-12T08:29:40Z</time>
      </trkpt>
      <trkpt lat="38.4517560" lon="-0.6365090">
        <ele>379.0</ele>
        <time>2020-10-12T08:29:41Z</time>
      </trkpt>
      <trkpt lat="38.4517820" lon="-0.6365310">
        <ele>379.4</ele>
        <time>2020-10-12T08:29:42Z</time>
      </trkpt>
      <trkpt lat="38.4518060" lon="-0.6365550">
        <ele>379.6</ele>
        <time>2020-10-12T08:29:43Z</time>
      </trkpt>
      <trkpt lat="38.4518340" lon="-0.6365780">
        <ele>379.8</ele>
        <time>2020-10-12T08:29:44Z</time>
      </trkpt>
      <trkpt lat="38.4518620" lon="-0.6366020">
        <ele>380.0</ele>
        <time>2020-10-12T08:29:45Z</time>
      </trkpt>
      <trkpt lat="38.4518940" lon="-0.6366250">
        <ele>380.0</ele>
        <time>2020-10-12T08:29:46Z</time>
      </trkpt>
      <trkpt lat="38.4519270" lon="-0.6366430">
        <ele>380.4</ele>
        <time>2020-10-12T08:29:47Z</time>
      </trkpt>
      <trkpt lat="38.4519610" lon="-0.6366610">
        <ele>380.6</ele>
        <time>2020-10-12T08:29:48Z</time>
      </trkpt>
      <trkpt lat="38.4519970" lon="-0.6366750">
        <ele>380.8</ele>
        <time>2020-10-12T08:29:49Z</time>
      </trkpt>
      <trkpt lat="38.4520340" lon="-0.6366870">
        <ele>381.0</ele>
        <time>2020-10-12T08:29:50Z</time>
      </trkpt>
      <trkpt lat="38.4520720" lon="-0.6366940">
        <ele>381.0</ele>
        <time>2020-10-12T08:29:51Z</time>
      </trkpt>
      <trkpt lat="38.4521120" lon="-0.6366990">
        <ele>381.0</ele>
        <time>2020-10-12T08:29:52Z</time>
      </trkpt>
      <trkpt lat="38.4521540" lon="-0.6366940">
        <ele>381.0</ele>
        <time>2020-10-12T08:29:53Z</time>
      </trkpt>
      <trkpt lat="38.4521980" lon="-0.6366820">
        <ele>381.0</ele>
        <time>2020-10-12T08:29:54Z</time>
      </trkpt>
      <trkpt lat="38.4522470" lon="-0.6366610">
        <ele>380.6</ele>
        <time>2020-10-12T08:29:55Z</time>
      </trkpt>
      <trkpt lat="38.4522960" lon="-0.6366310">
        <ele>380.2</ele>
        <time>2020-10-12T08:29:56Z</time>
      </trkpt>
      <trkpt lat="38.4523440" lon="-0.6365970">
        <ele>379.6</ele>
        <time>2020-10-12T08:29:57Z</time>
      </trkpt>
      <trkpt lat="38.4523920" lon="-0.6365610">
        <ele>379.2</ele>
        <time>2020-10-12T08:29:58Z</time>
      </trkpt>
      <trkpt lat="38.4524380" lon="-0.6365270">
        <ele>379.0</ele>
        <time>2020-10-12T08:29:59Z</time>
      </trkpt>
      <trkpt lat="38.4524880" lon="-0.6364940">
        <ele>379.0</ele>
        <time>2020-10-12T08:30:00Z</time>
      </trkpt>
      <trkpt lat="38.4525410" lon="-0.6364670">
        <ele>379.0</ele>
        <time>2020-10-12T08:30:01Z</time>
      </trkpt>
      <trkpt lat="38.4525960" lon="-0.6364460">
        <ele>379.0</ele>
        <time>2020-10-12T08:30:02Z</time>
      </trkpt>
      <trkpt lat="38.4526470" lon="-0.6364310">
        <ele>379.0</ele>
        <time>2020-10-12T08:30:03Z</time>
      </trkpt>
      <trkpt lat="38.4527000" lon="-0.6364200">
        <ele>379.0</ele>
        <time>2020-10-12T08:30:04Z</time>
      </trkpt>
      <trkpt lat="38.4527540" lon="-0.6364120">
        <ele>379.0</ele>
        <time>2020-10-12T08:30:05Z</time>
      </trkpt>
      <trkpt lat="38.4528110" lon="-0.6364080">
        <ele>379.0</ele>
        <time>2020-10-12T08:30:06Z</time>
      </trkpt>
      <trkpt lat="38.4528690" lon="-0.6364080">
        <ele>379.0</ele>
        <time>2020-10-12T08:30:07Z</time>
      </trkpt>
      <trkpt lat="38.4529280" lon="-0.6364120">
        <ele>378.8</ele>
        <time>2020-10-12T08:30:08Z</time>
      </trkpt>
      <trkpt lat="38.4529880" lon="-0.6364160">
        <ele>378.6</ele>
        <time>2020-10-12T08:30:09Z</time>
      </trkpt>
      <trkpt lat="38.4530450" lon="-0.6364190">
        <ele>378.4</ele>
        <time>2020-10-12T08:30:10Z</time>
      </trkpt>
      <trkpt lat="38.4531010" lon="-0.6364240">
        <ele>378.4</ele>
        <time>2020-10-12T08:30:11Z</time>
      </trkpt>
      <trkpt lat="38.4531560" lon="-0.6364290">
        <ele>378.2</ele>
        <time>2020-10-12T08:30:12Z</time>
      </trkpt>
      <trkpt lat="38.4532080" lon="-0.6364310">
        <ele>378.0</ele>
        <time>2020-10-12T08:30:13Z</time>
      </trkpt>
      <trkpt lat="38.4532640" lon="-0.6364310">
        <ele>378.2</ele>
        <time>2020-10-12T08:30:14Z</time>
      </trkpt>
      <trkpt lat="38.4533220" lon="-0.6364320">
        <ele>378.4</ele>
        <time>2020-10-12T08:30:15Z</time>
      </trkpt>
      <trkpt lat="38.4533770" lon="-0.6364310">
        <ele>378.4</ele>
        <time>2020-10-12T08:30:16Z</time>
      </trkpt>
      <trkpt lat="38.4534320" lon="-0.6364260">
        <ele>378.4</ele>
        <time>2020-10-12T08:30:17Z</time>
      </trkpt>
      <trkpt lat="38.4534850" lon="-0.6364200">
        <ele>378.4</ele>
        <time>2020-10-12T08:30:18Z</time>
      </trkpt>
      <trkpt lat="38.4535390" lon="-0.6364060">
        <ele>378.4</ele>
        <time>2020-10-12T08:30:19Z</time>
      </trkpt>
      <trkpt lat="38.4535910" lon="-0.6363920">
        <ele>378.2</ele>
        <time>2020-10-12T08:30:20Z</time>
      </trkpt>
      <trkpt lat="38.4536400" lon="-0.6363740">
        <ele>378.0</ele>
        <time>2020-10-12T08:30:21Z</time>
      </trkpt>
      <trkpt lat="38.4536900" lon="-0.6363610">
        <ele>377.8</ele>
        <time>2020-10-12T08:30:22Z</time>
      </trkpt>
      <trkpt lat="38.4537370" lon="-0.6363480">
        <ele>377.6</ele>
        <time>2020-10-12T08:30:23Z</time>
      </trkpt>
      <trkpt lat="38.4537860" lon="-0.6363330">
        <ele>377.6</ele>
        <time>2020-10-12T08:30:24Z</time>
      </trkpt>
      <trkpt lat="38.4538350" lon="-0.6363150">
        <ele>377.8</ele>
        <time>2020-10-12T08:30:25Z</time>
      </trkpt>
      <trkpt lat="38.4538840" lon="-0.6362970">
        <ele>378.4</ele>
        <time>2020-10-12T08:30:26Z</time>
      </trkpt>
      <trkpt lat="38.4539350" lon="-0.6362810">
        <ele>378.6</ele>
        <time>2020-10-12T08:30:27Z</time>
      </trkpt>
      <trkpt lat="38.4539850" lon="-0.6362640">
        <ele>378.8</ele>
        <time>2020-10-12T08:30:28Z</time>
      </trkpt>
      <trkpt lat="38.4540350" lon="-0.6362520">
        <ele>378.6</ele>
        <time>2020-10-12T08:30:29Z</time>
      </trkpt>
      <trkpt lat="38.4540860" lon="-0.6362370">
        <ele>378.4</ele>
        <time>2020-10-12T08:30:30Z</time>
      </trkpt>
      <trkpt lat="38.4541370" lon="-0.6362200">
        <ele>378.6</ele>
        <time>2020-10-12T08:30:31Z</time>
      </trkpt>
      <trkpt lat="38.4541900" lon="-0.6362030">
        <ele>378.4</ele>
        <time>2020-10-12T08:30:32Z</time>
      </trkpt>
      <trkpt lat="38.4542430" lon="-0.6361860">
        <ele>378.2</ele>
        <time>2020-10-12T08:30:33Z</time>
      </trkpt>
      <trkpt lat="38.4542970" lon="-0.6361660">
        <ele>378.2</ele>
        <time>2020-10-12T08:30:34Z</time>
      </trkpt>
      <trkpt lat="38.4543500" lon="-0.6361450">
        <ele>378.2</ele>
        <time>2020-10-12T08:30:35Z</time>
      </trkpt>
      <trkpt lat="38.4544010" lon="-0.6361250">
        <ele>378.4</ele>
        <time>2020-10-12T08:30:36Z</time>
      </trkpt>
      <trkpt lat="38.4544520" lon="-0.6361070">
        <ele>378.4</ele>
        <time>2020-10-12T08:30:37Z</time>
      </trkpt>
      <trkpt lat="38.4545000" lon="-0.6360900">
        <ele>378.6</ele>
        <time>2020-10-12T08:30:38Z</time>
      </trkpt>
      <trkpt lat="38.4545450" lon="-0.6360720">
        <ele>378.6</ele>
        <time>2020-10-12T08:30:39Z</time>
      </trkpt>
      <trkpt lat="38.4545900" lon="-0.6360540">
        <ele>378.8</ele>
        <time>2020-10-12T08:30:40Z</time>
      </trkpt>
      <trkpt lat="38.4546360" lon="-0.6360370">
        <ele>379.2</ele>
        <time>2020-10-12T08:30:41Z</time>
      </trkpt>
      <trkpt lat="38.4546840" lon="-0.6360210">
        <ele>379.4</ele>
        <time>2020-10-12T08:30:42Z</time>
      </trkpt>
      <trkpt lat="38.4547310" lon="-0.6360060">
        <ele>379.6</ele>
        <time>2020-10-12T08:30:43Z</time>
      </trkpt>
      <trkpt lat="38.4547820" lon="-0.6359890">
        <ele>380.0</ele>
        <time>2020-10-12T08:30:44Z</time>
      </trkpt>
      <trkpt lat="38.4548300" lon="-0.6359750">
        <ele>380.4</ele>
        <time>2020-10-12T08:30:45Z</time>
      </trkpt>
      <trkpt lat="38.4548760" lon="-0.6359590">
        <ele>380.6</ele>
        <time>2020-10-12T08:30:46Z</time>
      </trkpt>
      <trkpt lat="38.4549220" lon="-0.6359440">
        <ele>381.0</ele>
        <time>2020-10-12T08:30:47Z</time>
      </trkpt>
      <trkpt lat="38.4549650" lon="-0.6359280">
        <ele>381.2</ele>
        <time>2020-10-12T08:30:48Z</time>
      </trkpt>
      <trkpt lat="38.4550070" lon="-0.6359110">
        <ele>381.4</ele>
        <time>2020-10-12T08:30:49Z</time>
      </trkpt>
      <trkpt lat="38.4550510" lon="-0.6358940">
        <ele>381.6</ele>
        <time>2020-10-12T08:30:50Z</time>
      </trkpt>
      <trkpt lat="38.4550950" lon="-0.6358810">
        <ele>381.6</ele>
        <time>2020-10-12T08:30:51Z</time>
      </trkpt>
      <trkpt lat="38.4551390" lon="-0.6358680">
        <ele>381.8</ele>
        <time>2020-10-12T08:30:52Z</time>
      </trkpt>
      <trkpt lat="38.4551840" lon="-0.6358590">
        <ele>381.8</ele>
        <time>2020-10-12T08:30:53Z</time>
      </trkpt>
      <trkpt lat="38.4552270" lon="-0.6358580">
        <ele>381.8</ele>
        <time>2020-10-12T08:30:54Z</time>
      </trkpt>
      <trkpt lat="38.4552710" lon="-0.6358630">
        <ele>381.8</ele>
        <time>2020-10-12T08:30:55Z</time>
      </trkpt>
      <trkpt lat="38.4553160" lon="-0.6358650">
        <ele>381.6</ele>
        <time>2020-10-12T08:30:56Z</time>
      </trkpt>
      <trkpt lat="38.4553610" lon="-0.6358690">
        <ele>381.2</ele>
        <time>2020-10-12T08:30:57Z</time>
      </trkpt>
      <trkpt lat="38.4554040" lon="-0.6358760">
        <ele>380.8</ele>
        <time>2020-10-12T08:30:58Z</time>
      </trkpt>
      <trkpt lat="38.4554430" lon="-0.6358870">
        <ele>380.2</ele>
        <time>2020-10-12T08:30:59Z</time>
      </trkpt>
      <trkpt lat="38.4554830" lon="-0.6359050">
        <ele>380.0</ele>
        <time>2020-10-12T08:31:00Z</time>
      </trkpt>
      <trkpt lat="38.4555230" lon="-0.6359310">
        <ele>379.8</ele>
        <time>2020-10-12T08:31:01Z</time>
      </trkpt>
      <trkpt lat="38.4555590" lon="-0.6359570">
        <ele>379.6</ele>
        <time>2020-10-12T08:31:02Z</time>
      </trkpt>
      <trkpt lat="38.4555940" lon="-0.6359850">
        <ele>379.6</ele>
        <time>2020-10-12T08:31:03Z</time>
      </trkpt>
      <trkpt lat="38.4556290" lon="-0.6360130">
        <ele>379.4</ele>
        <time>2020-10-12T08:31:04Z</time>
      </trkpt>
      <trkpt lat="38.4556620" lon="-0.6360420">
        <ele>379.6</ele>
        <time>2020-10-12T08:31:05Z</time>
      </trkpt>
      <trkpt lat="38.4556970" lon="-0.6360740">
        <ele>380.0</ele>
        <time>2020-10-12T08:31:06Z</time>
      </trkpt>
      <trkpt lat="38.4557320" lon="-0.6361060">
        <ele>380.8</ele>
        <time>2020-10-12T08:31:07Z</time>
      </trkpt>
      <trkpt lat="38.4557760" lon="-0.6361370">
        <ele>381.4</ele>
        <time>2020-10-12T08:31:08Z</time>
      </trkpt>
      <trkpt lat="38.4558120" lon="-0.6361710">
        <ele>381.8</ele>
        <time>2020-10-12T08:31:09Z</time>
      </trkpt>
      <trkpt lat="38.4558480" lon="-0.6362050">
        <ele>382.2</ele>
        <time>2020-10-12T08:31:10Z</time>
      </trkpt>
      <trkpt lat="38.4558810" lon="-0.6362390">
        <ele>382.4</ele>
        <time>2020-10-12T08:31:11Z</time>
      </trkpt>
      <trkpt lat="38.4559160" lon="-0.6362700">
        <ele>382.4</ele>
        <time>2020-10-12T08:31:12Z</time>
      </trkpt>
      <trkpt lat="38.4559510" lon="-0.6363060">
        <ele>382.6</ele>
        <time>2020-10-12T08:31:13Z</time>
      </trkpt>
      <trkpt lat="38.4559840" lon="-0.6363410">
        <ele>382.6</ele>
        <time>2020-10-12T08:31:14Z</time>
      </trkpt>
      <trkpt lat="38.4560190" lon="-0.6363780">
        <ele>382.8</ele>
        <time>2020-10-12T08:31:15Z</time>
      </trkpt>
      <trkpt lat="38.4560530" lon="-0.6364130">
        <ele>383.0</ele>
        <time>2020-10-12T08:31:16Z</time>
      </trkpt>
      <trkpt lat="38.4560880" lon="-0.6364480">
        <ele>383.4</ele>
        <time>2020-10-12T08:31:17Z</time>
      </trkpt>
      <trkpt lat="38.4561220" lon="-0.6364890">
        <ele>383.6</ele>
        <time>2020-10-12T08:31:18Z</time>
      </trkpt>
      <trkpt lat="38.4561590" lon="-0.6365300">
        <ele>383.8</ele>
        <time>2020-10-12T08:31:19Z</time>
      </trkpt>
      <trkpt lat="38.4561960" lon="-0.6365700">
        <ele>384.0</ele>
        <time>2020-10-12T08:31:20Z</time>
      </trkpt>
      <trkpt lat="38.4562350" lon="-0.6366100">
        <ele>384.0</ele>
        <time>2020-10-12T08:31:21Z</time>
      </trkpt>
      <trkpt lat="38.4562680" lon="-0.6366520">
        <ele>384.0</ele>
        <time>2020-10-12T08:31:22Z</time>
      </trkpt>
      <trkpt lat="38.4563030" lon="-0.6366930">
        <ele>384.2</ele>
        <time>2020-10-12T08:31:23Z</time>
      </trkpt>
      <trkpt lat="38.4563360" lon="-0.6367340">
        <ele>384.2</ele>
        <time>2020-10-12T08:31:24Z</time>
      </trkpt>
      <trkpt lat="38.4563730" lon="-0.6367690">
        <ele>384.2</ele>
        <time>2020-10-12T08:31:25Z</time>
      </trkpt>
      <trkpt lat="38.4564090" lon="-0.6368060">
        <ele>384.4</ele>
        <time>2020-10-12T08:31:26Z</time>
      </trkpt>
      <trkpt lat="38.4564410" lon="-0.6368460">
        <ele>384.6</ele>
        <time>2020-10-12T08:31:27Z</time>
      </trkpt>
      <trkpt lat="38.4564770" lon="-0.6368820">
        <ele>385.0</ele>
        <time>2020-10-12T08:31:28Z</time>
      </trkpt>
      <trkpt lat="38.4565140" lon="-0.6369190">
        <ele>385.4</ele>
        <time>2020-10-12T08:31:29Z</time>
      </trkpt>
      <trkpt lat="38.4565470" lon="-0.6369600">
        <ele>385.6</ele>
        <time>2020-10-12T08:31:30Z</time>
      </trkpt>
      <trkpt lat="38.4565820" lon="-0.6369970">
        <ele>385.8</ele>
        <time>2020-10-12T08:31:31Z</time>
      </trkpt>
      <trkpt lat="38.4566180" lon="-0.6370330">
        <ele>385.8</ele>
        <time>2020-10-12T08:31:32Z</time>
      </trkpt>
      <trkpt lat="38.4566520" lon="-0.6370700">
        <ele>386.0</ele>
        <time>2020-10-12T08:31:33Z</time>
      </trkpt>
      <trkpt lat="38.4566840" lon="-0.6371090">
        <ele>386.4</ele>
        <time>2020-10-12T08:31:34Z</time>
      </trkpt>
      <trkpt lat="38.4567160" lon="-0.6371500">
        <ele>386.6</ele>
        <time>2020-10-12T08:31:35Z</time>
      </trkpt>
      <trkpt lat="38.4567460" lon="-0.6371890">
        <ele>386.8</ele>
        <time>2020-10-12T08:31:36Z</time>
      </trkpt>
      <trkpt lat="38.4567740" lon="-0.6372270">
        <ele>386.8</ele>
        <time>2020-10-12T08:31:37Z</time>
      </trkpt>
      <trkpt lat="38.4568000" lon="-0.6372650">
        <ele>387.0</ele>
        <time>2020-10-12T08:31:38Z</time>
      </trkpt>
      <trkpt lat="38.4568310" lon="-0.6373040">
        <ele>387.0</ele>
        <time>2020-10-12T08:31:39Z</time>
      </trkpt>
      <trkpt lat="38.4568630" lon="-0.6373430">
        <ele>387.2</ele>
        <time>2020-10-12T08:31:40Z</time>
      </trkpt>
      <trkpt lat="38.4568960" lon="-0.6373840">
        <ele>387.2</ele>
        <time>2020-10-12T08:31:41Z</time>
      </trkpt>
      <trkpt lat="38.4569270" lon="-0.6374250">
        <ele>387.4</ele>
        <time>2020-10-12T08:31:42Z</time>
      </trkpt>
      <trkpt lat="38.4569560" lon="-0.6374650">
        <ele>387.4</ele>
        <time>2020-10-12T08:31:43Z</time>
      </trkpt>
      <trkpt lat="38.4569850" lon="-0.6375060">
        <ele>387.6</ele>
        <time>2020-10-12T08:31:44Z</time>
      </trkpt>
      <trkpt lat="38.4570110" lon="-0.6375500">
        <ele>387.8</ele>
        <time>2020-10-12T08:31:45Z</time>
      </trkpt>
      <trkpt lat="38.4570400" lon="-0.6375900">
        <ele>387.8</ele>
        <time>2020-10-12T08:31:46Z</time>
      </trkpt>
      <trkpt lat="38.4570720" lon="-0.6376300">
        <ele>388.0</ele>
        <time>2020-10-12T08:31:47Z</time>
      </trkpt>
      <trkpt lat="38.4571060" lon="-0.6376680">
        <ele>388.2</ele>
        <time>2020-10-12T08:31:48Z</time>
      </trkpt>
      <trkpt lat="38.4571410" lon="-0.6377100">
        <ele>388.4</ele>
        <time>2020-10-12T08:31:49Z</time>
      </trkpt>
      <trkpt lat="38.4571740" lon="-0.6377520">
        <ele>388.8</ele>
        <time>2020-10-12T08:31:50Z</time>
      </trkpt>
      <trkpt lat="38.4572070" lon="-0.6377900">
        <ele>389.0</ele>
        <time>2020-10-12T08:31:51Z</time>
      </trkpt>
      <trkpt lat="38.4572390" lon="-0.6378290">
        <ele>389.2</ele>
        <time>2020-10-12T08:31:52Z</time>
      </trkpt>
      <trkpt lat="38.4572750" lon="-0.6378690">
        <ele>389.2</ele>
        <time>2020-10-12T08:31:53Z</time>
      </trkpt>
      <trkpt lat="38.4573110" lon="-0.6379100">
        <ele>389.4</ele>
        <time>2020-10-12T08:31:54Z</time>
      </trkpt>
      <trkpt lat="38.4573480" lon="-0.6379490">
        <ele>389.6</ele>
        <time>2020-10-12T08:31:55Z</time>
      </trkpt>
      <trkpt lat="38.4573860" lon="-0.6379850">
        <ele>389.6</ele>
        <time>2020-10-12T08:31:56Z</time>
      </trkpt>
      <trkpt lat="38.4574200" lon="-0.6380210">
        <ele>389.6</ele>
        <time>2020-10-12T08:31:57Z</time>
      </trkpt>
      <trkpt lat="38.4574540" lon="-0.6380560">
        <ele>389.8</ele>
        <time>2020-10-12T08:31:58Z</time>
      </trkpt>
      <trkpt lat="38.4574900" lon="-0.6380910">
        <ele>389.8</ele>
        <time>2020-10-12T08:31:59Z</time>
      </trkpt>
      <trkpt lat="38.4575280" lon="-0.6381230">
        <ele>390.2</ele>
        <time>2020-10-12T08:32:00Z</time>
      </trkpt>
      <trkpt lat="38.4575700" lon="-0.6381500">
        <ele>390.2</ele>
        <time>2020-10-12T08:32:01Z</time>
      </trkpt>
      <trkpt lat="38.4576170" lon="-0.6381700">
        <ele>390.4</ele>
        <time>2020-10-12T08:32:02Z</time>
      </trkpt>
      <trkpt lat="38.4576670" lon="-0.6381840">
        <ele>390.4</ele>
        <time>2020-10-12T08:32:03Z</time>
      </trkpt>
      <trkpt lat="38.4577160" lon="-0.6381930">
        <ele>390.2</ele>
        <time>2020-10-12T08:32:04Z</time>
      </trkpt>
      <trkpt lat="38.4577700" lon="-0.6381970">
        <ele>390.0</ele>
        <time>2020-10-12T08:32:05Z</time>
      </trkpt>
      <trkpt lat="38.4578210" lon="-0.6382010">
        <ele>390.0</ele>
        <time>2020-10-12T08:32:06Z</time>
      </trkpt>
      <trkpt lat="38.4578720" lon="-0.6382030">
        <ele>389.8</ele>
        <time>2020-10-12T08:32:07Z</time>
      </trkpt>
      <trkpt lat="38.4579250" lon="-0.6382020">
        <ele>389.8</ele>
        <time>2020-10-12T08:32:08Z</time>
      </trkpt>
      <trkpt lat="38.4579770" lon="-0.6382040">
        <ele>389.8</ele>
        <time>2020-10-12T08:32:09Z</time>
      </trkpt>
      <trkpt lat="38.4580260" lon="-0.6382050">
        <ele>389.8</ele>
        <time>2020-10-12T08:32:10Z</time>
      </trkpt>
      <trkpt lat="38.4580770" lon="-0.6382060">
        <ele>390.0</ele>
        <time>2020-10-12T08:32:11Z</time>
      </trkpt>
      <trkpt lat="38.4581260" lon="-0.6382100">
        <ele>390.2</ele>
        <time>2020-10-12T08:32:12Z</time>
      </trkpt>
      <trkpt lat="38.4581720" lon="-0.6382150">
        <ele>390.4</ele>
        <time>2020-10-12T08:32:13Z</time>
      </trkpt>
      <trkpt lat="38.4582200" lon="-0.6382220">
        <ele>390.4</ele>
        <time>2020-10-12T08:32:14Z</time>
      </trkpt>
      <trkpt lat="38.4582700" lon="-0.6382330">
        <ele>390.6</ele>
        <time>2020-10-12T08:32:15Z</time>
      </trkpt>
      <trkpt lat="38.4583180" lon="-0.6382470">
        <ele>390.6</ele>
        <time>2020-10-12T08:32:16Z</time>
      </trkpt>
      <trkpt lat="38.4583680" lon="-0.6382630">
        <ele>390.6</ele>
        <time>2020-10-12T08:32:17Z</time>
      </trkpt>
      <trkpt lat="38.4584160" lon="-0.6382790">
        <ele>390.6</ele>
        <time>2020-10-12T08:32:18Z</time>
      </trkpt>
      <trkpt lat="38.4584630" lon="-0.6382930">
        <ele>390.6</ele>
        <time>2020-10-12T08:32:19Z</time>
      </trkpt>
      <trkpt lat="38.4585100" lon="-0.6383100">
        <ele>390.6</ele>
        <time>2020-10-12T08:32:20Z</time>
      </trkpt>
      <trkpt lat="38.4585530" lon="-0.6383270">
        <ele>390.8</ele>
        <time>2020-10-12T08:32:21Z</time>
      </trkpt>
      <trkpt lat="38.4585980" lon="-0.6383450">
        <ele>391.0</ele>
        <time>2020-10-12T08:32:22Z</time>
      </trkpt>
      <trkpt lat="38.4586480" lon="-0.6383610">
        <ele>391.6</ele>
        <time>2020-10-12T08:32:23Z</time>
      </trkpt>
      <trkpt lat="38.4586970" lon="-0.6383790">
        <ele>392.4</ele>
        <time>2020-10-12T08:32:24Z</time>
      </trkpt>
      <trkpt lat="38.4587450" lon="-0.6383940">
        <ele>393.4</ele>
        <time>2020-10-12T08:32:25Z</time>
      </trkpt>
      <trkpt lat="38.4587860" lon="-0.6384100">
        <ele>394.2</ele>
        <time>2020-10-12T08:32:26Z</time>
      </trkpt>
      <trkpt lat="38.4588250" lon="-0.6384250">
        <ele>394.6</ele>
        <time>2020-10-12T08:32:27Z</time>
      </trkpt>
      <trkpt lat="38.4588620" lon="-0.6384420">
        <ele>395.0</ele>
        <time>2020-10-12T08:32:28Z</time>
      </trkpt>
      <trkpt lat="38.4589010" lon="-0.6384530">
        <ele>395.4</ele>
        <time>2020-10-12T08:32:29Z</time>
      </trkpt>
      <trkpt lat="38.4589370" lon="-0.6384610">
        <ele>395.6</ele>
        <time>2020-10-12T08:32:30Z</time>
      </trkpt>
      <trkpt lat="38.4589720" lon="-0.6384680">
        <ele>396.0</ele>
        <time>2020-10-12T08:32:31Z</time>
      </trkpt>
      <trkpt lat="38.4590080" lon="-0.6384660">
        <ele>396.2</ele>
        <time>2020-10-12T08:32:32Z</time>
      </trkpt>
      <trkpt lat="38.4590440" lon="-0.6384580">
        <ele>396.4</ele>
        <time>2020-10-12T08:32:33Z</time>
      </trkpt>
      <trkpt lat="38.4590810" lon="-0.6384490">
        <ele>396.8</ele>
        <time>2020-10-12T08:32:34Z</time>
      </trkpt>
      <trkpt lat="38.4591170" lon="-0.6384360">
        <ele>397.0</ele>
        <time>2020-10-12T08:32:35Z</time>
      </trkpt>
      <trkpt lat="38.4591540" lon="-0.6384180">
        <ele>397.0</ele>
        <time>2020-10-12T08:32:36Z</time>
      </trkpt>
      <trkpt lat="38.4591870" lon="-0.6383990">
        <ele>397.4</ele>
        <time>2020-10-12T08:32:37Z</time>
      </trkpt>
      <trkpt lat="38.4592200" lon="-0.6383770">
        <ele>397.6</ele>
        <time>2020-10-12T08:32:38Z</time>
      </trkpt>
      <trkpt lat="38.4592510" lon="-0.6383560">
        <ele>398.0</ele>
        <time>2020-10-12T08:32:39Z</time>
      </trkpt>
      <trkpt lat="38.4592850" lon="-0.6383370">
        <ele>398.2</ele>
        <time>2020-10-12T08:32:40Z</time>
      </trkpt>
      <trkpt lat="38.4593160" lon="-0.6383190">
        <ele>398.4</ele>
        <time>2020-10-12T08:32:41Z</time>
      </trkpt>
      <trkpt lat="38.4593470" lon="-0.6383030">
        <ele>398.8</ele>
        <time>2020-10-12T08:32:42Z</time>
      </trkpt>
      <trkpt lat="38.4593790" lon="-0.6382850">
        <ele>399.0</ele>
        <time>2020-10-12T08:32:43Z</time>
      </trkpt>
      <trkpt lat="38.4594140" lon="-0.6382670">
        <ele>399.4</ele>
        <time>2020-10-12T08:32:44Z</time>
      </trkpt>
      <trkpt lat="38.4594500" lon="-0.6382480">
        <ele>399.6</ele>
        <time>2020-10-12T08:32:45Z</time>
      </trkpt>
      <trkpt lat="38.4594880" lon="-0.6382300">
        <ele>399.8</ele>
        <time>2020-10-12T08:32:46Z</time>
      </trkpt>
      <trkpt lat="38.4595240" lon="-0.6382110">
        <ele>400.0</ele>
        <time>2020-10-12T08:32:47Z</time>
      </trkpt>
      <trkpt lat="38.4595590" lon="-0.6381940">
        <ele>400.4</ele>
        <time>2020-10-12T08:32:48Z</time>
      </trkpt>
      <trkpt lat="38.4595910" lon="-0.6381750">
        <ele>400.8</ele>
        <time>2020-10-12T08:32:49Z</time>
      </trkpt>
      <trkpt lat="38.4596220" lon="-0.6381530">
        <ele>401.0</ele>
        <time>2020-10-12T08:32:50Z</time>
      </trkpt>
      <trkpt lat="38.4596550" lon="-0.6381290">
        <ele>401.4</ele>
        <time>2020-10-12T08:32:51Z</time>
      </trkpt>
      <trkpt lat="38.4596880" lon="-0.6381050">
        <ele>401.6</ele>
        <time>2020-10-12T08:32:52Z</time>
      </trkpt>
      <trkpt lat="38.4597190" lon="-0.6380820">
        <ele>401.8</ele>
        <time>2020-10-12T08:32:53Z</time>
      </trkpt>
      <trkpt lat="38.4597500" lon="-0.6380550">
        <ele>402.0</ele>
        <time>2020-10-12T08:32:54Z</time>
      </trkpt>
      <trkpt lat="38.4597830" lon="-0.6380210">
        <ele>402.0</ele>
        <time>2020-10-12T08:32:55Z</time>
      </trkpt>
      <trkpt lat="38.4598140" lon="-0.6379810">
        <ele>402.2</ele>
        <time>2020-10-12T08:32:56Z</time>
      </trkpt>
      <trkpt lat="38.4598380" lon="-0.6379370">
        <ele>402.4</ele>
        <time>2020-10-12T08:32:57Z</time>
      </trkpt>
      <trkpt lat="38.4598630" lon="-0.6378880">
        <ele>402.6</ele>
        <time>2020-10-12T08:32:58Z</time>
      </trkpt>
      <trkpt lat="38.4598890" lon="-0.6378410">
        <ele>402.8</ele>
        <time>2020-10-12T08:32:59Z</time>
      </trkpt>
      <trkpt lat="38.4599090" lon="-0.6377930">
        <ele>403.0</ele>
        <time>2020-10-12T08:33:00Z</time>
      </trkpt>
      <trkpt lat="38.4599250" lon="-0.6377470">
        <ele>403.0</ele>
        <time>2020-10-12T08:33:01Z</time>
      </trkpt>
      <trkpt lat="38.4599360" lon="-0.6377000">
        <ele>403.2</ele>
        <time>2020-10-12T08:33:02Z</time>
      </trkpt>
      <trkpt lat="38.4599410" lon="-0.6376500">
        <ele>403.4</ele>
        <time>2020-10-12T08:33:03Z</time>
      </trkpt>
      <trkpt lat="38.4599470" lon="-0.6376020">
        <ele>403.4</ele>
        <time>2020-10-12T08:33:04Z</time>
      </trkpt>
      <trkpt lat="38.4599510" lon="-0.6375540">
        <ele>403.4</ele>
        <time>2020-10-12T08:33:05Z</time>
      </trkpt>
      <trkpt lat="38.4599560" lon="-0.6375040">
        <ele>403.4</ele>
        <time>2020-10-12T08:33:06Z</time>
      </trkpt>
      <trkpt lat="38.4599600" lon="-0.6374530">
        <ele>403.4</ele>
        <time>2020-10-12T08:33:07Z</time>
      </trkpt>
      <trkpt lat="38.4599660" lon="-0.6374050">
        <ele>403.6</ele>
        <time>2020-10-12T08:33:08Z</time>
      </trkpt>
      <trkpt lat="38.4599720" lon="-0.6373570">
        <ele>403.6</ele>
        <time>2020-10-12T08:33:09Z</time>
      </trkpt>
      <trkpt lat="38.4599780" lon="-0.6373110">
        <ele>403.6</ele>
        <time>2020-10-12T08:33:10Z</time>
      </trkpt>
      <trkpt lat="38.4599840" lon="-0.6372610">
        <ele>403.8</ele>
        <time>2020-10-12T08:33:11Z</time>
      </trkpt>
      <trkpt lat="38.4599930" lon="-0.6372150">
        <ele>404.0</ele>
        <time>2020-10-12T08:33:12Z</time>
      </trkpt>
      <trkpt lat="38.4600020" lon="-0.6371710">
        <ele>404.4</ele>
        <time>2020-10-12T08:33:13Z</time>
      </trkpt>
      <trkpt lat="38.4600120" lon="-0.6371240">
        <ele>404.8</ele>
        <time>2020-10-12T08:33:14Z</time>
      </trkpt>
      <trkpt lat="38.4600200" lon="-0.6370790">
        <ele>405.0</ele>
        <time>2020-10-12T08:33:15Z</time>
      </trkpt>
      <trkpt lat="38.4600290" lon="-0.6370360">
        <ele>405.2</ele>
        <time>2020-10-12T08:33:16Z</time>
      </trkpt>
      <trkpt lat="38.4600380" lon="-0.6369900">
        <ele>405.2</ele>
        <time>2020-10-12T08:33:17Z</time>
      </trkpt>
      <trkpt lat="38.4600480" lon="-0.6369440">
        <ele>405.4</ele>
        <time>2020-10-12T08:33:18Z</time>
      </trkpt>
      <trkpt lat="38.4600530" lon="-0.6368960">
        <ele>405.4</ele>
        <time>2020-10-12T08:33:19Z</time>
      </trkpt>
      <trkpt lat="38.4600580" lon="-0.6368450">
        <ele>405.6</ele>
        <time>2020-10-12T08:33:20Z</time>
      </trkpt>
      <trkpt lat="38.4600630" lon="-0.6367950">
        <ele>405.8</ele>
        <time>2020-10-12T08:33:21Z</time>
      </trkpt>
      <trkpt lat="38.4600720" lon="-0.6367470">
        <ele>406.0</ele>
        <time>2020-10-12T08:33:22Z</time>
      </trkpt>
      <trkpt lat="38.4600810" lon="-0.6366970">
        <ele>406.2</ele>
        <time>2020-10-12T08:33:23Z</time>
      </trkpt>
      <trkpt lat="38.4600890" lon="-0.6366430">
        <ele>406.4</ele>
        <time>2020-10-12T08:33:24Z</time>
      </trkpt>
      <trkpt lat="38.4600980" lon="-0.6365920">
        <ele>406.6</ele>
        <time>2020-10-12T08:33:25Z</time>
      </trkpt>
      <trkpt lat="38.4601100" lon="-0.6365490">
        <ele>406.6</ele>
        <time>2020-10-12T08:33:26Z</time>
      </trkpt>
      <trkpt lat="38.4601210" lon="-0.6365000">
        <ele>406.8</ele>
        <time>2020-10-12T08:33:27Z</time>
      </trkpt>
      <trkpt lat="38.4601330" lon="-0.6364500">
        <ele>407.0</ele>
        <time>2020-10-12T08:33:28Z</time>
      </trkpt>
      <trkpt lat="38.4601480" lon="-0.6364030">
        <ele>407.0</ele>
        <time>2020-10-12T08:33:29Z</time>
      </trkpt>
      <trkpt lat="38.4601670" lon="-0.6363560">
        <ele>407.2</ele>
        <time>2020-10-12T08:33:30Z</time>
      </trkpt>
      <trkpt lat="38.4601860" lon="-0.6363150">
        <ele>407.2</ele>
        <time>2020-10-12T08:33:31Z</time>
      </trkpt>
      <trkpt lat="38.4602070" lon="-0.6362740">
        <ele>407.2</ele>
        <time>2020-10-12T08:33:32Z</time>
      </trkpt>
      <trkpt lat="38.4602290" lon="-0.6362340">
        <ele>407.4</ele>
        <time>2020-10-12T08:33:33Z</time>
      </trkpt>
      <trkpt lat="38.4602530" lon="-0.6361940">
        <ele>407.6</ele>
        <time>2020-10-12T08:33:34Z</time>
      </trkpt>
      <trkpt lat="38.4602810" lon="-0.6361550">
        <ele>407.8</ele>
        <time>2020-10-12T08:33:35Z</time>
      </trkpt>
      <trkpt lat="38.4603090" lon="-0.6361200">
        <ele>408.0</ele>
        <time>2020-10-12T08:33:36Z</time>
      </trkpt>
      <trkpt lat="38.4603390" lon="-0.6360840">
        <ele>408.2</ele>
        <time>2020-10-12T08:33:37Z</time>
      </trkpt>
      <trkpt lat="38.4603720" lon="-0.6360510">
        <ele>408.4</ele>
        <time>2020-10-12T08:33:38Z</time>
      </trkpt>
      <trkpt lat="38.4604030" lon="-0.6360220">
        <ele>408.6</ele>
        <time>2020-10-12T08:33:39Z</time>
      </trkpt>
      <trkpt lat="38.4604380" lon="-0.6359960">
        <ele>408.6</ele>
        <time>2020-10-12T08:33:40Z</time>
      </trkpt>
      <trkpt lat="38.4604710" lon="-0.6359690">
        <ele>408.8</ele>
        <time>2020-10-12T08:33:41Z</time>
      </trkpt>
      <trkpt lat="38.4605060" lon="-0.6359430">
        <ele>409.0</ele>
        <time>2020-10-12T08:33:42Z</time>
      </trkpt>
      <trkpt lat="38.4605380" lon="-0.6359130">
        <ele>409.2</ele>
        <time>2020-10-12T08:33:43Z</time>
      </trkpt>
      <trkpt lat="38.4605730" lon="-0.6358880">
        <ele>409.4</ele>
        <time>2020-10-12T08:33:44Z</time>
      </trkpt>
      <trkpt lat="38.4606070" lon="-0.6358660">
        <ele>409.6</ele>
        <time>2020-10-12T08:33:45Z</time>
      </trkpt>
      <trkpt lat="38.4606440" lon="-0.6358420">
        <ele>410.0</ele>
        <time>2020-10-12T08:33:46Z</time>
      </trkpt>
      <trkpt lat="38.4606840" lon="-0.6358170">
        <ele>410.2</ele>
        <time>2020-10-12T08:33:47Z</time>
      </trkpt>
      <trkpt lat="38.4607230" lon="-0.6357950">
        <ele>410.2</ele>
        <time>2020-10-12T08:33:48Z</time>
      </trkpt>
      <trkpt lat="38.4607630" lon="-0.6357760">
        <ele>410.4</ele>
        <time>2020-10-12T08:33:49Z</time>
      </trkpt>
      <trkpt lat="38.4608020" lon="-0.6357620">
        <ele>410.4</ele>
        <time>2020-10-12T08:33:50Z</time>
      </trkpt>
      <trkpt lat="38.4608410" lon="-0.6357530">
        <ele>410.4</ele>
        <time>2020-10-12T08:33:51Z</time>
      </trkpt>
      <trkpt lat="38.4608780" lon="-0.6357470">
        <ele>410.4</ele>
        <time>2020-10-12T08:33:52Z</time>
      </trkpt>
      <trkpt lat="38.4609180" lon="-0.6357450">
        <ele>410.6</ele>
        <time>2020-10-12T08:33:53Z</time>
      </trkpt>
      <trkpt lat="38.4609570" lon="-0.6357520">
        <ele>410.8</ele>
        <time>2020-10-12T08:33:54Z</time>
      </trkpt>
      <trkpt lat="38.4609950" lon="-0.6357610">
        <ele>411.2</ele>
        <time>2020-10-12T08:33:55Z</time>
      </trkpt>
      <trkpt lat="38.4610340" lon="-0.6357750">
        <ele>411.4</ele>
        <time>2020-10-12T08:33:56Z</time>
      </trkpt>
      <trkpt lat="38.4610680" lon="-0.6357890">
        <ele>411.6</ele>
        <time>2020-10-12T08:33:57Z</time>
      </trkpt>
      <trkpt lat="38.4611050" lon="-0.6358050">
        <ele>411.6</ele>
        <time>2020-10-12T08:33:58Z</time>
      </trkpt>
      <trkpt lat="38.4611420" lon="-0.6358230">
        <ele>411.8</ele>
        <time>2020-10-12T08:33:59Z</time>
      </trkpt>
      <trkpt lat="38.4611770" lon="-0.6358430">
        <ele>412.0</ele>
        <time>2020-10-12T08:34:00Z</time>
      </trkpt>
      <trkpt lat="38.4612160" lon="-0.6358620">
        <ele>412.2</ele>
        <time>2020-10-12T08:34:01Z</time>
      </trkpt>
      <trkpt lat="38.4612490" lon="-0.6358800">
        <ele>412.2</ele>
        <time>2020-10-12T08:34:02Z</time>
      </trkpt>
      <trkpt lat="38.4612820" lon="-0.6358990">
        <ele>412.4</ele>
        <time>2020-10-12T08:34:03Z</time>
      </trkpt>
      <trkpt lat="38.4613140" lon="-0.6359210">
        <ele>412.4</ele>
        <time>2020-10-12T08:34:04Z</time>
      </trkpt>
      <trkpt lat="38.4613500" lon="-0.6359430">
        <ele>412.6</ele>
        <time>2020-10-12T08:34:05Z</time>
      </trkpt>
      <trkpt lat="38.4613880" lon="-0.6359640">
        <ele>412.8</ele>
        <time>2020-10-12T08:34:06Z</time>
      </trkpt>
      <trkpt lat="38.4614220" lon="-0.6359880">
        <ele>412.8</ele>
        <time>2020-10-12T08:34:07Z</time>
      </trkpt>
      <trkpt lat="38.4614550" lon="-0.6360150">
        <ele>413.2</ele>
        <time>2020-10-12T08:34:08Z</time>
      </trkpt>
      <trkpt lat="38.4614880" lon="-0.6360350">
        <ele>413.4</ele>
        <time>2020-10-12T08:34:09Z</time>
      </trkpt>
      <trkpt lat="38.4615200" lon="-0.6360520">
        <ele>413.8</ele>
        <time>2020-10-12T08:34:10Z</time>
      </trkpt>
      <trkpt lat="38.4615520" lon="-0.6360700">
        <ele>414.2</ele>
        <time>2020-10-12T08:34:11Z</time>
      </trkpt>
      <trkpt lat="38.4615840" lon="-0.6360900">
        <ele>414.4</ele>
        <time>2020-10-12T08:34:12Z</time>
      </trkpt>
      <trkpt lat="38.4616220" lon="-0.6361100">
        <ele>414.6</ele>
        <time>2020-10-12T08:34:13Z</time>
      </trkpt>
      <trkpt lat="38.4616550" lon="-0.6361310">
        <ele>414.8</ele>
        <time>2020-10-12T08:34:14Z</time>
      </trkpt>
      <trkpt lat="38.4616840" lon="-0.6361520">
        <ele>415.0</ele>
        <time>2020-10-12T08:34:15Z</time>
      </trkpt>
      <trkpt lat="38.4617140" lon="-0.6361710">
        <ele>415.0</ele>
        <time>2020-10-12T08:34:16Z</time>
      </trkpt>
      <trkpt lat="38.4617460" lon="-0.6361900">
        <ele>415.2</ele>
        <time>2020-10-12T08:34:17Z</time>
      </trkpt>
      <trkpt lat="38.4617790" lon="-0.6362080">
        <ele>415.4</ele>
        <time>2020-10-12T08:34:18Z</time>
      </trkpt>
      <trkpt lat="38.4618130" lon="-0.6362260">
        <ele>415.8</ele>
        <time>2020-10-12T08:34:19Z</time>
      </trkpt>
      <trkpt lat="38.4618450" lon="-0.6362440">
        <ele>416.2</ele>
        <time>2020-10-12T08:34:20Z</time>
      </trkpt>
      <trkpt lat="38.4618810" lon="-0.6362610">
        <ele>416.4</ele>
        <time>2020-10-12T08:34:21Z</time>
      </trkpt>
      <trkpt lat="38.4619130" lon="-0.6362790">
        <ele>416.8</ele>
        <time>2020-10-12T08:34:22Z</time>
      </trkpt>
      <trkpt lat="38.4619450" lon="-0.6362980">
        <ele>417.0</ele>
        <time>2020-10-12T08:34:23Z</time>
      </trkpt>
      <trkpt lat="38.4619800" lon="-0.6363140">
        <ele>417.2</ele>
        <time>2020-10-12T08:34:24Z</time>
      </trkpt>
      <trkpt lat="38.4620140" lon="-0.6363330">
        <ele>417.6</ele>
        <time>2020-10-12T08:34:25Z</time>
      </trkpt>
      <trkpt lat="38.4620450" lon="-0.6363550">
        <ele>417.8</ele>
        <time>2020-10-12T08:34:26Z</time>
      </trkpt>
      <trkpt lat="38.4620810" lon="-0.6363760">
        <ele>418.2</ele>
        <time>2020-10-12T08:34:27Z</time>
      </trkpt>
      <trkpt lat="38.4621200" lon="-0.6363990">
        <ele>418.6</ele>
        <time>2020-10-12T08:34:28Z</time>
      </trkpt>
      <trkpt lat="38.4621520" lon="-0.6364220">
        <ele>418.8</ele>
        <time>2020-10-12T08:34:29Z</time>
      </trkpt>
      <trkpt lat="38.4621870" lon="-0.6364460">
        <ele>419.0</ele>
        <time>2020-10-12T08:34:30Z</time>
      </trkpt>
      <trkpt lat="38.4622180" lon="-0.6364730">
        <ele>419.2</ele>
        <time>2020-10-12T08:34:31Z</time>
      </trkpt>
      <trkpt lat="38.4622490" lon="-0.6365000">
        <ele>419.4</ele>
        <time>2020-10-12T08:34:32Z</time>
      </trkpt>
      <trkpt lat="38.4622800" lon="-0.6365290">
        <ele>419.6</ele>
        <time>2020-10-12T08:34:33Z</time>
      </trkpt>
      <trkpt lat="38.4623090" lon="-0.6365570">
        <ele>419.8</ele>
        <time>2020-10-12T08:34:34Z</time>
      </trkpt>
      <trkpt lat="38.4623390" lon="-0.6365870">
        <ele>420.0</ele>
        <time>2020-10-12T08:34:35Z</time>
      </trkpt>
      <trkpt lat="38.4623690" lon="-0.6366180">
        <ele>420.0</ele>
        <time>2020-10-12T08:34:36Z</time>
      </trkpt>
      <trkpt lat="38.4624010" lon="-0.6366520">
        <ele>420.2</ele>
        <time>2020-10-12T08:34:37Z</time>
      </trkpt>
      <trkpt lat="38.4624320" lon="-0.6366850">
        <ele>420.4</ele>
        <time>2020-10-12T08:34:38Z</time>
      </trkpt>
      <trkpt lat="38.4624630" lon="-0.6367180">
        <ele>420.6</ele>
        <time>2020-10-12T08:34:39Z</time>
      </trkpt>
      <trkpt lat="38.4624930" lon="-0.6367520">
        <ele>420.8</ele>
        <time>2020-10-12T08:34:40Z</time>
      </trkpt>
      <trkpt lat="38.4625240" lon="-0.6367840">
        <ele>420.8</ele>
        <time>2020-10-12T08:34:41Z</time>
      </trkpt>
      <trkpt lat="38.4625540" lon="-0.6368160">
        <ele>421.0</ele>
        <time>2020-10-12T08:34:42Z</time>
      </trkpt>
      <trkpt lat="38.4625850" lon="-0.6368450">
        <ele>421.2</ele>
        <time>2020-10-12T08:34:43Z</time>
      </trkpt>
      <trkpt lat="38.4626170" lon="-0.6368770">
        <ele>421.4</ele>
        <time>2020-10-12T08:34:44Z</time>
      </trkpt>
      <trkpt lat="38.4626480" lon="-0.6369070">
        <ele>421.6</ele>
        <time>2020-10-12T08:34:45Z</time>
      </trkpt>
      <trkpt lat="38.4626780" lon="-0.6369390">
        <ele>421.8</ele>
        <time>2020-10-12T08:34:46Z</time>
      </trkpt>
      <trkpt lat="38.4627070" lon="-0.6369680">
        <ele>422.2</ele>
        <time>2020-10-12T08:34:47Z</time>
      </trkpt>
      <trkpt lat="38.4627360" lon="-0.6369970">
        <ele>422.4</ele>
        <time>2020-10-12T08:34:48Z</time>
      </trkpt>
      <trkpt lat="38.4627670" lon="-0.6370250">
        <ele>423.0</ele>
        <time>2020-10-12T08:34:49Z</time>
      </trkpt>
      <trkpt lat="38.4627950" lon="-0.6370550">
        <ele>423.2</ele>
        <time>2020-10-12T08:34:50Z</time>
      </trkpt>
      <trkpt lat="38.4628240" lon="-0.6370840">
        <ele>423.6</ele>
        <time>2020-10-12T08:34:51Z</time>
      </trkpt>
      <trkpt lat="38.4628520" lon="-0.6371150">
        <ele>423.8</ele>
        <time>2020-10-12T08:34:52Z</time>
      </trkpt>
      <trkpt lat="38.4628800" lon="-0.6371520">
        <ele>424.0</ele>
        <time>2020-10-12T08:34:53Z</time>
      </trkpt>
      <trkpt lat="38.4629060" lon="-0.6371870">
        <ele>424.4</ele>
        <time>2020-10-12T08:34:54Z</time>
      </trkpt>
      <trkpt lat="38.4629350" lon="-0.6372200">
        <ele>425.0</ele>
        <time>2020-10-12T08:34:55Z</time>
      </trkpt>
      <trkpt lat="38.4629660" lon="-0.6372540">
        <ele>425.4</ele>
        <time>2020-10-12T08:34:56Z</time>
      </trkpt>
      <trkpt lat="38.4629960" lon="-0.6372840">
        <ele>426.0</ele>
        <time>2020-10-12T08:34:57Z</time>
      </trkpt>
      <trkpt lat="38.4630250" lon="-0.6373110">
        <ele>426.4</ele>
        <time>2020-10-12T08:34:58Z</time>
      </trkpt>
      <trkpt lat="38.4630540" lon="-0.6373400">
        <ele>426.6</ele>
        <time>2020-10-12T08:34:59Z</time>
      </trkpt>
      <trkpt lat="38.4630820" lon="-0.6373700">
        <ele>426.6</ele>
        <time>2020-10-12T08:35:00Z</time>
      </trkpt>
      <trkpt lat="38.4631120" lon="-0.6373990">
        <ele>426.6</ele>
        <time>2020-10-12T08:35:01Z</time>
      </trkpt>
      <trkpt lat="38.4631430" lon="-0.6374280">
        <ele>426.6</ele>
        <time>2020-10-12T08:35:02Z</time>
      </trkpt>
      <trkpt lat="38.4631780" lon="-0.6374570">
        <ele>426.8</ele>
        <time>2020-10-12T08:35:03Z</time>
      </trkpt>
      <trkpt lat="38.4632100" lon="-0.6374850">
        <ele>427.0</ele>
        <time>2020-10-12T08:35:04Z</time>
      </trkpt>
      <trkpt lat="38.4632390" lon="-0.6375140">
        <ele>427.2</ele>
        <time>2020-10-12T08:35:05Z</time>
      </trkpt>
      <trkpt lat="38.4632690" lon="-0.6375420">
        <ele>427.6</ele>
        <time>2020-10-12T08:35:06Z</time>
      </trkpt>
      <trkpt lat="38.4633010" lon="-0.6375710">
        <ele>427.8</ele>
        <time>2020-10-12T08:35:07Z</time>
      </trkpt>
      <trkpt lat="38.4633300" lon="-0.6376020">
        <ele>428.0</ele>
        <time>2020-10-12T08:35:08Z</time>
      </trkpt>
      <trkpt lat="38.4633600" lon="-0.6376330">
        <ele>428.2</ele>
        <time>2020-10-12T08:35:09Z</time>
      </trkpt>
      <trkpt lat="38.4633890" lon="-0.6376640">
        <ele>428.4</ele>
        <time>2020-10-12T08:35:10Z</time>
      </trkpt>
      <trkpt lat="38.4634140" lon="-0.6376940">
        <ele>428.4</ele>
        <time>2020-10-12T08:35:11Z</time>
      </trkpt>
      <trkpt lat="38.4634420" lon="-0.6377210">
        <ele>428.6</ele>
        <time>2020-10-12T08:35:12Z</time>
      </trkpt>
      <trkpt lat="38.4634700" lon="-0.6377490">
        <ele>428.8</ele>
        <time>2020-10-12T08:35:13Z</time>
      </trkpt>
      <trkpt lat="38.4634970" lon="-0.6377750">
        <ele>429.0</ele>
        <time>2020-10-12T08:35:14Z</time>
      </trkpt>
      <trkpt lat="38.4635260" lon="-0.6378050">
        <ele>429.2</ele>
        <time>2020-10-12T08:35:15Z</time>
      </trkpt>
      <trkpt lat="38.4635570" lon="-0.6378350">
        <ele>429.4</ele>
        <time>2020-10-12T08:35:16Z</time>
      </trkpt>
      <trkpt lat="38.4635860" lon="-0.6378630">
        <ele>429.6</ele>
        <time>2020-10-12T08:35:17Z</time>
      </trkpt>
      <trkpt lat="38.4636160" lon="-0.6378930">
        <ele>430.0</ele>
        <time>2020-10-12T08:35:18Z</time>
      </trkpt>
      <trkpt lat="38.4636450" lon="-0.6379230">
        <ele>430.2</ele>
        <time>2020-10-12T08:35:19Z</time>
      </trkpt>
      <trkpt lat="38.4636750" lon="-0.6379540">
        <ele>430.2</ele>
        <time>2020-10-12T08:35:20Z</time>
      </trkpt>
      <trkpt lat="38.4637040" lon="-0.6379850">
        <ele>430.4</ele>
        <time>2020-10-12T08:35:21Z</time>
      </trkpt>
      <trkpt lat="38.4637350" lon="-0.6380160">
        <ele>430.4</ele>
        <time>2020-10-12T08:35:22Z</time>
      </trkpt>
      <trkpt lat="38.4637660" lon="-0.6380440">
        <ele>430.6</ele>
        <time>2020-10-12T08:35:23Z</time>
      </trkpt>
      <trkpt lat="38.4637940" lon="-0.6380740">
        <ele>430.8</ele>
        <time>2020-10-12T08:35:24Z</time>
      </trkpt>
      <trkpt lat="38.4638220" lon="-0.6381030">
        <ele>431.2</ele>
        <time>2020-10-12T08:35:25Z</time>
      </trkpt>
      <trkpt lat="38.4638520" lon="-0.6381320">
        <ele>431.4</ele>
        <time>2020-10-12T08:35:26Z</time>
      </trkpt>
      <trkpt lat="38.4638810" lon="-0.6381580">
        <ele>431.8</ele>
        <time>2020-10-12T08:35:27Z</time>
      </trkpt>
      <trkpt lat="38.4639130" lon="-0.6381840">
        <ele>432.0</ele>
        <time>2020-10-12T08:35:28Z</time>
      </trkpt>
      <trkpt lat="38.4639410" lon="-0.6382090">
        <ele>432.2</ele>
        <time>2020-10-12T08:35:29Z</time>
      </trkpt>
      <trkpt lat="38.4639750" lon="-0.6382340">
        <ele>432.4</ele>
        <time>2020-10-12T08:35:30Z</time>
      </trkpt>
      <trkpt lat="38.4640100" lon="-0.6382610">
        <ele>432.6</ele>
        <time>2020-10-12T08:35:31Z</time>
      </trkpt>
      <trkpt lat="38.4640480" lon="-0.6382850">
        <ele>432.6</ele>
        <time>2020-10-12T08:35:32Z</time>
      </trkpt>
      <trkpt lat="38.4640840" lon="-0.6383070">
        <ele>432.6</ele>
        <time>2020-10-12T08:35:33Z</time>
      </trkpt>
      <trkpt lat="38.4641150" lon="-0.6383320">
        <ele>432.8</ele>
        <time>2020-10-12T08:35:34Z</time>
      </trkpt>
      <trkpt lat="38.4641470" lon="-0.6383580">
        <ele>433.0</ele>
        <time>2020-10-12T08:35:35Z</time>
      </trkpt>
      <trkpt lat="38.4641810" lon="-0.6383830">
        <ele>433.4</ele>
        <time>2020-10-12T08:35:36Z</time>
      </trkpt>
      <trkpt lat="38.4642130" lon="-0.6384120">
        <ele>433.6</ele>
        <time>2020-10-12T08:35:37Z</time>
      </trkpt>
      <trkpt lat="38.4642460" lon="-0.6384420">
        <ele>434.0</ele>
        <time>2020-10-12T08:35:38Z</time>
      </trkpt>
      <trkpt lat="38.4642790" lon="-0.6384710">
        <ele>434.2</ele>
        <time>2020-10-12T08:35:39Z</time>
      </trkpt>
      <trkpt lat="38.4643110" lon="-0.6385000">
        <ele>434.6</ele>
        <time>2020-10-12T08:35:40Z</time>
      </trkpt>
      <trkpt lat="38.4643430" lon="-0.6385300">
        <ele>434.8</ele>
        <time>2020-10-12T08:35:41Z</time>
      </trkpt>
      <trkpt lat="38.4643710" lon="-0.6385630">
        <ele>435.0</ele>
        <time>2020-10-12T08:35:42Z</time>
      </trkpt>
      <trkpt lat="38.4643980" lon="-0.6386000">
        <ele>435.2</ele>
        <time>2020-10-12T08:35:43Z</time>
      </trkpt>
      <trkpt lat="38.4644220" lon="-0.6386380">
        <ele>435.2</ele>
        <time>2020-10-12T08:35:44Z</time>
      </trkpt>
      <trkpt lat="38.4644450" lon="-0.6386800">
        <ele>435.4</ele>
        <time>2020-10-12T08:35:45Z</time>
      </trkpt>
      <trkpt lat="38.4644680" lon="-0.6387230">
        <ele>435.8</ele>
        <time>2020-10-12T08:35:46Z</time>
      </trkpt>
      <trkpt lat="38.4644920" lon="-0.6387670">
        <ele>436.2</ele>
        <time>2020-10-12T08:35:47Z</time>
      </trkpt>
      <trkpt lat="38.4645150" lon="-0.6388100">
        <ele>436.4</ele>
        <time>2020-10-12T08:35:48Z</time>
      </trkpt>
      <trkpt lat="38.4645390" lon="-0.6388540">
        <ele>436.4</ele>
        <time>2020-10-12T08:35:49Z</time>
      </trkpt>
      <trkpt lat="38.4645580" lon="-0.6389030">
        <ele>436.6</ele>
        <time>2020-10-12T08:35:50Z</time>
      </trkpt>
      <trkpt lat="38.4645800" lon="-0.6389520">
        <ele>436.6</ele>
        <time>2020-10-12T08:35:51Z</time>
      </trkpt>
      <trkpt lat="38.4646030" lon="-0.6390020">
        <ele>436.8</ele>
        <time>2020-10-12T08:35:52Z</time>
      </trkpt>
      <trkpt lat="38.4646300" lon="-0.6390510">
        <ele>436.8</ele>
        <time>2020-10-12T08:35:53Z</time>
      </trkpt>
      <trkpt lat="38.4646600" lon="-0.6390970">
        <ele>437.0</ele>
        <time>2020-10-12T08:35:54Z</time>
      </trkpt>
      <trkpt lat="38.4646890" lon="-0.6391450">
        <ele>437.0</ele>
        <time>2020-10-12T08:35:55Z</time>
      </trkpt>
      <trkpt lat="38.4647190" lon="-0.6391890">
        <ele>437.2</ele>
        <time>2020-10-12T08:35:56Z</time>
      </trkpt>
      <trkpt lat="38.4647480" lon="-0.6392310">
        <ele>437.4</ele>
        <time>2020-10-12T08:35:57Z</time>
      </trkpt>
      <trkpt lat="38.4647780" lon="-0.6392740">
        <ele>437.6</ele>
        <time>2020-10-12T08:35:58Z</time>
      </trkpt>
      <trkpt lat="38.4648090" lon="-0.6393170">
        <ele>437.8</ele>
        <time>2020-10-12T08:35:59Z</time>
      </trkpt>
      <trkpt lat="38.4648410" lon="-0.6393600">
        <ele>437.8</ele>
        <time>2020-10-12T08:36:00Z</time>
      </trkpt>
      <trkpt lat="38.4648720" lon="-0.6393990">
        <ele>438.0</ele>
        <time>2020-10-12T08:36:01Z</time>
      </trkpt>
      <trkpt lat="38.4649050" lon="-0.6394360">
        <ele>437.8</ele>
        <time>2020-10-12T08:36:02Z</time>
      </trkpt>
      <trkpt lat="38.4649370" lon="-0.6394750">
        <ele>437.8</ele>
        <time>2020-10-12T08:36:03Z</time>
      </trkpt>
      <trkpt lat="38.4649700" lon="-0.6395150">
        <ele>437.4</ele>
        <time>2020-10-12T08:36:04Z</time>
      </trkpt>
      <trkpt lat="38.4650050" lon="-0.6395550">
        <ele>437.0</ele>
        <time>2020-10-12T08:36:05Z</time>
      </trkpt>
      <trkpt lat="38.4650390" lon="-0.6396000">
        <ele>436.8</ele>
        <time>2020-10-12T08:36:06Z</time>
      </trkpt>
      <trkpt lat="38.4650730" lon="-0.6396380">
        <ele>436.8</ele>
        <time>2020-10-12T08:36:07Z</time>
      </trkpt>
      <trkpt lat="38.4651070" lon="-0.6396760">
        <ele>436.8</ele>
        <time>2020-10-12T08:36:08Z</time>
      </trkpt>
      <trkpt lat="38.4651430" lon="-0.6397130">
        <ele>436.8</ele>
        <time>2020-10-12T08:36:09Z</time>
      </trkpt>
      <trkpt lat="38.4651800" lon="-0.6397430">
        <ele>436.8</ele>
        <time>2020-10-12T08:36:10Z</time>
      </trkpt>
      <trkpt lat="38.4652160" lon="-0.6397680">
        <ele>436.8</ele>
        <time>2020-10-12T08:36:11Z</time>
      </trkpt>
      <trkpt lat="38.4652570" lon="-0.6397880">
        <ele>437.0</ele>
        <time>2020-10-12T08:36:12Z</time>
      </trkpt>
      <trkpt lat="38.4652960" lon="-0.6398050">
        <ele>437.2</ele>
        <time>2020-10-12T08:36:13Z</time>
      </trkpt>
      <trkpt lat="38.4653380" lon="-0.6398220">
        <ele>437.4</ele>
        <time>2020-10-12T08:36:14Z</time>
      </trkpt>
      <trkpt lat="38.4653790" lon="-0.6398370">
        <ele>437.4</ele>
        <time>2020-10-12T08:36:15Z</time>
      </trkpt>
      <trkpt lat="38.4654280" lon="-0.6398480">
        <ele>437.6</ele>
        <time>2020-10-12T08:36:16Z</time>
      </trkpt>
      <trkpt lat="38.4654750" lon="-0.6398580">
        <ele>437.8</ele>
        <time>2020-10-12T08:36:17Z</time>
      </trkpt>
      <trkpt lat="38.4655230" lon="-0.6398680">
        <ele>438.2</ele>
        <time>2020-10-12T08:36:18Z</time>
      </trkpt>
      <trkpt lat="38.4655710" lon="-0.6398790">
        <ele>438.6</ele>
        <time>2020-10-12T08:36:19Z</time>
      </trkpt>
      <trkpt lat="38.4656130" lon="-0.6398920">
        <ele>439.0</ele>
        <time>2020-10-12T08:36:20Z</time>
      </trkpt>
      <trkpt lat="38.4656580" lon="-0.6399100">
        <ele>439.6</ele>
        <time>2020-10-12T08:36:21Z</time>
      </trkpt>
      <trkpt lat="38.4656980" lon="-0.6399330">
        <ele>440.0</ele>
        <time>2020-10-12T08:36:22Z</time>
      </trkpt>
      <trkpt lat="38.4657330" lon="-0.6399560">
        <ele>440.2</ele>
        <time>2020-10-12T08:36:23Z</time>
      </trkpt>
      <trkpt lat="38.4657670" lon="-0.6399810">
        <ele>440.4</ele>
        <time>2020-10-12T08:36:24Z</time>
      </trkpt>
      <trkpt lat="38.4658000" lon="-0.6400100">
        <ele>440.4</ele>
        <time>2020-10-12T08:36:25Z</time>
      </trkpt>
      <trkpt lat="38.4658340" lon="-0.6400410">
        <ele>440.6</ele>
        <time>2020-10-12T08:36:26Z</time>
      </trkpt>
      <trkpt lat="38.4658690" lon="-0.6400780">
        <ele>440.6</ele>
        <time>2020-10-12T08:36:27Z</time>
      </trkpt>
      <trkpt lat="38.4658990" lon="-0.6401150">
        <ele>440.8</ele>
        <time>2020-10-12T08:36:28Z</time>
      </trkpt>
      <trkpt lat="38.4659280" lon="-0.6401530">
        <ele>440.8</ele>
        <time>2020-10-12T08:36:29Z</time>
      </trkpt>
      <trkpt lat="38.4659550" lon="-0.6401920">
        <ele>441.0</ele>
        <time>2020-10-12T08:36:30Z</time>
      </trkpt>
      <trkpt lat="38.4659780" lon="-0.6402340">
        <ele>441.2</ele>
        <time>2020-10-12T08:36:31Z</time>
      </trkpt>
      <trkpt lat="38.4660020" lon="-0.6402780">
        <ele>441.4</ele>
        <time>2020-10-12T08:36:32Z</time>
      </trkpt>
      <trkpt lat="38.4660230" lon="-0.6403240">
        <ele>441.6</ele>
        <time>2020-10-12T08:36:33Z</time>
      </trkpt>
      <trkpt lat="38.4660460" lon="-0.6403670">
        <ele>442.0</ele>
        <time>2020-10-12T08:36:34Z</time>
      </trkpt>
      <trkpt lat="38.4660670" lon="-0.6404140">
        <ele>442.2</ele>
        <time>2020-10-12T08:36:35Z</time>
      </trkpt>
      <trkpt lat="38.4660880" lon="-0.6404630">
        <ele>442.6</ele>
        <time>2020-10-12T08:36:36Z</time>
      </trkpt>
      <trkpt lat="38.4661070" lon="-0.6405100">
        <ele>442.8</ele>
        <time>2020-10-12T08:36:37Z</time>
      </trkpt>
      <trkpt lat="38.4661270" lon="-0.6405570">
        <ele>443.0</ele>
        <time>2020-10-12T08:36:38Z</time>
      </trkpt>
      <trkpt lat="38.4661430" lon="-0.6406030">
        <ele>443.4</ele>
        <time>2020-10-12T08:36:39Z</time>
      </trkpt>
      <trkpt lat="38.4661630" lon="-0.6406500">
        <ele>443.6</ele>
        <time>2020-10-12T08:36:40Z</time>
      </trkpt>
      <trkpt lat="38.4661850" lon="-0.6406980">
        <ele>443.8</ele>
        <time>2020-10-12T08:36:41Z</time>
      </trkpt>
      <trkpt lat="38.4662030" lon="-0.6407440">
        <ele>444.0</ele>
        <time>2020-10-12T08:36:42Z</time>
      </trkpt>
      <trkpt lat="38.4662220" lon="-0.6407900">
        <ele>444.2</ele>
        <time>2020-10-12T08:36:43Z</time>
      </trkpt>
      <trkpt lat="38.4662430" lon="-0.6408380">
        <ele>444.2</ele>
        <time>2020-10-12T08:36:44Z</time>
      </trkpt>
      <trkpt lat="38.4662630" lon="-0.6408890">
        <ele>444.4</ele>
        <time>2020-10-12T08:36:45Z</time>
      </trkpt>
      <trkpt lat="38.4662830" lon="-0.6409350">
        <ele>444.6</ele>
        <time>2020-10-12T08:36:46Z</time>
      </trkpt>
      <trkpt lat="38.4663040" lon="-0.6409810">
        <ele>444.6</ele>
        <time>2020-10-12T08:36:47Z</time>
      </trkpt>
      <trkpt lat="38.4663250" lon="-0.6410280">
        <ele>444.8</ele>
        <time>2020-10-12T08:36:48Z</time>
      </trkpt>
      <trkpt lat="38.4663460" lon="-0.6410730">
        <ele>445.0</ele>
        <time>2020-10-12T08:36:49Z</time>
      </trkpt>
      <trkpt lat="38.4663670" lon="-0.6411190">
        <ele>445.2</ele>
        <time>2020-10-12T08:36:50Z</time>
      </trkpt>
      <trkpt lat="38.4663880" lon="-0.6411680">
        <ele>445.6</ele>
        <time>2020-10-12T08:36:51Z</time>
      </trkpt>
      <trkpt lat="38.4664080" lon="-0.6412210">
        <ele>445.8</ele>
        <time>2020-10-12T08:36:52Z</time>
      </trkpt>
      <trkpt lat="38.4664290" lon="-0.6412690">
        <ele>446.0</ele>
        <time>2020-10-12T08:36:53Z</time>
      </trkpt>
      <trkpt lat="38.4664510" lon="-0.6413160">
        <ele>446.0</ele>
        <time>2020-10-12T08:36:54Z</time>
      </trkpt>
      <trkpt lat="38.4664720" lon="-0.6413640">
        <ele>446.4</ele>
        <time>2020-10-12T08:36:55Z</time>
      </trkpt>
      <trkpt lat="38.4664930" lon="-0.6414120">
        <ele>446.6</ele>
        <time>2020-10-12T08:36:56Z</time>
      </trkpt>
      <trkpt lat="38.4665150" lon="-0.6414610">
        <ele>446.8</ele>
        <time>2020-10-12T08:36:57Z</time>
      </trkpt>
      <trkpt lat="38.4665400" lon="-0.6415080">
        <ele>447.2</ele>
        <time>2020-10-12T08:36:58Z</time>
      </trkpt>
      <trkpt lat="38.4665650" lon="-0.6415560">
        <ele>447.2</ele>
        <time>2020-10-12T08:36:59Z</time>
      </trkpt>
      <trkpt lat="38.4665920" lon="-0.6416020">
        <ele>447.2</ele>
        <time>2020-10-12T08:37:00Z</time>
      </trkpt>
      <trkpt lat="38.4666200" lon="-0.6416470">
        <ele>447.2</ele>
        <time>2020-10-12T08:37:01Z</time>
      </trkpt>
      <trkpt lat="38.4666500" lon="-0.6416880">
        <ele>447.2</ele>
        <time>2020-10-12T08:37:02Z</time>
      </trkpt>
      <trkpt lat="38.4666850" lon="-0.6417240">
        <ele>447.4</ele>
        <time>2020-10-12T08:37:03Z</time>
      </trkpt>
      <trkpt lat="38.4667170" lon="-0.6417590">
        <ele>447.4</ele>
        <time>2020-10-12T08:37:04Z</time>
      </trkpt>
      <trkpt lat="38.4667520" lon="-0.6417860">
        <ele>447.4</ele>
        <time>2020-10-12T08:37:05Z</time>
      </trkpt>
      <trkpt lat="38.4667900" lon="-0.6418110">
        <ele>447.4</ele>
        <time>2020-10-12T08:37:06Z</time>
      </trkpt>
      <trkpt lat="38.4668280" lon="-0.6418340">
        <ele>447.6</ele>
        <time>2020-10-12T08:37:07Z</time>
      </trkpt>
      <trkpt lat="38.4668700" lon="-0.6418530">
        <ele>447.8</ele>
        <time>2020-10-12T08:37:08Z</time>
      </trkpt>
      <trkpt lat="38.4669100" lon="-0.6418710">
        <ele>447.8</ele>
        <time>2020-10-12T08:37:09Z</time>
      </trkpt>
      <trkpt lat="38.4669510" lon="-0.6418840">
        <ele>448.0</ele>
        <time>2020-10-12T08:37:10Z</time>
      </trkpt>
      <trkpt lat="38.4669910" lon="-0.6418980">
        <ele>448.2</ele>
        <time>2020-10-12T08:37:11Z</time>
      </trkpt>
      <trkpt lat="38.4670330" lon="-0.6419160">
        <ele>448.4</ele>
        <time>2020-10-12T08:37:12Z</time>
      </trkpt>
      <trkpt lat="38.4670770" lon="-0.6419360">
        <ele>448.4</ele>
        <time>2020-10-12T08:37:13Z</time>
      </trkpt>
      <trkpt lat="38.4671220" lon="-0.6419570">
        <ele>448.6</ele>
        <time>2020-10-12T08:37:14Z</time>
      </trkpt>
      <trkpt lat="38.4671650" lon="-0.6419790">
        <ele>448.6</ele>
        <time>2020-10-12T08:37:15Z</time>
      </trkpt>
      <trkpt lat="38.4672060" lon="-0.6419980">
        <ele>448.8</ele>
        <time>2020-10-12T08:37:16Z</time>
      </trkpt>
      <trkpt lat="38.4672490" lon="-0.6420160">
        <ele>449.0</ele>
        <time>2020-10-12T08:37:17Z</time>
      </trkpt>
      <trkpt lat="38.4672900" lon="-0.6420300">
        <ele>449.0</ele>
        <time>2020-10-12T08:37:18Z</time>
      </trkpt>
      <trkpt lat="38.4673360" lon="-0.6420470">
        <ele>449.2</ele>
        <time>2020-10-12T08:37:19Z</time>
      </trkpt>
      <trkpt lat="38.4673790" lon="-0.6420630">
        <ele>449.2</ele>
        <time>2020-10-12T08:37:20Z</time>
      </trkpt>
      <trkpt lat="38.4674160" lon="-0.6420800">
        <ele>449.2</ele>
        <time>2020-10-12T08:37:21Z</time>
      </trkpt>
      <trkpt lat="38.4674640" lon="-0.6420970">
        <ele>449.2</ele>
        <time>2020-10-12T08:37:22Z</time>
      </trkpt>
      <trkpt lat="38.4675110" lon="-0.6421130">
        <ele>449.4</ele>
        <time>2020-10-12T08:37:23Z</time>
      </trkpt>
      <trkpt lat="38.4675650" lon="-0.6421300">
        <ele>449.4</ele>
        <time>2020-10-12T08:37:24Z</time>
      </trkpt>
      <trkpt lat="38.4676140" lon="-0.6421450">
        <ele>449.4</ele>
        <time>2020-10-12T08:37:25Z</time>
      </trkpt>
      <trkpt lat="38.4676600" lon="-0.6421580">
        <ele>449.6</ele>
        <time>2020-10-12T08:37:26Z</time>
      </trkpt>
      <trkpt lat="38.4677110" lon="-0.6421690">
        <ele>449.8</ele>
        <time>2020-10-12T08:37:27Z</time>
      </trkpt>
      <trkpt lat="38.4677600" lon="-0.6421810">
        <ele>450.2</ele>
        <time>2020-10-12T08:37:28Z</time>
      </trkpt>
      <trkpt lat="38.4678000" lon="-0.6421940">
        <ele>450.8</ele>
        <time>2020-10-12T08:37:29Z</time>
      </trkpt>
      <trkpt lat="38.4678370" lon="-0.6422090">
        <ele>451.4</ele>
        <time>2020-10-12T08:37:30Z</time>
      </trkpt>
      <trkpt lat="38.4678730" lon="-0.6422300">
        <ele>452.4</ele>
        <time>2020-10-12T08:37:31Z</time>
      </trkpt>
      <trkpt lat="38.4679050" lon="-0.6422470">
        <ele>453.0</ele>
        <time>2020-10-12T08:37:32Z</time>
      </trkpt>
      <trkpt lat="38.4679380" lon="-0.6422600">
        <ele>453.6</ele>
        <time>2020-10-12T08:37:33Z</time>
      </trkpt>
      <trkpt lat="38.4679760" lon="-0.6422730">
        <ele>453.8</ele>
        <time>2020-10-12T08:37:34Z</time>
      </trkpt>
      <trkpt lat="38.4680100" lon="-0.6422860">
        <ele>454.0</ele>
        <time>2020-10-12T08:37:35Z</time>
      </trkpt>
      <trkpt lat="38.4680470" lon="-0.6423010">
        <ele>454.2</ele>
        <time>2020-10-12T08:37:36Z</time>
      </trkpt>
      <trkpt lat="38.4680880" lon="-0.6423160">
        <ele>454.4</ele>
        <time>2020-10-12T08:37:37Z</time>
      </trkpt>
      <trkpt lat="38.4681250" lon="-0.6423280">
        <ele>454.6</ele>
        <time>2020-10-12T08:37:38Z</time>
      </trkpt>
      <trkpt lat="38.4681620" lon="-0.6423450">
        <ele>454.8</ele>
        <time>2020-10-12T08:37:39Z</time>
      </trkpt>
      <trkpt lat="38.4682030" lon="-0.6423620">
        <ele>455.0</ele>
        <time>2020-10-12T08:37:40Z</time>
      </trkpt>
      <trkpt lat="38.4682430" lon="-0.6423750">
        <ele>455.2</ele>
        <time>2020-10-12T08:37:41Z</time>
      </trkpt>
      <trkpt lat="38.4682840" lon="-0.6423860">
        <ele>455.4</ele>
        <time>2020-10-12T08:37:42Z</time>
      </trkpt>
      <trkpt lat="38.4683280" lon="-0.6423990">
        <ele>455.6</ele>
        <time>2020-10-12T08:37:43Z</time>
      </trkpt>
      <trkpt lat="38.4683680" lon="-0.6424120">
        <ele>455.8</ele>
        <time>2020-10-12T08:37:44Z</time>
      </trkpt>
      <trkpt lat="38.4684130" lon="-0.6424270">
        <ele>456.2</ele>
        <time>2020-10-12T08:37:45Z</time>
      </trkpt>
      <trkpt lat="38.4684520" lon="-0.6424400">
        <ele>456.4</ele>
        <time>2020-10-12T08:37:46Z</time>
      </trkpt>
      <trkpt lat="38.4684860" lon="-0.6424510">
        <ele>456.6</ele>
        <time>2020-10-12T08:37:47Z</time>
      </trkpt>
      <trkpt lat="38.4685230" lon="-0.6424620">
        <ele>456.8</ele>
        <time>2020-10-12T08:37:48Z</time>
      </trkpt>
      <trkpt lat="38.4685650" lon="-0.6424670">
        <ele>457.0</ele>
        <time>2020-10-12T08:37:49Z</time>
      </trkpt>
      <trkpt lat="38.4686010" lon="-0.6424710">
        <ele>457.2</ele>
        <time>2020-10-12T08:37:50Z</time>
      </trkpt>
      <trkpt lat="38.4686390" lon="-0.6424700">
        <ele>457.2</ele>
        <time>2020-10-12T08:37:51Z</time>
      </trkpt>
      <trkpt lat="38.4686780" lon="-0.6424650">
        <ele>457.4</ele>
        <time>2020-10-12T08:37:52Z</time>
      </trkpt>
      <trkpt lat="38.4687150" lon="-0.6424590">
        <ele>457.4</ele>
        <time>2020-10-12T08:37:53Z</time>
      </trkpt>
      <trkpt lat="38.4687510" lon="-0.6424490">
        <ele>457.6</ele>
        <time>2020-10-12T08:37:54Z</time>
      </trkpt>
      <trkpt lat="38.4687950" lon="-0.6424400">
        <ele>457.8</ele>
        <time>2020-10-12T08:37:55Z</time>
      </trkpt>
      <trkpt lat="38.4688320" lon="-0.6424290">
        <ele>458.2</ele>
        <time>2020-10-12T08:37:56Z</time>
      </trkpt>
      <trkpt lat="38.4688720" lon="-0.6424160">
        <ele>458.6</ele>
        <time>2020-10-12T08:37:57Z</time>
      </trkpt>
      <trkpt lat="38.4689110" lon="-0.6424050">
        <ele>458.8</ele>
        <time>2020-10-12T08:37:58Z</time>
      </trkpt>
      <trkpt lat="38.4689460" lon="-0.6423900">
        <ele>459.0</ele>
        <time>2020-10-12T08:37:59Z</time>
      </trkpt>
      <trkpt lat="38.4689830" lon="-0.6423740">
        <ele>459.4</ele>
        <time>2020-10-12T08:38:00Z</time>
      </trkpt>
      <trkpt lat="38.4690210" lon="-0.6423590">
        <ele>459.8</ele>
        <time>2020-10-12T08:38:01Z</time>
      </trkpt>
      <trkpt lat="38.4690530" lon="-0.6423420">
        <ele>460.2</ele>
        <time>2020-10-12T08:38:02Z</time>
      </trkpt>
      <trkpt lat="38.4690830" lon="-0.6423220">
        <ele>460.6</ele>
        <time>2020-10-12T08:38:03Z</time>
      </trkpt>
      <trkpt lat="38.4691140" lon="-0.6423000">
        <ele>460.8</ele>
        <time>2020-10-12T08:38:04Z</time>
      </trkpt>
      <trkpt lat="38.4691450" lon="-0.6422780">
        <ele>461.0</ele>
        <time>2020-10-12T08:38:05Z</time>
      </trkpt>
      <trkpt lat="38.4691780" lon="-0.6422600">
        <ele>461.2</ele>
        <time>2020-10-12T08:38:06Z</time>
      </trkpt>
      <trkpt lat="38.4692150" lon="-0.6422440">
        <ele>461.4</ele>
        <time>2020-10-12T08:38:07Z</time>
      </trkpt>
      <trkpt lat="38.4692490" lon="-0.6422280">
        <ele>461.8</ele>
        <time>2020-10-12T08:38:08Z</time>
      </trkpt>
      <trkpt lat="38.4692830" lon="-0.6422080">
        <ele>462.0</ele>
        <time>2020-10-12T08:38:09Z</time>
      </trkpt>
      <trkpt lat="38.4693100" lon="-0.6421840">
        <ele>462.4</ele>
        <time>2020-10-12T08:38:10Z</time>
      </trkpt>
      <trkpt lat="38.4693420" lon="-0.6421650">
        <ele>462.6</ele>
        <time>2020-10-12T08:38:11Z</time>
      </trkpt>
      <trkpt lat="38.4693750" lon="-0.6421470">
        <ele>462.8</ele>
        <time>2020-10-12T08:38:12Z</time>
      </trkpt>
      <trkpt lat="38.4694120" lon="-0.6421290">
        <ele>462.8</ele>
        <time>2020-10-12T08:38:13Z</time>
      </trkpt>
      <trkpt lat="38.4694480" lon="-0.6421110">
        <ele>462.8</ele>
        <time>2020-10-12T08:38:14Z</time>
      </trkpt>
      <trkpt lat="38.4694820" lon="-0.6420930">
        <ele>462.6</ele>
        <time>2020-10-12T08:38:15Z</time>
      </trkpt>
      <trkpt lat="38.4695170" lon="-0.6420760">
        <ele>462.6</ele>
        <time>2020-10-12T08:38:16Z</time>
      </trkpt>
      <trkpt lat="38.4695530" lon="-0.6420640">
        <ele>462.6</ele>
        <time>2020-10-12T08:38:17Z</time>
      </trkpt>
      <trkpt lat="38.4695840" lon="-0.6420550">
        <ele>462.6</ele>
        <time>2020-10-12T08:38:18Z</time>
      </trkpt>
      <trkpt lat="38.4696170" lon="-0.6420470">
        <ele>462.6</ele>
        <time>2020-10-12T08:38:19Z</time>
      </trkpt>
      <trkpt lat="38.4696510" lon="-0.6420410">
        <ele>462.8</ele>
        <time>2020-10-12T08:38:20Z</time>
      </trkpt>
      <trkpt lat="38.4696800" lon="-0.6420360">
        <ele>463.0</ele>
        <time>2020-10-12T08:38:21Z</time>
      </trkpt>
      <trkpt lat="38.4697120" lon="-0.6420360">
        <ele>463.2</ele>
        <time>2020-10-12T08:38:22Z</time>
      </trkpt>
      <trkpt lat="38.4697490" lon="-0.6420370">
        <ele>463.4</ele>
        <time>2020-10-12T08:38:23Z</time>
      </trkpt>
      <trkpt lat="38.4697860" lon="-0.6420400">
        <ele>463.6</ele>
        <time>2020-10-12T08:38:24Z</time>
      </trkpt>
      <trkpt lat="38.4698260" lon="-0.6420460">
        <ele>463.8</ele>
        <time>2020-10-12T08:38:25Z</time>
      </trkpt>
      <trkpt lat="38.4698610" lon="-0.6420510">
        <ele>464.2</ele>
        <time>2020-10-12T08:38:26Z</time>
      </trkpt>
      <trkpt lat="38.4699060" lon="-0.6420570">
        <ele>464.4</ele>
        <time>2020-10-12T08:38:27Z</time>
      </trkpt>
      <trkpt lat="38.4699450" lon="-0.6420680">
        <ele>464.6</ele>
        <time>2020-10-12T08:38:28Z</time>
      </trkpt>
      <trkpt lat="38.4699850" lon="-0.6420810">
        <ele>464.8</ele>
        <time>2020-10-12T08:38:29Z</time>
      </trkpt>
      <trkpt lat="38.4700230" lon="-0.6420940">
        <ele>465.0</ele>
        <time>2020-10-12T08:38:30Z</time>
      </trkpt>
      <trkpt lat="38.4700610" lon="-0.6421090">
        <ele>465.2</ele>
        <time>2020-10-12T08:38:31Z</time>
      </trkpt>
      <trkpt lat="38.4700920" lon="-0.6421180">
        <ele>465.4</ele>
        <time>2020-10-12T08:38:32Z</time>
      </trkpt>
      <trkpt lat="38.4701240" lon="-0.6421260">
        <ele>465.8</ele>
        <time>2020-10-12T08:38:33Z</time>
      </trkpt>
      <trkpt lat="38.4701540" lon="-0.6421340">
        <ele>466.0</ele>
        <time>2020-10-12T08:38:34Z</time>
      </trkpt>
      <trkpt lat="38.4701780" lon="-0.6421410">
        <ele>466.2</ele>
        <time>2020-10-12T08:38:35Z</time>
      </trkpt>
      <trkpt lat="38.4702010" lon="-0.6421520">
        <ele>466.4</ele>
        <time>2020-10-12T08:38:36Z</time>
      </trkpt>
      <trkpt lat="38.4702310" lon="-0.6421700">
        <ele>466.8</ele>
        <time>2020-10-12T08:38:37Z</time>
      </trkpt>
      <trkpt lat="38.4702600" lon="-0.6421900">
        <ele>467.0</ele>
        <time>2020-10-12T08:38:38Z</time>
      </trkpt>
      <trkpt lat="38.4702860" lon="-0.6422090">
        <ele>467.2</ele>
        <time>2020-10-12T08:38:39Z</time>
      </trkpt>
      <trkpt lat="38.4703150" lon="-0.6422220">
        <ele>467.4</ele>
        <time>2020-10-12T08:38:40Z</time>
      </trkpt>
      <trkpt lat="38.4703450" lon="-0.6422350">
        <ele>467.6</ele>
        <time>2020-10-12T08:38:41Z</time>
      </trkpt>
      <trkpt lat="38.4703810" lon="-0.6422520">
        <ele>467.8</ele>
        <time>2020-10-12T08:38:42Z</time>
      </trkpt>
      <trkpt lat="38.4704130" lon="-0.6422720">
        <ele>467.8</ele>
        <time>2020-10-12T08:38:43Z</time>
      </trkpt>
      <trkpt lat="38.4704410" lon="-0.6422930">
        <ele>468.0</ele>
        <time>2020-10-12T08:38:44Z</time>
      </trkpt>
      <trkpt lat="38.4704710" lon="-0.6423220">
        <ele>468.2</ele>
        <time>2020-10-12T08:38:45Z</time>
      </trkpt>
      <trkpt lat="38.4704980" lon="-0.6423510">
        <ele>468.4</ele>
        <time>2020-10-12T08:38:46Z</time>
      </trkpt>
      <trkpt lat="38.4705280" lon="-0.6423740">
        <ele>468.6</ele>
        <time>2020-10-12T08:38:47Z</time>
      </trkpt>
      <trkpt lat="38.4705540" lon="-0.6423970">
        <ele>468.8</ele>
        <time>2020-10-12T08:38:48Z</time>
      </trkpt>
      <trkpt lat="38.4705870" lon="-0.6424090">
        <ele>468.8</ele>
        <time>2020-10-12T08:38:49Z</time>
      </trkpt>
      <trkpt lat="38.4706350" lon="-0.6424070">
        <ele>468.8</ele>
        <time>2020-10-12T08:38:50Z</time>
      </trkpt>
      <trkpt lat="38.4706770" lon="-0.6423920">
        <ele>468.8</ele>
        <time>2020-10-12T08:38:51Z</time>
      </trkpt>
      <trkpt lat="38.4707150" lon="-0.6423650">
        <ele>468.6</ele>
        <time>2020-10-12T08:38:52Z</time>
      </trkpt>
      <trkpt lat="38.4707470" lon="-0.6423260">
        <ele>468.6</ele>
        <time>2020-10-12T08:38:53Z</time>
      </trkpt>
      <trkpt lat="38.4707760" lon="-0.6422810">
        <ele>468.6</ele>
        <time>2020-10-12T08:38:54Z</time>
      </trkpt>
      <trkpt lat="38.4708060" lon="-0.6422320">
        <ele>468.6</ele>
        <time>2020-10-12T08:38:55Z</time>
      </trkpt>
      <trkpt lat="38.4708400" lon="-0.6421790">
        <ele>468.6</ele>
        <time>2020-10-12T08:38:56Z</time>
      </trkpt>
      <trkpt lat="38.4708990" lon="-0.6421260">
        <ele>468.6</ele>
        <time>2020-10-12T08:38:57Z</time>
      </trkpt>
      <trkpt lat="38.4709290" lon="-0.6420620">
        <ele>468.6</ele>
        <time>2020-10-12T08:38:58Z</time>
      </trkpt>
      <trkpt lat="38.4709610" lon="-0.6419980">
        <ele>468.8</ele>
        <time>2020-10-12T08:38:59Z</time>
      </trkpt>
      <trkpt lat="38.4709840" lon="-0.6419340">
        <ele>468.8</ele>
        <time>2020-10-12T08:39:00Z</time>
      </trkpt>
      <trkpt lat="38.4710070" lon="-0.6418730">
        <ele>469.0</ele>
        <time>2020-10-12T08:39:01Z</time>
      </trkpt>
      <trkpt lat="38.4710300" lon="-0.6418140">
        <ele>469.2</ele>
        <time>2020-10-12T08:39:02Z</time>
      </trkpt>
      <trkpt lat="38.4710490" lon="-0.6417560">
        <ele>469.4</ele>
        <time>2020-10-12T08:39:03Z</time>
      </trkpt>
      <trkpt lat="38.4710680" lon="-0.6417030">
        <ele>469.4</ele>
        <time>2020-10-12T08:39:04Z</time>
      </trkpt>
      <trkpt lat="38.4710830" lon="-0.6416520">
        <ele>469.6</ele>
        <time>2020-10-12T08:39:05Z</time>
      </trkpt>
      <trkpt lat="38.4710960" lon="-0.6416000">
        <ele>469.6</ele>
        <time>2020-10-12T08:39:06Z</time>
      </trkpt>
      <trkpt lat="38.4711100" lon="-0.6415510">
        <ele>469.8</ele>
        <time>2020-10-12T08:39:07Z</time>
      </trkpt>
      <trkpt lat="38.4711280" lon="-0.6415040">
        <ele>469.8</ele>
        <time>2020-10-12T08:39:08Z</time>
      </trkpt>
      <trkpt lat="38.4711470" lon="-0.6414580">
        <ele>470.2</ele>
        <time>2020-10-12T08:39:09Z</time>
      </trkpt>
      <trkpt lat="38.4711640" lon="-0.6414110">
        <ele>470.4</ele>
        <time>2020-10-12T08:39:10Z</time>
      </trkpt>
      <trkpt lat="38.4711770" lon="-0.6413640">
        <ele>470.6</ele>
        <time>2020-10-12T08:39:11Z</time>
      </trkpt>
      <trkpt lat="38.4711880" lon="-0.6413110">
        <ele>470.8</ele>
        <time>2020-10-12T08:39:12Z</time>
      </trkpt>
      <trkpt lat="38.4711990" lon="-0.6412540">
        <ele>471.2</ele>
        <time>2020-10-12T08:39:13Z</time>
      </trkpt>
      <trkpt lat="38.4712110" lon="-0.6411990">
        <ele>471.6</ele>
        <time>2020-10-12T08:39:14Z</time>
      </trkpt>
      <trkpt lat="38.4712250" lon="-0.6411470">
        <ele>472.0</ele>
        <time>2020-10-12T08:39:15Z</time>
      </trkpt>
      <trkpt lat="38.4712400" lon="-0.6410940">
        <ele>472.0</ele>
        <time>2020-10-12T08:39:16Z</time>
      </trkpt>
      <trkpt lat="38.4712590" lon="-0.6410410">
        <ele>472.2</ele>
        <time>2020-10-12T08:39:17Z</time>
      </trkpt>
      <trkpt lat="38.4712770" lon="-0.6409880">
        <ele>472.4</ele>
        <time>2020-10-12T08:39:18Z</time>
      </trkpt>
      <trkpt lat="38.4712920" lon="-0.6409340">
        <ele>472.4</ele>
        <time>2020-10-12T08:39:19Z</time>
      </trkpt>
      <trkpt lat="38.4713090" lon="-0.6408800">
        <ele>472.4</ele>
        <time>2020-10-12T08:39:20Z</time>
      </trkpt>
      <trkpt lat="38.4713250" lon="-0.6408270">
        <ele>472.4</ele>
        <time>2020-10-12T08:39:21Z</time>
      </trkpt>
      <trkpt lat="38.4713430" lon="-0.6407750">
        <ele>472.4</ele>
        <time>2020-10-12T08:39:22Z</time>
      </trkpt>
      <trkpt lat="38.4713610" lon="-0.6407240">
        <ele>472.6</ele>
        <time>2020-10-12T08:39:23Z</time>
      </trkpt>
      <trkpt lat="38.4713810" lon="-0.6406750">
        <ele>472.8</ele>
        <time>2020-10-12T08:39:24Z</time>
      </trkpt>
      <trkpt lat="38.4714050" lon="-0.6406310">
        <ele>473.0</ele>
        <time>2020-10-12T08:39:25Z</time>
      </trkpt>
      <trkpt lat="38.4714310" lon="-0.6405890">
        <ele>473.2</ele>
        <time>2020-10-12T08:39:26Z</time>
      </trkpt>
      <trkpt lat="38.4714580" lon="-0.6405520">
        <ele>473.4</ele>
        <time>2020-10-12T08:39:27Z</time>
      </trkpt>
      <trkpt lat="38.4714900" lon="-0.6405180">
        <ele>473.6</ele>
        <time>2020-10-12T08:39:28Z</time>
      </trkpt>
      <trkpt lat="38.4715250" lon="-0.6404910">
        <ele>474.0</ele>
        <time>2020-10-12T08:39:29Z</time>
      </trkpt>
      <trkpt lat="38.4715610" lon="-0.6404690">
        <ele>474.4</ele>
        <time>2020-10-12T08:39:30Z</time>
      </trkpt>
      <trkpt lat="38.4715990" lon="-0.6404480">
        <ele>474.6</ele>
        <time>2020-10-12T08:39:31Z</time>
      </trkpt>
      <trkpt lat="38.4716370" lon="-0.6404320">
        <ele>475.0</ele>
        <time>2020-10-12T08:39:32Z</time>
      </trkpt>
      <trkpt lat="38.4716760" lon="-0.6404210">
        <ele>475.4</ele>
        <time>2020-10-12T08:39:33Z</time>
      </trkpt>
      <trkpt lat="38.4717150" lon="-0.6404160">
        <ele>475.8</ele>
        <time>2020-10-12T08:39:34Z</time>
      </trkpt>
      <trkpt lat="38.4717540" lon="-0.6404160">
        <ele>476.2</ele>
        <time>2020-10-12T08:39:35Z</time>
      </trkpt>
      <trkpt lat="38.4717940" lon="-0.6404180">
        <ele>476.4</ele>
        <time>2020-10-12T08:39:36Z</time>
      </trkpt>
      <trkpt lat="38.4718410" lon="-0.6404230">
        <ele>476.6</ele>
        <time>2020-10-12T08:39:37Z</time>
      </trkpt>
      <trkpt lat="38.4718820" lon="-0.6404370">
        <ele>476.6</ele>
        <time>2020-10-12T08:39:38Z</time>
      </trkpt>
      <trkpt lat="38.4719210" lon="-0.6404570">
        <ele>476.8</ele>
        <time>2020-10-12T08:39:39Z</time>
      </trkpt>
      <trkpt lat="38.4719610" lon="-0.6404830">
        <ele>476.8</ele>
        <time>2020-10-12T08:39:40Z</time>
      </trkpt>
      <trkpt lat="38.4720000" lon="-0.6405110">
        <ele>477.0</ele>
        <time>2020-10-12T08:39:41Z</time>
      </trkpt>
      <trkpt lat="38.4720330" lon="-0.6405430">
        <ele>477.0</ele>
        <time>2020-10-12T08:39:42Z</time>
      </trkpt>
      <trkpt lat="38.4720750" lon="-0.6405750">
        <ele>477.2</ele>
        <time>2020-10-12T08:39:43Z</time>
      </trkpt>
      <trkpt lat="38.4721100" lon="-0.6406090">
        <ele>477.4</ele>
        <time>2020-10-12T08:39:44Z</time>
      </trkpt>
      <trkpt lat="38.4721460" lon="-0.6406450">
        <ele>477.8</ele>
        <time>2020-10-12T08:39:45Z</time>
      </trkpt>
      <trkpt lat="38.4721840" lon="-0.6406780">
        <ele>478.0</ele>
        <time>2020-10-12T08:39:46Z</time>
      </trkpt>
      <trkpt lat="38.4722180" lon="-0.6407130">
        <ele>478.2</ele>
        <time>2020-10-12T08:39:47Z</time>
      </trkpt>
      <trkpt lat="38.4722530" lon="-0.6407460">
        <ele>478.4</ele>
        <time>2020-10-12T08:39:48Z</time>
      </trkpt>
      <trkpt lat="38.4722870" lon="-0.6407790">
        <ele>478.6</ele>
        <time>2020-10-12T08:39:49Z</time>
      </trkpt>
      <trkpt lat="38.4723150" lon="-0.6408150">
        <ele>479.0</ele>
        <time>2020-10-12T08:39:50Z</time>
      </trkpt>
      <trkpt lat="38.4723430" lon="-0.6408440">
        <ele>479.4</ele>
        <time>2020-10-12T08:39:51Z</time>
      </trkpt>
      <trkpt lat="38.4723710" lon="-0.6408720">
        <ele>479.8</ele>
        <time>2020-10-12T08:39:52Z</time>
      </trkpt>
      <trkpt lat="38.4724050" lon="-0.6408970">
        <ele>480.2</ele>
        <time>2020-10-12T08:39:53Z</time>
      </trkpt>
      <trkpt lat="38.4724350" lon="-0.6409290">
        <ele>480.6</ele>
        <time>2020-10-12T08:39:54Z</time>
      </trkpt>
      <trkpt lat="38.4724650" lon="-0.6409620">
        <ele>481.0</ele>
        <time>2020-10-12T08:39:55Z</time>
      </trkpt>
      <trkpt lat="38.4724970" lon="-0.6409930">
        <ele>481.4</ele>
        <time>2020-10-12T08:39:56Z</time>
      </trkpt>
      <trkpt lat="38.4725280" lon="-0.6410260">
        <ele>481.6</ele>
        <time>2020-10-12T08:39:57Z</time>
      </trkpt>
      <trkpt lat="38.4725620" lon="-0.6410610">
        <ele>481.8</ele>
        <time>2020-10-12T08:39:58Z</time>
      </trkpt>
      <trkpt lat="38.4725980" lon="-0.6410950">
        <ele>482.0</ele>
        <time>2020-10-12T08:39:59Z</time>
      </trkpt>
      <trkpt lat="38.4726320" lon="-0.6411260">
        <ele>482.2</ele>
        <time>2020-10-12T08:40:00Z</time>
      </trkpt>
      <trkpt lat="38.4726670" lon="-0.6411560">
        <ele>482.4</ele>
        <time>2020-10-12T08:40:01Z</time>
      </trkpt>
      <trkpt lat="38.4726980" lon="-0.6411860">
        <ele>482.6</ele>
        <time>2020-10-12T08:40:02Z</time>
      </trkpt>
      <trkpt lat="38.4727280" lon="-0.6412160">
        <ele>482.8</ele>
        <time>2020-10-12T08:40:03Z</time>
      </trkpt>
      <trkpt lat="38.4727580" lon="-0.6412480">
        <ele>483.0</ele>
        <time>2020-10-12T08:40:04Z</time>
      </trkpt>
      <trkpt lat="38.4727900" lon="-0.6412790">
        <ele>483.0</ele>
        <time>2020-10-12T08:40:05Z</time>
      </trkpt>
      <trkpt lat="38.4728210" lon="-0.6413100">
        <ele>483.2</ele>
        <time>2020-10-12T08:40:06Z</time>
      </trkpt>
      <trkpt lat="38.4728520" lon="-0.6413390">
        <ele>483.4</ele>
        <time>2020-10-12T08:40:07Z</time>
      </trkpt>
      <trkpt lat="38.4728840" lon="-0.6413690">
        <ele>483.8</ele>
        <time>2020-10-12T08:40:08Z</time>
      </trkpt>
      <trkpt lat="38.4729130" lon="-0.6414000">
        <ele>484.0</ele>
        <time>2020-10-12T08:40:09Z</time>
      </trkpt>
      <trkpt lat="38.4729420" lon="-0.6414320">
        <ele>484.2</ele>
        <time>2020-10-12T08:40:10Z</time>
      </trkpt>
      <trkpt lat="38.4729700" lon="-0.6414650">
        <ele>484.4</ele>
        <time>2020-10-12T08:40:11Z</time>
      </trkpt>
      <trkpt lat="38.4729980" lon="-0.6415000">
        <ele>484.6</ele>
        <time>2020-10-12T08:40:12Z</time>
      </trkpt>
      <trkpt lat="38.4730280" lon="-0.6415390">
        <ele>484.8</ele>
        <time>2020-10-12T08:40:13Z</time>
      </trkpt>
      <trkpt lat="38.4730540" lon="-0.6415770">
        <ele>485.0</ele>
        <time>2020-10-12T08:40:14Z</time>
      </trkpt>
      <trkpt lat="38.4730790" lon="-0.6416140">
        <ele>485.4</ele>
        <time>2020-10-12T08:40:15Z</time>
      </trkpt>
      <trkpt lat="38.4731030" lon="-0.6416470">
        <ele>485.6</ele>
        <time>2020-10-12T08:40:16Z</time>
      </trkpt>
      <trkpt lat="38.4731290" lon="-0.6416800">
        <ele>486.0</ele>
        <time>2020-10-12T08:40:17Z</time>
      </trkpt>
      <trkpt lat="38.4731520" lon="-0.6417110">
        <ele>486.2</ele>
        <time>2020-10-12T08:40:18Z</time>
      </trkpt>
      <trkpt lat="38.4731760" lon="-0.6417410">
        <ele>486.4</ele>
        <time>2020-10-12T08:40:19Z</time>
      </trkpt>
      <trkpt lat="38.4732020" lon="-0.6417770">
        <ele>486.6</ele>
        <time>2020-10-12T08:40:20Z</time>
      </trkpt>
      <trkpt lat="38.4732230" lon="-0.6418240">
        <ele>486.8</ele>
        <time>2020-10-12T08:40:21Z</time>
      </trkpt>
      <trkpt lat="38.4732410" lon="-0.6418650">
        <ele>487.0</ele>
        <time>2020-10-12T08:40:22Z</time>
      </trkpt>
      <trkpt lat="38.4732670" lon="-0.6418910">
        <ele>487.2</ele>
        <time>2020-10-12T08:40:23Z</time>
      </trkpt>
      <trkpt lat="38.4732910" lon="-0.6419150">
        <ele>487.4</ele>
        <time>2020-10-12T08:40:24Z</time>
      </trkpt>
      <trkpt lat="38.4733200" lon="-0.6419290">
        <ele>487.6</ele>
        <time>2020-10-12T08:40:25Z</time>
      </trkpt>
      <trkpt lat="38.4733550" lon="-0.6419310">
        <ele>487.8</ele>
        <time>2020-10-12T08:40:26Z</time>
      </trkpt>
      <trkpt lat="38.4733900" lon="-0.6419230">
        <ele>488.0</ele>
        <time>2020-10-12T08:40:27Z</time>
      </trkpt>
      <trkpt lat="38.4734270" lon="-0.6419040">
        <ele>488.2</ele>
        <time>2020-10-12T08:40:28Z</time>
      </trkpt>
      <trkpt lat="38.4734620" lon="-0.6418820">
        <ele>488.6</ele>
        <time>2020-10-12T08:40:29Z</time>
      </trkpt>
      <trkpt lat="38.4734960" lon="-0.6418580">
        <ele>489.0</ele>
        <time>2020-10-12T08:40:30Z</time>
      </trkpt>
      <trkpt lat="38.4735320" lon="-0.6418350">
        <ele>489.4</ele>
        <time>2020-10-12T08:40:31Z</time>
      </trkpt>
      <trkpt lat="38.4735680" lon="-0.6418130">
        <ele>489.8</ele>
        <time>2020-10-12T08:40:32Z</time>
      </trkpt>
      <trkpt lat="38.4736060" lon="-0.6417950">
        <ele>490.0</ele>
        <time>2020-10-12T08:40:33Z</time>
      </trkpt>
      <trkpt lat="38.4736440" lon="-0.6417770">
        <ele>490.2</ele>
        <time>2020-10-12T08:40:34Z</time>
      </trkpt>
      <trkpt lat="38.4736860" lon="-0.6417640">
        <ele>490.2</ele>
        <time>2020-10-12T08:40:35Z</time>
      </trkpt>
      <trkpt lat="38.4737240" lon="-0.6417580">
        <ele>490.4</ele>
        <time>2020-10-12T08:40:36Z</time>
      </trkpt>
      <trkpt lat="38.4737670" lon="-0.6417540">
        <ele>490.6</ele>
        <time>2020-10-12T08:40:37Z</time>
      </trkpt>
      <trkpt lat="38.4738060" lon="-0.6417560">
        <ele>490.8</ele>
        <time>2020-10-12T08:40:38Z</time>
      </trkpt>
      <trkpt lat="38.4738440" lon="-0.6417620">
        <ele>491.2</ele>
        <time>2020-10-12T08:40:39Z</time>
      </trkpt>
      <trkpt lat="38.4738800" lon="-0.6417690">
        <ele>491.2</ele>
        <time>2020-10-12T08:40:40Z</time>
      </trkpt>
      <trkpt lat="38.4739160" lon="-0.6417780">
        <ele>491.4</ele>
        <time>2020-10-12T08:40:41Z</time>
      </trkpt>
      <trkpt lat="38.4739540" lon="-0.6417860">
        <ele>491.4</ele>
        <time>2020-10-12T08:40:42Z</time>
      </trkpt>
      <trkpt lat="38.4739920" lon="-0.6417950">
        <ele>491.6</ele>
        <time>2020-10-12T08:40:43Z</time>
      </trkpt>
      <trkpt lat="38.4740300" lon="-0.6418040">
        <ele>491.6</ele>
        <time>2020-10-12T08:40:44Z</time>
      </trkpt>
      <trkpt lat="38.4740700" lon="-0.6418140">
        <ele>491.8</ele>
        <time>2020-10-12T08:40:45Z</time>
      </trkpt>
      <trkpt lat="38.4741080" lon="-0.6418250">
        <ele>492.2</ele>
        <time>2020-10-12T08:40:46Z</time>
      </trkpt>
      <trkpt lat="38.4741470" lon="-0.6418360">
        <ele>492.2</ele>
        <time>2020-10-12T08:40:47Z</time>
      </trkpt>
      <trkpt lat="38.4741830" lon="-0.6418470">
        <ele>492.4</ele>
        <time>2020-10-12T08:40:48Z</time>
      </trkpt>
      <trkpt lat="38.4742200" lon="-0.6418620">
        <ele>492.6</ele>
        <time>2020-10-12T08:40:49Z</time>
      </trkpt>
      <trkpt lat="38.4742570" lon="-0.6418770">
        <ele>492.8</ele>
        <time>2020-10-12T08:40:50Z</time>
      </trkpt>
      <trkpt lat="38.4742930" lon="-0.6418920">
        <ele>493.2</ele>
        <time>2020-10-12T08:40:51Z</time>
      </trkpt>
      <trkpt lat="38.4743310" lon="-0.6419100">
        <ele>493.4</ele>
        <time>2020-10-12T08:40:52Z</time>
      </trkpt>
      <trkpt lat="38.4743680" lon="-0.6419310">
        <ele>493.6</ele>
        <time>2020-10-12T08:40:53Z</time>
      </trkpt>
      <trkpt lat="38.4744050" lon="-0.6419490">
        <ele>493.8</ele>
        <time>2020-10-12T08:40:54Z</time>
      </trkpt>
      <trkpt lat="38.4744440" lon="-0.6419690">
        <ele>494.0</ele>
        <time>2020-10-12T08:40:55Z</time>
      </trkpt>
      <trkpt lat="38.4744800" lon="-0.6419910">
        <ele>494.2</ele>
        <time>2020-10-12T08:40:56Z</time>
      </trkpt>
      <trkpt lat="38.4745120" lon="-0.6420140">
        <ele>494.4</ele>
        <time>2020-10-12T08:40:57Z</time>
      </trkpt>
      <trkpt lat="38.4745450" lon="-0.6420350">
        <ele>494.6</ele>
        <time>2020-10-12T08:40:58Z</time>
      </trkpt>
      <trkpt lat="38.4745780" lon="-0.6420570">
        <ele>494.8</ele>
        <time>2020-10-12T08:40:59Z</time>
      </trkpt>
      <trkpt lat="38.4746140" lon="-0.6420780">
        <ele>494.8</ele>
        <time>2020-10-12T08:41:00Z</time>
      </trkpt>
      <trkpt lat="38.4746520" lon="-0.6421010">
        <ele>495.0</ele>
        <time>2020-10-12T08:41:01Z</time>
      </trkpt>
      <trkpt lat="38.4746890" lon="-0.6421240">
        <ele>495.0</ele>
        <time>2020-10-12T08:41:02Z</time>
      </trkpt>
      <trkpt lat="38.4747240" lon="-0.6421480">
        <ele>495.2</ele>
        <time>2020-10-12T08:41:03Z</time>
      </trkpt>
      <trkpt lat="38.4747550" lon="-0.6421700">
        <ele>495.4</ele>
        <time>2020-10-12T08:41:04Z</time>
      </trkpt>
      <trkpt lat="38.4747870" lon="-0.6421920">
        <ele>495.6</ele>
        <time>2020-10-12T08:41:05Z</time>
      </trkpt>
      <trkpt lat="38.4748240" lon="-0.6422130">
        <ele>495.8</ele>
        <time>2020-10-12T08:41:06Z</time>
      </trkpt>
      <trkpt lat="38.4748580" lon="-0.6422340">
        <ele>496.0</ele>
        <time>2020-10-12T08:41:07Z</time>
      </trkpt>
      <trkpt lat="38.4748890" lon="-0.6422570">
        <ele>496.2</ele>
        <time>2020-10-12T08:41:08Z</time>
      </trkpt>
      <trkpt lat="38.4749250" lon="-0.6422780">
        <ele>496.6</ele>
        <time>2020-10-12T08:41:09Z</time>
      </trkpt>
      <trkpt lat="38.4749600" lon="-0.6422990">
        <ele>496.8</ele>
        <time>2020-10-12T08:41:10Z</time>
      </trkpt>
      <trkpt lat="38.4749930" lon="-0.6423230">
        <ele>497.2</ele>
        <time>2020-10-12T08:41:11Z</time>
      </trkpt>
      <trkpt lat="38.4750270" lon="-0.6423460">
        <ele>497.6</ele>
        <time>2020-10-12T08:41:12Z</time>
      </trkpt>
      <trkpt lat="38.4750580" lon="-0.6423700">
        <ele>498.0</ele>
        <time>2020-10-12T08:41:13Z</time>
      </trkpt>
      <trkpt lat="38.4750870" lon="-0.6423940">
        <ele>498.4</ele>
        <time>2020-10-12T08:41:14Z</time>
      </trkpt>
      <trkpt lat="38.4751200" lon="-0.6424210">
        <ele>498.8</ele>
        <time>2020-10-12T08:41:15Z</time>
      </trkpt>
      <trkpt lat="38.4751530" lon="-0.6424510">
        <ele>499.0</ele>
        <time>2020-10-12T08:41:16Z</time>
      </trkpt>
      <trkpt lat="38.4751860" lon="-0.6424820">
        <ele>499.2</ele>
        <time>2020-10-12T08:41:17Z</time>
      </trkpt>
      <trkpt lat="38.4752160" lon="-0.6425110">
        <ele>499.4</ele>
        <time>2020-10-12T08:41:18Z</time>
      </trkpt>
      <trkpt lat="38.4752510" lon="-0.6425440">
        <ele>499.6</ele>
        <time>2020-10-12T08:41:19Z</time>
      </trkpt>
      <trkpt lat="38.4752860" lon="-0.6425780">
        <ele>499.8</ele>
        <time>2020-10-12T08:41:20Z</time>
      </trkpt>
      <trkpt lat="38.4753140" lon="-0.6426070">
        <ele>500.0</ele>
        <time>2020-10-12T08:41:21Z</time>
      </trkpt>
      <trkpt lat="38.4753420" lon="-0.6426370">
        <ele>500.4</ele>
        <time>2020-10-12T08:41:22Z</time>
      </trkpt>
      <trkpt lat="38.4753710" lon="-0.6426640">
        <ele>500.8</ele>
        <time>2020-10-12T08:41:23Z</time>
      </trkpt>
      <trkpt lat="38.4754010" lon="-0.6426920">
        <ele>501.0</ele>
        <time>2020-10-12T08:41:24Z</time>
      </trkpt>
      <trkpt lat="38.4754310" lon="-0.6427210">
        <ele>501.0</ele>
        <time>2020-10-12T08:41:25Z</time>
      </trkpt>
      <trkpt lat="38.4754600" lon="-0.6427500">
        <ele>501.2</ele>
        <time>2020-10-12T08:41:26Z</time>
      </trkpt>
      <trkpt lat="38.4754900" lon="-0.6427800">
        <ele>501.4</ele>
        <time>2020-10-12T08:41:27Z</time>
      </trkpt>
      <trkpt lat="38.4755200" lon="-0.6428090">
        <ele>501.6</ele>
        <time>2020-10-12T08:41:28Z</time>
      </trkpt>
      <trkpt lat="38.4755500" lon="-0.6428380">
        <ele>502.2</ele>
        <time>2020-10-12T08:41:29Z</time>
      </trkpt>
      <trkpt lat="38.4755800" lon="-0.6428640">
        <ele>502.6</ele>
        <time>2020-10-12T08:41:30Z</time>
      </trkpt>
      <trkpt lat="38.4756130" lon="-0.6428910">
        <ele>503.0</ele>
        <time>2020-10-12T08:41:31Z</time>
      </trkpt>
      <trkpt lat="38.4756450" lon="-0.6429210">
        <ele>503.2</ele>
        <time>2020-10-12T08:41:32Z</time>
      </trkpt>
      <trkpt lat="38.4756720" lon="-0.6429500">
        <ele>503.4</ele>
        <time>2020-10-12T08:41:33Z</time>
      </trkpt>
      <trkpt lat="38.4756980" lon="-0.6429770">
        <ele>503.4</ele>
        <time>2020-10-12T08:41:34Z</time>
      </trkpt>
      <trkpt lat="38.4757250" lon="-0.6430040">
        <ele>503.6</ele>
        <time>2020-10-12T08:41:35Z</time>
      </trkpt>
      <trkpt lat="38.4757530" lon="-0.6430330">
        <ele>503.8</ele>
        <time>2020-10-12T08:41:36Z</time>
      </trkpt>
      <trkpt lat="38.4757870" lon="-0.6430610">
        <ele>504.0</ele>
        <time>2020-10-12T08:41:37Z</time>
      </trkpt>
      <trkpt lat="38.4758140" lon="-0.6430860">
        <ele>504.2</ele>
        <time>2020-10-12T08:41:38Z</time>
      </trkpt>
      <trkpt lat="38.4758450" lon="-0.6431120">
        <ele>504.6</ele>
        <time>2020-10-12T08:41:39Z</time>
      </trkpt>
      <trkpt lat="38.4758770" lon="-0.6431400">
        <ele>504.8</ele>
        <time>2020-10-12T08:41:40Z</time>
      </trkpt>
      <trkpt lat="38.4759080" lon="-0.6431660">
        <ele>505.2</ele>
        <time>2020-10-12T08:41:41Z</time>
      </trkpt>
      <trkpt lat="38.4759390" lon="-0.6431930">
        <ele>505.4</ele>
        <time>2020-10-12T08:41:42Z</time>
      </trkpt>
      <trkpt lat="38.4759700" lon="-0.6432180">
        <ele>505.6</ele>
        <time>2020-10-12T08:41:43Z</time>
      </trkpt>
      <trkpt lat="38.4760000" lon="-0.6432430">
        <ele>505.8</ele>
        <time>2020-10-12T08:41:44Z</time>
      </trkpt>
      <trkpt lat="38.4760310" lon="-0.6432700">
        <ele>506.0</ele>
        <time>2020-10-12T08:41:45Z</time>
      </trkpt>
      <trkpt lat="38.4760610" lon="-0.6432980">
        <ele>506.2</ele>
        <time>2020-10-12T08:41:46Z</time>
      </trkpt>
      <trkpt lat="38.4760910" lon="-0.6433270">
        <ele>506.4</ele>
        <time>2020-10-12T08:41:47Z</time>
      </trkpt>
      <trkpt lat="38.4761200" lon="-0.6433520">
        <ele>506.8</ele>
        <time>2020-10-12T08:41:48Z</time>
      </trkpt>
      <trkpt lat="38.4761530" lon="-0.6433780">
        <ele>507.2</ele>
        <time>2020-10-12T08:41:49Z</time>
      </trkpt>
      <trkpt lat="38.4761860" lon="-0.6434030">
        <ele>507.4</ele>
        <time>2020-10-12T08:41:50Z</time>
      </trkpt>
      <trkpt lat="38.4762220" lon="-0.6434280">
        <ele>507.6</ele>
        <time>2020-10-12T08:41:51Z</time>
      </trkpt>
      <trkpt lat="38.4762560" lon="-0.6434550">
        <ele>507.8</ele>
        <time>2020-10-12T08:41:52Z</time>
      </trkpt>
      <trkpt lat="38.4762890" lon="-0.6434820">
        <ele>507.8</ele>
        <time>2020-10-12T08:41:53Z</time>
      </trkpt>
      <trkpt lat="38.4763280" lon="-0.6435070">
        <ele>507.8</ele>
        <time>2020-10-12T08:41:54Z</time>
      </trkpt>
      <trkpt lat="38.4763660" lon="-0.6435310">
        <ele>507.6</ele>
        <time>2020-10-12T08:41:55Z</time>
      </trkpt>
      <trkpt lat="38.4764010" lon="-0.6435530">
        <ele>507.6</ele>
        <time>2020-10-12T08:41:56Z</time>
      </trkpt>
      <trkpt lat="38.4764350" lon="-0.6435790">
        <ele>507.6</ele>
        <time>2020-10-12T08:41:57Z</time>
      </trkpt>
      <trkpt lat="38.4764750" lon="-0.6436050">
        <ele>507.6</ele>
        <time>2020-10-12T08:41:58Z</time>
      </trkpt>
      <trkpt lat="38.4765100" lon="-0.6436280">
        <ele>507.8</ele>
        <time>2020-10-12T08:41:59Z</time>
      </trkpt>
      <trkpt lat="38.4765420" lon="-0.6436510">
        <ele>508.4</ele>
        <time>2020-10-12T08:42:00Z</time>
      </trkpt>
      <trkpt lat="38.4765730" lon="-0.6436740">
        <ele>509.4</ele>
        <time>2020-10-12T08:42:01Z</time>
      </trkpt>
      <trkpt lat="38.4766020" lon="-0.6437000">
        <ele>510.6</ele>
        <time>2020-10-12T08:42:02Z</time>
      </trkpt>
      <trkpt lat="38.4766340" lon="-0.6437210">
        <ele>511.2</ele>
        <time>2020-10-12T08:42:03Z</time>
      </trkpt>
      <trkpt lat="38.4766670" lon="-0.6437400">
        <ele>511.6</ele>
        <time>2020-10-12T08:42:04Z</time>
      </trkpt>
      <trkpt lat="38.4767020" lon="-0.6437560">
        <ele>511.6</ele>
        <time>2020-10-12T08:42:05Z</time>
      </trkpt>
      <trkpt lat="38.4767430" lon="-0.6437630">
        <ele>511.8</ele>
        <time>2020-10-12T08:42:06Z</time>
      </trkpt>
      <trkpt lat="38.4767850" lon="-0.6437610">
        <ele>511.6</ele>
        <time>2020-10-12T08:42:07Z</time>
      </trkpt>
      <trkpt lat="38.4768280" lon="-0.6437500">
        <ele>511.6</ele>
        <time>2020-10-12T08:42:08Z</time>
      </trkpt>
      <trkpt lat="38.4768690" lon="-0.6437300">
        <ele>511.4</ele>
        <time>2020-10-12T08:42:09Z</time>
      </trkpt>
      <trkpt lat="38.4769070" lon="-0.6436960">
        <ele>511.4</ele>
        <time>2020-10-12T08:42:10Z</time>
      </trkpt>
      <trkpt lat="38.4769420" lon="-0.6436540">
        <ele>511.8</ele>
        <time>2020-10-12T08:42:11Z</time>
      </trkpt>
      <trkpt lat="38.4769750" lon="-0.6436040">
        <ele>512.2</ele>
        <time>2020-10-12T08:42:12Z</time>
      </trkpt>
      <trkpt lat="38.4770030" lon="-0.6435510">
        <ele>512.6</ele>
        <time>2020-10-12T08:42:13Z</time>
      </trkpt>
      <trkpt lat="38.4770240" lon="-0.6434960">
        <ele>512.8</ele>
        <time>2020-10-12T08:42:14Z</time>
      </trkpt>
      <trkpt lat="38.4770410" lon="-0.6434400">
        <ele>512.8</ele>
        <time>2020-10-12T08:42:15Z</time>
      </trkpt>
      <trkpt lat="38.4770460" lon="-0.6433830">
        <ele>512.8</ele>
        <time>2020-10-12T08:42:16Z</time>
      </trkpt>
      <trkpt lat="38.4770460" lon="-0.6433270">
        <ele>513.0</ele>
        <time>2020-10-12T08:42:17Z</time>
      </trkpt>
      <trkpt lat="38.4770410" lon="-0.6432710">
        <ele>513.0</ele>
        <time>2020-10-12T08:42:18Z</time>
      </trkpt>
      <trkpt lat="38.4770260" lon="-0.6432160">
        <ele>513.0</ele>
        <time>2020-10-12T08:42:19Z</time>
      </trkpt>
      <trkpt lat="38.4770070" lon="-0.6431660">
        <ele>513.2</ele>
        <time>2020-10-12T08:42:20Z</time>
      </trkpt>
      <trkpt lat="38.4769850" lon="-0.6431200">
        <ele>513.8</ele>
        <time>2020-10-12T08:42:21Z</time>
      </trkpt>
      <trkpt lat="38.4769610" lon="-0.6430750">
        <ele>514.2</ele>
        <time>2020-10-12T08:42:22Z</time>
      </trkpt>
      <trkpt lat="38.4769360" lon="-0.6430280">
        <ele>514.6</ele>
        <time>2020-10-12T08:42:23Z</time>
      </trkpt>
      <trkpt lat="38.4769140" lon="-0.6429880">
        <ele>515.0</ele>
        <time>2020-10-12T08:42:24Z</time>
      </trkpt>
      <trkpt lat="38.4768920" lon="-0.6429440">
        <ele>515.4</ele>
        <time>2020-10-12T08:42:25Z</time>
      </trkpt>
      <trkpt lat="38.4768710" lon="-0.6428990">
        <ele>515.6</ele>
        <time>2020-10-12T08:42:26Z</time>
      </trkpt>
      <trkpt lat="38.4768520" lon="-0.6428530">
        <ele>515.8</ele>
        <time>2020-10-12T08:42:27Z</time>
      </trkpt>
      <trkpt lat="38.4768340" lon="-0.6428070">
        <ele>516.0</ele>
        <time>2020-10-12T08:42:28Z</time>
      </trkpt>
      <trkpt lat="38.4768160" lon="-0.6427590">
        <ele>516.2</ele>
        <time>2020-10-12T08:42:29Z</time>
      </trkpt>
      <trkpt lat="38.4768000" lon="-0.6427120">
        <ele>516.6</ele>
        <time>2020-10-12T08:42:30Z</time>
      </trkpt>
      <trkpt lat="38.4767890" lon="-0.6426630">
        <ele>516.8</ele>
        <time>2020-10-12T08:42:31Z</time>
      </trkpt>
      <trkpt lat="38.4767810" lon="-0.6426090">
        <ele>517.0</ele>
        <time>2020-10-12T08:42:32Z</time>
      </trkpt>
      <trkpt lat="38.4767770" lon="-0.6425500">
        <ele>517.4</ele>
        <time>2020-10-12T08:42:33Z</time>
      </trkpt>
      <trkpt lat="38.4767800" lon="-0.6424910">
        <ele>517.6</ele>
        <time>2020-10-12T08:42:34Z</time>
      </trkpt>
      <trkpt lat="38.4767860" lon="-0.6424350">
        <ele>517.8</ele>
        <time>2020-10-12T08:42:35Z</time>
      </trkpt>
      <trkpt lat="38.4767930" lon="-0.6423790">
        <ele>517.8</ele>
        <time>2020-10-12T08:42:36Z</time>
      </trkpt>
      <trkpt lat="38.4767990" lon="-0.6423250">
        <ele>518.0</ele>
        <time>2020-10-12T08:42:37Z</time>
      </trkpt>
      <trkpt lat="38.4768060" lon="-0.6422730">
        <ele>518.2</ele>
        <time>2020-10-12T08:42:38Z</time>
      </trkpt>
      <trkpt lat="38.4768170" lon="-0.6422270">
        <ele>518.2</ele>
        <time>2020-10-12T08:42:39Z</time>
      </trkpt>
      <trkpt lat="38.4768260" lon="-0.6421790">
        <ele>518.4</ele>
        <time>2020-10-12T08:42:40Z</time>
      </trkpt>
      <trkpt lat="38.4768340" lon="-0.6421320">
        <ele>518.6</ele>
        <time>2020-10-12T08:42:41Z</time>
      </trkpt>
      <trkpt lat="38.4768440" lon="-0.6420880">
        <ele>518.8</ele>
        <time>2020-10-12T08:42:42Z</time>
      </trkpt>
      <trkpt lat="38.4768530" lon="-0.6420400">
        <ele>518.8</ele>
        <time>2020-10-12T08:42:43Z</time>
      </trkpt>
      <trkpt lat="38.4768610" lon="-0.6419900">
        <ele>519.0</ele>
        <time>2020-10-12T08:42:44Z</time>
      </trkpt>
      <trkpt lat="38.4768710" lon="-0.6419460">
        <ele>519.0</ele>
        <time>2020-10-12T08:42:45Z</time>
      </trkpt>
      <trkpt lat="38.4768810" lon="-0.6418960">
        <ele>519.2</ele>
        <time>2020-10-12T08:42:46Z</time>
      </trkpt>
      <trkpt lat="38.4768910" lon="-0.6418490">
        <ele>519.2</ele>
        <time>2020-10-12T08:42:47Z</time>
      </trkpt>
      <trkpt lat="38.4769030" lon="-0.6418030">
        <ele>519.4</ele>
        <time>2020-10-12T08:42:48Z</time>
      </trkpt>
      <trkpt lat="38.4769140" lon="-0.6417560">
        <ele>519.6</ele>
        <time>2020-10-12T08:42:49Z</time>
      </trkpt>
      <trkpt lat="38.4769240" lon="-0.6417080">
        <ele>519.8</ele>
        <time>2020-10-12T08:42:50Z</time>
      </trkpt>
      <trkpt lat="38.4769330" lon="-0.6416560">
        <ele>520.0</ele>
        <time>2020-10-12T08:42:51Z</time>
      </trkpt>
      <trkpt lat="38.4769400" lon="-0.6416070">
        <ele>520.2</ele>
        <time>2020-10-12T08:42:52Z</time>
      </trkpt>
      <trkpt lat="38.4769490" lon="-0.6415580">
        <ele>520.4</ele>
        <time>2020-10-12T08:42:53Z</time>
      </trkpt>
      <trkpt lat="38.4769580" lon="-0.6415120">
        <ele>520.6</ele>
        <time>2020-10-12T08:42:54Z</time>
      </trkpt>
      <trkpt lat="38.4769700" lon="-0.6414640">
        <ele>520.8</ele>
        <time>2020-10-12T08:42:55Z</time>
      </trkpt>
      <trkpt lat="38.4769790" lon="-0.6414170">
        <ele>521.0</ele>
        <time>2020-10-12T08:42:56Z</time>
      </trkpt>
      <trkpt lat="38.4769900" lon="-0.6413720">
        <ele>521.2</ele>
        <time>2020-10-12T08:42:57Z</time>
      </trkpt>
      <trkpt lat="38.4770010" lon="-0.6413260">
        <ele>521.6</ele>
        <time>2020-10-12T08:42:58Z</time>
      </trkpt>
      <trkpt lat="38.4770130" lon="-0.6412810">
        <ele>521.8</ele>
        <time>2020-10-12T08:42:59Z</time>
      </trkpt>
      <trkpt lat="38.4770270" lon="-0.6412380">
        <ele>522.0</ele>
        <time>2020-10-12T08:43:00Z</time>
      </trkpt>
      <trkpt lat="38.4770390" lon="-0.6411940">
        <ele>522.0</ele>
        <time>2020-10-12T08:43:01Z</time>
      </trkpt>
      <trkpt lat="38.4770530" lon="-0.6411460">
        <ele>522.2</ele>
        <time>2020-10-12T08:43:02Z</time>
      </trkpt>
      <trkpt lat="38.4770710" lon="-0.6411000">
        <ele>522.6</ele>
        <time>2020-10-12T08:43:03Z</time>
      </trkpt>
      <trkpt lat="38.4770900" lon="-0.6410580">
        <ele>522.6</ele>
        <time>2020-10-12T08:43:04Z</time>
      </trkpt>
      <trkpt lat="38.4771120" lon="-0.6410180">
        <ele>522.6</ele>
        <time>2020-10-12T08:43:05Z</time>
      </trkpt>
      <trkpt lat="38.4771340" lon="-0.6409800">
        <ele>522.8</ele>
        <time>2020-10-12T08:43:06Z</time>
      </trkpt>
      <trkpt lat="38.4771570" lon="-0.6409440">
        <ele>523.0</ele>
        <time>2020-10-12T08:43:07Z</time>
      </trkpt>
      <trkpt lat="38.4771810" lon="-0.6409120">
        <ele>523.2</ele>
        <time>2020-10-12T08:43:08Z</time>
      </trkpt>
      <trkpt lat="38.4772100" lon="-0.6408880">
        <ele>523.2</ele>
        <time>2020-10-12T08:43:09Z</time>
      </trkpt>
      <trkpt lat="38.4772400" lon="-0.6408610">
        <ele>523.4</ele>
        <time>2020-10-12T08:43:10Z</time>
      </trkpt>
      <trkpt lat="38.4772730" lon="-0.6408250">
        <ele>523.6</ele>
        <time>2020-10-12T08:43:11Z</time>
      </trkpt>
      <trkpt lat="38.4773040" lon="-0.6407950">
        <ele>523.8</ele>
        <time>2020-10-12T08:43:12Z</time>
      </trkpt>
      <trkpt lat="38.4773360" lon="-0.6407650">
        <ele>524.4</ele>
        <time>2020-10-12T08:43:13Z</time>
      </trkpt>
      <trkpt lat="38.4773680" lon="-0.6407330">
        <ele>524.8</ele>
        <time>2020-10-12T08:43:14Z</time>
      </trkpt>
      <trkpt lat="38.4773970" lon="-0.6407040">
        <ele>525.0</ele>
        <time>2020-10-12T08:43:15Z</time>
      </trkpt>
      <trkpt lat="38.4774290" lon="-0.6406780">
        <ele>525.2</ele>
        <time>2020-10-12T08:43:16Z</time>
      </trkpt>
      <trkpt lat="38.4774610" lon="-0.6406580">
        <ele>525.4</ele>
        <time>2020-10-12T08:43:17Z</time>
      </trkpt>
      <trkpt lat="38.4774950" lon="-0.6406360">
        <ele>525.4</ele>
        <time>2020-10-12T08:43:18Z</time>
      </trkpt>
      <trkpt lat="38.4775270" lon="-0.6406140">
        <ele>525.6</ele>
        <time>2020-10-12T08:43:19Z</time>
      </trkpt>
      <trkpt lat="38.4775600" lon="-0.6405900">
        <ele>525.8</ele>
        <time>2020-10-12T08:43:20Z</time>
      </trkpt>
      <trkpt lat="38.4775920" lon="-0.6405670">
        <ele>525.8</ele>
        <time>2020-10-12T08:43:21Z</time>
      </trkpt>
      <trkpt lat="38.4776230" lon="-0.6405450">
        <ele>526.0</ele>
        <time>2020-10-12T08:43:22Z</time>
      </trkpt>
      <trkpt lat="38.4776590" lon="-0.6405270">
        <ele>526.2</ele>
        <time>2020-10-12T08:43:23Z</time>
      </trkpt>
      <trkpt lat="38.4776910" lon="-0.6405070">
        <ele>526.8</ele>
        <time>2020-10-12T08:43:24Z</time>
      </trkpt>
      <trkpt lat="38.4777230" lon="-0.6404920">
        <ele>527.0</ele>
        <time>2020-10-12T08:43:25Z</time>
      </trkpt>
      <trkpt lat="38.4777570" lon="-0.6404800">
        <ele>527.6</ele>
        <time>2020-10-12T08:43:26Z</time>
      </trkpt>
      <trkpt lat="38.4777920" lon="-0.6404670">
        <ele>528.0</ele>
        <time>2020-10-12T08:43:27Z</time>
      </trkpt>
      <trkpt lat="38.4778250" lon="-0.6404540">
        <ele>528.2</ele>
        <time>2020-10-12T08:43:28Z</time>
      </trkpt>
      <trkpt lat="38.4778600" lon="-0.6404440">
        <ele>528.4</ele>
        <time>2020-10-12T08:43:29Z</time>
      </trkpt>
      <trkpt lat="38.4778960" lon="-0.6404330">
        <ele>528.6</ele>
        <time>2020-10-12T08:43:30Z</time>
      </trkpt>
      <trkpt lat="38.4779360" lon="-0.6404260">
        <ele>528.8</ele>
        <time>2020-10-12T08:43:31Z</time>
      </trkpt>
      <trkpt lat="38.4779740" lon="-0.6404230">
        <ele>529.0</ele>
        <time>2020-10-12T08:43:32Z</time>
      </trkpt>
      <trkpt lat="38.4780120" lon="-0.6404170">
        <ele>529.2</ele>
        <time>2020-10-12T08:43:33Z</time>
      </trkpt>
      <trkpt lat="38.4780490" lon="-0.6404090">
        <ele>529.6</ele>
        <time>2020-10-12T08:43:34Z</time>
      </trkpt>
      <trkpt lat="38.4780880" lon="-0.6404010">
        <ele>529.8</ele>
        <time>2020-10-12T08:43:35Z</time>
      </trkpt>
      <trkpt lat="38.4781240" lon="-0.6403910">
        <ele>530.0</ele>
        <time>2020-10-12T08:43:36Z</time>
      </trkpt>
      <trkpt lat="38.4781580" lon="-0.6403800">
        <ele>530.2</ele>
        <time>2020-10-12T08:43:37Z</time>
      </trkpt>
      <trkpt lat="38.4781960" lon="-0.6403630">
        <ele>530.4</ele>
        <time>2020-10-12T08:43:38Z</time>
      </trkpt>
      <trkpt lat="38.4782270" lon="-0.6403390">
        <ele>530.6</ele>
        <time>2020-10-12T08:43:39Z</time>
      </trkpt>
      <trkpt lat="38.4782560" lon="-0.6403130">
        <ele>530.8</ele>
        <time>2020-10-12T08:43:40Z</time>
      </trkpt>
      <trkpt lat="38.4782810" lon="-0.6402760">
        <ele>531.0</ele>
        <time>2020-10-12T08:43:41Z</time>
      </trkpt>
      <trkpt lat="38.4782990" lon="-0.6402350">
        <ele>531.0</ele>
        <time>2020-10-12T08:43:42Z</time>
      </trkpt>
      <trkpt lat="38.4783130" lon="-0.6401930">
        <ele>531.2</ele>
        <time>2020-10-12T08:43:43Z</time>
      </trkpt>
      <trkpt lat="38.4783150" lon="-0.6401460">
        <ele>531.6</ele>
        <time>2020-10-12T08:43:44Z</time>
      </trkpt>
      <trkpt lat="38.4783220" lon="-0.6401010">
        <ele>532.2</ele>
        <time>2020-10-12T08:43:45Z</time>
      </trkpt>
      <trkpt lat="38.4783310" lon="-0.6400570">
        <ele>532.8</ele>
        <time>2020-10-12T08:43:46Z</time>
      </trkpt>
      <trkpt lat="38.4783340" lon="-0.6400100">
        <ele>533.0</ele>
        <time>2020-10-12T08:43:47Z</time>
      </trkpt>
      <trkpt lat="38.4783390" lon="-0.6399630">
        <ele>533.4</ele>
        <time>2020-10-12T08:43:48Z</time>
      </trkpt>
      <trkpt lat="38.4783450" lon="-0.6399160">
        <ele>533.6</ele>
        <time>2020-10-12T08:43:49Z</time>
      </trkpt>
      <trkpt lat="38.4783480" lon="-0.6398700">
        <ele>533.8</ele>
        <time>2020-10-12T08:43:50Z</time>
      </trkpt>
      <trkpt lat="38.4783510" lon="-0.6398230">
        <ele>534.0</ele>
        <time>2020-10-12T08:43:51Z</time>
      </trkpt>
      <trkpt lat="38.4783530" lon="-0.6397750">
        <ele>534.0</ele>
        <time>2020-10-12T08:43:52Z</time>
      </trkpt>
      <trkpt lat="38.4783560" lon="-0.6397290">
        <ele>534.2</ele>
        <time>2020-10-12T08:43:53Z</time>
      </trkpt>
      <trkpt lat="38.4783600" lon="-0.6396810">
        <ele>534.6</ele>
        <time>2020-10-12T08:43:54Z</time>
      </trkpt>
      <trkpt lat="38.4783610" lon="-0.6396310">
        <ele>534.8</ele>
        <time>2020-10-12T08:43:55Z</time>
      </trkpt>
      <trkpt lat="38.4783630" lon="-0.6395830">
        <ele>535.0</ele>
        <time>2020-10-12T08:43:56Z</time>
      </trkpt>
      <trkpt lat="38.4783650" lon="-0.6395370">
        <ele>535.4</ele>
        <time>2020-10-12T08:43:57Z</time>
      </trkpt>
      <trkpt lat="38.4783650" lon="-0.6394910">
        <ele>535.8</ele>
        <time>2020-10-12T08:43:58Z</time>
      </trkpt>
      <trkpt lat="38.4783660" lon="-0.6394460">
        <ele>536.2</ele>
        <time>2020-10-12T08:43:59Z</time>
      </trkpt>
      <trkpt lat="38.4783680" lon="-0.6394010">
        <ele>536.6</ele>
        <time>2020-10-12T08:44:00Z</time>
      </trkpt>
      <trkpt lat="38.4783710" lon="-0.6393550">
        <ele>536.8</ele>
        <time>2020-10-12T08:44:01Z</time>
      </trkpt>
      <trkpt lat="38.4783770" lon="-0.6393100">
        <ele>536.8</ele>
        <time>2020-10-12T08:44:02Z</time>
      </trkpt>
      <trkpt lat="38.4783810" lon="-0.6392650">
        <ele>537.0</ele>
        <time>2020-10-12T08:44:03Z</time>
      </trkpt>
      <trkpt lat="38.4783860" lon="-0.6392200">
        <ele>537.2</ele>
        <time>2020-10-12T08:44:04Z</time>
      </trkpt>
      <trkpt lat="38.4783900" lon="-0.6391720">
        <ele>537.6</ele>
        <time>2020-10-12T08:44:05Z</time>
      </trkpt>
      <trkpt lat="38.4783940" lon="-0.6391220">
        <ele>538.0</ele>
        <time>2020-10-12T08:44:06Z</time>
      </trkpt>
      <trkpt lat="38.4784000" lon="-0.6390730">
        <ele>538.2</ele>
        <time>2020-10-12T08:44:07Z</time>
      </trkpt>
      <trkpt lat="38.4784060" lon="-0.6390240">
        <ele>538.4</ele>
        <time>2020-10-12T08:44:08Z</time>
      </trkpt>
      <trkpt lat="38.4784110" lon="-0.6389740">
        <ele>538.8</ele>
        <time>2020-10-12T08:44:09Z</time>
      </trkpt>
      <trkpt lat="38.4784180" lon="-0.6389240">
        <ele>539.0</ele>
        <time>2020-10-12T08:44:10Z</time>
      </trkpt>
      <trkpt lat="38.4784280" lon="-0.6388760">
        <ele>539.4</ele>
        <time>2020-10-12T08:44:11Z</time>
      </trkpt>
      <trkpt lat="38.4784390" lon="-0.6388260">
        <ele>539.6</ele>
        <time>2020-10-12T08:44:12Z</time>
      </trkpt>
      <trkpt lat="38.4784520" lon="-0.6387740">
        <ele>539.6</ele>
        <time>2020-10-12T08:44:13Z</time>
      </trkpt>
      <trkpt lat="38.4784700" lon="-0.6387220">
        <ele>539.8</ele>
        <time>2020-10-12T08:44:14Z</time>
      </trkpt>
      <trkpt lat="38.4784890" lon="-0.6386700">
        <ele>540.2</ele>
        <time>2020-10-12T08:44:15Z</time>
      </trkpt>
      <trkpt lat="38.4785100" lon="-0.6386200">
        <ele>540.4</ele>
        <time>2020-10-12T08:44:16Z</time>
      </trkpt>
      <trkpt lat="38.4785310" lon="-0.6385690">
        <ele>540.8</ele>
        <time>2020-10-12T08:44:17Z</time>
      </trkpt>
      <trkpt lat="38.4785550" lon="-0.6385180">
        <ele>541.2</ele>
        <time>2020-10-12T08:44:18Z</time>
      </trkpt>
      <trkpt lat="38.4785780" lon="-0.6384660">
        <ele>541.4</ele>
        <time>2020-10-12T08:44:19Z</time>
      </trkpt>
      <trkpt lat="38.4786020" lon="-0.6384130">
        <ele>541.6</ele>
        <time>2020-10-12T08:44:20Z</time>
      </trkpt>
      <trkpt lat="38.4786300" lon="-0.6383590">
        <ele>541.6</ele>
        <time>2020-10-12T08:44:21Z</time>
      </trkpt>
      <trkpt lat="38.4786560" lon="-0.6383030">
        <ele>541.6</ele>
        <time>2020-10-12T08:44:22Z</time>
      </trkpt>
      <trkpt lat="38.4786890" lon="-0.6382480">
        <ele>541.6</ele>
        <time>2020-10-12T08:44:23Z</time>
      </trkpt>
      <trkpt lat="38.4787170" lon="-0.6381910">
        <ele>541.6</ele>
        <time>2020-10-12T08:44:24Z</time>
      </trkpt>
      <trkpt lat="38.4787420" lon="-0.6381280">
        <ele>541.4</ele>
        <time>2020-10-12T08:44:25Z</time>
      </trkpt>
      <trkpt lat="38.4787640" lon="-0.6380650">
        <ele>541.0</ele>
        <time>2020-10-12T08:44:26Z</time>
      </trkpt>
      <trkpt lat="38.4787860" lon="-0.6380060">
        <ele>540.6</ele>
        <time>2020-10-12T08:44:27Z</time>
      </trkpt>
      <trkpt lat="38.4788070" lon="-0.6379450">
        <ele>540.4</ele>
        <time>2020-10-12T08:44:28Z</time>
      </trkpt>
      <trkpt lat="38.4788300" lon="-0.6378840">
        <ele>540.2</ele>
        <time>2020-10-12T08:44:29Z</time>
      </trkpt>
      <trkpt lat="38.4788530" lon="-0.6378190">
        <ele>540.0</ele>
        <time>2020-10-12T08:44:30Z</time>
      </trkpt>
      <trkpt lat="38.4788780" lon="-0.6377520">
        <ele>540.0</ele>
        <time>2020-10-12T08:44:31Z</time>
      </trkpt>
      <trkpt lat="38.4789060" lon="-0.6376830">
        <ele>539.6</ele>
        <time>2020-10-12T08:44:32Z</time>
      </trkpt>
      <trkpt lat="38.4789380" lon="-0.6376130">
        <ele>539.2</ele>
        <time>2020-10-12T08:44:33Z</time>
      </trkpt>
      <trkpt lat="38.4789700" lon="-0.6375390">
        <ele>539.0</ele>
        <time>2020-10-12T08:44:34Z</time>
      </trkpt>
      <trkpt lat="38.4790020" lon="-0.6374680">
        <ele>538.8</ele>
        <time>2020-10-12T08:44:35Z</time>
      </trkpt>
      <trkpt lat="38.4790360" lon="-0.6373990">
        <ele>538.8</ele>
        <time>2020-10-12T08:44:36Z</time>
      </trkpt>
      <trkpt lat="38.4790700" lon="-0.6373370">
        <ele>538.6</ele>
        <time>2020-10-12T08:44:37Z</time>
      </trkpt>
      <trkpt lat="38.4791010" lon="-0.6372780">
        <ele>539.0</ele>
        <time>2020-10-12T08:44:38Z</time>
      </trkpt>
      <trkpt lat="38.4791370" lon="-0.6372220">
        <ele>539.4</ele>
        <time>2020-10-12T08:44:39Z</time>
      </trkpt>
      <trkpt lat="38.4791770" lon="-0.6371670">
        <ele>539.8</ele>
        <time>2020-10-12T08:44:40Z</time>
      </trkpt>
      <trkpt lat="38.4792080" lon="-0.6371100">
        <ele>540.0</ele>
        <time>2020-10-12T08:44:41Z</time>
      </trkpt>
      <trkpt lat="38.4792380" lon="-0.6370500">
        <ele>540.2</ele>
        <time>2020-10-12T08:44:42Z</time>
      </trkpt>
      <trkpt lat="38.4792650" lon="-0.6369910">
        <ele>540.4</ele>
        <time>2020-10-12T08:44:43Z</time>
      </trkpt>
      <trkpt lat="38.4792910" lon="-0.6369260">
        <ele>540.6</ele>
        <time>2020-10-12T08:44:44Z</time>
      </trkpt>
      <trkpt lat="38.4793150" lon="-0.6368590">
        <ele>540.8</ele>
        <time>2020-10-12T08:44:45Z</time>
      </trkpt>
      <trkpt lat="38.4793330" lon="-0.6367900">
        <ele>540.8</ele>
        <time>2020-10-12T08:44:46Z</time>
      </trkpt>
      <trkpt lat="38.4793490" lon="-0.6367230">
        <ele>541.0</ele>
        <time>2020-10-12T08:44:47Z</time>
      </trkpt>
      <trkpt lat="38.4793620" lon="-0.6366570">
        <ele>541.0</ele>
        <time>2020-10-12T08:44:48Z</time>
      </trkpt>
      <trkpt lat="38.4793720" lon="-0.6365900">
        <ele>541.2</ele>
        <time>2020-10-12T08:44:49Z</time>
      </trkpt>
      <trkpt lat="38.4793820" lon="-0.6365220">
        <ele>541.2</ele>
        <time>2020-10-12T08:44:50Z</time>
      </trkpt>
      <trkpt lat="38.4793940" lon="-0.6364570">
        <ele>541.2</ele>
        <time>2020-10-12T08:44:51Z</time>
      </trkpt>
      <trkpt lat="38.4794100" lon="-0.6363940">
        <ele>541.2</ele>
        <time>2020-10-12T08:44:52Z</time>
      </trkpt>
      <trkpt lat="38.4794290" lon="-0.6363320">
        <ele>541.2</ele>
        <time>2020-10-12T08:44:53Z</time>
      </trkpt>
      <trkpt lat="38.4794520" lon="-0.6362730">
        <ele>541.4</ele>
        <time>2020-10-12T08:44:54Z</time>
      </trkpt>
      <trkpt lat="38.4794820" lon="-0.6362210">
        <ele>541.6</ele>
        <time>2020-10-12T08:44:55Z</time>
      </trkpt>
      <trkpt lat="38.4795200" lon="-0.6361750">
        <ele>541.8</ele>
        <time>2020-10-12T08:44:56Z</time>
      </trkpt>
      <trkpt lat="38.4795650" lon="-0.6361360">
        <ele>541.8</ele>
        <time>2020-10-12T08:44:57Z</time>
      </trkpt>
      <trkpt lat="38.4796120" lon="-0.6361020">
        <ele>542.0</ele>
        <time>2020-10-12T08:44:58Z</time>
      </trkpt>
      <trkpt lat="38.4796630" lon="-0.6360750">
        <ele>542.2</ele>
        <time>2020-10-12T08:44:59Z</time>
      </trkpt>
      <trkpt lat="38.4797150" lon="-0.6360530">
        <ele>542.2</ele>
        <time>2020-10-12T08:45:00Z</time>
      </trkpt>
      <trkpt lat="38.4797670" lon="-0.6360300">
        <ele>542.2</ele>
        <time>2020-10-12T08:45:01Z</time>
      </trkpt>
      <trkpt lat="38.4798230" lon="-0.6360090">
        <ele>542.2</ele>
        <time>2020-10-12T08:45:02Z</time>
      </trkpt>
      <trkpt lat="38.4798730" lon="-0.6359880">
        <ele>542.2</ele>
        <time>2020-10-12T08:45:03Z</time>
      </trkpt>
      <trkpt lat="38.4799250" lon="-0.6359660">
        <ele>542.2</ele>
        <time>2020-10-12T08:45:04Z</time>
      </trkpt>
      <trkpt lat="38.4799740" lon="-0.6359420">
        <ele>542.2</ele>
        <time>2020-10-12T08:45:05Z</time>
      </trkpt>
      <trkpt lat="38.4800270" lon="-0.6359190">
        <ele>542.0</ele>
        <time>2020-10-12T08:45:06Z</time>
      </trkpt>
      <trkpt lat="38.4800810" lon="-0.6358950">
        <ele>542.0</ele>
        <time>2020-10-12T08:45:07Z</time>
      </trkpt>
      <trkpt lat="38.4801380" lon="-0.6358730">
        <ele>542.2</ele>
        <time>2020-10-12T08:45:08Z</time>
      </trkpt>
      <trkpt lat="38.4801920" lon="-0.6358490">
        <ele>542.2</ele>
        <time>2020-10-12T08:45:09Z</time>
      </trkpt>
      <trkpt lat="38.4802420" lon="-0.6358260">
        <ele>542.6</ele>
        <time>2020-10-12T08:45:10Z</time>
      </trkpt>
      <trkpt lat="38.4802930" lon="-0.6358070">
        <ele>543.0</ele>
        <time>2020-10-12T08:45:11Z</time>
      </trkpt>
      <trkpt lat="38.4803490" lon="-0.6357920">
        <ele>543.4</ele>
        <time>2020-10-12T08:45:12Z</time>
      </trkpt>
      <trkpt lat="38.4804060" lon="-0.6357820">
        <ele>543.6</ele>
        <time>2020-10-12T08:45:13Z</time>
      </trkpt>
      <trkpt lat="38.4804600" lon="-0.6357710">
        <ele>543.8</ele>
        <time>2020-10-12T08:45:14Z</time>
      </trkpt>
      <trkpt lat="38.4805190" lon="-0.6357630">
        <ele>543.8</ele>
        <time>2020-10-12T08:45:15Z</time>
      </trkpt>
      <trkpt lat="38.4805750" lon="-0.6357520">
        <ele>544.0</ele>
        <time>2020-10-12T08:45:16Z</time>
      </trkpt>
      <trkpt lat="38.4806290" lon="-0.6357420">
        <ele>544.2</ele>
        <time>2020-10-12T08:45:17Z</time>
      </trkpt>
      <trkpt lat="38.4806850" lon="-0.6357340">
        <ele>544.2</ele>
        <time>2020-10-12T08:45:18Z</time>
      </trkpt>
      <trkpt lat="38.4807420" lon="-0.6357270">
        <ele>544.0</ele>
        <time>2020-10-12T08:45:19Z</time>
      </trkpt>
      <trkpt lat="38.4807970" lon="-0.6357190">
        <ele>544.0</ele>
        <time>2020-10-12T08:45:20Z</time>
      </trkpt>
      <trkpt lat="38.4808510" lon="-0.6357170">
        <ele>544.0</ele>
        <time>2020-10-12T08:45:21Z</time>
      </trkpt>
      <trkpt lat="38.4809050" lon="-0.6357210">
        <ele>544.2</ele>
        <time>2020-10-12T08:45:22Z</time>
      </trkpt>
      <trkpt lat="38.4809590" lon="-0.6357260">
        <ele>544.2</ele>
        <time>2020-10-12T08:45:23Z</time>
      </trkpt>
      <trkpt lat="38.4810140" lon="-0.6357320">
        <ele>544.2</ele>
        <time>2020-10-12T08:45:24Z</time>
      </trkpt>
      <trkpt lat="38.4810670" lon="-0.6357410">
        <ele>544.2</ele>
        <time>2020-10-12T08:45:25Z</time>
      </trkpt>
      <trkpt lat="38.4811170" lon="-0.6357510">
        <ele>544.4</ele>
        <time>2020-10-12T08:45:26Z</time>
      </trkpt>
      <trkpt lat="38.4811690" lon="-0.6357620">
        <ele>544.6</ele>
        <time>2020-10-12T08:45:27Z</time>
      </trkpt>
      <trkpt lat="38.4812230" lon="-0.6357770">
        <ele>544.6</ele>
        <time>2020-10-12T08:45:28Z</time>
      </trkpt>
      <trkpt lat="38.4812810" lon="-0.6357870">
        <ele>544.6</ele>
        <time>2020-10-12T08:45:29Z</time>
      </trkpt>
      <trkpt lat="38.4813430" lon="-0.6357910">
        <ele>544.6</ele>
        <time>2020-10-12T08:45:30Z</time>
      </trkpt>
      <trkpt lat="38.4814030" lon="-0.6357860">
        <ele>544.4</ele>
        <time>2020-10-12T08:45:31Z</time>
      </trkpt>
      <trkpt lat="38.4814650" lon="-0.6357680">
        <ele>544.4</ele>
        <time>2020-10-12T08:45:32Z</time>
      </trkpt>
      <trkpt lat="38.4815270" lon="-0.6357420">
        <ele>544.4</ele>
        <time>2020-10-12T08:45:33Z</time>
      </trkpt>
      <trkpt lat="38.4815920" lon="-0.6357130">
        <ele>544.2</ele>
        <time>2020-10-12T08:45:34Z</time>
      </trkpt>
      <trkpt lat="38.4816540" lon="-0.6356810">
        <ele>544.2</ele>
        <time>2020-10-12T08:45:35Z</time>
      </trkpt>
      <trkpt lat="38.4817160" lon="-0.6356480">
        <ele>544.2</ele>
        <time>2020-10-12T08:45:36Z</time>
      </trkpt>
      <trkpt lat="38.4817770" lon="-0.6356140">
        <ele>544.2</ele>
        <time>2020-10-12T08:45:37Z</time>
      </trkpt>
      <trkpt lat="38.4818400" lon="-0.6355740">
        <ele>543.8</ele>
        <time>2020-10-12T08:45:38Z</time>
      </trkpt>
      <trkpt lat="38.4819030" lon="-0.6355340">
        <ele>543.4</ele>
        <time>2020-10-12T08:45:39Z</time>
      </trkpt>
      <trkpt lat="38.4819660" lon="-0.6354890">
        <ele>543.2</ele>
        <time>2020-10-12T08:45:40Z</time>
      </trkpt>
      <trkpt lat="38.4820250" lon="-0.6354380">
        <ele>543.0</ele>
        <time>2020-10-12T08:45:41Z</time>
      </trkpt>
      <trkpt lat="38.4820810" lon="-0.6353810">
        <ele>542.8</ele>
        <time>2020-10-12T08:45:42Z</time>
      </trkpt>
      <trkpt lat="38.4821310" lon="-0.6353160">
        <ele>542.6</ele>
        <time>2020-10-12T08:45:43Z</time>
      </trkpt>
      <trkpt lat="38.4821760" lon="-0.6352440">
        <ele>542.6</ele>
        <time>2020-10-12T08:45:44Z</time>
      </trkpt>
      <trkpt lat="38.4822130" lon="-0.6351630">
        <ele>542.4</ele>
        <time>2020-10-12T08:45:45Z</time>
      </trkpt>
      <trkpt lat="38.4822470" lon="-0.6350830">
        <ele>542.4</ele>
        <time>2020-10-12T08:45:46Z</time>
      </trkpt>
      <trkpt lat="38.4822730" lon="-0.6350020">
        <ele>542.2</ele>
        <time>2020-10-12T08:45:47Z</time>
      </trkpt>
      <trkpt lat="38.4822930" lon="-0.6349260">
        <ele>542.2</ele>
        <time>2020-10-12T08:45:48Z</time>
      </trkpt>
      <trkpt lat="38.4822960" lon="-0.6348490">
        <ele>542.2</ele>
        <time>2020-10-12T08:45:49Z</time>
      </trkpt>
      <trkpt lat="38.4822810" lon="-0.6347710">
        <ele>542.2</ele>
        <time>2020-10-12T08:45:50Z</time>
      </trkpt>
      <trkpt lat="38.4822500" lon="-0.6347000">
        <ele>542.4</ele>
        <time>2020-10-12T08:45:51Z</time>
      </trkpt>
      <trkpt lat="38.4822070" lon="-0.6346370">
        <ele>542.4</ele>
        <time>2020-10-12T08:45:52Z</time>
      </trkpt>
      <trkpt lat="38.4821600" lon="-0.6345890">
        <ele>542.6</ele>
        <time>2020-10-12T08:45:53Z</time>
      </trkpt>
      <trkpt lat="38.4821070" lon="-0.6345510">
        <ele>542.6</ele>
        <time>2020-10-12T08:45:54Z</time>
      </trkpt>
      <trkpt lat="38.4820520" lon="-0.6345250">
        <ele>542.8</ele>
        <time>2020-10-12T08:45:55Z</time>
      </trkpt>
      <trkpt lat="38.4819960" lon="-0.6345040">
        <ele>543.2</ele>
        <time>2020-10-12T08:45:56Z</time>
      </trkpt>
      <trkpt lat="38.4819410" lon="-0.6344970">
        <ele>543.4</ele>
        <time>2020-10-12T08:45:57Z</time>
      </trkpt>
      <trkpt lat="38.4818880" lon="-0.6345050">
        <ele>543.6</ele>
        <time>2020-10-12T08:45:58Z</time>
      </trkpt>
      <trkpt lat="38.4818370" lon="-0.6345210">
        <ele>544.0</ele>
        <time>2020-10-12T08:45:59Z</time>
      </trkpt>
      <trkpt lat="38.4817900" lon="-0.6345460">
        <ele>544.4</ele>
        <time>2020-10-12T08:46:00Z</time>
      </trkpt>
      <trkpt lat="38.4817440" lon="-0.6345720">
        <ele>544.6</ele>
        <time>2020-10-12T08:46:01Z</time>
      </trkpt>
      <trkpt lat="38.4816940" lon="-0.6345920">
        <ele>544.8</ele>
        <time>2020-10-12T08:46:02Z</time>
      </trkpt>
      <trkpt lat="38.4816450" lon="-0.6346110">
        <ele>545.0</ele>
        <time>2020-10-12T08:46:03Z</time>
      </trkpt>
      <trkpt lat="38.4815950" lon="-0.6346250">
        <ele>545.2</ele>
        <time>2020-10-12T08:46:04Z</time>
      </trkpt>
      <trkpt lat="38.4815440" lon="-0.6346330">
        <ele>545.6</ele>
        <time>2020-10-12T08:46:05Z</time>
      </trkpt>
      <trkpt lat="38.4814890" lon="-0.6346380">
        <ele>546.0</ele>
        <time>2020-10-12T08:46:06Z</time>
      </trkpt>
      <trkpt lat="38.4814340" lon="-0.6346390">
        <ele>546.4</ele>
        <time>2020-10-12T08:46:07Z</time>
      </trkpt>
      <trkpt lat="38.4813810" lon="-0.6346330">
        <ele>546.8</ele>
        <time>2020-10-12T08:46:08Z</time>
      </trkpt>
      <trkpt lat="38.4813310" lon="-0.6346240">
        <ele>547.2</ele>
        <time>2020-10-12T08:46:09Z</time>
      </trkpt>
      <trkpt lat="38.4812830" lon="-0.6346060">
        <ele>547.6</ele>
        <time>2020-10-12T08:46:10Z</time>
      </trkpt>
      <trkpt lat="38.4812340" lon="-0.6345840">
        <ele>548.0</ele>
        <time>2020-10-12T08:46:11Z</time>
      </trkpt>
      <trkpt lat="38.4811860" lon="-0.6345610">
        <ele>548.2</ele>
        <time>2020-10-12T08:46:12Z</time>
      </trkpt>
      <trkpt lat="38.4811390" lon="-0.6345400">
        <ele>548.2</ele>
        <time>2020-10-12T08:46:13Z</time>
      </trkpt>
      <trkpt lat="38.4810940" lon="-0.6345190">
        <ele>548.4</ele>
        <time>2020-10-12T08:46:14Z</time>
      </trkpt>
      <trkpt lat="38.4810520" lon="-0.6344970">
        <ele>548.4</ele>
        <time>2020-10-12T08:46:15Z</time>
      </trkpt>
      <trkpt lat="38.4810120" lon="-0.6344770">
        <ele>548.6</ele>
        <time>2020-10-12T08:46:16Z</time>
      </trkpt>
      <trkpt lat="38.4809710" lon="-0.6344530">
        <ele>548.8</ele>
        <time>2020-10-12T08:46:17Z</time>
      </trkpt>
      <trkpt lat="38.4809290" lon="-0.6344330">
        <ele>549.0</ele>
        <time>2020-10-12T08:46:18Z</time>
      </trkpt>
      <trkpt lat="38.4808870" lon="-0.6344130">
        <ele>549.2</ele>
        <time>2020-10-12T08:46:19Z</time>
      </trkpt>
      <trkpt lat="38.4808470" lon="-0.6343910">
        <ele>549.6</ele>
        <time>2020-10-12T08:46:20Z</time>
      </trkpt>
      <trkpt lat="38.4808090" lon="-0.6343630">
        <ele>549.8</ele>
        <time>2020-10-12T08:46:21Z</time>
      </trkpt>
      <trkpt lat="38.4807750" lon="-0.6343250">
        <ele>550.2</ele>
        <time>2020-10-12T08:46:22Z</time>
      </trkpt>
      <trkpt lat="38.4807500" lon="-0.6342760">
        <ele>550.4</ele>
        <time>2020-10-12T08:46:23Z</time>
      </trkpt>
      <trkpt lat="38.4807340" lon="-0.6342200">
        <ele>550.6</ele>
        <time>2020-10-12T08:46:24Z</time>
      </trkpt>
      <trkpt lat="38.4807260" lon="-0.6341610">
        <ele>550.8</ele>
        <time>2020-10-12T08:46:25Z</time>
      </trkpt>
      <trkpt lat="38.4807240" lon="-0.6341030">
        <ele>551.0</ele>
        <time>2020-10-12T08:46:26Z</time>
      </trkpt>
      <trkpt lat="38.4807300" lon="-0.6340450">
        <ele>551.2</ele>
        <time>2020-10-12T08:46:27Z</time>
      </trkpt>
      <trkpt lat="38.4807380" lon="-0.6339900">
        <ele>551.4</ele>
        <time>2020-10-12T08:46:28Z</time>
      </trkpt>
      <trkpt lat="38.4807480" lon="-0.6339320">
        <ele>551.6</ele>
        <time>2020-10-12T08:46:29Z</time>
      </trkpt>
      <trkpt lat="38.4807590" lon="-0.6338750">
        <ele>551.6</ele>
        <time>2020-10-12T08:46:30Z</time>
      </trkpt>
      <trkpt lat="38.4807710" lon="-0.6338200">
        <ele>551.8</ele>
        <time>2020-10-12T08:46:31Z</time>
      </trkpt>
      <trkpt lat="38.4807880" lon="-0.6337650">
        <ele>552.0</ele>
        <time>2020-10-12T08:46:32Z</time>
      </trkpt>
      <trkpt lat="38.4808050" lon="-0.6337100">
        <ele>552.2</ele>
        <time>2020-10-12T08:46:33Z</time>
      </trkpt>
      <trkpt lat="38.4808250" lon="-0.6336590">
        <ele>552.6</ele>
        <time>2020-10-12T08:46:34Z</time>
      </trkpt>
      <trkpt lat="38.4808420" lon="-0.6336080">
        <ele>552.6</ele>
        <time>2020-10-12T08:46:35Z</time>
      </trkpt>
      <trkpt lat="38.4808530" lon="-0.6335550">
        <ele>552.8</ele>
        <time>2020-10-12T08:46:36Z</time>
      </trkpt>
      <trkpt lat="38.4808690" lon="-0.6335040">
        <ele>552.8</ele>
        <time>2020-10-12T08:46:37Z</time>
      </trkpt>
      <trkpt lat="38.4808860" lon="-0.6334530">
        <ele>553.2</ele>
        <time>2020-10-12T08:46:38Z</time>
      </trkpt>
      <trkpt lat="38.4809030" lon="-0.6334050">
        <ele>553.4</ele>
        <time>2020-10-12T08:46:39Z</time>
      </trkpt>
      <trkpt lat="38.4809210" lon="-0.6333580">
        <ele>554.0</ele>
        <time>2020-10-12T08:46:40Z</time>
      </trkpt>
      <trkpt lat="38.4809370" lon="-0.6333080">
        <ele>554.4</ele>
        <time>2020-10-12T08:46:41Z</time>
      </trkpt>
      <trkpt lat="38.4809500" lon="-0.6332570">
        <ele>554.8</ele>
        <time>2020-10-12T08:46:42Z</time>
      </trkpt>
      <trkpt lat="38.4809650" lon="-0.6332080">
        <ele>555.2</ele>
        <time>2020-10-12T08:46:43Z</time>
      </trkpt>
      <trkpt lat="38.4809780" lon="-0.6331610">
        <ele>555.4</ele>
        <time>2020-10-12T08:46:44Z</time>
      </trkpt>
      <trkpt lat="38.4809840" lon="-0.6331120">
        <ele>555.8</ele>
        <time>2020-10-12T08:46:45Z</time>
      </trkpt>
      <trkpt lat="38.4809830" lon="-0.6330630">
        <ele>556.0</ele>
        <time>2020-10-12T08:46:46Z</time>
      </trkpt>
      <trkpt lat="38.4809760" lon="-0.6330150">
        <ele>556.4</ele>
        <time>2020-10-12T08:46:47Z</time>
      </trkpt>
      <trkpt lat="38.4809670" lon="-0.6329700">
        <ele>556.6</ele>
        <time>2020-10-12T08:46:48Z</time>
      </trkpt>
      <trkpt lat="38.4809530" lon="-0.6329210">
        <ele>556.8</ele>
        <time>2020-10-12T08:46:49Z</time>
      </trkpt>
      <trkpt lat="38.4809370" lon="-0.6328780">
        <ele>557.0</ele>
        <time>2020-10-12T08:46:50Z</time>
      </trkpt>
      <trkpt lat="38.4809130" lon="-0.6328420">
        <ele>557.4</ele>
        <time>2020-10-12T08:46:51Z</time>
      </trkpt>
      <trkpt lat="38.4808790" lon="-0.6328150">
        <ele>557.8</ele>
        <time>2020-10-12T08:46:52Z</time>
      </trkpt>
      <trkpt lat="38.4808410" lon="-0.6327970">
        <ele>558.0</ele>
        <time>2020-10-12T08:46:53Z</time>
      </trkpt>
      <trkpt lat="38.4807990" lon="-0.6327840">
        <ele>558.4</ele>
        <time>2020-10-12T08:46:54Z</time>
      </trkpt>
      <trkpt lat="38.4807570" lon="-0.6327820">
        <ele>558.6</ele>
        <time>2020-10-12T08:46:55Z</time>
      </trkpt>
      <trkpt lat="38.4807160" lon="-0.6327810">
        <ele>558.8</ele>
        <time>2020-10-12T08:46:56Z</time>
      </trkpt>
      <trkpt lat="38.4806770" lon="-0.6327840">
        <ele>559.2</ele>
        <time>2020-10-12T08:46:57Z</time>
      </trkpt>
      <trkpt lat="38.4806400" lon="-0.6327880">
        <ele>559.6</ele>
        <time>2020-10-12T08:46:58Z</time>
      </trkpt>
      <trkpt lat="38.4806010" lon="-0.6327920">
        <ele>559.8</ele>
        <time>2020-10-12T08:46:59Z</time>
      </trkpt>
      <trkpt lat="38.4805640" lon="-0.6327940">
        <ele>560.0</ele>
        <time>2020-10-12T08:47:00Z</time>
      </trkpt>
      <trkpt lat="38.4805250" lon="-0.6327950">
        <ele>560.2</ele>
        <time>2020-10-12T08:47:01Z</time>
      </trkpt>
      <trkpt lat="38.4804840" lon="-0.6327960">
        <ele>560.6</ele>
        <time>2020-10-12T08:47:02Z</time>
      </trkpt>
      <trkpt lat="38.4804400" lon="-0.6327920">
        <ele>561.0</ele>
        <time>2020-10-12T08:47:03Z</time>
      </trkpt>
      <trkpt lat="38.4804000" lon="-0.6327840">
        <ele>561.4</ele>
        <time>2020-10-12T08:47:04Z</time>
      </trkpt>
      <trkpt lat="38.4803610" lon="-0.6327740">
        <ele>561.8</ele>
        <time>2020-10-12T08:47:05Z</time>
      </trkpt>
      <trkpt lat="38.4803260" lon="-0.6327610">
        <ele>562.2</ele>
        <time>2020-10-12T08:47:06Z</time>
      </trkpt>
      <trkpt lat="38.4802930" lon="-0.6327400">
        <ele>562.4</ele>
        <time>2020-10-12T08:47:07Z</time>
      </trkpt>
      <trkpt lat="38.4802640" lon="-0.6327120">
        <ele>562.6</ele>
        <time>2020-10-12T08:47:08Z</time>
      </trkpt>
      <trkpt lat="38.4802390" lon="-0.6326760">
        <ele>562.6</ele>
        <time>2020-10-12T08:47:09Z</time>
      </trkpt>
      <trkpt lat="38.4802210" lon="-0.6326340">
        <ele>562.6</ele>
        <time>2020-10-12T08:47:10Z</time>
      </trkpt>
      <trkpt lat="38.4802110" lon="-0.6325850">
        <ele>562.8</ele>
        <time>2020-10-12T08:47:11Z</time>
      </trkpt>
      <trkpt lat="38.4802090" lon="-0.6325370">
        <ele>562.8</ele>
        <time>2020-10-12T08:47:12Z</time>
      </trkpt>
      <trkpt lat="38.4802070" lon="-0.6324880">
        <ele>563.2</ele>
        <time>2020-10-12T08:47:13Z</time>
      </trkpt>
      <trkpt lat="38.4802080" lon="-0.6324390">
        <ele>563.6</ele>
        <time>2020-10-12T08:47:14Z</time>
      </trkpt>
      <trkpt lat="38.4802120" lon="-0.6323950">
        <ele>564.0</ele>
        <time>2020-10-12T08:47:15Z</time>
      </trkpt>
      <trkpt lat="38.4802180" lon="-0.6323540">
        <ele>564.6</ele>
        <time>2020-10-12T08:47:16Z</time>
      </trkpt>
      <trkpt lat="38.4802240" lon="-0.6323080">
        <ele>565.0</ele>
        <time>2020-10-12T08:47:17Z</time>
      </trkpt>
      <trkpt lat="38.4802300" lon="-0.6322660">
        <ele>565.6</ele>
        <time>2020-10-12T08:47:18Z</time>
      </trkpt>
      <trkpt lat="38.4802360" lon="-0.6322240">
        <ele>566.0</ele>
        <time>2020-10-12T08:47:19Z</time>
      </trkpt>
      <trkpt lat="38.4802420" lon="-0.6321840">
        <ele>566.4</ele>
        <time>2020-10-12T08:47:20Z</time>
      </trkpt>
      <trkpt lat="38.4802510" lon="-0.6321480">
        <ele>566.6</ele>
        <time>2020-10-12T08:47:21Z</time>
      </trkpt>
      <trkpt lat="38.4802580" lon="-0.6320930">
        <ele>566.8</ele>
        <time>2020-10-12T08:47:22Z</time>
      </trkpt>
      <trkpt lat="38.4802630" lon="-0.6320470">
        <ele>566.8</ele>
        <time>2020-10-12T08:47:23Z</time>
      </trkpt>
      <trkpt lat="38.4802680" lon="-0.6320040">
        <ele>566.8</ele>
        <time>2020-10-12T08:47:24Z</time>
      </trkpt>
      <trkpt lat="38.4802690" lon="-0.6319560">
        <ele>567.0</ele>
        <time>2020-10-12T08:47:25Z</time>
      </trkpt>
      <trkpt lat="38.4802750" lon="-0.6319140">
        <ele>567.2</ele>
        <time>2020-10-12T08:47:26Z</time>
      </trkpt>
      <trkpt lat="38.4802820" lon="-0.6318730">
        <ele>567.6</ele>
        <time>2020-10-12T08:47:27Z</time>
      </trkpt>
      <trkpt lat="38.4802900" lon="-0.6318320">
        <ele>568.6</ele>
        <time>2020-10-12T08:47:28Z</time>
      </trkpt>
      <trkpt lat="38.4803040" lon="-0.6317940">
        <ele>569.6</ele>
        <time>2020-10-12T08:47:29Z</time>
      </trkpt>
      <trkpt lat="38.4803220" lon="-0.6317540">
        <ele>570.2</ele>
        <time>2020-10-12T08:47:30Z</time>
      </trkpt>
      <trkpt lat="38.4803430" lon="-0.6317180">
        <ele>570.6</ele>
        <time>2020-10-12T08:47:31Z</time>
      </trkpt>
      <trkpt lat="38.4803680" lon="-0.6316850">
        <ele>570.6</ele>
        <time>2020-10-12T08:47:32Z</time>
      </trkpt>
      <trkpt lat="38.4803950" lon="-0.6316560">
        <ele>570.8</ele>
        <time>2020-10-12T08:47:33Z</time>
      </trkpt>
      <trkpt lat="38.4804240" lon="-0.6316330">
        <ele>570.8</ele>
        <time>2020-10-12T08:47:34Z</time>
      </trkpt>
      <trkpt lat="38.4804570" lon="-0.6316060">
        <ele>571.0</ele>
        <time>2020-10-12T08:47:35Z</time>
      </trkpt>
      <trkpt lat="38.4804930" lon="-0.6315860">
        <ele>571.2</ele>
        <time>2020-10-12T08:47:36Z</time>
      </trkpt>
      <trkpt lat="38.4805290" lon="-0.6315700">
        <ele>571.4</ele>
        <time>2020-10-12T08:47:37Z</time>
      </trkpt>
      <trkpt lat="38.4805690" lon="-0.6315580">
        <ele>571.6</ele>
        <time>2020-10-12T08:47:38Z</time>
      </trkpt>
      <trkpt lat="38.4806110" lon="-0.6315490">
        <ele>572.0</ele>
        <time>2020-10-12T08:47:39Z</time>
      </trkpt>
      <trkpt lat="38.4806530" lon="-0.6315400">
        <ele>572.0</ele>
        <time>2020-10-12T08:47:40Z</time>
      </trkpt>
      <trkpt lat="38.4806930" lon="-0.6315340">
        <ele>572.2</ele>
        <time>2020-10-12T08:47:41Z</time>
      </trkpt>
      <trkpt lat="38.4807340" lon="-0.6315330">
        <ele>572.2</ele>
        <time>2020-10-12T08:47:42Z</time>
      </trkpt>
      <trkpt lat="38.4807770" lon="-0.6315340">
        <ele>572.4</ele>
        <time>2020-10-12T08:47:43Z</time>
      </trkpt>
      <trkpt lat="38.4808350" lon="-0.6315550">
        <ele>572.6</ele>
        <time>2020-10-12T08:47:44Z</time>
      </trkpt>
      <trkpt lat="38.4808870" lon="-0.6315640">
        <ele>572.6</ele>
        <time>2020-10-12T08:47:45Z</time>
      </trkpt>
      <trkpt lat="38.4809410" lon="-0.6315720">
        <ele>572.6</ele>
        <time>2020-10-12T08:47:46Z</time>
      </trkpt>
      <trkpt lat="38.4809940" lon="-0.6315770">
        <ele>572.4</ele>
        <time>2020-10-12T08:47:47Z</time>
      </trkpt>
      <trkpt lat="38.4810470" lon="-0.6315810">
        <ele>572.2</ele>
        <time>2020-10-12T08:47:48Z</time>
      </trkpt>
      <trkpt lat="38.4811050" lon="-0.6315910">
        <ele>572.0</ele>
        <time>2020-10-12T08:47:49Z</time>
      </trkpt>
      <trkpt lat="38.4811610" lon="-0.6315990">
        <ele>571.6</ele>
        <time>2020-10-12T08:47:50Z</time>
      </trkpt>
      <trkpt lat="38.4812210" lon="-0.6316110">
        <ele>571.4</ele>
        <time>2020-10-12T08:47:51Z</time>
      </trkpt>
      <trkpt lat="38.4812850" lon="-0.6316190">
        <ele>571.4</ele>
        <time>2020-10-12T08:47:52Z</time>
      </trkpt>
      <trkpt lat="38.4813460" lon="-0.6316220">
        <ele>571.2</ele>
        <time>2020-10-12T08:47:53Z</time>
      </trkpt>
      <trkpt lat="38.4814070" lon="-0.6316230">
        <ele>571.0</ele>
        <time>2020-10-12T08:47:54Z</time>
      </trkpt>
      <trkpt lat="38.4814680" lon="-0.6316150">
        <ele>570.6</ele>
        <time>2020-10-12T08:47:55Z</time>
      </trkpt>
      <trkpt lat="38.4815350" lon="-0.6315950">
        <ele>570.4</ele>
        <time>2020-10-12T08:47:56Z</time>
      </trkpt>
      <trkpt lat="38.4816070" lon="-0.6315600">
        <ele>570.2</ele>
        <time>2020-10-12T08:47:57Z</time>
      </trkpt>
      <trkpt lat="38.4816690" lon="-0.6315090">
        <ele>570.0</ele>
        <time>2020-10-12T08:47:58Z</time>
      </trkpt>
      <trkpt lat="38.4817220" lon="-0.6314440">
        <ele>569.8</ele>
        <time>2020-10-12T08:47:59Z</time>
      </trkpt>
      <trkpt lat="38.4817640" lon="-0.6313730">
        <ele>569.8</ele>
        <time>2020-10-12T08:48:00Z</time>
      </trkpt>
      <trkpt lat="38.4818050" lon="-0.6313030">
        <ele>569.8</ele>
        <time>2020-10-12T08:48:01Z</time>
      </trkpt>
      <trkpt lat="38.4818460" lon="-0.6312320">
        <ele>570.0</ele>
        <time>2020-10-12T08:48:02Z</time>
      </trkpt>
      <trkpt lat="38.4818840" lon="-0.6311640">
        <ele>570.2</ele>
        <time>2020-10-12T08:48:03Z</time>
      </trkpt>
      <trkpt lat="38.4819250" lon="-0.6310970">
        <ele>570.4</ele>
        <time>2020-10-12T08:48:04Z</time>
      </trkpt>
      <trkpt lat="38.4819660" lon="-0.6310340">
        <ele>570.4</ele>
        <time>2020-10-12T08:48:05Z</time>
      </trkpt>
      <trkpt lat="38.4820150" lon="-0.6309830">
        <ele>570.2</ele>
        <time>2020-10-12T08:48:06Z</time>
      </trkpt>
      <trkpt lat="38.4820650" lon="-0.6309350">
        <ele>570.2</ele>
        <time>2020-10-12T08:48:07Z</time>
      </trkpt>
      <trkpt lat="38.4821150" lon="-0.6308890">
        <ele>570.2</ele>
        <time>2020-10-12T08:48:08Z</time>
      </trkpt>
      <trkpt lat="38.4821670" lon="-0.6308470">
        <ele>570.0</ele>
        <time>2020-10-12T08:48:09Z</time>
      </trkpt>
      <trkpt lat="38.4822200" lon="-0.6308070">
        <ele>569.6</ele>
        <time>2020-10-12T08:48:10Z</time>
      </trkpt>
      <trkpt lat="38.4822730" lon="-0.6307660">
        <ele>569.2</ele>
        <time>2020-10-12T08:48:11Z</time>
      </trkpt>
      <trkpt lat="38.4823260" lon="-0.6307250">
        <ele>569.0</ele>
        <time>2020-10-12T08:48:12Z</time>
      </trkpt>
      <trkpt lat="38.4823800" lon="-0.6306840">
        <ele>569.0</ele>
        <time>2020-10-12T08:48:13Z</time>
      </trkpt>
      <trkpt lat="38.4824360" lon="-0.6306480">
        <ele>568.8</ele>
        <time>2020-10-12T08:48:14Z</time>
      </trkpt>
      <trkpt lat="38.4824830" lon="-0.6306030">
        <ele>569.0</ele>
        <time>2020-10-12T08:48:15Z</time>
      </trkpt>
      <trkpt lat="38.4825300" lon="-0.6305530">
        <ele>569.2</ele>
        <time>2020-10-12T08:48:16Z</time>
      </trkpt>
      <trkpt lat="38.4825730" lon="-0.6304970">
        <ele>569.4</ele>
        <time>2020-10-12T08:48:17Z</time>
      </trkpt>
      <trkpt lat="38.4826120" lon="-0.6304400">
        <ele>569.8</ele>
        <time>2020-10-12T08:48:18Z</time>
      </trkpt>
      <trkpt lat="38.4826440" lon="-0.6303770">
        <ele>570.2</ele>
        <time>2020-10-12T08:48:19Z</time>
      </trkpt>
      <trkpt lat="38.4826650" lon="-0.6303030">
        <ele>570.6</ele>
        <time>2020-10-12T08:48:20Z</time>
      </trkpt>
      <trkpt lat="38.4826840" lon="-0.6302380">
        <ele>571.0</ele>
        <time>2020-10-12T08:48:21Z</time>
      </trkpt>
      <trkpt lat="38.4827060" lon="-0.6301800">
        <ele>571.2</ele>
        <time>2020-10-12T08:48:22Z</time>
      </trkpt>
      <trkpt lat="38.4827260" lon="-0.6301180">
        <ele>571.2</ele>
        <time>2020-10-12T08:48:23Z</time>
      </trkpt>
      <trkpt lat="38.4827470" lon="-0.6300590">
        <ele>571.6</ele>
        <time>2020-10-12T08:48:24Z</time>
      </trkpt>
      <trkpt lat="38.4827680" lon="-0.6300040">
        <ele>571.8</ele>
        <time>2020-10-12T08:48:25Z</time>
      </trkpt>
      <trkpt lat="38.4827870" lon="-0.6299470">
        <ele>572.2</ele>
        <time>2020-10-12T08:48:26Z</time>
      </trkpt>
      <trkpt lat="38.4828040" lon="-0.6298870">
        <ele>573.0</ele>
        <time>2020-10-12T08:48:27Z</time>
      </trkpt>
      <trkpt lat="38.4828180" lon="-0.6298300">
        <ele>573.8</ele>
        <time>2020-10-12T08:48:28Z</time>
      </trkpt>
      <trkpt lat="38.4828340" lon="-0.6297740">
        <ele>574.2</ele>
        <time>2020-10-12T08:48:29Z</time>
      </trkpt>
      <trkpt lat="38.4828540" lon="-0.6297190">
        <ele>574.6</ele>
        <time>2020-10-12T08:48:30Z</time>
      </trkpt>
      <trkpt lat="38.4828750" lon="-0.6296640">
        <ele>574.8</ele>
        <time>2020-10-12T08:48:31Z</time>
      </trkpt>
      <trkpt lat="38.4828970" lon="-0.6296080">
        <ele>574.8</ele>
        <time>2020-10-12T08:48:32Z</time>
      </trkpt>
      <trkpt lat="38.4829180" lon="-0.6295560">
        <ele>574.8</ele>
        <time>2020-10-12T08:48:33Z</time>
      </trkpt>
      <trkpt lat="38.4829360" lon="-0.6295010">
        <ele>575.0</ele>
        <time>2020-10-12T08:48:34Z</time>
      </trkpt>
      <trkpt lat="38.4829560" lon="-0.6294470">
        <ele>575.0</ele>
        <time>2020-10-12T08:48:35Z</time>
      </trkpt>
      <trkpt lat="38.4829790" lon="-0.6293940">
        <ele>575.2</ele>
        <time>2020-10-12T08:48:36Z</time>
      </trkpt>
      <trkpt lat="38.4830000" lon="-0.6293420">
        <ele>575.6</ele>
        <time>2020-10-12T08:48:37Z</time>
      </trkpt>
      <trkpt lat="38.4830220" lon="-0.6292890">
        <ele>575.8</ele>
        <time>2020-10-12T08:48:38Z</time>
      </trkpt>
      <trkpt lat="38.4830410" lon="-0.6292350">
        <ele>576.2</ele>
        <time>2020-10-12T08:48:39Z</time>
      </trkpt>
      <trkpt lat="38.4830600" lon="-0.6291820">
        <ele>576.4</ele>
        <time>2020-10-12T08:48:40Z</time>
      </trkpt>
      <trkpt lat="38.4830810" lon="-0.6291290">
        <ele>576.6</ele>
        <time>2020-10-12T08:48:41Z</time>
      </trkpt>
      <trkpt lat="38.4831010" lon="-0.6290750">
        <ele>577.0</ele>
        <time>2020-10-12T08:48:42Z</time>
      </trkpt>
      <trkpt lat="38.4831200" lon="-0.6290180">
        <ele>577.4</ele>
        <time>2020-10-12T08:48:43Z</time>
      </trkpt>
      <trkpt lat="38.4831400" lon="-0.6289610">
        <ele>577.6</ele>
        <time>2020-10-12T08:48:44Z</time>
      </trkpt>
      <trkpt lat="38.4831610" lon="-0.6289050">
        <ele>577.8</ele>
        <time>2020-10-12T08:48:45Z</time>
      </trkpt>
      <trkpt lat="38.4831800" lon="-0.6288440">
        <ele>578.0</ele>
        <time>2020-10-12T08:48:46Z</time>
      </trkpt>
      <trkpt lat="38.4832010" lon="-0.6287850">
        <ele>578.4</ele>
        <time>2020-10-12T08:48:47Z</time>
      </trkpt>
      <trkpt lat="38.4832210" lon="-0.6287300">
        <ele>578.6</ele>
        <time>2020-10-12T08:48:48Z</time>
      </trkpt>
      <trkpt lat="38.4832410" lon="-0.6286760">
        <ele>579.0</ele>
        <time>2020-10-12T08:48:49Z</time>
      </trkpt>
      <trkpt lat="38.4832630" lon="-0.6286220">
        <ele>579.4</ele>
        <time>2020-10-12T08:48:50Z</time>
      </trkpt>
      <trkpt lat="38.4832830" lon="-0.6285680">
        <ele>579.8</ele>
        <time>2020-10-12T08:48:51Z</time>
      </trkpt>
      <trkpt lat="38.4833030" lon="-0.6285140">
        <ele>580.0</ele>
        <time>2020-10-12T08:48:52Z</time>
      </trkpt>
      <trkpt lat="38.4833230" lon="-0.6284630">
        <ele>580.2</ele>
        <time>2020-10-12T08:48:53Z</time>
      </trkpt>
      <trkpt lat="38.4833430" lon="-0.6284100">
        <ele>580.2</ele>
        <time>2020-10-12T08:48:54Z</time>
      </trkpt>
      <trkpt lat="38.4833650" lon="-0.6283570">
        <ele>580.4</ele>
        <time>2020-10-12T08:48:55Z</time>
      </trkpt>
      <trkpt lat="38.4833890" lon="-0.6283100">
        <ele>580.4</ele>
        <time>2020-10-12T08:48:56Z</time>
      </trkpt>
      <trkpt lat="38.4834130" lon="-0.6282610">
        <ele>580.4</ele>
        <time>2020-10-12T08:48:57Z</time>
      </trkpt>
      <trkpt lat="38.4834350" lon="-0.6282090">
        <ele>580.6</ele>
        <time>2020-10-12T08:48:58Z</time>
      </trkpt>
      <trkpt lat="38.4834560" lon="-0.6281580">
        <ele>580.8</ele>
        <time>2020-10-12T08:48:59Z</time>
      </trkpt>
      <trkpt lat="38.4834750" lon="-0.6281040">
        <ele>581.2</ele>
        <time>2020-10-12T08:49:00Z</time>
      </trkpt>
      <trkpt lat="38.4834950" lon="-0.6280470">
        <ele>581.8</ele>
        <time>2020-10-12T08:49:01Z</time>
      </trkpt>
      <trkpt lat="38.4835150" lon="-0.6279910">
        <ele>582.4</ele>
        <time>2020-10-12T08:49:02Z</time>
      </trkpt>
      <trkpt lat="38.4835350" lon="-0.6279400">
        <ele>582.8</ele>
        <time>2020-10-12T08:49:03Z</time>
      </trkpt>
      <trkpt lat="38.4835540" lon="-0.6278870">
        <ele>583.2</ele>
        <time>2020-10-12T08:49:04Z</time>
      </trkpt>
      <trkpt lat="38.4835740" lon="-0.6278350">
        <ele>583.4</ele>
        <time>2020-10-12T08:49:05Z</time>
      </trkpt>
      <trkpt lat="38.4835900" lon="-0.6277840">
        <ele>583.4</ele>
        <time>2020-10-12T08:49:06Z</time>
      </trkpt>
      <trkpt lat="38.4836050" lon="-0.6277320">
        <ele>583.4</ele>
        <time>2020-10-12T08:49:07Z</time>
      </trkpt>
      <trkpt lat="38.4836160" lon="-0.6276740">
        <ele>583.6</ele>
        <time>2020-10-12T08:49:08Z</time>
      </trkpt>
      <trkpt lat="38.4836180" lon="-0.6276060">
        <ele>583.8</ele>
        <time>2020-10-12T08:49:09Z</time>
      </trkpt>
      <trkpt lat="38.4836160" lon="-0.6275410">
        <ele>583.8</ele>
        <time>2020-10-12T08:49:10Z</time>
      </trkpt>
      <trkpt lat="38.4836110" lon="-0.6274780">
        <ele>584.0</ele>
        <time>2020-10-12T08:49:11Z</time>
      </trkpt>
      <trkpt lat="38.4836070" lon="-0.6274160">
        <ele>584.2</ele>
        <time>2020-10-12T08:49:12Z</time>
      </trkpt>
      <trkpt lat="38.4836020" lon="-0.6273570">
        <ele>584.2</ele>
        <time>2020-10-12T08:49:13Z</time>
      </trkpt>
      <trkpt lat="38.4835960" lon="-0.6273000">
        <ele>584.2</ele>
        <time>2020-10-12T08:49:14Z</time>
      </trkpt>
      <trkpt lat="38.4835950" lon="-0.6272450">
        <ele>584.4</ele>
        <time>2020-10-12T08:49:15Z</time>
      </trkpt>
      <trkpt lat="38.4835940" lon="-0.6271870">
        <ele>584.6</ele>
        <time>2020-10-12T08:49:16Z</time>
      </trkpt>
      <trkpt lat="38.4835950" lon="-0.6271300">
        <ele>584.6</ele>
        <time>2020-10-12T08:49:17Z</time>
      </trkpt>
      <trkpt lat="38.4835940" lon="-0.6270750">
        <ele>584.8</ele>
        <time>2020-10-12T08:49:18Z</time>
      </trkpt>
      <trkpt lat="38.4835940" lon="-0.6270170">
        <ele>585.0</ele>
        <time>2020-10-12T08:49:19Z</time>
      </trkpt>
      <trkpt lat="38.4835970" lon="-0.6269600">
        <ele>585.4</ele>
        <time>2020-10-12T08:49:20Z</time>
      </trkpt>
      <trkpt lat="38.4836020" lon="-0.6269090">
        <ele>585.6</ele>
        <time>2020-10-12T08:49:21Z</time>
      </trkpt>
      <trkpt lat="38.4836060" lon="-0.6268520">
        <ele>586.0</ele>
        <time>2020-10-12T08:49:22Z</time>
      </trkpt>
      <trkpt lat="38.4836120" lon="-0.6267990">
        <ele>586.2</ele>
        <time>2020-10-12T08:49:23Z</time>
      </trkpt>
      <trkpt lat="38.4836160" lon="-0.6267470">
        <ele>586.4</ele>
        <time>2020-10-12T08:49:24Z</time>
      </trkpt>
      <trkpt lat="38.4836200" lon="-0.6266920">
        <ele>586.8</ele>
        <time>2020-10-12T08:49:25Z</time>
      </trkpt>
      <trkpt lat="38.4836230" lon="-0.6266350">
        <ele>587.0</ele>
        <time>2020-10-12T08:49:26Z</time>
      </trkpt>
      <trkpt lat="38.4836250" lon="-0.6265770">
        <ele>587.2</ele>
        <time>2020-10-12T08:49:27Z</time>
      </trkpt>
      <trkpt lat="38.4836230" lon="-0.6265180">
        <ele>587.4</ele>
        <time>2020-10-12T08:49:28Z</time>
      </trkpt>
      <trkpt lat="38.4836180" lon="-0.6264600">
        <ele>587.6</ele>
        <time>2020-10-12T08:49:29Z</time>
      </trkpt>
      <trkpt lat="38.4836100" lon="-0.6264040">
        <ele>587.6</ele>
        <time>2020-10-12T08:49:30Z</time>
      </trkpt>
      <trkpt lat="38.4836020" lon="-0.6263460">
        <ele>587.4</ele>
        <time>2020-10-12T08:49:31Z</time>
      </trkpt>
      <trkpt lat="38.4835970" lon="-0.6262920">
        <ele>587.4</ele>
        <time>2020-10-12T08:49:32Z</time>
      </trkpt>
      <trkpt lat="38.4835960" lon="-0.6262400">
        <ele>587.6</ele>
        <time>2020-10-12T08:49:33Z</time>
      </trkpt>
      <trkpt lat="38.4835990" lon="-0.6261860">
        <ele>587.8</ele>
        <time>2020-10-12T08:49:34Z</time>
      </trkpt>
      <trkpt lat="38.4836070" lon="-0.6261320">
        <ele>587.8</ele>
        <time>2020-10-12T08:49:35Z</time>
      </trkpt>
      <trkpt lat="38.4836180" lon="-0.6260770">
        <ele>588.0</ele>
        <time>2020-10-12T08:49:36Z</time>
      </trkpt>
      <trkpt lat="38.4836340" lon="-0.6260230">
        <ele>588.0</ele>
        <time>2020-10-12T08:49:37Z</time>
      </trkpt>
      <trkpt lat="38.4836550" lon="-0.6259720">
        <ele>588.4</ele>
        <time>2020-10-12T08:49:38Z</time>
      </trkpt>
      <trkpt lat="38.4836760" lon="-0.6259210">
        <ele>588.8</ele>
        <time>2020-10-12T08:49:39Z</time>
      </trkpt>
      <trkpt lat="38.4836970" lon="-0.6258690">
        <ele>589.2</ele>
        <time>2020-10-12T08:49:40Z</time>
      </trkpt>
      <trkpt lat="38.4837180" lon="-0.6258210">
        <ele>589.6</ele>
        <time>2020-10-12T08:49:41Z</time>
      </trkpt>
      <trkpt lat="38.4837410" lon="-0.6257730">
        <ele>589.6</ele>
        <time>2020-10-12T08:49:42Z</time>
      </trkpt>
      <trkpt lat="38.4837640" lon="-0.6257230">
        <ele>589.6</ele>
        <time>2020-10-12T08:49:43Z</time>
      </trkpt>
      <trkpt lat="38.4837830" lon="-0.6256720">
        <ele>589.8</ele>
        <time>2020-10-12T08:49:44Z</time>
      </trkpt>
      <trkpt lat="38.4838000" lon="-0.6256210">
        <ele>589.8</ele>
        <time>2020-10-12T08:49:45Z</time>
      </trkpt>
      <trkpt lat="38.4838160" lon="-0.6255730">
        <ele>590.0</ele>
        <time>2020-10-12T08:49:46Z</time>
      </trkpt>
      <trkpt lat="38.4838300" lon="-0.6255230">
        <ele>590.0</ele>
        <time>2020-10-12T08:49:47Z</time>
      </trkpt>
      <trkpt lat="38.4838390" lon="-0.6254720">
        <ele>590.0</ele>
        <time>2020-10-12T08:49:48Z</time>
      </trkpt>
      <trkpt lat="38.4838520" lon="-0.6254250">
        <ele>590.0</ele>
        <time>2020-10-12T08:49:49Z</time>
      </trkpt>
      <trkpt lat="38.4838670" lon="-0.6253780">
        <ele>590.2</ele>
        <time>2020-10-12T08:49:50Z</time>
      </trkpt>
      <trkpt lat="38.4838820" lon="-0.6253290">
        <ele>590.2</ele>
        <time>2020-10-12T08:49:51Z</time>
      </trkpt>
      <trkpt lat="38.4838980" lon="-0.6252790">
        <ele>590.2</ele>
        <time>2020-10-12T08:49:52Z</time>
      </trkpt>
      <trkpt lat="38.4839120" lon="-0.6252320">
        <ele>590.2</ele>
        <time>2020-10-12T08:49:53Z</time>
      </trkpt>
      <trkpt lat="38.4839250" lon="-0.6251860">
        <ele>590.4</ele>
        <time>2020-10-12T08:49:54Z</time>
      </trkpt>
      <trkpt lat="38.4839360" lon="-0.6251390">
        <ele>591.2</ele>
        <time>2020-10-12T08:49:55Z</time>
      </trkpt>
      <trkpt lat="38.4839500" lon="-0.6250930">
        <ele>592.4</ele>
        <time>2020-10-12T08:49:56Z</time>
      </trkpt>
      <trkpt lat="38.4839640" lon="-0.6250460">
        <ele>593.4</ele>
        <time>2020-10-12T08:49:57Z</time>
      </trkpt>
      <trkpt lat="38.4839770" lon="-0.6249940">
        <ele>594.2</ele>
        <time>2020-10-12T08:49:58Z</time>
      </trkpt>
      <trkpt lat="38.4839910" lon="-0.6249470">
        <ele>594.4</ele>
        <time>2020-10-12T08:49:59Z</time>
      </trkpt>
      <trkpt lat="38.4840040" lon="-0.6248970">
        <ele>594.6</ele>
        <time>2020-10-12T08:50:00Z</time>
      </trkpt>
      <trkpt lat="38.4840160" lon="-0.6248490">
        <ele>594.6</ele>
        <time>2020-10-12T08:50:01Z</time>
      </trkpt>
      <trkpt lat="38.4840270" lon="-0.6248040">
        <ele>594.8</ele>
        <time>2020-10-12T08:50:02Z</time>
      </trkpt>
      <trkpt lat="38.4840410" lon="-0.6247570">
        <ele>594.8</ele>
        <time>2020-10-12T08:50:03Z</time>
      </trkpt>
      <trkpt lat="38.4840570" lon="-0.6247050">
        <ele>595.0</ele>
        <time>2020-10-12T08:50:04Z</time>
      </trkpt>
      <trkpt lat="38.4840730" lon="-0.6246580">
        <ele>595.0</ele>
        <time>2020-10-12T08:50:05Z</time>
      </trkpt>
      <trkpt lat="38.4840880" lon="-0.6246090">
        <ele>595.2</ele>
        <time>2020-10-12T08:50:06Z</time>
      </trkpt>
      <trkpt lat="38.4841010" lon="-0.6245600">
        <ele>595.4</ele>
        <time>2020-10-12T08:50:07Z</time>
      </trkpt>
      <trkpt lat="38.4841100" lon="-0.6244980">
        <ele>595.8</ele>
        <time>2020-10-12T08:50:08Z</time>
      </trkpt>
      <trkpt lat="38.4841220" lon="-0.6244430">
        <ele>595.8</ele>
        <time>2020-10-12T08:50:09Z</time>
      </trkpt>
      <trkpt lat="38.4841340" lon="-0.6243910">
        <ele>596.0</ele>
        <time>2020-10-12T08:50:10Z</time>
      </trkpt>
      <trkpt lat="38.4841450" lon="-0.6243400">
        <ele>596.0</ele>
        <time>2020-10-12T08:50:11Z</time>
      </trkpt>
      <trkpt lat="38.4841550" lon="-0.6242890">
        <ele>596.2</ele>
        <time>2020-10-12T08:50:12Z</time>
      </trkpt>
      <trkpt lat="38.4841640" lon="-0.6242370">
        <ele>596.2</ele>
        <time>2020-10-12T08:50:13Z</time>
      </trkpt>
      <trkpt lat="38.4841720" lon="-0.6241840">
        <ele>596.2</ele>
        <time>2020-10-12T08:50:14Z</time>
      </trkpt>
      <trkpt lat="38.4841810" lon="-0.6241330">
        <ele>596.4</ele>
        <time>2020-10-12T08:50:15Z</time>
      </trkpt>
      <trkpt lat="38.4841890" lon="-0.6240820">
        <ele>596.6</ele>
        <time>2020-10-12T08:50:16Z</time>
      </trkpt>
      <trkpt lat="38.4841960" lon="-0.6240350">
        <ele>597.0</ele>
        <time>2020-10-12T08:50:17Z</time>
      </trkpt>
      <trkpt lat="38.4842020" lon="-0.6239860">
        <ele>597.6</ele>
        <time>2020-10-12T08:50:18Z</time>
      </trkpt>
      <trkpt lat="38.4842100" lon="-0.6239360">
        <ele>598.0</ele>
        <time>2020-10-12T08:50:19Z</time>
      </trkpt>
      <trkpt lat="38.4842180" lon="-0.6238830">
        <ele>598.2</ele>
        <time>2020-10-12T08:50:20Z</time>
      </trkpt>
      <trkpt lat="38.4842240" lon="-0.6238330">
        <ele>598.4</ele>
        <time>2020-10-12T08:50:21Z</time>
      </trkpt>
      <trkpt lat="38.4842320" lon="-0.6237840">
        <ele>598.4</ele>
        <time>2020-10-12T08:50:22Z</time>
      </trkpt>
      <trkpt lat="38.4842400" lon="-0.6237330">
        <ele>598.4</ele>
        <time>2020-10-12T08:50:23Z</time>
      </trkpt>
      <trkpt lat="38.4842480" lon="-0.6236810">
        <ele>598.2</ele>
        <time>2020-10-12T08:50:24Z</time>
      </trkpt>
      <trkpt lat="38.4842560" lon="-0.6236270">
        <ele>598.4</ele>
        <time>2020-10-12T08:50:25Z</time>
      </trkpt>
      <trkpt lat="38.4842600" lon="-0.6235680">
        <ele>598.4</ele>
        <time>2020-10-12T08:50:26Z</time>
      </trkpt>
      <trkpt lat="38.4842610" lon="-0.6235050">
        <ele>598.4</ele>
        <time>2020-10-12T08:50:27Z</time>
      </trkpt>
      <trkpt lat="38.4842600" lon="-0.6234440">
        <ele>598.6</ele>
        <time>2020-10-12T08:50:28Z</time>
      </trkpt>
      <trkpt lat="38.4842570" lon="-0.6233840">
        <ele>599.0</ele>
        <time>2020-10-12T08:50:29Z</time>
      </trkpt>
      <trkpt lat="38.4842560" lon="-0.6233250">
        <ele>599.2</ele>
        <time>2020-10-12T08:50:30Z</time>
      </trkpt>
      <trkpt lat="38.4842560" lon="-0.6232630">
        <ele>599.6</ele>
        <time>2020-10-12T08:50:31Z</time>
      </trkpt>
      <trkpt lat="38.4842560" lon="-0.6232020">
        <ele>599.8</ele>
        <time>2020-10-12T08:50:32Z</time>
      </trkpt>
      <trkpt lat="38.4842570" lon="-0.6231410">
        <ele>600.0</ele>
        <time>2020-10-12T08:50:33Z</time>
      </trkpt>
      <trkpt lat="38.4842580" lon="-0.6230830">
        <ele>600.2</ele>
        <time>2020-10-12T08:50:34Z</time>
      </trkpt>
      <trkpt lat="38.4842630" lon="-0.6230250">
        <ele>600.6</ele>
        <time>2020-10-12T08:50:35Z</time>
      </trkpt>
      <trkpt lat="38.4842720" lon="-0.6229700">
        <ele>601.2</ele>
        <time>2020-10-12T08:50:36Z</time>
      </trkpt>
      <trkpt lat="38.4842860" lon="-0.6229180">
        <ele>601.6</ele>
        <time>2020-10-12T08:50:37Z</time>
      </trkpt>
      <trkpt lat="38.4843030" lon="-0.6228670">
        <ele>602.0</ele>
        <time>2020-10-12T08:50:38Z</time>
      </trkpt>
      <trkpt lat="38.4843210" lon="-0.6228170">
        <ele>602.4</ele>
        <time>2020-10-12T08:50:39Z</time>
      </trkpt>
      <trkpt lat="38.4843420" lon="-0.6227740">
        <ele>602.8</ele>
        <time>2020-10-12T08:50:40Z</time>
      </trkpt>
      <trkpt lat="38.4843660" lon="-0.6227300">
        <ele>603.2</ele>
        <time>2020-10-12T08:50:41Z</time>
      </trkpt>
      <trkpt lat="38.4843910" lon="-0.6226850">
        <ele>603.4</ele>
        <time>2020-10-12T08:50:42Z</time>
      </trkpt>
      <trkpt lat="38.4844160" lon="-0.6226400">
        <ele>603.6</ele>
        <time>2020-10-12T08:50:43Z</time>
      </trkpt>
      <trkpt lat="38.4844440" lon="-0.6225950">
        <ele>603.6</ele>
        <time>2020-10-12T08:50:44Z</time>
      </trkpt>
      <trkpt lat="38.4844740" lon="-0.6225550">
        <ele>603.8</ele>
        <time>2020-10-12T08:50:45Z</time>
      </trkpt>
      <trkpt lat="38.4845060" lon="-0.6225170">
        <ele>604.2</ele>
        <time>2020-10-12T08:50:46Z</time>
      </trkpt>
      <trkpt lat="38.4845380" lon="-0.6224810">
        <ele>604.4</ele>
        <time>2020-10-12T08:50:47Z</time>
      </trkpt>
      <trkpt lat="38.4845680" lon="-0.6224460">
        <ele>604.6</ele>
        <time>2020-10-12T08:50:48Z</time>
      </trkpt>
      <trkpt lat="38.4846030" lon="-0.6224160">
        <ele>604.8</ele>
        <time>2020-10-12T08:50:49Z</time>
      </trkpt>
      <trkpt lat="38.4846410" lon="-0.6223920">
        <ele>604.8</ele>
        <time>2020-10-12T08:50:50Z</time>
      </trkpt>
      <trkpt lat="38.4846790" lon="-0.6223650">
        <ele>605.0</ele>
        <time>2020-10-12T08:50:51Z</time>
      </trkpt>
      <trkpt lat="38.4847160" lon="-0.6223420">
        <ele>605.0</ele>
        <time>2020-10-12T08:50:52Z</time>
      </trkpt>
      <trkpt lat="38.4847530" lon="-0.6223170">
        <ele>605.2</ele>
        <time>2020-10-12T08:50:53Z</time>
      </trkpt>
      <trkpt lat="38.4847950" lon="-0.6222930">
        <ele>605.6</ele>
        <time>2020-10-12T08:50:54Z</time>
      </trkpt>
      <trkpt lat="38.4848340" lon="-0.6222660">
        <ele>606.0</ele>
        <time>2020-10-12T08:50:55Z</time>
      </trkpt>
      <trkpt lat="38.4848710" lon="-0.6222330">
        <ele>606.2</ele>
        <time>2020-10-12T08:50:56Z</time>
      </trkpt>
      <trkpt lat="38.4849090" lon="-0.6221950">
        <ele>606.4</ele>
        <time>2020-10-12T08:50:57Z</time>
      </trkpt>
      <trkpt lat="38.4849390" lon="-0.6221530">
        <ele>607.0</ele>
        <time>2020-10-12T08:50:58Z</time>
      </trkpt>
      <trkpt lat="38.4849660" lon="-0.6221060">
        <ele>607.4</ele>
        <time>2020-10-12T08:50:59Z</time>
      </trkpt>
      <trkpt lat="38.4849920" lon="-0.6220580">
        <ele>607.8</ele>
        <time>2020-10-12T08:51:00Z</time>
      </trkpt>
      <trkpt lat="38.4850170" lon="-0.6220120">
        <ele>608.0</ele>
        <time>2020-10-12T08:51:01Z</time>
      </trkpt>
      <trkpt lat="38.4850400" lon="-0.6219630">
        <ele>608.4</ele>
        <time>2020-10-12T08:51:02Z</time>
      </trkpt>
      <trkpt lat="38.4850590" lon="-0.6219100">
        <ele>608.6</ele>
        <time>2020-10-12T08:51:03Z</time>
      </trkpt>
      <trkpt lat="38.4850870" lon="-0.6218620">
        <ele>609.0</ele>
        <time>2020-10-12T08:51:04Z</time>
      </trkpt>
      <trkpt lat="38.4851070" lon="-0.6218110">
        <ele>609.0</ele>
        <time>2020-10-12T08:51:05Z</time>
      </trkpt>
      <trkpt lat="38.4851270" lon="-0.6217590">
        <ele>609.2</ele>
        <time>2020-10-12T08:51:06Z</time>
      </trkpt>
      <trkpt lat="38.4851470" lon="-0.6217080">
        <ele>609.4</ele>
        <time>2020-10-12T08:51:07Z</time>
      </trkpt>
      <trkpt lat="38.4851680" lon="-0.6216600">
        <ele>609.6</ele>
        <time>2020-10-12T08:51:08Z</time>
      </trkpt>
      <trkpt lat="38.4851900" lon="-0.6216140">
        <ele>609.8</ele>
        <time>2020-10-12T08:51:09Z</time>
      </trkpt>
      <trkpt lat="38.4852070" lon="-0.6215670">
        <ele>610.0</ele>
        <time>2020-10-12T08:51:10Z</time>
      </trkpt>
      <trkpt lat="38.4852230" lon="-0.6215210">
        <ele>610.2</ele>
        <time>2020-10-12T08:51:11Z</time>
      </trkpt>
      <trkpt lat="38.4852380" lon="-0.6214770">
        <ele>610.4</ele>
        <time>2020-10-12T08:51:12Z</time>
      </trkpt>
      <trkpt lat="38.4852550" lon="-0.6214310">
        <ele>610.6</ele>
        <time>2020-10-12T08:51:13Z</time>
      </trkpt>
      <trkpt lat="38.4852710" lon="-0.6213870">
        <ele>610.8</ele>
        <time>2020-10-12T08:51:14Z</time>
      </trkpt>
      <trkpt lat="38.4852880" lon="-0.6213430">
        <ele>611.2</ele>
        <time>2020-10-12T08:51:15Z</time>
      </trkpt>
      <trkpt lat="38.4853070" lon="-0.6213060">
        <ele>611.4</ele>
        <time>2020-10-12T08:51:16Z</time>
      </trkpt>
      <trkpt lat="38.4853220" lon="-0.6212660">
        <ele>611.4</ele>
        <time>2020-10-12T08:51:17Z</time>
      </trkpt>
      <trkpt lat="38.4853320" lon="-0.6212290">
        <ele>611.6</ele>
        <time>2020-10-12T08:51:18Z</time>
      </trkpt>
      <trkpt lat="38.4853440" lon="-0.6211900">
        <ele>611.8</ele>
        <time>2020-10-12T08:51:19Z</time>
      </trkpt>
      <trkpt lat="38.4853610" lon="-0.6211420">
        <ele>612.0</ele>
        <time>2020-10-12T08:51:20Z</time>
      </trkpt>
      <trkpt lat="38.4853900" lon="-0.6210950">
        <ele>612.2</ele>
        <time>2020-10-12T08:51:21Z</time>
      </trkpt>
      <trkpt lat="38.4854170" lon="-0.6210550">
        <ele>612.4</ele>
        <time>2020-10-12T08:51:22Z</time>
      </trkpt>
      <trkpt lat="38.4854360" lon="-0.6210150">
        <ele>612.4</ele>
        <time>2020-10-12T08:51:23Z</time>
      </trkpt>
      <trkpt lat="38.4854570" lon="-0.6209770">
        <ele>612.6</ele>
        <time>2020-10-12T08:51:24Z</time>
      </trkpt>
      <trkpt lat="38.4854810" lon="-0.6209460">
        <ele>612.8</ele>
        <time>2020-10-12T08:51:25Z</time>
      </trkpt>
      <trkpt lat="38.4855000" lon="-0.6209120">
        <ele>613.0</ele>
        <time>2020-10-12T08:51:26Z</time>
      </trkpt>
      <trkpt lat="38.4855220" lon="-0.6208670">
        <ele>613.2</ele>
        <time>2020-10-12T08:51:27Z</time>
      </trkpt>
      <trkpt lat="38.4855450" lon="-0.6208130">
        <ele>613.4</ele>
        <time>2020-10-12T08:51:28Z</time>
      </trkpt>
      <trkpt lat="38.4855690" lon="-0.6207610">
        <ele>613.6</ele>
        <time>2020-10-12T08:51:29Z</time>
      </trkpt>
      <trkpt lat="38.4855910" lon="-0.6207090">
        <ele>613.6</ele>
        <time>2020-10-12T08:51:30Z</time>
      </trkpt>
      <trkpt lat="38.4856130" lon="-0.6206600">
        <ele>613.8</ele>
        <time>2020-10-12T08:51:31Z</time>
      </trkpt>
      <trkpt lat="38.4856350" lon="-0.6206090">
        <ele>613.6</ele>
        <time>2020-10-12T08:51:32Z</time>
      </trkpt>
      <trkpt lat="38.4856540" lon="-0.6205590">
        <ele>613.4</ele>
        <time>2020-10-12T08:51:33Z</time>
      </trkpt>
      <trkpt lat="38.4856730" lon="-0.6205100">
        <ele>613.4</ele>
        <time>2020-10-12T08:51:34Z</time>
      </trkpt>
      <trkpt lat="38.4856940" lon="-0.6204640">
        <ele>613.2</ele>
        <time>2020-10-12T08:51:35Z</time>
      </trkpt>
      <trkpt lat="38.4857140" lon="-0.6204170">
        <ele>613.2</ele>
        <time>2020-10-12T08:51:36Z</time>
      </trkpt>
      <trkpt lat="38.4857320" lon="-0.6203690">
        <ele>613.2</ele>
        <time>2020-10-12T08:51:37Z</time>
      </trkpt>
      <trkpt lat="38.4857530" lon="-0.6203240">
        <ele>613.2</ele>
        <time>2020-10-12T08:51:38Z</time>
      </trkpt>
      <trkpt lat="38.4857780" lon="-0.6202810">
        <ele>613.6</ele>
        <time>2020-10-12T08:51:39Z</time>
      </trkpt>
      <trkpt lat="38.4858030" lon="-0.6202400">
        <ele>614.0</ele>
        <time>2020-10-12T08:51:40Z</time>
      </trkpt>
      <trkpt lat="38.4858260" lon="-0.6202000">
        <ele>614.4</ele>
        <time>2020-10-12T08:51:41Z</time>
      </trkpt>
      <trkpt lat="38.4858520" lon="-0.6201620">
        <ele>614.6</ele>
        <time>2020-10-12T08:51:42Z</time>
      </trkpt>
      <trkpt lat="38.4858790" lon="-0.6201260">
        <ele>614.8</ele>
        <time>2020-10-12T08:51:43Z</time>
      </trkpt>
      <trkpt lat="38.4859030" lon="-0.6200930">
        <ele>615.0</ele>
        <time>2020-10-12T08:51:44Z</time>
      </trkpt>
      <trkpt lat="38.4859300" lon="-0.6200640">
        <ele>615.2</ele>
        <time>2020-10-12T08:51:45Z</time>
      </trkpt>
      <trkpt lat="38.4859570" lon="-0.6200390">
        <ele>615.4</ele>
        <time>2020-10-12T08:51:46Z</time>
      </trkpt>
      <trkpt lat="38.4859870" lon="-0.6200160">
        <ele>615.6</ele>
        <time>2020-10-12T08:51:47Z</time>
      </trkpt>
      <trkpt lat="38.4860190" lon="-0.6199900">
        <ele>616.2</ele>
        <time>2020-10-12T08:51:48Z</time>
      </trkpt>
      <trkpt lat="38.4860500" lon="-0.6199620">
        <ele>616.8</ele>
        <time>2020-10-12T08:51:49Z</time>
      </trkpt>
      <trkpt lat="38.4860820" lon="-0.6199330">
        <ele>617.2</ele>
        <time>2020-10-12T08:51:50Z</time>
      </trkpt>
      <trkpt lat="38.4861110" lon="-0.6199070">
        <ele>617.6</ele>
        <time>2020-10-12T08:51:51Z</time>
      </trkpt>
      <trkpt lat="38.4861430" lon="-0.6198800">
        <ele>617.8</ele>
        <time>2020-10-12T08:51:52Z</time>
      </trkpt>
      <trkpt lat="38.4861740" lon="-0.6198530">
        <ele>617.8</ele>
        <time>2020-10-12T08:51:53Z</time>
      </trkpt>
      <trkpt lat="38.4862010" lon="-0.6198270">
        <ele>618.2</ele>
        <time>2020-10-12T08:51:54Z</time>
      </trkpt>
      <trkpt lat="38.4862320" lon="-0.6198000">
        <ele>618.2</ele>
        <time>2020-10-12T08:51:55Z</time>
      </trkpt>
      <trkpt lat="38.4862600" lon="-0.6197730">
        <ele>618.2</ele>
        <time>2020-10-12T08:51:56Z</time>
      </trkpt>
      <trkpt lat="38.4862910" lon="-0.6197560">
        <ele>618.2</ele>
        <time>2020-10-12T08:51:57Z</time>
      </trkpt>
      <trkpt lat="38.4863140" lon="-0.6197220">
        <ele>618.0</ele>
        <time>2020-10-12T08:51:58Z</time>
      </trkpt>
      <trkpt lat="38.4863400" lon="-0.6196880">
        <ele>618.0</ele>
        <time>2020-10-12T08:51:59Z</time>
      </trkpt>
      <trkpt lat="38.4863650" lon="-0.6196570">
        <ele>617.8</ele>
        <time>2020-10-12T08:52:00Z</time>
      </trkpt>
      <trkpt lat="38.4863910" lon="-0.6196280">
        <ele>617.8</ele>
        <time>2020-10-12T08:52:01Z</time>
      </trkpt>
      <trkpt lat="38.4864160" lon="-0.6195990">
        <ele>618.0</ele>
        <time>2020-10-12T08:52:02Z</time>
      </trkpt>
      <trkpt lat="38.4864450" lon="-0.6195640">
        <ele>618.4</ele>
        <time>2020-10-12T08:52:03Z</time>
      </trkpt>
      <trkpt lat="38.4864750" lon="-0.6195320">
        <ele>618.8</ele>
        <time>2020-10-12T08:52:04Z</time>
      </trkpt>
      <trkpt lat="38.4865030" lon="-0.6194990">
        <ele>619.0</ele>
        <time>2020-10-12T08:52:05Z</time>
      </trkpt>
      <trkpt lat="38.4865290" lon="-0.6194680">
        <ele>619.2</ele>
        <time>2020-10-12T08:52:06Z</time>
      </trkpt>
      <trkpt lat="38.4865610" lon="-0.6194400">
        <ele>619.4</ele>
        <time>2020-10-12T08:52:07Z</time>
      </trkpt>
      <trkpt lat="38.4865940" lon="-0.6194150">
        <ele>619.4</ele>
        <time>2020-10-12T08:52:08Z</time>
      </trkpt>
      <trkpt lat="38.4866280" lon="-0.6193910">
        <ele>619.6</ele>
        <time>2020-10-12T08:52:09Z</time>
      </trkpt>
      <trkpt lat="38.4866550" lon="-0.6193660">
        <ele>619.8</ele>
        <time>2020-10-12T08:52:10Z</time>
      </trkpt>
      <trkpt lat="38.4866850" lon="-0.6193400">
        <ele>620.0</ele>
        <time>2020-10-12T08:52:11Z</time>
      </trkpt>
      <trkpt lat="38.4867150" lon="-0.6193100">
        <ele>620.4</ele>
        <time>2020-10-12T08:52:12Z</time>
      </trkpt>
      <trkpt lat="38.4867440" lon="-0.6192790">
        <ele>620.6</ele>
        <time>2020-10-12T08:52:13Z</time>
      </trkpt>
      <trkpt lat="38.4867770" lon="-0.6192500">
        <ele>621.0</ele>
        <time>2020-10-12T08:52:14Z</time>
      </trkpt>
      <trkpt lat="38.4868110" lon="-0.6192250">
        <ele>621.4</ele>
        <time>2020-10-12T08:52:15Z</time>
      </trkpt>
      <trkpt lat="38.4868420" lon="-0.6191980">
        <ele>622.0</ele>
        <time>2020-10-12T08:52:16Z</time>
      </trkpt>
      <trkpt lat="38.4868730" lon="-0.6191720">
        <ele>622.4</ele>
        <time>2020-10-12T08:52:17Z</time>
      </trkpt>
      <trkpt lat="38.4869010" lon="-0.6191460">
        <ele>622.6</ele>
        <time>2020-10-12T08:52:18Z</time>
      </trkpt>
      <trkpt lat="38.4869390" lon="-0.6191100">
        <ele>622.8</ele>
        <time>2020-10-12T08:52:19Z</time>
      </trkpt>
      <trkpt lat="38.4869680" lon="-0.6190790">
        <ele>623.0</ele>
        <time>2020-10-12T08:52:20Z</time>
      </trkpt>
      <trkpt lat="38.4869960" lon="-0.6190470">
        <ele>623.2</ele>
        <time>2020-10-12T08:52:21Z</time>
      </trkpt>
      <trkpt lat="38.4870240" lon="-0.6190210">
        <ele>623.4</ele>
        <time>2020-10-12T08:52:22Z</time>
      </trkpt>
      <trkpt lat="38.4870500" lon="-0.6189920">
        <ele>623.4</ele>
        <time>2020-10-12T08:52:23Z</time>
      </trkpt>
      <trkpt lat="38.4870780" lon="-0.6189640">
        <ele>623.8</ele>
        <time>2020-10-12T08:52:24Z</time>
      </trkpt>
      <trkpt lat="38.4871090" lon="-0.6189320">
        <ele>624.0</ele>
        <time>2020-10-12T08:52:25Z</time>
      </trkpt>
      <trkpt lat="38.4871400" lon="-0.6188980">
        <ele>624.2</ele>
        <time>2020-10-12T08:52:26Z</time>
      </trkpt>
      <trkpt lat="38.4871700" lon="-0.6188630">
        <ele>624.4</ele>
        <time>2020-10-12T08:52:27Z</time>
      </trkpt>
      <trkpt lat="38.4871960" lon="-0.6188260">
        <ele>624.6</ele>
        <time>2020-10-12T08:52:28Z</time>
      </trkpt>
      <trkpt lat="38.4872260" lon="-0.6187890">
        <ele>624.8</ele>
        <time>2020-10-12T08:52:29Z</time>
      </trkpt>
      <trkpt lat="38.4872590" lon="-0.6187520">
        <ele>625.0</ele>
        <time>2020-10-12T08:52:30Z</time>
      </trkpt>
      <trkpt lat="38.4872900" lon="-0.6187150">
        <ele>625.2</ele>
        <time>2020-10-12T08:52:31Z</time>
      </trkpt>
      <trkpt lat="38.4873190" lon="-0.6186800">
        <ele>625.6</ele>
        <time>2020-10-12T08:52:32Z</time>
      </trkpt>
      <trkpt lat="38.4873470" lon="-0.6186510">
        <ele>625.8</ele>
        <time>2020-10-12T08:52:33Z</time>
      </trkpt>
      <trkpt lat="38.4873780" lon="-0.6186250">
        <ele>626.2</ele>
        <time>2020-10-12T08:52:34Z</time>
      </trkpt>
      <trkpt lat="38.4874080" lon="-0.6185970">
        <ele>626.6</ele>
        <time>2020-10-12T08:52:35Z</time>
      </trkpt>
      <trkpt lat="38.4874380" lon="-0.6185680">
        <ele>627.2</ele>
        <time>2020-10-12T08:52:36Z</time>
      </trkpt>
      <trkpt lat="38.4874720" lon="-0.6185450">
        <ele>627.6</ele>
        <time>2020-10-12T08:52:37Z</time>
      </trkpt>
      <trkpt lat="38.4875040" lon="-0.6185230">
        <ele>627.8</ele>
        <time>2020-10-12T08:52:38Z</time>
      </trkpt>
      <trkpt lat="38.4875320" lon="-0.6185010">
        <ele>628.0</ele>
        <time>2020-10-12T08:52:39Z</time>
      </trkpt>
      <trkpt lat="38.4875650" lon="-0.6184670">
        <ele>628.0</ele>
        <time>2020-10-12T08:52:40Z</time>
      </trkpt>
      <trkpt lat="38.4876010" lon="-0.6184370">
        <ele>628.2</ele>
        <time>2020-10-12T08:52:41Z</time>
      </trkpt>
      <trkpt lat="38.4876410" lon="-0.6184120">
        <ele>628.2</ele>
        <time>2020-10-12T08:52:42Z</time>
      </trkpt>
      <trkpt lat="38.4876790" lon="-0.6183900">
        <ele>628.4</ele>
        <time>2020-10-12T08:52:43Z</time>
      </trkpt>
      <trkpt lat="38.4877190" lon="-0.6183690">
        <ele>628.6</ele>
        <time>2020-10-12T08:52:44Z</time>
      </trkpt>
      <trkpt lat="38.4877590" lon="-0.6183520">
        <ele>628.6</ele>
        <time>2020-10-12T08:52:45Z</time>
      </trkpt>
      <trkpt lat="38.4877930" lon="-0.6183330">
        <ele>628.8</ele>
        <time>2020-10-12T08:52:46Z</time>
      </trkpt>
      <trkpt lat="38.4878300" lon="-0.6183160">
        <ele>629.0</ele>
        <time>2020-10-12T08:52:47Z</time>
      </trkpt>
      <trkpt lat="38.4878690" lon="-0.6183050">
        <ele>629.2</ele>
        <time>2020-10-12T08:52:48Z</time>
      </trkpt>
      <trkpt lat="38.4879040" lon="-0.6182900">
        <ele>629.4</ele>
        <time>2020-10-12T08:52:49Z</time>
      </trkpt>
      <trkpt lat="38.4879450" lon="-0.6182780">
        <ele>629.6</ele>
        <time>2020-10-12T08:52:50Z</time>
      </trkpt>
      <trkpt lat="38.4879840" lon="-0.6182630">
        <ele>629.8</ele>
        <time>2020-10-12T08:52:51Z</time>
      </trkpt>
      <trkpt lat="38.4880210" lon="-0.6182450">
        <ele>630.0</ele>
        <time>2020-10-12T08:52:52Z</time>
      </trkpt>
      <trkpt lat="38.4880540" lon="-0.6182310">
        <ele>630.2</ele>
        <time>2020-10-12T08:52:53Z</time>
      </trkpt>
      <trkpt lat="38.4880850" lon="-0.6182150">
        <ele>630.4</ele>
        <time>2020-10-12T08:52:54Z</time>
      </trkpt>
      <trkpt lat="38.4881190" lon="-0.6181960">
        <ele>630.6</ele>
        <time>2020-10-12T08:52:55Z</time>
      </trkpt>
      <trkpt lat="38.4881510" lon="-0.6181720">
        <ele>630.8</ele>
        <time>2020-10-12T08:52:56Z</time>
      </trkpt>
      <trkpt lat="38.4881780" lon="-0.6181490">
        <ele>631.2</ele>
        <time>2020-10-12T08:52:57Z</time>
      </trkpt>
      <trkpt lat="38.4882080" lon="-0.6181270">
        <ele>631.4</ele>
        <time>2020-10-12T08:52:58Z</time>
      </trkpt>
      <trkpt lat="38.4882380" lon="-0.6181060">
        <ele>631.8</ele>
        <time>2020-10-12T08:52:59Z</time>
      </trkpt>
      <trkpt lat="38.4882700" lon="-0.6180860">
        <ele>632.0</ele>
        <time>2020-10-12T08:53:00Z</time>
      </trkpt>
      <trkpt lat="38.4883060" lon="-0.6180640">
        <ele>632.4</ele>
        <time>2020-10-12T08:53:01Z</time>
      </trkpt>
      <trkpt lat="38.4883380" lon="-0.6180440">
        <ele>632.6</ele>
        <time>2020-10-12T08:53:02Z</time>
      </trkpt>
      <trkpt lat="38.4883740" lon="-0.6180260">
        <ele>632.8</ele>
        <time>2020-10-12T08:53:03Z</time>
      </trkpt>
      <trkpt lat="38.4884170" lon="-0.6180160">
        <ele>632.8</ele>
        <time>2020-10-12T08:53:04Z</time>
      </trkpt>
      <trkpt lat="38.4884500" lon="-0.6180040">
        <ele>633.2</ele>
        <time>2020-10-12T08:53:05Z</time>
      </trkpt>
      <trkpt lat="38.4884880" lon="-0.6179860">
        <ele>633.6</ele>
        <time>2020-10-12T08:53:06Z</time>
      </trkpt>
      <trkpt lat="38.4885200" lon="-0.6179720">
        <ele>634.0</ele>
        <time>2020-10-12T08:53:07Z</time>
      </trkpt>
      <trkpt lat="38.4885520" lon="-0.6179560">
        <ele>634.4</ele>
        <time>2020-10-12T08:53:08Z</time>
      </trkpt>
      <trkpt lat="38.4885850" lon="-0.6179340">
        <ele>634.6</ele>
        <time>2020-10-12T08:53:09Z</time>
      </trkpt>
      <trkpt lat="38.4886180" lon="-0.6179120">
        <ele>634.6</ele>
        <time>2020-10-12T08:53:10Z</time>
      </trkpt>
      <trkpt lat="38.4886570" lon="-0.6178800">
        <ele>634.6</ele>
        <time>2020-10-12T08:53:11Z</time>
      </trkpt>
      <trkpt lat="38.4886930" lon="-0.6178600">
        <ele>634.6</ele>
        <time>2020-10-12T08:53:12Z</time>
      </trkpt>
      <trkpt lat="38.4887260" lon="-0.6178440">
        <ele>634.6</ele>
        <time>2020-10-12T08:53:13Z</time>
      </trkpt>
      <trkpt lat="38.4887660" lon="-0.6178250">
        <ele>634.8</ele>
        <time>2020-10-12T08:53:14Z</time>
      </trkpt>
      <trkpt lat="38.4888070" lon="-0.6177990">
        <ele>635.0</ele>
        <time>2020-10-12T08:53:15Z</time>
      </trkpt>
      <trkpt lat="38.4888450" lon="-0.6177770">
        <ele>635.2</ele>
        <time>2020-10-12T08:53:16Z</time>
      </trkpt>
      <trkpt lat="38.4888790" lon="-0.6177520">
        <ele>635.6</ele>
        <time>2020-10-12T08:53:17Z</time>
      </trkpt>
      <trkpt lat="38.4889160" lon="-0.6177260">
        <ele>635.6</ele>
        <time>2020-10-12T08:53:18Z</time>
      </trkpt>
      <trkpt lat="38.4889560" lon="-0.6176960">
        <ele>635.6</ele>
        <time>2020-10-12T08:53:19Z</time>
      </trkpt>
      <trkpt lat="38.4890010" lon="-0.6176640">
        <ele>635.6</ele>
        <time>2020-10-12T08:53:20Z</time>
      </trkpt>
      <trkpt lat="38.4890480" lon="-0.6176320">
        <ele>635.8</ele>
        <time>2020-10-12T08:53:21Z</time>
      </trkpt>
      <trkpt lat="38.4890940" lon="-0.6175990">
        <ele>636.0</ele>
        <time>2020-10-12T08:53:22Z</time>
      </trkpt>
      <trkpt lat="38.4891510" lon="-0.6175620">
        <ele>636.0</ele>
        <time>2020-10-12T08:53:23Z</time>
      </trkpt>
      <trkpt lat="38.4892010" lon="-0.6175180">
        <ele>635.8</ele>
        <time>2020-10-12T08:53:24Z</time>
      </trkpt>
      <trkpt lat="38.4892490" lon="-0.6174740">
        <ele>635.8</ele>
        <time>2020-10-12T08:53:25Z</time>
      </trkpt>
      <trkpt lat="38.4892990" lon="-0.6174430">
        <ele>635.6</ele>
        <time>2020-10-12T08:53:26Z</time>
      </trkpt>
      <trkpt lat="38.4893510" lon="-0.6173990">
        <ele>634.8</ele>
        <time>2020-10-12T08:53:27Z</time>
      </trkpt>
      <trkpt lat="38.4894060" lon="-0.6173500">
        <ele>634.4</ele>
        <time>2020-10-12T08:53:28Z</time>
      </trkpt>
      <trkpt lat="38.4894610" lon="-0.6173110">
        <ele>633.8</ele>
        <time>2020-10-12T08:53:29Z</time>
      </trkpt>
      <trkpt lat="38.4895150" lon="-0.6172630">
        <ele>633.4</ele>
        <time>2020-10-12T08:53:30Z</time>
      </trkpt>
      <trkpt lat="38.4895680" lon="-0.6172140">
        <ele>633.0</ele>
        <time>2020-10-12T08:53:31Z</time>
      </trkpt>
      <trkpt lat="38.4896200" lon="-0.6171670">
        <ele>632.8</ele>
        <time>2020-10-12T08:53:32Z</time>
      </trkpt>
      <trkpt lat="38.4896760" lon="-0.6171090">
        <ele>633.2</ele>
        <time>2020-10-12T08:53:33Z</time>
      </trkpt>
      <trkpt lat="38.4897330" lon="-0.6170550">
        <ele>633.8</ele>
        <time>2020-10-12T08:53:34Z</time>
      </trkpt>
      <trkpt lat="38.4897950" lon="-0.6170080">
        <ele>633.8</ele>
        <time>2020-10-12T08:53:35Z</time>
      </trkpt>
      <trkpt lat="38.4898490" lon="-0.6169640">
        <ele>634.0</ele>
        <time>2020-10-12T08:53:36Z</time>
      </trkpt>
      <trkpt lat="38.4899030" lon="-0.6169190">
        <ele>634.2</ele>
        <time>2020-10-12T08:53:37Z</time>
      </trkpt>
      <trkpt lat="38.4899550" lon="-0.6168750">
        <ele>634.6</ele>
        <time>2020-10-12T08:53:38Z</time>
      </trkpt>
      <trkpt lat="38.4900060" lon="-0.6168310">
        <ele>634.6</ele>
        <time>2020-10-12T08:53:39Z</time>
      </trkpt>
      <trkpt lat="38.4900660" lon="-0.6167850">
        <ele>634.6</ele>
        <time>2020-10-12T08:53:40Z</time>
      </trkpt>
      <trkpt lat="38.4901190" lon="-0.6167410">
        <ele>634.6</ele>
        <time>2020-10-12T08:53:41Z</time>
      </trkpt>
      <trkpt lat="38.4901640" lon="-0.6166980">
        <ele>634.4</ele>
        <time>2020-10-12T08:53:42Z</time>
      </trkpt>
      <trkpt lat="38.4902070" lon="-0.6166600">
        <ele>634.6</ele>
        <time>2020-10-12T08:53:43Z</time>
      </trkpt>
      <trkpt lat="38.4902500" lon="-0.6166200">
        <ele>634.8</ele>
        <time>2020-10-12T08:53:44Z</time>
      </trkpt>
      <trkpt lat="38.4902960" lon="-0.6165770">
        <ele>634.8</ele>
        <time>2020-10-12T08:53:45Z</time>
      </trkpt>
      <trkpt lat="38.4903450" lon="-0.6165370">
        <ele>634.8</ele>
        <time>2020-10-12T08:53:46Z</time>
      </trkpt>
      <trkpt lat="38.4903950" lon="-0.6165040">
        <ele>634.8</ele>
        <time>2020-10-12T08:53:47Z</time>
      </trkpt>
      <trkpt lat="38.4904420" lon="-0.6164710">
        <ele>635.0</ele>
        <time>2020-10-12T08:53:48Z</time>
      </trkpt>
      <trkpt lat="38.4904890" lon="-0.6164350">
        <ele>635.2</ele>
        <time>2020-10-12T08:53:49Z</time>
      </trkpt>
      <trkpt lat="38.4905370" lon="-0.6164000">
        <ele>635.4</ele>
        <time>2020-10-12T08:53:50Z</time>
      </trkpt>
      <trkpt lat="38.4905860" lon="-0.6163590">
        <ele>635.8</ele>
        <time>2020-10-12T08:53:51Z</time>
      </trkpt>
      <trkpt lat="38.4906380" lon="-0.6163150">
        <ele>636.2</ele>
        <time>2020-10-12T08:53:52Z</time>
      </trkpt>
      <trkpt lat="38.4906920" lon="-0.6162650">
        <ele>636.4</ele>
        <time>2020-10-12T08:53:53Z</time>
      </trkpt>
      <trkpt lat="38.4907490" lon="-0.6162170">
        <ele>636.6</ele>
        <time>2020-10-12T08:53:54Z</time>
      </trkpt>
      <trkpt lat="38.4908100" lon="-0.6161650">
        <ele>636.8</ele>
        <time>2020-10-12T08:53:55Z</time>
      </trkpt>
      <trkpt lat="38.4908800" lon="-0.6161080">
        <ele>636.8</ele>
        <time>2020-10-12T08:53:56Z</time>
      </trkpt>
      <trkpt lat="38.4909440" lon="-0.6160550">
        <ele>636.8</ele>
        <time>2020-10-12T08:53:57Z</time>
      </trkpt>
      <trkpt lat="38.4910100" lon="-0.6160080">
        <ele>636.0</ele>
        <time>2020-10-12T08:53:58Z</time>
      </trkpt>
      <trkpt lat="38.4910790" lon="-0.6159550">
        <ele>635.2</ele>
        <time>2020-10-12T08:53:59Z</time>
      </trkpt>
      <trkpt lat="38.4911430" lon="-0.6158970">
        <ele>633.8</ele>
        <time>2020-10-12T08:54:00Z</time>
      </trkpt>
      <trkpt lat="38.4912090" lon="-0.6158350">
        <ele>633.0</ele>
        <time>2020-10-12T08:54:01Z</time>
      </trkpt>
      <trkpt lat="38.4912810" lon="-0.6157720">
        <ele>632.4</ele>
        <time>2020-10-12T08:54:02Z</time>
      </trkpt>
      <trkpt lat="38.4913540" lon="-0.6157080">
        <ele>632.2</ele>
        <time>2020-10-12T08:54:03Z</time>
      </trkpt>
      <trkpt lat="38.4914300" lon="-0.6156430">
        <ele>632.2</ele>
        <time>2020-10-12T08:54:04Z</time>
      </trkpt>
      <trkpt lat="38.4915040" lon="-0.6155760">
        <ele>632.0</ele>
        <time>2020-10-12T08:54:05Z</time>
      </trkpt>
      <trkpt lat="38.4915830" lon="-0.6155120">
        <ele>631.6</ele>
        <time>2020-10-12T08:54:06Z</time>
      </trkpt>
      <trkpt lat="38.4916610" lon="-0.6154480">
        <ele>631.2</ele>
        <time>2020-10-12T08:54:07Z</time>
      </trkpt>
      <trkpt lat="38.4917380" lon="-0.6153830">
        <ele>630.8</ele>
        <time>2020-10-12T08:54:08Z</time>
      </trkpt>
      <trkpt lat="38.4918120" lon="-0.6153150">
        <ele>630.4</ele>
        <time>2020-10-12T08:54:09Z</time>
      </trkpt>
      <trkpt lat="38.4918830" lon="-0.6152480">
        <ele>630.0</ele>
        <time>2020-10-12T08:54:10Z</time>
      </trkpt>
      <trkpt lat="38.4919530" lon="-0.6151870">
        <ele>629.6</ele>
        <time>2020-10-12T08:54:11Z</time>
      </trkpt>
      <trkpt lat="38.4920230" lon="-0.6151310">
        <ele>629.4</ele>
        <time>2020-10-12T08:54:12Z</time>
      </trkpt>
      <trkpt lat="38.4920960" lon="-0.6150780">
        <ele>629.2</ele>
        <time>2020-10-12T08:54:13Z</time>
      </trkpt>
      <trkpt lat="38.4921630" lon="-0.6150240">
        <ele>629.2</ele>
        <time>2020-10-12T08:54:14Z</time>
      </trkpt>
      <trkpt lat="38.4922260" lon="-0.6149700">
        <ele>629.2</ele>
        <time>2020-10-12T08:54:15Z</time>
      </trkpt>
      <trkpt lat="38.4922860" lon="-0.6149140">
        <ele>629.4</ele>
        <time>2020-10-12T08:54:16Z</time>
      </trkpt>
      <trkpt lat="38.4923450" lon="-0.6148560">
        <ele>629.8</ele>
        <time>2020-10-12T08:54:17Z</time>
      </trkpt>
      <trkpt lat="38.4923930" lon="-0.6148080">
        <ele>630.0</ele>
        <time>2020-10-12T08:54:18Z</time>
      </trkpt>
      <trkpt lat="38.4924520" lon="-0.6147570">
        <ele>629.8</ele>
        <time>2020-10-12T08:54:19Z</time>
      </trkpt>
      <trkpt lat="38.4925130" lon="-0.6147100">
        <ele>629.6</ele>
        <time>2020-10-12T08:54:20Z</time>
      </trkpt>
      <trkpt lat="38.4925760" lon="-0.6146590">
        <ele>629.2</ele>
        <time>2020-10-12T08:54:21Z</time>
      </trkpt>
      <trkpt lat="38.4926460" lon="-0.6146060">
        <ele>629.0</ele>
        <time>2020-10-12T08:54:22Z</time>
      </trkpt>
      <trkpt lat="38.4927150" lon="-0.6145490">
        <ele>628.6</ele>
        <time>2020-10-12T08:54:23Z</time>
      </trkpt>
      <trkpt lat="38.4927850" lon="-0.6144870">
        <ele>628.2</ele>
        <time>2020-10-12T08:54:24Z</time>
      </trkpt>
      <trkpt lat="38.4928520" lon="-0.6144250">
        <ele>628.0</ele>
        <time>2020-10-12T08:54:25Z</time>
      </trkpt>
      <trkpt lat="38.4929190" lon="-0.6143660">
        <ele>628.0</ele>
        <time>2020-10-12T08:54:26Z</time>
      </trkpt>
      <trkpt lat="38.4929850" lon="-0.6143090">
        <ele>627.8</ele>
        <time>2020-10-12T08:54:27Z</time>
      </trkpt>
      <trkpt lat="38.4930520" lon="-0.6142500">
        <ele>627.8</ele>
        <time>2020-10-12T08:54:28Z</time>
      </trkpt>
      <trkpt lat="38.4931200" lon="-0.6141930">
        <ele>628.0</ele>
        <time>2020-10-12T08:54:29Z</time>
      </trkpt>
      <trkpt lat="38.4931890" lon="-0.6141330">
        <ele>628.4</ele>
        <time>2020-10-12T08:54:30Z</time>
      </trkpt>
      <trkpt lat="38.4932540" lon="-0.6140720">
        <ele>628.8</ele>
        <time>2020-10-12T08:54:31Z</time>
      </trkpt>
      <trkpt lat="38.4933220" lon="-0.6140160">
        <ele>629.2</ele>
        <time>2020-10-12T08:54:32Z</time>
      </trkpt>
      <trkpt lat="38.4933910" lon="-0.6139530">
        <ele>629.2</ele>
        <time>2020-10-12T08:54:33Z</time>
      </trkpt>
      <trkpt lat="38.4934700" lon="-0.6138970">
        <ele>629.4</ele>
        <time>2020-10-12T08:54:34Z</time>
      </trkpt>
      <trkpt lat="38.4935470" lon="-0.6138450">
        <ele>629.4</ele>
        <time>2020-10-12T08:54:35Z</time>
      </trkpt>
      <trkpt lat="38.4936260" lon="-0.6137760">
        <ele>629.4</ele>
        <time>2020-10-12T08:54:36Z</time>
      </trkpt>
      <trkpt lat="38.4936970" lon="-0.6137110">
        <ele>629.4</ele>
        <time>2020-10-12T08:54:37Z</time>
      </trkpt>
      <trkpt lat="38.4937630" lon="-0.6136490">
        <ele>629.4</ele>
        <time>2020-10-12T08:54:38Z</time>
      </trkpt>
      <trkpt lat="38.4938250" lon="-0.6135860">
        <ele>629.0</ele>
        <time>2020-10-12T08:54:39Z</time>
      </trkpt>
      <trkpt lat="38.4938890" lon="-0.6135320">
        <ele>628.4</ele>
        <time>2020-10-12T08:54:40Z</time>
      </trkpt>
      <trkpt lat="38.4939530" lon="-0.6134770">
        <ele>627.2</ele>
        <time>2020-10-12T08:54:41Z</time>
      </trkpt>
      <trkpt lat="38.4940180" lon="-0.6134240">
        <ele>626.2</ele>
        <time>2020-10-12T08:54:42Z</time>
      </trkpt>
      <trkpt lat="38.4940810" lon="-0.6133730">
        <ele>625.4</ele>
        <time>2020-10-12T08:54:43Z</time>
      </trkpt>
      <trkpt lat="38.4941440" lon="-0.6133170">
        <ele>625.0</ele>
        <time>2020-10-12T08:54:44Z</time>
      </trkpt>
      <trkpt lat="38.4941970" lon="-0.6132540">
        <ele>624.8</ele>
        <time>2020-10-12T08:54:45Z</time>
      </trkpt>
      <trkpt lat="38.4942590" lon="-0.6131930">
        <ele>624.6</ele>
        <time>2020-10-12T08:54:46Z</time>
      </trkpt>
      <trkpt lat="38.4943120" lon="-0.6131310">
        <ele>624.4</ele>
        <time>2020-10-12T08:54:47Z</time>
      </trkpt>
      <trkpt lat="38.4943780" lon="-0.6130710">
        <ele>624.4</ele>
        <time>2020-10-12T08:54:48Z</time>
      </trkpt>
      <trkpt lat="38.4944450" lon="-0.6130130">
        <ele>624.4</ele>
        <time>2020-10-12T08:54:49Z</time>
      </trkpt>
      <trkpt lat="38.4945090" lon="-0.6129510">
        <ele>624.4</ele>
        <time>2020-10-12T08:54:50Z</time>
      </trkpt>
      <trkpt lat="38.4945730" lon="-0.6128880">
        <ele>624.2</ele>
        <time>2020-10-12T08:54:51Z</time>
      </trkpt>
      <trkpt lat="38.4946380" lon="-0.6128310">
        <ele>624.2</ele>
        <time>2020-10-12T08:54:52Z</time>
      </trkpt>
      <trkpt lat="38.4947050" lon="-0.6127790">
        <ele>624.0</ele>
        <time>2020-10-12T08:54:53Z</time>
      </trkpt>
      <trkpt lat="38.4947700" lon="-0.6127240">
        <ele>623.8</ele>
        <time>2020-10-12T08:54:54Z</time>
      </trkpt>
      <trkpt lat="38.4948370" lon="-0.6126690">
        <ele>623.6</ele>
        <time>2020-10-12T08:54:55Z</time>
      </trkpt>
      <trkpt lat="38.4948990" lon="-0.6126090">
        <ele>623.4</ele>
        <time>2020-10-12T08:54:56Z</time>
      </trkpt>
      <trkpt lat="38.4949620" lon="-0.6125480">
        <ele>623.2</ele>
        <time>2020-10-12T08:54:57Z</time>
      </trkpt>
      <trkpt lat="38.4950270" lon="-0.6124900">
        <ele>623.0</ele>
        <time>2020-10-12T08:54:58Z</time>
      </trkpt>
      <trkpt lat="38.4950930" lon="-0.6124360">
        <ele>623.0</ele>
        <time>2020-10-12T08:54:59Z</time>
      </trkpt>
      <trkpt lat="38.4951590" lon="-0.6123840">
        <ele>623.0</ele>
        <time>2020-10-12T08:55:00Z</time>
      </trkpt>
      <trkpt lat="38.4952270" lon="-0.6123330">
        <ele>623.0</ele>
        <time>2020-10-12T08:55:01Z</time>
      </trkpt>
      <trkpt lat="38.4952980" lon="-0.6122830">
        <ele>623.0</ele>
        <time>2020-10-12T08:55:02Z</time>
      </trkpt>
      <trkpt lat="38.4953600" lon="-0.6122320">
        <ele>623.0</ele>
        <time>2020-10-12T08:55:03Z</time>
      </trkpt>
      <trkpt lat="38.4954210" lon="-0.6121830">
        <ele>623.0</ele>
        <time>2020-10-12T08:55:04Z</time>
      </trkpt>
      <trkpt lat="38.4954830" lon="-0.6121240">
        <ele>623.4</ele>
        <time>2020-10-12T08:55:05Z</time>
      </trkpt>
      <trkpt lat="38.4955440" lon="-0.6120660">
        <ele>623.4</ele>
        <time>2020-10-12T08:55:06Z</time>
      </trkpt>
      <trkpt lat="38.4956030" lon="-0.6120140">
        <ele>623.4</ele>
        <time>2020-10-12T08:55:07Z</time>
      </trkpt>
      <trkpt lat="38.4956590" lon="-0.6119700">
        <ele>623.2</ele>
        <time>2020-10-12T08:55:08Z</time>
      </trkpt>
      <trkpt lat="38.4957350" lon="-0.6118940">
        <ele>623.2</ele>
        <time>2020-10-12T08:55:09Z</time>
      </trkpt>
      <trkpt lat="38.4957980" lon="-0.6118410">
        <ele>623.0</ele>
        <time>2020-10-12T08:55:10Z</time>
      </trkpt>
      <trkpt lat="38.4958660" lon="-0.6117890">
        <ele>622.4</ele>
        <time>2020-10-12T08:55:11Z</time>
      </trkpt>
      <trkpt lat="38.4959310" lon="-0.6117310">
        <ele>621.8</ele>
        <time>2020-10-12T08:55:12Z</time>
      </trkpt>
      <trkpt lat="38.4959950" lon="-0.6116690">
        <ele>621.2</ele>
        <time>2020-10-12T08:55:13Z</time>
      </trkpt>
      <trkpt lat="38.4960550" lon="-0.6116030">
        <ele>620.8</ele>
        <time>2020-10-12T08:55:14Z</time>
      </trkpt>
      <trkpt lat="38.4961120" lon="-0.6115340">
        <ele>620.8</ele>
        <time>2020-10-12T08:55:15Z</time>
      </trkpt>
      <trkpt lat="38.4961680" lon="-0.6114630">
        <ele>620.8</ele>
        <time>2020-10-12T08:55:16Z</time>
      </trkpt>
      <trkpt lat="38.4962240" lon="-0.6113890">
        <ele>620.6</ele>
        <time>2020-10-12T08:55:17Z</time>
      </trkpt>
      <trkpt lat="38.4962750" lon="-0.6113120">
        <ele>620.6</ele>
        <time>2020-10-12T08:55:18Z</time>
      </trkpt>
      <trkpt lat="38.4963230" lon="-0.6112300">
        <ele>620.4</ele>
        <time>2020-10-12T08:55:19Z</time>
      </trkpt>
      <trkpt lat="38.4963710" lon="-0.6111460">
        <ele>620.4</ele>
        <time>2020-10-12T08:55:20Z</time>
      </trkpt>
      <trkpt lat="38.4964190" lon="-0.6110620">
        <ele>620.4</ele>
        <time>2020-10-12T08:55:21Z</time>
      </trkpt>
      <trkpt lat="38.4964670" lon="-0.6109800">
        <ele>620.4</ele>
        <time>2020-10-12T08:55:22Z</time>
      </trkpt>
      <trkpt lat="38.4965140" lon="-0.6108970">
        <ele>620.4</ele>
        <time>2020-10-12T08:55:23Z</time>
      </trkpt>
      <trkpt lat="38.4965600" lon="-0.6108150">
        <ele>620.4</ele>
        <time>2020-10-12T08:55:24Z</time>
      </trkpt>
      <trkpt lat="38.4966070" lon="-0.6107330">
        <ele>620.6</ele>
        <time>2020-10-12T08:55:25Z</time>
      </trkpt>
      <trkpt lat="38.4966530" lon="-0.6106540">
        <ele>620.6</ele>
        <time>2020-10-12T08:55:26Z</time>
      </trkpt>
      <trkpt lat="38.4966980" lon="-0.6105750">
        <ele>620.6</ele>
        <time>2020-10-12T08:55:27Z</time>
      </trkpt>
      <trkpt lat="38.4967410" lon="-0.6104980">
        <ele>620.6</ele>
        <time>2020-10-12T08:55:28Z</time>
      </trkpt>
      <trkpt lat="38.4967870" lon="-0.6104200">
        <ele>620.8</ele>
        <time>2020-10-12T08:55:29Z</time>
      </trkpt>
      <trkpt lat="38.4968330" lon="-0.6103400">
        <ele>621.0</ele>
        <time>2020-10-12T08:55:30Z</time>
      </trkpt>
      <trkpt lat="38.4968770" lon="-0.6102600">
        <ele>621.2</ele>
        <time>2020-10-12T08:55:31Z</time>
      </trkpt>
      <trkpt lat="38.4969210" lon="-0.6101830">
        <ele>621.6</ele>
        <time>2020-10-12T08:55:32Z</time>
      </trkpt>
      <trkpt lat="38.4969640" lon="-0.6101050">
        <ele>621.8</ele>
        <time>2020-10-12T08:55:33Z</time>
      </trkpt>
      <trkpt lat="38.4970090" lon="-0.6100310">
        <ele>621.8</ele>
        <time>2020-10-12T08:55:34Z</time>
      </trkpt>
      <trkpt lat="38.4970590" lon="-0.6099650">
        <ele>622.0</ele>
        <time>2020-10-12T08:55:35Z</time>
      </trkpt>
      <trkpt lat="38.4971070" lon="-0.6098930">
        <ele>622.2</ele>
        <time>2020-10-12T08:55:36Z</time>
      </trkpt>
      <trkpt lat="38.4971490" lon="-0.6098180">
        <ele>622.4</ele>
        <time>2020-10-12T08:55:37Z</time>
      </trkpt>
      <trkpt lat="38.4971950" lon="-0.6097480">
        <ele>622.6</ele>
        <time>2020-10-12T08:55:38Z</time>
      </trkpt>
      <trkpt lat="38.4972400" lon="-0.6096770">
        <ele>622.6</ele>
        <time>2020-10-12T08:55:39Z</time>
      </trkpt>
      <trkpt lat="38.4972790" lon="-0.6096030">
        <ele>622.8</ele>
        <time>2020-10-12T08:55:40Z</time>
      </trkpt>
      <trkpt lat="38.4973200" lon="-0.6095320">
        <ele>623.0</ele>
        <time>2020-10-12T08:55:41Z</time>
      </trkpt>
      <trkpt lat="38.4973560" lon="-0.6094560">
        <ele>623.0</ele>
        <time>2020-10-12T08:55:42Z</time>
      </trkpt>
      <trkpt lat="38.4973870" lon="-0.6093950">
        <ele>623.2</ele>
        <time>2020-10-12T08:55:43Z</time>
      </trkpt>
      <trkpt lat="38.4974310" lon="-0.6093110">
        <ele>623.2</ele>
        <time>2020-10-12T08:55:44Z</time>
      </trkpt>
      <trkpt lat="38.4974710" lon="-0.6092300">
        <ele>622.6</ele>
        <time>2020-10-12T08:55:45Z</time>
      </trkpt>
      <trkpt lat="38.4975070" lon="-0.6091400">
        <ele>622.2</ele>
        <time>2020-10-12T08:55:46Z</time>
      </trkpt>
      <trkpt lat="38.4975470" lon="-0.6090630">
        <ele>622.0</ele>
        <time>2020-10-12T08:55:47Z</time>
      </trkpt>
      <trkpt lat="38.4975900" lon="-0.6089950">
        <ele>621.6</ele>
        <time>2020-10-12T08:55:48Z</time>
      </trkpt>
      <trkpt lat="38.4976320" lon="-0.6089250">
        <ele>621.2</ele>
        <time>2020-10-12T08:55:49Z</time>
      </trkpt>
      <trkpt lat="38.4976710" lon="-0.6088530">
        <ele>621.0</ele>
        <time>2020-10-12T08:55:50Z</time>
      </trkpt>
      <trkpt lat="38.4977100" lon="-0.6087790">
        <ele>620.8</ele>
        <time>2020-10-12T08:55:51Z</time>
      </trkpt>
      <trkpt lat="38.4977520" lon="-0.6087090">
        <ele>621.0</ele>
        <time>2020-10-12T08:55:52Z</time>
      </trkpt>
      <trkpt lat="38.4977930" lon="-0.6086380">
        <ele>620.8</ele>
        <time>2020-10-12T08:55:53Z</time>
      </trkpt>
      <trkpt lat="38.4978320" lon="-0.6085650">
        <ele>620.6</ele>
        <time>2020-10-12T08:55:54Z</time>
      </trkpt>
      <trkpt lat="38.4978710" lon="-0.6084900">
        <ele>620.6</ele>
        <time>2020-10-12T08:55:55Z</time>
      </trkpt>
      <trkpt lat="38.4979120" lon="-0.6084190">
        <ele>620.4</ele>
        <time>2020-10-12T08:55:56Z</time>
      </trkpt>
      <trkpt lat="38.4979520" lon="-0.6083470">
        <ele>620.6</ele>
        <time>2020-10-12T08:55:57Z</time>
      </trkpt>
      <trkpt lat="38.4979940" lon="-0.6082700">
        <ele>620.6</ele>
        <time>2020-10-12T08:55:58Z</time>
      </trkpt>
      <trkpt lat="38.4980340" lon="-0.6081920">
        <ele>620.6</ele>
        <time>2020-10-12T08:55:59Z</time>
      </trkpt>
      <trkpt lat="38.4980700" lon="-0.6081130">
        <ele>620.8</ele>
        <time>2020-10-12T08:56:00Z</time>
      </trkpt>
      <trkpt lat="38.4981010" lon="-0.6080330">
        <ele>620.8</ele>
        <time>2020-10-12T08:56:01Z</time>
      </trkpt>
      <trkpt lat="38.4981440" lon="-0.6079570">
        <ele>621.0</ele>
        <time>2020-10-12T08:56:02Z</time>
      </trkpt>
      <trkpt lat="38.4981880" lon="-0.6078810">
        <ele>621.2</ele>
        <time>2020-10-12T08:56:03Z</time>
      </trkpt>
      <trkpt lat="38.4982320" lon="-0.6078070">
        <ele>621.2</ele>
        <time>2020-10-12T08:56:04Z</time>
      </trkpt>
      <trkpt lat="38.4982760" lon="-0.6077330">
        <ele>621.2</ele>
        <time>2020-10-12T08:56:05Z</time>
      </trkpt>
      <trkpt lat="38.4983190" lon="-0.6076540">
        <ele>621.0</ele>
        <time>2020-10-12T08:56:06Z</time>
      </trkpt>
      <trkpt lat="38.4983600" lon="-0.6075780">
        <ele>620.8</ele>
        <time>2020-10-12T08:56:07Z</time>
      </trkpt>
      <trkpt lat="38.4984040" lon="-0.6075070">
        <ele>620.6</ele>
        <time>2020-10-12T08:56:08Z</time>
      </trkpt>
      <trkpt lat="38.4984490" lon="-0.6074360">
        <ele>620.2</ele>
        <time>2020-10-12T08:56:09Z</time>
      </trkpt>
      <trkpt lat="38.4984890" lon="-0.6073620">
        <ele>620.0</ele>
        <time>2020-10-12T08:56:10Z</time>
      </trkpt>
      <trkpt lat="38.4985290" lon="-0.6072900">
        <ele>620.2</ele>
        <time>2020-10-12T08:56:11Z</time>
      </trkpt>
      <trkpt lat="38.4985670" lon="-0.6072200">
        <ele>620.2</ele>
        <time>2020-10-12T08:56:12Z</time>
      </trkpt>
      <trkpt lat="38.4986070" lon="-0.6071460">
        <ele>620.2</ele>
        <time>2020-10-12T08:56:13Z</time>
      </trkpt>
      <trkpt lat="38.4986470" lon="-0.6070720">
        <ele>620.0</ele>
        <time>2020-10-12T08:56:14Z</time>
      </trkpt>
      <trkpt lat="38.4986860" lon="-0.6070030">
        <ele>620.2</ele>
        <time>2020-10-12T08:56:15Z</time>
      </trkpt>
      <trkpt lat="38.4987220" lon="-0.6069350">
        <ele>620.6</ele>
        <time>2020-10-12T08:56:16Z</time>
      </trkpt>
      <trkpt lat="38.4987560" lon="-0.6068680">
        <ele>620.8</ele>
        <time>2020-10-12T08:56:17Z</time>
      </trkpt>
      <trkpt lat="38.4987880" lon="-0.6068000">
        <ele>620.8</ele>
        <time>2020-10-12T08:56:18Z</time>
      </trkpt>
      <trkpt lat="38.4988240" lon="-0.6067390">
        <ele>621.0</ele>
        <time>2020-10-12T08:56:19Z</time>
      </trkpt>
      <trkpt lat="38.4988580" lon="-0.6066790">
        <ele>621.2</ele>
        <time>2020-10-12T08:56:20Z</time>
      </trkpt>
      <trkpt lat="38.4988910" lon="-0.6066160">
        <ele>621.2</ele>
        <time>2020-10-12T08:56:21Z</time>
      </trkpt>
      <trkpt lat="38.4989230" lon="-0.6065560">
        <ele>621.4</ele>
        <time>2020-10-12T08:56:22Z</time>
      </trkpt>
      <trkpt lat="38.4989550" lon="-0.6064980">
        <ele>621.4</ele>
        <time>2020-10-12T08:56:23Z</time>
      </trkpt>
      <trkpt lat="38.4989870" lon="-0.6064360">
        <ele>621.4</ele>
        <time>2020-10-12T08:56:24Z</time>
      </trkpt>
      <trkpt lat="38.4990220" lon="-0.6063730">
        <ele>621.4</ele>
        <time>2020-10-12T08:56:25Z</time>
      </trkpt>
      <trkpt lat="38.4990550" lon="-0.6063100">
        <ele>621.4</ele>
        <time>2020-10-12T08:56:26Z</time>
      </trkpt>
      <trkpt lat="38.4990890" lon="-0.6062500">
        <ele>621.4</ele>
        <time>2020-10-12T08:56:27Z</time>
      </trkpt>
      <trkpt lat="38.4991230" lon="-0.6061870">
        <ele>621.6</ele>
        <time>2020-10-12T08:56:28Z</time>
      </trkpt>
      <trkpt lat="38.4991580" lon="-0.6061250">
        <ele>621.6</ele>
        <time>2020-10-12T08:56:29Z</time>
      </trkpt>
      <trkpt lat="38.4991960" lon="-0.6060650">
        <ele>621.6</ele>
        <time>2020-10-12T08:56:30Z</time>
      </trkpt>
      <trkpt lat="38.4992340" lon="-0.6060080">
        <ele>621.8</ele>
        <time>2020-10-12T08:56:31Z</time>
      </trkpt>
      <trkpt lat="38.4992690" lon="-0.6059470">
        <ele>622.0</ele>
        <time>2020-10-12T08:56:32Z</time>
      </trkpt>
      <trkpt lat="38.4993020" lon="-0.6058830">
        <ele>622.2</ele>
        <time>2020-10-12T08:56:33Z</time>
      </trkpt>
      <trkpt lat="38.4993370" lon="-0.6058230">
        <ele>622.4</ele>
        <time>2020-10-12T08:56:34Z</time>
      </trkpt>
      <trkpt lat="38.4993740" lon="-0.6057620">
        <ele>622.6</ele>
        <time>2020-10-12T08:56:35Z</time>
      </trkpt>
      <trkpt lat="38.4994100" lon="-0.6056970">
        <ele>622.8</ele>
        <time>2020-10-12T08:56:36Z</time>
      </trkpt>
      <trkpt lat="38.4994450" lon="-0.6056330">
        <ele>623.0</ele>
        <time>2020-10-12T08:56:37Z</time>
      </trkpt>
      <trkpt lat="38.4994800" lon="-0.6055710">
        <ele>623.2</ele>
        <time>2020-10-12T08:56:38Z</time>
      </trkpt>
      <trkpt lat="38.4995160" lon="-0.6055090">
        <ele>623.2</ele>
        <time>2020-10-12T08:56:39Z</time>
      </trkpt>
      <trkpt lat="38.4995520" lon="-0.6054510">
        <ele>623.0</ele>
        <time>2020-10-12T08:56:40Z</time>
      </trkpt>
      <trkpt lat="38.4995880" lon="-0.6053910">
        <ele>623.2</ele>
        <time>2020-10-12T08:56:41Z</time>
      </trkpt>
      <trkpt lat="38.4996230" lon="-0.6053280">
        <ele>623.2</ele>
        <time>2020-10-12T08:56:42Z</time>
      </trkpt>
      <trkpt lat="38.4996560" lon="-0.6052630">
        <ele>623.6</ele>
        <time>2020-10-12T08:56:43Z</time>
      </trkpt>
      <trkpt lat="38.4996910" lon="-0.6052030">
        <ele>624.0</ele>
        <time>2020-10-12T08:56:44Z</time>
      </trkpt>
      <trkpt lat="38.4997270" lon="-0.6051420">
        <ele>624.6</ele>
        <time>2020-10-12T08:56:45Z</time>
      </trkpt>
      <trkpt lat="38.4997620" lon="-0.6050780">
        <ele>625.2</ele>
        <time>2020-10-12T08:56:46Z</time>
      </trkpt>
      <trkpt lat="38.4997960" lon="-0.6050150">
        <ele>625.6</ele>
        <time>2020-10-12T08:56:47Z</time>
      </trkpt>
      <trkpt lat="38.4998270" lon="-0.6049570">
        <ele>625.8</ele>
        <time>2020-10-12T08:56:48Z</time>
      </trkpt>
      <trkpt lat="38.4998590" lon="-0.6049010">
        <ele>625.8</ele>
        <time>2020-10-12T08:56:49Z</time>
      </trkpt>
      <trkpt lat="38.4998900" lon="-0.6048500">
        <ele>625.8</ele>
        <time>2020-10-12T08:56:50Z</time>
      </trkpt>
      <trkpt lat="38.4999200" lon="-0.6047990">
        <ele>625.8</ele>
        <time>2020-10-12T08:56:51Z</time>
      </trkpt>
      <trkpt lat="38.4999490" lon="-0.6047510">
        <ele>625.6</ele>
        <time>2020-10-12T08:56:52Z</time>
      </trkpt>
      <trkpt lat="38.4999800" lon="-0.6047060">
        <ele>625.4</ele>
        <time>2020-10-12T08:56:53Z</time>
      </trkpt>
      <trkpt lat="38.5000110" lon="-0.6046590">
        <ele>625.0</ele>
        <time>2020-10-12T08:56:54Z</time>
      </trkpt>
      <trkpt lat="38.5000420" lon="-0.6046100">
        <ele>625.0</ele>
        <time>2020-10-12T08:56:55Z</time>
      </trkpt>
      <trkpt lat="38.5000720" lon="-0.6045590">
        <ele>625.0</ele>
        <time>2020-10-12T08:56:56Z</time>
      </trkpt>
      <trkpt lat="38.5001000" lon="-0.6045150">
        <ele>624.8</ele>
        <time>2020-10-12T08:56:57Z</time>
      </trkpt>
      <trkpt lat="38.5001290" lon="-0.6044690">
        <ele>624.8</ele>
        <time>2020-10-12T08:56:58Z</time>
      </trkpt>
      <trkpt lat="38.5001560" lon="-0.6044200">
        <ele>625.0</ele>
        <time>2020-10-12T08:56:59Z</time>
      </trkpt>
      <trkpt lat="38.5001830" lon="-0.6043780">
        <ele>625.4</ele>
        <time>2020-10-12T08:57:00Z</time>
      </trkpt>
      <trkpt lat="38.5002160" lon="-0.6043400">
        <ele>625.8</ele>
        <time>2020-10-12T08:57:01Z</time>
      </trkpt>
      <trkpt lat="38.5002520" lon="-0.6043020">
        <ele>625.8</ele>
        <time>2020-10-12T08:57:02Z</time>
      </trkpt>
      <trkpt lat="38.5002930" lon="-0.6042770">
        <ele>626.0</ele>
        <time>2020-10-12T08:57:03Z</time>
      </trkpt>
      <trkpt lat="38.5003370" lon="-0.6042650">
        <ele>626.0</ele>
        <time>2020-10-12T08:57:04Z</time>
      </trkpt>
      <trkpt lat="38.5003820" lon="-0.6042590">
        <ele>625.6</ele>
        <time>2020-10-12T08:57:05Z</time>
      </trkpt>
      <trkpt lat="38.5004300" lon="-0.6042580">
        <ele>625.4</ele>
        <time>2020-10-12T08:57:06Z</time>
      </trkpt>
      <trkpt lat="38.5004810" lon="-0.6042500">
        <ele>625.4</ele>
        <time>2020-10-12T08:57:07Z</time>
      </trkpt>
      <trkpt lat="38.5005250" lon="-0.6042200">
        <ele>625.4</ele>
        <time>2020-10-12T08:57:08Z</time>
      </trkpt>
      <trkpt lat="38.5005590" lon="-0.6041700">
        <ele>625.6</ele>
        <time>2020-10-12T08:57:09Z</time>
      </trkpt>
      <trkpt lat="38.5005820" lon="-0.6041140">
        <ele>626.0</ele>
        <time>2020-10-12T08:57:10Z</time>
      </trkpt>
      <trkpt lat="38.5006010" lon="-0.6040570">
        <ele>626.4</ele>
        <time>2020-10-12T08:57:11Z</time>
      </trkpt>
      <trkpt lat="38.5006210" lon="-0.6040010">
        <ele>626.6</ele>
        <time>2020-10-12T08:57:12Z</time>
      </trkpt>
      <trkpt lat="38.5006440" lon="-0.6039500">
        <ele>627.0</ele>
        <time>2020-10-12T08:57:13Z</time>
      </trkpt>
      <trkpt lat="38.5006690" lon="-0.6039050">
        <ele>627.2</ele>
        <time>2020-10-12T08:57:14Z</time>
      </trkpt>
      <trkpt lat="38.5006990" lon="-0.6038620">
        <ele>627.2</ele>
        <time>2020-10-12T08:57:15Z</time>
      </trkpt>
      <trkpt lat="38.5007270" lon="-0.6038230">
        <ele>627.4</ele>
        <time>2020-10-12T08:57:16Z</time>
      </trkpt>
      <trkpt lat="38.5007580" lon="-0.6037830">
        <ele>627.4</ele>
        <time>2020-10-12T08:57:17Z</time>
      </trkpt>
      <trkpt lat="38.5007870" lon="-0.6037420">
        <ele>627.6</ele>
        <time>2020-10-12T08:57:18Z</time>
      </trkpt>
      <trkpt lat="38.5008190" lon="-0.6037030">
        <ele>627.6</ele>
        <time>2020-10-12T08:57:19Z</time>
      </trkpt>
      <trkpt lat="38.5008500" lon="-0.6036670">
        <ele>627.4</ele>
        <time>2020-10-12T08:57:20Z</time>
      </trkpt>
      <trkpt lat="38.5008800" lon="-0.6036340">
        <ele>627.4</ele>
        <time>2020-10-12T08:57:21Z</time>
      </trkpt>
      <trkpt lat="38.5009120" lon="-0.6036040">
        <ele>627.4</ele>
        <time>2020-10-12T08:57:22Z</time>
      </trkpt>
      <trkpt lat="38.5009450" lon="-0.6035720">
        <ele>627.4</ele>
        <time>2020-10-12T08:57:23Z</time>
      </trkpt>
      <trkpt lat="38.5009820" lon="-0.6035390">
        <ele>627.4</ele>
        <time>2020-10-12T08:57:24Z</time>
      </trkpt>
      <trkpt lat="38.5010220" lon="-0.6035090">
        <ele>627.4</ele>
        <time>2020-10-12T08:57:25Z</time>
      </trkpt>
      <trkpt lat="38.5010580" lon="-0.6034710">
        <ele>627.6</ele>
        <time>2020-10-12T08:57:26Z</time>
      </trkpt>
      <trkpt lat="38.5010980" lon="-0.6034430">
        <ele>627.8</ele>
        <time>2020-10-12T08:57:27Z</time>
      </trkpt>
      <trkpt lat="38.5011390" lon="-0.6034160">
        <ele>628.0</ele>
        <time>2020-10-12T08:57:28Z</time>
      </trkpt>
      <trkpt lat="38.5011790" lon="-0.6033850">
        <ele>628.2</ele>
        <time>2020-10-12T08:57:29Z</time>
      </trkpt>
      <trkpt lat="38.5012180" lon="-0.6033520">
        <ele>628.4</ele>
        <time>2020-10-12T08:57:30Z</time>
      </trkpt>
      <trkpt lat="38.5012540" lon="-0.6033180">
        <ele>628.4</ele>
        <time>2020-10-12T08:57:31Z</time>
      </trkpt>
      <trkpt lat="38.5012930" lon="-0.6032780">
        <ele>628.6</ele>
        <time>2020-10-12T08:57:32Z</time>
      </trkpt>
      <trkpt lat="38.5013320" lon="-0.6032440">
        <ele>628.8</ele>
        <time>2020-10-12T08:57:33Z</time>
      </trkpt>
      <trkpt lat="38.5013710" lon="-0.6032080">
        <ele>628.8</ele>
        <time>2020-10-12T08:57:34Z</time>
      </trkpt>
      <trkpt lat="38.5014100" lon="-0.6031740">
        <ele>629.0</ele>
        <time>2020-10-12T08:57:35Z</time>
      </trkpt>
      <trkpt lat="38.5014480" lon="-0.6031390">
        <ele>629.2</ele>
        <time>2020-10-12T08:57:36Z</time>
      </trkpt>
      <trkpt lat="38.5014890" lon="-0.6031030">
        <ele>629.4</ele>
        <time>2020-10-12T08:57:37Z</time>
      </trkpt>
      <trkpt lat="38.5015310" lon="-0.6030690">
        <ele>629.6</ele>
        <time>2020-10-12T08:57:38Z</time>
      </trkpt>
      <trkpt lat="38.5015710" lon="-0.6030350">
        <ele>629.6</ele>
        <time>2020-10-12T08:57:39Z</time>
      </trkpt>
      <trkpt lat="38.5016120" lon="-0.6030080">
        <ele>629.8</ele>
        <time>2020-10-12T08:57:40Z</time>
      </trkpt>
      <trkpt lat="38.5016510" lon="-0.6029830">
        <ele>630.0</ele>
        <time>2020-10-12T08:57:41Z</time>
      </trkpt>
      <trkpt lat="38.5016880" lon="-0.6029580">
        <ele>630.0</ele>
        <time>2020-10-12T08:57:42Z</time>
      </trkpt>
      <trkpt lat="38.5017260" lon="-0.6029320">
        <ele>630.2</ele>
        <time>2020-10-12T08:57:43Z</time>
      </trkpt>
      <trkpt lat="38.5017620" lon="-0.6029020">
        <ele>630.6</ele>
        <time>2020-10-12T08:57:44Z</time>
      </trkpt>
      <trkpt lat="38.5017980" lon="-0.6028710">
        <ele>630.8</ele>
        <time>2020-10-12T08:57:45Z</time>
      </trkpt>
      <trkpt lat="38.5018410" lon="-0.6028460">
        <ele>631.0</ele>
        <time>2020-10-12T08:57:46Z</time>
      </trkpt>
      <trkpt lat="38.5018740" lon="-0.6028180">
        <ele>631.2</ele>
        <time>2020-10-12T08:57:47Z</time>
      </trkpt>
      <trkpt lat="38.5019060" lon="-0.6027930">
        <ele>631.4</ele>
        <time>2020-10-12T08:57:48Z</time>
      </trkpt>
      <trkpt lat="38.5019440" lon="-0.6027630">
        <ele>631.4</ele>
        <time>2020-10-12T08:57:49Z</time>
      </trkpt>
      <trkpt lat="38.5019880" lon="-0.6027460">
        <ele>631.6</ele>
        <time>2020-10-12T08:57:50Z</time>
      </trkpt>
      <trkpt lat="38.5020220" lon="-0.6027230">
        <ele>631.6</ele>
        <time>2020-10-12T08:57:51Z</time>
      </trkpt>
      <trkpt lat="38.5020670" lon="-0.6026990">
        <ele>631.6</ele>
        <time>2020-10-12T08:57:52Z</time>
      </trkpt>
      <trkpt lat="38.5021080" lon="-0.6026710">
        <ele>631.8</ele>
        <time>2020-10-12T08:57:53Z</time>
      </trkpt>
      <trkpt lat="38.5021440" lon="-0.6026530">
        <ele>632.0</ele>
        <time>2020-10-12T08:57:54Z</time>
      </trkpt>
      <trkpt lat="38.5021780" lon="-0.6026190">
        <ele>632.2</ele>
        <time>2020-10-12T08:57:55Z</time>
      </trkpt>
      <trkpt lat="38.5022100" lon="-0.6025860">
        <ele>632.4</ele>
        <time>2020-10-12T08:57:56Z</time>
      </trkpt>
      <trkpt lat="38.5022410" lon="-0.6025560">
        <ele>632.6</ele>
        <time>2020-10-12T08:57:57Z</time>
      </trkpt>
      <trkpt lat="38.5022840" lon="-0.6025070">
        <ele>633.0</ele>
        <time>2020-10-12T08:57:58Z</time>
      </trkpt>
      <trkpt lat="38.5023280" lon="-0.6024700">
        <ele>633.0</ele>
        <time>2020-10-12T08:57:59Z</time>
      </trkpt>
      <trkpt lat="38.5023660" lon="-0.6024310">
        <ele>633.2</ele>
        <time>2020-10-12T08:58:00Z</time>
      </trkpt>
      <trkpt lat="38.5024110" lon="-0.6023880">
        <ele>633.2</ele>
        <time>2020-10-12T08:58:01Z</time>
      </trkpt>
      <trkpt lat="38.5024420" lon="-0.6023450">
        <ele>633.2</ele>
        <time>2020-10-12T08:58:02Z</time>
      </trkpt>
      <trkpt lat="38.5024760" lon="-0.6022890">
        <ele>633.0</ele>
        <time>2020-10-12T08:58:03Z</time>
      </trkpt>
      <trkpt lat="38.5025120" lon="-0.6022270">
        <ele>632.8</ele>
        <time>2020-10-12T08:58:04Z</time>
      </trkpt>
      <trkpt lat="38.5025490" lon="-0.6021700">
        <ele>632.4</ele>
        <time>2020-10-12T08:58:05Z</time>
      </trkpt>
      <trkpt lat="38.5025790" lon="-0.6021190">
        <ele>632.0</ele>
        <time>2020-10-12T08:58:06Z</time>
      </trkpt>
      <trkpt lat="38.5026100" lon="-0.6020760">
        <ele>631.8</ele>
        <time>2020-10-12T08:58:07Z</time>
      </trkpt>
      <trkpt lat="38.5026420" lon="-0.6020340">
        <ele>631.6</ele>
        <time>2020-10-12T08:58:08Z</time>
      </trkpt>
      <trkpt lat="38.5026740" lon="-0.6019950">
        <ele>631.2</ele>
        <time>2020-10-12T08:58:09Z</time>
      </trkpt>
      <trkpt lat="38.5027070" lon="-0.6019530">
        <ele>631.2</ele>
        <time>2020-10-12T08:58:10Z</time>
      </trkpt>
      <trkpt lat="38.5027470" lon="-0.6019150">
        <ele>631.0</ele>
        <time>2020-10-12T08:58:11Z</time>
      </trkpt>
      <trkpt lat="38.5027920" lon="-0.6018820">
        <ele>631.0</ele>
        <time>2020-10-12T08:58:12Z</time>
      </trkpt>
      <trkpt lat="38.5028280" lon="-0.6018440">
        <ele>631.0</ele>
        <time>2020-10-12T08:58:13Z</time>
      </trkpt>
      <trkpt lat="38.5028620" lon="-0.6018070">
        <ele>631.2</ele>
        <time>2020-10-12T08:58:14Z</time>
      </trkpt>
      <trkpt lat="38.5028970" lon="-0.6017690">
        <ele>631.8</ele>
        <time>2020-10-12T08:58:15Z</time>
      </trkpt>
      <trkpt lat="38.5029340" lon="-0.6017340">
        <ele>632.4</ele>
        <time>2020-10-12T08:58:16Z</time>
      </trkpt>
      <trkpt lat="38.5029880" lon="-0.6017030">
        <ele>633.0</ele>
        <time>2020-10-12T08:58:17Z</time>
      </trkpt>
      <trkpt lat="38.5030390" lon="-0.6016680">
        <ele>633.4</ele>
        <time>2020-10-12T08:58:18Z</time>
      </trkpt>
      <trkpt lat="38.5030940" lon="-0.6016310">
        <ele>633.6</ele>
        <time>2020-10-12T08:58:19Z</time>
      </trkpt>
      <trkpt lat="38.5031430" lon="-0.6015860">
        <ele>633.6</ele>
        <time>2020-10-12T08:58:20Z</time>
      </trkpt>
      <trkpt lat="38.5031910" lon="-0.6015460">
        <ele>633.6</ele>
        <time>2020-10-12T08:58:21Z</time>
      </trkpt>
      <trkpt lat="38.5032420" lon="-0.6015080">
        <ele>633.6</ele>
        <time>2020-10-12T08:58:22Z</time>
      </trkpt>
      <trkpt lat="38.5032830" lon="-0.6014690">
        <ele>633.6</ele>
        <time>2020-10-12T08:58:23Z</time>
      </trkpt>
      <trkpt lat="38.5033240" lon="-0.6014300">
        <ele>633.6</ele>
        <time>2020-10-12T08:58:24Z</time>
      </trkpt>
      <trkpt lat="38.5033680" lon="-0.6013950">
        <ele>633.6</ele>
        <time>2020-10-12T08:58:25Z</time>
      </trkpt>
      <trkpt lat="38.5034150" lon="-0.6013610">
        <ele>633.4</ele>
        <time>2020-10-12T08:58:26Z</time>
      </trkpt>
      <trkpt lat="38.5034660" lon="-0.6013300">
        <ele>633.4</ele>
        <time>2020-10-12T08:58:27Z</time>
      </trkpt>
      <trkpt lat="38.5035120" lon="-0.6012830">
        <ele>633.4</ele>
        <time>2020-10-12T08:58:28Z</time>
      </trkpt>
      <trkpt lat="38.5035690" lon="-0.6012320">
        <ele>633.4</ele>
        <time>2020-10-12T08:58:29Z</time>
      </trkpt>
      <trkpt lat="38.5036200" lon="-0.6011950">
        <ele>633.2</ele>
        <time>2020-10-12T08:58:30Z</time>
      </trkpt>
      <trkpt lat="38.5036720" lon="-0.6011610">
        <ele>633.2</ele>
        <time>2020-10-12T08:58:31Z</time>
      </trkpt>
      <trkpt lat="38.5037220" lon="-0.6011250">
        <ele>633.2</ele>
        <time>2020-10-12T08:58:32Z</time>
      </trkpt>
      <trkpt lat="38.5037660" lon="-0.6010870">
        <ele>633.4</ele>
        <time>2020-10-12T08:58:33Z</time>
      </trkpt>
      <trkpt lat="38.5038090" lon="-0.6010450">
        <ele>633.4</ele>
        <time>2020-10-12T08:58:34Z</time>
      </trkpt>
      <trkpt lat="38.5038620" lon="-0.6010100">
        <ele>633.4</ele>
        <time>2020-10-12T08:58:35Z</time>
      </trkpt>
      <trkpt lat="38.5039070" lon="-0.6009700">
        <ele>633.6</ele>
        <time>2020-10-12T08:58:36Z</time>
      </trkpt>
      <trkpt lat="38.5039500" lon="-0.6009370">
        <ele>633.8</ele>
        <time>2020-10-12T08:58:37Z</time>
      </trkpt>
      <trkpt lat="38.5039910" lon="-0.6009010">
        <ele>634.2</ele>
        <time>2020-10-12T08:58:38Z</time>
      </trkpt>
      <trkpt lat="38.5040350" lon="-0.6008760">
        <ele>634.4</ele>
        <time>2020-10-12T08:58:39Z</time>
      </trkpt>
      <trkpt lat="38.5040820" lon="-0.6008620">
        <ele>634.6</ele>
        <time>2020-10-12T08:58:40Z</time>
      </trkpt>
      <trkpt lat="38.5041340" lon="-0.6008600">
        <ele>634.6</ele>
        <time>2020-10-12T08:58:41Z</time>
      </trkpt>
      <trkpt lat="38.5041900" lon="-0.6008680">
        <ele>634.6</ele>
        <time>2020-10-12T08:58:42Z</time>
      </trkpt>
      <trkpt lat="38.5042550" lon="-0.6008850">
        <ele>634.6</ele>
        <time>2020-10-12T08:58:43Z</time>
      </trkpt>
      <trkpt lat="38.5043140" lon="-0.6008980">
        <ele>634.4</ele>
        <time>2020-10-12T08:58:44Z</time>
      </trkpt>
      <trkpt lat="38.5043700" lon="-0.6009080">
        <ele>634.4</ele>
        <time>2020-10-12T08:58:45Z</time>
      </trkpt>
      <trkpt lat="38.5044290" lon="-0.6009190">
        <ele>634.6</ele>
        <time>2020-10-12T08:58:46Z</time>
      </trkpt>
      <trkpt lat="38.5044880" lon="-0.6009320">
        <ele>634.6</ele>
        <time>2020-10-12T08:58:47Z</time>
      </trkpt>
      <trkpt lat="38.5045480" lon="-0.6009540">
        <ele>634.6</ele>
        <time>2020-10-12T08:58:48Z</time>
      </trkpt>
      <trkpt lat="38.5046070" lon="-0.6009780">
        <ele>634.6</ele>
        <time>2020-10-12T08:58:49Z</time>
      </trkpt>
      <trkpt lat="38.5046570" lon="-0.6010000">
        <ele>634.8</ele>
        <time>2020-10-12T08:58:50Z</time>
      </trkpt>
      <trkpt lat="38.5046990" lon="-0.6010170">
        <ele>634.6</ele>
        <time>2020-10-12T08:58:51Z</time>
      </trkpt>
      <trkpt lat="38.5047360" lon="-0.6010320">
        <ele>634.4</ele>
        <time>2020-10-12T08:58:52Z</time>
      </trkpt>
      <trkpt lat="38.5047720" lon="-0.6010540">
        <ele>634.2</ele>
        <time>2020-10-12T08:58:53Z</time>
      </trkpt>
      <trkpt lat="38.5047970" lon="-0.6010640">
        <ele>634.2</ele>
        <time>2020-10-12T08:58:54Z</time>
      </trkpt>
      <trkpt lat="38.5048180" lon="-0.6010760">
        <ele>634.0</ele>
        <time>2020-10-12T08:58:55Z</time>
      </trkpt>
      <trkpt lat="38.5048200" lon="-0.6010890">
        <ele>634.0</ele>
        <time>2020-10-12T08:58:56Z</time>
      </trkpt>
      <trkpt lat="38.5048290" lon="-0.6011150">
        <ele>634.0</ele>
        <time>2020-10-12T08:58:57Z</time>
      </trkpt>
      <trkpt lat="38.5048340" lon="-0.6011350">
        <ele>633.8</ele>
        <time>2020-10-12T08:58:58Z</time>
      </trkpt>
      <trkpt lat="38.5048450" lon="-0.6011540">
        <ele>634.0</ele>
        <time>2020-10-12T08:58:59Z</time>
      </trkpt>
      <trkpt lat="38.5048580" lon="-0.6011640">
        <ele>634.0</ele>
        <time>2020-10-12T08:59:00Z</time>
      </trkpt>
      <trkpt lat="38.5048610" lon="-0.6011700">
        <ele>634.0</ele>
        <time>2020-10-12T08:59:01Z</time>
      </trkpt>
      <trkpt lat="38.5048610" lon="-0.6011800">
        <ele>634.0</ele>
        <time>2020-10-12T08:59:02Z</time>
      </trkpt>
      <trkpt lat="38.5048600" lon="-0.6011810">
        <ele>633.8</ele>
        <time>2020-10-12T08:59:03Z</time>
      </trkpt>
      <trkpt lat="38.5048600" lon="-0.6011840">
        <ele>633.8</ele>
        <time>2020-10-12T08:59:04Z</time>
      </trkpt>
      <trkpt lat="38.5048520" lon="-0.6011830">
        <ele>633.8</ele>
        <time>2020-10-12T08:59:05Z</time>
      </trkpt>
      <trkpt lat="38.5048480" lon="-0.6011800">
        <ele>633.8</ele>
        <time>2020-10-12T08:59:06Z</time>
      </trkpt>
      <trkpt lat="38.5048480" lon="-0.6011800">
        <ele>633.8</ele>
        <time>2020-10-12T08:59:07Z</time>
      </trkpt>
      <trkpt lat="38.5048480" lon="-0.6011800">
        <ele>633.8</ele>
        <time>2020-10-12T08:59:08Z</time>
      </trkpt>
      <trkpt lat="38.5048480" lon="-0.6011800">
        <ele>633.8</ele>
        <time>2020-10-12T08:59:09Z</time>
      </trkpt>
      <trkpt lat="38.5048480" lon="-0.6011800">
        <ele>633.8</ele>
        <time>2020-10-12T08:59:10Z</time>
      </trkpt>
      <trkpt lat="38.5048480" lon="-0.6011800">
        <ele>633.8</ele>
        <time>2020-10-12T08:59:11Z</time>
      </trkpt>
      <trkpt lat="38.5048480" lon="-0.6011800">
        <ele>634.0</ele>
        <time>2020-10-12T08:59:12Z</time>
      </trkpt>
      <trkpt lat="38.5048480" lon="-0.6011800">
        <ele>634.0</ele>
        <time>2020-10-12T08:59:13Z</time>
      </trkpt>
      <trkpt lat="38.5048480" lon="-0.6011800">
        <ele>634.0</ele>
        <time>2020-10-12T08:59:14Z</time>
      </trkpt>
      <trkpt lat="38.5048480" lon="-0.6011800">
        <ele>634.0</ele>
        <time>2020-10-12T08:59:15Z</time>
      </trkpt>
      <trkpt lat="38.5048480" lon="-0.6011800">
        <ele>634.0</ele>
        <time>2020-10-12T08:59:16Z</time>
      </trkpt>
      <trkpt lat="38.5048480" lon="-0.6011800">
        <ele>634.0</ele>
        <time>2020-10-12T08:59:17Z</time>
      </trkpt>
      <trkpt lat="38.5048480" lon="-0.6011800">
        <ele>634.0</ele>
        <time>2020-10-12T08:59:18Z</time>
      </trkpt>
      <trkpt lat="38.5048480" lon="-0.6011800">
        <ele>634.0</ele>
        <time>2020-10-12T08:59:19Z</time>
      </trkpt>
      <trkpt lat="38.5048480" lon="-0.6011800">
        <ele>634.0</ele>
        <time>2020-10-12T08:59:20Z</time>
      </trkpt>
      <trkpt lat="38.5048480" lon="-0.6011800">
        <ele>634.0</ele>
        <time>2020-10-12T08:59:21Z</time>
      </trkpt>
      <trkpt lat="38.5048480" lon="-0.6011800">
        <ele>634.0</ele>
        <time>2020-10-12T08:59:22Z</time>
      </trkpt>
      <trkpt lat="38.5048480" lon="-0.6011800">
        <ele>634.0</ele>
        <time>2020-10-12T08:59:23Z</time>
      </trkpt>
      <trkpt lat="38.5048480" lon="-0.6011800">
        <ele>634.0</ele>
        <time>2020-10-12T08:59:24Z</time>
      </trkpt>
      <trkpt lat="38.5048480" lon="-0.6011800">
        <ele>633.8</ele>
        <time>2020-10-12T08:59:25Z</time>
      </trkpt>
      <trkpt lat="38.5048480" lon="-0.6011800">
        <ele>633.8</ele>
        <time>2020-10-12T08:59:26Z</time>
      </trkpt>
      <trkpt lat="38.5048480" lon="-0.6011800">
        <ele>634.0</ele>
        <time>2020-10-12T08:59:27Z</time>
      </trkpt>
      <trkpt lat="38.5048480" lon="-0.6011800">
        <ele>634.0</ele>
        <time>2020-10-12T08:59:28Z</time>
      </trkpt>
      <trkpt lat="38.5048480" lon="-0.6011800">
        <ele>634.0</ele>
        <time>2020-10-12T08:59:29Z</time>
      </trkpt>
      <trkpt lat="38.5048480" lon="-0.6011800">
        <ele>634.0</ele>
        <time>2020-10-12T08:59:30Z</time>
      </trkpt>
      <trkpt lat="38.5048480" lon="-0.6011800">
        <ele>634.0</ele>
        <time>2020-10-12T08:59:31Z</time>
      </trkpt>
      <trkpt lat="38.5048480" lon="-0.6011800">
        <ele>634.0</ele>
        <time>2020-10-12T08:59:32Z</time>
      </trkpt>
      <trkpt lat="38.5048480" lon="-0.6011800">
        <ele>634.0</ele>
        <time>2020-10-12T08:59:33Z</time>
      </trkpt>
      <trkpt lat="38.5048480" lon="-0.6011800">
        <ele>634.0</ele>
        <time>2020-10-12T08:59:34Z</time>
      </trkpt>
      <trkpt lat="38.5048480" lon="-0.6011800">
        <ele>634.0</ele>
        <time>2020-10-12T08:59:35Z</time>
      </trkpt>
      <trkpt lat="38.5048480" lon="-0.6011800">
        <ele>634.0</ele>
        <time>2020-10-12T08:59:36Z</time>
      </trkpt>
      <trkpt lat="38.5048480" lon="-0.6011800">
        <ele>634.0</ele>
        <time>2020-10-12T08:59:37Z</time>
      </trkpt>
      <trkpt lat="38.5048480" lon="-0.6011800">
        <ele>634.0</ele>
        <time>2020-10-12T08:59:38Z</time>
      </trkpt>
      <trkpt lat="38.5048480" lon="-0.6011800">
        <ele>634.0</ele>
        <time>2020-10-12T08:59:39Z</time>
      </trkpt>
      <trkpt lat="38.5048480" lon="-0.6011800">
        <ele>634.0</ele>
        <time>2020-10-12T08:59:40Z</time>
      </trkpt>
      <trkpt lat="38.5048450" lon="-0.6011810">
        <ele>633.8</ele>
        <time>2020-10-12T09:00:42Z</time>
      </trkpt>
      <trkpt lat="38.5048450" lon="-0.6011810">
        <ele>633.8</ele>
        <time>2020-10-12T09:00:43Z</time>
      </trkpt>
      <trkpt lat="38.5048450" lon="-0.6011810">
        <ele>633.8</ele>
        <time>2020-10-12T09:00:44Z</time>
      </trkpt>
      <trkpt lat="38.5048450" lon="-0.6011810">
        <ele>633.8</ele>
        <time>2020-10-12T09:00:45Z</time>
      </trkpt>
      <trkpt lat="38.5048450" lon="-0.6011810">
        <ele>633.8</ele>
        <time>2020-10-12T09:00:46Z</time>
      </trkpt>
      <trkpt lat="38.5048450" lon="-0.6011810">
        <ele>633.8</ele>
        <time>2020-10-12T09:00:47Z</time>
      </trkpt>
      <trkpt lat="38.5048450" lon="-0.6011810">
        <ele>633.8</ele>
        <time>2020-10-12T09:00:48Z</time>
      </trkpt>
      <trkpt lat="38.5048450" lon="-0.6011810">
        <ele>633.6</ele>
        <time>2020-10-12T09:00:49Z</time>
      </trkpt>
      <trkpt lat="38.5048450" lon="-0.6011810">
        <ele>633.4</ele>
        <time>2020-10-12T09:00:50Z</time>
      </trkpt>
      <trkpt lat="38.5048560" lon="-0.6011670">
        <ele>633.2</ele>
        <time>2020-10-12T09:00:51Z</time>
      </trkpt>
      <trkpt lat="38.5048710" lon="-0.6011470">
        <ele>633.0</ele>
        <time>2020-10-12T09:00:52Z</time>
      </trkpt>
      <trkpt lat="38.5048900" lon="-0.6011320">
        <ele>632.8</ele>
        <time>2020-10-12T09:00:53Z</time>
      </trkpt>
      <trkpt lat="38.5049110" lon="-0.6011250">
        <ele>632.8</ele>
        <time>2020-10-12T09:00:54Z</time>
      </trkpt>
      <trkpt lat="38.5049340" lon="-0.6011250">
        <ele>632.6</ele>
        <time>2020-10-12T09:00:55Z</time>
      </trkpt>
      <trkpt lat="38.5049570" lon="-0.6011280">
        <ele>632.6</ele>
        <time>2020-10-12T09:00:56Z</time>
      </trkpt>
      <trkpt lat="38.5049750" lon="-0.6011340">
        <ele>632.6</ele>
        <time>2020-10-12T09:00:57Z</time>
      </trkpt>
      <trkpt lat="38.5049980" lon="-0.6011460">
        <ele>632.6</ele>
        <time>2020-10-12T09:00:58Z</time>
      </trkpt>
      <trkpt lat="38.5050270" lon="-0.6011560">
        <ele>632.8</ele>
        <time>2020-10-12T09:00:59Z</time>
      </trkpt>
      <trkpt lat="38.5050680" lon="-0.6011690">
        <ele>632.8</ele>
        <time>2020-10-12T09:01:00Z</time>
      </trkpt>
      <trkpt lat="38.5051090" lon="-0.6011800">
        <ele>633.0</ele>
        <time>2020-10-12T09:01:01Z</time>
      </trkpt>
      <trkpt lat="38.5051530" lon="-0.6011920">
        <ele>633.2</ele>
        <time>2020-10-12T09:01:02Z</time>
      </trkpt>
      <trkpt lat="38.5051970" lon="-0.6012090">
        <ele>633.2</ele>
        <time>2020-10-12T09:01:03Z</time>
      </trkpt>
      <trkpt lat="38.5052490" lon="-0.6012260">
        <ele>633.2</ele>
        <time>2020-10-12T09:01:04Z</time>
      </trkpt>
      <trkpt lat="38.5052980" lon="-0.6012410">
        <ele>633.2</ele>
        <time>2020-10-12T09:01:05Z</time>
      </trkpt>
      <trkpt lat="38.5053450" lon="-0.6012530">
        <ele>633.2</ele>
        <time>2020-10-12T09:01:06Z</time>
      </trkpt>
      <trkpt lat="38.5053990" lon="-0.6012730">
        <ele>633.4</ele>
        <time>2020-10-12T09:01:07Z</time>
      </trkpt>
      <trkpt lat="38.5054440" lon="-0.6012910">
        <ele>633.2</ele>
        <time>2020-10-12T09:01:08Z</time>
      </trkpt>
      <trkpt lat="38.5054830" lon="-0.6013070">
        <ele>633.4</ele>
        <time>2020-10-12T09:01:09Z</time>
      </trkpt>
      <trkpt lat="38.5055270" lon="-0.6013280">
        <ele>633.4</ele>
        <time>2020-10-12T09:01:10Z</time>
      </trkpt>
      <trkpt lat="38.5055840" lon="-0.6013530">
        <ele>633.4</ele>
        <time>2020-10-12T09:01:11Z</time>
      </trkpt>
      <trkpt lat="38.5056320" lon="-0.6013810">
        <ele>633.4</ele>
        <time>2020-10-12T09:01:12Z</time>
      </trkpt>
      <trkpt lat="38.5056790" lon="-0.6014060">
        <ele>633.8</ele>
        <time>2020-10-12T09:01:13Z</time>
      </trkpt>
      <trkpt lat="38.5057380" lon="-0.6014390">
        <ele>634.0</ele>
        <time>2020-10-12T09:01:14Z</time>
      </trkpt>
      <trkpt lat="38.5058070" lon="-0.6014760">
        <ele>634.2</ele>
        <time>2020-10-12T09:01:15Z</time>
      </trkpt>
      <trkpt lat="38.5058580" lon="-0.6015000">
        <ele>634.6</ele>
        <time>2020-10-12T09:01:16Z</time>
      </trkpt>
      <trkpt lat="38.5059120" lon="-0.6015300">
        <ele>635.4</ele>
        <time>2020-10-12T09:01:17Z</time>
      </trkpt>
      <trkpt lat="38.5059630" lon="-0.6015600">
        <ele>635.8</ele>
        <time>2020-10-12T09:01:18Z</time>
      </trkpt>
      <trkpt lat="38.5060040" lon="-0.6015930">
        <ele>636.0</ele>
        <time>2020-10-12T09:01:19Z</time>
      </trkpt>
      <trkpt lat="38.5060480" lon="-0.6016180">
        <ele>636.2</ele>
        <time>2020-10-12T09:01:20Z</time>
      </trkpt>
      <trkpt lat="38.5060900" lon="-0.6016450">
        <ele>635.6</ele>
        <time>2020-10-12T09:01:21Z</time>
      </trkpt>
      <trkpt lat="38.5061340" lon="-0.6016720">
        <ele>634.8</ele>
        <time>2020-10-12T09:01:22Z</time>
      </trkpt>
      <trkpt lat="38.5061760" lon="-0.6016950">
        <ele>634.0</ele>
        <time>2020-10-12T09:01:23Z</time>
      </trkpt>
      <trkpt lat="38.5062180" lon="-0.6017190">
        <ele>633.4</ele>
        <time>2020-10-12T09:01:24Z</time>
      </trkpt>
      <trkpt lat="38.5062600" lon="-0.6017430">
        <ele>633.2</ele>
        <time>2020-10-12T09:01:25Z</time>
      </trkpt>
      <trkpt lat="38.5063000" lon="-0.6017660">
        <ele>633.2</ele>
        <time>2020-10-12T09:01:26Z</time>
      </trkpt>
      <trkpt lat="38.5063380" lon="-0.6017900">
        <ele>633.2</ele>
        <time>2020-10-12T09:01:27Z</time>
      </trkpt>
      <trkpt lat="38.5063790" lon="-0.6018140">
        <ele>633.2</ele>
        <time>2020-10-12T09:01:28Z</time>
      </trkpt>
      <trkpt lat="38.5064230" lon="-0.6018380">
        <ele>633.6</ele>
        <time>2020-10-12T09:01:29Z</time>
      </trkpt>
      <trkpt lat="38.5064660" lon="-0.6018600">
        <ele>634.0</ele>
        <time>2020-10-12T09:01:30Z</time>
      </trkpt>
      <trkpt lat="38.5065000" lon="-0.6018750">
        <ele>634.8</ele>
        <time>2020-10-12T09:01:31Z</time>
      </trkpt>
      <trkpt lat="38.5065330" lon="-0.6018940">
        <ele>635.4</ele>
        <time>2020-10-12T09:01:32Z</time>
      </trkpt>
      <trkpt lat="38.5065620" lon="-0.6019120">
        <ele>635.8</ele>
        <time>2020-10-12T09:01:33Z</time>
      </trkpt>
      <trkpt lat="38.5065960" lon="-0.6019320">
        <ele>636.2</ele>
        <time>2020-10-12T09:01:34Z</time>
      </trkpt>
      <trkpt lat="38.5066300" lon="-0.6019510">
        <ele>636.6</ele>
        <time>2020-10-12T09:01:35Z</time>
      </trkpt>
      <trkpt lat="38.5066620" lon="-0.6019680">
        <ele>637.0</ele>
        <time>2020-10-12T09:01:36Z</time>
      </trkpt>
      <trkpt lat="38.5066900" lon="-0.6019810">
        <ele>637.2</ele>
        <time>2020-10-12T09:01:37Z</time>
      </trkpt>
      <trkpt lat="38.5067250" lon="-0.6019940">
        <ele>637.4</ele>
        <time>2020-10-12T09:01:38Z</time>
      </trkpt>
      <trkpt lat="38.5067620" lon="-0.6020090">
        <ele>637.6</ele>
        <time>2020-10-12T09:01:39Z</time>
      </trkpt>
      <trkpt lat="38.5068000" lon="-0.6020210">
        <ele>637.8</ele>
        <time>2020-10-12T09:01:40Z</time>
      </trkpt>
      <trkpt lat="38.5068410" lon="-0.6020320">
        <ele>638.0</ele>
        <time>2020-10-12T09:01:41Z</time>
      </trkpt>
      <trkpt lat="38.5068830" lon="-0.6020410">
        <ele>638.2</ele>
        <time>2020-10-12T09:01:42Z</time>
      </trkpt>
      <trkpt lat="38.5069200" lon="-0.6020470">
        <ele>638.4</ele>
        <time>2020-10-12T09:01:43Z</time>
      </trkpt>
      <trkpt lat="38.5069610" lon="-0.6020530">
        <ele>638.6</ele>
        <time>2020-10-12T09:01:44Z</time>
      </trkpt>
      <trkpt lat="38.5070030" lon="-0.6020560">
        <ele>639.0</ele>
        <time>2020-10-12T09:01:45Z</time>
      </trkpt>
      <trkpt lat="38.5070480" lon="-0.6020600">
        <ele>639.4</ele>
        <time>2020-10-12T09:01:46Z</time>
      </trkpt>
      <trkpt lat="38.5070950" lon="-0.6020620">
        <ele>639.4</ele>
        <time>2020-10-12T09:01:47Z</time>
      </trkpt>
      <trkpt lat="38.5071390" lon="-0.6020640">
        <ele>639.2</ele>
        <time>2020-10-12T09:01:48Z</time>
      </trkpt>
      <trkpt lat="38.5071830" lon="-0.6020700">
        <ele>639.2</ele>
        <time>2020-10-12T09:01:49Z</time>
      </trkpt>
      <trkpt lat="38.5072270" lon="-0.6020770">
        <ele>639.0</ele>
        <time>2020-10-12T09:01:50Z</time>
      </trkpt>
      <trkpt lat="38.5072810" lon="-0.6021120">
        <ele>638.8</ele>
        <time>2020-10-12T09:01:51Z</time>
      </trkpt>
      <trkpt lat="38.5073250" lon="-0.6021130">
        <ele>638.2</ele>
        <time>2020-10-12T09:01:52Z</time>
      </trkpt>
      <trkpt lat="38.5073700" lon="-0.6021180">
        <ele>638.0</ele>
        <time>2020-10-12T09:01:53Z</time>
      </trkpt>
      <trkpt lat="38.5074170" lon="-0.6021300">
        <ele>637.6</ele>
        <time>2020-10-12T09:01:54Z</time>
      </trkpt>
      <trkpt lat="38.5074580" lon="-0.6021410">
        <ele>637.4</ele>
        <time>2020-10-12T09:01:55Z</time>
      </trkpt>
      <trkpt lat="38.5074960" lon="-0.6021560">
        <ele>637.4</ele>
        <time>2020-10-12T09:01:56Z</time>
      </trkpt>
      <trkpt lat="38.5075390" lon="-0.6021770">
        <ele>637.4</ele>
        <time>2020-10-12T09:01:57Z</time>
      </trkpt>
      <trkpt lat="38.5075860" lon="-0.6022040">
        <ele>637.4</ele>
        <time>2020-10-12T09:01:58Z</time>
      </trkpt>
      <trkpt lat="38.5076250" lon="-0.6022350">
        <ele>637.4</ele>
        <time>2020-10-12T09:01:59Z</time>
      </trkpt>
      <trkpt lat="38.5076630" lon="-0.6022700">
        <ele>637.4</ele>
        <time>2020-10-12T09:02:00Z</time>
      </trkpt>
      <trkpt lat="38.5077070" lon="-0.6023110">
        <ele>637.0</ele>
        <time>2020-10-12T09:02:01Z</time>
      </trkpt>
      <trkpt lat="38.5077530" lon="-0.6023540">
        <ele>636.0</ele>
        <time>2020-10-12T09:02:02Z</time>
      </trkpt>
      <trkpt lat="38.5077950" lon="-0.6023950">
        <ele>635.0</ele>
        <time>2020-10-12T09:02:03Z</time>
      </trkpt>
      <trkpt lat="38.5078390" lon="-0.6024340">
        <ele>634.2</ele>
        <time>2020-10-12T09:02:04Z</time>
      </trkpt>
      <trkpt lat="38.5078870" lon="-0.6024680">
        <ele>633.8</ele>
        <time>2020-10-12T09:02:05Z</time>
      </trkpt>
      <trkpt lat="38.5079320" lon="-0.6025010">
        <ele>633.4</ele>
        <time>2020-10-12T09:02:06Z</time>
      </trkpt>
      <trkpt lat="38.5079780" lon="-0.6025330">
        <ele>633.2</ele>
        <time>2020-10-12T09:02:07Z</time>
      </trkpt>
      <trkpt lat="38.5080290" lon="-0.6025660">
        <ele>633.0</ele>
        <time>2020-10-12T09:02:08Z</time>
      </trkpt>
      <trkpt lat="38.5080810" lon="-0.6025990">
        <ele>632.8</ele>
        <time>2020-10-12T09:02:09Z</time>
      </trkpt>
      <trkpt lat="38.5081280" lon="-0.6026330">
        <ele>632.8</ele>
        <time>2020-10-12T09:02:10Z</time>
      </trkpt>
      <trkpt lat="38.5081760" lon="-0.6026660">
        <ele>632.6</ele>
        <time>2020-10-12T09:02:11Z</time>
      </trkpt>
      <trkpt lat="38.5082210" lon="-0.6026950">
        <ele>632.6</ele>
        <time>2020-10-12T09:02:12Z</time>
      </trkpt>
      <trkpt lat="38.5082690" lon="-0.6027250">
        <ele>632.6</ele>
        <time>2020-10-12T09:02:13Z</time>
      </trkpt>
      <trkpt lat="38.5083170" lon="-0.6027520">
        <ele>632.6</ele>
        <time>2020-10-12T09:02:14Z</time>
      </trkpt>
      <trkpt lat="38.5083660" lon="-0.6027800">
        <ele>632.6</ele>
        <time>2020-10-12T09:02:15Z</time>
      </trkpt>
      <trkpt lat="38.5084150" lon="-0.6028070">
        <ele>632.6</ele>
        <time>2020-10-12T09:02:16Z</time>
      </trkpt>
      <trkpt lat="38.5084620" lon="-0.6028330">
        <ele>632.6</ele>
        <time>2020-10-12T09:02:17Z</time>
      </trkpt>
      <trkpt lat="38.5085100" lon="-0.6028580">
        <ele>632.6</ele>
        <time>2020-10-12T09:02:18Z</time>
      </trkpt>
      <trkpt lat="38.5085530" lon="-0.6028830">
        <ele>632.6</ele>
        <time>2020-10-12T09:02:19Z</time>
      </trkpt>
      <trkpt lat="38.5085940" lon="-0.6029070">
        <ele>632.6</ele>
        <time>2020-10-12T09:02:20Z</time>
      </trkpt>
      <trkpt lat="38.5086340" lon="-0.6029310">
        <ele>632.8</ele>
        <time>2020-10-12T09:02:21Z</time>
      </trkpt>
      <trkpt lat="38.5086720" lon="-0.6029560">
        <ele>632.8</ele>
        <time>2020-10-12T09:02:22Z</time>
      </trkpt>
      <trkpt lat="38.5087080" lon="-0.6029810">
        <ele>632.8</ele>
        <time>2020-10-12T09:02:23Z</time>
      </trkpt>
      <trkpt lat="38.5087460" lon="-0.6030050">
        <ele>633.4</ele>
        <time>2020-10-12T09:02:24Z</time>
      </trkpt>
      <trkpt lat="38.5087840" lon="-0.6030300">
        <ele>633.8</ele>
        <time>2020-10-12T09:02:25Z</time>
      </trkpt>
      <trkpt lat="38.5088180" lon="-0.6030600">
        <ele>634.4</ele>
        <time>2020-10-12T09:02:26Z</time>
      </trkpt>
      <trkpt lat="38.5088530" lon="-0.6030900">
        <ele>634.8</ele>
        <time>2020-10-12T09:02:27Z</time>
      </trkpt>
      <trkpt lat="38.5088880" lon="-0.6031230">
        <ele>635.4</ele>
        <time>2020-10-12T09:02:28Z</time>
      </trkpt>
      <trkpt lat="38.5089210" lon="-0.6031610">
        <ele>635.8</ele>
        <time>2020-10-12T09:02:29Z</time>
      </trkpt>
      <trkpt lat="38.5089500" lon="-0.6032030">
        <ele>636.2</ele>
        <time>2020-10-12T09:02:30Z</time>
      </trkpt>
      <trkpt lat="38.5089780" lon="-0.6032470">
        <ele>636.4</ele>
        <time>2020-10-12T09:02:31Z</time>
      </trkpt>
      <trkpt lat="38.5090080" lon="-0.6032880">
        <ele>636.6</ele>
        <time>2020-10-12T09:02:32Z</time>
      </trkpt>
      <trkpt lat="38.5090420" lon="-0.6033280">
        <ele>636.8</ele>
        <time>2020-10-12T09:02:33Z</time>
      </trkpt>
      <trkpt lat="38.5090700" lon="-0.6033720">
        <ele>636.8</ele>
        <time>2020-10-12T09:02:34Z</time>
      </trkpt>
      <trkpt lat="38.5091010" lon="-0.6034130">
        <ele>637.0</ele>
        <time>2020-10-12T09:02:35Z</time>
      </trkpt>
      <trkpt lat="38.5091360" lon="-0.6034520">
        <ele>637.0</ele>
        <time>2020-10-12T09:02:36Z</time>
      </trkpt>
      <trkpt lat="38.5091720" lon="-0.6034830">
        <ele>637.0</ele>
        <time>2020-10-12T09:02:37Z</time>
      </trkpt>
      <trkpt lat="38.5092060" lon="-0.6035110">
        <ele>637.2</ele>
        <time>2020-10-12T09:02:38Z</time>
      </trkpt>
      <trkpt lat="38.5092410" lon="-0.6035330">
        <ele>637.2</ele>
        <time>2020-10-12T09:02:39Z</time>
      </trkpt>
      <trkpt lat="38.5092750" lon="-0.6035550">
        <ele>637.4</ele>
        <time>2020-10-12T09:02:40Z</time>
      </trkpt>
      <trkpt lat="38.5093170" lon="-0.6035770">
        <ele>637.8</ele>
        <time>2020-10-12T09:02:41Z</time>
      </trkpt>
      <trkpt lat="38.5093580" lon="-0.6035910">
        <ele>638.2</ele>
        <time>2020-10-12T09:02:42Z</time>
      </trkpt>
      <trkpt lat="38.5093970" lon="-0.6035930">
        <ele>638.8</ele>
        <time>2020-10-12T09:02:43Z</time>
      </trkpt>
      <trkpt lat="38.5094410" lon="-0.6035860">
        <ele>639.2</ele>
        <time>2020-10-12T09:02:44Z</time>
      </trkpt>
      <trkpt lat="38.5094840" lon="-0.6035660">
        <ele>639.6</ele>
        <time>2020-10-12T09:02:45Z</time>
      </trkpt>
      <trkpt lat="38.5095230" lon="-0.6035380">
        <ele>640.0</ele>
        <time>2020-10-12T09:02:46Z</time>
      </trkpt>
      <trkpt lat="38.5095610" lon="-0.6035010">
        <ele>640.4</ele>
        <time>2020-10-12T09:02:47Z</time>
      </trkpt>
      <trkpt lat="38.5095960" lon="-0.6034560">
        <ele>640.6</ele>
        <time>2020-10-12T09:02:48Z</time>
      </trkpt>
      <trkpt lat="38.5096250" lon="-0.6034060">
        <ele>640.8</ele>
        <time>2020-10-12T09:02:49Z</time>
      </trkpt>
      <trkpt lat="38.5096470" lon="-0.6033530">
        <ele>641.0</ele>
        <time>2020-10-12T09:02:50Z</time>
      </trkpt>
      <trkpt lat="38.5096650" lon="-0.6033030">
        <ele>641.2</ele>
        <time>2020-10-12T09:02:51Z</time>
      </trkpt>
      <trkpt lat="38.5096800" lon="-0.6032530">
        <ele>641.2</ele>
        <time>2020-10-12T09:02:52Z</time>
      </trkpt>
      <trkpt lat="38.5096940" lon="-0.6032020">
        <ele>641.2</ele>
        <time>2020-10-12T09:02:53Z</time>
      </trkpt>
      <trkpt lat="38.5097090" lon="-0.6031520">
        <ele>641.4</ele>
        <time>2020-10-12T09:02:54Z</time>
      </trkpt>
      <trkpt lat="38.5097220" lon="-0.6030980">
        <ele>641.6</ele>
        <time>2020-10-12T09:02:55Z</time>
      </trkpt>
      <trkpt lat="38.5097310" lon="-0.6030400">
        <ele>641.6</ele>
        <time>2020-10-12T09:02:56Z</time>
      </trkpt>
      <trkpt lat="38.5097430" lon="-0.6029780">
        <ele>641.8</ele>
        <time>2020-10-12T09:02:57Z</time>
      </trkpt>
      <trkpt lat="38.5097520" lon="-0.6029210">
        <ele>642.0</ele>
        <time>2020-10-12T09:02:58Z</time>
      </trkpt>
      <trkpt lat="38.5097610" lon="-0.6028600">
        <ele>642.0</ele>
        <time>2020-10-12T09:02:59Z</time>
      </trkpt>
      <trkpt lat="38.5097660" lon="-0.6028020">
        <ele>642.2</ele>
        <time>2020-10-12T09:03:00Z</time>
      </trkpt>
      <trkpt lat="38.5097710" lon="-0.6027430">
        <ele>642.4</ele>
        <time>2020-10-12T09:03:01Z</time>
      </trkpt>
      <trkpt lat="38.5097730" lon="-0.6026830">
        <ele>642.6</ele>
        <time>2020-10-12T09:03:02Z</time>
      </trkpt>
      <trkpt lat="38.5097750" lon="-0.6026240">
        <ele>642.8</ele>
        <time>2020-10-12T09:03:03Z</time>
      </trkpt>
      <trkpt lat="38.5097780" lon="-0.6025670">
        <ele>643.0</ele>
        <time>2020-10-12T09:03:04Z</time>
      </trkpt>
      <trkpt lat="38.5097820" lon="-0.6025080">
        <ele>643.2</ele>
        <time>2020-10-12T09:03:05Z</time>
      </trkpt>
      <trkpt lat="38.5097930" lon="-0.6024550">
        <ele>643.4</ele>
        <time>2020-10-12T09:03:06Z</time>
      </trkpt>
      <trkpt lat="38.5098120" lon="-0.6024030">
        <ele>643.6</ele>
        <time>2020-10-12T09:03:07Z</time>
      </trkpt>
      <trkpt lat="38.5098360" lon="-0.6023520">
        <ele>643.8</ele>
        <time>2020-10-12T09:03:08Z</time>
      </trkpt>
      <trkpt lat="38.5098660" lon="-0.6023080">
        <ele>643.8</ele>
        <time>2020-10-12T09:03:09Z</time>
      </trkpt>
      <trkpt lat="38.5098990" lon="-0.6022700">
        <ele>644.0</ele>
        <time>2020-10-12T09:03:10Z</time>
      </trkpt>
      <trkpt lat="38.5099340" lon="-0.6022360">
        <ele>644.0</ele>
        <time>2020-10-12T09:03:11Z</time>
      </trkpt>
      <trkpt lat="38.5099690" lon="-0.6022060">
        <ele>644.0</ele>
        <time>2020-10-12T09:03:12Z</time>
      </trkpt>
      <trkpt lat="38.5100060" lon="-0.6021790">
        <ele>644.2</ele>
        <time>2020-10-12T09:03:13Z</time>
      </trkpt>
      <trkpt lat="38.5100440" lon="-0.6021560">
        <ele>644.4</ele>
        <time>2020-10-12T09:03:14Z</time>
      </trkpt>
      <trkpt lat="38.5100850" lon="-0.6021410">
        <ele>644.6</ele>
        <time>2020-10-12T09:03:15Z</time>
      </trkpt>
      <trkpt lat="38.5101230" lon="-0.6021340">
        <ele>645.0</ele>
        <time>2020-10-12T09:03:16Z</time>
      </trkpt>
      <trkpt lat="38.5101630" lon="-0.6021320">
        <ele>645.2</ele>
        <time>2020-10-12T09:03:17Z</time>
      </trkpt>
      <trkpt lat="38.5102040" lon="-0.6021330">
        <ele>645.4</ele>
        <time>2020-10-12T09:03:18Z</time>
      </trkpt>
      <trkpt lat="38.5102470" lon="-0.6021380">
        <ele>645.6</ele>
        <time>2020-10-12T09:03:19Z</time>
      </trkpt>
      <trkpt lat="38.5102910" lon="-0.6021470">
        <ele>646.0</ele>
        <time>2020-10-12T09:03:20Z</time>
      </trkpt>
      <trkpt lat="38.5103360" lon="-0.6021530">
        <ele>646.4</ele>
        <time>2020-10-12T09:03:21Z</time>
      </trkpt>
      <trkpt lat="38.5103800" lon="-0.6021630">
        <ele>646.4</ele>
        <time>2020-10-12T09:03:22Z</time>
      </trkpt>
      <trkpt lat="38.5104240" lon="-0.6021720">
        <ele>646.6</ele>
        <time>2020-10-12T09:03:23Z</time>
      </trkpt>
      <trkpt lat="38.5104640" lon="-0.6021820">
        <ele>646.6</ele>
        <time>2020-10-12T09:03:24Z</time>
      </trkpt>
      <trkpt lat="38.5105070" lon="-0.6021960">
        <ele>646.8</ele>
        <time>2020-10-12T09:03:25Z</time>
      </trkpt>
      <trkpt lat="38.5105530" lon="-0.6022050">
        <ele>647.0</ele>
        <time>2020-10-12T09:03:26Z</time>
      </trkpt>
      <trkpt lat="38.5105910" lon="-0.6022100">
        <ele>647.2</ele>
        <time>2020-10-12T09:03:27Z</time>
      </trkpt>
      <trkpt lat="38.5106340" lon="-0.6022160">
        <ele>647.6</ele>
        <time>2020-10-12T09:03:28Z</time>
      </trkpt>
      <trkpt lat="38.5106720" lon="-0.6022240">
        <ele>648.0</ele>
        <time>2020-10-12T09:03:29Z</time>
      </trkpt>
      <trkpt lat="38.5107190" lon="-0.6022390">
        <ele>648.2</ele>
        <time>2020-10-12T09:03:30Z</time>
      </trkpt>
      <trkpt lat="38.5107620" lon="-0.6022530">
        <ele>648.4</ele>
        <time>2020-10-12T09:03:31Z</time>
      </trkpt>
      <trkpt lat="38.5108010" lon="-0.6022690">
        <ele>648.6</ele>
        <time>2020-10-12T09:03:32Z</time>
      </trkpt>
      <trkpt lat="38.5108420" lon="-0.6022880">
        <ele>648.8</ele>
        <time>2020-10-12T09:03:33Z</time>
      </trkpt>
      <trkpt lat="38.5108710" lon="-0.6023090">
        <ele>649.0</ele>
        <time>2020-10-12T09:03:34Z</time>
      </trkpt>
      <trkpt lat="38.5109060" lon="-0.6023320">
        <ele>649.2</ele>
        <time>2020-10-12T09:03:35Z</time>
      </trkpt>
      <trkpt lat="38.5109410" lon="-0.6023590">
        <ele>649.4</ele>
        <time>2020-10-12T09:03:36Z</time>
      </trkpt>
      <trkpt lat="38.5109780" lon="-0.6023880">
        <ele>649.6</ele>
        <time>2020-10-12T09:03:37Z</time>
      </trkpt>
      <trkpt lat="38.5110150" lon="-0.6024170">
        <ele>649.6</ele>
        <time>2020-10-12T09:03:38Z</time>
      </trkpt>
      <trkpt lat="38.5110500" lon="-0.6024520">
        <ele>649.8</ele>
        <time>2020-10-12T09:03:39Z</time>
      </trkpt>
      <trkpt lat="38.5110870" lon="-0.6024860">
        <ele>649.8</ele>
        <time>2020-10-12T09:03:40Z</time>
      </trkpt>
      <trkpt lat="38.5111210" lon="-0.6025220">
        <ele>649.8</ele>
        <time>2020-10-12T09:03:41Z</time>
      </trkpt>
      <trkpt lat="38.5111520" lon="-0.6025590">
        <ele>649.4</ele>
        <time>2020-10-12T09:03:42Z</time>
      </trkpt>
      <trkpt lat="38.5111820" lon="-0.6025970">
        <ele>649.4</ele>
        <time>2020-10-12T09:03:43Z</time>
      </trkpt>
      <trkpt lat="38.5112060" lon="-0.6026370">
        <ele>649.4</ele>
        <time>2020-10-12T09:03:44Z</time>
      </trkpt>
      <trkpt lat="38.5112340" lon="-0.6026780">
        <ele>649.6</ele>
        <time>2020-10-12T09:03:45Z</time>
      </trkpt>
      <trkpt lat="38.5112630" lon="-0.6027200">
        <ele>649.6</ele>
        <time>2020-10-12T09:03:46Z</time>
      </trkpt>
      <trkpt lat="38.5112870" lon="-0.6027640">
        <ele>649.8</ele>
        <time>2020-10-12T09:03:47Z</time>
      </trkpt>
      <trkpt lat="38.5113100" lon="-0.6028070">
        <ele>650.2</ele>
        <time>2020-10-12T09:03:48Z</time>
      </trkpt>
      <trkpt lat="38.5113270" lon="-0.6028530">
        <ele>650.4</ele>
        <time>2020-10-12T09:03:49Z</time>
      </trkpt>
      <trkpt lat="38.5113380" lon="-0.6028990">
        <ele>650.4</ele>
        <time>2020-10-12T09:03:50Z</time>
      </trkpt>
      <trkpt lat="38.5113470" lon="-0.6029480">
        <ele>650.4</ele>
        <time>2020-10-12T09:03:51Z</time>
      </trkpt>
      <trkpt lat="38.5113530" lon="-0.6030010">
        <ele>650.6</ele>
        <time>2020-10-12T09:03:52Z</time>
      </trkpt>
      <trkpt lat="38.5113570" lon="-0.6030560">
        <ele>650.6</ele>
        <time>2020-10-12T09:03:53Z</time>
      </trkpt>
      <trkpt lat="38.5113610" lon="-0.6031100">
        <ele>650.6</ele>
        <time>2020-10-12T09:03:54Z</time>
      </trkpt>
      <trkpt lat="38.5113600" lon="-0.6031650">
        <ele>650.8</ele>
        <time>2020-10-12T09:03:55Z</time>
      </trkpt>
      <trkpt lat="38.5113580" lon="-0.6032200">
        <ele>651.0</ele>
        <time>2020-10-12T09:03:56Z</time>
      </trkpt>
      <trkpt lat="38.5113510" lon="-0.6032780">
        <ele>651.2</ele>
        <time>2020-10-12T09:03:57Z</time>
      </trkpt>
      <trkpt lat="38.5113430" lon="-0.6033310">
        <ele>651.6</ele>
        <time>2020-10-12T09:03:58Z</time>
      </trkpt>
      <trkpt lat="38.5113330" lon="-0.6033810">
        <ele>651.8</ele>
        <time>2020-10-12T09:03:59Z</time>
      </trkpt>
      <trkpt lat="38.5113230" lon="-0.6034360">
        <ele>652.0</ele>
        <time>2020-10-12T09:04:00Z</time>
      </trkpt>
      <trkpt lat="38.5113090" lon="-0.6034890">
        <ele>652.4</ele>
        <time>2020-10-12T09:04:01Z</time>
      </trkpt>
      <trkpt lat="38.5112960" lon="-0.6035420">
        <ele>652.6</ele>
        <time>2020-10-12T09:04:02Z</time>
      </trkpt>
      <trkpt lat="38.5112790" lon="-0.6035970">
        <ele>652.8</ele>
        <time>2020-10-12T09:04:03Z</time>
      </trkpt>
      <trkpt lat="38.5112630" lon="-0.6036510">
        <ele>653.0</ele>
        <time>2020-10-12T09:04:04Z</time>
      </trkpt>
      <trkpt lat="38.5112450" lon="-0.6037060">
        <ele>653.2</ele>
        <time>2020-10-12T09:04:05Z</time>
      </trkpt>
      <trkpt lat="38.5112240" lon="-0.6037650">
        <ele>653.4</ele>
        <time>2020-10-12T09:04:06Z</time>
      </trkpt>
      <trkpt lat="38.5112060" lon="-0.6038210">
        <ele>653.6</ele>
        <time>2020-10-12T09:04:07Z</time>
      </trkpt>
      <trkpt lat="38.5111880" lon="-0.6038770">
        <ele>654.0</ele>
        <time>2020-10-12T09:04:08Z</time>
      </trkpt>
      <trkpt lat="38.5111710" lon="-0.6039310">
        <ele>654.0</ele>
        <time>2020-10-12T09:04:09Z</time>
      </trkpt>
      <trkpt lat="38.5111570" lon="-0.6039840">
        <ele>654.4</ele>
        <time>2020-10-12T09:04:10Z</time>
      </trkpt>
      <trkpt lat="38.5111420" lon="-0.6040370">
        <ele>654.6</ele>
        <time>2020-10-12T09:04:11Z</time>
      </trkpt>
      <trkpt lat="38.5111270" lon="-0.6040930">
        <ele>654.8</ele>
        <time>2020-10-12T09:04:12Z</time>
      </trkpt>
      <trkpt lat="38.5111170" lon="-0.6041480">
        <ele>655.0</ele>
        <time>2020-10-12T09:04:13Z</time>
      </trkpt>
      <trkpt lat="38.5111090" lon="-0.6042050">
        <ele>655.0</ele>
        <time>2020-10-12T09:04:14Z</time>
      </trkpt>
      <trkpt lat="38.5111020" lon="-0.6042620">
        <ele>655.0</ele>
        <time>2020-10-12T09:04:15Z</time>
      </trkpt>
      <trkpt lat="38.5110930" lon="-0.6043220">
        <ele>655.0</ele>
        <time>2020-10-12T09:04:16Z</time>
      </trkpt>
      <trkpt lat="38.5110830" lon="-0.6043820">
        <ele>655.0</ele>
        <time>2020-10-12T09:04:17Z</time>
      </trkpt>
      <trkpt lat="38.5110790" lon="-0.6044390">
        <ele>655.0</ele>
        <time>2020-10-12T09:04:18Z</time>
      </trkpt>
      <trkpt lat="38.5110850" lon="-0.6044940">
        <ele>654.8</ele>
        <time>2020-10-12T09:04:19Z</time>
      </trkpt>
      <trkpt lat="38.5110930" lon="-0.6045500">
        <ele>654.6</ele>
        <time>2020-10-12T09:04:20Z</time>
      </trkpt>
      <trkpt lat="38.5111090" lon="-0.6046060">
        <ele>654.6</ele>
        <time>2020-10-12T09:04:21Z</time>
      </trkpt>
      <trkpt lat="38.5111320" lon="-0.6046570">
        <ele>654.4</ele>
        <time>2020-10-12T09:04:22Z</time>
      </trkpt>
      <trkpt lat="38.5111580" lon="-0.6047110">
        <ele>654.4</ele>
        <time>2020-10-12T09:04:23Z</time>
      </trkpt>
      <trkpt lat="38.5111900" lon="-0.6047610">
        <ele>654.4</ele>
        <time>2020-10-12T09:04:24Z</time>
      </trkpt>
      <trkpt lat="38.5112200" lon="-0.6048140">
        <ele>654.6</ele>
        <time>2020-10-12T09:04:25Z</time>
      </trkpt>
      <trkpt lat="38.5112490" lon="-0.6048620">
        <ele>655.0</ele>
        <time>2020-10-12T09:04:26Z</time>
      </trkpt>
      <trkpt lat="38.5112850" lon="-0.6049010">
        <ele>655.2</ele>
        <time>2020-10-12T09:04:27Z</time>
      </trkpt>
      <trkpt lat="38.5113190" lon="-0.6049360">
        <ele>655.4</ele>
        <time>2020-10-12T09:04:28Z</time>
      </trkpt>
      <trkpt lat="38.5113540" lon="-0.6049730">
        <ele>655.6</ele>
        <time>2020-10-12T09:04:29Z</time>
      </trkpt>
      <trkpt lat="38.5113910" lon="-0.6050060">
        <ele>655.6</ele>
        <time>2020-10-12T09:04:30Z</time>
      </trkpt>
      <trkpt lat="38.5114260" lon="-0.6050400">
        <ele>655.6</ele>
        <time>2020-10-12T09:04:31Z</time>
      </trkpt>
      <trkpt lat="38.5114600" lon="-0.6050730">
        <ele>655.8</ele>
        <time>2020-10-12T09:04:32Z</time>
      </trkpt>
      <trkpt lat="38.5114960" lon="-0.6051070">
        <ele>655.8</ele>
        <time>2020-10-12T09:04:33Z</time>
      </trkpt>
      <trkpt lat="38.5115320" lon="-0.6051440">
        <ele>656.0</ele>
        <time>2020-10-12T09:04:34Z</time>
      </trkpt>
      <trkpt lat="38.5115700" lon="-0.6051820">
        <ele>656.0</ele>
        <time>2020-10-12T09:04:35Z</time>
      </trkpt>
      <trkpt lat="38.5116070" lon="-0.6052190">
        <ele>656.0</ele>
        <time>2020-10-12T09:04:36Z</time>
      </trkpt>
      <trkpt lat="38.5116450" lon="-0.6052560">
        <ele>656.2</ele>
        <time>2020-10-12T09:04:37Z</time>
      </trkpt>
      <trkpt lat="38.5116810" lon="-0.6052970">
        <ele>656.2</ele>
        <time>2020-10-12T09:04:38Z</time>
      </trkpt>
      <trkpt lat="38.5117160" lon="-0.6053400">
        <ele>656.2</ele>
        <time>2020-10-12T09:04:39Z</time>
      </trkpt>
      <trkpt lat="38.5117480" lon="-0.6053820">
        <ele>656.2</ele>
        <time>2020-10-12T09:04:40Z</time>
      </trkpt>
      <trkpt lat="38.5117840" lon="-0.6054270">
        <ele>656.2</ele>
        <time>2020-10-12T09:04:41Z</time>
      </trkpt>
      <trkpt lat="38.5118160" lon="-0.6054690">
        <ele>656.2</ele>
        <time>2020-10-12T09:04:42Z</time>
      </trkpt>
      <trkpt lat="38.5118440" lon="-0.6055150">
        <ele>656.6</ele>
        <time>2020-10-12T09:04:43Z</time>
      </trkpt>
      <trkpt lat="38.5118690" lon="-0.6055590">
        <ele>656.6</ele>
        <time>2020-10-12T09:04:44Z</time>
      </trkpt>
      <trkpt lat="38.5118970" lon="-0.6056010">
        <ele>656.6</ele>
        <time>2020-10-12T09:04:45Z</time>
      </trkpt>
      <trkpt lat="38.5119240" lon="-0.6056540">
        <ele>656.8</ele>
        <time>2020-10-12T09:04:46Z</time>
      </trkpt>
      <trkpt lat="38.5119510" lon="-0.6057070">
        <ele>656.6</ele>
        <time>2020-10-12T09:04:47Z</time>
      </trkpt>
      <trkpt lat="38.5119760" lon="-0.6057630">
        <ele>656.6</ele>
        <time>2020-10-12T09:04:48Z</time>
      </trkpt>
      <trkpt lat="38.5120020" lon="-0.6058210">
        <ele>656.4</ele>
        <time>2020-10-12T09:04:49Z</time>
      </trkpt>
      <trkpt lat="38.5120270" lon="-0.6058790">
        <ele>656.2</ele>
        <time>2020-10-12T09:04:50Z</time>
      </trkpt>
      <trkpt lat="38.5120530" lon="-0.6059350">
        <ele>656.2</ele>
        <time>2020-10-12T09:04:51Z</time>
      </trkpt>
      <trkpt lat="38.5120790" lon="-0.6059900">
        <ele>656.4</ele>
        <time>2020-10-12T09:04:52Z</time>
      </trkpt>
      <trkpt lat="38.5121100" lon="-0.6060430">
        <ele>656.4</ele>
        <time>2020-10-12T09:04:53Z</time>
      </trkpt>
      <trkpt lat="38.5121390" lon="-0.6060970">
        <ele>656.4</ele>
        <time>2020-10-12T09:04:54Z</time>
      </trkpt>
      <trkpt lat="38.5121720" lon="-0.6061490">
        <ele>656.2</ele>
        <time>2020-10-12T09:04:55Z</time>
      </trkpt>
      <trkpt lat="38.5122070" lon="-0.6061990">
        <ele>656.2</ele>
        <time>2020-10-12T09:04:56Z</time>
      </trkpt>
      <trkpt lat="38.5122440" lon="-0.6062470">
        <ele>656.0</ele>
        <time>2020-10-12T09:04:57Z</time>
      </trkpt>
      <trkpt lat="38.5122850" lon="-0.6062950">
        <ele>656.0</ele>
        <time>2020-10-12T09:04:58Z</time>
      </trkpt>
      <trkpt lat="38.5123260" lon="-0.6063390">
        <ele>655.8</ele>
        <time>2020-10-12T09:04:59Z</time>
      </trkpt>
      <trkpt lat="38.5123660" lon="-0.6063830">
        <ele>655.8</ele>
        <time>2020-10-12T09:05:00Z</time>
      </trkpt>
      <trkpt lat="38.5124070" lon="-0.6064240">
        <ele>655.8</ele>
        <time>2020-10-12T09:05:01Z</time>
      </trkpt>
      <trkpt lat="38.5124490" lon="-0.6064650">
        <ele>656.2</ele>
        <time>2020-10-12T09:05:02Z</time>
      </trkpt>
      <trkpt lat="38.5124930" lon="-0.6065030">
        <ele>656.4</ele>
        <time>2020-10-12T09:05:03Z</time>
      </trkpt>
      <trkpt lat="38.5125370" lon="-0.6065410">
        <ele>656.8</ele>
        <time>2020-10-12T09:05:04Z</time>
      </trkpt>
      <trkpt lat="38.5125810" lon="-0.6065780">
        <ele>657.0</ele>
        <time>2020-10-12T09:05:05Z</time>
      </trkpt>
      <trkpt lat="38.5126250" lon="-0.6066140">
        <ele>657.0</ele>
        <time>2020-10-12T09:05:06Z</time>
      </trkpt>
      <trkpt lat="38.5126680" lon="-0.6066520">
        <ele>657.0</ele>
        <time>2020-10-12T09:05:07Z</time>
      </trkpt>
      <trkpt lat="38.5127150" lon="-0.6066910">
        <ele>656.8</ele>
        <time>2020-10-12T09:05:08Z</time>
      </trkpt>
      <trkpt lat="38.5127600" lon="-0.6067320">
        <ele>656.6</ele>
        <time>2020-10-12T09:05:09Z</time>
      </trkpt>
      <trkpt lat="38.5128050" lon="-0.6067720">
        <ele>656.6</ele>
        <time>2020-10-12T09:05:10Z</time>
      </trkpt>
      <trkpt lat="38.5128490" lon="-0.6068130">
        <ele>656.4</ele>
        <time>2020-10-12T09:05:11Z</time>
      </trkpt>
      <trkpt lat="38.5128910" lon="-0.6068530">
        <ele>656.2</ele>
        <time>2020-10-12T09:05:12Z</time>
      </trkpt>
      <trkpt lat="38.5129320" lon="-0.6068910">
        <ele>656.0</ele>
        <time>2020-10-12T09:05:13Z</time>
      </trkpt>
      <trkpt lat="38.5129730" lon="-0.6069300">
        <ele>655.8</ele>
        <time>2020-10-12T09:05:14Z</time>
      </trkpt>
      <trkpt lat="38.5130130" lon="-0.6069680">
        <ele>655.6</ele>
        <time>2020-10-12T09:05:15Z</time>
      </trkpt>
      <trkpt lat="38.5130510" lon="-0.6070060">
        <ele>655.4</ele>
        <time>2020-10-12T09:05:16Z</time>
      </trkpt>
      <trkpt lat="38.5130890" lon="-0.6070400">
        <ele>655.4</ele>
        <time>2020-10-12T09:05:17Z</time>
      </trkpt>
      <trkpt lat="38.5131270" lon="-0.6070730">
        <ele>655.2</ele>
        <time>2020-10-12T09:05:18Z</time>
      </trkpt>
      <trkpt lat="38.5131640" lon="-0.6071060">
        <ele>655.0</ele>
        <time>2020-10-12T09:05:19Z</time>
      </trkpt>
      <trkpt lat="38.5132050" lon="-0.6071390">
        <ele>654.8</ele>
        <time>2020-10-12T09:05:20Z</time>
      </trkpt>
      <trkpt lat="38.5132480" lon="-0.6071720">
        <ele>654.8</ele>
        <time>2020-10-12T09:05:21Z</time>
      </trkpt>
      <trkpt lat="38.5132930" lon="-0.6072070">
        <ele>654.6</ele>
        <time>2020-10-12T09:05:22Z</time>
      </trkpt>
      <trkpt lat="38.5133390" lon="-0.6072460">
        <ele>654.4</ele>
        <time>2020-10-12T09:05:23Z</time>
      </trkpt>
      <trkpt lat="38.5133870" lon="-0.6072890">
        <ele>654.4</ele>
        <time>2020-10-12T09:05:24Z</time>
      </trkpt>
      <trkpt lat="38.5134370" lon="-0.6073350">
        <ele>654.2</ele>
        <time>2020-10-12T09:05:25Z</time>
      </trkpt>
      <trkpt lat="38.5134860" lon="-0.6073900">
        <ele>654.2</ele>
        <time>2020-10-12T09:05:26Z</time>
      </trkpt>
      <trkpt lat="38.5135330" lon="-0.6074520">
        <ele>653.8</ele>
        <time>2020-10-12T09:05:27Z</time>
      </trkpt>
      <trkpt lat="38.5135810" lon="-0.6075160">
        <ele>653.4</ele>
        <time>2020-10-12T09:05:28Z</time>
      </trkpt>
      <trkpt lat="38.5136280" lon="-0.6075840">
        <ele>653.2</ele>
        <time>2020-10-12T09:05:29Z</time>
      </trkpt>
      <trkpt lat="38.5136740" lon="-0.6076520">
        <ele>653.0</ele>
        <time>2020-10-12T09:05:30Z</time>
      </trkpt>
      <trkpt lat="38.5137220" lon="-0.6077220">
        <ele>653.2</ele>
        <time>2020-10-12T09:05:31Z</time>
      </trkpt>
      <trkpt lat="38.5137700" lon="-0.6077960">
        <ele>653.6</ele>
        <time>2020-10-12T09:05:32Z</time>
      </trkpt>
      <trkpt lat="38.5138190" lon="-0.6078720">
        <ele>654.4</ele>
        <time>2020-10-12T09:05:33Z</time>
      </trkpt>
      <trkpt lat="38.5138680" lon="-0.6079440">
        <ele>654.8</ele>
        <time>2020-10-12T09:05:34Z</time>
      </trkpt>
      <trkpt lat="38.5139170" lon="-0.6080180">
        <ele>655.0</ele>
        <time>2020-10-12T09:05:35Z</time>
      </trkpt>
      <trkpt lat="38.5139660" lon="-0.6080990">
        <ele>654.8</ele>
        <time>2020-10-12T09:05:36Z</time>
      </trkpt>
      <trkpt lat="38.5140200" lon="-0.6081790">
        <ele>654.6</ele>
        <time>2020-10-12T09:05:37Z</time>
      </trkpt>
      <trkpt lat="38.5140740" lon="-0.6082670">
        <ele>654.4</ele>
        <time>2020-10-12T09:05:38Z</time>
      </trkpt>
      <trkpt lat="38.5141260" lon="-0.6083500">
        <ele>654.0</ele>
        <time>2020-10-12T09:05:39Z</time>
      </trkpt>
      <trkpt lat="38.5141770" lon="-0.6084370">
        <ele>653.6</ele>
        <time>2020-10-12T09:05:40Z</time>
      </trkpt>
      <trkpt lat="38.5142310" lon="-0.6085260">
        <ele>653.4</ele>
        <time>2020-10-12T09:05:41Z</time>
      </trkpt>
      <trkpt lat="38.5142840" lon="-0.6086160">
        <ele>653.0</ele>
        <time>2020-10-12T09:05:42Z</time>
      </trkpt>
      <trkpt lat="38.5143380" lon="-0.6087030">
        <ele>652.4</ele>
        <time>2020-10-12T09:05:43Z</time>
      </trkpt>
      <trkpt lat="38.5143870" lon="-0.6087920">
        <ele>651.8</ele>
        <time>2020-10-12T09:05:44Z</time>
      </trkpt>
      <trkpt lat="38.5144350" lon="-0.6088780">
        <ele>651.4</ele>
        <time>2020-10-12T09:05:45Z</time>
      </trkpt>
      <trkpt lat="38.5144840" lon="-0.6089590">
        <ele>650.8</ele>
        <time>2020-10-12T09:05:46Z</time>
      </trkpt>
      <trkpt lat="38.5145360" lon="-0.6090440">
        <ele>650.0</ele>
        <time>2020-10-12T09:05:47Z</time>
      </trkpt>
      <trkpt lat="38.5145920" lon="-0.6091280">
        <ele>649.4</ele>
        <time>2020-10-12T09:05:48Z</time>
      </trkpt>
      <trkpt lat="38.5146500" lon="-0.6092190">
        <ele>648.8</ele>
        <time>2020-10-12T09:05:49Z</time>
      </trkpt>
      <trkpt lat="38.5147110" lon="-0.6093080">
        <ele>648.4</ele>
        <time>2020-10-12T09:05:50Z</time>
      </trkpt>
      <trkpt lat="38.5147800" lon="-0.6093960">
        <ele>648.2</ele>
        <time>2020-10-12T09:05:51Z</time>
      </trkpt>
      <trkpt lat="38.5148510" lon="-0.6094820">
        <ele>647.8</ele>
        <time>2020-10-12T09:05:52Z</time>
      </trkpt>
      <trkpt lat="38.5149300" lon="-0.6095520">
        <ele>647.6</ele>
        <time>2020-10-12T09:05:53Z</time>
      </trkpt>
      <trkpt lat="38.5150050" lon="-0.6096220">
        <ele>647.2</ele>
        <time>2020-10-12T09:05:54Z</time>
      </trkpt>
      <trkpt lat="38.5150880" lon="-0.6096850">
        <ele>646.6</ele>
        <time>2020-10-12T09:05:55Z</time>
      </trkpt>
      <trkpt lat="38.5151740" lon="-0.6097430">
        <ele>645.6</ele>
        <time>2020-10-12T09:05:56Z</time>
      </trkpt>
      <trkpt lat="38.5152630" lon="-0.6098010">
        <ele>644.6</ele>
        <time>2020-10-12T09:05:57Z</time>
      </trkpt>
      <trkpt lat="38.5153500" lon="-0.6098580">
        <ele>643.8</ele>
        <time>2020-10-12T09:05:58Z</time>
      </trkpt>
      <trkpt lat="38.5154360" lon="-0.6099170">
        <ele>643.4</ele>
        <time>2020-10-12T09:05:59Z</time>
      </trkpt>
      <trkpt lat="38.5155240" lon="-0.6099780">
        <ele>643.0</ele>
        <time>2020-10-12T09:06:00Z</time>
      </trkpt>
      <trkpt lat="38.5156130" lon="-0.6100410">
        <ele>642.4</ele>
        <time>2020-10-12T09:06:01Z</time>
      </trkpt>
      <trkpt lat="38.5157030" lon="-0.6101090">
        <ele>641.6</ele>
        <time>2020-10-12T09:06:02Z</time>
      </trkpt>
      <trkpt lat="38.5157930" lon="-0.6101830">
        <ele>640.6</ele>
        <time>2020-10-12T09:06:03Z</time>
      </trkpt>
      <trkpt lat="38.5158880" lon="-0.6102610">
        <ele>639.6</ele>
        <time>2020-10-12T09:06:04Z</time>
      </trkpt>
      <trkpt lat="38.5159840" lon="-0.6103490">
        <ele>638.6</ele>
        <time>2020-10-12T09:06:05Z</time>
      </trkpt>
      <trkpt lat="38.5160770" lon="-0.6104410">
        <ele>637.6</ele>
        <time>2020-10-12T09:06:06Z</time>
      </trkpt>
      <trkpt lat="38.5161660" lon="-0.6105410">
        <ele>636.4</ele>
        <time>2020-10-12T09:06:07Z</time>
      </trkpt>
      <trkpt lat="38.5162440" lon="-0.6106450">
        <ele>635.6</ele>
        <time>2020-10-12T09:06:08Z</time>
      </trkpt>
      <trkpt lat="38.5163200" lon="-0.6107490">
        <ele>634.8</ele>
        <time>2020-10-12T09:06:09Z</time>
      </trkpt>
      <trkpt lat="38.5163930" lon="-0.6108560">
        <ele>634.0</ele>
        <time>2020-10-12T09:06:10Z</time>
      </trkpt>
      <trkpt lat="38.5164620" lon="-0.6109610">
        <ele>633.6</ele>
        <time>2020-10-12T09:06:11Z</time>
      </trkpt>
      <trkpt lat="38.5165280" lon="-0.6110600">
        <ele>633.2</ele>
        <time>2020-10-12T09:06:12Z</time>
      </trkpt>
      <trkpt lat="38.5165890" lon="-0.6111590">
        <ele>633.0</ele>
        <time>2020-10-12T09:06:13Z</time>
      </trkpt>
      <trkpt lat="38.5166480" lon="-0.6112590">
        <ele>632.8</ele>
        <time>2020-10-12T09:06:14Z</time>
      </trkpt>
      <trkpt lat="38.5167010" lon="-0.6113600">
        <ele>632.6</ele>
        <time>2020-10-12T09:06:15Z</time>
      </trkpt>
      <trkpt lat="38.5167480" lon="-0.6114610">
        <ele>632.4</ele>
        <time>2020-10-12T09:06:16Z</time>
      </trkpt>
      <trkpt lat="38.5167910" lon="-0.6115620">
        <ele>632.2</ele>
        <time>2020-10-12T09:06:17Z</time>
      </trkpt>
      <trkpt lat="38.5168300" lon="-0.6116600">
        <ele>632.2</ele>
        <time>2020-10-12T09:06:18Z</time>
      </trkpt>
      <trkpt lat="38.5168680" lon="-0.6117570">
        <ele>632.4</ele>
        <time>2020-10-12T09:06:19Z</time>
      </trkpt>
      <trkpt lat="38.5169090" lon="-0.6118490">
        <ele>632.4</ele>
        <time>2020-10-12T09:06:20Z</time>
      </trkpt>
      <trkpt lat="38.5169530" lon="-0.6119330">
        <ele>632.8</ele>
        <time>2020-10-12T09:06:21Z</time>
      </trkpt>
      <trkpt lat="38.5169960" lon="-0.6120150">
        <ele>633.0</ele>
        <time>2020-10-12T09:06:22Z</time>
      </trkpt>
      <trkpt lat="38.5170390" lon="-0.6120940">
        <ele>633.0</ele>
        <time>2020-10-12T09:06:23Z</time>
      </trkpt>
      <trkpt lat="38.5170790" lon="-0.6121720">
        <ele>633.0</ele>
        <time>2020-10-12T09:06:24Z</time>
      </trkpt>
      <trkpt lat="38.5171200" lon="-0.6122450">
        <ele>633.2</ele>
        <time>2020-10-12T09:06:25Z</time>
      </trkpt>
      <trkpt lat="38.5171550" lon="-0.6123280">
        <ele>633.0</ele>
        <time>2020-10-12T09:06:26Z</time>
      </trkpt>
      <trkpt lat="38.5171960" lon="-0.6124060">
        <ele>632.6</ele>
        <time>2020-10-12T09:06:27Z</time>
      </trkpt>
      <trkpt lat="38.5172330" lon="-0.6124870">
        <ele>632.2</ele>
        <time>2020-10-12T09:06:28Z</time>
      </trkpt>
      <trkpt lat="38.5172670" lon="-0.6125730">
        <ele>632.0</ele>
        <time>2020-10-12T09:06:29Z</time>
      </trkpt>
      <trkpt lat="38.5173030" lon="-0.6126580">
        <ele>631.6</ele>
        <time>2020-10-12T09:06:30Z</time>
      </trkpt>
      <trkpt lat="38.5173430" lon="-0.6127410">
        <ele>631.0</ele>
        <time>2020-10-12T09:06:31Z</time>
      </trkpt>
      <trkpt lat="38.5173850" lon="-0.6128250">
        <ele>630.6</ele>
        <time>2020-10-12T09:06:32Z</time>
      </trkpt>
      <trkpt lat="38.5174280" lon="-0.6129130">
        <ele>630.4</ele>
        <time>2020-10-12T09:06:33Z</time>
      </trkpt>
      <trkpt lat="38.5174690" lon="-0.6130010">
        <ele>630.4</ele>
        <time>2020-10-12T09:06:34Z</time>
      </trkpt>
      <trkpt lat="38.5175090" lon="-0.6130900">
        <ele>630.6</ele>
        <time>2020-10-12T09:06:35Z</time>
      </trkpt>
      <trkpt lat="38.5175490" lon="-0.6131780">
        <ele>630.8</ele>
        <time>2020-10-12T09:06:36Z</time>
      </trkpt>
      <trkpt lat="38.5175880" lon="-0.6132690">
        <ele>631.0</ele>
        <time>2020-10-12T09:06:37Z</time>
      </trkpt>
      <trkpt lat="38.5176300" lon="-0.6133550">
        <ele>631.0</ele>
        <time>2020-10-12T09:06:38Z</time>
      </trkpt>
      <trkpt lat="38.5176740" lon="-0.6134400">
        <ele>631.2</ele>
        <time>2020-10-12T09:06:39Z</time>
      </trkpt>
      <trkpt lat="38.5177160" lon="-0.6135270">
        <ele>631.2</ele>
        <time>2020-10-12T09:06:40Z</time>
      </trkpt>
      <trkpt lat="38.5177600" lon="-0.6136140">
        <ele>631.2</ele>
        <time>2020-10-12T09:06:41Z</time>
      </trkpt>
      <trkpt lat="38.5178030" lon="-0.6136980">
        <ele>631.2</ele>
        <time>2020-10-12T09:06:42Z</time>
      </trkpt>
      <trkpt lat="38.5178440" lon="-0.6137810">
        <ele>631.2</ele>
        <time>2020-10-12T09:06:43Z</time>
      </trkpt>
      <trkpt lat="38.5178870" lon="-0.6138660">
        <ele>631.0</ele>
        <time>2020-10-12T09:06:44Z</time>
      </trkpt>
      <trkpt lat="38.5179310" lon="-0.6139470">
        <ele>631.0</ele>
        <time>2020-10-12T09:06:45Z</time>
      </trkpt>
      <trkpt lat="38.5179790" lon="-0.6140250">
        <ele>630.8</ele>
        <time>2020-10-12T09:06:46Z</time>
      </trkpt>
      <trkpt lat="38.5180280" lon="-0.6141030">
        <ele>630.6</ele>
        <time>2020-10-12T09:06:47Z</time>
      </trkpt>
      <trkpt lat="38.5180810" lon="-0.6141800">
        <ele>630.4</ele>
        <time>2020-10-12T09:06:48Z</time>
      </trkpt>
      <trkpt lat="38.5181370" lon="-0.6142540">
        <ele>630.4</ele>
        <time>2020-10-12T09:06:49Z</time>
      </trkpt>
      <trkpt lat="38.5181980" lon="-0.6143290">
        <ele>630.4</ele>
        <time>2020-10-12T09:06:50Z</time>
      </trkpt>
      <trkpt lat="38.5182610" lon="-0.6144010">
        <ele>630.0</ele>
        <time>2020-10-12T09:06:51Z</time>
      </trkpt>
      <trkpt lat="38.5183250" lon="-0.6144780">
        <ele>629.8</ele>
        <time>2020-10-12T09:06:52Z</time>
      </trkpt>
      <trkpt lat="38.5183940" lon="-0.6145510">
        <ele>628.4</ele>
        <time>2020-10-12T09:06:53Z</time>
      </trkpt>
      <trkpt lat="38.5184670" lon="-0.6146230">
        <ele>626.4</ele>
        <time>2020-10-12T09:06:54Z</time>
      </trkpt>
      <trkpt lat="38.5185410" lon="-0.6146960">
        <ele>624.0</ele>
        <time>2020-10-12T09:06:55Z</time>
      </trkpt>
      <trkpt lat="38.5186090" lon="-0.6147750">
        <ele>622.4</ele>
        <time>2020-10-12T09:06:56Z</time>
      </trkpt>
      <trkpt lat="38.5186790" lon="-0.6148580">
        <ele>621.4</ele>
        <time>2020-10-12T09:06:57Z</time>
      </trkpt>
      <trkpt lat="38.5187450" lon="-0.6149420">
        <ele>620.8</ele>
        <time>2020-10-12T09:06:58Z</time>
      </trkpt>
      <trkpt lat="38.5188090" lon="-0.6150220">
        <ele>620.6</ele>
        <time>2020-10-12T09:06:59Z</time>
      </trkpt>
      <trkpt lat="38.5188740" lon="-0.6151030">
        <ele>620.2</ele>
        <time>2020-10-12T09:07:00Z</time>
      </trkpt>
      <trkpt lat="38.5189400" lon="-0.6151850">
        <ele>620.0</ele>
        <time>2020-10-12T09:07:01Z</time>
      </trkpt>
      <trkpt lat="38.5190070" lon="-0.6152640">
        <ele>619.8</ele>
        <time>2020-10-12T09:07:02Z</time>
      </trkpt>
      <trkpt lat="38.5190730" lon="-0.6153440">
        <ele>619.8</ele>
        <time>2020-10-12T09:07:03Z</time>
      </trkpt>
      <trkpt lat="38.5191390" lon="-0.6154190">
        <ele>619.8</ele>
        <time>2020-10-12T09:07:04Z</time>
      </trkpt>
      <trkpt lat="38.5192080" lon="-0.6154870">
        <ele>619.6</ele>
        <time>2020-10-12T09:07:05Z</time>
      </trkpt>
      <trkpt lat="38.5192800" lon="-0.6155460">
        <ele>619.8</ele>
        <time>2020-10-12T09:07:06Z</time>
      </trkpt>
      <trkpt lat="38.5193500" lon="-0.6156010">
        <ele>619.8</ele>
        <time>2020-10-12T09:07:07Z</time>
      </trkpt>
      <trkpt lat="38.5194190" lon="-0.6156570">
        <ele>620.2</ele>
        <time>2020-10-12T09:07:08Z</time>
      </trkpt>
      <trkpt lat="38.5194900" lon="-0.6157070">
        <ele>620.4</ele>
        <time>2020-10-12T09:07:09Z</time>
      </trkpt>
      <trkpt lat="38.5195620" lon="-0.6157560">
        <ele>620.2</ele>
        <time>2020-10-12T09:07:10Z</time>
      </trkpt>
      <trkpt lat="38.5196330" lon="-0.6158000">
        <ele>620.2</ele>
        <time>2020-10-12T09:07:11Z</time>
      </trkpt>
      <trkpt lat="38.5197020" lon="-0.6158410">
        <ele>620.4</ele>
        <time>2020-10-12T09:07:12Z</time>
      </trkpt>
      <trkpt lat="38.5197690" lon="-0.6158830">
        <ele>620.8</ele>
        <time>2020-10-12T09:07:13Z</time>
      </trkpt>
      <trkpt lat="38.5198340" lon="-0.6159300">
        <ele>620.8</ele>
        <time>2020-10-12T09:07:14Z</time>
      </trkpt>
      <trkpt lat="38.5198980" lon="-0.6159750">
        <ele>620.6</ele>
        <time>2020-10-12T09:07:15Z</time>
      </trkpt>
      <trkpt lat="38.5199670" lon="-0.6160200">
        <ele>620.8</ele>
        <time>2020-10-12T09:07:16Z</time>
      </trkpt>
      <trkpt lat="38.5200300" lon="-0.6160630">
        <ele>620.8</ele>
        <time>2020-10-12T09:07:17Z</time>
      </trkpt>
      <trkpt lat="38.5200950" lon="-0.6161060">
        <ele>621.0</ele>
        <time>2020-10-12T09:07:18Z</time>
      </trkpt>
      <trkpt lat="38.5201610" lon="-0.6161500">
        <ele>621.0</ele>
        <time>2020-10-12T09:07:19Z</time>
      </trkpt>
      <trkpt lat="38.5202280" lon="-0.6161960">
        <ele>621.0</ele>
        <time>2020-10-12T09:07:20Z</time>
      </trkpt>
      <trkpt lat="38.5202960" lon="-0.6162400">
        <ele>621.0</ele>
        <time>2020-10-12T09:07:21Z</time>
      </trkpt>
      <trkpt lat="38.5203620" lon="-0.6162840">
        <ele>621.0</ele>
        <time>2020-10-12T09:07:22Z</time>
      </trkpt>
      <trkpt lat="38.5204300" lon="-0.6163280">
        <ele>620.8</ele>
        <time>2020-10-12T09:07:23Z</time>
      </trkpt>
      <trkpt lat="38.5204990" lon="-0.6163700">
        <ele>620.6</ele>
        <time>2020-10-12T09:07:24Z</time>
      </trkpt>
      <trkpt lat="38.5205670" lon="-0.6164120">
        <ele>620.6</ele>
        <time>2020-10-12T09:07:25Z</time>
      </trkpt>
      <trkpt lat="38.5206330" lon="-0.6164540">
        <ele>620.6</ele>
        <time>2020-10-12T09:07:26Z</time>
      </trkpt>
      <trkpt lat="38.5207010" lon="-0.6165010">
        <ele>620.4</ele>
        <time>2020-10-12T09:07:27Z</time>
      </trkpt>
      <trkpt lat="38.5207640" lon="-0.6165500">
        <ele>620.6</ele>
        <time>2020-10-12T09:07:28Z</time>
      </trkpt>
      <trkpt lat="38.5208270" lon="-0.6166030">
        <ele>621.0</ele>
        <time>2020-10-12T09:07:29Z</time>
      </trkpt>
      <trkpt lat="38.5208870" lon="-0.6166610">
        <ele>621.2</ele>
        <time>2020-10-12T09:07:30Z</time>
      </trkpt>
      <trkpt lat="38.5209440" lon="-0.6167260">
        <ele>621.4</ele>
        <time>2020-10-12T09:07:31Z</time>
      </trkpt>
      <trkpt lat="38.5210000" lon="-0.6167920">
        <ele>621.8</ele>
        <time>2020-10-12T09:07:32Z</time>
      </trkpt>
      <trkpt lat="38.5210540" lon="-0.6168620">
        <ele>622.0</ele>
        <time>2020-10-12T09:07:33Z</time>
      </trkpt>
      <trkpt lat="38.5211140" lon="-0.6169280">
        <ele>621.8</ele>
        <time>2020-10-12T09:07:34Z</time>
      </trkpt>
      <trkpt lat="38.5211700" lon="-0.6169980">
        <ele>621.8</ele>
        <time>2020-10-12T09:07:35Z</time>
      </trkpt>
      <trkpt lat="38.5212250" lon="-0.6170720">
        <ele>622.0</ele>
        <time>2020-10-12T09:07:36Z</time>
      </trkpt>
      <trkpt lat="38.5212820" lon="-0.6171480">
        <ele>622.0</ele>
        <time>2020-10-12T09:07:37Z</time>
      </trkpt>
      <trkpt lat="38.5213400" lon="-0.6172220">
        <ele>622.0</ele>
        <time>2020-10-12T09:07:38Z</time>
      </trkpt>
      <trkpt lat="38.5214020" lon="-0.6172940">
        <ele>622.0</ele>
        <time>2020-10-12T09:07:39Z</time>
      </trkpt>
      <trkpt lat="38.5214670" lon="-0.6173590">
        <ele>621.8</ele>
        <time>2020-10-12T09:07:40Z</time>
      </trkpt>
      <trkpt lat="38.5215370" lon="-0.6174170">
        <ele>621.8</ele>
        <time>2020-10-12T09:07:41Z</time>
      </trkpt>
      <trkpt lat="38.5216060" lon="-0.6174750">
        <ele>621.8</ele>
        <time>2020-10-12T09:07:42Z</time>
      </trkpt>
      <trkpt lat="38.5216760" lon="-0.6175320">
        <ele>622.2</ele>
        <time>2020-10-12T09:07:43Z</time>
      </trkpt>
      <trkpt lat="38.5217470" lon="-0.6175870">
        <ele>622.6</ele>
        <time>2020-10-12T09:07:44Z</time>
      </trkpt>
      <trkpt lat="38.5218210" lon="-0.6176370">
        <ele>623.2</ele>
        <time>2020-10-12T09:07:45Z</time>
      </trkpt>
      <trkpt lat="38.5218930" lon="-0.6176840">
        <ele>623.6</ele>
        <time>2020-10-12T09:07:46Z</time>
      </trkpt>
      <trkpt lat="38.5219650" lon="-0.6177330">
        <ele>623.6</ele>
        <time>2020-10-12T09:07:47Z</time>
      </trkpt>
      <trkpt lat="38.5220370" lon="-0.6177740">
        <ele>623.8</ele>
        <time>2020-10-12T09:07:48Z</time>
      </trkpt>
      <trkpt lat="38.5221110" lon="-0.6178170">
        <ele>623.8</ele>
        <time>2020-10-12T09:07:49Z</time>
      </trkpt>
      <trkpt lat="38.5221850" lon="-0.6178540">
        <ele>623.6</ele>
        <time>2020-10-12T09:07:50Z</time>
      </trkpt>
      <trkpt lat="38.5222600" lon="-0.6178900">
        <ele>623.6</ele>
        <time>2020-10-12T09:07:51Z</time>
      </trkpt>
      <trkpt lat="38.5223340" lon="-0.6179190">
        <ele>623.2</ele>
        <time>2020-10-12T09:07:52Z</time>
      </trkpt>
      <trkpt lat="38.5224070" lon="-0.6179430">
        <ele>622.8</ele>
        <time>2020-10-12T09:07:53Z</time>
      </trkpt>
      <trkpt lat="38.5224830" lon="-0.6179660">
        <ele>622.6</ele>
        <time>2020-10-12T09:07:54Z</time>
      </trkpt>
      <trkpt lat="38.5225590" lon="-0.6179830">
        <ele>622.6</ele>
        <time>2020-10-12T09:07:55Z</time>
      </trkpt>
      <trkpt lat="38.5226360" lon="-0.6179950">
        <ele>622.4</ele>
        <time>2020-10-12T09:07:56Z</time>
      </trkpt>
      <trkpt lat="38.5227150" lon="-0.6180050">
        <ele>622.2</ele>
        <time>2020-10-12T09:07:57Z</time>
      </trkpt>
      <trkpt lat="38.5227960" lon="-0.6180180">
        <ele>622.4</ele>
        <time>2020-10-12T09:07:58Z</time>
      </trkpt>
      <trkpt lat="38.5228750" lon="-0.6180320">
        <ele>622.4</ele>
        <time>2020-10-12T09:07:59Z</time>
      </trkpt>
      <trkpt lat="38.5229520" lon="-0.6180490">
        <ele>622.2</ele>
        <time>2020-10-12T09:08:00Z</time>
      </trkpt>
      <trkpt lat="38.5230290" lon="-0.6180680">
        <ele>622.2</ele>
        <time>2020-10-12T09:08:01Z</time>
      </trkpt>
      <trkpt lat="38.5231040" lon="-0.6180880">
        <ele>622.0</ele>
        <time>2020-10-12T09:08:02Z</time>
      </trkpt>
      <trkpt lat="38.5231790" lon="-0.6181090">
        <ele>621.8</ele>
        <time>2020-10-12T09:08:03Z</time>
      </trkpt>
      <trkpt lat="38.5232510" lon="-0.6181340">
        <ele>621.8</ele>
        <time>2020-10-12T09:08:04Z</time>
      </trkpt>
      <trkpt lat="38.5233200" lon="-0.6181620">
        <ele>621.8</ele>
        <time>2020-10-12T09:08:05Z</time>
      </trkpt>
      <trkpt lat="38.5233870" lon="-0.6181890">
        <ele>621.8</ele>
        <time>2020-10-12T09:08:06Z</time>
      </trkpt>
      <trkpt lat="38.5234520" lon="-0.6182150">
        <ele>621.8</ele>
        <time>2020-10-12T09:08:07Z</time>
      </trkpt>
      <trkpt lat="38.5235120" lon="-0.6182390">
        <ele>621.8</ele>
        <time>2020-10-12T09:08:08Z</time>
      </trkpt>
      <trkpt lat="38.5235690" lon="-0.6182620">
        <ele>621.8</ele>
        <time>2020-10-12T09:08:09Z</time>
      </trkpt>
      <trkpt lat="38.5236220" lon="-0.6182830">
        <ele>621.6</ele>
        <time>2020-10-12T09:08:10Z</time>
      </trkpt>
      <trkpt lat="38.5236660" lon="-0.6183040">
        <ele>621.4</ele>
        <time>2020-10-12T09:08:11Z</time>
      </trkpt>
      <trkpt lat="38.5237050" lon="-0.6183220">
        <ele>621.2</ele>
        <time>2020-10-12T09:08:12Z</time>
      </trkpt>
      <trkpt lat="38.5237390" lon="-0.6183400">
        <ele>621.0</ele>
        <time>2020-10-12T09:08:13Z</time>
      </trkpt>
      <trkpt lat="38.5237600" lon="-0.6183510">
        <ele>621.0</ele>
        <time>2020-10-12T09:08:14Z</time>
      </trkpt>
      <trkpt lat="38.5237770" lon="-0.6183580">
        <ele>620.6</ele>
        <time>2020-10-12T09:08:15Z</time>
      </trkpt>
      <trkpt lat="38.5237950" lon="-0.6183620">
        <ele>620.6</ele>
        <time>2020-10-12T09:08:16Z</time>
      </trkpt>
      <trkpt lat="38.5238010" lon="-0.6183610">
        <ele>620.4</ele>
        <time>2020-10-12T09:08:17Z</time>
      </trkpt>
      <trkpt lat="38.5238050" lon="-0.6183620">
        <ele>620.2</ele>
        <time>2020-10-12T09:08:18Z</time>
      </trkpt>
      <trkpt lat="38.5238080" lon="-0.6183640">
        <ele>620.2</ele>
        <time>2020-10-12T09:08:19Z</time>
      </trkpt>
      <trkpt lat="38.5238110" lon="-0.6183640">
        <ele>620.2</ele>
        <time>2020-10-12T09:08:20Z</time>
      </trkpt>
      <trkpt lat="38.5238130" lon="-0.6183650">
        <ele>620.2</ele>
        <time>2020-10-12T09:08:21Z</time>
      </trkpt>
      <trkpt lat="38.5238130" lon="-0.6183650">
        <ele>620.2</ele>
        <time>2020-10-12T09:08:22Z</time>
      </trkpt>
      <trkpt lat="38.5238130" lon="-0.6183650">
        <ele>620.0</ele>
        <time>2020-10-12T09:08:23Z</time>
      </trkpt>
      <trkpt lat="38.5238130" lon="-0.6183650">
        <ele>620.0</ele>
        <time>2020-10-12T09:08:24Z</time>
      </trkpt>
      <trkpt lat="38.5238130" lon="-0.6183650">
        <ele>620.0</ele>
        <time>2020-10-12T09:08:25Z</time>
      </trkpt>
      <trkpt lat="38.5238130" lon="-0.6183650">
        <ele>620.0</ele>
        <time>2020-10-12T09:08:26Z</time>
      </trkpt>
      <trkpt lat="38.5238130" lon="-0.6183650">
        <ele>619.8</ele>
        <time>2020-10-12T09:08:27Z</time>
      </trkpt>
      <trkpt lat="38.5238130" lon="-0.6183650">
        <ele>619.8</ele>
        <time>2020-10-12T09:08:28Z</time>
      </trkpt>
      <trkpt lat="38.5238130" lon="-0.6183650">
        <ele>619.8</ele>
        <time>2020-10-12T09:08:29Z</time>
      </trkpt>
      <trkpt lat="38.5238130" lon="-0.6183650">
        <ele>620.0</ele>
        <time>2020-10-12T09:08:30Z</time>
      </trkpt>
      <trkpt lat="38.5238130" lon="-0.6183650">
        <ele>620.0</ele>
        <time>2020-10-12T09:08:31Z</time>
      </trkpt>
      <trkpt lat="38.5238130" lon="-0.6183650">
        <ele>620.0</ele>
        <time>2020-10-12T09:08:32Z</time>
      </trkpt>
      <trkpt lat="38.5238130" lon="-0.6183650">
        <ele>620.0</ele>
        <time>2020-10-12T09:08:33Z</time>
      </trkpt>
      <trkpt lat="38.5238130" lon="-0.6183650">
        <ele>620.2</ele>
        <time>2020-10-12T09:08:34Z</time>
      </trkpt>
      <trkpt lat="38.5238130" lon="-0.6183650">
        <ele>620.2</ele>
        <time>2020-10-12T09:08:35Z</time>
      </trkpt>
      <trkpt lat="38.5238130" lon="-0.6183650">
        <ele>620.2</ele>
        <time>2020-10-12T09:08:36Z</time>
      </trkpt>
      <trkpt lat="38.5238130" lon="-0.6183650">
        <ele>620.2</ele>
        <time>2020-10-12T09:08:37Z</time>
      </trkpt>
      <trkpt lat="38.5238130" lon="-0.6183650">
        <ele>620.2</ele>
        <time>2020-10-12T09:08:38Z</time>
      </trkpt>
      <trkpt lat="38.5238130" lon="-0.6183650">
        <ele>620.0</ele>
        <time>2020-10-12T09:08:39Z</time>
      </trkpt>
      <trkpt lat="38.5238130" lon="-0.6183650">
        <ele>620.0</ele>
        <time>2020-10-12T09:08:40Z</time>
      </trkpt>
      <trkpt lat="38.5238130" lon="-0.6183650">
        <ele>619.8</ele>
        <time>2020-10-12T09:08:41Z</time>
      </trkpt>
      <trkpt lat="38.5238130" lon="-0.6183650">
        <ele>619.6</ele>
        <time>2020-10-12T09:08:42Z</time>
      </trkpt>
      <trkpt lat="38.5238130" lon="-0.6183650">
        <ele>619.6</ele>
        <time>2020-10-12T09:08:43Z</time>
      </trkpt>
      <trkpt lat="38.5238130" lon="-0.6183650">
        <ele>619.6</ele>
        <time>2020-10-12T09:08:44Z</time>
      </trkpt>
      <trkpt lat="38.5238130" lon="-0.6183650">
        <ele>619.6</ele>
        <time>2020-10-12T09:08:45Z</time>
      </trkpt>
      <trkpt lat="38.5238130" lon="-0.6183650">
        <ele>619.6</ele>
        <time>2020-10-12T09:08:46Z</time>
      </trkpt>
      <trkpt lat="38.5238130" lon="-0.6183650">
        <ele>619.6</ele>
        <time>2020-10-12T09:08:47Z</time>
      </trkpt>
      <trkpt lat="38.5238130" lon="-0.6183650">
        <ele>619.6</ele>
        <time>2020-10-12T09:08:48Z</time>
      </trkpt>
      <trkpt lat="38.5238130" lon="-0.6183650">
        <ele>619.6</ele>
        <time>2020-10-12T09:08:49Z</time>
      </trkpt>
      <trkpt lat="38.5238130" lon="-0.6183650">
        <ele>619.6</ele>
        <time>2020-10-12T09:08:50Z</time>
      </trkpt>
      <trkpt lat="38.5238130" lon="-0.6183650">
        <ele>619.6</ele>
        <time>2020-10-12T09:08:51Z</time>
      </trkpt>
      <trkpt lat="38.5238200" lon="-0.6183710">
        <ele>619.6</ele>
        <time>2020-10-12T09:08:52Z</time>
      </trkpt>
      <trkpt lat="38.5238300" lon="-0.6183780">
        <ele>619.6</ele>
        <time>2020-10-12T09:08:53Z</time>
      </trkpt>
      <trkpt lat="38.5238470" lon="-0.6183880">
        <ele>619.8</ele>
        <time>2020-10-12T09:08:54Z</time>
      </trkpt>
      <trkpt lat="38.5238550" lon="-0.6183920">
        <ele>619.8</ele>
        <time>2020-10-12T09:08:55Z</time>
      </trkpt>
      <trkpt lat="38.5238580" lon="-0.6183910">
        <ele>620.0</ele>
        <time>2020-10-12T09:08:56Z</time>
      </trkpt>
      <trkpt lat="38.5238570" lon="-0.6183900">
        <ele>620.0</ele>
        <time>2020-10-12T09:08:57Z</time>
      </trkpt>
      <trkpt lat="38.5238580" lon="-0.6183900">
        <ele>620.0</ele>
        <time>2020-10-12T09:08:58Z</time>
      </trkpt>
      <trkpt lat="38.5238580" lon="-0.6183890">
        <ele>619.8</ele>
        <time>2020-10-12T09:08:59Z</time>
      </trkpt>
      <trkpt lat="38.5238580" lon="-0.6183870">
        <ele>619.6</ele>
        <time>2020-10-12T09:09:00Z</time>
      </trkpt>
      <trkpt lat="38.5238580" lon="-0.6183880">
        <ele>619.6</ele>
        <time>2020-10-12T09:09:01Z</time>
      </trkpt>
      <trkpt lat="38.5238570" lon="-0.6183880">
        <ele>619.6</ele>
        <time>2020-10-12T09:09:02Z</time>
      </trkpt>
      <trkpt lat="38.5238570" lon="-0.6183880">
        <ele>619.6</ele>
        <time>2020-10-12T09:09:03Z</time>
      </trkpt>
      <trkpt lat="38.5238570" lon="-0.6183880">
        <ele>619.4</ele>
        <time>2020-10-12T09:09:04Z</time>
      </trkpt>
      <trkpt lat="38.5238560" lon="-0.6183880">
        <ele>619.4</ele>
        <time>2020-10-12T09:09:05Z</time>
      </trkpt>
      <trkpt lat="38.5238570" lon="-0.6183870">
        <ele>619.6</ele>
        <time>2020-10-12T09:09:06Z</time>
      </trkpt>
      <trkpt lat="38.5238580" lon="-0.6183870">
        <ele>619.6</ele>
        <time>2020-10-12T09:09:07Z</time>
      </trkpt>
      <trkpt lat="38.5238580" lon="-0.6183870">
        <ele>619.6</ele>
        <time>2020-10-12T09:09:08Z</time>
      </trkpt>
      <trkpt lat="38.5238570" lon="-0.6183870">
        <ele>619.6</ele>
        <time>2020-10-12T09:09:09Z</time>
      </trkpt>
      <trkpt lat="38.5238570" lon="-0.6183870">
        <ele>619.8</ele>
        <time>2020-10-12T09:09:10Z</time>
      </trkpt>
      <trkpt lat="38.5238570" lon="-0.6183870">
        <ele>619.8</ele>
        <time>2020-10-12T09:09:11Z</time>
      </trkpt>
      <trkpt lat="38.5238590" lon="-0.6183870">
        <ele>619.8</ele>
        <time>2020-10-12T09:09:12Z</time>
      </trkpt>
      <trkpt lat="38.5238580" lon="-0.6183900">
        <ele>619.8</ele>
        <time>2020-10-12T09:09:13Z</time>
      </trkpt>
      <trkpt lat="38.5238570" lon="-0.6183940">
        <ele>619.8</ele>
        <time>2020-10-12T09:09:14Z</time>
      </trkpt>
      <trkpt lat="38.5238570" lon="-0.6183960">
        <ele>619.6</ele>
        <time>2020-10-12T09:09:15Z</time>
      </trkpt>
      <trkpt lat="38.5238570" lon="-0.6183960">
        <ele>619.6</ele>
        <time>2020-10-12T09:09:16Z</time>
      </trkpt>
      <trkpt lat="38.5238570" lon="-0.6183950">
        <ele>619.6</ele>
        <time>2020-10-12T09:09:17Z</time>
      </trkpt>
      <trkpt lat="38.5238570" lon="-0.6183950">
        <ele>619.6</ele>
        <time>2020-10-12T09:09:18Z</time>
      </trkpt>
      <trkpt lat="38.5238590" lon="-0.6183950">
        <ele>619.6</ele>
        <time>2020-10-12T09:09:19Z</time>
      </trkpt>
      <trkpt lat="38.5238620" lon="-0.6183930">
        <ele>619.6</ele>
        <time>2020-10-12T09:09:20Z</time>
      </trkpt>
      <trkpt lat="38.5238650" lon="-0.6183910">
        <ele>619.6</ele>
        <time>2020-10-12T09:09:21Z</time>
      </trkpt>
      <trkpt lat="38.5238690" lon="-0.6183900">
        <ele>619.6</ele>
        <time>2020-10-12T09:09:22Z</time>
      </trkpt>
      <trkpt lat="38.5238700" lon="-0.6183900">
        <ele>619.6</ele>
        <time>2020-10-12T09:09:23Z</time>
      </trkpt>
      <trkpt lat="38.5238700" lon="-0.6183900">
        <ele>619.6</ele>
        <time>2020-10-12T09:09:24Z</time>
      </trkpt>
      <trkpt lat="38.5238700" lon="-0.6183900">
        <ele>619.6</ele>
        <time>2020-10-12T09:09:25Z</time>
      </trkpt>
      <trkpt lat="38.5238700" lon="-0.6183910">
        <ele>619.6</ele>
        <time>2020-10-12T09:09:26Z</time>
      </trkpt>
      <trkpt lat="38.5238700" lon="-0.6183900">
        <ele>619.6</ele>
        <time>2020-10-12T09:09:27Z</time>
      </trkpt>
      <trkpt lat="38.5238690" lon="-0.6183910">
        <ele>619.6</ele>
        <time>2020-10-12T09:09:28Z</time>
      </trkpt>
      <trkpt lat="38.5238700" lon="-0.6183900">
        <ele>619.6</ele>
        <time>2020-10-12T09:09:29Z</time>
      </trkpt>
      <trkpt lat="38.5238690" lon="-0.6183900">
        <ele>619.6</ele>
        <time>2020-10-12T09:09:30Z</time>
      </trkpt>
      <trkpt lat="38.5238690" lon="-0.6183900">
        <ele>619.6</ele>
        <time>2020-10-12T09:09:31Z</time>
      </trkpt>
      <trkpt lat="38.5238690" lon="-0.6183900">
        <ele>619.6</ele>
        <time>2020-10-12T09:09:32Z</time>
      </trkpt>
      <trkpt lat="38.5238690" lon="-0.6183900">
        <ele>619.6</ele>
        <time>2020-10-12T09:09:33Z</time>
      </trkpt>
      <trkpt lat="38.5238690" lon="-0.6183900">
        <ele>619.6</ele>
        <time>2020-10-12T09:09:34Z</time>
      </trkpt>
      <trkpt lat="38.5238690" lon="-0.6183890">
        <ele>619.6</ele>
        <time>2020-10-12T09:09:35Z</time>
      </trkpt>
      <trkpt lat="38.5238690" lon="-0.6183880">
        <ele>619.6</ele>
        <time>2020-10-12T09:09:36Z</time>
      </trkpt>
      <trkpt lat="38.5238690" lon="-0.6183860">
        <ele>619.6</ele>
        <time>2020-10-12T09:09:37Z</time>
      </trkpt>
      <trkpt lat="38.5238680" lon="-0.6183850">
        <ele>619.6</ele>
        <time>2020-10-12T09:09:38Z</time>
      </trkpt>
      <trkpt lat="38.5238680" lon="-0.6183840">
        <ele>619.6</ele>
        <time>2020-10-12T09:09:39Z</time>
      </trkpt>
      <trkpt lat="38.5238690" lon="-0.6183830">
        <ele>619.6</ele>
        <time>2020-10-12T09:09:40Z</time>
      </trkpt>
      <trkpt lat="38.5238700" lon="-0.6183810">
        <ele>619.6</ele>
        <time>2020-10-12T09:09:41Z</time>
      </trkpt>
      <trkpt lat="38.5238700" lon="-0.6183800">
        <ele>619.6</ele>
        <time>2020-10-12T09:09:42Z</time>
      </trkpt>
      <trkpt lat="38.5238700" lon="-0.6183800">
        <ele>619.6</ele>
        <time>2020-10-12T09:09:43Z</time>
      </trkpt>
      <trkpt lat="38.5238700" lon="-0.6183790">
        <ele>619.6</ele>
        <time>2020-10-12T09:09:44Z</time>
      </trkpt>
      <trkpt lat="38.5238700" lon="-0.6183780">
        <ele>619.6</ele>
        <time>2020-10-12T09:09:45Z</time>
      </trkpt>
      <trkpt lat="38.5238700" lon="-0.6183770">
        <ele>619.6</ele>
        <time>2020-10-12T09:09:46Z</time>
      </trkpt>
      <trkpt lat="38.5238690" lon="-0.6183760">
        <ele>619.6</ele>
        <time>2020-10-12T09:09:47Z</time>
      </trkpt>
      <trkpt lat="38.5238700" lon="-0.6183750">
        <ele>619.6</ele>
        <time>2020-10-12T09:09:48Z</time>
      </trkpt>
      <trkpt lat="38.5238700" lon="-0.6183750">
        <ele>619.6</ele>
        <time>2020-10-12T09:09:49Z</time>
      </trkpt>
      <trkpt lat="38.5238700" lon="-0.6183750">
        <ele>619.6</ele>
        <time>2020-10-12T09:09:50Z</time>
      </trkpt>
      <trkpt lat="38.5238700" lon="-0.6183750">
        <ele>619.6</ele>
        <time>2020-10-12T09:09:51Z</time>
      </trkpt>
      <trkpt lat="38.5238700" lon="-0.6183750">
        <ele>619.6</ele>
        <time>2020-10-12T09:09:52Z</time>
      </trkpt>
      <trkpt lat="38.5238700" lon="-0.6183750">
        <ele>619.6</ele>
        <time>2020-10-12T09:09:53Z</time>
      </trkpt>
      <trkpt lat="38.5238700" lon="-0.6183750">
        <ele>619.6</ele>
        <time>2020-10-12T09:09:54Z</time>
      </trkpt>
      <trkpt lat="38.5238690" lon="-0.6183750">
        <ele>619.6</ele>
        <time>2020-10-12T09:09:55Z</time>
      </trkpt>
      <trkpt lat="38.5238690" lon="-0.6183740">
        <ele>619.6</ele>
        <time>2020-10-12T09:09:56Z</time>
      </trkpt>
      <trkpt lat="38.5238690" lon="-0.6183740">
        <ele>619.6</ele>
        <time>2020-10-12T09:09:57Z</time>
      </trkpt>
      <trkpt lat="38.5238690" lon="-0.6183740">
        <ele>619.6</ele>
        <time>2020-10-12T09:09:58Z</time>
      </trkpt>
      <trkpt lat="38.5238690" lon="-0.6183740">
        <ele>619.6</ele>
        <time>2020-10-12T09:09:59Z</time>
      </trkpt>
      <trkpt lat="38.5238690" lon="-0.6183740">
        <ele>619.6</ele>
        <time>2020-10-12T09:10:00Z</time>
      </trkpt>
      <trkpt lat="38.5238690" lon="-0.6183730">
        <ele>619.6</ele>
        <time>2020-10-12T09:10:01Z</time>
      </trkpt>
      <trkpt lat="38.5238690" lon="-0.6183730">
        <ele>619.6</ele>
        <time>2020-10-12T09:10:02Z</time>
      </trkpt>
      <trkpt lat="38.5238690" lon="-0.6183740">
        <ele>619.6</ele>
        <time>2020-10-12T09:10:03Z</time>
      </trkpt>
      <trkpt lat="38.5238680" lon="-0.6183740">
        <ele>619.6</ele>
        <time>2020-10-12T09:10:04Z</time>
      </trkpt>
      <trkpt lat="38.5238680" lon="-0.6183740">
        <ele>619.6</ele>
        <time>2020-10-12T09:10:05Z</time>
      </trkpt>
      <trkpt lat="38.5238680" lon="-0.6183740">
        <ele>619.6</ele>
        <time>2020-10-12T09:10:06Z</time>
      </trkpt>
      <trkpt lat="38.5238670" lon="-0.6183740">
        <ele>619.6</ele>
        <time>2020-10-12T09:10:07Z</time>
      </trkpt>
      <trkpt lat="38.5238670" lon="-0.6183720">
        <ele>619.6</ele>
        <time>2020-10-12T09:10:08Z</time>
      </trkpt>
      <trkpt lat="38.5238670" lon="-0.6183690">
        <ele>619.6</ele>
        <time>2020-10-12T09:10:09Z</time>
      </trkpt>
      <trkpt lat="38.5238670" lon="-0.6183690">
        <ele>619.6</ele>
        <time>2020-10-12T09:10:10Z</time>
      </trkpt>
      <trkpt lat="38.5238680" lon="-0.6183700">
        <ele>619.6</ele>
        <time>2020-10-12T09:10:11Z</time>
      </trkpt>
      <trkpt lat="38.5238670" lon="-0.6183730">
        <ele>619.6</ele>
        <time>2020-10-12T09:10:12Z</time>
      </trkpt>
      <trkpt lat="38.5238680" lon="-0.6183730">
        <ele>619.6</ele>
        <time>2020-10-12T09:10:13Z</time>
      </trkpt>
      <trkpt lat="38.5238670" lon="-0.6183730">
        <ele>619.6</ele>
        <time>2020-10-12T09:10:14Z</time>
      </trkpt>
      <trkpt lat="38.5238670" lon="-0.6183730">
        <ele>619.6</ele>
        <time>2020-10-12T09:10:15Z</time>
      </trkpt>
      <trkpt lat="38.5238650" lon="-0.6183720">
        <ele>619.6</ele>
        <time>2020-10-12T09:10:16Z</time>
      </trkpt>
      <trkpt lat="38.5238630" lon="-0.6183710">
        <ele>619.6</ele>
        <time>2020-10-12T09:10:17Z</time>
      </trkpt>
      <trkpt lat="38.5238610" lon="-0.6183700">
        <ele>619.6</ele>
        <time>2020-10-12T09:10:18Z</time>
      </trkpt>
      <trkpt lat="38.5238600" lon="-0.6183690">
        <ele>619.6</ele>
        <time>2020-10-12T09:10:19Z</time>
      </trkpt>
      <trkpt lat="38.5238600" lon="-0.6183680">
        <ele>619.6</ele>
        <time>2020-10-12T09:10:20Z</time>
      </trkpt>
      <trkpt lat="38.5238610" lon="-0.6183670">
        <ele>619.6</ele>
        <time>2020-10-12T09:10:21Z</time>
      </trkpt>
      <trkpt lat="38.5238700" lon="-0.6183650">
        <ele>619.6</ele>
        <time>2020-10-12T09:10:22Z</time>
      </trkpt>
      <trkpt lat="38.5238750" lon="-0.6183640">
        <ele>619.6</ele>
        <time>2020-10-12T09:10:23Z</time>
      </trkpt>
      <trkpt lat="38.5238770" lon="-0.6183640">
        <ele>619.6</ele>
        <time>2020-10-12T09:10:24Z</time>
      </trkpt>
      <trkpt lat="38.5238210" lon="-0.6183850">
        <ele>627.6</ele>
        <time>2020-10-12T09:12:03Z</time>
      </trkpt>
      <trkpt lat="38.5241210" lon="-0.6185000">
        <ele>627.0</ele>
        <time>2020-10-12T09:12:18Z</time>
      </trkpt>
      <trkpt lat="38.5243150" lon="-0.6185760">
        <ele>626.8</ele>
        <time>2020-10-12T09:12:21Z</time>
      </trkpt>
      <trkpt lat="38.5245190" lon="-0.6186570">
        <ele>626.6</ele>
        <time>2020-10-12T09:12:24Z</time>
      </trkpt>
      <trkpt lat="38.5247330" lon="-0.6187400">
        <ele>626.3</ele>
        <time>2020-10-12T09:12:27Z</time>
      </trkpt>
      <trkpt lat="38.5249590" lon="-0.6188330">
        <ele>626.1</ele>
        <time>2020-10-12T09:12:30Z</time>
      </trkpt>
      <trkpt lat="38.5251890" lon="-0.6189620">
        <ele>625.9</ele>
        <time>2020-10-12T09:12:33Z</time>
      </trkpt>
      <trkpt lat="38.5253790" lon="-0.6191560">
        <ele>625.6</ele>
        <time>2020-10-12T09:12:36Z</time>
      </trkpt>
      <trkpt lat="38.5255560" lon="-0.6193830">
        <ele>625.1</ele>
        <time>2020-10-12T09:12:39Z</time>
      </trkpt>
      <trkpt lat="38.5257210" lon="-0.6196240">
        <ele>624.5</ele>
        <time>2020-10-12T09:12:42Z</time>
      </trkpt>
      <trkpt lat="38.5259020" lon="-0.6198770">
        <ele>623.8</ele>
        <time>2020-10-12T09:12:45Z</time>
      </trkpt>
      <trkpt lat="38.5260270" lon="-0.6200460">
        <ele>623.3</ele>
        <time>2020-10-12T09:12:47Z</time>
      </trkpt>
      <trkpt lat="38.5261530" lon="-0.6202130">
        <ele>622.9</ele>
        <time>2020-10-12T09:12:49Z</time>
      </trkpt>
      <trkpt lat="38.5263320" lon="-0.6204570">
        <ele>622.5</ele>
        <time>2020-10-12T09:12:52Z</time>
      </trkpt>
      <trkpt lat="38.5265280" lon="-0.6206890">
        <ele>621.8</ele>
        <time>2020-10-12T09:12:55Z</time>
      </trkpt>
      <trkpt lat="38.5266790" lon="-0.6208320">
        <ele>621.5</ele>
        <time>2020-10-12T09:12:57Z</time>
      </trkpt>
      <trkpt lat="38.5268390" lon="-0.6209610">
        <ele>621.1</ele>
        <time>2020-10-12T09:12:59Z</time>
      </trkpt>
      <trkpt lat="38.5270150" lon="-0.6210550">
        <ele>621.1</ele>
        <time>2020-10-12T09:13:01Z</time>
      </trkpt>
      <trkpt lat="38.5271960" lon="-0.6211480">
        <ele>621.5</ele>
        <time>2020-10-12T09:13:03Z</time>
      </trkpt>
      <trkpt lat="38.5273750" lon="-0.6212300">
        <ele>622.0</ele>
        <time>2020-10-12T09:13:05Z</time>
      </trkpt>
      <trkpt lat="38.5276300" lon="-0.6213130">
        <ele>622.7</ele>
        <time>2020-10-12T09:13:08Z</time>
      </trkpt>
      <trkpt lat="38.5278680" lon="-0.6212930">
        <ele>623.7</ele>
        <time>2020-10-12T09:13:11Z</time>
      </trkpt>
      <trkpt lat="38.5280920" lon="-0.6212230">
        <ele>624.6</ele>
        <time>2020-10-12T09:13:14Z</time>
      </trkpt>
      <trkpt lat="38.5283050" lon="-0.6211440">
        <ele>625.5</ele>
        <time>2020-10-12T09:13:17Z</time>
      </trkpt>
      <trkpt lat="38.5285050" lon="-0.6210640">
        <ele>626.3</ele>
        <time>2020-10-12T09:13:20Z</time>
      </trkpt>
      <trkpt lat="38.5287110" lon="-0.6210310">
        <ele>627.0</ele>
        <time>2020-10-12T09:13:23Z</time>
      </trkpt>
      <trkpt lat="38.5289000" lon="-0.6210190">
        <ele>627.5</ele>
        <time>2020-10-12T09:13:26Z</time>
      </trkpt>
      <trkpt lat="38.5290890" lon="-0.6210280">
        <ele>627.9</ele>
        <time>2020-10-12T09:13:29Z</time>
      </trkpt>
      <trkpt lat="38.5293190" lon="-0.6210740">
        <ele>628.3</ele>
        <time>2020-10-12T09:13:33Z</time>
      </trkpt>
      <trkpt lat="38.5295380" lon="-0.6211700">
        <ele>628.6</ele>
        <time>2020-10-12T09:13:37Z</time>
      </trkpt>
      <trkpt lat="38.5297350" lon="-0.6212980">
        <ele>628.6</ele>
        <time>2020-10-12T09:13:41Z</time>
      </trkpt>
      <trkpt lat="38.5299050" lon="-0.6214990">
        <ele>628.7</ele>
        <time>2020-10-12T09:13:45Z</time>
      </trkpt>
      <trkpt lat="38.5300900" lon="-0.6216750">
        <ele>629.0</ele>
        <time>2020-10-12T09:13:49Z</time>
      </trkpt>
      <trkpt lat="38.5302600" lon="-0.6218760">
        <ele>629.1</ele>
        <time>2020-10-12T09:13:53Z</time>
      </trkpt>
      <trkpt lat="38.5303640" lon="-0.6220690">
        <ele>629.3</ele>
        <time>2020-10-12T09:13:56Z</time>
      </trkpt>
      <trkpt lat="38.5304810" lon="-0.6223250">
        <ele>629.4</ele>
        <time>2020-10-12T09:14:00Z</time>
      </trkpt>
      <trkpt lat="38.5306120" lon="-0.6225810">
        <ele>629.7</ele>
        <time>2020-10-12T09:14:04Z</time>
      </trkpt>
      <trkpt lat="38.5307450" lon="-0.6227400">
        <ele>629.8</ele>
        <time>2020-10-12T09:14:07Z</time>
      </trkpt>
      <trkpt lat="38.5309520" lon="-0.6228910">
        <ele>630.1</ele>
        <time>2020-10-12T09:14:11Z</time>
      </trkpt>
      <trkpt lat="38.5311240" lon="-0.6229810">
        <ele>630.3</ele>
        <time>2020-10-12T09:14:14Z</time>
      </trkpt>
      <trkpt lat="38.5312960" lon="-0.6230800">
        <ele>630.5</ele>
        <time>2020-10-12T09:14:17Z</time>
      </trkpt>
      <trkpt lat="38.5315160" lon="-0.6232090">
        <ele>631.0</ele>
        <time>2020-10-12T09:14:21Z</time>
      </trkpt>
      <trkpt lat="38.5317200" lon="-0.6233300">
        <ele>631.5</ele>
        <time>2020-10-12T09:14:25Z</time>
      </trkpt>
      <trkpt lat="38.5319300" lon="-0.6234480">
        <ele>632.2</ele>
        <time>2020-10-12T09:14:29Z</time>
      </trkpt>
      <trkpt lat="38.5321400" lon="-0.6235770">
        <ele>632.8</ele>
        <time>2020-10-12T09:14:33Z</time>
      </trkpt>
      <trkpt lat="38.5323470" lon="-0.6236900">
        <ele>633.2</ele>
        <time>2020-10-12T09:14:37Z</time>
      </trkpt>
      <trkpt lat="38.5325550" lon="-0.6238000">
        <ele>633.4</ele>
        <time>2020-10-12T09:14:41Z</time>
      </trkpt>
      <trkpt lat="38.5327680" lon="-0.6239430">
        <ele>633.6</ele>
        <time>2020-10-12T09:14:45Z</time>
      </trkpt>
      <trkpt lat="38.5329320" lon="-0.6240560">
        <ele>633.7</ele>
        <time>2020-10-12T09:14:48Z</time>
      </trkpt>
      <trkpt lat="38.5331350" lon="-0.6241860">
        <ele>633.8</ele>
        <time>2020-10-12T09:14:52Z</time>
      </trkpt>
      <trkpt lat="38.5333410" lon="-0.6243000">
        <ele>633.9</ele>
        <time>2020-10-12T09:14:56Z</time>
      </trkpt>
      <trkpt lat="38.5335470" lon="-0.6243910">
        <ele>634.0</ele>
        <time>2020-10-12T09:15:00Z</time>
      </trkpt>
      <trkpt lat="38.5337390" lon="-0.6245300">
        <ele>634.0</ele>
        <time>2020-10-12T09:15:04Z</time>
      </trkpt>
      <trkpt lat="38.5339590" lon="-0.6246300">
        <ele>634.1</ele>
        <time>2020-10-12T09:15:08Z</time>
      </trkpt>
      <trkpt lat="38.5341690" lon="-0.6247160">
        <ele>634.3</ele>
        <time>2020-10-12T09:15:12Z</time>
      </trkpt>
      <trkpt lat="38.5343690" lon="-0.6248510">
        <ele>634.5</ele>
        <time>2020-10-12T09:15:16Z</time>
      </trkpt>
      <trkpt lat="38.5345690" lon="-0.6250370">
        <ele>634.7</ele>
        <time>2020-10-12T09:15:20Z</time>
      </trkpt>
      <trkpt lat="38.5347210" lon="-0.6251730">
        <ele>634.8</ele>
        <time>2020-10-12T09:15:23Z</time>
      </trkpt>
      <trkpt lat="38.5349540" lon="-0.6251840">
        <ele>634.9</ele>
        <time>2020-10-12T09:15:27Z</time>
      </trkpt>
      <trkpt lat="38.5350570" lon="-0.6249790">
        <ele>635.2</ele>
        <time>2020-10-12T09:15:30Z</time>
      </trkpt>
      <trkpt lat="38.5351270" lon="-0.6247090">
        <ele>635.5</ele>
        <time>2020-10-12T09:15:34Z</time>
      </trkpt>
      <trkpt lat="38.5352510" lon="-0.6244730">
        <ele>635.9</ele>
        <time>2020-10-12T09:15:38Z</time>
      </trkpt>
      <trkpt lat="38.5354410" lon="-0.6243520">
        <ele>636.2</ele>
        <time>2020-10-12T09:15:42Z</time>
      </trkpt>
      <trkpt lat="38.5356540" lon="-0.6243970">
        <ele>636.6</ele>
        <time>2020-10-12T09:15:46Z</time>
      </trkpt>
      <trkpt lat="38.5358560" lon="-0.6244830">
        <ele>636.8</ele>
        <time>2020-10-12T09:15:50Z</time>
      </trkpt>
      <trkpt lat="38.5360720" lon="-0.6245980">
        <ele>636.9</ele>
        <time>2020-10-12T09:15:54Z</time>
      </trkpt>
      <trkpt lat="38.5362560" lon="-0.6247340">
        <ele>637.0</ele>
        <time>2020-10-12T09:15:58Z</time>
      </trkpt>
      <trkpt lat="38.5364000" lon="-0.6249180">
        <ele>637.2</ele>
        <time>2020-10-12T09:16:02Z</time>
      </trkpt>
      <trkpt lat="38.5364810" lon="-0.6251310">
        <ele>637.4</ele>
        <time>2020-10-12T09:16:06Z</time>
      </trkpt>
      <trkpt lat="38.5365900" lon="-0.6253580">
        <ele>637.9</ele>
        <time>2020-10-12T09:16:10Z</time>
      </trkpt>
      <trkpt lat="38.5367820" lon="-0.6254200">
        <ele>638.7</ele>
        <time>2020-10-12T09:16:14Z</time>
      </trkpt>
      <trkpt lat="38.5369760" lon="-0.6254370">
        <ele>639.3</ele>
        <time>2020-10-12T09:16:18Z</time>
      </trkpt>
      <trkpt lat="38.5371590" lon="-0.6254840">
        <ele>640.0</ele>
        <time>2020-10-12T09:16:22Z</time>
      </trkpt>
      <trkpt lat="38.5373380" lon="-0.6256290">
        <ele>640.9</ele>
        <time>2020-10-12T09:16:26Z</time>
      </trkpt>
      <trkpt lat="38.5374700" lon="-0.6258340">
        <ele>641.8</ele>
        <time>2020-10-12T09:16:30Z</time>
      </trkpt>
      <trkpt lat="38.5375750" lon="-0.6260340">
        <ele>642.2</ele>
        <time>2020-10-12T09:16:34Z</time>
      </trkpt>
      <trkpt lat="38.5376890" lon="-0.6262480">
        <ele>642.3</ele>
        <time>2020-10-12T09:16:38Z</time>
      </trkpt>
      <trkpt lat="38.5378010" lon="-0.6264630">
        <ele>642.2</ele>
        <time>2020-10-12T09:16:42Z</time>
      </trkpt>
      <trkpt lat="38.5379390" lon="-0.6266600">
        <ele>641.8</ele>
        <time>2020-10-12T09:16:46Z</time>
      </trkpt>
      <trkpt lat="38.5381030" lon="-0.6267790">
        <ele>641.4</ele>
        <time>2020-10-12T09:16:49Z</time>
      </trkpt>
      <trkpt lat="38.5382910" lon="-0.6268620">
        <ele>641.0</ele>
        <time>2020-10-12T09:16:52Z</time>
      </trkpt>
      <trkpt lat="38.5384550" lon="-0.6269590">
        <ele>640.4</ele>
        <time>2020-10-12T09:16:55Z</time>
      </trkpt>
      <trkpt lat="38.5386080" lon="-0.6271220">
        <ele>639.4</ele>
        <time>2020-10-12T09:16:58Z</time>
      </trkpt>
      <trkpt lat="38.5387250" lon="-0.6273730">
        <ele>638.2</ele>
        <time>2020-10-12T09:17:01Z</time>
      </trkpt>
      <trkpt lat="38.5388170" lon="-0.6276820">
        <ele>636.7</ele>
        <time>2020-10-12T09:17:04Z</time>
      </trkpt>
      <trkpt lat="38.5389290" lon="-0.6278700">
        <ele>635.7</ele>
        <time>2020-10-12T09:17:06Z</time>
      </trkpt>
      <trkpt lat="38.5390720" lon="-0.6280220">
        <ele>634.6</ele>
        <time>2020-10-12T09:17:08Z</time>
      </trkpt>
      <trkpt lat="38.5392860" lon="-0.6281910">
        <ele>633.0</ele>
        <time>2020-10-12T09:17:11Z</time>
      </trkpt>
      <trkpt lat="38.5394180" lon="-0.6283520">
        <ele>631.7</ele>
        <time>2020-10-12T09:17:13Z</time>
      </trkpt>
      <trkpt lat="38.5395040" lon="-0.6285700">
        <ele>630.0</ele>
        <time>2020-10-12T09:17:15Z</time>
      </trkpt>
      <trkpt lat="38.5395260" lon="-0.6288130">
        <ele>628.6</ele>
        <time>2020-10-12T09:17:17Z</time>
      </trkpt>
      <trkpt lat="38.5394570" lon="-0.6290490">
        <ele>627.7</ele>
        <time>2020-10-12T09:17:19Z</time>
      </trkpt>
      <trkpt lat="38.5394350" lon="-0.6293790">
        <ele>627.0</ele>
        <time>2020-10-12T09:17:22Z</time>
      </trkpt>
      <trkpt lat="38.5396080" lon="-0.6295840">
        <ele>626.5</ele>
        <time>2020-10-12T09:17:25Z</time>
      </trkpt>
      <trkpt lat="38.5398000" lon="-0.6296180">
        <ele>626.1</ele>
        <time>2020-10-12T09:17:27Z</time>
      </trkpt>
      <trkpt lat="38.5399750" lon="-0.6296790">
        <ele>625.8</ele>
        <time>2020-10-12T09:17:29Z</time>
      </trkpt>
      <trkpt lat="38.5401900" lon="-0.6298600">
        <ele>625.5</ele>
        <time>2020-10-12T09:17:32Z</time>
      </trkpt>
      <trkpt lat="38.5403420" lon="-0.6301000">
        <ele>625.4</ele>
        <time>2020-10-12T09:17:35Z</time>
      </trkpt>
      <trkpt lat="38.5405130" lon="-0.6302990">
        <ele>625.1</ele>
        <time>2020-10-12T09:17:38Z</time>
      </trkpt>
      <trkpt lat="38.5407550" lon="-0.6304210">
        <ele>625.0</ele>
        <time>2020-10-12T09:17:41Z</time>
      </trkpt>
      <trkpt lat="38.5413200" lon="-0.6306130">
        <ele>625.4</ele>
        <time>2020-10-12T09:17:48Z</time>
      </trkpt>
      <trkpt lat="38.5416250" lon="-0.6306630">
        <ele>625.3</ele>
        <time>2020-10-12T09:17:54Z</time>
      </trkpt>
      <trkpt lat="38.5418350" lon="-0.6307350">
        <ele>625.1</ele>
        <time>2020-10-12T09:17:59Z</time>
      </trkpt>
      <trkpt lat="38.5420450" lon="-0.6309950">
        <ele>625.7</ele>
        <time>2020-10-12T09:18:01Z</time>
      </trkpt>
      <trkpt lat="38.5422520" lon="-0.6312060">
        <ele>626.0</ele>
        <time>2020-10-12T09:18:03Z</time>
      </trkpt>
      <trkpt lat="38.5423980" lon="-0.6313470">
        <ele>626.0</ele>
        <time>2020-10-12T09:18:05Z</time>
      </trkpt>
      <trkpt lat="38.5425950" lon="-0.6315020">
        <ele>626.0</ele>
        <time>2020-10-12T09:18:08Z</time>
      </trkpt>
      <trkpt lat="38.5427830" lon="-0.6316290">
        <ele>625.8</ele>
        <time>2020-10-12T09:18:11Z</time>
      </trkpt>
      <trkpt lat="38.5429680" lon="-0.6317730">
        <ele>625.8</ele>
        <time>2020-10-12T09:18:14Z</time>
      </trkpt>
      <trkpt lat="38.5431720" lon="-0.6319370">
        <ele>625.7</ele>
        <time>2020-10-12T09:18:17Z</time>
      </trkpt>
      <trkpt lat="38.5433790" lon="-0.6320810">
        <ele>625.7</ele>
        <time>2020-10-12T09:18:20Z</time>
      </trkpt>
      <trkpt lat="38.5435720" lon="-0.6322560">
        <ele>625.6</ele>
        <time>2020-10-12T09:18:23Z</time>
      </trkpt>
      <trkpt lat="38.5437580" lon="-0.6324060">
        <ele>625.6</ele>
        <time>2020-10-12T09:18:26Z</time>
      </trkpt>
      <trkpt lat="38.5439420" lon="-0.6325570">
        <ele>625.7</ele>
        <time>2020-10-12T09:18:29Z</time>
      </trkpt>
      <trkpt lat="38.5441230" lon="-0.6326950">
        <ele>625.8</ele>
        <time>2020-10-12T09:18:32Z</time>
      </trkpt>
      <trkpt lat="38.5443210" lon="-0.6328430">
        <ele>625.9</ele>
        <time>2020-10-12T09:18:35Z</time>
      </trkpt>
      <trkpt lat="38.5445170" lon="-0.6329810">
        <ele>626.0</ele>
        <time>2020-10-12T09:18:38Z</time>
      </trkpt>
      <trkpt lat="38.5447010" lon="-0.6331300">
        <ele>626.2</ele>
        <time>2020-10-12T09:18:41Z</time>
      </trkpt>
      <trkpt lat="38.5448900" lon="-0.6332790">
        <ele>626.3</ele>
        <time>2020-10-12T09:18:44Z</time>
      </trkpt>
      <trkpt lat="38.5450810" lon="-0.6334350">
        <ele>626.4</ele>
        <time>2020-10-12T09:18:47Z</time>
      </trkpt>
      <trkpt lat="38.5452680" lon="-0.6335820">
        <ele>626.5</ele>
        <time>2020-10-12T09:18:50Z</time>
      </trkpt>
      <trkpt lat="38.5454600" lon="-0.6337370">
        <ele>626.7</ele>
        <time>2020-10-12T09:18:53Z</time>
      </trkpt>
      <trkpt lat="38.5456420" lon="-0.6338590">
        <ele>626.5</ele>
        <time>2020-10-12T09:18:56Z</time>
      </trkpt>
      <trkpt lat="38.5458150" lon="-0.6339810">
        <ele>626.1</ele>
        <time>2020-10-12T09:18:59Z</time>
      </trkpt>
      <trkpt lat="38.5460100" lon="-0.6341240">
        <ele>625.3</ele>
        <time>2020-10-12T09:19:02Z</time>
      </trkpt>
      <trkpt lat="38.5462230" lon="-0.6342650">
        <ele>624.3</ele>
        <time>2020-10-12T09:19:05Z</time>
      </trkpt>
      <trkpt lat="38.5464610" lon="-0.6344300">
        <ele>623.2</ele>
        <time>2020-10-12T09:19:08Z</time>
      </trkpt>
      <trkpt lat="38.5466250" lon="-0.6345490">
        <ele>622.6</ele>
        <time>2020-10-12T09:19:10Z</time>
      </trkpt>
      <trkpt lat="38.5467870" lon="-0.6346720">
        <ele>622.3</ele>
        <time>2020-10-12T09:19:12Z</time>
      </trkpt>
      <trkpt lat="38.5470060" lon="-0.6348260">
        <ele>621.9</ele>
        <time>2020-10-12T09:19:15Z</time>
      </trkpt>
      <trkpt lat="38.5472290" lon="-0.6349850">
        <ele>622.0</ele>
        <time>2020-10-12T09:19:18Z</time>
      </trkpt>
      <trkpt lat="38.5474300" lon="-0.6351290">
        <ele>622.5</ele>
        <time>2020-10-12T09:19:21Z</time>
      </trkpt>
      <trkpt lat="38.5476180" lon="-0.6352860">
        <ele>623.2</ele>
        <time>2020-10-12T09:19:24Z</time>
      </trkpt>
      <trkpt lat="38.5478060" lon="-0.6354320">
        <ele>623.7</ele>
        <time>2020-10-12T09:19:27Z</time>
      </trkpt>
      <trkpt lat="38.5480060" lon="-0.6355700">
        <ele>624.1</ele>
        <time>2020-10-12T09:19:30Z</time>
      </trkpt>
      <trkpt lat="38.5482030" lon="-0.6357200">
        <ele>624.3</ele>
        <time>2020-10-12T09:19:33Z</time>
      </trkpt>
      <trkpt lat="38.5483860" lon="-0.6358790">
        <ele>624.2</ele>
        <time>2020-10-12T09:19:36Z</time>
      </trkpt>
      <trkpt lat="38.5485670" lon="-0.6360090">
        <ele>623.9</ele>
        <time>2020-10-12T09:19:39Z</time>
      </trkpt>
      <trkpt lat="38.5487540" lon="-0.6361460">
        <ele>623.2</ele>
        <time>2020-10-12T09:19:42Z</time>
      </trkpt>
      <trkpt lat="38.5489420" lon="-0.6362910">
        <ele>622.6</ele>
        <time>2020-10-12T09:19:45Z</time>
      </trkpt>
      <trkpt lat="38.5491320" lon="-0.6364210">
        <ele>621.9</ele>
        <time>2020-10-12T09:19:48Z</time>
      </trkpt>
      <trkpt lat="38.5493300" lon="-0.6365780">
        <ele>621.0</ele>
        <time>2020-10-12T09:19:51Z</time>
      </trkpt>
      <trkpt lat="38.5495250" lon="-0.6367400">
        <ele>620.0</ele>
        <time>2020-10-12T09:19:54Z</time>
      </trkpt>
      <trkpt lat="38.5497330" lon="-0.6368880">
        <ele>619.0</ele>
        <time>2020-10-12T09:19:57Z</time>
      </trkpt>
      <trkpt lat="38.5499470" lon="-0.6370550">
        <ele>618.0</ele>
        <time>2020-10-12T09:20:00Z</time>
      </trkpt>
      <trkpt lat="38.5501440" lon="-0.6372150">
        <ele>617.2</ele>
        <time>2020-10-12T09:20:03Z</time>
      </trkpt>
      <trkpt lat="38.5503450" lon="-0.6373930">
        <ele>616.3</ele>
        <time>2020-10-12T09:20:06Z</time>
      </trkpt>
      <trkpt lat="38.5505420" lon="-0.6375400">
        <ele>615.5</ele>
        <time>2020-10-12T09:20:09Z</time>
      </trkpt>
      <trkpt lat="38.5507330" lon="-0.6376640">
        <ele>615.1</ele>
        <time>2020-10-12T09:20:12Z</time>
      </trkpt>
      <trkpt lat="38.5509150" lon="-0.6377840">
        <ele>614.9</ele>
        <time>2020-10-12T09:20:15Z</time>
      </trkpt>
      <trkpt lat="38.5510720" lon="-0.6379030">
        <ele>614.8</ele>
        <time>2020-10-12T09:20:18Z</time>
      </trkpt>
      <trkpt lat="38.5512550" lon="-0.6380390">
        <ele>615.1</ele>
        <time>2020-10-12T09:20:22Z</time>
      </trkpt>
      <trkpt lat="38.5514340" lon="-0.6381890">
        <ele>615.7</ele>
        <time>2020-10-12T09:20:27Z</time>
      </trkpt>
      <trkpt lat="38.5514960" lon="-0.6384200">
        <ele>616.9</ele>
        <time>2020-10-12T09:20:31Z</time>
      </trkpt>
      <trkpt lat="38.5515050" lon="-0.6386600">
        <ele>618.6</ele>
        <time>2020-10-12T09:20:43Z</time>
      </trkpt>
      <trkpt lat="38.5516140" lon="-0.6388680">
        <ele>620.7</ele>
        <time>2020-10-12T09:20:50Z</time>
      </trkpt>
      <trkpt lat="38.5516890" lon="-0.6391210">
        <ele>622.6</ele>
        <time>2020-10-12T09:20:55Z</time>
      </trkpt>
      <trkpt lat="38.5517330" lon="-0.6393810">
        <ele>623.6</ele>
        <time>2020-10-12T09:20:59Z</time>
      </trkpt>
      <trkpt lat="38.5516930" lon="-0.6396580">
        <ele>624.2</ele>
        <time>2020-10-12T09:21:04Z</time>
      </trkpt>
      <trkpt lat="38.5515750" lon="-0.6399170">
        <ele>624.1</ele>
        <time>2020-10-12T09:21:08Z</time>
      </trkpt>
      <trkpt lat="38.5514350" lon="-0.6400960">
        <ele>623.8</ele>
        <time>2020-10-12T09:21:11Z</time>
      </trkpt>
      <trkpt lat="38.5512680" lon="-0.6402200">
        <ele>623.4</ele>
        <time>2020-10-12T09:21:15Z</time>
      </trkpt>
      <trkpt lat="38.5510660" lon="-0.6402270">
        <ele>623.0</ele>
        <time>2020-10-12T09:21:19Z</time>
      </trkpt>
      <trkpt lat="38.5508880" lon="-0.6401790">
        <ele>622.6</ele>
        <time>2020-10-12T09:21:22Z</time>
      </trkpt>
      <trkpt lat="38.5506950" lon="-0.6401750">
        <ele>622.4</ele>
        <time>2020-10-12T09:21:25Z</time>
      </trkpt>
      <trkpt lat="38.5504910" lon="-0.6403370">
        <ele>622.6</ele>
        <time>2020-10-12T09:21:29Z</time>
      </trkpt>
      <trkpt lat="38.5501720" lon="-0.6407560">
        <ele>624.9</ele>
        <time>2020-10-12T09:21:37Z</time>
      </trkpt>
      <trkpt lat="38.5500610" lon="-0.6409960">
        <ele>625.3</ele>
        <time>2020-10-12T09:21:41Z</time>
      </trkpt>
      <trkpt lat="38.5502020" lon="-0.6411520">
        <ele>626.2</ele>
        <time>2020-10-12T09:21:46Z</time>
      </trkpt>
      <trkpt lat="38.5503810" lon="-0.6412670">
        <ele>627.1</ele>
        <time>2020-10-12T09:21:50Z</time>
      </trkpt>
      <trkpt lat="38.5505370" lon="-0.6413900">
        <ele>628.2</ele>
        <time>2020-10-12T09:21:57Z</time>
      </trkpt>
      <trkpt lat="38.5507150" lon="-0.6415320">
        <ele>629.4</ele>
        <time>2020-10-12T09:22:02Z</time>
      </trkpt>
      <trkpt lat="38.5508920" lon="-0.6416900">
        <ele>630.6</ele>
        <time>2020-10-12T09:22:06Z</time>
      </trkpt>
      <trkpt lat="38.5510640" lon="-0.6418530">
        <ele>631.6</ele>
        <time>2020-10-12T09:22:10Z</time>
      </trkpt>
      <trkpt lat="38.5512340" lon="-0.6420050">
        <ele>632.5</ele>
        <time>2020-10-12T09:22:15Z</time>
      </trkpt>
      <trkpt lat="38.5513980" lon="-0.6421650">
        <ele>633.3</ele>
        <time>2020-10-12T09:22:19Z</time>
      </trkpt>
      <trkpt lat="38.5515440" lon="-0.6423230">
        <ele>634.1</ele>
        <time>2020-10-12T09:22:23Z</time>
      </trkpt>
      <trkpt lat="38.5516880" lon="-0.6424930">
        <ele>634.7</ele>
        <time>2020-10-12T09:22:27Z</time>
      </trkpt>
      <trkpt lat="38.5518060" lon="-0.6426680">
        <ele>635.4</ele>
        <time>2020-10-12T09:22:33Z</time>
      </trkpt>
      <trkpt lat="38.5519750" lon="-0.6428050">
        <ele>636.1</ele>
        <time>2020-10-12T09:22:37Z</time>
      </trkpt>
      <trkpt lat="38.5521530" lon="-0.6429800">
        <ele>637.0</ele>
        <time>2020-10-12T09:22:42Z</time>
      </trkpt>
      <trkpt lat="38.5522890" lon="-0.6431490">
        <ele>637.8</ele>
        <time>2020-10-12T09:22:46Z</time>
      </trkpt>
      <trkpt lat="38.5524240" lon="-0.6433540">
        <ele>638.7</ele>
        <time>2020-10-12T09:22:51Z</time>
      </trkpt>
      <trkpt lat="38.5525480" lon="-0.6435370">
        <ele>639.5</ele>
        <time>2020-10-12T09:22:56Z</time>
      </trkpt>
      <trkpt lat="38.5526830" lon="-0.6437550">
        <ele>640.4</ele>
        <time>2020-10-12T09:23:02Z</time>
      </trkpt>
      <trkpt lat="38.5528050" lon="-0.6439950">
        <ele>641.2</ele>
        <time>2020-10-12T09:23:07Z</time>
      </trkpt>
      <trkpt lat="38.5529460" lon="-0.6442180">
        <ele>641.9</ele>
        <time>2020-10-12T09:23:13Z</time>
      </trkpt>
      <trkpt lat="38.5530670" lon="-0.6443910">
        <ele>642.4</ele>
        <time>2020-10-12T09:23:17Z</time>
      </trkpt>
      <trkpt lat="38.5532190" lon="-0.6445390">
        <ele>642.8</ele>
        <time>2020-10-12T09:23:21Z</time>
      </trkpt>
      <trkpt lat="38.5533880" lon="-0.6446300">
        <ele>643.2</ele>
        <time>2020-10-12T09:23:25Z</time>
      </trkpt>
      <trkpt lat="38.5535660" lon="-0.6447300">
        <ele>643.4</ele>
        <time>2020-10-12T09:23:30Z</time>
      </trkpt>
      <trkpt lat="38.5537380" lon="-0.6448300">
        <ele>643.7</ele>
        <time>2020-10-12T09:23:34Z</time>
      </trkpt>
      <trkpt lat="38.5538760" lon="-0.6449810">
        <ele>644.0</ele>
        <time>2020-10-12T09:23:38Z</time>
      </trkpt>
      <trkpt lat="38.5540080" lon="-0.6451470">
        <ele>644.2</ele>
        <time>2020-10-12T09:23:42Z</time>
      </trkpt>
      <trkpt lat="38.5541660" lon="-0.6453070">
        <ele>644.3</ele>
        <time>2020-10-12T09:23:47Z</time>
      </trkpt>
      <trkpt lat="38.5543480" lon="-0.6453910">
        <ele>644.5</ele>
        <time>2020-10-12T09:23:51Z</time>
      </trkpt>
      <trkpt lat="38.5545520" lon="-0.6455610">
        <ele>644.7</ele>
        <time>2020-10-12T09:23:57Z</time>
      </trkpt>
      <trkpt lat="38.5547270" lon="-0.6457230">
        <ele>645.0</ele>
        <time>2020-10-12T09:24:01Z</time>
      </trkpt>
      <trkpt lat="38.5548850" lon="-0.6459020">
        <ele>645.4</ele>
        <time>2020-10-12T09:24:05Z</time>
      </trkpt>
      <trkpt lat="38.5550310" lon="-0.6460920">
        <ele>645.8</ele>
        <time>2020-10-12T09:24:09Z</time>
      </trkpt>
      <trkpt lat="38.5551630" lon="-0.6462750">
        <ele>646.1</ele>
        <time>2020-10-12T09:24:13Z</time>
      </trkpt>
      <trkpt lat="38.5552850" lon="-0.6464720">
        <ele>646.5</ele>
        <time>2020-10-12T09:24:17Z</time>
      </trkpt>
      <trkpt lat="38.5553960" lon="-0.6466720">
        <ele>646.8</ele>
        <time>2020-10-12T09:24:21Z</time>
      </trkpt>
      <trkpt lat="38.5555170" lon="-0.6468680">
        <ele>647.3</ele>
        <time>2020-10-12T09:24:25Z</time>
      </trkpt>
      <trkpt lat="38.5556400" lon="-0.6470670">
        <ele>647.7</ele>
        <time>2020-10-12T09:24:29Z</time>
      </trkpt>
      <trkpt lat="38.5557520" lon="-0.6472500">
        <ele>648.1</ele>
        <time>2020-10-12T09:24:33Z</time>
      </trkpt>
      <trkpt lat="38.5558720" lon="-0.6474450">
        <ele>648.4</ele>
        <time>2020-10-12T09:24:37Z</time>
      </trkpt>
      <trkpt lat="38.5559990" lon="-0.6476470">
        <ele>648.8</ele>
        <time>2020-10-12T09:24:41Z</time>
      </trkpt>
      <trkpt lat="38.5561260" lon="-0.6478600">
        <ele>649.3</ele>
        <time>2020-10-12T09:24:45Z</time>
      </trkpt>
      <trkpt lat="38.5562360" lon="-0.6480790">
        <ele>649.9</ele>
        <time>2020-10-12T09:24:49Z</time>
      </trkpt>
      <trkpt lat="38.5563370" lon="-0.6482970">
        <ele>650.3</ele>
        <time>2020-10-12T09:24:53Z</time>
      </trkpt>
      <trkpt lat="38.5564350" lon="-0.6485140">
        <ele>650.8</ele>
        <time>2020-10-12T09:24:57Z</time>
      </trkpt>
      <trkpt lat="38.5565420" lon="-0.6487470">
        <ele>651.1</ele>
        <time>2020-10-12T09:25:01Z</time>
      </trkpt>
      <trkpt lat="38.5566550" lon="-0.6489860">
        <ele>651.5</ele>
        <time>2020-10-12T09:25:05Z</time>
      </trkpt>
      <trkpt lat="38.5567660" lon="-0.6492250">
        <ele>651.9</ele>
        <time>2020-10-12T09:25:09Z</time>
      </trkpt>
      <trkpt lat="38.5568670" lon="-0.6494580">
        <ele>652.2</ele>
        <time>2020-10-12T09:25:13Z</time>
      </trkpt>
      <trkpt lat="38.5569760" lon="-0.6496820">
        <ele>652.5</ele>
        <time>2020-10-12T09:25:17Z</time>
      </trkpt>
      <trkpt lat="38.5570750" lon="-0.6499010">
        <ele>652.5</ele>
        <time>2020-10-12T09:25:21Z</time>
      </trkpt>
      <trkpt lat="38.5571740" lon="-0.6501260">
        <ele>652.4</ele>
        <time>2020-10-12T09:25:25Z</time>
      </trkpt>
      <trkpt lat="38.5572960" lon="-0.6503780">
        <ele>652.2</ele>
        <time>2020-10-12T09:25:29Z</time>
      </trkpt>
      <trkpt lat="38.5573980" lon="-0.6505810">
        <ele>651.8</ele>
        <time>2020-10-12T09:25:32Z</time>
      </trkpt>
      <trkpt lat="38.5574890" lon="-0.6507910">
        <ele>651.3</ele>
        <time>2020-10-12T09:25:35Z</time>
      </trkpt>
      <trkpt lat="38.5575840" lon="-0.6510040">
        <ele>650.9</ele>
        <time>2020-10-12T09:25:38Z</time>
      </trkpt>
      <trkpt lat="38.5576850" lon="-0.6512120">
        <ele>650.6</ele>
        <time>2020-10-12T09:25:41Z</time>
      </trkpt>
      <trkpt lat="38.5577820" lon="-0.6514240">
        <ele>650.2</ele>
        <time>2020-10-12T09:25:44Z</time>
      </trkpt>
      <trkpt lat="38.5578760" lon="-0.6516440">
        <ele>649.8</ele>
        <time>2020-10-12T09:25:47Z</time>
      </trkpt>
      <trkpt lat="38.5579360" lon="-0.6519000">
        <ele>649.7</ele>
        <time>2020-10-12T09:25:50Z</time>
      </trkpt>
      <trkpt lat="38.5578780" lon="-0.6521500">
        <ele>650.0</ele>
        <time>2020-10-12T09:25:53Z</time>
      </trkpt>
      <trkpt lat="38.5577380" lon="-0.6523840">
        <ele>651.2</ele>
        <time>2020-10-12T09:25:57Z</time>
      </trkpt>
      <trkpt lat="38.5575830" lon="-0.6525480">
        <ele>652.1</ele>
        <time>2020-10-12T09:26:01Z</time>
      </trkpt>
      <trkpt lat="38.5574820" lon="-0.6527600">
        <ele>652.9</ele>
        <time>2020-10-12T09:26:08Z</time>
      </trkpt>
      <trkpt lat="38.5573790" lon="-0.6529520">
        <ele>653.5</ele>
        <time>2020-10-12T09:26:12Z</time>
      </trkpt>
      <trkpt lat="38.5573200" lon="-0.6531880">
        <ele>653.9</ele>
        <time>2020-10-12T09:26:16Z</time>
      </trkpt>
      <trkpt lat="38.5572480" lon="-0.6534550">
        <ele>654.3</ele>
        <time>2020-10-12T09:26:20Z</time>
      </trkpt>
      <trkpt lat="38.5571520" lon="-0.6538300">
        <ele>654.3</ele>
        <time>2020-10-12T09:26:28Z</time>
      </trkpt>
      <trkpt lat="38.5571750" lon="-0.6541190">
        <ele>654.4</ele>
        <time>2020-10-12T09:26:30Z</time>
      </trkpt>
      <trkpt lat="38.5572260" lon="-0.6544260">
        <ele>654.8</ele>
        <time>2020-10-12T09:26:33Z</time>
      </trkpt>
      <trkpt lat="38.5572990" lon="-0.6546440">
        <ele>655.0</ele>
        <time>2020-10-12T09:26:36Z</time>
      </trkpt>
      <trkpt lat="38.5574070" lon="-0.6548980">
        <ele>655.4</ele>
        <time>2020-10-12T09:26:40Z</time>
      </trkpt>
      <trkpt lat="38.5574710" lon="-0.6551870">
        <ele>655.7</ele>
        <time>2020-10-12T09:26:44Z</time>
      </trkpt>
      <trkpt lat="38.5574670" lon="-0.6554730">
        <ele>656.0</ele>
        <time>2020-10-12T09:26:48Z</time>
      </trkpt>
      <trkpt lat="38.5574970" lon="-0.6557490">
        <ele>656.0</ele>
        <time>2020-10-12T09:26:52Z</time>
      </trkpt>
      <trkpt lat="38.5575910" lon="-0.6559460">
        <ele>656.0</ele>
        <time>2020-10-12T09:26:55Z</time>
      </trkpt>
      <trkpt lat="38.5577210" lon="-0.6561950">
        <ele>656.1</ele>
        <time>2020-10-12T09:26:59Z</time>
      </trkpt>
      <trkpt lat="38.5578220" lon="-0.6563950">
        <ele>656.0</ele>
        <time>2020-10-12T09:27:02Z</time>
      </trkpt>
      <trkpt lat="38.5578740" lon="-0.6566270">
        <ele>655.7</ele>
        <time>2020-10-12T09:27:05Z</time>
      </trkpt>
      <trkpt lat="38.5579070" lon="-0.6568570">
        <ele>655.1</ele>
        <time>2020-10-12T09:27:08Z</time>
      </trkpt>
      <trkpt lat="38.5579270" lon="-0.6571550">
        <ele>654.2</ele>
        <time>2020-10-12T09:27:12Z</time>
      </trkpt>
      <trkpt lat="38.5580840" lon="-0.6574090">
        <ele>652.4</ele>
        <time>2020-10-12T09:27:16Z</time>
      </trkpt>
      <trkpt lat="38.5583280" lon="-0.6575360">
        <ele>651.1</ele>
        <time>2020-10-12T09:27:19Z</time>
      </trkpt>
      <trkpt lat="38.5585590" lon="-0.6575750">
        <ele>650.9</ele>
        <time>2020-10-12T09:27:22Z</time>
      </trkpt>
      <trkpt lat="38.5586900" lon="-0.6578330">
        <ele>650.4</ele>
        <time>2020-10-12T09:27:26Z</time>
      </trkpt>
      <trkpt lat="38.5587440" lon="-0.6580920">
        <ele>649.9</ele>
        <time>2020-10-12T09:27:29Z</time>
      </trkpt>
      <trkpt lat="38.5587750" lon="-0.6583490">
        <ele>649.7</ele>
        <time>2020-10-12T09:27:32Z</time>
      </trkpt>
      <trkpt lat="38.5587850" lon="-0.6586000">
        <ele>649.5</ele>
        <time>2020-10-12T09:27:35Z</time>
      </trkpt>
      <trkpt lat="38.5588060" lon="-0.6588470">
        <ele>649.4</ele>
        <time>2020-10-12T09:27:38Z</time>
      </trkpt>
      <trkpt lat="38.5588440" lon="-0.6590930">
        <ele>649.5</ele>
        <time>2020-10-12T09:27:41Z</time>
      </trkpt>
      <trkpt lat="38.5589220" lon="-0.6593210">
        <ele>649.8</ele>
        <time>2020-10-12T09:27:44Z</time>
      </trkpt>
      <trkpt lat="38.5589680" lon="-0.6595470">
        <ele>650.1</ele>
        <time>2020-10-12T09:27:47Z</time>
      </trkpt>
      <trkpt lat="38.5590180" lon="-0.6598320">
        <ele>650.8</ele>
        <time>2020-10-12T09:27:51Z</time>
      </trkpt>
      <trkpt lat="38.5590420" lon="-0.6601200">
        <ele>651.6</ele>
        <time>2020-10-12T09:27:55Z</time>
      </trkpt>
      <trkpt lat="38.5589830" lon="-0.6604020">
        <ele>652.5</ele>
        <time>2020-10-12T09:27:59Z</time>
      </trkpt>
      <trkpt lat="38.5588590" lon="-0.6606360">
        <ele>653.4</ele>
        <time>2020-10-12T09:28:03Z</time>
      </trkpt>
      <trkpt lat="38.5586860" lon="-0.6608010">
        <ele>654.1</ele>
        <time>2020-10-12T09:28:07Z</time>
      </trkpt>
      <trkpt lat="38.5585290" lon="-0.6610030">
        <ele>654.7</ele>
        <time>2020-10-12T09:28:11Z</time>
      </trkpt>
      <trkpt lat="38.5584620" lon="-0.6612300">
        <ele>654.7</ele>
        <time>2020-10-12T09:28:15Z</time>
      </trkpt>
      <trkpt lat="38.5584430" lon="-0.6614760">
        <ele>654.2</ele>
        <time>2020-10-12T09:28:19Z</time>
      </trkpt>
      <trkpt lat="38.5584070" lon="-0.6617120">
        <ele>653.8</ele>
        <time>2020-10-12T09:28:26Z</time>
      </trkpt>
      <trkpt lat="38.5582000" lon="-0.6617000">
        <ele>654.7</ele>
        <time>2020-10-12T09:28:39Z</time>
      </trkpt>
      <trkpt lat="38.5580290" lon="-0.6616130">
        <ele>655.4</ele>
        <time>2020-10-12T09:28:43Z</time>
      </trkpt>
      <trkpt lat="38.5578630" lon="-0.6615010">
        <ele>656.2</ele>
        <time>2020-10-12T09:28:51Z</time>
      </trkpt>
      <trkpt lat="38.5576940" lon="-0.6613920">
        <ele>657.0</ele>
        <time>2020-10-12T09:29:01Z</time>
      </trkpt>
      <trkpt lat="38.5575170" lon="-0.6613110">
        <ele>657.7</ele>
        <time>2020-10-12T09:29:06Z</time>
      </trkpt>
      <trkpt lat="38.5571540" lon="-0.6611800">
        <ele>659.4</ele>
        <time>2020-10-12T09:29:11Z</time>
      </trkpt>
      <trkpt lat="38.5569620" lon="-0.6611650">
        <ele>660.2</ele>
        <time>2020-10-12T09:29:14Z</time>
      </trkpt>
      <trkpt lat="38.5567460" lon="-0.6612300">
        <ele>661.4</ele>
        <time>2020-10-12T09:29:20Z</time>
      </trkpt>
      <trkpt lat="38.5565630" lon="-0.6613140">
        <ele>662.5</ele>
        <time>2020-10-12T09:29:25Z</time>
      </trkpt>
      <trkpt lat="38.5563930" lon="-0.6614060">
        <ele>663.8</ele>
        <time>2020-10-12T09:29:30Z</time>
      </trkpt>
      <trkpt lat="38.5562300" lon="-0.6615110">
        <ele>665.3</ele>
        <time>2020-10-12T09:29:37Z</time>
      </trkpt>
      <trkpt lat="38.5560620" lon="-0.6615990">
        <ele>666.9</ele>
        <time>2020-10-12T09:29:43Z</time>
      </trkpt>
      <trkpt lat="38.5558900" lon="-0.6616960">
        <ele>668.8</ele>
        <time>2020-10-12T09:29:49Z</time>
      </trkpt>
      <trkpt lat="38.5556970" lon="-0.6617520">
        <ele>670.7</ele>
        <time>2020-10-12T09:29:56Z</time>
      </trkpt>
      <trkpt lat="38.5555050" lon="-0.6617950">
        <ele>672.7</ele>
        <time>2020-10-12T09:30:02Z</time>
      </trkpt>
      <trkpt lat="38.5553110" lon="-0.6618400">
        <ele>675.1</ele>
        <time>2020-10-12T09:30:09Z</time>
      </trkpt>
      <trkpt lat="38.5551180" lon="-0.6619000">
        <ele>678.0</ele>
        <time>2020-10-12T09:30:16Z</time>
      </trkpt>
      <trkpt lat="38.5549410" lon="-0.6619490">
        <ele>681.1</ele>
        <time>2020-10-12T09:30:24Z</time>
      </trkpt>
      <trkpt lat="38.5547680" lon="-0.6620530">
        <ele>684.3</ele>
        <time>2020-10-12T09:30:38Z</time>
      </trkpt>
      <trkpt lat="38.5545840" lon="-0.6621160">
        <ele>686.8</ele>
        <time>2020-10-12T09:30:47Z</time>
      </trkpt>
      <trkpt lat="38.5543870" lon="-0.6621210">
        <ele>689.2</ele>
        <time>2020-10-12T09:30:55Z</time>
      </trkpt>
      <trkpt lat="38.5541990" lon="-0.6620670">
        <ele>691.5</ele>
        <time>2020-10-12T09:31:03Z</time>
      </trkpt>
      <trkpt lat="38.5540330" lon="-0.6619770">
        <ele>693.7</ele>
        <time>2020-10-12T09:31:11Z</time>
      </trkpt>
      <trkpt lat="38.5538750" lon="-0.6618250">
        <ele>695.8</ele>
        <time>2020-10-12T09:31:19Z</time>
      </trkpt>
      <trkpt lat="38.5537290" lon="-0.6616670">
        <ele>697.7</ele>
        <time>2020-10-12T09:31:28Z</time>
      </trkpt>
      <trkpt lat="38.5535630" lon="-0.6615270">
        <ele>699.8</ele>
        <time>2020-10-12T09:31:38Z</time>
      </trkpt>
      <trkpt lat="38.5533910" lon="-0.6614280">
        <ele>701.8</ele>
        <time>2020-10-12T09:31:46Z</time>
      </trkpt>
      <trkpt lat="38.5532340" lon="-0.6612770">
        <ele>703.9</ele>
        <time>2020-10-12T09:31:56Z</time>
      </trkpt>
      <trkpt lat="38.5530750" lon="-0.6611590">
        <ele>705.9</ele>
        <time>2020-10-12T09:32:03Z</time>
      </trkpt>
      <trkpt lat="38.5529080" lon="-0.6610420">
        <ele>708.0</ele>
        <time>2020-10-12T09:32:12Z</time>
      </trkpt>
      <trkpt lat="38.5527400" lon="-0.6609380">
        <ele>709.8</ele>
        <time>2020-10-12T09:32:22Z</time>
      </trkpt>
      <trkpt lat="38.5525630" lon="-0.6608680">
        <ele>711.7</ele>
        <time>2020-10-12T09:32:30Z</time>
      </trkpt>
      <trkpt lat="38.5523950" lon="-0.6607850">
        <ele>713.9</ele>
        <time>2020-10-12T09:32:38Z</time>
      </trkpt>
      <trkpt lat="38.5522070" lon="-0.6607130">
        <ele>716.3</ele>
        <time>2020-10-12T09:32:47Z</time>
      </trkpt>
      <trkpt lat="38.5520230" lon="-0.6606270">
        <ele>718.9</ele>
        <time>2020-10-12T09:32:55Z</time>
      </trkpt>
      <trkpt lat="38.5518300" lon="-0.6605960">
        <ele>721.1</ele>
        <time>2020-10-12T09:33:04Z</time>
      </trkpt>
      <trkpt lat="38.5516510" lon="-0.6606510">
        <ele>722.9</ele>
        <time>2020-10-12T09:33:12Z</time>
      </trkpt>
      <trkpt lat="38.5514760" lon="-0.6607480">
        <ele>724.6</ele>
        <time>2020-10-12T09:33:24Z</time>
      </trkpt>
      <trkpt lat="38.5513080" lon="-0.6608680">
        <ele>726.6</ele>
        <time>2020-10-12T09:33:30Z</time>
      </trkpt>
      <trkpt lat="38.5511420" lon="-0.6610250">
        <ele>728.9</ele>
        <time>2020-10-12T09:33:36Z</time>
      </trkpt>
      <trkpt lat="38.5509870" lon="-0.6611680">
        <ele>731.0</ele>
        <time>2020-10-12T09:33:43Z</time>
      </trkpt>
      <trkpt lat="38.5508130" lon="-0.6613110">
        <ele>732.9</ele>
        <time>2020-10-12T09:33:53Z</time>
      </trkpt>
      <trkpt lat="38.5506300" lon="-0.6613730">
        <ele>734.2</ele>
        <time>2020-10-12T09:33:59Z</time>
      </trkpt>
      <trkpt lat="38.5504360" lon="-0.6614240">
        <ele>735.7</ele>
        <time>2020-10-12T09:34:06Z</time>
      </trkpt>
      <trkpt lat="38.5502500" lon="-0.6614340">
        <ele>737.3</ele>
        <time>2020-10-12T09:34:18Z</time>
      </trkpt>
      <trkpt lat="38.5500620" lon="-0.6614400">
        <ele>738.9</ele>
        <time>2020-10-12T09:34:27Z</time>
      </trkpt>
      <trkpt lat="38.5498620" lon="-0.6614040">
        <ele>740.7</ele>
        <time>2020-10-12T09:34:33Z</time>
      </trkpt>
      <trkpt lat="38.5496390" lon="-0.6613770">
        <ele>742.4</ele>
        <time>2020-10-12T09:34:37Z</time>
      </trkpt>
      <trkpt lat="38.5494520" lon="-0.6613210">
        <ele>743.5</ele>
        <time>2020-10-12T09:34:42Z</time>
      </trkpt>
      <trkpt lat="38.5492630" lon="-0.6612060">
        <ele>744.3</ele>
        <time>2020-10-12T09:34:52Z</time>
      </trkpt>
      <trkpt lat="38.5490730" lon="-0.6611650">
        <ele>745.2</ele>
        <time>2020-10-12T09:34:59Z</time>
      </trkpt>
      <trkpt lat="38.5488760" lon="-0.6611340">
        <ele>746.6</ele>
        <time>2020-10-12T09:35:04Z</time>
      </trkpt>
      <trkpt lat="38.5486900" lon="-0.6611600">
        <ele>748.1</ele>
        <time>2020-10-12T09:35:09Z</time>
      </trkpt>
      <trkpt lat="38.5485040" lon="-0.6611450">
        <ele>749.5</ele>
        <time>2020-10-12T09:35:14Z</time>
      </trkpt>
      <trkpt lat="38.5483010" lon="-0.6611260">
        <ele>751.0</ele>
        <time>2020-10-12T09:35:19Z</time>
      </trkpt>
      <trkpt lat="38.5481020" lon="-0.6610900">
        <ele>752.8</ele>
        <time>2020-10-12T09:35:24Z</time>
      </trkpt>
      <trkpt lat="38.5478950" lon="-0.6610450">
        <ele>755.1</ele>
        <time>2020-10-12T09:35:29Z</time>
      </trkpt>
      <trkpt lat="38.5476940" lon="-0.6610210">
        <ele>757.7</ele>
        <time>2020-10-12T09:35:35Z</time>
      </trkpt>
      <trkpt lat="38.5475090" lon="-0.6609310">
        <ele>760.4</ele>
        <time>2020-10-12T09:35:44Z</time>
      </trkpt>
      <trkpt lat="38.5473440" lon="-0.6607930">
        <ele>762.9</ele>
        <time>2020-10-12T09:35:55Z</time>
      </trkpt>
      <trkpt lat="38.5471840" lon="-0.6606780">
        <ele>765.1</ele>
        <time>2020-10-12T09:36:05Z</time>
      </trkpt>
      <trkpt lat="38.5470210" lon="-0.6605570">
        <ele>767.2</ele>
        <time>2020-10-12T09:36:15Z</time>
      </trkpt>
      <trkpt lat="38.5468610" lon="-0.6604410">
        <ele>769.1</ele>
        <time>2020-10-12T09:36:26Z</time>
      </trkpt>
      <trkpt lat="38.5466830" lon="-0.6603080">
        <ele>771.3</ele>
        <time>2020-10-12T09:36:35Z</time>
      </trkpt>
      <trkpt lat="38.5465090" lon="-0.6601970">
        <ele>773.6</ele>
        <time>2020-10-12T09:36:42Z</time>
      </trkpt>
      <trkpt lat="38.5463450" lon="-0.6600740">
        <ele>775.9</ele>
        <time>2020-10-12T09:36:50Z</time>
      </trkpt>
      <trkpt lat="38.5461630" lon="-0.6599740">
        <ele>778.3</ele>
        <time>2020-10-12T09:36:59Z</time>
      </trkpt>
      <trkpt lat="38.5460010" lon="-0.6598650">
        <ele>780.3</ele>
        <time>2020-10-12T09:37:08Z</time>
      </trkpt>
      <trkpt lat="38.5458440" lon="-0.6597390">
        <ele>782.3</ele>
        <time>2020-10-12T09:37:16Z</time>
      </trkpt>
      <trkpt lat="38.5456740" lon="-0.6596280">
        <ele>784.4</ele>
        <time>2020-10-12T09:37:26Z</time>
      </trkpt>
      <trkpt lat="38.5455010" lon="-0.6595470">
        <ele>786.9</ele>
        <time>2020-10-12T09:37:35Z</time>
      </trkpt>
      <trkpt lat="38.5453300" lon="-0.6594710">
        <ele>789.6</ele>
        <time>2020-10-12T09:37:45Z</time>
      </trkpt>
      <trkpt lat="38.5451470" lon="-0.6593890">
        <ele>792.6</ele>
        <time>2020-10-12T09:37:55Z</time>
      </trkpt>
      <trkpt lat="38.5449540" lon="-0.6593220">
        <ele>795.3</ele>
        <time>2020-10-12T09:38:03Z</time>
      </trkpt>
      <trkpt lat="38.5447660" lon="-0.6592750">
        <ele>798.2</ele>
        <time>2020-10-12T09:38:13Z</time>
      </trkpt>
      <trkpt lat="38.5445860" lon="-0.6592400">
        <ele>800.8</ele>
        <time>2020-10-12T09:38:22Z</time>
      </trkpt>
      <trkpt lat="38.5443960" lon="-0.6591910">
        <ele>803.6</ele>
        <time>2020-10-12T09:38:32Z</time>
      </trkpt>
      <trkpt lat="38.5442150" lon="-0.6591800">
        <ele>806.4</ele>
        <time>2020-10-12T09:38:42Z</time>
      </trkpt>
      <trkpt lat="38.5440220" lon="-0.6592320">
        <ele>809.5</ele>
        <time>2020-10-12T09:38:53Z</time>
      </trkpt>
      <trkpt lat="38.5438270" lon="-0.6592830">
        <ele>812.6</ele>
        <time>2020-10-12T09:39:04Z</time>
      </trkpt>
      <trkpt lat="38.5436410" lon="-0.6593130">
        <ele>815.5</ele>
        <time>2020-10-12T09:39:13Z</time>
      </trkpt>
      <trkpt lat="38.5434620" lon="-0.6593590">
        <ele>818.9</ele>
        <time>2020-10-12T09:39:23Z</time>
      </trkpt>
      <trkpt lat="38.5432840" lon="-0.6593940">
        <ele>822.4</ele>
        <time>2020-10-12T09:39:34Z</time>
      </trkpt>
      <trkpt lat="38.5431140" lon="-0.6594940">
        <ele>825.9</ele>
        <time>2020-10-12T09:39:46Z</time>
      </trkpt>
      <trkpt lat="38.5429570" lon="-0.6596220">
        <ele>829.2</ele>
        <time>2020-10-12T09:39:59Z</time>
      </trkpt>
      <trkpt lat="38.5428660" lon="-0.6598210">
        <ele>832.2</ele>
        <time>2020-10-12T09:40:11Z</time>
      </trkpt>
      <trkpt lat="38.5428300" lon="-0.6600510">
        <ele>835.1</ele>
        <time>2020-10-12T09:40:23Z</time>
      </trkpt>
      <trkpt lat="38.5427900" lon="-0.6602890">
        <ele>837.9</ele>
        <time>2020-10-12T09:40:34Z</time>
      </trkpt>
      <trkpt lat="38.5427520" lon="-0.6605280">
        <ele>840.8</ele>
        <time>2020-10-12T09:40:45Z</time>
      </trkpt>
      <trkpt lat="38.5426630" lon="-0.6607360">
        <ele>843.2</ele>
        <time>2020-10-12T09:40:55Z</time>
      </trkpt>
      <trkpt lat="38.5425780" lon="-0.6609540">
        <ele>845.7</ele>
        <time>2020-10-12T09:41:03Z</time>
      </trkpt>
      <trkpt lat="38.5425100" lon="-0.6611810">
        <ele>848.4</ele>
        <time>2020-10-12T09:41:13Z</time>
      </trkpt>
      <trkpt lat="38.5424560" lon="-0.6614080">
        <ele>851.0</ele>
        <time>2020-10-12T09:41:23Z</time>
      </trkpt>
      <trkpt lat="38.5424190" lon="-0.6616440">
        <ele>853.8</ele>
        <time>2020-10-12T09:41:33Z</time>
      </trkpt>
      <trkpt lat="38.5423870" lon="-0.6618760">
        <ele>857.0</ele>
        <time>2020-10-12T09:41:42Z</time>
      </trkpt>
      <trkpt lat="38.5423550" lon="-0.6621100">
        <ele>860.5</ele>
        <time>2020-10-12T09:41:51Z</time>
      </trkpt>
      <trkpt lat="38.5423430" lon="-0.6623420">
        <ele>863.8</ele>
        <time>2020-10-12T09:42:01Z</time>
      </trkpt>
      <trkpt lat="38.5423060" lon="-0.6625720">
        <ele>867.2</ele>
        <time>2020-10-12T09:42:11Z</time>
      </trkpt>
      <trkpt lat="38.5422470" lon="-0.6628020">
        <ele>870.7</ele>
        <time>2020-10-12T09:42:22Z</time>
      </trkpt>
      <trkpt lat="38.5422590" lon="-0.6630420">
        <ele>874.5</ele>
        <time>2020-10-12T09:42:35Z</time>
      </trkpt>
      <trkpt lat="38.5422490" lon="-0.6632830">
        <ele>878.6</ele>
        <time>2020-10-12T09:42:49Z</time>
      </trkpt>
      <trkpt lat="38.5422380" lon="-0.6635210">
        <ele>883.1</ele>
        <time>2020-10-12T09:43:02Z</time>
      </trkpt>
      <trkpt lat="38.5421720" lon="-0.6637370">
        <ele>887.4</ele>
        <time>2020-10-12T09:43:16Z</time>
      </trkpt>
      <trkpt lat="38.5420730" lon="-0.6639300">
        <ele>891.0</ele>
        <time>2020-10-12T09:43:29Z</time>
      </trkpt>
      <trkpt lat="38.5419510" lon="-0.6641070">
        <ele>894.0</ele>
        <time>2020-10-12T09:43:42Z</time>
      </trkpt>
      <trkpt lat="38.5418070" lon="-0.6642530">
        <ele>896.8</ele>
        <time>2020-10-12T09:43:55Z</time>
      </trkpt>
      <trkpt lat="38.5416340" lon="-0.6643620">
        <ele>900.1</ele>
        <time>2020-10-12T09:44:08Z</time>
      </trkpt>
      <trkpt lat="38.5414770" lon="-0.6645020">
        <ele>903.4</ele>
        <time>2020-10-12T09:44:22Z</time>
      </trkpt>
      <trkpt lat="38.5412840" lon="-0.6645710">
        <ele>906.1</ele>
        <time>2020-10-12T09:44:33Z</time>
      </trkpt>
      <trkpt lat="38.5411070" lon="-0.6646300">
        <ele>908.2</ele>
        <time>2020-10-12T09:44:41Z</time>
      </trkpt>
      <trkpt lat="38.5409310" lon="-0.6647450">
        <ele>910.7</ele>
        <time>2020-10-12T09:44:52Z</time>
      </trkpt>
      <trkpt lat="38.5407690" lon="-0.6648510">
        <ele>913.8</ele>
        <time>2020-10-12T09:45:03Z</time>
      </trkpt>
      <trkpt lat="38.5405830" lon="-0.6649410">
        <ele>917.9</ele>
        <time>2020-10-12T09:45:13Z</time>
      </trkpt>
      <trkpt lat="38.5404010" lon="-0.6649240">
        <ele>921.0</ele>
        <time>2020-10-12T09:45:26Z</time>
      </trkpt>
      <trkpt lat="38.5402580" lon="-0.6647810">
        <ele>923.6</ele>
        <time>2020-10-12T09:45:36Z</time>
      </trkpt>
      <trkpt lat="38.5401390" lon="-0.6646020">
        <ele>926.2</ele>
        <time>2020-10-12T09:45:46Z</time>
      </trkpt>
      <trkpt lat="38.5400140" lon="-0.6644260">
        <ele>929.5</ele>
        <time>2020-10-12T09:45:57Z</time>
      </trkpt>
      <trkpt lat="38.5398460" lon="-0.6643370">
        <ele>933.1</ele>
        <time>2020-10-12T09:46:08Z</time>
      </trkpt>
      <trkpt lat="38.5396700" lon="-0.6644160">
        <ele>936.6</ele>
        <time>2020-10-12T09:46:18Z</time>
      </trkpt>
      <trkpt lat="38.5395490" lon="-0.6646090">
        <ele>939.7</ele>
        <time>2020-10-12T09:46:31Z</time>
      </trkpt>
      <trkpt lat="38.5394400" lon="-0.6647920">
        <ele>942.4</ele>
        <time>2020-10-12T09:46:41Z</time>
      </trkpt>
      <trkpt lat="38.5393450" lon="-0.6649970">
        <ele>945.9</ele>
        <time>2020-10-12T09:46:51Z</time>
      </trkpt>
      <trkpt lat="38.5392940" lon="-0.6652320">
        <ele>949.5</ele>
        <time>2020-10-12T09:47:03Z</time>
      </trkpt>
      <trkpt lat="38.5393530" lon="-0.6654550">
        <ele>952.6</ele>
        <time>2020-10-12T09:47:15Z</time>
      </trkpt>
      <trkpt lat="38.5394740" lon="-0.6656260">
        <ele>955.9</ele>
        <time>2020-10-12T09:47:27Z</time>
      </trkpt>
      <trkpt lat="38.5395740" lon="-0.6658230">
        <ele>959.2</ele>
        <time>2020-10-12T09:47:40Z</time>
      </trkpt>
      <trkpt lat="38.5396480" lon="-0.6660430">
        <ele>962.4</ele>
        <time>2020-10-12T09:47:52Z</time>
      </trkpt>
      <trkpt lat="38.5396740" lon="-0.6662710">
        <ele>965.4</ele>
        <time>2020-10-12T09:48:03Z</time>
      </trkpt>
      <trkpt lat="38.5397090" lon="-0.6665180">
        <ele>968.4</ele>
        <time>2020-10-12T09:48:15Z</time>
      </trkpt>
      <trkpt lat="38.5397410" lon="-0.6667560">
        <ele>971.3</ele>
        <time>2020-10-12T09:48:27Z</time>
      </trkpt>
      <trkpt lat="38.5397780" lon="-0.6670090">
        <ele>974.4</ele>
        <time>2020-10-12T09:48:39Z</time>
      </trkpt>
      <trkpt lat="38.5398230" lon="-0.6672370">
        <ele>977.2</ele>
        <time>2020-10-12T09:48:50Z</time>
      </trkpt>
      <trkpt lat="38.5398660" lon="-0.6674670">
        <ele>980.0</ele>
        <time>2020-10-12T09:49:00Z</time>
      </trkpt>
      <trkpt lat="38.5399100" lon="-0.6676960">
        <ele>982.6</ele>
        <time>2020-10-12T09:49:12Z</time>
      </trkpt>
      <trkpt lat="38.5398980" lon="-0.6679490">
        <ele>985.5</ele>
        <time>2020-10-12T09:49:26Z</time>
      </trkpt>
      <trkpt lat="38.5398370" lon="-0.6681670">
        <ele>988.2</ele>
        <time>2020-10-12T09:49:36Z</time>
      </trkpt>
      <trkpt lat="38.5397460" lon="-0.6683810">
        <ele>990.6</ele>
        <time>2020-10-12T09:49:45Z</time>
      </trkpt>
      <trkpt lat="38.5396140" lon="-0.6685570">
        <ele>992.8</ele>
        <time>2020-10-12T09:49:56Z</time>
      </trkpt>
      <trkpt lat="38.5394870" lon="-0.6687350">
        <ele>994.9</ele>
        <time>2020-10-12T09:50:05Z</time>
      </trkpt>
      <trkpt lat="38.5393230" lon="-0.6688410">
        <ele>997.3</ele>
        <time>2020-10-12T09:50:15Z</time>
      </trkpt>
      <trkpt lat="38.5391370" lon="-0.6688770">
        <ele>1000.0</ele>
        <time>2020-10-12T09:50:25Z</time>
      </trkpt>
      <trkpt lat="38.5389570" lon="-0.6688320">
        <ele>1002.8</ele>
        <time>2020-10-12T09:50:35Z</time>
      </trkpt>
      <trkpt lat="38.5387770" lon="-0.6688190">
        <ele>1005.5</ele>
        <time>2020-10-12T09:50:45Z</time>
      </trkpt>
      <trkpt lat="38.5385930" lon="-0.6688220">
        <ele>1008.3</ele>
        <time>2020-10-12T09:50:54Z</time>
      </trkpt>
      <trkpt lat="38.5384060" lon="-0.6688370">
        <ele>1010.9</ele>
        <time>2020-10-12T09:51:05Z</time>
      </trkpt>
      <trkpt lat="38.5382100" lon="-0.6688400">
        <ele>1013.4</ele>
        <time>2020-10-12T09:51:14Z</time>
      </trkpt>
      <trkpt lat="38.5380170" lon="-0.6688450">
        <ele>1015.9</ele>
        <time>2020-10-12T09:51:25Z</time>
      </trkpt>
      <trkpt lat="38.5378330" lon="-0.6688250">
        <ele>1018.3</ele>
        <time>2020-10-12T09:51:36Z</time>
      </trkpt>
      <trkpt lat="38.5376460" lon="-0.6688360">
        <ele>1020.9</ele>
        <time>2020-10-12T09:51:48Z</time>
      </trkpt>
      <trkpt lat="38.5374670" lon="-0.6688590">
        <ele>1023.4</ele>
        <time>2020-10-12T09:51:58Z</time>
      </trkpt>
      <trkpt lat="38.5372860" lon="-0.6688880">
        <ele>1026.4</ele>
        <time>2020-10-12T09:52:08Z</time>
      </trkpt>
      <trkpt lat="38.5371010" lon="-0.6689390">
        <ele>1029.6</ele>
        <time>2020-10-12T09:52:17Z</time>
      </trkpt>
      <trkpt lat="38.5369150" lon="-0.6689610">
        <ele>1033.2</ele>
        <time>2020-10-12T09:52:27Z</time>
      </trkpt>
      <trkpt lat="38.5367260" lon="-0.6689470">
        <ele>1036.8</ele>
        <time>2020-10-12T09:52:40Z</time>
      </trkpt>
      <trkpt lat="38.5365270" lon="-0.6688860">
        <ele>1040.2</ele>
        <time>2020-10-12T09:52:50Z</time>
      </trkpt>
      <trkpt lat="38.5363130" lon="-0.6688920">
        <ele>1043.3</ele>
        <time>2020-10-12T09:53:03Z</time>
      </trkpt>
      <trkpt lat="38.5361180" lon="-0.6688950">
        <ele>1046.0</ele>
        <time>2020-10-12T09:53:15Z</time>
      </trkpt>
      <trkpt lat="38.5359340" lon="-0.6688930">
        <ele>1048.6</ele>
        <time>2020-10-12T09:53:25Z</time>
      </trkpt>
      <trkpt lat="38.5357450" lon="-0.6688820">
        <ele>1051.5</ele>
        <time>2020-10-12T09:53:34Z</time>
      </trkpt>
      <trkpt lat="38.5355590" lon="-0.6688700">
        <ele>1054.6</ele>
        <time>2020-10-12T09:53:45Z</time>
      </trkpt>
      <trkpt lat="38.5353790" lon="-0.6688380">
        <ele>1057.8</ele>
        <time>2020-10-12T09:53:56Z</time>
      </trkpt>
      <trkpt lat="38.5351880" lon="-0.6687650">
        <ele>1061.2</ele>
        <time>2020-10-12T09:54:08Z</time>
      </trkpt>
      <trkpt lat="38.5350130" lon="-0.6686800">
        <ele>1064.2</ele>
        <time>2020-10-12T09:54:19Z</time>
      </trkpt>
      <trkpt lat="38.5348540" lon="-0.6685670">
        <ele>1066.9</ele>
        <time>2020-10-12T09:54:30Z</time>
      </trkpt>
      <trkpt lat="38.5347110" lon="-0.6684230">
        <ele>1069.2</ele>
        <time>2020-10-12T09:54:41Z</time>
      </trkpt>
      <trkpt lat="38.5345730" lon="-0.6682550">
        <ele>1071.3</ele>
        <time>2020-10-12T09:54:52Z</time>
      </trkpt>
      <trkpt lat="38.5343660" lon="-0.6682010">
        <ele>1072.8</ele>
        <time>2020-10-12T09:54:58Z</time>
      </trkpt>
      <trkpt lat="38.5341930" lon="-0.6681080">
        <ele>1073.7</ele>
        <time>2020-10-12T09:55:05Z</time>
      </trkpt>
      <trkpt lat="38.5340250" lon="-0.6682170">
        <ele>1074.7</ele>
        <time>2020-10-12T09:55:15Z</time>
      </trkpt>
      <trkpt lat="38.5338690" lon="-0.6683490">
        <ele>1075.6</ele>
        <time>2020-10-12T09:55:24Z</time>
      </trkpt>
      <trkpt lat="38.5336890" lon="-0.6684640">
        <ele>1076.8</ele>
        <time>2020-10-12T09:55:32Z</time>
      </trkpt>
      <trkpt lat="38.5335090" lon="-0.6685390">
        <ele>1078.0</ele>
        <time>2020-10-12T09:55:38Z</time>
      </trkpt>
      <trkpt lat="38.5333280" lon="-0.6685790">
        <ele>1079.3</ele>
        <time>2020-10-12T09:55:49Z</time>
      </trkpt>
      <trkpt lat="38.5331490" lon="-0.6686200">
        <ele>1080.6</ele>
        <time>2020-10-12T09:56:01Z</time>
      </trkpt>
      <trkpt lat="38.5329620" lon="-0.6686790">
        <ele>1082.4</ele>
        <time>2020-10-12T09:56:11Z</time>
      </trkpt>
      <trkpt lat="38.5327750" lon="-0.6687260">
        <ele>1084.5</ele>
        <time>2020-10-12T09:56:19Z</time>
      </trkpt>
      <trkpt lat="38.5325900" lon="-0.6687570">
        <ele>1086.6</ele>
        <time>2020-10-12T09:56:26Z</time>
      </trkpt>
      <trkpt lat="38.5324100" lon="-0.6687920">
        <ele>1088.8</ele>
        <time>2020-10-12T09:56:28Z</time>
      </trkpt>
      <trkpt lat="38.5322050" lon="-0.6688290">
        <ele>1091.2</ele>
        <time>2020-10-12T09:56:33Z</time>
      </trkpt>
      <trkpt lat="38.5320090" lon="-0.6688730">
        <ele>1091.7</ele>
        <time>2020-10-12T09:56:41Z</time>
      </trkpt>
      <trkpt lat="38.5318150" lon="-0.6688710">
        <ele>1091.2</ele>
        <time>2020-10-12T10:00:57Z</time>
      </trkpt>
      <trkpt lat="38.5315410" lon="-0.6688850">
        <ele>1089.0</ele>
        <time>2020-10-12T10:01:05Z</time>
      </trkpt>
      <trkpt lat="38.5313190" lon="-0.6688590">
        <ele>1086.9</ele>
        <time>2020-10-12T10:01:07Z</time>
      </trkpt>
      <trkpt lat="38.5310670" lon="-0.6688480">
        <ele>1084.4</ele>
        <time>2020-10-12T10:01:10Z</time>
      </trkpt>
      <trkpt lat="38.5308710" lon="-0.6688370">
        <ele>1082.4</ele>
        <time>2020-10-12T10:01:13Z</time>
      </trkpt>
      <trkpt lat="38.5306610" lon="-0.6689360">
        <ele>1079.7</ele>
        <time>2020-10-12T10:01:16Z</time>
      </trkpt>
      <trkpt lat="38.5304470" lon="-0.6690590">
        <ele>1076.4</ele>
        <time>2020-10-12T10:01:19Z</time>
      </trkpt>
      <trkpt lat="38.5302730" lon="-0.6691330">
        <ele>1073.5</ele>
        <time>2020-10-12T10:01:21Z</time>
      </trkpt>
      <trkpt lat="38.5300670" lon="-0.6691850">
        <ele>1070.2</ele>
        <time>2020-10-12T10:01:23Z</time>
      </trkpt>
      <trkpt lat="38.5298390" lon="-0.6692320">
        <ele>1066.8</ele>
        <time>2020-10-12T10:01:25Z</time>
      </trkpt>
      <trkpt lat="38.5295860" lon="-0.6692820">
        <ele>1063.2</ele>
        <time>2020-10-12T10:01:27Z</time>
      </trkpt>
      <trkpt lat="38.5293440" lon="-0.6693180">
        <ele>1059.9</ele>
        <time>2020-10-12T10:01:29Z</time>
      </trkpt>
      <trkpt lat="38.5291110" lon="-0.6693490">
        <ele>1056.7</ele>
        <time>2020-10-12T10:01:31Z</time>
      </trkpt>
      <trkpt lat="38.5288730" lon="-0.6693640">
        <ele>1053.5</ele>
        <time>2020-10-12T10:01:33Z</time>
      </trkpt>
      <trkpt lat="38.5286350" lon="-0.6693630">
        <ele>1050.7</ele>
        <time>2020-10-12T10:01:35Z</time>
      </trkpt>
      <trkpt lat="38.5283830" lon="-0.6693600">
        <ele>1048.2</ele>
        <time>2020-10-12T10:01:37Z</time>
      </trkpt>
      <trkpt lat="38.5281420" lon="-0.6693250">
        <ele>1045.4</ele>
        <time>2020-10-12T10:01:39Z</time>
      </trkpt>
      <trkpt lat="38.5279230" lon="-0.6692870">
        <ele>1042.3</ele>
        <time>2020-10-12T10:01:41Z</time>
      </trkpt>
      <trkpt lat="38.5277130" lon="-0.6692640">
        <ele>1038.8</ele>
        <time>2020-10-12T10:01:43Z</time>
      </trkpt>
      <trkpt lat="38.5275080" lon="-0.6692520">
        <ele>1035.5</ele>
        <time>2020-10-12T10:01:45Z</time>
      </trkpt>
      <trkpt lat="38.5273130" lon="-0.6692560">
        <ele>1032.1</ele>
        <time>2020-10-12T10:01:47Z</time>
      </trkpt>
      <trkpt lat="38.5270950" lon="-0.6692720">
        <ele>1028.9</ele>
        <time>2020-10-12T10:01:49Z</time>
      </trkpt>
      <trkpt lat="38.5268690" lon="-0.6693000">
        <ele>1025.5</ele>
        <time>2020-10-12T10:01:51Z</time>
      </trkpt>
      <trkpt lat="38.5266510" lon="-0.6693100">
        <ele>1022.3</ele>
        <time>2020-10-12T10:01:53Z</time>
      </trkpt>
      <trkpt lat="38.5264440" lon="-0.6693170">
        <ele>1019.4</ele>
        <time>2020-10-12T10:01:55Z</time>
      </trkpt>
      <trkpt lat="38.5262410" lon="-0.6693270">
        <ele>1016.6</ele>
        <time>2020-10-12T10:01:57Z</time>
      </trkpt>
      <trkpt lat="38.5260410" lon="-0.6693180">
        <ele>1013.9</ele>
        <time>2020-10-12T10:01:59Z</time>
      </trkpt>
      <trkpt lat="38.5258530" lon="-0.6693090">
        <ele>1011.2</ele>
        <time>2020-10-12T10:02:01Z</time>
      </trkpt>
      <trkpt lat="38.5256620" lon="-0.6693430">
        <ele>1008.7</ele>
        <time>2020-10-12T10:02:03Z</time>
      </trkpt>
      <trkpt lat="38.5254510" lon="-0.6694390">
        <ele>1004.6</ele>
        <time>2020-10-12T10:02:05Z</time>
      </trkpt>
      <trkpt lat="38.5252000" lon="-0.6695360">
        <ele>1000.6</ele>
        <time>2020-10-12T10:02:07Z</time>
      </trkpt>
      <trkpt lat="38.5249170" lon="-0.6695810">
        <ele>997.2</ele>
        <time>2020-10-12T10:02:09Z</time>
      </trkpt>
      <trkpt lat="38.5246090" lon="-0.6696390">
        <ele>994.4</ele>
        <time>2020-10-12T10:02:11Z</time>
      </trkpt>
      <trkpt lat="38.5243060" lon="-0.6696870">
        <ele>992.3</ele>
        <time>2020-10-12T10:02:13Z</time>
      </trkpt>
      <trkpt lat="38.5240050" lon="-0.6697420">
        <ele>990.3</ele>
        <time>2020-10-12T10:02:15Z</time>
      </trkpt>
      <trkpt lat="38.5237400" lon="-0.6698140">
        <ele>988.0</ele>
        <time>2020-10-12T10:02:17Z</time>
      </trkpt>
      <trkpt lat="38.5235020" lon="-0.6698970">
        <ele>985.1</ele>
        <time>2020-10-12T10:02:19Z</time>
      </trkpt>
      <trkpt lat="38.5232950" lon="-0.6699920">
        <ele>982.0</ele>
        <time>2020-10-12T10:02:21Z</time>
      </trkpt>
      <trkpt lat="38.5230810" lon="-0.6700870">
        <ele>978.7</ele>
        <time>2020-10-12T10:02:23Z</time>
      </trkpt>
      <trkpt lat="38.5228750" lon="-0.6701450">
        <ele>975.9</ele>
        <time>2020-10-12T10:02:25Z</time>
      </trkpt>
      <trkpt lat="38.5226660" lon="-0.6701870">
        <ele>973.2</ele>
        <time>2020-10-12T10:02:27Z</time>
      </trkpt>
      <trkpt lat="38.5224570" lon="-0.6702170">
        <ele>970.8</ele>
        <time>2020-10-12T10:02:29Z</time>
      </trkpt>
      <trkpt lat="38.5222510" lon="-0.6702390">
        <ele>968.4</ele>
        <time>2020-10-12T10:02:31Z</time>
      </trkpt>
      <trkpt lat="38.5220630" lon="-0.6702640">
        <ele>966.3</ele>
        <time>2020-10-12T10:02:33Z</time>
      </trkpt>
      <trkpt lat="38.5218070" lon="-0.6703260">
        <ele>963.3</ele>
        <time>2020-10-12T10:02:36Z</time>
      </trkpt>
      <trkpt lat="38.5215640" lon="-0.6704100">
        <ele>962.4</ele>
        <time>2020-10-12T10:02:39Z</time>
      </trkpt>
      <trkpt lat="38.5213700" lon="-0.6704230">
        <ele>961.1</ele>
        <time>2020-10-12T10:02:41Z</time>
      </trkpt>
      <trkpt lat="38.5211620" lon="-0.6703880">
        <ele>959.2</ele>
        <time>2020-10-12T10:02:43Z</time>
      </trkpt>
      <trkpt lat="38.5209730" lon="-0.6703460">
        <ele>957.6</ele>
        <time>2020-10-12T10:02:45Z</time>
      </trkpt>
      <trkpt lat="38.5207810" lon="-0.6703130">
        <ele>955.9</ele>
        <time>2020-10-12T10:02:47Z</time>
      </trkpt>
      <trkpt lat="38.5205700" lon="-0.6702890">
        <ele>953.9</ele>
        <time>2020-10-12T10:02:49Z</time>
      </trkpt>
      <trkpt lat="38.5203610" lon="-0.6702320">
        <ele>952.0</ele>
        <time>2020-10-12T10:02:51Z</time>
      </trkpt>
      <trkpt lat="38.5201720" lon="-0.6701430">
        <ele>950.2</ele>
        <time>2020-10-12T10:02:53Z</time>
      </trkpt>
      <trkpt lat="38.5199340" lon="-0.6700690">
        <ele>946.1</ele>
        <time>2020-10-12T10:02:56Z</time>
      </trkpt>
      <trkpt lat="38.5197230" lon="-0.6701590">
        <ele>942.4</ele>
        <time>2020-10-12T10:02:59Z</time>
      </trkpt>
      <trkpt lat="38.5195570" lon="-0.6702760">
        <ele>939.6</ele>
        <time>2020-10-12T10:03:01Z</time>
      </trkpt>
      <trkpt lat="38.5193830" lon="-0.6703880">
        <ele>937.0</ele>
        <time>2020-10-12T10:03:03Z</time>
      </trkpt>
      <trkpt lat="38.5191820" lon="-0.6705910">
        <ele>933.2</ele>
        <time>2020-10-12T10:03:06Z</time>
      </trkpt>
      <trkpt lat="38.5190860" lon="-0.6707910">
        <ele>930.3</ele>
        <time>2020-10-12T10:03:08Z</time>
      </trkpt>
      <trkpt lat="38.5190240" lon="-0.6710420">
        <ele>927.4</ele>
        <time>2020-10-12T10:03:10Z</time>
      </trkpt>
      <trkpt lat="38.5190000" lon="-0.6712990">
        <ele>924.6</ele>
        <time>2020-10-12T10:03:12Z</time>
      </trkpt>
      <trkpt lat="38.5189850" lon="-0.6716160">
        <ele>921.7</ele>
        <time>2020-10-12T10:03:14Z</time>
      </trkpt>
      <trkpt lat="38.5189530" lon="-0.6719480">
        <ele>919.0</ele>
        <time>2020-10-12T10:03:16Z</time>
      </trkpt>
      <trkpt lat="38.5189150" lon="-0.6722640">
        <ele>916.5</ele>
        <time>2020-10-12T10:03:18Z</time>
      </trkpt>
      <trkpt lat="38.5188680" lon="-0.6725750">
        <ele>913.9</ele>
        <time>2020-10-12T10:03:20Z</time>
      </trkpt>
      <trkpt lat="38.5188220" lon="-0.6728740">
        <ele>911.5</ele>
        <time>2020-10-12T10:03:22Z</time>
      </trkpt>
      <trkpt lat="38.5187830" lon="-0.6731490">
        <ele>909.7</ele>
        <time>2020-10-12T10:03:24Z</time>
      </trkpt>
      <trkpt lat="38.5187590" lon="-0.6734280">
        <ele>908.1</ele>
        <time>2020-10-12T10:03:26Z</time>
      </trkpt>
      <trkpt lat="38.5187330" lon="-0.6737190">
        <ele>905.9</ele>
        <time>2020-10-12T10:03:28Z</time>
      </trkpt>
      <trkpt lat="38.5187070" lon="-0.6740370">
        <ele>903.8</ele>
        <time>2020-10-12T10:03:30Z</time>
      </trkpt>
      <trkpt lat="38.5186720" lon="-0.6743620">
        <ele>901.6</ele>
        <time>2020-10-12T10:03:32Z</time>
      </trkpt>
      <trkpt lat="38.5186430" lon="-0.6746790">
        <ele>899.3</ele>
        <time>2020-10-12T10:03:34Z</time>
      </trkpt>
      <trkpt lat="38.5186090" lon="-0.6749980">
        <ele>896.9</ele>
        <time>2020-10-12T10:03:36Z</time>
      </trkpt>
      <trkpt lat="38.5185930" lon="-0.6752810">
        <ele>895.1</ele>
        <time>2020-10-12T10:03:38Z</time>
      </trkpt>
      <trkpt lat="38.5185820" lon="-0.6756060">
        <ele>893.8</ele>
        <time>2020-10-12T10:03:41Z</time>
      </trkpt>
      <trkpt lat="38.5185720" lon="-0.6758660">
        <ele>893.1</ele>
        <time>2020-10-12T10:03:44Z</time>
      </trkpt>
      <trkpt lat="38.5186830" lon="-0.6760680">
        <ele>893.6</ele>
        <time>2020-10-12T10:03:48Z</time>
      </trkpt>
      <trkpt lat="38.5188440" lon="-0.6761930">
        <ele>893.8</ele>
        <time>2020-10-12T10:03:52Z</time>
      </trkpt>
      <trkpt lat="38.5190040" lon="-0.6763080">
        <ele>893.9</ele>
        <time>2020-10-12T10:03:56Z</time>
      </trkpt>
      <trkpt lat="38.5192400" lon="-0.6763510">
        <ele>893.7</ele>
        <time>2020-10-12T10:04:14Z</time>
      </trkpt>
      <trkpt lat="38.5192960" lon="-0.6764400">
        <ele>893.5</ele>
        <time>2020-10-12T10:05:04Z</time>
      </trkpt>
      <trkpt lat="38.5193520" lon="-0.6765280">
        <ele>892.7</ele>
        <time>2020-10-12T10:06:24Z</time>
      </trkpt>
      <trkpt lat="38.5194080" lon="-0.6766160">
        <ele>892.2</ele>
        <time>2020-10-12T10:08:34Z</time>
      </trkpt>
      <trkpt lat="38.5194640" lon="-0.6767050">
        <ele>891.9</ele>
        <time>2020-10-12T10:09:16Z</time>
      </trkpt>
      <trkpt lat="38.5195200" lon="-0.6767930">
        <ele>891.6</ele>
        <time>2020-10-12T10:09:18Z</time>
      </trkpt>
      <trkpt lat="38.5195770" lon="-0.6770550">
        <ele>891.4</ele>
        <time>2020-10-12T10:09:21Z</time>
      </trkpt>
      <trkpt lat="38.5195980" lon="-0.6772900">
        <ele>891.8</ele>
        <time>2020-10-12T10:09:24Z</time>
      </trkpt>
      <trkpt lat="38.5194840" lon="-0.6774710">
        <ele>892.3</ele>
        <time>2020-10-12T10:09:30Z</time>
      </trkpt>
      <trkpt lat="38.5193310" lon="-0.6776760">
        <ele>892.7</ele>
        <time>2020-10-12T10:09:38Z</time>
      </trkpt>
      <trkpt lat="38.5191430" lon="-0.6779140">
        <ele>892.9</ele>
        <time>2020-10-12T10:09:42Z</time>
      </trkpt>
      <trkpt lat="38.5190010" lon="-0.6781230">
        <ele>892.7</ele>
        <time>2020-10-12T10:09:45Z</time>
      </trkpt>
      <trkpt lat="38.5188780" lon="-0.6783050">
        <ele>892.6</ele>
        <time>2020-10-12T10:09:48Z</time>
      </trkpt>
      <trkpt lat="38.5187850" lon="-0.6785570">
        <ele>892.6</ele>
        <time>2020-10-12T10:09:52Z</time>
      </trkpt>
      <trkpt lat="38.5187250" lon="-0.6788510">
        <ele>892.4</ele>
        <time>2020-10-12T10:09:56Z</time>
      </trkpt>
      <trkpt lat="38.5187190" lon="-0.6790990">
        <ele>892.3</ele>
        <time>2020-10-12T10:10:00Z</time>
      </trkpt>
      <trkpt lat="38.5187450" lon="-0.6793790">
        <ele>892.1</ele>
        <time>2020-10-12T10:10:04Z</time>
      </trkpt>
      <trkpt lat="38.5187290" lon="-0.6796770">
        <ele>891.7</ele>
        <time>2020-10-12T10:10:08Z</time>
      </trkpt>
      <trkpt lat="38.5187150" lon="-0.6799310">
        <ele>891.0</ele>
        <time>2020-10-12T10:10:11Z</time>
      </trkpt>
      <trkpt lat="38.5187070" lon="-0.6801930">
        <ele>890.0</ele>
        <time>2020-10-12T10:10:14Z</time>
      </trkpt>
      <trkpt lat="38.5187090" lon="-0.6804760">
        <ele>888.9</ele>
        <time>2020-10-12T10:10:17Z</time>
      </trkpt>
      <trkpt lat="38.5187270" lon="-0.6807930">
        <ele>887.4</ele>
        <time>2020-10-12T10:10:20Z</time>
      </trkpt>
      <trkpt lat="38.5187370" lon="-0.6811070">
        <ele>887.1</ele>
        <time>2020-10-12T10:10:23Z</time>
      </trkpt>
      <trkpt lat="38.5186500" lon="-0.6813740">
        <ele>887.6</ele>
        <time>2020-10-12T10:10:26Z</time>
      </trkpt>
      <trkpt lat="38.5185780" lon="-0.6816030">
        <ele>888.0</ele>
        <time>2020-10-12T10:10:29Z</time>
      </trkpt>
      <trkpt lat="38.5185150" lon="-0.6818470">
        <ele>888.3</ele>
        <time>2020-10-12T10:10:32Z</time>
      </trkpt>
      <trkpt lat="38.5184530" lon="-0.6820770">
        <ele>888.3</ele>
        <time>2020-10-12T10:10:35Z</time>
      </trkpt>
      <trkpt lat="38.5183290" lon="-0.6822440">
        <ele>888.1</ele>
        <time>2020-10-12T10:10:37Z</time>
      </trkpt>
      <trkpt lat="38.5181510" lon="-0.6824680">
        <ele>888.2</ele>
        <time>2020-10-12T10:10:40Z</time>
      </trkpt>
      <trkpt lat="38.5179830" lon="-0.6826910">
        <ele>888.9</ele>
        <time>2020-10-12T10:10:43Z</time>
      </trkpt>
      <trkpt lat="38.5178790" lon="-0.6828780">
        <ele>889.2</ele>
        <time>2020-10-12T10:10:46Z</time>
      </trkpt>
      <trkpt lat="38.5178570" lon="-0.6831260">
        <ele>889.3</ele>
        <time>2020-10-12T10:10:49Z</time>
      </trkpt>
      <trkpt lat="38.5178950" lon="-0.6833690">
        <ele>889.4</ele>
        <time>2020-10-12T10:10:52Z</time>
      </trkpt>
      <trkpt lat="38.5179250" lon="-0.6836130">
        <ele>889.7</ele>
        <time>2020-10-12T10:10:55Z</time>
      </trkpt>
      <trkpt lat="38.5179560" lon="-0.6838660">
        <ele>889.9</ele>
        <time>2020-10-12T10:10:58Z</time>
      </trkpt>
      <trkpt lat="38.5179870" lon="-0.6841570">
        <ele>890.3</ele>
        <time>2020-10-12T10:11:01Z</time>
      </trkpt>
      <trkpt lat="38.5180260" lon="-0.6844030">
        <ele>890.9</ele>
        <time>2020-10-12T10:11:04Z</time>
      </trkpt>
      <trkpt lat="38.5181180" lon="-0.6846750">
        <ele>891.6</ele>
        <time>2020-10-12T10:11:08Z</time>
      </trkpt>
      <trkpt lat="38.5182580" lon="-0.6849020">
        <ele>891.9</ele>
        <time>2020-10-12T10:11:12Z</time>
      </trkpt>
      <trkpt lat="38.5183910" lon="-0.6851680">
        <ele>892.0</ele>
        <time>2020-10-12T10:11:16Z</time>
      </trkpt>
      <trkpt lat="38.5184250" lon="-0.6854220">
        <ele>892.1</ele>
        <time>2020-10-12T10:11:19Z</time>
      </trkpt>
      <trkpt lat="38.5184650" lon="-0.6856690">
        <ele>892.3</ele>
        <time>2020-10-12T10:11:22Z</time>
      </trkpt>
      <trkpt lat="38.5185100" lon="-0.6859800">
        <ele>892.5</ele>
        <time>2020-10-12T10:11:26Z</time>
      </trkpt>
      <trkpt lat="38.5185400" lon="-0.6862380">
        <ele>892.3</ele>
        <time>2020-10-12T10:11:29Z</time>
      </trkpt>
      <trkpt lat="38.5185490" lon="-0.6864990">
        <ele>891.6</ele>
        <time>2020-10-12T10:11:32Z</time>
      </trkpt>
      <trkpt lat="38.5185570" lon="-0.6867600">
        <ele>890.8</ele>
        <time>2020-10-12T10:11:35Z</time>
      </trkpt>
      <trkpt lat="38.5185760" lon="-0.6870120">
        <ele>889.2</ele>
        <time>2020-10-12T10:11:38Z</time>
      </trkpt>
      <trkpt lat="38.5186420" lon="-0.6873260">
        <ele>886.1</ele>
        <time>2020-10-12T10:11:41Z</time>
      </trkpt>
      <trkpt lat="38.5186930" lon="-0.6875900">
        <ele>884.5</ele>
        <time>2020-10-12T10:11:43Z</time>
      </trkpt>
      <trkpt lat="38.5187510" lon="-0.6878590">
        <ele>883.6</ele>
        <time>2020-10-12T10:11:45Z</time>
      </trkpt>
      <trkpt lat="38.5188070" lon="-0.6881250">
        <ele>883.2</ele>
        <time>2020-10-12T10:11:47Z</time>
      </trkpt>
      <trkpt lat="38.5188560" lon="-0.6883630">
        <ele>883.0</ele>
        <time>2020-10-12T10:11:49Z</time>
      </trkpt>
      <trkpt lat="38.5189420" lon="-0.6886820">
        <ele>882.9</ele>
        <time>2020-10-12T10:11:52Z</time>
      </trkpt>
      <trkpt lat="38.5190140" lon="-0.6890010">
        <ele>883.1</ele>
        <time>2020-10-12T10:11:55Z</time>
      </trkpt>
      <trkpt lat="38.5190390" lon="-0.6893270">
        <ele>883.2</ele>
        <time>2020-10-12T10:11:58Z</time>
      </trkpt>
      <trkpt lat="38.5190520" lon="-0.6896570">
        <ele>882.4</ele>
        <time>2020-10-12T10:12:01Z</time>
      </trkpt>
      <trkpt lat="38.5190620" lon="-0.6898920">
        <ele>881.7</ele>
        <time>2020-10-12T10:12:03Z</time>
      </trkpt>
      <trkpt lat="38.5190610" lon="-0.6901290">
        <ele>881.2</ele>
        <time>2020-10-12T10:12:05Z</time>
      </trkpt>
      <trkpt lat="38.5190500" lon="-0.6903680">
        <ele>880.9</ele>
        <time>2020-10-12T10:12:07Z</time>
      </trkpt>
      <trkpt lat="38.5190310" lon="-0.6907100">
        <ele>880.7</ele>
        <time>2020-10-12T10:12:10Z</time>
      </trkpt>
      <trkpt lat="38.5190150" lon="-0.6910430">
        <ele>880.5</ele>
        <time>2020-10-12T10:12:13Z</time>
      </trkpt>
      <trkpt lat="38.5190010" lon="-0.6913550">
        <ele>880.0</ele>
        <time>2020-10-12T10:12:16Z</time>
      </trkpt>
      <trkpt lat="38.5189920" lon="-0.6916600">
        <ele>879.9</ele>
        <time>2020-10-12T10:12:19Z</time>
      </trkpt>
      <trkpt lat="38.5189570" lon="-0.6918950">
        <ele>880.6</ele>
        <time>2020-10-12T10:12:21Z</time>
      </trkpt>
      <trkpt lat="38.5189510" lon="-0.6921920">
        <ele>882.0</ele>
        <time>2020-10-12T10:12:24Z</time>
      </trkpt>
      <trkpt lat="38.5189580" lon="-0.6924420">
        <ele>883.0</ele>
        <time>2020-10-12T10:12:27Z</time>
      </trkpt>
      <trkpt lat="38.5189070" lon="-0.6926960">
        <ele>883.8</ele>
        <time>2020-10-12T10:12:30Z</time>
      </trkpt>
      <trkpt lat="38.5188590" lon="-0.6929480">
        <ele>884.8</ele>
        <time>2020-10-12T10:12:33Z</time>
      </trkpt>
      <trkpt lat="38.5188050" lon="-0.6932020">
        <ele>885.9</ele>
        <time>2020-10-12T10:12:36Z</time>
      </trkpt>
      <trkpt lat="38.5187630" lon="-0.6934360">
        <ele>886.9</ele>
        <time>2020-10-12T10:12:39Z</time>
      </trkpt>
      <trkpt lat="38.5187610" lon="-0.6936830">
        <ele>886.1</ele>
        <time>2020-10-12T10:12:42Z</time>
      </trkpt>
      <trkpt lat="38.5187950" lon="-0.6939210">
        <ele>884.2</ele>
        <time>2020-10-12T10:12:45Z</time>
      </trkpt>
      <trkpt lat="38.5188110" lon="-0.6941670">
        <ele>882.4</ele>
        <time>2020-10-12T10:12:48Z</time>
      </trkpt>
      <trkpt lat="38.5188060" lon="-0.6944430">
        <ele>880.3</ele>
        <time>2020-10-12T10:12:51Z</time>
      </trkpt>
      <trkpt lat="38.5187990" lon="-0.6947800">
        <ele>877.7</ele>
        <time>2020-10-12T10:12:54Z</time>
      </trkpt>
      <trkpt lat="38.5187740" lon="-0.6950290">
        <ele>875.8</ele>
        <time>2020-10-12T10:12:56Z</time>
      </trkpt>
      <trkpt lat="38.5187500" lon="-0.6953010">
        <ele>873.7</ele>
        <time>2020-10-12T10:12:58Z</time>
      </trkpt>
      <trkpt lat="38.5187170" lon="-0.6956050">
        <ele>871.3</ele>
        <time>2020-10-12T10:13:00Z</time>
      </trkpt>
      <trkpt lat="38.5186750" lon="-0.6959340">
        <ele>868.8</ele>
        <time>2020-10-12T10:13:02Z</time>
      </trkpt>
      <trkpt lat="38.5186540" lon="-0.6962720">
        <ele>866.2</ele>
        <time>2020-10-12T10:13:04Z</time>
      </trkpt>
      <trkpt lat="38.5186480" lon="-0.6966280">
        <ele>863.5</ele>
        <time>2020-10-12T10:13:06Z</time>
      </trkpt>
      <trkpt lat="38.5186390" lon="-0.6969710">
        <ele>860.8</ele>
        <time>2020-10-12T10:13:08Z</time>
      </trkpt>
      <trkpt lat="38.5186720" lon="-0.6973020">
        <ele>858.3</ele>
        <time>2020-10-12T10:13:10Z</time>
      </trkpt>
      <trkpt lat="38.5187110" lon="-0.6976370">
        <ele>855.7</ele>
        <time>2020-10-12T10:13:12Z</time>
      </trkpt>
      <trkpt lat="38.5187330" lon="-0.6979570">
        <ele>853.3</ele>
        <time>2020-10-12T10:13:14Z</time>
      </trkpt>
      <trkpt lat="38.5187540" lon="-0.6982650">
        <ele>850.9</ele>
        <time>2020-10-12T10:13:16Z</time>
      </trkpt>
      <trkpt lat="38.5187650" lon="-0.6985300">
        <ele>848.9</ele>
        <time>2020-10-12T10:13:18Z</time>
      </trkpt>
      <trkpt lat="38.5187030" lon="-0.6988300">
        <ele>846.5</ele>
        <time>2020-10-12T10:13:20Z</time>
      </trkpt>
      <trkpt lat="38.5185830" lon="-0.6991340">
        <ele>843.9</ele>
        <time>2020-10-12T10:13:22Z</time>
      </trkpt>
      <trkpt lat="38.5184630" lon="-0.6994600">
        <ele>841.1</ele>
        <time>2020-10-12T10:13:24Z</time>
      </trkpt>
      <trkpt lat="38.5183400" lon="-0.6997820">
        <ele>838.4</ele>
        <time>2020-10-12T10:13:26Z</time>
      </trkpt>
      <trkpt lat="38.5182320" lon="-0.7001050">
        <ele>835.7</ele>
        <time>2020-10-12T10:13:28Z</time>
      </trkpt>
      <trkpt lat="38.5181210" lon="-0.7004410">
        <ele>832.9</ele>
        <time>2020-10-12T10:13:30Z</time>
      </trkpt>
      <trkpt lat="38.5180270" lon="-0.7007890">
        <ele>830.1</ele>
        <time>2020-10-12T10:13:32Z</time>
      </trkpt>
      <trkpt lat="38.5179500" lon="-0.7011270">
        <ele>827.4</ele>
        <time>2020-10-12T10:13:34Z</time>
      </trkpt>
      <trkpt lat="38.5178690" lon="-0.7014700">
        <ele>824.7</ele>
        <time>2020-10-12T10:13:36Z</time>
      </trkpt>
      <trkpt lat="38.5177860" lon="-0.7018280">
        <ele>821.8</ele>
        <time>2020-10-12T10:13:38Z</time>
      </trkpt>
      <trkpt lat="38.5177160" lon="-0.7021980">
        <ele>818.9</ele>
        <time>2020-10-12T10:13:40Z</time>
      </trkpt>
      <trkpt lat="38.5176670" lon="-0.7025630">
        <ele>816.1</ele>
        <time>2020-10-12T10:13:42Z</time>
      </trkpt>
      <trkpt lat="38.5176240" lon="-0.7029160">
        <ele>813.4</ele>
        <time>2020-10-12T10:13:44Z</time>
      </trkpt>
      <trkpt lat="38.5175720" lon="-0.7032530">
        <ele>810.8</ele>
        <time>2020-10-12T10:13:46Z</time>
      </trkpt>
      <trkpt lat="38.5175260" lon="-0.7035430">
        <ele>808.5</ele>
        <time>2020-10-12T10:13:48Z</time>
      </trkpt>
      <trkpt lat="38.5174820" lon="-0.7038000">
        <ele>806.5</ele>
        <time>2020-10-12T10:13:50Z</time>
      </trkpt>
      <trkpt lat="38.5173760" lon="-0.7040500">
        <ele>804.3</ele>
        <time>2020-10-12T10:13:52Z</time>
      </trkpt>
      <trkpt lat="38.5172000" lon="-0.7042840">
        <ele>801.8</ele>
        <time>2020-10-12T10:13:54Z</time>
      </trkpt>
      <trkpt lat="38.5170230" lon="-0.7045680">
        <ele>799.2</ele>
        <time>2020-10-12T10:13:56Z</time>
      </trkpt>
      <trkpt lat="38.5168500" lon="-0.7048750">
        <ele>797.2</ele>
        <time>2020-10-12T10:13:58Z</time>
      </trkpt>
      <trkpt lat="38.5166770" lon="-0.7051800">
        <ele>795.2</ele>
        <time>2020-10-12T10:14:00Z</time>
      </trkpt>
      <trkpt lat="38.5165130" lon="-0.7054920">
        <ele>793.5</ele>
        <time>2020-10-12T10:14:02Z</time>
      </trkpt>
      <trkpt lat="38.5163530" lon="-0.7057560">
        <ele>792.1</ele>
        <time>2020-10-12T10:14:04Z</time>
      </trkpt>
      <trkpt lat="38.5162050" lon="-0.7060080">
        <ele>789.9</ele>
        <time>2020-10-12T10:14:06Z</time>
      </trkpt>
      <trkpt lat="38.5160470" lon="-0.7062090">
        <ele>787.4</ele>
        <time>2020-10-12T10:14:08Z</time>
      </trkpt>
      <trkpt lat="38.5158510" lon="-0.7063750">
        <ele>784.1</ele>
        <time>2020-10-12T10:14:10Z</time>
      </trkpt>
      <trkpt lat="38.5156630" lon="-0.7065630">
        <ele>780.8</ele>
        <time>2020-10-12T10:14:12Z</time>
      </trkpt>
      <trkpt lat="38.5154860" lon="-0.7067990">
        <ele>777.2</ele>
        <time>2020-10-12T10:14:14Z</time>
      </trkpt>
      <trkpt lat="38.5152870" lon="-0.7070520">
        <ele>773.2</ele>
        <time>2020-10-12T10:14:16Z</time>
      </trkpt>
      <trkpt lat="38.5150690" lon="-0.7073260">
        <ele>770.8</ele>
        <time>2020-10-12T10:14:18Z</time>
      </trkpt>
      <trkpt lat="38.5148400" lon="-0.7076250">
        <ele>768.7</ele>
        <time>2020-10-12T10:14:20Z</time>
      </trkpt>
      <trkpt lat="38.5146320" lon="-0.7078990">
        <ele>766.5</ele>
        <time>2020-10-12T10:14:22Z</time>
      </trkpt>
      <trkpt lat="38.5144410" lon="-0.7081390">
        <ele>764.2</ele>
        <time>2020-10-12T10:14:24Z</time>
      </trkpt>
      <trkpt lat="38.5142080" lon="-0.7083500">
        <ele>761.6</ele>
        <time>2020-10-12T10:14:26Z</time>
      </trkpt>
      <trkpt lat="38.5139990" lon="-0.7085250">
        <ele>759.2</ele>
        <time>2020-10-12T10:14:28Z</time>
      </trkpt>
      <trkpt lat="38.5137920" lon="-0.7086740">
        <ele>756.8</ele>
        <time>2020-10-12T10:14:30Z</time>
      </trkpt>
      <trkpt lat="38.5135530" lon="-0.7088130">
        <ele>754.0</ele>
        <time>2020-10-12T10:14:32Z</time>
      </trkpt>
      <trkpt lat="38.5133140" lon="-0.7089510">
        <ele>751.3</ele>
        <time>2020-10-12T10:14:34Z</time>
      </trkpt>
      <trkpt lat="38.5131080" lon="-0.7091060">
        <ele>749.1</ele>
        <time>2020-10-12T10:14:36Z</time>
      </trkpt>
      <trkpt lat="38.5129040" lon="-0.7092180">
        <ele>746.7</ele>
        <time>2020-10-12T10:14:38Z</time>
      </trkpt>
      <trkpt lat="38.5126760" lon="-0.7092720">
        <ele>743.8</ele>
        <time>2020-10-12T10:14:40Z</time>
      </trkpt>
      <trkpt lat="38.5124470" lon="-0.7093440">
        <ele>740.5</ele>
        <time>2020-10-12T10:14:42Z</time>
      </trkpt>
      <trkpt lat="38.5122100" lon="-0.7095650">
        <ele>737.0</ele>
        <time>2020-10-12T10:14:44Z</time>
      </trkpt>
      <trkpt lat="38.5120170" lon="-0.7097950">
        <ele>733.3</ele>
        <time>2020-10-12T10:14:46Z</time>
      </trkpt>
      <trkpt lat="38.5117890" lon="-0.7099960">
        <ele>729.5</ele>
        <time>2020-10-12T10:14:48Z</time>
      </trkpt>
      <trkpt lat="38.5115620" lon="-0.7101590">
        <ele>726.0</ele>
        <time>2020-10-12T10:14:50Z</time>
      </trkpt>
      <trkpt lat="38.5113690" lon="-0.7102810">
        <ele>724.1</ele>
        <time>2020-10-12T10:14:52Z</time>
      </trkpt>
      <trkpt lat="38.5111990" lon="-0.7103670">
        <ele>723.2</ele>
        <time>2020-10-12T10:14:54Z</time>
      </trkpt>
      <trkpt lat="38.5109540" lon="-0.7102940">
        <ele>720.8</ele>
        <time>2020-10-12T10:14:57Z</time>
      </trkpt>
      <trkpt lat="38.5108000" lon="-0.7101440">
        <ele>719.6</ele>
        <time>2020-10-12T10:14:59Z</time>
      </trkpt>
      <trkpt lat="38.5105460" lon="-0.7102230">
        <ele>720.0</ele>
        <time>2020-10-12T10:15:02Z</time>
      </trkpt>
      <trkpt lat="38.5104400" lon="-0.7104110">
        <ele>721.1</ele>
        <time>2020-10-12T10:15:04Z</time>
      </trkpt>
      <trkpt lat="38.5104010" lon="-0.7106560">
        <ele>722.9</ele>
        <time>2020-10-12T10:15:08Z</time>
      </trkpt>
      <trkpt lat="38.5103790" lon="-0.7109070">
        <ele>724.2</ele>
        <time>2020-10-12T10:15:16Z</time>
      </trkpt>
      <trkpt lat="38.5103340" lon="-0.7111580">
        <ele>725.0</ele>
        <time>2020-10-12T10:15:20Z</time>
      </trkpt>
      <trkpt lat="38.5102430" lon="-0.7114100">
        <ele>725.9</ele>
        <time>2020-10-12T10:15:23Z</time>
      </trkpt>
      <trkpt lat="38.5101110" lon="-0.7116560">
        <ele>726.9</ele>
        <time>2020-10-12T10:15:27Z</time>
      </trkpt>
      <trkpt lat="38.5099480" lon="-0.7118580">
        <ele>728.0</ele>
        <time>2020-10-12T10:15:31Z</time>
      </trkpt>
      <trkpt lat="38.5097920" lon="-0.7120370">
        <ele>729.4</ele>
        <time>2020-10-12T10:15:35Z</time>
      </trkpt>
      <trkpt lat="38.5096430" lon="-0.7122050">
        <ele>731.0</ele>
        <time>2020-10-12T10:15:42Z</time>
      </trkpt>
      <trkpt lat="38.5094870" lon="-0.7124250">
        <ele>733.0</ele>
        <time>2020-10-12T10:15:46Z</time>
      </trkpt>
      <trkpt lat="38.5093500" lon="-0.7125810">
        <ele>734.1</ele>
        <time>2020-10-12T10:15:50Z</time>
      </trkpt>
      <trkpt lat="38.5092470" lon="-0.7127960">
        <ele>734.7</ele>
        <time>2020-10-12T10:15:58Z</time>
      </trkpt>
      <trkpt lat="38.5092220" lon="-0.7130610">
        <ele>734.6</ele>
        <time>2020-10-12T10:16:04Z</time>
      </trkpt>
      <trkpt lat="38.5090770" lon="-0.7132730">
        <ele>734.1</ele>
        <time>2020-10-12T10:16:09Z</time>
      </trkpt>
      <trkpt lat="38.5089160" lon="-0.7134490">
        <ele>733.4</ele>
        <time>2020-10-12T10:16:12Z</time>
      </trkpt>
      <trkpt lat="38.5087920" lon="-0.7136360">
        <ele>732.4</ele>
        <time>2020-10-12T10:16:15Z</time>
      </trkpt>
      <trkpt lat="38.5086540" lon="-0.7137930">
        <ele>731.2</ele>
        <time>2020-10-12T10:16:18Z</time>
      </trkpt>
      <trkpt lat="38.5084840" lon="-0.7139280">
        <ele>729.7</ele>
        <time>2020-10-12T10:16:21Z</time>
      </trkpt>
      <trkpt lat="38.5083200" lon="-0.7140440">
        <ele>727.8</ele>
        <time>2020-10-12T10:16:24Z</time>
      </trkpt>
      <trkpt lat="38.5081480" lon="-0.7142070">
        <ele>725.3</ele>
        <time>2020-10-12T10:16:27Z</time>
      </trkpt>
      <trkpt lat="38.5080160" lon="-0.7144970">
        <ele>722.2</ele>
        <time>2020-10-12T10:16:30Z</time>
      </trkpt>
      <trkpt lat="38.5079030" lon="-0.7146820">
        <ele>720.0</ele>
        <time>2020-10-12T10:16:32Z</time>
      </trkpt>
      <trkpt lat="38.5077310" lon="-0.7149020">
        <ele>716.5</ele>
        <time>2020-10-12T10:16:35Z</time>
      </trkpt>
      <trkpt lat="38.5075830" lon="-0.7151080">
        <ele>713.0</ele>
        <time>2020-10-12T10:16:38Z</time>
      </trkpt>
      <trkpt lat="38.5074730" lon="-0.7153400">
        <ele>710.2</ele>
        <time>2020-10-12T10:16:41Z</time>
      </trkpt>
      <trkpt lat="38.5073560" lon="-0.7155770">
        <ele>708.7</ele>
        <time>2020-10-12T10:16:44Z</time>
      </trkpt>
      <trkpt lat="38.5073530" lon="-0.7159070">
        <ele>708.1</ele>
        <time>2020-10-12T10:16:47Z</time>
      </trkpt>
      <trkpt lat="38.5074460" lon="-0.7161990">
        <ele>707.6</ele>
        <time>2020-10-12T10:16:50Z</time>
      </trkpt>
      <trkpt lat="38.5076040" lon="-0.7164610">
        <ele>707.3</ele>
        <time>2020-10-12T10:16:53Z</time>
      </trkpt>
      <trkpt lat="38.5077920" lon="-0.7166190">
        <ele>706.8</ele>
        <time>2020-10-12T10:16:56Z</time>
      </trkpt>
      <trkpt lat="38.5079700" lon="-0.7167740">
        <ele>706.3</ele>
        <time>2020-10-12T10:16:59Z</time>
      </trkpt>
      <trkpt lat="38.5081110" lon="-0.7170000">
        <ele>706.0</ele>
        <time>2020-10-12T10:17:02Z</time>
      </trkpt>
      <trkpt lat="38.5082240" lon="-0.7172290">
        <ele>705.8</ele>
        <time>2020-10-12T10:17:05Z</time>
      </trkpt>
      <trkpt lat="38.5084580" lon="-0.7172780">
        <ele>705.7</ele>
        <time>2020-10-12T10:17:09Z</time>
      </trkpt>
      <trkpt lat="38.5086630" lon="-0.7172940">
        <ele>705.6</ele>
        <time>2020-10-12T10:17:12Z</time>
      </trkpt>
      <trkpt lat="38.5088600" lon="-0.7172730">
        <ele>705.9</ele>
        <time>2020-10-12T10:17:15Z</time>
      </trkpt>
      <trkpt lat="38.5090460" lon="-0.7172260">
        <ele>706.2</ele>
        <time>2020-10-12T10:17:18Z</time>
      </trkpt>
      <trkpt lat="38.5092630" lon="-0.7171490">
        <ele>706.5</ele>
        <time>2020-10-12T10:17:22Z</time>
      </trkpt>
      <trkpt lat="38.5094420" lon="-0.7171780">
        <ele>706.5</ele>
        <time>2020-10-12T10:17:25Z</time>
      </trkpt>
      <trkpt lat="38.5096360" lon="-0.7172370">
        <ele>706.6</ele>
        <time>2020-10-12T10:17:28Z</time>
      </trkpt>
      <trkpt lat="38.5098210" lon="-0.7172670">
        <ele>706.6</ele>
        <time>2020-10-12T10:17:31Z</time>
      </trkpt>
      <trkpt lat="38.5100480" lon="-0.7173220">
        <ele>706.0</ele>
        <time>2020-10-12T10:17:35Z</time>
      </trkpt>
      <trkpt lat="38.5102580" lon="-0.7174800">
        <ele>705.0</ele>
        <time>2020-10-12T10:17:39Z</time>
      </trkpt>
      <trkpt lat="38.5103480" lon="-0.7177200">
        <ele>704.2</ele>
        <time>2020-10-12T10:17:42Z</time>
      </trkpt>
      <trkpt lat="38.5103330" lon="-0.7179730">
        <ele>703.3</ele>
        <time>2020-10-12T10:17:45Z</time>
      </trkpt>
      <trkpt lat="38.5102580" lon="-0.7181870">
        <ele>702.5</ele>
        <time>2020-10-12T10:17:48Z</time>
      </trkpt>
      <trkpt lat="38.5101150" lon="-0.7183490">
        <ele>701.6</ele>
        <time>2020-10-12T10:17:51Z</time>
      </trkpt>
      <trkpt lat="38.5099790" lon="-0.7185940">
        <ele>700.1</ele>
        <time>2020-10-12T10:17:54Z</time>
      </trkpt>
      <trkpt lat="38.5099310" lon="-0.7189350">
        <ele>698.0</ele>
        <time>2020-10-12T10:17:57Z</time>
      </trkpt>
      <trkpt lat="38.5099380" lon="-0.7191680">
        <ele>696.6</ele>
        <time>2020-10-12T10:17:59Z</time>
      </trkpt>
      <trkpt lat="38.5099890" lon="-0.7194810">
        <ele>694.6</ele>
        <time>2020-10-12T10:18:02Z</time>
      </trkpt>
      <trkpt lat="38.5099530" lon="-0.7197750">
        <ele>692.6</ele>
        <time>2020-10-12T10:18:06Z</time>
      </trkpt>
      <trkpt lat="38.5098190" lon="-0.7199280">
        <ele>690.8</ele>
        <time>2020-10-12T10:18:08Z</time>
      </trkpt>
      <trkpt lat="38.5096660" lon="-0.7200930">
        <ele>689.0</ele>
        <time>2020-10-12T10:18:10Z</time>
      </trkpt>
      <trkpt lat="38.5095290" lon="-0.7203060">
        <ele>687.1</ele>
        <time>2020-10-12T10:18:12Z</time>
      </trkpt>
      <trkpt lat="38.5094000" lon="-0.7205610">
        <ele>685.1</ele>
        <time>2020-10-12T10:18:14Z</time>
      </trkpt>
      <trkpt lat="38.5092890" lon="-0.7207990">
        <ele>683.1</ele>
        <time>2020-10-12T10:18:16Z</time>
      </trkpt>
      <trkpt lat="38.5091800" lon="-0.7210240">
        <ele>681.1</ele>
        <time>2020-10-12T10:18:18Z</time>
      </trkpt>
      <trkpt lat="38.5090830" lon="-0.7212620">
        <ele>678.9</ele>
        <time>2020-10-12T10:18:20Z</time>
      </trkpt>
      <trkpt lat="38.5090010" lon="-0.7215260">
        <ele>676.4</ele>
        <time>2020-10-12T10:18:22Z</time>
      </trkpt>
      <trkpt lat="38.5089020" lon="-0.7218160">
        <ele>673.9</ele>
        <time>2020-10-12T10:18:24Z</time>
      </trkpt>
      <trkpt lat="38.5087710" lon="-0.7221010">
        <ele>671.5</ele>
        <time>2020-10-12T10:18:26Z</time>
      </trkpt>
      <trkpt lat="38.5086260" lon="-0.7223680">
        <ele>669.5</ele>
        <time>2020-10-12T10:18:28Z</time>
      </trkpt>
      <trkpt lat="38.5084870" lon="-0.7226330">
        <ele>667.6</ele>
        <time>2020-10-12T10:18:30Z</time>
      </trkpt>
      <trkpt lat="38.5083650" lon="-0.7229080">
        <ele>665.2</ele>
        <time>2020-10-12T10:18:32Z</time>
      </trkpt>
      <trkpt lat="38.5082560" lon="-0.7232010">
        <ele>662.6</ele>
        <time>2020-10-12T10:18:34Z</time>
      </trkpt>
      <trkpt lat="38.5081640" lon="-0.7235170">
        <ele>660.0</ele>
        <time>2020-10-12T10:18:36Z</time>
      </trkpt>
      <trkpt lat="38.5080530" lon="-0.7238400">
        <ele>657.2</ele>
        <time>2020-10-12T10:18:38Z</time>
      </trkpt>
      <trkpt lat="38.5079290" lon="-0.7241600">
        <ele>654.4</ele>
        <time>2020-10-12T10:18:40Z</time>
      </trkpt>
      <trkpt lat="38.5077920" lon="-0.7244800">
        <ele>651.8</ele>
        <time>2020-10-12T10:18:42Z</time>
      </trkpt>
      <trkpt lat="38.5076630" lon="-0.7247890">
        <ele>649.8</ele>
        <time>2020-10-12T10:18:44Z</time>
      </trkpt>
      <trkpt lat="38.5075430" lon="-0.7250920">
        <ele>647.8</ele>
        <time>2020-10-12T10:18:46Z</time>
      </trkpt>
      <trkpt lat="38.5074290" lon="-0.7253880">
        <ele>645.6</ele>
        <time>2020-10-12T10:18:48Z</time>
      </trkpt>
      <trkpt lat="38.5073170" lon="-0.7256730">
        <ele>643.6</ele>
        <time>2020-10-12T10:18:50Z</time>
      </trkpt>
      <trkpt lat="38.5071980" lon="-0.7259590">
        <ele>641.6</ele>
        <time>2020-10-12T10:18:52Z</time>
      </trkpt>
      <trkpt lat="38.5070750" lon="-0.7262580">
        <ele>639.4</ele>
        <time>2020-10-12T10:18:54Z</time>
      </trkpt>
      <trkpt lat="38.5069590" lon="-0.7265470">
        <ele>637.4</ele>
        <time>2020-10-12T10:18:56Z</time>
      </trkpt>
      <trkpt lat="38.5068530" lon="-0.7268370">
        <ele>635.4</ele>
        <time>2020-10-12T10:18:58Z</time>
      </trkpt>
      <trkpt lat="38.5067360" lon="-0.7271050">
        <ele>634.0</ele>
        <time>2020-10-12T10:19:00Z</time>
      </trkpt>
      <trkpt lat="38.5066180" lon="-0.7273380">
        <ele>632.4</ele>
        <time>2020-10-12T10:19:02Z</time>
      </trkpt>
      <trkpt lat="38.5065300" lon="-0.7275690">
        <ele>630.5</ele>
        <time>2020-10-12T10:19:04Z</time>
      </trkpt>
      <trkpt lat="38.5065060" lon="-0.7278490">
        <ele>628.1</ele>
        <time>2020-10-12T10:19:06Z</time>
      </trkpt>
      <trkpt lat="38.5064940" lon="-0.7281230">
        <ele>625.5</ele>
        <time>2020-10-12T10:19:08Z</time>
      </trkpt>
      <trkpt lat="38.5064930" lon="-0.7283530">
        <ele>623.1</ele>
        <time>2020-10-12T10:19:10Z</time>
      </trkpt>
      <trkpt lat="38.5064520" lon="-0.7285970">
        <ele>621.2</ele>
        <time>2020-10-12T10:19:13Z</time>
      </trkpt>
      <trkpt lat="38.5062450" lon="-0.7286170">
        <ele>619.6</ele>
        <time>2020-10-12T10:19:16Z</time>
      </trkpt>
      <trkpt lat="38.5060010" lon="-0.7285010">
        <ele>618.7</ele>
        <time>2020-10-12T10:19:19Z</time>
      </trkpt>
      <trkpt lat="38.5057690" lon="-0.7285650">
        <ele>618.0</ele>
        <time>2020-10-12T10:19:22Z</time>
      </trkpt>
      <trkpt lat="38.5056020" lon="-0.7288140">
        <ele>617.6</ele>
        <time>2020-10-12T10:19:25Z</time>
      </trkpt>
      <trkpt lat="38.5056300" lon="-0.7291120">
        <ele>617.0</ele>
        <time>2020-10-12T10:19:28Z</time>
      </trkpt>
      <trkpt lat="38.5057940" lon="-0.7293560">
        <ele>615.8</ele>
        <time>2020-10-12T10:19:31Z</time>
      </trkpt>
      <trkpt lat="38.5058730" lon="-0.7296750">
        <ele>614.6</ele>
        <time>2020-10-12T10:19:34Z</time>
      </trkpt>
      <trkpt lat="38.5058840" lon="-0.7299970">
        <ele>613.3</ele>
        <time>2020-10-12T10:19:37Z</time>
      </trkpt>
      <trkpt lat="38.5057970" lon="-0.7303260">
        <ele>610.9</ele>
        <time>2020-10-12T10:19:40Z</time>
      </trkpt>
      <trkpt lat="38.5057240" lon="-0.7305500">
        <ele>609.0</ele>
        <time>2020-10-12T10:19:42Z</time>
      </trkpt>
      <trkpt lat="38.5056740" lon="-0.7307860">
        <ele>607.1</ele>
        <time>2020-10-12T10:19:44Z</time>
      </trkpt>
      <trkpt lat="38.5056560" lon="-0.7310340">
        <ele>605.3</ele>
        <time>2020-10-12T10:19:46Z</time>
      </trkpt>
      <trkpt lat="38.5056350" lon="-0.7312780">
        <ele>603.6</ele>
        <time>2020-10-12T10:19:48Z</time>
      </trkpt>
      <trkpt lat="38.5056170" lon="-0.7315360">
        <ele>601.8</ele>
        <time>2020-10-12T10:19:50Z</time>
      </trkpt>
      <trkpt lat="38.5056020" lon="-0.7317680">
        <ele>600.2</ele>
        <time>2020-10-12T10:19:52Z</time>
      </trkpt>
      <trkpt lat="38.5055380" lon="-0.7319860">
        <ele>598.3</ele>
        <time>2020-10-12T10:19:54Z</time>
      </trkpt>
      <trkpt lat="38.5054310" lon="-0.7322010">
        <ele>596.6</ele>
        <time>2020-10-12T10:19:56Z</time>
      </trkpt>
      <trkpt lat="38.5052690" lon="-0.7324010">
        <ele>595.0</ele>
        <time>2020-10-12T10:19:59Z</time>
      </trkpt>
      <trkpt lat="38.5051150" lon="-0.7325500">
        <ele>593.9</ele>
        <time>2020-10-12T10:20:04Z</time>
      </trkpt>
      <trkpt lat="38.5049330" lon="-0.7327080">
        <ele>593.7</ele>
        <time>2020-10-12T10:20:10Z</time>
      </trkpt>
      <trkpt lat="38.5047350" lon="-0.7328140">
        <ele>593.9</ele>
        <time>2020-10-12T10:20:15Z</time>
      </trkpt>
      <trkpt lat="38.5045730" lon="-0.7330430">
        <ele>593.7</ele>
        <time>2020-10-12T10:20:19Z</time>
      </trkpt>
      <trkpt lat="38.5044570" lon="-0.7332380">
        <ele>593.4</ele>
        <time>2020-10-12T10:20:22Z</time>
      </trkpt>
      <trkpt lat="38.5043840" lon="-0.7335240">
        <ele>593.0</ele>
        <time>2020-10-12T10:20:26Z</time>
      </trkpt>
      <trkpt lat="38.5043090" lon="-0.7337420">
        <ele>592.8</ele>
        <time>2020-10-12T10:20:29Z</time>
      </trkpt>
      <trkpt lat="38.5042010" lon="-0.7339430">
        <ele>592.6</ele>
        <time>2020-10-12T10:20:32Z</time>
      </trkpt>
      <trkpt lat="38.5041010" lon="-0.7341480">
        <ele>592.1</ele>
        <time>2020-10-12T10:20:35Z</time>
      </trkpt>
      <trkpt lat="38.5039720" lon="-0.7343690">
        <ele>591.3</ele>
        <time>2020-10-12T10:20:38Z</time>
      </trkpt>
      <trkpt lat="38.5038090" lon="-0.7345500">
        <ele>590.3</ele>
        <time>2020-10-12T10:20:41Z</time>
      </trkpt>
      <trkpt lat="38.5036470" lon="-0.7347660">
        <ele>589.6</ele>
        <time>2020-10-12T10:20:44Z</time>
      </trkpt>
      <trkpt lat="38.5034370" lon="-0.7349610">
        <ele>589.0</ele>
        <time>2020-10-12T10:20:47Z</time>
      </trkpt>
      <trkpt lat="38.5032050" lon="-0.7350950">
        <ele>588.6</ele>
        <time>2020-10-12T10:20:50Z</time>
      </trkpt>
      <trkpt lat="38.5029930" lon="-0.7352840">
        <ele>588.5</ele>
        <time>2020-10-12T10:20:53Z</time>
      </trkpt>
      <trkpt lat="38.5028710" lon="-0.7354590">
        <ele>588.5</ele>
        <time>2020-10-12T10:20:56Z</time>
      </trkpt>
      <trkpt lat="38.5027420" lon="-0.7356230">
        <ele>588.3</ele>
        <time>2020-10-12T10:22:56Z</time>
      </trkpt>
      <trkpt lat="38.5026200" lon="-0.7358660">
        <ele>587.4</ele>
        <time>2020-10-12T10:23:01Z</time>
      </trkpt>
      <trkpt lat="38.5024810" lon="-0.7361210">
        <ele>586.2</ele>
        <time>2020-10-12T10:23:04Z</time>
      </trkpt>
      <trkpt lat="38.5023940" lon="-0.7363680">
        <ele>584.6</ele>
        <time>2020-10-12T10:23:07Z</time>
      </trkpt>
      <trkpt lat="38.5024240" lon="-0.7366410">
        <ele>583.6</ele>
        <time>2020-10-12T10:23:10Z</time>
      </trkpt>
      <trkpt lat="38.5025310" lon="-0.7369130">
        <ele>582.8</ele>
        <time>2020-10-12T10:23:13Z</time>
      </trkpt>
      <trkpt lat="38.5026810" lon="-0.7371420">
        <ele>582.3</ele>
        <time>2020-10-12T10:23:16Z</time>
      </trkpt>
      <trkpt lat="38.5028090" lon="-0.7373780">
        <ele>582.0</ele>
        <time>2020-10-12T10:23:19Z</time>
      </trkpt>
      <trkpt lat="38.5028630" lon="-0.7376550">
        <ele>582.0</ele>
        <time>2020-10-12T10:23:22Z</time>
      </trkpt>
      <trkpt lat="38.5028290" lon="-0.7379530">
        <ele>582.3</ele>
        <time>2020-10-12T10:23:25Z</time>
      </trkpt>
      <trkpt lat="38.5027560" lon="-0.7382190">
        <ele>582.8</ele>
        <time>2020-10-12T10:23:28Z</time>
      </trkpt>
      <trkpt lat="38.5026040" lon="-0.7383720">
        <ele>583.6</ele>
        <time>2020-10-12T10:23:31Z</time>
      </trkpt>
      <trkpt lat="38.5024070" lon="-0.7384400">
        <ele>584.2</ele>
        <time>2020-10-12T10:23:36Z</time>
      </trkpt>
      <trkpt lat="38.5022450" lon="-0.7385730">
        <ele>584.3</ele>
        <time>2020-10-12T10:23:41Z</time>
      </trkpt>
      <trkpt lat="38.5022250" lon="-0.7388310">
        <ele>584.2</ele>
        <time>2020-10-12T10:23:47Z</time>
      </trkpt>
      <trkpt lat="38.5022820" lon="-0.7391180">
        <ele>583.6</ele>
        <time>2020-10-12T10:23:50Z</time>
      </trkpt>
      <trkpt lat="38.5023550" lon="-0.7393740">
        <ele>583.1</ele>
        <time>2020-10-12T10:23:52Z</time>
      </trkpt>
      <trkpt lat="38.5025050" lon="-0.7395560">
        <ele>582.8</ele>
        <time>2020-10-12T10:23:55Z</time>
      </trkpt>
      <trkpt lat="38.5026930" lon="-0.7395390">
        <ele>582.9</ele>
        <time>2020-10-12T10:23:58Z</time>
      </trkpt>
      <trkpt lat="38.5027460" lon="-0.7397830">
        <ele>582.9</ele>
        <time>2020-10-12T10:24:02Z</time>
      </trkpt>
      <trkpt lat="38.5025580" lon="-0.7399550">
        <ele>583.2</ele>
        <time>2020-10-12T10:24:06Z</time>
      </trkpt>
      <trkpt lat="38.5024020" lon="-0.7401280">
        <ele>584.0</ele>
        <time>2020-10-12T10:24:10Z</time>
      </trkpt>
      <trkpt lat="38.5022810" lon="-0.7403520">
        <ele>585.7</ele>
        <time>2020-10-12T10:24:15Z</time>
      </trkpt>
      <trkpt lat="38.5022040" lon="-0.7405870">
        <ele>587.4</ele>
        <time>2020-10-12T10:24:22Z</time>
      </trkpt>
      <trkpt lat="38.5021400" lon="-0.7408130">
        <ele>588.7</ele>
        <time>2020-10-12T10:24:27Z</time>
      </trkpt>
      <trkpt lat="38.5020900" lon="-0.7410520">
        <ele>589.8</ele>
        <time>2020-10-12T10:24:30Z</time>
      </trkpt>
      <trkpt lat="38.5020580" lon="-0.7412960">
        <ele>590.7</ele>
        <time>2020-10-12T10:24:34Z</time>
      </trkpt>
      <trkpt lat="38.5020250" lon="-0.7415850">
        <ele>591.5</ele>
        <time>2020-10-12T10:24:38Z</time>
      </trkpt>
      <trkpt lat="38.5020070" lon="-0.7418630">
        <ele>591.9</ele>
        <time>2020-10-12T10:24:42Z</time>
      </trkpt>
      <trkpt lat="38.5019920" lon="-0.7421230">
        <ele>591.9</ele>
        <time>2020-10-12T10:24:46Z</time>
      </trkpt>
      <trkpt lat="38.5019920" lon="-0.7424040">
        <ele>591.3</ele>
        <time>2020-10-12T10:24:50Z</time>
      </trkpt>
      <trkpt lat="38.5019020" lon="-0.7426860">
        <ele>590.1</ele>
        <time>2020-10-12T10:24:53Z</time>
      </trkpt>
      <trkpt lat="38.5017400" lon="-0.7429590">
        <ele>588.0</ele>
        <time>2020-10-12T10:24:56Z</time>
      </trkpt>
      <trkpt lat="38.5016040" lon="-0.7431370">
        <ele>586.3</ele>
        <time>2020-10-12T10:24:58Z</time>
      </trkpt>
      <trkpt lat="38.5014530" lon="-0.7433150">
        <ele>584.7</ele>
        <time>2020-10-12T10:25:00Z</time>
      </trkpt>
      <trkpt lat="38.5013000" lon="-0.7434960">
        <ele>583.0</ele>
        <time>2020-10-12T10:25:02Z</time>
      </trkpt>
      <trkpt lat="38.5011620" lon="-0.7436950">
        <ele>581.6</ele>
        <time>2020-10-12T10:25:04Z</time>
      </trkpt>
      <trkpt lat="38.5010400" lon="-0.7439100">
        <ele>580.2</ele>
        <time>2020-10-12T10:25:06Z</time>
      </trkpt>
      <trkpt lat="38.5009440" lon="-0.7441080">
        <ele>578.9</ele>
        <time>2020-10-12T10:25:08Z</time>
      </trkpt>
      <trkpt lat="38.5008930" lon="-0.7443340">
        <ele>577.7</ele>
        <time>2020-10-12T10:25:10Z</time>
      </trkpt>
      <trkpt lat="38.5009160" lon="-0.7445830">
        <ele>576.6</ele>
        <time>2020-10-12T10:25:12Z</time>
      </trkpt>
      <trkpt lat="38.5009740" lon="-0.7448240">
        <ele>575.9</ele>
        <time>2020-10-12T10:25:14Z</time>
      </trkpt>
      <trkpt lat="38.5010280" lon="-0.7451210">
        <ele>575.5</ele>
        <time>2020-10-12T10:25:17Z</time>
      </trkpt>
      <trkpt lat="38.5008820" lon="-0.7453290">
        <ele>575.3</ele>
        <time>2020-10-12T10:25:20Z</time>
      </trkpt>
      <trkpt lat="38.5006210" lon="-0.7453240">
        <ele>575.4</ele>
        <time>2020-10-12T10:25:23Z</time>
      </trkpt>
      <trkpt lat="38.5004070" lon="-0.7453310">
        <ele>574.9</ele>
        <time>2020-10-12T10:25:26Z</time>
      </trkpt>
      <trkpt lat="38.5002240" lon="-0.7455250">
        <ele>574.1</ele>
        <time>2020-10-12T10:25:29Z</time>
      </trkpt>
      <trkpt lat="38.5000970" lon="-0.7458000">
        <ele>573.8</ele>
        <time>2020-10-12T10:25:32Z</time>
      </trkpt>
      <trkpt lat="38.4999880" lon="-0.7460860">
        <ele>573.7</ele>
        <time>2020-10-12T10:25:35Z</time>
      </trkpt>
      <trkpt lat="38.4998960" lon="-0.7463920">
        <ele>573.6</ele>
        <time>2020-10-12T10:25:38Z</time>
      </trkpt>
      <trkpt lat="38.4998060" lon="-0.7467120">
        <ele>573.8</ele>
        <time>2020-10-12T10:25:41Z</time>
      </trkpt>
      <trkpt lat="38.4996760" lon="-0.7469800">
        <ele>574.3</ele>
        <time>2020-10-12T10:25:44Z</time>
      </trkpt>
      <trkpt lat="38.4995280" lon="-0.7471730">
        <ele>575.1</ele>
        <time>2020-10-12T10:25:47Z</time>
      </trkpt>
      <trkpt lat="38.4993890" lon="-0.7473900">
        <ele>576.0</ele>
        <time>2020-10-12T10:25:50Z</time>
      </trkpt>
      <trkpt lat="38.4992580" lon="-0.7475990">
        <ele>576.7</ele>
        <time>2020-10-12T10:25:53Z</time>
      </trkpt>
      <trkpt lat="38.4991680" lon="-0.7478280">
        <ele>577.4</ele>
        <time>2020-10-12T10:25:56Z</time>
      </trkpt>
      <trkpt lat="38.4990760" lon="-0.7480640">
        <ele>578.3</ele>
        <time>2020-10-12T10:25:59Z</time>
      </trkpt>
      <trkpt lat="38.4989530" lon="-0.7482640">
        <ele>579.4</ele>
        <time>2020-10-12T10:26:02Z</time>
      </trkpt>
      <trkpt lat="38.4988230" lon="-0.7484500">
        <ele>580.6</ele>
        <time>2020-10-12T10:26:05Z</time>
      </trkpt>
      <trkpt lat="38.4986570" lon="-0.7486720">
        <ele>582.1</ele>
        <time>2020-10-12T10:26:09Z</time>
      </trkpt>
      <trkpt lat="38.4984920" lon="-0.7488560">
        <ele>583.6</ele>
        <time>2020-10-12T10:26:13Z</time>
      </trkpt>
      <trkpt lat="38.4983210" lon="-0.7490460">
        <ele>585.1</ele>
        <time>2020-10-12T10:26:17Z</time>
      </trkpt>
      <trkpt lat="38.4981910" lon="-0.7492510">
        <ele>586.1</ele>
        <time>2020-10-12T10:26:21Z</time>
      </trkpt>
      <trkpt lat="38.4981100" lon="-0.7494730">
        <ele>586.5</ele>
        <time>2020-10-12T10:26:26Z</time>
      </trkpt>
      <trkpt lat="38.4978660" lon="-0.7496160">
        <ele>586.1</ele>
        <time>2020-10-12T10:26:30Z</time>
      </trkpt>
      <trkpt lat="38.4976610" lon="-0.7497530">
        <ele>585.1</ele>
        <time>2020-10-12T10:26:33Z</time>
      </trkpt>
      <trkpt lat="38.4974860" lon="-0.7499700">
        <ele>583.9</ele>
        <time>2020-10-12T10:26:36Z</time>
      </trkpt>
      <trkpt lat="38.4973410" lon="-0.7501310">
        <ele>583.0</ele>
        <time>2020-10-12T10:26:38Z</time>
      </trkpt>
      <trkpt lat="38.4971680" lon="-0.7502850">
        <ele>582.0</ele>
        <time>2020-10-12T10:26:40Z</time>
      </trkpt>
      <trkpt lat="38.4969990" lon="-0.7504290">
        <ele>581.1</ele>
        <time>2020-10-12T10:26:42Z</time>
      </trkpt>
      <trkpt lat="38.4968480" lon="-0.7505610">
        <ele>580.1</ele>
        <time>2020-10-12T10:26:44Z</time>
      </trkpt>
      <trkpt lat="38.4966860" lon="-0.7507070">
        <ele>578.8</ele>
        <time>2020-10-12T10:26:46Z</time>
      </trkpt>
      <trkpt lat="38.4965490" lon="-0.7508840">
        <ele>577.4</ele>
        <time>2020-10-12T10:26:48Z</time>
      </trkpt>
      <trkpt lat="38.4964270" lon="-0.7510790">
        <ele>576.2</ele>
        <time>2020-10-12T10:26:50Z</time>
      </trkpt>
      <trkpt lat="38.4962830" lon="-0.7512580">
        <ele>574.9</ele>
        <time>2020-10-12T10:26:52Z</time>
      </trkpt>
      <trkpt lat="38.4960310" lon="-0.7513720">
        <ele>573.1</ele>
        <time>2020-10-12T10:26:54Z</time>
      </trkpt>
      <trkpt lat="38.4958140" lon="-0.7515170">
        <ele>570.8</ele>
        <time>2020-10-12T10:26:56Z</time>
      </trkpt>
      <trkpt lat="38.4956080" lon="-0.7517140">
        <ele>568.7</ele>
        <time>2020-10-12T10:26:58Z</time>
      </trkpt>
      <trkpt lat="38.4953710" lon="-0.7518700">
        <ele>566.8</ele>
        <time>2020-10-12T10:27:00Z</time>
      </trkpt>
      <trkpt lat="38.4951520" lon="-0.7520230">
        <ele>565.0</ele>
        <time>2020-10-12T10:27:02Z</time>
      </trkpt>
      <trkpt lat="38.4949670" lon="-0.7522280">
        <ele>563.0</ele>
        <time>2020-10-12T10:27:04Z</time>
      </trkpt>
      <trkpt lat="38.4947870" lon="-0.7524530">
        <ele>560.8</ele>
        <time>2020-10-12T10:27:06Z</time>
      </trkpt>
      <trkpt lat="38.4945540" lon="-0.7526150">
        <ele>558.3</ele>
        <time>2020-10-12T10:27:08Z</time>
      </trkpt>
      <trkpt lat="38.4943170" lon="-0.7527600">
        <ele>556.1</ele>
        <time>2020-10-12T10:27:10Z</time>
      </trkpt>
      <trkpt lat="38.4940680" lon="-0.7528980">
        <ele>553.4</ele>
        <time>2020-10-12T10:27:12Z</time>
      </trkpt>
      <trkpt lat="38.4937920" lon="-0.7529610">
        <ele>550.8</ele>
        <time>2020-10-12T10:27:14Z</time>
      </trkpt>
      <trkpt lat="38.4935100" lon="-0.7529730">
        <ele>548.2</ele>
        <time>2020-10-12T10:27:16Z</time>
      </trkpt>
      <trkpt lat="38.4932160" lon="-0.7530050">
        <ele>545.3</ele>
        <time>2020-10-12T10:27:18Z</time>
      </trkpt>
      <trkpt lat="38.4929200" lon="-0.7530980">
        <ele>542.3</ele>
        <time>2020-10-12T10:27:20Z</time>
      </trkpt>
      <trkpt lat="38.4926250" lon="-0.7532410">
        <ele>539.4</ele>
        <time>2020-10-12T10:27:22Z</time>
      </trkpt>
      <trkpt lat="38.4923420" lon="-0.7534270">
        <ele>536.6</ele>
        <time>2020-10-12T10:27:24Z</time>
      </trkpt>
      <trkpt lat="38.4920790" lon="-0.7536230">
        <ele>534.8</ele>
        <time>2020-10-12T10:27:26Z</time>
      </trkpt>
      <trkpt lat="38.4918550" lon="-0.7538300">
        <ele>533.2</ele>
        <time>2020-10-12T10:27:28Z</time>
      </trkpt>
      <trkpt lat="38.4916870" lon="-0.7540970">
        <ele>531.9</ele>
        <time>2020-10-12T10:27:30Z</time>
      </trkpt>
      <trkpt lat="38.4914810" lon="-0.7542830">
        <ele>531.0</ele>
        <time>2020-10-12T10:27:32Z</time>
      </trkpt>
      <trkpt lat="38.4912510" lon="-0.7544460">
        <ele>529.9</ele>
        <time>2020-10-12T10:27:34Z</time>
      </trkpt>
      <trkpt lat="38.4910760" lon="-0.7546630">
        <ele>528.8</ele>
        <time>2020-10-12T10:27:36Z</time>
      </trkpt>
      <trkpt lat="38.4909450" lon="-0.7549320">
        <ele>528.3</ele>
        <time>2020-10-12T10:27:38Z</time>
      </trkpt>
      <trkpt lat="38.4908220" lon="-0.7551980">
        <ele>528.2</ele>
        <time>2020-10-12T10:27:40Z</time>
      </trkpt>
      <trkpt lat="38.4906940" lon="-0.7554400">
        <ele>528.3</ele>
        <time>2020-10-12T10:27:42Z</time>
      </trkpt>
      <trkpt lat="38.4905680" lon="-0.7556540">
        <ele>528.5</ele>
        <time>2020-10-12T10:27:44Z</time>
      </trkpt>
      <trkpt lat="38.4904520" lon="-0.7558730">
        <ele>528.6</ele>
        <time>2020-10-12T10:27:46Z</time>
      </trkpt>
      <trkpt lat="38.4903680" lon="-0.7561120">
        <ele>528.7</ele>
        <time>2020-10-12T10:27:48Z</time>
      </trkpt>
      <trkpt lat="38.4902810" lon="-0.7563560">
        <ele>528.9</ele>
        <time>2020-10-12T10:27:50Z</time>
      </trkpt>
      <trkpt lat="38.4902070" lon="-0.7565970">
        <ele>529.6</ele>
        <time>2020-10-12T10:27:52Z</time>
      </trkpt>
      <trkpt lat="38.4901230" lon="-0.7569090">
        <ele>530.7</ele>
        <time>2020-10-12T10:27:55Z</time>
      </trkpt>
      <trkpt lat="38.4900320" lon="-0.7571920">
        <ele>531.7</ele>
        <time>2020-10-12T10:27:58Z</time>
      </trkpt>
      <trkpt lat="38.4899440" lon="-0.7574530">
        <ele>532.7</ele>
        <time>2020-10-12T10:28:01Z</time>
      </trkpt>
      <trkpt lat="38.4898610" lon="-0.7576960">
        <ele>533.4</ele>
        <time>2020-10-12T10:28:04Z</time>
      </trkpt>
      <trkpt lat="38.4897880" lon="-0.7579830">
        <ele>533.8</ele>
        <time>2020-10-12T10:28:08Z</time>
      </trkpt>
      <trkpt lat="38.4897270" lon="-0.7582080">
        <ele>533.8</ele>
        <time>2020-10-12T10:28:11Z</time>
      </trkpt>
      <trkpt lat="38.4896590" lon="-0.7584520">
        <ele>533.6</ele>
        <time>2020-10-12T10:28:14Z</time>
      </trkpt>
      <trkpt lat="38.4896090" lon="-0.7587030">
        <ele>533.2</ele>
        <time>2020-10-12T10:28:17Z</time>
      </trkpt>
      <trkpt lat="38.4895700" lon="-0.7589790">
        <ele>532.3</ele>
        <time>2020-10-12T10:28:20Z</time>
      </trkpt>
      <trkpt lat="38.4895280" lon="-0.7592760">
        <ele>531.0</ele>
        <time>2020-10-12T10:28:23Z</time>
      </trkpt>
      <trkpt lat="38.4894900" lon="-0.7595820">
        <ele>529.6</ele>
        <time>2020-10-12T10:28:26Z</time>
      </trkpt>
      <trkpt lat="38.4894420" lon="-0.7599090">
        <ele>527.3</ele>
        <time>2020-10-12T10:28:29Z</time>
      </trkpt>
      <trkpt lat="38.4894050" lon="-0.7601450">
        <ele>526.2</ele>
        <time>2020-10-12T10:28:31Z</time>
      </trkpt>
      <trkpt lat="38.4893590" lon="-0.7603800">
        <ele>525.1</ele>
        <time>2020-10-12T10:28:33Z</time>
      </trkpt>
      <trkpt lat="38.4893180" lon="-0.7606260">
        <ele>524.0</ele>
        <time>2020-10-12T10:28:35Z</time>
      </trkpt>
      <trkpt lat="38.4892710" lon="-0.7608960">
        <ele>522.9</ele>
        <time>2020-10-12T10:28:37Z</time>
      </trkpt>
      <trkpt lat="38.4892310" lon="-0.7611620">
        <ele>522.1</ele>
        <time>2020-10-12T10:28:39Z</time>
      </trkpt>
      <trkpt lat="38.4891990" lon="-0.7614220">
        <ele>521.6</ele>
        <time>2020-10-12T10:28:41Z</time>
      </trkpt>
      <trkpt lat="38.4891720" lon="-0.7616650">
        <ele>521.2</ele>
        <time>2020-10-12T10:28:43Z</time>
      </trkpt>
      <trkpt lat="38.4891720" lon="-0.7619970">
        <ele>520.6</ele>
        <time>2020-10-12T10:28:46Z</time>
      </trkpt>
      <trkpt lat="38.4892100" lon="-0.7623060">
        <ele>520.3</ele>
        <time>2020-10-12T10:28:49Z</time>
      </trkpt>
      <trkpt lat="38.4892490" lon="-0.7626180">
        <ele>520.0</ele>
        <time>2020-10-12T10:28:52Z</time>
      </trkpt>
      <trkpt lat="38.4893070" lon="-0.7629260">
        <ele>519.7</ele>
        <time>2020-10-12T10:28:55Z</time>
      </trkpt>
      <trkpt lat="38.4893890" lon="-0.7632280">
        <ele>519.6</ele>
        <time>2020-10-12T10:28:58Z</time>
      </trkpt>
      <trkpt lat="38.4894370" lon="-0.7635440">
        <ele>519.2</ele>
        <time>2020-10-12T10:29:01Z</time>
      </trkpt>
      <trkpt lat="38.4893710" lon="-0.7638410">
        <ele>518.1</ele>
        <time>2020-10-12T10:29:04Z</time>
      </trkpt>
      <trkpt lat="38.4892020" lon="-0.7640500">
        <ele>516.6</ele>
        <time>2020-10-12T10:29:07Z</time>
      </trkpt>
      <trkpt lat="38.4890340" lon="-0.7641610">
        <ele>515.2</ele>
        <time>2020-10-12T10:29:09Z</time>
      </trkpt>
      <trkpt lat="38.4889010" lon="-0.7643560">
        <ele>513.9</ele>
        <time>2020-10-12T10:29:11Z</time>
      </trkpt>
      <trkpt lat="38.4888420" lon="-0.7645890">
        <ele>512.5</ele>
        <time>2020-10-12T10:29:13Z</time>
      </trkpt>
      <trkpt lat="38.4889110" lon="-0.7648240">
        <ele>511.1</ele>
        <time>2020-10-12T10:29:15Z</time>
      </trkpt>
      <trkpt lat="38.4889920" lon="-0.7650360">
        <ele>509.8</ele>
        <time>2020-10-12T10:29:17Z</time>
      </trkpt>
      <trkpt lat="38.4890150" lon="-0.7653760">
        <ele>508.0</ele>
        <time>2020-10-12T10:29:20Z</time>
      </trkpt>
      <trkpt lat="38.4889560" lon="-0.7656960">
        <ele>505.9</ele>
        <time>2020-10-12T10:29:23Z</time>
      </trkpt>
      <trkpt lat="38.4889120" lon="-0.7659630">
        <ele>504.3</ele>
        <time>2020-10-12T10:29:26Z</time>
      </trkpt>
      <trkpt lat="38.4888800" lon="-0.7661920">
        <ele>501.9</ele>
        <time>2020-10-12T10:29:31Z</time>
      </trkpt>
      <trkpt lat="38.4886870" lon="-0.7660410">
        <ele>500.8</ele>
        <time>2020-10-12T10:29:35Z</time>
      </trkpt>
      <trkpt lat="38.4885290" lon="-0.7658130">
        <ele>499.5</ele>
        <time>2020-10-12T10:29:38Z</time>
      </trkpt>
      <trkpt lat="38.4883580" lon="-0.7655840">
        <ele>498.0</ele>
        <time>2020-10-12T10:29:41Z</time>
      </trkpt>
      <trkpt lat="38.4881920" lon="-0.7653770">
        <ele>496.1</ele>
        <time>2020-10-12T10:29:44Z</time>
      </trkpt>
      <trkpt lat="38.4880600" lon="-0.7651800">
        <ele>494.2</ele>
        <time>2020-10-12T10:29:47Z</time>
      </trkpt>
      <trkpt lat="38.4879780" lon="-0.7648740">
        <ele>491.9</ele>
        <time>2020-10-12T10:29:50Z</time>
      </trkpt>
      <trkpt lat="38.4878650" lon="-0.7646240">
        <ele>491.1</ele>
        <time>2020-10-12T10:29:53Z</time>
      </trkpt>
      <trkpt lat="38.4877400" lon="-0.7644010">
        <ele>489.4</ele>
        <time>2020-10-12T10:29:56Z</time>
      </trkpt>
      <trkpt lat="38.4876430" lon="-0.7642040">
        <ele>487.4</ele>
        <time>2020-10-12T10:29:59Z</time>
      </trkpt>
      <trkpt lat="38.4875630" lon="-0.7639970">
        <ele>484.5</ele>
        <time>2020-10-12T10:30:03Z</time>
      </trkpt>
      <trkpt lat="38.4873970" lon="-0.7638140">
        <ele>479.2</ele>
        <time>2020-10-12T10:30:09Z</time>
      </trkpt>
      <trkpt lat="38.4872110" lon="-0.7636930">
        <ele>473.9</ele>
        <time>2020-10-12T10:30:13Z</time>
      </trkpt>
      <trkpt lat="38.4871030" lon="-0.7634730">
        <ele>469.0</ele>
        <time>2020-10-12T10:30:19Z</time>
      </trkpt>
      <trkpt lat="38.4869090" lon="-0.7635320">
        <ele>466.2</ele>
        <time>2020-10-12T10:30:25Z</time>
      </trkpt>
      <trkpt lat="38.4867610" lon="-0.7636970">
        <ele>465.2</ele>
        <time>2020-10-12T10:30:28Z</time>
      </trkpt>
      <trkpt lat="38.4867180" lon="-0.7639600">
        <ele>465.6</ele>
        <time>2020-10-12T10:30:32Z</time>
      </trkpt>
      <trkpt lat="38.4865760" lon="-0.7641430">
        <ele>466.8</ele>
        <time>2020-10-12T10:30:37Z</time>
      </trkpt>
      <trkpt lat="38.4864320" lon="-0.7643180">
        <ele>468.4</ele>
        <time>2020-10-12T10:30:42Z</time>
      </trkpt>
      <trkpt lat="38.4863070" lon="-0.7645150">
        <ele>470.2</ele>
        <time>2020-10-12T10:30:49Z</time>
      </trkpt>
      <trkpt lat="38.4861610" lon="-0.7646700">
        <ele>472.2</ele>
        <time>2020-10-12T10:30:54Z</time>
      </trkpt>
      <trkpt lat="38.4860300" lon="-0.7648560">
        <ele>474.2</ele>
        <time>2020-10-12T10:30:59Z</time>
      </trkpt>
      <trkpt lat="38.4859360" lon="-0.7650580">
        <ele>475.7</ele>
        <time>2020-10-12T10:31:04Z</time>
      </trkpt>
      <trkpt lat="38.4857760" lon="-0.7651640">
        <ele>476.6</ele>
        <time>2020-10-12T10:31:21Z</time>
      </trkpt>
      <trkpt lat="38.4856160" lon="-0.7653080">
        <ele>477.8</ele>
        <time>2020-10-12T10:34:02Z</time>
      </trkpt>
      <trkpt lat="38.4854100" lon="-0.7653500">
        <ele>481.1</ele>
        <time>2020-10-12T10:34:08Z</time>
      </trkpt>
      <trkpt lat="38.4852220" lon="-0.7653410">
        <ele>484.2</ele>
        <time>2020-10-12T10:34:15Z</time>
      </trkpt>
      <trkpt lat="38.4850480" lon="-0.7652610">
        <ele>486.2</ele>
        <time>2020-10-12T10:34:29Z</time>
      </trkpt>
      <trkpt lat="38.4848800" lon="-0.7651760">
        <ele>487.1</ele>
        <time>2020-10-12T10:34:36Z</time>
      </trkpt>
      <trkpt lat="38.4846890" lon="-0.7650510">
        <ele>488.8</ele>
        <time>2020-10-12T10:34:41Z</time>
      </trkpt>
      <trkpt lat="38.4845260" lon="-0.7649350">
        <ele>490.5</ele>
        <time>2020-10-12T10:34:47Z</time>
      </trkpt>
      <trkpt lat="38.4843510" lon="-0.7648350">
        <ele>492.3</ele>
        <time>2020-10-12T10:34:55Z</time>
      </trkpt>
      <trkpt lat="38.4841830" lon="-0.7647420">
        <ele>494.0</ele>
        <time>2020-10-12T10:35:01Z</time>
      </trkpt>
      <trkpt lat="38.4840010" lon="-0.7646390">
        <ele>495.2</ele>
        <time>2020-10-12T10:35:10Z</time>
      </trkpt>
      <trkpt lat="38.4838270" lon="-0.7647030">
        <ele>495.5</ele>
        <time>2020-10-12T10:35:18Z</time>
      </trkpt>
      <trkpt lat="38.4836680" lon="-0.7648220">
        <ele>495.0</ele>
        <time>2020-10-12T10:35:23Z</time>
      </trkpt>
      <trkpt lat="38.4835650" lon="-0.7650750">
        <ele>494.0</ele>
        <time>2020-10-12T10:35:28Z</time>
      </trkpt>
      <trkpt lat="38.4835050" lon="-0.7653730">
        <ele>491.9</ele>
        <time>2020-10-12T10:35:32Z</time>
      </trkpt>
      <trkpt lat="38.4834980" lon="-0.7656630">
        <ele>489.8</ele>
        <time>2020-10-12T10:35:35Z</time>
      </trkpt>
      <trkpt lat="38.4834890" lon="-0.7659390">
        <ele>487.7</ele>
        <time>2020-10-12T10:35:38Z</time>
      </trkpt>
      <trkpt lat="38.4834100" lon="-0.7662130">
        <ele>485.4</ele>
        <time>2020-10-12T10:35:41Z</time>
      </trkpt>
      <trkpt lat="38.4832180" lon="-0.7663950">
        <ele>483.2</ele>
        <time>2020-10-12T10:35:44Z</time>
      </trkpt>
      <trkpt lat="38.4830570" lon="-0.7665050">
        <ele>481.6</ele>
        <time>2020-10-12T10:35:47Z</time>
      </trkpt>
      <trkpt lat="38.4828840" lon="-0.7666410">
        <ele>479.9</ele>
        <time>2020-10-12T10:35:54Z</time>
      </trkpt>
      <trkpt lat="38.4826880" lon="-0.7668090">
        <ele>478.6</ele>
        <time>2020-10-12T10:35:59Z</time>
      </trkpt>
      <trkpt lat="38.4825260" lon="-0.7669360">
        <ele>477.0</ele>
        <time>2020-10-12T10:36:02Z</time>
      </trkpt>
      <trkpt lat="38.4823370" lon="-0.7670840">
        <ele>475.1</ele>
        <time>2020-10-12T10:36:05Z</time>
      </trkpt>
      <trkpt lat="38.4821430" lon="-0.7672230">
        <ele>473.9</ele>
        <time>2020-10-12T10:36:08Z</time>
      </trkpt>
      <trkpt lat="38.4819600" lon="-0.7673690">
        <ele>472.8</ele>
        <time>2020-10-12T10:36:11Z</time>
      </trkpt>
      <trkpt lat="38.4817560" lon="-0.7675210">
        <ele>471.8</ele>
        <time>2020-10-12T10:36:14Z</time>
      </trkpt>
      <trkpt lat="38.4815430" lon="-0.7676860">
        <ele>470.7</ele>
        <time>2020-10-12T10:36:17Z</time>
      </trkpt>
      <trkpt lat="38.4813290" lon="-0.7678810">
        <ele>469.3</ele>
        <time>2020-10-12T10:36:20Z</time>
      </trkpt>
      <trkpt lat="38.4811000" lon="-0.7680510">
        <ele>468.0</ele>
        <time>2020-10-12T10:36:23Z</time>
      </trkpt>
      <trkpt lat="38.4808690" lon="-0.7682160">
        <ele>466.6</ele>
        <time>2020-10-12T10:36:26Z</time>
      </trkpt>
      <trkpt lat="38.4806420" lon="-0.7683770">
        <ele>465.4</ele>
        <time>2020-10-12T10:36:29Z</time>
      </trkpt>
      <trkpt lat="38.4804090" lon="-0.7685440">
        <ele>464.2</ele>
        <time>2020-10-12T10:36:32Z</time>
      </trkpt>
      <trkpt lat="38.4801950" lon="-0.7687130">
        <ele>463.6</ele>
        <time>2020-10-12T10:36:35Z</time>
      </trkpt>
      <trkpt lat="38.4800220" lon="-0.7689180">
        <ele>462.9</ele>
        <time>2020-10-12T10:36:38Z</time>
      </trkpt>
      <trkpt lat="38.4799120" lon="-0.7691930">
        <ele>462.2</ele>
        <time>2020-10-12T10:36:41Z</time>
      </trkpt>
      <trkpt lat="38.4797950" lon="-0.7694810">
        <ele>461.3</ele>
        <time>2020-10-12T10:36:44Z</time>
      </trkpt>
      <trkpt lat="38.4796740" lon="-0.7697640">
        <ele>459.6</ele>
        <time>2020-10-12T10:36:47Z</time>
      </trkpt>
      <trkpt lat="38.4795770" lon="-0.7699630">
        <ele>458.2</ele>
        <time>2020-10-12T10:36:49Z</time>
      </trkpt>
      <trkpt lat="38.4794630" lon="-0.7701870">
        <ele>456.6</ele>
        <time>2020-10-12T10:36:52Z</time>
      </trkpt>
      <trkpt lat="38.4793280" lon="-0.7703460">
        <ele>455.7</ele>
        <time>2020-10-12T10:36:58Z</time>
      </trkpt>
      <trkpt lat="38.4790650" lon="-0.7702290">
        <ele>455.5</ele>
        <time>2020-10-12T10:37:02Z</time>
      </trkpt>
      <trkpt lat="38.4788910" lon="-0.7701590">
        <ele>455.2</ele>
        <time>2020-10-12T10:37:04Z</time>
      </trkpt>
      <trkpt lat="38.4786770" lon="-0.7701160">
        <ele>455.0</ele>
        <time>2020-10-12T10:37:08Z</time>
      </trkpt>
      <trkpt lat="38.4784890" lon="-0.7700750">
        <ele>455.0</ele>
        <time>2020-10-12T10:37:11Z</time>
      </trkpt>
      <trkpt lat="38.4783060" lon="-0.7700950">
        <ele>455.2</ele>
        <time>2020-10-12T10:37:16Z</time>
      </trkpt>
      <trkpt lat="38.4783100" lon="-0.7703930">
        <ele>454.7</ele>
        <time>2020-10-12T10:37:19Z</time>
      </trkpt>
      <trkpt lat="38.4782760" lon="-0.7706750">
        <ele>453.1</ele>
        <time>2020-10-12T10:37:22Z</time>
      </trkpt>
      <trkpt lat="38.4780980" lon="-0.7708140">
        <ele>452.0</ele>
        <time>2020-10-12T10:37:31Z</time>
      </trkpt>
      <trkpt lat="38.4779160" lon="-0.7707970">
        <ele>452.1</ele>
        <time>2020-10-12T10:37:36Z</time>
      </trkpt>
      <trkpt lat="38.4776980" lon="-0.7707890">
        <ele>452.1</ele>
        <time>2020-10-12T10:37:41Z</time>
      </trkpt>
      <trkpt lat="38.4774400" lon="-0.7708170">
        <ele>452.0</ele>
        <time>2020-10-12T10:37:44Z</time>
      </trkpt>
      <trkpt lat="38.4772560" lon="-0.7708430">
        <ele>451.9</ele>
        <time>2020-10-12T10:37:46Z</time>
      </trkpt>
      <trkpt lat="38.4770720" lon="-0.7708880">
        <ele>451.9</ele>
        <time>2020-10-12T10:37:49Z</time>
      </trkpt>
      <trkpt lat="38.4768360" lon="-0.7709400">
        <ele>451.7</ele>
        <time>2020-10-12T10:37:53Z</time>
      </trkpt>
      <trkpt lat="38.4766220" lon="-0.7710000">
        <ele>451.5</ele>
        <time>2020-10-12T10:37:56Z</time>
      </trkpt>
      <trkpt lat="38.4764220" lon="-0.7710750">
        <ele>451.3</ele>
        <time>2020-10-12T10:37:59Z</time>
      </trkpt>
      <trkpt lat="38.4762120" lon="-0.7710740">
        <ele>451.2</ele>
        <time>2020-10-12T10:38:02Z</time>
      </trkpt>
      <trkpt lat="38.4760170" lon="-0.7711290">
        <ele>450.9</ele>
        <time>2020-10-12T10:38:05Z</time>
      </trkpt>
      <trkpt lat="38.4758080" lon="-0.7712040">
        <ele>450.4</ele>
        <time>2020-10-12T10:38:08Z</time>
      </trkpt>
      <trkpt lat="38.4755790" lon="-0.7712420">
        <ele>449.9</ele>
        <time>2020-10-12T10:38:11Z</time>
      </trkpt>
      <trkpt lat="38.4753320" lon="-0.7712810">
        <ele>449.2</ele>
        <time>2020-10-12T10:38:14Z</time>
      </trkpt>
      <trkpt lat="38.4750960" lon="-0.7713370">
        <ele>448.5</ele>
        <time>2020-10-12T10:38:17Z</time>
      </trkpt>
      <trkpt lat="38.4748480" lon="-0.7713960">
        <ele>447.9</ele>
        <time>2020-10-12T10:38:20Z</time>
      </trkpt>
      <trkpt lat="38.4745910" lon="-0.7714380">
        <ele>447.4</ele>
        <time>2020-10-12T10:38:23Z</time>
      </trkpt>
      <trkpt lat="38.4743270" lon="-0.7714710">
        <ele>446.6</ele>
        <time>2020-10-12T10:38:26Z</time>
      </trkpt>
      <trkpt lat="38.4740780" lon="-0.7715300">
        <ele>445.6</ele>
        <time>2020-10-12T10:38:29Z</time>
      </trkpt>
      <trkpt lat="38.4738600" lon="-0.7715970">
        <ele>445.2</ele>
        <time>2020-10-12T10:38:32Z</time>
      </trkpt>
      <trkpt lat="38.4736550" lon="-0.7717460">
        <ele>444.6</ele>
        <time>2020-10-12T10:38:35Z</time>
      </trkpt>
      <trkpt lat="38.4734200" lon="-0.7718740">
        <ele>443.9</ele>
        <time>2020-10-12T10:38:38Z</time>
      </trkpt>
      <trkpt lat="38.4732000" lon="-0.7720100">
        <ele>444.1</ele>
        <time>2020-10-12T10:38:41Z</time>
      </trkpt>
      <trkpt lat="38.4729900" lon="-0.7721590">
        <ele>444.1</ele>
        <time>2020-10-12T10:38:44Z</time>
      </trkpt>
      <trkpt lat="38.4727950" lon="-0.7723500">
        <ele>444.1</ele>
        <time>2020-10-12T10:38:47Z</time>
      </trkpt>
      <trkpt lat="38.4725960" lon="-0.7725520">
        <ele>443.9</ele>
        <time>2020-10-12T10:38:50Z</time>
      </trkpt>
      <trkpt lat="38.4724780" lon="-0.7728020">
        <ele>443.3</ele>
        <time>2020-10-12T10:38:53Z</time>
      </trkpt>
      <trkpt lat="38.4723280" lon="-0.7730320">
        <ele>442.6</ele>
        <time>2020-10-12T10:38:56Z</time>
      </trkpt>
      <trkpt lat="38.4721550" lon="-0.7731590">
        <ele>441.9</ele>
        <time>2020-10-12T10:38:58Z</time>
      </trkpt>
      <trkpt lat="38.4719550" lon="-0.7732670">
        <ele>441.1</ele>
        <time>2020-10-12T10:39:00Z</time>
      </trkpt>
      <trkpt lat="38.4717570" lon="-0.7733830">
        <ele>440.1</ele>
        <time>2020-10-12T10:39:02Z</time>
      </trkpt>
      <trkpt lat="38.4715560" lon="-0.7735280">
        <ele>438.9</ele>
        <time>2020-10-12T10:39:04Z</time>
      </trkpt>
      <trkpt lat="38.4713480" lon="-0.7736900">
        <ele>437.7</ele>
        <time>2020-10-12T10:39:06Z</time>
      </trkpt>
      <trkpt lat="38.4711420" lon="-0.7738020">
        <ele>436.7</ele>
        <time>2020-10-12T10:39:08Z</time>
      </trkpt>
      <trkpt lat="38.4709180" lon="-0.7739020">
        <ele>435.6</ele>
        <time>2020-10-12T10:39:10Z</time>
      </trkpt>
      <trkpt lat="38.4707120" lon="-0.7740090">
        <ele>434.6</ele>
        <time>2020-10-12T10:39:12Z</time>
      </trkpt>
      <trkpt lat="38.4705110" lon="-0.7741280">
        <ele>433.7</ele>
        <time>2020-10-12T10:39:14Z</time>
      </trkpt>
      <trkpt lat="38.4703060" lon="-0.7742520">
        <ele>432.8</ele>
        <time>2020-10-12T10:39:16Z</time>
      </trkpt>
      <trkpt lat="38.4701110" lon="-0.7743810">
        <ele>432.0</ele>
        <time>2020-10-12T10:39:18Z</time>
      </trkpt>
      <trkpt lat="38.4699060" lon="-0.7744670">
        <ele>431.2</ele>
        <time>2020-10-12T10:39:20Z</time>
      </trkpt>
      <trkpt lat="38.4697160" lon="-0.7745590">
        <ele>430.6</ele>
        <time>2020-10-12T10:39:22Z</time>
      </trkpt>
      <trkpt lat="38.4695320" lon="-0.7746820">
        <ele>430.0</ele>
        <time>2020-10-12T10:39:24Z</time>
      </trkpt>
      <trkpt lat="38.4692930" lon="-0.7747920">
        <ele>429.1</ele>
        <time>2020-10-12T10:39:26Z</time>
      </trkpt>
      <trkpt lat="38.4690770" lon="-0.7748910">
        <ele>428.4</ele>
        <time>2020-10-12T10:39:28Z</time>
      </trkpt>
      <trkpt lat="38.4688940" lon="-0.7749990">
        <ele>427.7</ele>
        <time>2020-10-12T10:39:30Z</time>
      </trkpt>
      <trkpt lat="38.4687530" lon="-0.7751590">
        <ele>427.3</ele>
        <time>2020-10-12T10:39:32Z</time>
      </trkpt>
      <trkpt lat="38.4685970" lon="-0.7753310">
        <ele>426.8</ele>
        <time>2020-10-12T10:39:34Z</time>
      </trkpt>
      <trkpt lat="38.4683930" lon="-0.7754030">
        <ele>426.4</ele>
        <time>2020-10-12T10:39:36Z</time>
      </trkpt>
      <trkpt lat="38.4681170" lon="-0.7754380">
        <ele>426.0</ele>
        <time>2020-10-12T10:39:38Z</time>
      </trkpt>
      <trkpt lat="38.4678840" lon="-0.7755140">
        <ele>425.7</ele>
        <time>2020-10-12T10:39:40Z</time>
      </trkpt>
      <trkpt lat="38.4676880" lon="-0.7756050">
        <ele>425.4</ele>
        <time>2020-10-12T10:39:42Z</time>
      </trkpt>
      <trkpt lat="38.4674870" lon="-0.7756930">
        <ele>425.2</ele>
        <time>2020-10-12T10:39:44Z</time>
      </trkpt>
      <trkpt lat="38.4672920" lon="-0.7757700">
        <ele>424.9</ele>
        <time>2020-10-12T10:39:46Z</time>
      </trkpt>
      <trkpt lat="38.4670740" lon="-0.7758510">
        <ele>424.7</ele>
        <time>2020-10-12T10:39:48Z</time>
      </trkpt>
      <trkpt lat="38.4668750" lon="-0.7759640">
        <ele>424.4</ele>
        <time>2020-10-12T10:39:50Z</time>
      </trkpt>
      <trkpt lat="38.4667050" lon="-0.7760800">
        <ele>424.2</ele>
        <time>2020-10-12T10:39:52Z</time>
      </trkpt>
      <trkpt lat="38.4665030" lon="-0.7761900">
        <ele>424.0</ele>
        <time>2020-10-12T10:39:54Z</time>
      </trkpt>
      <trkpt lat="38.4663000" lon="-0.7762910">
        <ele>423.9</ele>
        <time>2020-10-12T10:39:56Z</time>
      </trkpt>
      <trkpt lat="38.4661190" lon="-0.7763860">
        <ele>423.7</ele>
        <time>2020-10-12T10:39:58Z</time>
      </trkpt>
      <trkpt lat="38.4659330" lon="-0.7764760">
        <ele>423.5</ele>
        <time>2020-10-12T10:40:00Z</time>
      </trkpt>
      <trkpt lat="38.4657620" lon="-0.7765790">
        <ele>423.2</ele>
        <time>2020-10-12T10:40:02Z</time>
      </trkpt>
      <trkpt lat="38.4655520" lon="-0.7766960">
        <ele>423.1</ele>
        <time>2020-10-12T10:40:04Z</time>
      </trkpt>
      <trkpt lat="38.4653340" lon="-0.7767940">
        <ele>422.9</ele>
        <time>2020-10-12T10:40:06Z</time>
      </trkpt>
      <trkpt lat="38.4651200" lon="-0.7769500">
        <ele>422.6</ele>
        <time>2020-10-12T10:40:09Z</time>
      </trkpt>
      <trkpt lat="38.4649150" lon="-0.7770980">
        <ele>422.5</ele>
        <time>2020-10-12T10:40:12Z</time>
      </trkpt>
      <trkpt lat="38.4647360" lon="-0.7772570">
        <ele>422.3</ele>
        <time>2020-10-12T10:40:15Z</time>
      </trkpt>
      <trkpt lat="38.4646850" lon="-0.7775120">
        <ele>420.9</ele>
        <time>2020-10-12T10:40:18Z</time>
      </trkpt>
      <trkpt lat="38.4647220" lon="-0.7777440">
        <ele>420.0</ele>
        <time>2020-10-12T10:40:20Z</time>
      </trkpt>
      <trkpt lat="38.4647340" lon="-0.7780850">
        <ele>418.8</ele>
        <time>2020-10-12T10:40:23Z</time>
      </trkpt>
      <trkpt lat="38.4647220" lon="-0.7783640">
        <ele>417.7</ele>
        <time>2020-10-12T10:40:25Z</time>
      </trkpt>
      <trkpt lat="38.4647140" lon="-0.7786330">
        <ele>416.2</ele>
        <time>2020-10-12T10:40:27Z</time>
      </trkpt>
      <trkpt lat="38.4647170" lon="-0.7789150">
        <ele>415.0</ele>
        <time>2020-10-12T10:40:29Z</time>
      </trkpt>
      <trkpt lat="38.4647130" lon="-0.7791610">
        <ele>414.1</ele>
        <time>2020-10-12T10:40:31Z</time>
      </trkpt>
      <trkpt lat="38.4646970" lon="-0.7794260">
        <ele>413.0</ele>
        <time>2020-10-12T10:40:34Z</time>
      </trkpt>
      <trkpt lat="38.4645780" lon="-0.7796640">
        <ele>412.1</ele>
        <time>2020-10-12T10:40:38Z</time>
      </trkpt>
      <trkpt lat="38.4643720" lon="-0.7797680">
        <ele>411.7</ele>
        <time>2020-10-12T10:40:41Z</time>
      </trkpt>
      <trkpt lat="38.4641580" lon="-0.7798420">
        <ele>411.3</ele>
        <time>2020-10-12T10:40:44Z</time>
      </trkpt>
      <trkpt lat="38.4639520" lon="-0.7799050">
        <ele>411.2</ele>
        <time>2020-10-12T10:40:47Z</time>
      </trkpt>
      <trkpt lat="38.4637720" lon="-0.7799730">
        <ele>411.1</ele>
        <time>2020-10-12T10:40:50Z</time>
      </trkpt>
      <trkpt lat="38.4635850" lon="-0.7800450">
        <ele>411.0</ele>
        <time>2020-10-12T10:40:53Z</time>
      </trkpt>
      <trkpt lat="38.4633760" lon="-0.7801530">
        <ele>411.0</ele>
        <time>2020-10-12T10:40:57Z</time>
      </trkpt>
      <trkpt lat="38.4632880" lon="-0.7803570">
        <ele>410.6</ele>
        <time>2020-10-12T10:41:00Z</time>
      </trkpt>
      <trkpt lat="38.4631040" lon="-0.7804540">
        <ele>410.1</ele>
        <time>2020-10-12T10:41:03Z</time>
      </trkpt>
      <trkpt lat="38.4629100" lon="-0.7803860">
        <ele>410.0</ele>
        <time>2020-10-12T10:41:06Z</time>
      </trkpt>
      <trkpt lat="38.4626660" lon="-0.7804730">
        <ele>409.1</ele>
        <time>2020-10-12T10:41:10Z</time>
      </trkpt>
      <trkpt lat="38.4624340" lon="-0.7805440">
        <ele>408.0</ele>
        <time>2020-10-12T10:41:13Z</time>
      </trkpt>
      <trkpt lat="38.4622010" lon="-0.7806330">
        <ele>407.1</ele>
        <time>2020-10-12T10:41:16Z</time>
      </trkpt>
      <trkpt lat="38.4619920" lon="-0.7807340">
        <ele>406.4</ele>
        <time>2020-10-12T10:41:19Z</time>
      </trkpt>
      <trkpt lat="38.4617870" lon="-0.7808350">
        <ele>405.7</ele>
        <time>2020-10-12T10:41:22Z</time>
      </trkpt>
      <trkpt lat="38.4615330" lon="-0.7809270">
        <ele>405.1</ele>
        <time>2020-10-12T10:41:25Z</time>
      </trkpt>
      <trkpt lat="38.4612920" lon="-0.7810190">
        <ele>404.7</ele>
        <time>2020-10-12T10:41:28Z</time>
      </trkpt>
      <trkpt lat="38.4610550" lon="-0.7811020">
        <ele>404.3</ele>
        <time>2020-10-12T10:41:31Z</time>
      </trkpt>
      <trkpt lat="38.4608200" lon="-0.7811760">
        <ele>403.9</ele>
        <time>2020-10-12T10:41:34Z</time>
      </trkpt>
      <trkpt lat="38.4605620" lon="-0.7812220">
        <ele>403.6</ele>
        <time>2020-10-12T10:41:37Z</time>
      </trkpt>
      <trkpt lat="38.4602010" lon="-0.7813060">
        <ele>403.2</ele>
        <time>2020-10-12T10:41:40Z</time>
      </trkpt>
      <trkpt lat="38.4599340" lon="-0.7813430">
        <ele>402.9</ele>
        <time>2020-10-12T10:41:45Z</time>
      </trkpt>
      <trkpt lat="38.4597510" lon="-0.7813940">
        <ele>402.7</ele>
        <time>2020-10-12T10:41:47Z</time>
      </trkpt>
      <trkpt lat="38.4595290" lon="-0.7814440">
        <ele>402.7</ele>
        <time>2020-10-12T10:41:50Z</time>
      </trkpt>
      <trkpt lat="38.4593340" lon="-0.7814930">
        <ele>402.7</ele>
        <time>2020-10-12T10:41:53Z</time>
      </trkpt>
      <trkpt lat="38.4591390" lon="-0.7815630">
        <ele>402.7</ele>
        <time>2020-10-12T10:41:56Z</time>
      </trkpt>
      <trkpt lat="38.4590420" lon="-0.7817670">
        <ele>402.6</ele>
        <time>2020-10-12T10:42:02Z</time>
      </trkpt>
      <trkpt lat="38.4590520" lon="-0.7820560">
        <ele>402.3</ele>
        <time>2020-10-12T10:42:08Z</time>
      </trkpt>
      <trkpt lat="38.4589040" lon="-0.7822180">
        <ele>401.7</ele>
        <time>2020-10-12T10:42:12Z</time>
      </trkpt>
      <trkpt lat="38.4587160" lon="-0.7822300">
        <ele>401.4</ele>
        <time>2020-10-12T10:42:15Z</time>
      </trkpt>
      <trkpt lat="38.4585350" lon="-0.7823350">
        <ele>400.8</ele>
        <time>2020-10-12T10:42:18Z</time>
      </trkpt>
      <trkpt lat="38.4584000" lon="-0.7825530">
        <ele>400.1</ele>
        <time>2020-10-12T10:42:21Z</time>
      </trkpt>
      <trkpt lat="38.4582770" lon="-0.7827740">
        <ele>399.2</ele>
        <time>2020-10-12T10:42:24Z</time>
      </trkpt>
      <trkpt lat="38.4581700" lon="-0.7829930">
        <ele>398.8</ele>
        <time>2020-10-12T10:42:27Z</time>
      </trkpt>
      <trkpt lat="38.4580250" lon="-0.7832370">
        <ele>398.1</ele>
        <time>2020-10-12T10:42:30Z</time>
      </trkpt>
      <trkpt lat="38.4578720" lon="-0.7834880">
        <ele>397.3</ele>
        <time>2020-10-12T10:42:33Z</time>
      </trkpt>
      <trkpt lat="38.4577230" lon="-0.7837280">
        <ele>396.4</ele>
        <time>2020-10-12T10:42:36Z</time>
      </trkpt>
      <trkpt lat="38.4575590" lon="-0.7839560">
        <ele>395.5</ele>
        <time>2020-10-12T10:42:39Z</time>
      </trkpt>
      <trkpt lat="38.4573430" lon="-0.7841290">
        <ele>394.9</ele>
        <time>2020-10-12T10:42:42Z</time>
      </trkpt>
      <trkpt lat="38.4570900" lon="-0.7842340">
        <ele>394.2</ele>
        <time>2020-10-12T10:42:45Z</time>
      </trkpt>
      <trkpt lat="38.4568290" lon="-0.7842860">
        <ele>393.6</ele>
        <time>2020-10-12T10:42:48Z</time>
      </trkpt>
      <trkpt lat="38.4565710" lon="-0.7843090">
        <ele>393.5</ele>
        <time>2020-10-12T10:42:51Z</time>
      </trkpt>
      <trkpt lat="38.4563540" lon="-0.7843010">
        <ele>394.3</ele>
        <time>2020-10-12T10:42:54Z</time>
      </trkpt>
      <trkpt lat="38.4561510" lon="-0.7842830">
        <ele>395.1</ele>
        <time>2020-10-12T10:42:57Z</time>
      </trkpt>
      <trkpt lat="38.4559280" lon="-0.7842360">
        <ele>395.7</ele>
        <time>2020-10-12T10:43:01Z</time>
      </trkpt>
      <trkpt lat="38.4557230" lon="-0.7842660">
        <ele>396.5</ele>
        <time>2020-10-12T10:43:06Z</time>
      </trkpt>
      <trkpt lat="38.4555690" lon="-0.7844920">
        <ele>397.6</ele>
        <time>2020-10-12T10:43:11Z</time>
      </trkpt>
      <trkpt lat="38.4555990" lon="-0.7847730">
        <ele>397.3</ele>
        <time>2020-10-12T10:43:15Z</time>
      </trkpt>
      <trkpt lat="38.4556790" lon="-0.7850170">
        <ele>396.5</ele>
        <time>2020-10-12T10:43:18Z</time>
      </trkpt>
      <trkpt lat="38.4557350" lon="-0.7852900">
        <ele>395.5</ele>
        <time>2020-10-12T10:43:21Z</time>
      </trkpt>
      <trkpt lat="38.4557850" lon="-0.7855990">
        <ele>394.5</ele>
        <time>2020-10-12T10:43:24Z</time>
      </trkpt>
      <trkpt lat="38.4558140" lon="-0.7859340">
        <ele>393.3</ele>
        <time>2020-10-12T10:43:27Z</time>
      </trkpt>
      <trkpt lat="38.4558170" lon="-0.7861830">
        <ele>392.2</ele>
        <time>2020-10-12T10:43:29Z</time>
      </trkpt>
      <trkpt lat="38.4558170" lon="-0.7864330">
        <ele>391.1</ele>
        <time>2020-10-12T10:43:31Z</time>
      </trkpt>
      <trkpt lat="38.4558060" lon="-0.7866780">
        <ele>390.0</ele>
        <time>2020-10-12T10:43:33Z</time>
      </trkpt>
      <trkpt lat="38.4557960" lon="-0.7869250">
        <ele>388.9</ele>
        <time>2020-10-12T10:43:35Z</time>
      </trkpt>
      <trkpt lat="38.4557820" lon="-0.7871950">
        <ele>387.7</ele>
        <time>2020-10-12T10:43:37Z</time>
      </trkpt>
      <trkpt lat="38.4557590" lon="-0.7874750">
        <ele>386.4</ele>
        <time>2020-10-12T10:43:39Z</time>
      </trkpt>
      <trkpt lat="38.4557370" lon="-0.7877640">
        <ele>385.0</ele>
        <time>2020-10-12T10:43:41Z</time>
      </trkpt>
      <trkpt lat="38.4557170" lon="-0.7880510">
        <ele>383.7</ele>
        <time>2020-10-12T10:43:43Z</time>
      </trkpt>
      <trkpt lat="38.4556910" lon="-0.7883440">
        <ele>382.3</ele>
        <time>2020-10-12T10:43:45Z</time>
      </trkpt>
      <trkpt lat="38.4556700" lon="-0.7886300">
        <ele>381.1</ele>
        <time>2020-10-12T10:43:47Z</time>
      </trkpt>
      <trkpt lat="38.4556500" lon="-0.7889230">
        <ele>379.7</ele>
        <time>2020-10-12T10:43:49Z</time>
      </trkpt>
      <trkpt lat="38.4556290" lon="-0.7892270">
        <ele>378.3</ele>
        <time>2020-10-12T10:43:51Z</time>
      </trkpt>
      <trkpt lat="38.4556050" lon="-0.7895360">
        <ele>376.9</ele>
        <time>2020-10-12T10:43:53Z</time>
      </trkpt>
      <trkpt lat="38.4555830" lon="-0.7898490">
        <ele>375.5</ele>
        <time>2020-10-12T10:43:55Z</time>
      </trkpt>
      <trkpt lat="38.4555560" lon="-0.7901730">
        <ele>374.0</ele>
        <time>2020-10-12T10:43:57Z</time>
      </trkpt>
      <trkpt lat="38.4555120" lon="-0.7904990">
        <ele>372.5</ele>
        <time>2020-10-12T10:43:59Z</time>
      </trkpt>
      <trkpt lat="38.4554560" lon="-0.7908250">
        <ele>371.0</ele>
        <time>2020-10-12T10:44:01Z</time>
      </trkpt>
      <trkpt lat="38.4553800" lon="-0.7911450">
        <ele>369.6</ele>
        <time>2020-10-12T10:44:03Z</time>
      </trkpt>
      <trkpt lat="38.4552880" lon="-0.7914630">
        <ele>368.3</ele>
        <time>2020-10-12T10:44:05Z</time>
      </trkpt>
      <trkpt lat="38.4551930" lon="-0.7917820">
        <ele>366.6</ele>
        <time>2020-10-12T10:44:07Z</time>
      </trkpt>
      <trkpt lat="38.4550810" lon="-0.7921000">
        <ele>365.0</ele>
        <time>2020-10-12T10:44:09Z</time>
      </trkpt>
      <trkpt lat="38.4549590" lon="-0.7924190">
        <ele>363.2</ele>
        <time>2020-10-12T10:44:11Z</time>
      </trkpt>
      <trkpt lat="38.4548270" lon="-0.7927420">
        <ele>361.4</ele>
        <time>2020-10-12T10:44:13Z</time>
      </trkpt>
      <trkpt lat="38.4547050" lon="-0.7930800">
        <ele>360.3</ele>
        <time>2020-10-12T10:44:15Z</time>
      </trkpt>
      <trkpt lat="38.4545880" lon="-0.7934040">
        <ele>359.4</ele>
        <time>2020-10-12T10:44:17Z</time>
      </trkpt>
      <trkpt lat="38.4544780" lon="-0.7937180">
        <ele>358.9</ele>
        <time>2020-10-12T10:44:19Z</time>
      </trkpt>
      <trkpt lat="38.4543690" lon="-0.7940230">
        <ele>358.8</ele>
        <time>2020-10-12T10:44:21Z</time>
      </trkpt>
      <trkpt lat="38.4542650" lon="-0.7943150">
        <ele>358.8</ele>
        <time>2020-10-12T10:44:23Z</time>
      </trkpt>
      <trkpt lat="38.4541630" lon="-0.7945950">
        <ele>358.6</ele>
        <time>2020-10-12T10:44:25Z</time>
      </trkpt>
      <trkpt lat="38.4540250" lon="-0.7948470">
        <ele>358.5</ele>
        <time>2020-10-12T10:44:27Z</time>
      </trkpt>
      <trkpt lat="38.4538900" lon="-0.7950940">
        <ele>358.6</ele>
        <time>2020-10-12T10:44:29Z</time>
      </trkpt>
      <trkpt lat="38.4537560" lon="-0.7953330">
        <ele>358.6</ele>
        <time>2020-10-12T10:44:31Z</time>
      </trkpt>
      <trkpt lat="38.4536090" lon="-0.7955620">
        <ele>358.6</ele>
        <time>2020-10-12T10:44:33Z</time>
      </trkpt>
      <trkpt lat="38.4534480" lon="-0.7957970">
        <ele>358.5</ele>
        <time>2020-10-12T10:44:35Z</time>
      </trkpt>
      <trkpt lat="38.4532820" lon="-0.7960210">
        <ele>358.4</ele>
        <time>2020-10-12T10:44:37Z</time>
      </trkpt>
      <trkpt lat="38.4531410" lon="-0.7962480">
        <ele>358.4</ele>
        <time>2020-10-12T10:44:39Z</time>
      </trkpt>
      <trkpt lat="38.4530020" lon="-0.7964770">
        <ele>358.2</ele>
        <time>2020-10-12T10:44:41Z</time>
      </trkpt>
      <trkpt lat="38.4528660" lon="-0.7966970">
        <ele>357.9</ele>
        <time>2020-10-12T10:44:43Z</time>
      </trkpt>
      <trkpt lat="38.4527250" lon="-0.7968990">
        <ele>357.8</ele>
        <time>2020-10-12T10:44:45Z</time>
      </trkpt>
      <trkpt lat="38.4525820" lon="-0.7971010">
        <ele>357.7</ele>
        <time>2020-10-12T10:44:47Z</time>
      </trkpt>
      <trkpt lat="38.4524500" lon="-0.7973000">
        <ele>357.6</ele>
        <time>2020-10-12T10:44:49Z</time>
      </trkpt>
      <trkpt lat="38.4523360" lon="-0.7975030">
        <ele>357.5</ele>
        <time>2020-10-12T10:44:51Z</time>
      </trkpt>
      <trkpt lat="38.4522140" lon="-0.7977140">
        <ele>357.1</ele>
        <time>2020-10-12T10:44:53Z</time>
      </trkpt>
      <trkpt lat="38.4520890" lon="-0.7979160">
        <ele>356.5</ele>
        <time>2020-10-12T10:44:55Z</time>
      </trkpt>
      <trkpt lat="38.4519560" lon="-0.7981340">
        <ele>355.8</ele>
        <time>2020-10-12T10:44:57Z</time>
      </trkpt>
      <trkpt lat="38.4518370" lon="-0.7983630">
        <ele>355.2</ele>
        <time>2020-10-12T10:44:59Z</time>
      </trkpt>
      <trkpt lat="38.4517320" lon="-0.7986130">
        <ele>354.5</ele>
        <time>2020-10-12T10:45:01Z</time>
      </trkpt>
      <trkpt lat="38.4516340" lon="-0.7988790">
        <ele>353.5</ele>
        <time>2020-10-12T10:45:03Z</time>
      </trkpt>
      <trkpt lat="38.4515300" lon="-0.7991540">
        <ele>352.4</ele>
        <time>2020-10-12T10:45:05Z</time>
      </trkpt>
      <trkpt lat="38.4514500" lon="-0.7994490">
        <ele>351.4</ele>
        <time>2020-10-12T10:45:07Z</time>
      </trkpt>
      <trkpt lat="38.4513800" lon="-0.7997460">
        <ele>350.1</ele>
        <time>2020-10-12T10:45:09Z</time>
      </trkpt>
      <trkpt lat="38.4513270" lon="-0.8000480">
        <ele>348.7</ele>
        <time>2020-10-12T10:45:11Z</time>
      </trkpt>
      <trkpt lat="38.4512800" lon="-0.8003490">
        <ele>347.5</ele>
        <time>2020-10-12T10:45:13Z</time>
      </trkpt>
      <trkpt lat="38.4512340" lon="-0.8006460">
        <ele>346.3</ele>
        <time>2020-10-12T10:45:15Z</time>
      </trkpt>
      <trkpt lat="38.4511890" lon="-0.8009380">
        <ele>345.3</ele>
        <time>2020-10-12T10:45:17Z</time>
      </trkpt>
      <trkpt lat="38.4511440" lon="-0.8012330">
        <ele>344.3</ele>
        <time>2020-10-12T10:45:19Z</time>
      </trkpt>
      <trkpt lat="38.4511050" lon="-0.8015290">
        <ele>343.5</ele>
        <time>2020-10-12T10:45:21Z</time>
      </trkpt>
      <trkpt lat="38.4510660" lon="-0.8018240">
        <ele>342.7</ele>
        <time>2020-10-12T10:45:23Z</time>
      </trkpt>
      <trkpt lat="38.4510180" lon="-0.8021210">
        <ele>342.2</ele>
        <time>2020-10-12T10:45:25Z</time>
      </trkpt>
      <trkpt lat="38.4509720" lon="-0.8024160">
        <ele>341.8</ele>
        <time>2020-10-12T10:45:27Z</time>
      </trkpt>
      <trkpt lat="38.4509280" lon="-0.8027070">
        <ele>341.7</ele>
        <time>2020-10-12T10:45:29Z</time>
      </trkpt>
      <trkpt lat="38.4508880" lon="-0.8029730">
        <ele>341.7</ele>
        <time>2020-10-12T10:45:31Z</time>
      </trkpt>
      <trkpt lat="38.4508490" lon="-0.8032360">
        <ele>342.1</ele>
        <time>2020-10-12T10:45:33Z</time>
      </trkpt>
      <trkpt lat="38.4508130" lon="-0.8034910">
        <ele>342.2</ele>
        <time>2020-10-12T10:45:35Z</time>
      </trkpt>
      <trkpt lat="38.4507880" lon="-0.8037410">
        <ele>342.2</ele>
        <time>2020-10-12T10:45:37Z</time>
      </trkpt>
      <trkpt lat="38.4507530" lon="-0.8039930">
        <ele>342.3</ele>
        <time>2020-10-12T10:45:39Z</time>
      </trkpt>
      <trkpt lat="38.4507260" lon="-0.8042370">
        <ele>342.5</ele>
        <time>2020-10-12T10:45:41Z</time>
      </trkpt>
      <trkpt lat="38.4506770" lon="-0.8044710">
        <ele>342.5</ele>
        <time>2020-10-12T10:45:43Z</time>
      </trkpt>
      <trkpt lat="38.4506360" lon="-0.8047070">
        <ele>342.5</ele>
        <time>2020-10-12T10:45:45Z</time>
      </trkpt>
      <trkpt lat="38.4505990" lon="-0.8049350">
        <ele>342.7</ele>
        <time>2020-10-12T10:45:47Z</time>
      </trkpt>
      <trkpt lat="38.4505100" lon="-0.8052420">
        <ele>343.0</ele>
        <time>2020-10-12T10:45:50Z</time>
      </trkpt>
      <trkpt lat="38.4504160" lon="-0.8054460">
        <ele>343.2</ele>
        <time>2020-10-12T10:45:52Z</time>
      </trkpt>
      <trkpt lat="38.4503250" lon="-0.8056550">
        <ele>343.4</ele>
        <time>2020-10-12T10:45:54Z</time>
      </trkpt>
      <trkpt lat="38.4502380" lon="-0.8058690">
        <ele>343.5</ele>
        <time>2020-10-12T10:45:56Z</time>
      </trkpt>
      <trkpt lat="38.4501480" lon="-0.8060700">
        <ele>343.7</ele>
        <time>2020-10-12T10:45:58Z</time>
      </trkpt>
      <trkpt lat="38.4500240" lon="-0.8063590">
        <ele>343.9</ele>
        <time>2020-10-12T10:46:01Z</time>
      </trkpt>
      <trkpt lat="38.4498790" lon="-0.8066260">
        <ele>344.2</ele>
        <time>2020-10-12T10:46:04Z</time>
      </trkpt>
      <trkpt lat="38.4497260" lon="-0.8068970">
        <ele>344.4</ele>
        <time>2020-10-12T10:46:07Z</time>
      </trkpt>
      <trkpt lat="38.4495900" lon="-0.8071640">
        <ele>344.5</ele>
        <time>2020-10-12T10:46:10Z</time>
      </trkpt>
      <trkpt lat="38.4494530" lon="-0.8074370">
        <ele>344.7</ele>
        <time>2020-10-12T10:46:13Z</time>
      </trkpt>
      <trkpt lat="38.4493130" lon="-0.8077200">
        <ele>344.8</ele>
        <time>2020-10-12T10:46:16Z</time>
      </trkpt>
      <trkpt lat="38.4491980" lon="-0.8080050">
        <ele>344.9</ele>
        <time>2020-10-12T10:46:19Z</time>
      </trkpt>
      <trkpt lat="38.4490920" lon="-0.8083100">
        <ele>344.9</ele>
        <time>2020-10-12T10:46:22Z</time>
      </trkpt>
      <trkpt lat="38.4490060" lon="-0.8086160">
        <ele>344.7</ele>
        <time>2020-10-12T10:46:25Z</time>
      </trkpt>
      <trkpt lat="38.4489240" lon="-0.8089200">
        <ele>344.6</ele>
        <time>2020-10-12T10:46:28Z</time>
      </trkpt>
      <trkpt lat="38.4488630" lon="-0.8092410">
        <ele>344.2</ele>
        <time>2020-10-12T10:46:31Z</time>
      </trkpt>
      <trkpt lat="38.4488210" lon="-0.8095550">
        <ele>343.9</ele>
        <time>2020-10-12T10:46:34Z</time>
      </trkpt>
      <trkpt lat="38.4487980" lon="-0.8098690">
        <ele>343.6</ele>
        <time>2020-10-12T10:46:37Z</time>
      </trkpt>
      <trkpt lat="38.4487580" lon="-0.8101940">
        <ele>343.2</ele>
        <time>2020-10-12T10:46:40Z</time>
      </trkpt>
      <trkpt lat="38.4487430" lon="-0.8105340">
        <ele>342.6</ele>
        <time>2020-10-12T10:46:43Z</time>
      </trkpt>
      <trkpt lat="38.4487450" lon="-0.8108720">
        <ele>342.1</ele>
        <time>2020-10-12T10:46:46Z</time>
      </trkpt>
      <trkpt lat="38.4487400" lon="-0.8111060">
        <ele>341.7</ele>
        <time>2020-10-12T10:46:48Z</time>
      </trkpt>
      <trkpt lat="38.4487320" lon="-0.8113460">
        <ele>341.3</ele>
        <time>2020-10-12T10:46:50Z</time>
      </trkpt>
      <trkpt lat="38.4487260" lon="-0.8115980">
        <ele>341.0</ele>
        <time>2020-10-12T10:46:52Z</time>
      </trkpt>
      <trkpt lat="38.4487160" lon="-0.8118430">
        <ele>340.8</ele>
        <time>2020-10-12T10:46:54Z</time>
      </trkpt>
      <trkpt lat="38.4486980" lon="-0.8120880">
        <ele>340.6</ele>
        <time>2020-10-12T10:46:56Z</time>
      </trkpt>
      <trkpt lat="38.4486710" lon="-0.8123320">
        <ele>340.4</ele>
        <time>2020-10-12T10:46:58Z</time>
      </trkpt>
      <trkpt lat="38.4486270" lon="-0.8125760">
        <ele>340.2</ele>
        <time>2020-10-12T10:47:00Z</time>
      </trkpt>
      <trkpt lat="38.4485820" lon="-0.8128150">
        <ele>340.0</ele>
        <time>2020-10-12T10:47:02Z</time>
      </trkpt>
      <trkpt lat="38.4485240" lon="-0.8130420">
        <ele>340.0</ele>
        <time>2020-10-12T10:47:04Z</time>
      </trkpt>
      <trkpt lat="38.4484080" lon="-0.8133400">
        <ele>339.9</ele>
        <time>2020-10-12T10:47:07Z</time>
      </trkpt>
      <trkpt lat="38.4482850" lon="-0.8136370">
        <ele>340.0</ele>
        <time>2020-10-12T10:47:10Z</time>
      </trkpt>
      <trkpt lat="38.4481840" lon="-0.8138350">
        <ele>339.5</ele>
        <time>2020-10-12T10:47:12Z</time>
      </trkpt>
      <trkpt lat="38.4480730" lon="-0.8140330">
        <ele>339.2</ele>
        <time>2020-10-12T10:47:14Z</time>
      </trkpt>
      <trkpt lat="38.4479630" lon="-0.8142360">
        <ele>339.1</ele>
        <time>2020-10-12T10:47:16Z</time>
      </trkpt>
      <trkpt lat="38.4478410" lon="-0.8144460">
        <ele>339.0</ele>
        <time>2020-10-12T10:47:18Z</time>
      </trkpt>
      <trkpt lat="38.4477310" lon="-0.8146530">
        <ele>338.8</ele>
        <time>2020-10-12T10:47:20Z</time>
      </trkpt>
      <trkpt lat="38.4476140" lon="-0.8148380">
        <ele>338.7</ele>
        <time>2020-10-12T10:47:22Z</time>
      </trkpt>
      <trkpt lat="38.4474730" lon="-0.8150340">
        <ele>338.5</ele>
        <time>2020-10-12T10:47:24Z</time>
      </trkpt>
      <trkpt lat="38.4473320" lon="-0.8152050">
        <ele>338.6</ele>
        <time>2020-10-12T10:47:26Z</time>
      </trkpt>
      <trkpt lat="38.4471910" lon="-0.8153500">
        <ele>338.6</ele>
        <time>2020-10-12T10:47:28Z</time>
      </trkpt>
      <trkpt lat="38.4470370" lon="-0.8154890">
        <ele>338.5</ele>
        <time>2020-10-12T10:47:30Z</time>
      </trkpt>
      <trkpt lat="38.4468580" lon="-0.8155970">
        <ele>338.4</ele>
        <time>2020-10-12T10:47:32Z</time>
      </trkpt>
      <trkpt lat="38.4466860" lon="-0.8156790">
        <ele>338.4</ele>
        <time>2020-10-12T10:47:34Z</time>
      </trkpt>
      <trkpt lat="38.4465130" lon="-0.8157470">
        <ele>338.3</ele>
        <time>2020-10-12T10:47:36Z</time>
      </trkpt>
      <trkpt lat="38.4462610" lon="-0.8158130">
        <ele>338.2</ele>
        <time>2020-10-12T10:47:39Z</time>
      </trkpt>
      <trkpt lat="38.4459930" lon="-0.8158360">
        <ele>338.2</ele>
        <time>2020-10-12T10:47:42Z</time>
      </trkpt>
      <trkpt lat="38.4458070" lon="-0.8158250">
        <ele>338.1</ele>
        <time>2020-10-12T10:47:44Z</time>
      </trkpt>
      <trkpt lat="38.4456240" lon="-0.8158120">
        <ele>338.1</ele>
        <time>2020-10-12T10:47:46Z</time>
      </trkpt>
      <trkpt lat="38.4454380" lon="-0.8157900">
        <ele>338.1</ele>
        <time>2020-10-12T10:47:48Z</time>
      </trkpt>
      <trkpt lat="38.4451730" lon="-0.8157510">
        <ele>338.0</ele>
        <time>2020-10-12T10:47:51Z</time>
      </trkpt>
      <trkpt lat="38.4449080" lon="-0.8157200">
        <ele>338.0</ele>
        <time>2020-10-12T10:47:54Z</time>
      </trkpt>
      <trkpt lat="38.4447170" lon="-0.8156990">
        <ele>337.9</ele>
        <time>2020-10-12T10:47:56Z</time>
      </trkpt>
      <trkpt lat="38.4445270" lon="-0.8156920">
        <ele>337.8</ele>
        <time>2020-10-12T10:47:58Z</time>
      </trkpt>
      <trkpt lat="38.4443380" lon="-0.8157020">
        <ele>337.8</ele>
        <time>2020-10-12T10:48:00Z</time>
      </trkpt>
      <trkpt lat="38.4441440" lon="-0.8157310">
        <ele>337.7</ele>
        <time>2020-10-12T10:48:02Z</time>
      </trkpt>
      <trkpt lat="38.4439610" lon="-0.8157780">
        <ele>337.6</ele>
        <time>2020-10-12T10:48:04Z</time>
      </trkpt>
      <trkpt lat="38.4437830" lon="-0.8158210">
        <ele>337.4</ele>
        <time>2020-10-12T10:48:06Z</time>
      </trkpt>
      <trkpt lat="38.4435980" lon="-0.8158760">
        <ele>337.3</ele>
        <time>2020-10-12T10:48:08Z</time>
      </trkpt>
      <trkpt lat="38.4434110" lon="-0.8159170">
        <ele>337.2</ele>
        <time>2020-10-12T10:48:10Z</time>
      </trkpt>
      <trkpt lat="38.4432270" lon="-0.8159740">
        <ele>337.1</ele>
        <time>2020-10-12T10:48:12Z</time>
      </trkpt>
      <trkpt lat="38.4430490" lon="-0.8160300">
        <ele>337.0</ele>
        <time>2020-10-12T10:48:14Z</time>
      </trkpt>
      <trkpt lat="38.4428680" lon="-0.8160880">
        <ele>336.9</ele>
        <time>2020-10-12T10:48:16Z</time>
      </trkpt>
      <trkpt lat="38.4426140" lon="-0.8161710">
        <ele>336.9</ele>
        <time>2020-10-12T10:48:19Z</time>
      </trkpt>
      <trkpt lat="38.4423570" lon="-0.8162500">
        <ele>336.6</ele>
        <time>2020-10-12T10:48:22Z</time>
      </trkpt>
      <trkpt lat="38.4421040" lon="-0.8163550">
        <ele>336.3</ele>
        <time>2020-10-12T10:48:25Z</time>
      </trkpt>
      <trkpt lat="38.4419310" lon="-0.8164500">
        <ele>336.1</ele>
        <time>2020-10-12T10:48:27Z</time>
      </trkpt>
      <trkpt lat="38.4417630" lon="-0.8165690">
        <ele>336.0</ele>
        <time>2020-10-12T10:48:29Z</time>
      </trkpt>
      <trkpt lat="38.4416020" lon="-0.8166980">
        <ele>335.6</ele>
        <time>2020-10-12T10:48:31Z</time>
      </trkpt>
      <trkpt lat="38.4413840" lon="-0.8168890">
        <ele>334.9</ele>
        <time>2020-10-12T10:48:34Z</time>
      </trkpt>
      <trkpt lat="38.4412230" lon="-0.8170020">
        <ele>334.5</ele>
        <time>2020-10-12T10:48:36Z</time>
      </trkpt>
      <trkpt lat="38.4410640" lon="-0.8171350">
        <ele>334.1</ele>
        <time>2020-10-12T10:48:38Z</time>
      </trkpt>
      <trkpt lat="38.4409130" lon="-0.8172670">
        <ele>333.9</ele>
        <time>2020-10-12T10:48:40Z</time>
      </trkpt>
      <trkpt lat="38.4407160" lon="-0.8174590">
        <ele>334.0</ele>
        <time>2020-10-12T10:48:43Z</time>
      </trkpt>
      <trkpt lat="38.4405280" lon="-0.8176430">
        <ele>334.3</ele>
        <time>2020-10-12T10:48:46Z</time>
      </trkpt>
      <trkpt lat="38.4403370" lon="-0.8178570">
        <ele>335.0</ele>
        <time>2020-10-12T10:48:49Z</time>
      </trkpt>
      <trkpt lat="38.4401890" lon="-0.8180590">
        <ele>335.9</ele>
        <time>2020-10-12T10:48:52Z</time>
      </trkpt>
      <trkpt lat="38.4400840" lon="-0.8182520">
        <ele>336.8</ele>
        <time>2020-10-12T10:48:55Z</time>
      </trkpt>
      <trkpt lat="38.4399570" lon="-0.8185040">
        <ele>337.9</ele>
        <time>2020-10-12T10:48:59Z</time>
      </trkpt>
      <trkpt lat="38.4398480" lon="-0.8187550">
        <ele>339.1</ele>
        <time>2020-10-12T10:49:03Z</time>
      </trkpt>
      <trkpt lat="38.4397520" lon="-0.8190100">
        <ele>340.2</ele>
        <time>2020-10-12T10:49:07Z</time>
      </trkpt>
      <trkpt lat="38.4396790" lon="-0.8192280">
        <ele>341.2</ele>
        <time>2020-10-12T10:49:10Z</time>
      </trkpt>
      <trkpt lat="38.4395710" lon="-0.8194210">
        <ele>342.0</ele>
        <time>2020-10-12T10:49:15Z</time>
      </trkpt>
      <trkpt lat="38.4394960" lon="-0.8196590">
        <ele>342.8</ele>
        <time>2020-10-12T10:49:21Z</time>
      </trkpt>
      <trkpt lat="38.4393890" lon="-0.8199100">
        <ele>343.4</ele>
        <time>2020-10-12T10:49:25Z</time>
      </trkpt>
      <trkpt lat="38.4392950" lon="-0.8201400">
        <ele>343.8</ele>
        <time>2020-10-12T10:49:27Z</time>
      </trkpt>
      <trkpt lat="38.4391750" lon="-0.8204150">
        <ele>344.1</ele>
        <time>2020-10-12T10:49:30Z</time>
      </trkpt>
      <trkpt lat="38.4390850" lon="-0.8206530">
        <ele>344.2</ele>
        <time>2020-10-12T10:49:33Z</time>
      </trkpt>
      <trkpt lat="38.4390100" lon="-0.8208960">
        <ele>344.2</ele>
        <time>2020-10-12T10:49:36Z</time>
      </trkpt>
      <trkpt lat="38.4389370" lon="-0.8211500">
        <ele>344.1</ele>
        <time>2020-10-12T10:49:39Z</time>
      </trkpt>
      <trkpt lat="38.4388780" lon="-0.8213990">
        <ele>344.1</ele>
        <time>2020-10-12T10:49:42Z</time>
      </trkpt>
      <trkpt lat="38.4388240" lon="-0.8216520">
        <ele>344.3</ele>
        <time>2020-10-12T10:49:45Z</time>
      </trkpt>
      <trkpt lat="38.4387800" lon="-0.8219000">
        <ele>344.8</ele>
        <time>2020-10-12T10:49:48Z</time>
      </trkpt>
      <trkpt lat="38.4387320" lon="-0.8221970">
        <ele>345.8</ele>
        <time>2020-10-12T10:49:52Z</time>
      </trkpt>
      <trkpt lat="38.4386680" lon="-0.8224800">
        <ele>346.9</ele>
        <time>2020-10-12T10:49:56Z</time>
      </trkpt>
      <trkpt lat="38.4386080" lon="-0.8227640">
        <ele>348.1</ele>
        <time>2020-10-12T10:50:00Z</time>
      </trkpt>
      <trkpt lat="38.4385610" lon="-0.8230250">
        <ele>349.2</ele>
        <time>2020-10-12T10:50:04Z</time>
      </trkpt>
      <trkpt lat="38.4385350" lon="-0.8233140">
        <ele>350.2</ele>
        <time>2020-10-12T10:50:08Z</time>
      </trkpt>
      <trkpt lat="38.4385210" lon="-0.8235890">
        <ele>351.2</ele>
        <time>2020-10-12T10:50:12Z</time>
      </trkpt>
      <trkpt lat="38.4384990" lon="-0.8238660">
        <ele>352.0</ele>
        <time>2020-10-12T10:50:16Z</time>
      </trkpt>
      <trkpt lat="38.4385590" lon="-0.8241150">
        <ele>352.6</ele>
        <time>2020-10-12T10:50:20Z</time>
      </trkpt>
      <trkpt lat="38.4387110" lon="-0.8242810">
        <ele>353.1</ele>
        <time>2020-10-12T10:50:24Z</time>
      </trkpt>
      <trkpt lat="38.4387480" lon="-0.8245310">
        <ele>353.8</ele>
        <time>2020-10-12T10:50:28Z</time>
      </trkpt>
      <trkpt lat="38.4388010" lon="-0.8248140">
        <ele>354.7</ele>
        <time>2020-10-12T10:50:32Z</time>
      </trkpt>
      <trkpt lat="38.4389650" lon="-0.8250420">
        <ele>355.2</ele>
        <time>2020-10-12T10:50:36Z</time>
      </trkpt>
      <trkpt lat="38.4390920" lon="-0.8252270">
        <ele>355.5</ele>
        <time>2020-10-12T10:50:39Z</time>
      </trkpt>
      <trkpt lat="38.4392090" lon="-0.8254160">
        <ele>355.7</ele>
        <time>2020-10-12T10:50:42Z</time>
      </trkpt>
      <trkpt lat="38.4393340" lon="-0.8255920">
        <ele>355.9</ele>
        <time>2020-10-12T10:50:45Z</time>
      </trkpt>
      <trkpt lat="38.4394490" lon="-0.8257700">
        <ele>356.1</ele>
        <time>2020-10-12T10:50:48Z</time>
      </trkpt>
      <trkpt lat="38.4395730" lon="-0.8259400">
        <ele>356.4</ele>
        <time>2020-10-12T10:50:51Z</time>
      </trkpt>
      <trkpt lat="38.4397270" lon="-0.8261670">
        <ele>356.8</ele>
        <time>2020-10-12T10:50:55Z</time>
      </trkpt>
      <trkpt lat="38.4398460" lon="-0.8263600">
        <ele>357.1</ele>
        <time>2020-10-12T10:50:58Z</time>
      </trkpt>
      <trkpt lat="38.4399570" lon="-0.8265680">
        <ele>357.4</ele>
        <time>2020-10-12T10:51:01Z</time>
      </trkpt>
      <trkpt lat="38.4400640" lon="-0.8267660">
        <ele>357.6</ele>
        <time>2020-10-12T10:51:04Z</time>
      </trkpt>
      <trkpt lat="38.4401650" lon="-0.8269780">
        <ele>357.9</ele>
        <time>2020-10-12T10:51:07Z</time>
      </trkpt>
      <trkpt lat="38.4402610" lon="-0.8272270">
        <ele>358.0</ele>
        <time>2020-10-12T10:51:10Z</time>
      </trkpt>
      <trkpt lat="38.4403500" lon="-0.8274550">
        <ele>358.3</ele>
        <time>2020-10-12T10:51:13Z</time>
      </trkpt>
      <trkpt lat="38.4404340" lon="-0.8277000">
        <ele>358.5</ele>
        <time>2020-10-12T10:51:16Z</time>
      </trkpt>
      <trkpt lat="38.4405260" lon="-0.8279490">
        <ele>358.5</ele>
        <time>2020-10-12T10:51:19Z</time>
      </trkpt>
      <trkpt lat="38.4406140" lon="-0.8281920">
        <ele>358.5</ele>
        <time>2020-10-12T10:51:22Z</time>
      </trkpt>
      <trkpt lat="38.4407040" lon="-0.8284280">
        <ele>358.6</ele>
        <time>2020-10-12T10:51:25Z</time>
      </trkpt>
      <trkpt lat="38.4407830" lon="-0.8286600">
        <ele>358.7</ele>
        <time>2020-10-12T10:51:28Z</time>
      </trkpt>
      <trkpt lat="38.4408590" lon="-0.8289040">
        <ele>358.7</ele>
        <time>2020-10-12T10:51:31Z</time>
      </trkpt>
      <trkpt lat="38.4409480" lon="-0.8291520">
        <ele>358.8</ele>
        <time>2020-10-12T10:51:34Z</time>
      </trkpt>
      <trkpt lat="38.4410380" lon="-0.8294050">
        <ele>359.1</ele>
        <time>2020-10-12T10:51:37Z</time>
      </trkpt>
      <trkpt lat="38.4411240" lon="-0.8296390">
        <ele>359.5</ele>
        <time>2020-10-12T10:51:40Z</time>
      </trkpt>
      <trkpt lat="38.4412030" lon="-0.8298720">
        <ele>359.9</ele>
        <time>2020-10-12T10:51:43Z</time>
      </trkpt>
      <trkpt lat="38.4412820" lon="-0.8301120">
        <ele>360.5</ele>
        <time>2020-10-12T10:51:46Z</time>
      </trkpt>
      <trkpt lat="38.4413610" lon="-0.8303390">
        <ele>361.1</ele>
        <time>2020-10-12T10:51:49Z</time>
      </trkpt>
      <trkpt lat="38.4414400" lon="-0.8305660">
        <ele>361.7</ele>
        <time>2020-10-12T10:51:52Z</time>
      </trkpt>
      <trkpt lat="38.4415050" lon="-0.8308080">
        <ele>362.4</ele>
        <time>2020-10-12T10:51:55Z</time>
      </trkpt>
      <trkpt lat="38.4415570" lon="-0.8310420">
        <ele>363.1</ele>
        <time>2020-10-12T10:51:58Z</time>
      </trkpt>
      <trkpt lat="38.4416070" lon="-0.8312870">
        <ele>363.9</ele>
        <time>2020-10-12T10:52:01Z</time>
      </trkpt>
      <trkpt lat="38.4416390" lon="-0.8315270">
        <ele>364.5</ele>
        <time>2020-10-12T10:52:04Z</time>
      </trkpt>
      <trkpt lat="38.4416710" lon="-0.8317700">
        <ele>365.1</ele>
        <time>2020-10-12T10:52:07Z</time>
      </trkpt>
      <trkpt lat="38.4416970" lon="-0.8320530">
        <ele>365.8</ele>
        <time>2020-10-12T10:52:11Z</time>
      </trkpt>
      <trkpt lat="38.4416990" lon="-0.8323250">
        <ele>366.5</ele>
        <time>2020-10-12T10:52:15Z</time>
      </trkpt>
      <trkpt lat="38.4417090" lon="-0.8325880">
        <ele>367.3</ele>
        <time>2020-10-12T10:52:19Z</time>
      </trkpt>
      <trkpt lat="38.4417130" lon="-0.8328790">
        <ele>368.0</ele>
        <time>2020-10-12T10:52:23Z</time>
      </trkpt>
      <trkpt lat="38.4417020" lon="-0.8331710">
        <ele>368.7</ele>
        <time>2020-10-12T10:52:27Z</time>
      </trkpt>
      <trkpt lat="38.4417060" lon="-0.8334480">
        <ele>369.4</ele>
        <time>2020-10-12T10:52:31Z</time>
      </trkpt>
      <trkpt lat="38.4417140" lon="-0.8337420">
        <ele>370.3</ele>
        <time>2020-10-12T10:52:35Z</time>
      </trkpt>
      <trkpt lat="38.4417260" lon="-0.8339710">
        <ele>371.0</ele>
        <time>2020-10-12T10:52:38Z</time>
      </trkpt>
      <trkpt lat="38.4417480" lon="-0.8342030">
        <ele>371.6</ele>
        <time>2020-10-12T10:52:41Z</time>
      </trkpt>
      <trkpt lat="38.4417830" lon="-0.8344740">
        <ele>372.4</ele>
        <time>2020-10-12T10:52:45Z</time>
      </trkpt>
      <trkpt lat="38.4418280" lon="-0.8347530">
        <ele>373.2</ele>
        <time>2020-10-12T10:52:49Z</time>
      </trkpt>
      <trkpt lat="38.4418770" lon="-0.8350320">
        <ele>374.1</ele>
        <time>2020-10-12T10:52:53Z</time>
      </trkpt>
      <trkpt lat="38.4419330" lon="-0.8353090">
        <ele>374.9</ele>
        <time>2020-10-12T10:52:57Z</time>
      </trkpt>
      <trkpt lat="38.4419880" lon="-0.8355750">
        <ele>375.6</ele>
        <time>2020-10-12T10:53:01Z</time>
      </trkpt>
      <trkpt lat="38.4420490" lon="-0.8358350">
        <ele>376.4</ele>
        <time>2020-10-12T10:53:05Z</time>
      </trkpt>
      <trkpt lat="38.4421000" lon="-0.8360970">
        <ele>377.2</ele>
        <time>2020-10-12T10:53:09Z</time>
      </trkpt>
      <trkpt lat="38.4421480" lon="-0.8363720">
        <ele>378.0</ele>
        <time>2020-10-12T10:53:13Z</time>
      </trkpt>
      <trkpt lat="38.4421920" lon="-0.8366570">
        <ele>378.8</ele>
        <time>2020-10-12T10:53:17Z</time>
      </trkpt>
      <trkpt lat="38.4422370" lon="-0.8369160">
        <ele>379.4</ele>
        <time>2020-10-12T10:53:21Z</time>
      </trkpt>
      <trkpt lat="38.4422710" lon="-0.8371890">
        <ele>379.9</ele>
        <time>2020-10-12T10:53:25Z</time>
      </trkpt>
      <trkpt lat="38.4423100" lon="-0.8374690">
        <ele>380.5</ele>
        <time>2020-10-12T10:53:29Z</time>
      </trkpt>
      <trkpt lat="38.4423370" lon="-0.8377540">
        <ele>381.2</ele>
        <time>2020-10-12T10:53:33Z</time>
      </trkpt>
      <trkpt lat="38.4423580" lon="-0.8380480">
        <ele>381.7</ele>
        <time>2020-10-12T10:53:37Z</time>
      </trkpt>
      <trkpt lat="38.4423790" lon="-0.8383370">
        <ele>382.2</ele>
        <time>2020-10-12T10:53:41Z</time>
      </trkpt>
      <trkpt lat="38.4423800" lon="-0.8386440">
        <ele>382.6</ele>
        <time>2020-10-12T10:53:45Z</time>
      </trkpt>
      <trkpt lat="38.4423670" lon="-0.8388840">
        <ele>382.9</ele>
        <time>2020-10-12T10:53:48Z</time>
      </trkpt>
      <trkpt lat="38.4423580" lon="-0.8391850">
        <ele>383.4</ele>
        <time>2020-10-12T10:53:52Z</time>
      </trkpt>
      <trkpt lat="38.4423410" lon="-0.8394890">
        <ele>383.8</ele>
        <time>2020-10-12T10:53:56Z</time>
      </trkpt>
      <trkpt lat="38.4423240" lon="-0.8397200">
        <ele>384.2</ele>
        <time>2020-10-12T10:53:59Z</time>
      </trkpt>
      <trkpt lat="38.4423000" lon="-0.8399530">
        <ele>384.5</ele>
        <time>2020-10-12T10:54:02Z</time>
      </trkpt>
      <trkpt lat="38.4422720" lon="-0.8402460">
        <ele>384.9</ele>
        <time>2020-10-12T10:54:06Z</time>
      </trkpt>
      <trkpt lat="38.4422290" lon="-0.8404760">
        <ele>385.3</ele>
        <time>2020-10-12T10:54:09Z</time>
      </trkpt>
      <trkpt lat="38.4421830" lon="-0.8407040">
        <ele>385.6</ele>
        <time>2020-10-12T10:54:12Z</time>
      </trkpt>
      <trkpt lat="38.4421400" lon="-0.8409290">
        <ele>385.9</ele>
        <time>2020-10-12T10:54:15Z</time>
      </trkpt>
      <trkpt lat="38.4421040" lon="-0.8411610">
        <ele>386.3</ele>
        <time>2020-10-12T10:54:18Z</time>
      </trkpt>
      <trkpt lat="38.4420400" lon="-0.8414520">
        <ele>386.7</ele>
        <time>2020-10-12T10:54:22Z</time>
      </trkpt>
      <trkpt lat="38.4419950" lon="-0.8416830">
        <ele>386.9</ele>
        <time>2020-10-12T10:54:25Z</time>
      </trkpt>
      <trkpt lat="38.4419430" lon="-0.8419130">
        <ele>387.0</ele>
        <time>2020-10-12T10:54:28Z</time>
      </trkpt>
      <trkpt lat="38.4418870" lon="-0.8421530">
        <ele>387.4</ele>
        <time>2020-10-12T10:54:31Z</time>
      </trkpt>
      <trkpt lat="38.4418360" lon="-0.8423880">
        <ele>388.0</ele>
        <time>2020-10-12T10:54:34Z</time>
      </trkpt>
      <trkpt lat="38.4417650" lon="-0.8426280">
        <ele>388.4</ele>
        <time>2020-10-12T10:54:37Z</time>
      </trkpt>
      <trkpt lat="38.4417000" lon="-0.8429170">
        <ele>388.7</ele>
        <time>2020-10-12T10:54:41Z</time>
      </trkpt>
      <trkpt lat="38.4416530" lon="-0.8431450">
        <ele>389.1</ele>
        <time>2020-10-12T10:54:44Z</time>
      </trkpt>
      <trkpt lat="38.4415950" lon="-0.8434410">
        <ele>389.6</ele>
        <time>2020-10-12T10:54:48Z</time>
      </trkpt>
      <trkpt lat="38.4415310" lon="-0.8437210">
        <ele>390.1</ele>
        <time>2020-10-12T10:54:52Z</time>
      </trkpt>
      <trkpt lat="38.4414710" lon="-0.8440070">
        <ele>390.7</ele>
        <time>2020-10-12T10:54:56Z</time>
      </trkpt>
      <trkpt lat="38.4414020" lon="-0.8442970">
        <ele>391.5</ele>
        <time>2020-10-12T10:55:00Z</time>
      </trkpt>
      <trkpt lat="38.4413370" lon="-0.8445780">
        <ele>392.3</ele>
        <time>2020-10-12T10:55:04Z</time>
      </trkpt>
      <trkpt lat="38.4412690" lon="-0.8448480">
        <ele>393.0</ele>
        <time>2020-10-12T10:55:08Z</time>
      </trkpt>
      <trkpt lat="38.4412080" lon="-0.8451190">
        <ele>393.8</ele>
        <time>2020-10-12T10:55:12Z</time>
      </trkpt>
      <trkpt lat="38.4411450" lon="-0.8453780">
        <ele>394.7</ele>
        <time>2020-10-12T10:55:16Z</time>
      </trkpt>
      <trkpt lat="38.4410820" lon="-0.8456360">
        <ele>395.5</ele>
        <time>2020-10-12T10:55:20Z</time>
      </trkpt>
      <trkpt lat="38.4410170" lon="-0.8459120">
        <ele>396.3</ele>
        <time>2020-10-12T10:55:24Z</time>
      </trkpt>
      <trkpt lat="38.4409690" lon="-0.8461790">
        <ele>397.1</ele>
        <time>2020-10-12T10:55:28Z</time>
      </trkpt>
      <trkpt lat="38.4408960" lon="-0.8464600">
        <ele>397.9</ele>
        <time>2020-10-12T10:55:32Z</time>
      </trkpt>
      <trkpt lat="38.4408350" lon="-0.8467400">
        <ele>398.7</ele>
        <time>2020-10-12T10:55:36Z</time>
      </trkpt>
      <trkpt lat="38.4407720" lon="-0.8470080">
        <ele>399.4</ele>
        <time>2020-10-12T10:55:40Z</time>
      </trkpt>
      <trkpt lat="38.4407200" lon="-0.8472670">
        <ele>399.9</ele>
        <time>2020-10-12T10:55:44Z</time>
      </trkpt>
      <trkpt lat="38.4406680" lon="-0.8475490">
        <ele>400.5</ele>
        <time>2020-10-12T10:55:48Z</time>
      </trkpt>
      <trkpt lat="38.4406380" lon="-0.8477850">
        <ele>401.0</ele>
        <time>2020-10-12T10:55:55Z</time>
      </trkpt>
      <trkpt lat="38.4405830" lon="-0.8480050">
        <ele>401.5</ele>
        <time>2020-10-12T10:55:57Z</time>
      </trkpt>
      <trkpt lat="38.4405440" lon="-0.8482400">
        <ele>401.8</ele>
        <time>2020-10-12T10:55:59Z</time>
      </trkpt>
      <trkpt lat="38.4404990" lon="-0.8484940">
        <ele>402.4</ele>
        <time>2020-10-12T10:56:02Z</time>
      </trkpt>
      <trkpt lat="38.4404310" lon="-0.8487800">
        <ele>403.0</ele>
        <time>2020-10-12T10:56:06Z</time>
      </trkpt>
      <trkpt lat="38.4403700" lon="-0.8490500">
        <ele>403.6</ele>
        <time>2020-10-12T10:56:10Z</time>
      </trkpt>
      <trkpt lat="38.4404200" lon="-0.8493200">
        <ele>404.2</ele>
        <time>2020-10-12T10:56:14Z</time>
      </trkpt>
      <trkpt lat="38.4403890" lon="-0.8495830">
        <ele>404.9</ele>
        <time>2020-10-12T10:56:18Z</time>
      </trkpt>
      <trkpt lat="38.4402160" lon="-0.8497460">
        <ele>405.6</ele>
        <time>2020-10-12T10:56:22Z</time>
      </trkpt>
      <trkpt lat="38.4401490" lon="-0.8500040">
        <ele>405.9</ele>
        <time>2020-10-12T10:56:26Z</time>
      </trkpt>
      <trkpt lat="38.4401360" lon="-0.8502930">
        <ele>405.8</ele>
        <time>2020-10-12T10:56:30Z</time>
      </trkpt>
      <trkpt lat="38.4401420" lon="-0.8505320">
        <ele>405.8</ele>
        <time>2020-10-12T10:56:33Z</time>
      </trkpt>
      <trkpt lat="38.4401430" lon="-0.8508130">
        <ele>406.1</ele>
        <time>2020-10-12T10:56:37Z</time>
      </trkpt>
      <trkpt lat="38.4401540" lon="-0.8510690">
        <ele>406.6</ele>
        <time>2020-10-12T10:56:41Z</time>
      </trkpt>
      <trkpt lat="38.4401660" lon="-0.8513440">
        <ele>407.4</ele>
        <time>2020-10-12T10:56:45Z</time>
      </trkpt>
      <trkpt lat="38.4401610" lon="-0.8516050">
        <ele>408.2</ele>
        <time>2020-10-12T10:56:49Z</time>
      </trkpt>
      <trkpt lat="38.4401420" lon="-0.8518710">
        <ele>409.0</ele>
        <time>2020-10-12T10:56:53Z</time>
      </trkpt>
      <trkpt lat="38.4401030" lon="-0.8521270">
        <ele>409.7</ele>
        <time>2020-10-12T10:56:57Z</time>
      </trkpt>
      <trkpt lat="38.4400500" lon="-0.8523960">
        <ele>410.6</ele>
        <time>2020-10-12T10:57:01Z</time>
      </trkpt>
      <trkpt lat="38.4399830" lon="-0.8526310">
        <ele>411.3</ele>
        <time>2020-10-12T10:57:05Z</time>
      </trkpt>
      <trkpt lat="38.4399020" lon="-0.8528710">
        <ele>412.1</ele>
        <time>2020-10-12T10:57:09Z</time>
      </trkpt>
      <trkpt lat="38.4398020" lon="-0.8531220">
        <ele>413.0</ele>
        <time>2020-10-12T10:57:13Z</time>
      </trkpt>
      <trkpt lat="38.4397250" lon="-0.8533600">
        <ele>413.9</ele>
        <time>2020-10-12T10:57:17Z</time>
      </trkpt>
      <trkpt lat="38.4396420" lon="-0.8536080">
        <ele>414.7</ele>
        <time>2020-10-12T10:57:21Z</time>
      </trkpt>
      <trkpt lat="38.4395680" lon="-0.8538900">
        <ele>415.6</ele>
        <time>2020-10-12T10:57:25Z</time>
      </trkpt>
      <trkpt lat="38.4395070" lon="-0.8541480">
        <ele>416.7</ele>
        <time>2020-10-12T10:57:29Z</time>
      </trkpt>
      <trkpt lat="38.4394560" lon="-0.8543990">
        <ele>417.5</ele>
        <time>2020-10-12T10:57:33Z</time>
      </trkpt>
      <trkpt lat="38.4394300" lon="-0.8546560">
        <ele>418.3</ele>
        <time>2020-10-12T10:57:37Z</time>
      </trkpt>
      <trkpt lat="38.4394050" lon="-0.8549130">
        <ele>419.5</ele>
        <time>2020-10-12T10:57:41Z</time>
      </trkpt>
      <trkpt lat="38.4394040" lon="-0.8551660">
        <ele>420.7</ele>
        <time>2020-10-12T10:57:45Z</time>
      </trkpt>
      <trkpt lat="38.4394230" lon="-0.8554390">
        <ele>421.8</ele>
        <time>2020-10-12T10:57:50Z</time>
      </trkpt>
      <trkpt lat="38.4394230" lon="-0.8556800">
        <ele>422.9</ele>
        <time>2020-10-12T10:57:56Z</time>
      </trkpt>
      <trkpt lat="38.4394430" lon="-0.8559120">
        <ele>424.1</ele>
        <time>2020-10-12T10:58:01Z</time>
      </trkpt>
      <trkpt lat="38.4394580" lon="-0.8561590">
        <ele>425.3</ele>
        <time>2020-10-12T10:58:06Z</time>
      </trkpt>
      <trkpt lat="38.4394640" lon="-0.8564320">
        <ele>426.8</ele>
        <time>2020-10-12T10:58:10Z</time>
      </trkpt>
      <trkpt lat="38.4394670" lon="-0.8566800">
        <ele>428.1</ele>
        <time>2020-10-12T10:58:14Z</time>
      </trkpt>
      <trkpt lat="38.4394720" lon="-0.8569270">
        <ele>429.4</ele>
        <time>2020-10-12T10:58:18Z</time>
      </trkpt>
      <trkpt lat="38.4394830" lon="-0.8571710">
        <ele>430.8</ele>
        <time>2020-10-12T10:58:22Z</time>
      </trkpt>
      <trkpt lat="38.4395050" lon="-0.8574200">
        <ele>432.2</ele>
        <time>2020-10-12T10:58:27Z</time>
      </trkpt>
      <trkpt lat="38.4395260" lon="-0.8576590">
        <ele>433.6</ele>
        <time>2020-10-12T10:58:32Z</time>
      </trkpt>
      <trkpt lat="38.4395300" lon="-0.8579140">
        <ele>435.1</ele>
        <time>2020-10-12T10:58:38Z</time>
      </trkpt>
      <trkpt lat="38.4395410" lon="-0.8581480">
        <ele>436.7</ele>
        <time>2020-10-12T10:58:42Z</time>
      </trkpt>
      <trkpt lat="38.4395450" lon="-0.8583860">
        <ele>438.1</ele>
        <time>2020-10-12T10:58:48Z</time>
      </trkpt>
      <trkpt lat="38.4395530" lon="-0.8586260">
        <ele>439.7</ele>
        <time>2020-10-12T10:58:53Z</time>
      </trkpt>
      <trkpt lat="38.4395520" lon="-0.8588860">
        <ele>441.3</ele>
        <time>2020-10-12T10:58:57Z</time>
      </trkpt>
      <trkpt lat="38.4395530" lon="-0.8591170">
        <ele>442.7</ele>
        <time>2020-10-12T10:59:03Z</time>
      </trkpt>
      <trkpt lat="38.4395440" lon="-0.8593650">
        <ele>444.1</ele>
        <time>2020-10-12T10:59:08Z</time>
      </trkpt>
      <trkpt lat="38.4395370" lon="-0.8596140">
        <ele>445.6</ele>
        <time>2020-10-12T10:59:13Z</time>
      </trkpt>
      <trkpt lat="38.4395060" lon="-0.8598570">
        <ele>447.0</ele>
        <time>2020-10-12T10:59:18Z</time>
      </trkpt>
      <trkpt lat="38.4394720" lon="-0.8600960">
        <ele>448.4</ele>
        <time>2020-10-12T10:59:22Z</time>
      </trkpt>
      <trkpt lat="38.4394260" lon="-0.8603300">
        <ele>450.0</ele>
        <time>2020-10-12T10:59:27Z</time>
      </trkpt>
      <trkpt lat="38.4393820" lon="-0.8605610">
        <ele>451.4</ele>
        <time>2020-10-12T10:59:32Z</time>
      </trkpt>
      <trkpt lat="38.4393390" lon="-0.8607880">
        <ele>452.6</ele>
        <time>2020-10-12T10:59:37Z</time>
      </trkpt>
      <trkpt lat="38.4392860" lon="-0.8610210">
        <ele>453.7</ele>
        <time>2020-10-12T10:59:42Z</time>
      </trkpt>
      <trkpt lat="38.4392140" lon="-0.8612640">
        <ele>454.7</ele>
        <time>2020-10-12T10:59:47Z</time>
      </trkpt>
      <trkpt lat="38.4391510" lon="-0.8614870">
        <ele>455.6</ele>
        <time>2020-10-12T10:59:51Z</time>
      </trkpt>
      <trkpt lat="38.4390830" lon="-0.8617850">
        <ele>456.8</ele>
        <time>2020-10-12T10:59:57Z</time>
      </trkpt>
      <trkpt lat="38.4390500" lon="-0.8620180">
        <ele>457.7</ele>
        <time>2020-10-12T11:00:01Z</time>
      </trkpt>
      <trkpt lat="38.4390220" lon="-0.8622660">
        <ele>458.4</ele>
        <time>2020-10-12T11:00:05Z</time>
      </trkpt>
      <trkpt lat="38.4389990" lon="-0.8625060">
        <ele>459.1</ele>
        <time>2020-10-12T11:00:09Z</time>
      </trkpt>
      <trkpt lat="38.4389810" lon="-0.8627470">
        <ele>459.6</ele>
        <time>2020-10-12T11:00:13Z</time>
      </trkpt>
      <trkpt lat="38.4389760" lon="-0.8629970">
        <ele>460.0</ele>
        <time>2020-10-12T11:00:17Z</time>
      </trkpt>
      <trkpt lat="38.4389770" lon="-0.8632600">
        <ele>460.3</ele>
        <time>2020-10-12T11:00:21Z</time>
      </trkpt>
      <trkpt lat="38.4389890" lon="-0.8634920">
        <ele>460.6</ele>
        <time>2020-10-12T11:00:24Z</time>
      </trkpt>
      <trkpt lat="38.4390060" lon="-0.8637340">
        <ele>460.7</ele>
        <time>2020-10-12T11:00:27Z</time>
      </trkpt>
      <trkpt lat="38.4390420" lon="-0.8640340">
        <ele>461.0</ele>
        <time>2020-10-12T11:00:31Z</time>
      </trkpt>
      <trkpt lat="38.4390780" lon="-0.8642600">
        <ele>461.2</ele>
        <time>2020-10-12T11:00:34Z</time>
      </trkpt>
      <trkpt lat="38.4391200" lon="-0.8644860">
        <ele>461.5</ele>
        <time>2020-10-12T11:00:37Z</time>
      </trkpt>
      <trkpt lat="38.4391860" lon="-0.8647780">
        <ele>461.8</ele>
        <time>2020-10-12T11:00:41Z</time>
      </trkpt>
      <trkpt lat="38.4392510" lon="-0.8650030">
        <ele>462.2</ele>
        <time>2020-10-12T11:00:44Z</time>
      </trkpt>
      <trkpt lat="38.4393210" lon="-0.8652250">
        <ele>462.3</ele>
        <time>2020-10-12T11:00:47Z</time>
      </trkpt>
      <trkpt lat="38.4393950" lon="-0.8654500">
        <ele>462.5</ele>
        <time>2020-10-12T11:00:50Z</time>
      </trkpt>
      <trkpt lat="38.4394830" lon="-0.8656760">
        <ele>462.8</ele>
        <time>2020-10-12T11:00:53Z</time>
      </trkpt>
      <trkpt lat="38.4395640" lon="-0.8658910">
        <ele>463.1</ele>
        <time>2020-10-12T11:00:56Z</time>
      </trkpt>
      <trkpt lat="38.4396670" lon="-0.8661000">
        <ele>463.4</ele>
        <time>2020-10-12T11:00:59Z</time>
      </trkpt>
      <trkpt lat="38.4397720" lon="-0.8663100">
        <ele>463.8</ele>
        <time>2020-10-12T11:01:02Z</time>
      </trkpt>
      <trkpt lat="38.4399020" lon="-0.8665670">
        <ele>464.5</ele>
        <time>2020-10-12T11:01:06Z</time>
      </trkpt>
      <trkpt lat="38.4400020" lon="-0.8667910">
        <ele>465.1</ele>
        <time>2020-10-12T11:01:09Z</time>
      </trkpt>
      <trkpt lat="38.4400870" lon="-0.8669990">
        <ele>465.8</ele>
        <time>2020-10-12T11:01:12Z</time>
      </trkpt>
      <trkpt lat="38.4401910" lon="-0.8672430">
        <ele>466.9</ele>
        <time>2020-10-12T11:01:16Z</time>
      </trkpt>
      <trkpt lat="38.4402620" lon="-0.8674660">
        <ele>467.8</ele>
        <time>2020-10-12T11:01:20Z</time>
      </trkpt>
      <trkpt lat="38.4403510" lon="-0.8676860">
        <ele>468.7</ele>
        <time>2020-10-12T11:01:24Z</time>
      </trkpt>
      <trkpt lat="38.4404370" lon="-0.8679210">
        <ele>469.8</ele>
        <time>2020-10-12T11:01:28Z</time>
      </trkpt>
      <trkpt lat="38.4405190" lon="-0.8681550">
        <ele>470.8</ele>
        <time>2020-10-12T11:01:32Z</time>
      </trkpt>
      <trkpt lat="38.4405820" lon="-0.8684110">
        <ele>472.0</ele>
        <time>2020-10-12T11:01:36Z</time>
      </trkpt>
      <trkpt lat="38.4406380" lon="-0.8686670">
        <ele>472.9</ele>
        <time>2020-10-12T11:01:40Z</time>
      </trkpt>
      <trkpt lat="38.4406800" lon="-0.8689400">
        <ele>474.0</ele>
        <time>2020-10-12T11:01:45Z</time>
      </trkpt>
      <trkpt lat="38.4407220" lon="-0.8691780">
        <ele>475.1</ele>
        <time>2020-10-12T11:01:49Z</time>
      </trkpt>
      <trkpt lat="38.4407500" lon="-0.8694070">
        <ele>476.1</ele>
        <time>2020-10-12T11:01:53Z</time>
      </trkpt>
      <trkpt lat="38.4407810" lon="-0.8697040">
        <ele>477.2</ele>
        <time>2020-10-12T11:01:58Z</time>
      </trkpt>
      <trkpt lat="38.4407940" lon="-0.8699840">
        <ele>478.2</ele>
        <time>2020-10-12T11:02:03Z</time>
      </trkpt>
      <trkpt lat="38.4407950" lon="-0.8702200">
        <ele>479.0</ele>
        <time>2020-10-12T11:02:10Z</time>
      </trkpt>
      <trkpt lat="38.4407840" lon="-0.8704950">
        <ele>479.9</ele>
        <time>2020-10-12T11:02:14Z</time>
      </trkpt>
      <trkpt lat="38.4407650" lon="-0.8707440">
        <ele>480.7</ele>
        <time>2020-10-12T11:02:17Z</time>
      </trkpt>
      <trkpt lat="38.4407300" lon="-0.8709830">
        <ele>481.3</ele>
        <time>2020-10-12T11:02:21Z</time>
      </trkpt>
      <trkpt lat="38.4406960" lon="-0.8712470">
        <ele>481.9</ele>
        <time>2020-10-12T11:02:25Z</time>
      </trkpt>
      <trkpt lat="38.4406650" lon="-0.8714990">
        <ele>482.4</ele>
        <time>2020-10-12T11:02:29Z</time>
      </trkpt>
      <trkpt lat="38.4406230" lon="-0.8717400">
        <ele>482.9</ele>
        <time>2020-10-12T11:02:33Z</time>
      </trkpt>
      <trkpt lat="38.4405760" lon="-0.8719690">
        <ele>483.2</ele>
        <time>2020-10-12T11:02:37Z</time>
      </trkpt>
      <trkpt lat="38.4405400" lon="-0.8722020">
        <ele>483.6</ele>
        <time>2020-10-12T11:02:41Z</time>
      </trkpt>
      <trkpt lat="38.4404970" lon="-0.8724490">
        <ele>483.9</ele>
        <time>2020-10-12T11:02:45Z</time>
      </trkpt>
      <trkpt lat="38.4404630" lon="-0.8727120">
        <ele>484.2</ele>
        <time>2020-10-12T11:02:50Z</time>
      </trkpt>
      <trkpt lat="38.4404240" lon="-0.8730530">
        <ele>484.8</ele>
        <time>2020-10-12T11:02:55Z</time>
      </trkpt>
      <trkpt lat="38.4403850" lon="-0.8733250">
        <ele>485.1</ele>
        <time>2020-10-12T11:02:59Z</time>
      </trkpt>
      <trkpt lat="38.4403420" lon="-0.8735750">
        <ele>485.4</ele>
        <time>2020-10-12T11:03:03Z</time>
      </trkpt>
      <trkpt lat="38.4403070" lon="-0.8738330">
        <ele>485.7</ele>
        <time>2020-10-12T11:03:07Z</time>
      </trkpt>
      <trkpt lat="38.4402940" lon="-0.8740990">
        <ele>486.0</ele>
        <time>2020-10-12T11:03:11Z</time>
      </trkpt>
      <trkpt lat="38.4402730" lon="-0.8743700">
        <ele>486.4</ele>
        <time>2020-10-12T11:03:15Z</time>
      </trkpt>
      <trkpt lat="38.4402600" lon="-0.8746440">
        <ele>486.9</ele>
        <time>2020-10-12T11:03:19Z</time>
      </trkpt>
      <trkpt lat="38.4402470" lon="-0.8749110">
        <ele>487.2</ele>
        <time>2020-10-12T11:03:23Z</time>
      </trkpt>
      <trkpt lat="38.4402420" lon="-0.8751660">
        <ele>487.6</ele>
        <time>2020-10-12T11:03:27Z</time>
      </trkpt>
      <trkpt lat="38.4402340" lon="-0.8754420">
        <ele>487.9</ele>
        <time>2020-10-12T11:03:31Z</time>
      </trkpt>
      <trkpt lat="38.4402340" lon="-0.8757440">
        <ele>488.2</ele>
        <time>2020-10-12T11:03:35Z</time>
      </trkpt>
      <trkpt lat="38.4402360" lon="-0.8759840">
        <ele>488.4</ele>
        <time>2020-10-12T11:03:38Z</time>
      </trkpt>
      <trkpt lat="38.4402510" lon="-0.8762740">
        <ele>488.5</ele>
        <time>2020-10-12T11:03:42Z</time>
      </trkpt>
      <trkpt lat="38.4402800" lon="-0.8765590">
        <ele>488.5</ele>
        <time>2020-10-12T11:03:46Z</time>
      </trkpt>
      <trkpt lat="38.4403130" lon="-0.8768610">
        <ele>488.5</ele>
        <time>2020-10-12T11:03:50Z</time>
      </trkpt>
      <trkpt lat="38.4403480" lon="-0.8770900">
        <ele>488.5</ele>
        <time>2020-10-12T11:03:53Z</time>
      </trkpt>
      <trkpt lat="38.4404090" lon="-0.8773890">
        <ele>488.5</ele>
        <time>2020-10-12T11:03:57Z</time>
      </trkpt>
      <trkpt lat="38.4404690" lon="-0.8776190">
        <ele>488.4</ele>
        <time>2020-10-12T11:04:00Z</time>
      </trkpt>
      <trkpt lat="38.4405250" lon="-0.8778420">
        <ele>488.4</ele>
        <time>2020-10-12T11:04:03Z</time>
      </trkpt>
      <trkpt lat="38.4405810" lon="-0.8780640">
        <ele>488.4</ele>
        <time>2020-10-12T11:04:06Z</time>
      </trkpt>
      <trkpt lat="38.4406460" lon="-0.8782960">
        <ele>488.5</ele>
        <time>2020-10-12T11:04:09Z</time>
      </trkpt>
      <trkpt lat="38.4406990" lon="-0.8785300">
        <ele>488.4</ele>
        <time>2020-10-12T11:04:12Z</time>
      </trkpt>
      <trkpt lat="38.4407750" lon="-0.8788030">
        <ele>488.8</ele>
        <time>2020-10-12T11:04:16Z</time>
      </trkpt>
      <trkpt lat="38.4408470" lon="-0.8790510">
        <ele>489.8</ele>
        <time>2020-10-12T11:04:20Z</time>
      </trkpt>
      <trkpt lat="38.4409170" lon="-0.8792950">
        <ele>491.1</ele>
        <time>2020-10-12T11:04:24Z</time>
      </trkpt>
      <trkpt lat="38.4409800" lon="-0.8795260">
        <ele>492.4</ele>
        <time>2020-10-12T11:04:30Z</time>
      </trkpt>
      <trkpt lat="38.4409930" lon="-0.8797570">
        <ele>493.6</ele>
        <time>2020-10-12T11:04:35Z</time>
      </trkpt>
      <trkpt lat="38.4410450" lon="-0.8800110">
        <ele>495.2</ele>
        <time>2020-10-12T11:04:39Z</time>
      </trkpt>
      <trkpt lat="38.4410650" lon="-0.8802740">
        <ele>496.6</ele>
        <time>2020-10-12T11:04:43Z</time>
      </trkpt>
      <trkpt lat="38.4410780" lon="-0.8805370">
        <ele>497.8</ele>
        <time>2020-10-12T11:04:47Z</time>
      </trkpt>
      <trkpt lat="38.4410960" lon="-0.8807740">
        <ele>499.0</ele>
        <time>2020-10-12T11:04:51Z</time>
      </trkpt>
      <trkpt lat="38.4411070" lon="-0.8810170">
        <ele>500.3</ele>
        <time>2020-10-12T11:04:55Z</time>
      </trkpt>
      <trkpt lat="38.4411060" lon="-0.8812520">
        <ele>501.3</ele>
        <time>2020-10-12T11:04:59Z</time>
      </trkpt>
      <trkpt lat="38.4411050" lon="-0.8814830">
        <ele>502.2</ele>
        <time>2020-10-12T11:05:03Z</time>
      </trkpt>
      <trkpt lat="38.4410970" lon="-0.8817330">
        <ele>503.0</ele>
        <time>2020-10-12T11:05:07Z</time>
      </trkpt>
      <trkpt lat="38.4411020" lon="-0.8819980">
        <ele>503.8</ele>
        <time>2020-10-12T11:05:12Z</time>
      </trkpt>
      <trkpt lat="38.4411110" lon="-0.8822490">
        <ele>504.3</ele>
        <time>2020-10-12T11:05:16Z</time>
      </trkpt>
      <trkpt lat="38.4410960" lon="-0.8825220">
        <ele>504.8</ele>
        <time>2020-10-12T11:05:21Z</time>
      </trkpt>
      <trkpt lat="38.4410690" lon="-0.8828000">
        <ele>505.1</ele>
        <time>2020-10-12T11:05:25Z</time>
      </trkpt>
      <trkpt lat="38.4410490" lon="-0.8830650">
        <ele>505.1</ele>
        <time>2020-10-12T11:05:29Z</time>
      </trkpt>
      <trkpt lat="38.4410500" lon="-0.8833500">
        <ele>505.0</ele>
        <time>2020-10-12T11:05:33Z</time>
      </trkpt>
      <trkpt lat="38.4410380" lon="-0.8836350">
        <ele>504.7</ele>
        <time>2020-10-12T11:05:37Z</time>
      </trkpt>
      <trkpt lat="38.4410290" lon="-0.8838690">
        <ele>504.2</ele>
        <time>2020-10-12T11:05:40Z</time>
      </trkpt>
      <trkpt lat="38.4410200" lon="-0.8841260">
        <ele>503.7</ele>
        <time>2020-10-12T11:05:43Z</time>
      </trkpt>
      <trkpt lat="38.4410420" lon="-0.8844140">
        <ele>503.1</ele>
        <time>2020-10-12T11:05:47Z</time>
      </trkpt>
      <trkpt lat="38.4410290" lon="-0.8846600">
        <ele>502.6</ele>
        <time>2020-10-12T11:05:50Z</time>
      </trkpt>
      <trkpt lat="38.4410220" lon="-0.8849430">
        <ele>501.8</ele>
        <time>2020-10-12T11:05:53Z</time>
      </trkpt>
      <trkpt lat="38.4409990" lon="-0.8852240">
        <ele>501.1</ele>
        <time>2020-10-12T11:05:56Z</time>
      </trkpt>
      <trkpt lat="38.4409730" lon="-0.8854970">
        <ele>500.5</ele>
        <time>2020-10-12T11:05:59Z</time>
      </trkpt>
      <trkpt lat="38.4409490" lon="-0.8857630">
        <ele>500.2</ele>
        <time>2020-10-12T11:06:02Z</time>
      </trkpt>
      <trkpt lat="38.4409130" lon="-0.8860300">
        <ele>499.8</ele>
        <time>2020-10-12T11:06:05Z</time>
      </trkpt>
      <trkpt lat="38.4408880" lon="-0.8862990">
        <ele>499.6</ele>
        <time>2020-10-12T11:06:08Z</time>
      </trkpt>
      <trkpt lat="38.4408710" lon="-0.8865550">
        <ele>499.6</ele>
        <time>2020-10-12T11:06:11Z</time>
      </trkpt>
      <trkpt lat="38.4408520" lon="-0.8867980">
        <ele>499.7</ele>
        <time>2020-10-12T11:06:14Z</time>
      </trkpt>
      <trkpt lat="38.4408130" lon="-0.8870350">
        <ele>500.0</ele>
        <time>2020-10-12T11:06:17Z</time>
      </trkpt>
      <trkpt lat="38.4407570" lon="-0.8873330">
        <ele>500.5</ele>
        <time>2020-10-12T11:06:21Z</time>
      </trkpt>
      <trkpt lat="38.4407270" lon="-0.8875670">
        <ele>500.8</ele>
        <time>2020-10-12T11:06:24Z</time>
      </trkpt>
      <trkpt lat="38.4406930" lon="-0.8877960">
        <ele>501.2</ele>
        <time>2020-10-12T11:06:27Z</time>
      </trkpt>
      <trkpt lat="38.4406500" lon="-0.8880330">
        <ele>501.7</ele>
        <time>2020-10-12T11:06:30Z</time>
      </trkpt>
      <trkpt lat="38.4406020" lon="-0.8882800">
        <ele>502.0</ele>
        <time>2020-10-12T11:06:33Z</time>
      </trkpt>
      <trkpt lat="38.4405480" lon="-0.8885020">
        <ele>502.4</ele>
        <time>2020-10-12T11:06:36Z</time>
      </trkpt>
      <trkpt lat="38.4405000" lon="-0.8887240">
        <ele>502.8</ele>
        <time>2020-10-12T11:06:39Z</time>
      </trkpt>
      <trkpt lat="38.4404430" lon="-0.8890110">
        <ele>503.6</ele>
        <time>2020-10-12T11:06:43Z</time>
      </trkpt>
      <trkpt lat="38.4403680" lon="-0.8892810">
        <ele>504.4</ele>
        <time>2020-10-12T11:06:47Z</time>
      </trkpt>
      <trkpt lat="38.4403050" lon="-0.8895450">
        <ele>505.3</ele>
        <time>2020-10-12T11:06:51Z</time>
      </trkpt>
      <trkpt lat="38.4402610" lon="-0.8898290">
        <ele>506.4</ele>
        <time>2020-10-12T11:06:55Z</time>
      </trkpt>
      <trkpt lat="38.4401960" lon="-0.8901060">
        <ele>507.5</ele>
        <time>2020-10-12T11:06:59Z</time>
      </trkpt>
      <trkpt lat="38.4401340" lon="-0.8903630">
        <ele>508.5</ele>
        <time>2020-10-12T11:07:03Z</time>
      </trkpt>
      <trkpt lat="38.4400600" lon="-0.8906150">
        <ele>509.6</ele>
        <time>2020-10-12T11:07:07Z</time>
      </trkpt>
      <trkpt lat="38.4399940" lon="-0.8908810">
        <ele>510.6</ele>
        <time>2020-10-12T11:07:11Z</time>
      </trkpt>
      <trkpt lat="38.4399300" lon="-0.8911370">
        <ele>511.6</ele>
        <time>2020-10-12T11:07:15Z</time>
      </trkpt>
      <trkpt lat="38.4398700" lon="-0.8913900">
        <ele>512.5</ele>
        <time>2020-10-12T11:07:19Z</time>
      </trkpt>
      <trkpt lat="38.4398100" lon="-0.8916650">
        <ele>513.5</ele>
        <time>2020-10-12T11:07:23Z</time>
      </trkpt>
      <trkpt lat="38.4397260" lon="-0.8919310">
        <ele>514.5</ele>
        <time>2020-10-12T11:07:27Z</time>
      </trkpt>
      <trkpt lat="38.4396710" lon="-0.8921820">
        <ele>515.4</ele>
        <time>2020-10-12T11:07:31Z</time>
      </trkpt>
      <trkpt lat="38.4396300" lon="-0.8924630">
        <ele>516.3</ele>
        <time>2020-10-12T11:07:35Z</time>
      </trkpt>
      <trkpt lat="38.4395670" lon="-0.8927260">
        <ele>517.3</ele>
        <time>2020-10-12T11:07:39Z</time>
      </trkpt>
      <trkpt lat="38.4395190" lon="-0.8929870">
        <ele>518.3</ele>
        <time>2020-10-12T11:07:43Z</time>
      </trkpt>
      <trkpt lat="38.4394630" lon="-0.8932580">
        <ele>519.3</ele>
        <time>2020-10-12T11:07:47Z</time>
      </trkpt>
      <trkpt lat="38.4394100" lon="-0.8935110">
        <ele>520.2</ele>
        <time>2020-10-12T11:07:51Z</time>
      </trkpt>
      <trkpt lat="38.4393580" lon="-0.8937680">
        <ele>521.1</ele>
        <time>2020-10-12T11:07:55Z</time>
      </trkpt>
      <trkpt lat="38.4393020" lon="-0.8940120">
        <ele>522.0</ele>
        <time>2020-10-12T11:07:59Z</time>
      </trkpt>
      <trkpt lat="38.4392610" lon="-0.8942450">
        <ele>522.7</ele>
        <time>2020-10-12T11:08:03Z</time>
      </trkpt>
      <trkpt lat="38.4391930" lon="-0.8945150">
        <ele>523.6</ele>
        <time>2020-10-12T11:08:07Z</time>
      </trkpt>
      <trkpt lat="38.4391410" lon="-0.8947700">
        <ele>524.3</ele>
        <time>2020-10-12T11:08:11Z</time>
      </trkpt>
      <trkpt lat="38.4390860" lon="-0.8950450">
        <ele>524.8</ele>
        <time>2020-10-12T11:08:15Z</time>
      </trkpt>
      <trkpt lat="38.4390160" lon="-0.8953230">
        <ele>525.1</ele>
        <time>2020-10-12T11:08:19Z</time>
      </trkpt>
      <trkpt lat="38.4389560" lon="-0.8956100">
        <ele>525.2</ele>
        <time>2020-10-12T11:08:23Z</time>
      </trkpt>
      <trkpt lat="38.4389110" lon="-0.8959020">
        <ele>525.5</ele>
        <time>2020-10-12T11:08:27Z</time>
      </trkpt>
      <trkpt lat="38.4388540" lon="-0.8961910">
        <ele>525.8</ele>
        <time>2020-10-12T11:08:31Z</time>
      </trkpt>
      <trkpt lat="38.4388060" lon="-0.8964160">
        <ele>525.9</ele>
        <time>2020-10-12T11:08:34Z</time>
      </trkpt>
      <trkpt lat="38.4387560" lon="-0.8966380">
        <ele>526.2</ele>
        <time>2020-10-12T11:08:37Z</time>
      </trkpt>
      <trkpt lat="38.4387040" lon="-0.8968650">
        <ele>526.4</ele>
        <time>2020-10-12T11:08:40Z</time>
      </trkpt>
      <trkpt lat="38.4386500" lon="-0.8971490">
        <ele>526.6</ele>
        <time>2020-10-12T11:08:44Z</time>
      </trkpt>
      <trkpt lat="38.4385820" lon="-0.8974300">
        <ele>526.7</ele>
        <time>2020-10-12T11:08:48Z</time>
      </trkpt>
      <trkpt lat="38.4385070" lon="-0.8977110">
        <ele>526.9</ele>
        <time>2020-10-12T11:08:52Z</time>
      </trkpt>
      <trkpt lat="38.4384560" lon="-0.8979390">
        <ele>527.1</ele>
        <time>2020-10-12T11:08:55Z</time>
      </trkpt>
      <trkpt lat="38.4384140" lon="-0.8981730">
        <ele>527.2</ele>
        <time>2020-10-12T11:08:58Z</time>
      </trkpt>
      <trkpt lat="38.4383510" lon="-0.8983920">
        <ele>527.2</ele>
        <time>2020-10-12T11:09:01Z</time>
      </trkpt>
      <trkpt lat="38.4382960" lon="-0.8986300">
        <ele>527.2</ele>
        <time>2020-10-12T11:09:04Z</time>
      </trkpt>
      <trkpt lat="38.4382430" lon="-0.8988680">
        <ele>527.3</ele>
        <time>2020-10-12T11:09:07Z</time>
      </trkpt>
      <trkpt lat="38.4381900" lon="-0.8990900">
        <ele>527.5</ele>
        <time>2020-10-12T11:09:10Z</time>
      </trkpt>
      <trkpt lat="38.4381410" lon="-0.8993150">
        <ele>527.8</ele>
        <time>2020-10-12T11:09:13Z</time>
      </trkpt>
      <trkpt lat="38.4380890" lon="-0.8995560">
        <ele>528.1</ele>
        <time>2020-10-12T11:09:16Z</time>
      </trkpt>
      <trkpt lat="38.4380400" lon="-0.8997940">
        <ele>528.3</ele>
        <time>2020-10-12T11:09:19Z</time>
      </trkpt>
      <trkpt lat="38.4379860" lon="-0.9000210">
        <ele>528.7</ele>
        <time>2020-10-12T11:09:22Z</time>
      </trkpt>
      <trkpt lat="38.4379390" lon="-0.9002470">
        <ele>529.1</ele>
        <time>2020-10-12T11:09:25Z</time>
      </trkpt>
      <trkpt lat="38.4378940" lon="-0.9004700">
        <ele>529.6</ele>
        <time>2020-10-12T11:09:28Z</time>
      </trkpt>
      <trkpt lat="38.4378260" lon="-0.9007610">
        <ele>530.0</ele>
        <time>2020-10-12T11:09:32Z</time>
      </trkpt>
      <trkpt lat="38.4377660" lon="-0.9010470">
        <ele>530.4</ele>
        <time>2020-10-12T11:09:36Z</time>
      </trkpt>
      <trkpt lat="38.4376990" lon="-0.9013340">
        <ele>530.8</ele>
        <time>2020-10-12T11:09:40Z</time>
      </trkpt>
      <trkpt lat="38.4376390" lon="-0.9016200">
        <ele>531.3</ele>
        <time>2020-10-12T11:09:44Z</time>
      </trkpt>
      <trkpt lat="38.4375880" lon="-0.9018980">
        <ele>531.8</ele>
        <time>2020-10-12T11:09:48Z</time>
      </trkpt>
      <trkpt lat="38.4375270" lon="-0.9021860">
        <ele>532.2</ele>
        <time>2020-10-12T11:09:52Z</time>
      </trkpt>
      <trkpt lat="38.4374650" lon="-0.9024770">
        <ele>532.7</ele>
        <time>2020-10-12T11:09:56Z</time>
      </trkpt>
      <trkpt lat="38.4373920" lon="-0.9027650">
        <ele>533.2</ele>
        <time>2020-10-12T11:10:00Z</time>
      </trkpt>
      <trkpt lat="38.4373200" lon="-0.9030470">
        <ele>533.7</ele>
        <time>2020-10-12T11:10:04Z</time>
      </trkpt>
      <trkpt lat="38.4372570" lon="-0.9033300">
        <ele>534.3</ele>
        <time>2020-10-12T11:10:08Z</time>
      </trkpt>
      <trkpt lat="38.4371990" lon="-0.9036120">
        <ele>534.7</ele>
        <time>2020-10-12T11:10:12Z</time>
      </trkpt>
      <trkpt lat="38.4371390" lon="-0.9038930">
        <ele>535.1</ele>
        <time>2020-10-12T11:10:16Z</time>
      </trkpt>
      <trkpt lat="38.4370750" lon="-0.9041840">
        <ele>535.6</ele>
        <time>2020-10-12T11:10:20Z</time>
      </trkpt>
      <trkpt lat="38.4370120" lon="-0.9044700">
        <ele>535.9</ele>
        <time>2020-10-12T11:10:24Z</time>
      </trkpt>
      <trkpt lat="38.4369710" lon="-0.9047010">
        <ele>536.0</ele>
        <time>2020-10-12T11:10:27Z</time>
      </trkpt>
      <trkpt lat="38.4369200" lon="-0.9049330">
        <ele>536.1</ele>
        <time>2020-10-12T11:10:30Z</time>
      </trkpt>
      <trkpt lat="38.4368610" lon="-0.9051680">
        <ele>536.4</ele>
        <time>2020-10-12T11:10:33Z</time>
      </trkpt>
      <trkpt lat="38.4368050" lon="-0.9054060">
        <ele>536.5</ele>
        <time>2020-10-12T11:10:36Z</time>
      </trkpt>
      <trkpt lat="38.4367520" lon="-0.9056570">
        <ele>536.4</ele>
        <time>2020-10-12T11:10:39Z</time>
      </trkpt>
      <trkpt lat="38.4367020" lon="-0.9059230">
        <ele>536.0</ele>
        <time>2020-10-12T11:10:42Z</time>
      </trkpt>
      <trkpt lat="38.4366440" lon="-0.9061780">
        <ele>535.4</ele>
        <time>2020-10-12T11:10:45Z</time>
      </trkpt>
      <trkpt lat="38.4365790" lon="-0.9064360">
        <ele>534.8</ele>
        <time>2020-10-12T11:10:48Z</time>
      </trkpt>
      <trkpt lat="38.4365230" lon="-0.9067010">
        <ele>534.1</ele>
        <time>2020-10-12T11:10:51Z</time>
      </trkpt>
      <trkpt lat="38.4364610" lon="-0.9069720">
        <ele>533.3</ele>
        <time>2020-10-12T11:10:54Z</time>
      </trkpt>
      <trkpt lat="38.4364010" lon="-0.9072450">
        <ele>532.4</ele>
        <time>2020-10-12T11:10:57Z</time>
      </trkpt>
      <trkpt lat="38.4363380" lon="-0.9075510">
        <ele>531.3</ele>
        <time>2020-10-12T11:11:00Z</time>
      </trkpt>
      <trkpt lat="38.4362740" lon="-0.9078670">
        <ele>530.3</ele>
        <time>2020-10-12T11:11:03Z</time>
      </trkpt>
      <trkpt lat="38.4362060" lon="-0.9081860">
        <ele>529.3</ele>
        <time>2020-10-12T11:11:06Z</time>
      </trkpt>
      <trkpt lat="38.4361490" lon="-0.9084060">
        <ele>528.5</ele>
        <time>2020-10-12T11:11:08Z</time>
      </trkpt>
      <trkpt lat="38.4360930" lon="-0.9086270">
        <ele>527.8</ele>
        <time>2020-10-12T11:11:10Z</time>
      </trkpt>
      <trkpt lat="38.4360330" lon="-0.9088600">
        <ele>527.0</ele>
        <time>2020-10-12T11:11:12Z</time>
      </trkpt>
      <trkpt lat="38.4359640" lon="-0.9090950">
        <ele>526.2</ele>
        <time>2020-10-12T11:11:14Z</time>
      </trkpt>
      <trkpt lat="38.4358960" lon="-0.9093230">
        <ele>525.6</ele>
        <time>2020-10-12T11:11:16Z</time>
      </trkpt>
      <trkpt lat="38.4358220" lon="-0.9095600">
        <ele>525.0</ele>
        <time>2020-10-12T11:11:18Z</time>
      </trkpt>
      <trkpt lat="38.4357460" lon="-0.9097930">
        <ele>524.3</ele>
        <time>2020-10-12T11:11:20Z</time>
      </trkpt>
      <trkpt lat="38.4356690" lon="-0.9100240">
        <ele>523.7</ele>
        <time>2020-10-12T11:11:22Z</time>
      </trkpt>
      <trkpt lat="38.4355880" lon="-0.9102500">
        <ele>523.0</ele>
        <time>2020-10-12T11:11:24Z</time>
      </trkpt>
      <trkpt lat="38.4355120" lon="-0.9104660">
        <ele>522.6</ele>
        <time>2020-10-12T11:11:26Z</time>
      </trkpt>
      <trkpt lat="38.4354220" lon="-0.9106750">
        <ele>522.3</ele>
        <time>2020-10-12T11:11:28Z</time>
      </trkpt>
      <trkpt lat="38.4353380" lon="-0.9108980">
        <ele>521.7</ele>
        <time>2020-10-12T11:11:30Z</time>
      </trkpt>
      <trkpt lat="38.4352450" lon="-0.9111280">
        <ele>521.0</ele>
        <time>2020-10-12T11:11:32Z</time>
      </trkpt>
      <trkpt lat="38.4351600" lon="-0.9113600">
        <ele>520.3</ele>
        <time>2020-10-12T11:11:34Z</time>
      </trkpt>
      <trkpt lat="38.4350810" lon="-0.9115850">
        <ele>519.7</ele>
        <time>2020-10-12T11:11:36Z</time>
      </trkpt>
      <trkpt lat="38.4350020" lon="-0.9118160">
        <ele>518.9</ele>
        <time>2020-10-12T11:11:38Z</time>
      </trkpt>
      <trkpt lat="38.4349210" lon="-0.9120570">
        <ele>518.1</ele>
        <time>2020-10-12T11:11:40Z</time>
      </trkpt>
      <trkpt lat="38.4348340" lon="-0.9123060">
        <ele>517.3</ele>
        <time>2020-10-12T11:11:42Z</time>
      </trkpt>
      <trkpt lat="38.4347540" lon="-0.9125530">
        <ele>516.5</ele>
        <time>2020-10-12T11:11:44Z</time>
      </trkpt>
      <trkpt lat="38.4346530" lon="-0.9127910">
        <ele>515.6</ele>
        <time>2020-10-12T11:11:46Z</time>
      </trkpt>
      <trkpt lat="38.4345630" lon="-0.9130180">
        <ele>514.8</ele>
        <time>2020-10-12T11:11:48Z</time>
      </trkpt>
      <trkpt lat="38.4344840" lon="-0.9132530">
        <ele>514.0</ele>
        <time>2020-10-12T11:11:50Z</time>
      </trkpt>
      <trkpt lat="38.4344050" lon="-0.9134830">
        <ele>513.2</ele>
        <time>2020-10-12T11:11:52Z</time>
      </trkpt>
      <trkpt lat="38.4343260" lon="-0.9137120">
        <ele>512.5</ele>
        <time>2020-10-12T11:11:54Z</time>
      </trkpt>
      <trkpt lat="38.4342610" lon="-0.9139390">
        <ele>511.8</ele>
        <time>2020-10-12T11:11:56Z</time>
      </trkpt>
      <trkpt lat="38.4341890" lon="-0.9141600">
        <ele>511.1</ele>
        <time>2020-10-12T11:11:58Z</time>
      </trkpt>
      <trkpt lat="38.4341040" lon="-0.9143740">
        <ele>510.5</ele>
        <time>2020-10-12T11:12:00Z</time>
      </trkpt>
      <trkpt lat="38.4340090" lon="-0.9145940">
        <ele>509.8</ele>
        <time>2020-10-12T11:12:02Z</time>
      </trkpt>
      <trkpt lat="38.4339220" lon="-0.9148240">
        <ele>509.1</ele>
        <time>2020-10-12T11:12:04Z</time>
      </trkpt>
      <trkpt lat="38.4338260" lon="-0.9150560">
        <ele>508.4</ele>
        <time>2020-10-12T11:12:06Z</time>
      </trkpt>
      <trkpt lat="38.4337360" lon="-0.9152950">
        <ele>507.7</ele>
        <time>2020-10-12T11:12:08Z</time>
      </trkpt>
      <trkpt lat="38.4336410" lon="-0.9155380">
        <ele>507.1</ele>
        <time>2020-10-12T11:12:10Z</time>
      </trkpt>
      <trkpt lat="38.4335430" lon="-0.9157750">
        <ele>506.4</ele>
        <time>2020-10-12T11:12:12Z</time>
      </trkpt>
      <trkpt lat="38.4334800" lon="-0.9159940">
        <ele>505.9</ele>
        <time>2020-10-12T11:12:14Z</time>
      </trkpt>
      <trkpt lat="38.4333860" lon="-0.9163120">
        <ele>505.1</ele>
        <time>2020-10-12T11:12:17Z</time>
      </trkpt>
      <trkpt lat="38.4332940" lon="-0.9166310">
        <ele>504.3</ele>
        <time>2020-10-12T11:12:20Z</time>
      </trkpt>
      <trkpt lat="38.4331920" lon="-0.9169310">
        <ele>503.5</ele>
        <time>2020-10-12T11:12:23Z</time>
      </trkpt>
      <trkpt lat="38.4330800" lon="-0.9172370">
        <ele>502.8</ele>
        <time>2020-10-12T11:12:26Z</time>
      </trkpt>
      <trkpt lat="38.4330060" lon="-0.9174510">
        <ele>502.3</ele>
        <time>2020-10-12T11:12:28Z</time>
      </trkpt>
      <trkpt lat="38.4329050" lon="-0.9177600">
        <ele>501.6</ele>
        <time>2020-10-12T11:12:31Z</time>
      </trkpt>
      <trkpt lat="38.4328370" lon="-0.9180670">
        <ele>501.0</ele>
        <time>2020-10-12T11:12:34Z</time>
      </trkpt>
      <trkpt lat="38.4328110" lon="-0.9183860">
        <ele>500.8</ele>
        <time>2020-10-12T11:12:37Z</time>
      </trkpt>
      <trkpt lat="38.4326470" lon="-0.9185890">
        <ele>500.7</ele>
        <time>2020-10-12T11:12:40Z</time>
      </trkpt>
      <trkpt lat="38.4323990" lon="-0.9185210">
        <ele>501.1</ele>
        <time>2020-10-12T11:12:43Z</time>
      </trkpt>
      <trkpt lat="38.4321720" lon="-0.9183610">
        <ele>500.0</ele>
        <time>2020-10-12T11:12:46Z</time>
      </trkpt>
      <trkpt lat="38.4319200" lon="-0.9183460">
        <ele>499.4</ele>
        <time>2020-10-12T11:12:49Z</time>
      </trkpt>
      <trkpt lat="38.4316740" lon="-0.9183750">
        <ele>499.2</ele>
        <time>2020-10-12T11:12:52Z</time>
      </trkpt>
      <trkpt lat="38.4314340" lon="-0.9184090">
        <ele>498.9</ele>
        <time>2020-10-12T11:12:55Z</time>
      </trkpt>
      <trkpt lat="38.4312200" lon="-0.9184220">
        <ele>498.7</ele>
        <time>2020-10-12T11:12:58Z</time>
      </trkpt>
      <trkpt lat="38.4310060" lon="-0.9183990">
        <ele>498.5</ele>
        <time>2020-10-12T11:13:01Z</time>
      </trkpt>
      <trkpt lat="38.4307790" lon="-0.9183760">
        <ele>498.4</ele>
        <time>2020-10-12T11:13:04Z</time>
      </trkpt>
      <trkpt lat="38.4305610" lon="-0.9183600">
        <ele>498.2</ele>
        <time>2020-10-12T11:13:07Z</time>
      </trkpt>
      <trkpt lat="38.4303450" lon="-0.9183760">
        <ele>498.0</ele>
        <time>2020-10-12T11:13:10Z</time>
      </trkpt>
      <trkpt lat="38.4301190" lon="-0.9184000">
        <ele>497.9</ele>
        <time>2020-10-12T11:13:13Z</time>
      </trkpt>
      <trkpt lat="38.4298820" lon="-0.9184180">
        <ele>497.7</ele>
        <time>2020-10-12T11:13:16Z</time>
      </trkpt>
      <trkpt lat="38.4296490" lon="-0.9184110">
        <ele>497.7</ele>
        <time>2020-10-12T11:13:19Z</time>
      </trkpt>
      <trkpt lat="38.4294170" lon="-0.9183840">
        <ele>497.6</ele>
        <time>2020-10-12T11:13:22Z</time>
      </trkpt>
      <trkpt lat="38.4291940" lon="-0.9183520">
        <ele>497.5</ele>
        <time>2020-10-12T11:13:25Z</time>
      </trkpt>
      <trkpt lat="38.4289620" lon="-0.9183540">
        <ele>497.3</ele>
        <time>2020-10-12T11:13:28Z</time>
      </trkpt>
      <trkpt lat="38.4287330" lon="-0.9183940">
        <ele>497.1</ele>
        <time>2020-10-12T11:13:31Z</time>
      </trkpt>
      <trkpt lat="38.4284990" lon="-0.9184400">
        <ele>496.9</ele>
        <time>2020-10-12T11:13:34Z</time>
      </trkpt>
      <trkpt lat="38.4282690" lon="-0.9184890">
        <ele>496.7</ele>
        <time>2020-10-12T11:13:37Z</time>
      </trkpt>
      <trkpt lat="38.4280510" lon="-0.9185110">
        <ele>496.6</ele>
        <time>2020-10-12T11:13:40Z</time>
      </trkpt>
      <trkpt lat="38.4278320" lon="-0.9185160">
        <ele>496.5</ele>
        <time>2020-10-12T11:13:43Z</time>
      </trkpt>
      <trkpt lat="38.4276080" lon="-0.9185270">
        <ele>496.5</ele>
        <time>2020-10-12T11:13:46Z</time>
      </trkpt>
      <trkpt lat="38.4273830" lon="-0.9185190">
        <ele>496.5</ele>
        <time>2020-10-12T11:13:49Z</time>
      </trkpt>
      <trkpt lat="38.4271630" lon="-0.9184780">
        <ele>496.5</ele>
        <time>2020-10-12T11:13:52Z</time>
      </trkpt>
      <trkpt lat="38.4269300" lon="-0.9184340">
        <ele>496.4</ele>
        <time>2020-10-12T11:13:55Z</time>
      </trkpt>
      <trkpt lat="38.4266990" lon="-0.9183890">
        <ele>496.2</ele>
        <time>2020-10-12T11:13:58Z</time>
      </trkpt>
      <trkpt lat="38.4264790" lon="-0.9183380">
        <ele>496.0</ele>
        <time>2020-10-12T11:14:01Z</time>
      </trkpt>
      <trkpt lat="38.4262640" lon="-0.9182860">
        <ele>496.0</ele>
        <time>2020-10-12T11:14:04Z</time>
      </trkpt>
      <trkpt lat="38.4260590" lon="-0.9182030">
        <ele>496.0</ele>
        <time>2020-10-12T11:14:07Z</time>
      </trkpt>
      <trkpt lat="38.4258430" lon="-0.9181090">
        <ele>496.1</ele>
        <time>2020-10-12T11:14:10Z</time>
      </trkpt>
      <trkpt lat="38.4256220" lon="-0.9180170">
        <ele>496.0</ele>
        <time>2020-10-12T11:14:13Z</time>
      </trkpt>
      <trkpt lat="38.4254120" lon="-0.9179260">
        <ele>496.0</ele>
        <time>2020-10-12T11:14:16Z</time>
      </trkpt>
      <trkpt lat="38.4251880" lon="-0.9179090">
        <ele>495.8</ele>
        <time>2020-10-12T11:14:19Z</time>
      </trkpt>
      <trkpt lat="38.4249380" lon="-0.9179200">
        <ele>495.7</ele>
        <time>2020-10-12T11:14:22Z</time>
      </trkpt>
      <trkpt lat="38.4246920" lon="-0.9179320">
        <ele>495.6</ele>
        <time>2020-10-12T11:14:25Z</time>
      </trkpt>
      <trkpt lat="38.4244600" lon="-0.9179480">
        <ele>495.4</ele>
        <time>2020-10-12T11:14:28Z</time>
      </trkpt>
      <trkpt lat="38.4242160" lon="-0.9179670">
        <ele>495.4</ele>
        <time>2020-10-12T11:14:31Z</time>
      </trkpt>
      <trkpt lat="38.4239750" lon="-0.9179580">
        <ele>495.8</ele>
        <time>2020-10-12T11:14:34Z</time>
      </trkpt>
      <trkpt lat="38.4237400" lon="-0.9179270">
        <ele>495.8</ele>
        <time>2020-10-12T11:14:37Z</time>
      </trkpt>
      <trkpt lat="38.4235150" lon="-0.9178970">
        <ele>495.8</ele>
        <time>2020-10-12T11:14:40Z</time>
      </trkpt>
      <trkpt lat="38.4232910" lon="-0.9178620">
        <ele>495.8</ele>
        <time>2020-10-12T11:14:43Z</time>
      </trkpt>
      <trkpt lat="38.4230700" lon="-0.9178230">
        <ele>495.7</ele>
        <time>2020-10-12T11:14:46Z</time>
      </trkpt>
      <trkpt lat="38.4228470" lon="-0.9177750">
        <ele>495.7</ele>
        <time>2020-10-12T11:14:49Z</time>
      </trkpt>
      <trkpt lat="38.4226140" lon="-0.9177370">
        <ele>495.7</ele>
        <time>2020-10-12T11:14:52Z</time>
      </trkpt>
      <trkpt lat="38.4223840" lon="-0.9177050">
        <ele>495.7</ele>
        <time>2020-10-12T11:14:55Z</time>
      </trkpt>
      <trkpt lat="38.4221720" lon="-0.9176460">
        <ele>495.7</ele>
        <time>2020-10-12T11:14:58Z</time>
      </trkpt>
      <trkpt lat="38.4219490" lon="-0.9176090">
        <ele>495.6</ele>
        <time>2020-10-12T11:15:01Z</time>
      </trkpt>
      <trkpt lat="38.4217370" lon="-0.9175480">
        <ele>495.4</ele>
        <time>2020-10-12T11:15:04Z</time>
      </trkpt>
      <trkpt lat="38.4215100" lon="-0.9174640">
        <ele>495.1</ele>
        <time>2020-10-12T11:15:07Z</time>
      </trkpt>
      <trkpt lat="38.4212750" lon="-0.9174060">
        <ele>494.8</ele>
        <time>2020-10-12T11:15:10Z</time>
      </trkpt>
      <trkpt lat="38.4210460" lon="-0.9173410">
        <ele>494.6</ele>
        <time>2020-10-12T11:15:13Z</time>
      </trkpt>
      <trkpt lat="38.4208200" lon="-0.9172700">
        <ele>494.4</ele>
        <time>2020-10-12T11:15:16Z</time>
      </trkpt>
      <trkpt lat="38.4205900" lon="-0.9171850">
        <ele>494.2</ele>
        <time>2020-10-12T11:15:19Z</time>
      </trkpt>
      <trkpt lat="38.4203580" lon="-0.9171040">
        <ele>494.1</ele>
        <time>2020-10-12T11:15:22Z</time>
      </trkpt>
      <trkpt lat="38.4201300" lon="-0.9170130">
        <ele>494.0</ele>
        <time>2020-10-12T11:15:25Z</time>
      </trkpt>
      <trkpt lat="38.4199120" lon="-0.9169350">
        <ele>494.0</ele>
        <time>2020-10-12T11:15:28Z</time>
      </trkpt>
      <trkpt lat="38.4196980" lon="-0.9168610">
        <ele>494.0</ele>
        <time>2020-10-12T11:15:31Z</time>
      </trkpt>
      <trkpt lat="38.4194900" lon="-0.9167850">
        <ele>494.0</ele>
        <time>2020-10-12T11:15:34Z</time>
      </trkpt>
      <trkpt lat="38.4192690" lon="-0.9166850">
        <ele>494.0</ele>
        <time>2020-10-12T11:15:37Z</time>
      </trkpt>
      <trkpt lat="38.4190540" lon="-0.9165900">
        <ele>494.0</ele>
        <time>2020-10-12T11:15:40Z</time>
      </trkpt>
      <trkpt lat="38.4188410" lon="-0.9165150">
        <ele>494.1</ele>
        <time>2020-10-12T11:15:43Z</time>
      </trkpt>
      <trkpt lat="38.4186310" lon="-0.9164530">
        <ele>494.2</ele>
        <time>2020-10-12T11:15:46Z</time>
      </trkpt>
      <trkpt lat="38.4184120" lon="-0.9164100">
        <ele>494.2</ele>
        <time>2020-10-12T11:15:49Z</time>
      </trkpt>
      <trkpt lat="38.4181950" lon="-0.9164030">
        <ele>494.3</ele>
        <time>2020-10-12T11:15:52Z</time>
      </trkpt>
      <trkpt lat="38.4179720" lon="-0.9164220">
        <ele>494.4</ele>
        <time>2020-10-12T11:15:55Z</time>
      </trkpt>
      <trkpt lat="38.4177570" lon="-0.9164250">
        <ele>494.5</ele>
        <time>2020-10-12T11:15:58Z</time>
      </trkpt>
      <trkpt lat="38.4175520" lon="-0.9164180">
        <ele>494.4</ele>
        <time>2020-10-12T11:16:01Z</time>
      </trkpt>
      <trkpt lat="38.4173490" lon="-0.9164220">
        <ele>494.3</ele>
        <time>2020-10-12T11:16:04Z</time>
      </trkpt>
      <trkpt lat="38.4171550" lon="-0.9164100">
        <ele>494.2</ele>
        <time>2020-10-12T11:16:07Z</time>
      </trkpt>
      <trkpt lat="38.4169540" lon="-0.9164020">
        <ele>494.2</ele>
        <time>2020-10-12T11:16:10Z</time>
      </trkpt>
      <trkpt lat="38.4167380" lon="-0.9163850">
        <ele>494.0</ele>
        <time>2020-10-12T11:16:13Z</time>
      </trkpt>
      <trkpt lat="38.4165010" lon="-0.9163870">
        <ele>493.8</ele>
        <time>2020-10-12T11:16:16Z</time>
      </trkpt>
      <trkpt lat="38.4162770" lon="-0.9163960">
        <ele>493.7</ele>
        <time>2020-10-12T11:16:19Z</time>
      </trkpt>
      <trkpt lat="38.4160560" lon="-0.9164030">
        <ele>493.4</ele>
        <time>2020-10-12T11:16:22Z</time>
      </trkpt>
      <trkpt lat="38.4158370" lon="-0.9163990">
        <ele>493.2</ele>
        <time>2020-10-12T11:16:25Z</time>
      </trkpt>
      <trkpt lat="38.4156250" lon="-0.9163800">
        <ele>493.0</ele>
        <time>2020-10-12T11:16:28Z</time>
      </trkpt>
      <trkpt lat="38.4154130" lon="-0.9163300">
        <ele>492.8</ele>
        <time>2020-10-12T11:16:31Z</time>
      </trkpt>
      <trkpt lat="38.4151920" lon="-0.9162980">
        <ele>492.5</ele>
        <time>2020-10-12T11:16:34Z</time>
      </trkpt>
      <trkpt lat="38.4149730" lon="-0.9162510">
        <ele>492.2</ele>
        <time>2020-10-12T11:16:37Z</time>
      </trkpt>
      <trkpt lat="38.4147590" lon="-0.9162080">
        <ele>491.9</ele>
        <time>2020-10-12T11:16:40Z</time>
      </trkpt>
      <trkpt lat="38.4145390" lon="-0.9161600">
        <ele>491.7</ele>
        <time>2020-10-12T11:16:43Z</time>
      </trkpt>
      <trkpt lat="38.4143270" lon="-0.9161230">
        <ele>491.5</ele>
        <time>2020-10-12T11:16:46Z</time>
      </trkpt>
      <trkpt lat="38.4141150" lon="-0.9161000">
        <ele>491.4</ele>
        <time>2020-10-12T11:16:49Z</time>
      </trkpt>
      <trkpt lat="38.4138890" lon="-0.9160650">
        <ele>491.2</ele>
        <time>2020-10-12T11:16:52Z</time>
      </trkpt>
      <trkpt lat="38.4136620" lon="-0.9160300">
        <ele>490.9</ele>
        <time>2020-10-12T11:16:55Z</time>
      </trkpt>
      <trkpt lat="38.4134610" lon="-0.9159990">
        <ele>490.6</ele>
        <time>2020-10-12T11:16:58Z</time>
      </trkpt>
      <trkpt lat="38.4132440" lon="-0.9159690">
        <ele>490.5</ele>
        <time>2020-10-12T11:17:01Z</time>
      </trkpt>
      <trkpt lat="38.4130210" lon="-0.9159510">
        <ele>490.3</ele>
        <time>2020-10-12T11:17:04Z</time>
      </trkpt>
      <trkpt lat="38.4127120" lon="-0.9159160">
        <ele>490.0</ele>
        <time>2020-10-12T11:17:07Z</time>
      </trkpt>
      <trkpt lat="38.4125120" lon="-0.9159040">
        <ele>489.8</ele>
        <time>2020-10-12T11:17:11Z</time>
      </trkpt>
      <trkpt lat="38.4122560" lon="-0.9158860">
        <ele>489.6</ele>
        <time>2020-10-12T11:17:14Z</time>
      </trkpt>
      <trkpt lat="38.4120220" lon="-0.9158590">
        <ele>489.6</ele>
        <time>2020-10-12T11:17:17Z</time>
      </trkpt>
      <trkpt lat="38.4118010" lon="-0.9158390">
        <ele>489.4</ele>
        <time>2020-10-12T11:17:20Z</time>
      </trkpt>
      <trkpt lat="38.4115790" lon="-0.9158110">
        <ele>489.2</ele>
        <time>2020-10-12T11:17:23Z</time>
      </trkpt>
      <trkpt lat="38.4113230" lon="-0.9157920">
        <ele>489.0</ele>
        <time>2020-10-12T11:17:26Z</time>
      </trkpt>
      <trkpt lat="38.4110710" lon="-0.9157620">
        <ele>488.7</ele>
        <time>2020-10-12T11:17:29Z</time>
      </trkpt>
      <trkpt lat="38.4108510" lon="-0.9157050">
        <ele>488.5</ele>
        <time>2020-10-12T11:17:32Z</time>
      </trkpt>
      <trkpt lat="38.4106420" lon="-0.9156200">
        <ele>488.4</ele>
        <time>2020-10-12T11:17:35Z</time>
      </trkpt>
      <trkpt lat="38.4104310" lon="-0.9155050">
        <ele>488.2</ele>
        <time>2020-10-12T11:17:38Z</time>
      </trkpt>
      <trkpt lat="38.4102290" lon="-0.9154070">
        <ele>488.0</ele>
        <time>2020-10-12T11:17:41Z</time>
      </trkpt>
      <trkpt lat="38.4100050" lon="-0.9153270">
        <ele>487.9</ele>
        <time>2020-10-12T11:17:44Z</time>
      </trkpt>
      <trkpt lat="38.4097870" lon="-0.9152700">
        <ele>487.8</ele>
        <time>2020-10-12T11:17:47Z</time>
      </trkpt>
      <trkpt lat="38.4095700" lon="-0.9152310">
        <ele>487.7</ele>
        <time>2020-10-12T11:17:50Z</time>
      </trkpt>
      <trkpt lat="38.4093440" lon="-0.9151760">
        <ele>487.6</ele>
        <time>2020-10-12T11:17:53Z</time>
      </trkpt>
      <trkpt lat="38.4091110" lon="-0.9151130">
        <ele>487.4</ele>
        <time>2020-10-12T11:17:56Z</time>
      </trkpt>
      <trkpt lat="38.4088750" lon="-0.9150560">
        <ele>486.9</ele>
        <time>2020-10-12T11:17:59Z</time>
      </trkpt>
      <trkpt lat="38.4086310" lon="-0.9150170">
        <ele>486.4</ele>
        <time>2020-10-12T11:18:02Z</time>
      </trkpt>
      <trkpt lat="38.4084000" lon="-0.9149990">
        <ele>486.1</ele>
        <time>2020-10-12T11:18:05Z</time>
      </trkpt>
      <trkpt lat="38.4081610" lon="-0.9150410">
        <ele>485.8</ele>
        <time>2020-10-12T11:18:08Z</time>
      </trkpt>
      <trkpt lat="38.4079290" lon="-0.9151480">
        <ele>485.3</ele>
        <time>2020-10-12T11:18:11Z</time>
      </trkpt>
      <trkpt lat="38.4076880" lon="-0.9152830">
        <ele>484.8</ele>
        <time>2020-10-12T11:18:14Z</time>
      </trkpt>
      <trkpt lat="38.4074530" lon="-0.9154280">
        <ele>484.6</ele>
        <time>2020-10-12T11:18:17Z</time>
      </trkpt>
      <trkpt lat="38.4072280" lon="-0.9155680">
        <ele>484.6</ele>
        <time>2020-10-12T11:18:20Z</time>
      </trkpt>
      <trkpt lat="38.4069770" lon="-0.9156410">
        <ele>484.5</ele>
        <time>2020-10-12T11:18:23Z</time>
      </trkpt>
      <trkpt lat="38.4067940" lon="-0.9156570">
        <ele>484.7</ele>
        <time>2020-10-12T11:18:25Z</time>
      </trkpt>
      <trkpt lat="38.4065370" lon="-0.9156350">
        <ele>485.0</ele>
        <time>2020-10-12T11:18:28Z</time>
      </trkpt>
      <trkpt lat="38.4063070" lon="-0.9155560">
        <ele>485.5</ele>
        <time>2020-10-12T11:18:31Z</time>
      </trkpt>
      <trkpt lat="38.4061070" lon="-0.9154670">
        <ele>485.7</ele>
        <time>2020-10-12T11:18:34Z</time>
      </trkpt>
      <trkpt lat="38.4059160" lon="-0.9153560">
        <ele>485.5</ele>
        <time>2020-10-12T11:18:37Z</time>
      </trkpt>
      <trkpt lat="38.4056890" lon="-0.9152530">
        <ele>485.4</ele>
        <time>2020-10-12T11:18:40Z</time>
      </trkpt>
      <trkpt lat="38.4054560" lon="-0.9151610">
        <ele>485.2</ele>
        <time>2020-10-12T11:18:43Z</time>
      </trkpt>
      <trkpt lat="38.4052040" lon="-0.9151150">
        <ele>485.1</ele>
        <time>2020-10-12T11:18:46Z</time>
      </trkpt>
      <trkpt lat="38.4049640" lon="-0.9150750">
        <ele>485.1</ele>
        <time>2020-10-12T11:18:49Z</time>
      </trkpt>
      <trkpt lat="38.4047060" lon="-0.9150360">
        <ele>485.2</ele>
        <time>2020-10-12T11:18:52Z</time>
      </trkpt>
      <trkpt lat="38.4044520" lon="-0.9150040">
        <ele>485.1</ele>
        <time>2020-10-12T11:18:55Z</time>
      </trkpt>
      <trkpt lat="38.4042170" lon="-0.9149910">
        <ele>484.9</ele>
        <time>2020-10-12T11:18:58Z</time>
      </trkpt>
      <trkpt lat="38.4039700" lon="-0.9149750">
        <ele>484.8</ele>
        <time>2020-10-12T11:19:01Z</time>
      </trkpt>
      <trkpt lat="38.4037900" lon="-0.9149600">
        <ele>484.8</ele>
        <time>2020-10-12T11:19:03Z</time>
      </trkpt>
      <trkpt lat="38.4036080" lon="-0.9149500">
        <ele>484.8</ele>
        <time>2020-10-12T11:19:05Z</time>
      </trkpt>
      <trkpt lat="38.4033750" lon="-0.9149380">
        <ele>484.9</ele>
        <time>2020-10-12T11:19:08Z</time>
      </trkpt>
      <trkpt lat="38.4031440" lon="-0.9149110">
        <ele>485.0</ele>
        <time>2020-10-12T11:19:11Z</time>
      </trkpt>
      <trkpt lat="38.4029030" lon="-0.9148910">
        <ele>484.9</ele>
        <time>2020-10-12T11:19:14Z</time>
      </trkpt>
      <trkpt lat="38.4026660" lon="-0.9148730">
        <ele>484.9</ele>
        <time>2020-10-12T11:19:17Z</time>
      </trkpt>
      <trkpt lat="38.4024230" lon="-0.9148640">
        <ele>484.8</ele>
        <time>2020-10-12T11:19:20Z</time>
      </trkpt>
      <trkpt lat="38.4021780" lon="-0.9149010">
        <ele>484.4</ele>
        <time>2020-10-12T11:19:23Z</time>
      </trkpt>
      <trkpt lat="38.4019120" lon="-0.9149690">
        <ele>484.0</ele>
        <time>2020-10-12T11:19:26Z</time>
      </trkpt>
      <trkpt lat="38.4017310" lon="-0.9150110">
        <ele>483.8</ele>
        <time>2020-10-12T11:19:28Z</time>
      </trkpt>
      <trkpt lat="38.4015540" lon="-0.9150540">
        <ele>483.6</ele>
        <time>2020-10-12T11:19:30Z</time>
      </trkpt>
      <trkpt lat="38.4013090" lon="-0.9151140">
        <ele>483.5</ele>
        <time>2020-10-12T11:19:33Z</time>
      </trkpt>
      <trkpt lat="38.4010770" lon="-0.9151770">
        <ele>483.3</ele>
        <time>2020-10-12T11:19:36Z</time>
      </trkpt>
      <trkpt lat="38.4008450" lon="-0.9152420">
        <ele>483.0</ele>
        <time>2020-10-12T11:19:39Z</time>
      </trkpt>
      <trkpt lat="38.4006170" lon="-0.9153180">
        <ele>482.8</ele>
        <time>2020-10-12T11:19:42Z</time>
      </trkpt>
      <trkpt lat="38.4003840" lon="-0.9154020">
        <ele>482.6</ele>
        <time>2020-10-12T11:19:45Z</time>
      </trkpt>
      <trkpt lat="38.4001510" lon="-0.9154720">
        <ele>482.3</ele>
        <time>2020-10-12T11:19:48Z</time>
      </trkpt>
      <trkpt lat="38.3999070" lon="-0.9155330">
        <ele>481.9</ele>
        <time>2020-10-12T11:19:51Z</time>
      </trkpt>
      <trkpt lat="38.3996470" lon="-0.9155820">
        <ele>481.3</ele>
        <time>2020-10-12T11:19:54Z</time>
      </trkpt>
      <trkpt lat="38.3993810" lon="-0.9156300">
        <ele>480.7</ele>
        <time>2020-10-12T11:19:57Z</time>
      </trkpt>
      <trkpt lat="38.3991990" lon="-0.9156670">
        <ele>480.4</ele>
        <time>2020-10-12T11:19:59Z</time>
      </trkpt>
      <trkpt lat="38.3989980" lon="-0.9157110">
        <ele>480.1</ele>
        <time>2020-10-12T11:20:01Z</time>
      </trkpt>
      <trkpt lat="38.3988180" lon="-0.9157540">
        <ele>479.9</ele>
        <time>2020-10-12T11:20:03Z</time>
      </trkpt>
      <trkpt lat="38.3985750" lon="-0.9158820">
        <ele>479.4</ele>
        <time>2020-10-12T11:20:06Z</time>
      </trkpt>
      <trkpt lat="38.3984210" lon="-0.9160120">
        <ele>479.1</ele>
        <time>2020-10-12T11:20:08Z</time>
      </trkpt>
      <trkpt lat="38.3982630" lon="-0.9161500">
        <ele>478.9</ele>
        <time>2020-10-12T11:20:10Z</time>
      </trkpt>
      <trkpt lat="38.3981010" lon="-0.9162720">
        <ele>478.6</ele>
        <time>2020-10-12T11:20:12Z</time>
      </trkpt>
      <trkpt lat="38.3979120" lon="-0.9163640">
        <ele>478.2</ele>
        <time>2020-10-12T11:20:14Z</time>
      </trkpt>
      <trkpt lat="38.3977060" lon="-0.9163780">
        <ele>477.8</ele>
        <time>2020-10-12T11:20:16Z</time>
      </trkpt>
      <trkpt lat="38.3974930" lon="-0.9163440">
        <ele>477.4</ele>
        <time>2020-10-12T11:20:18Z</time>
      </trkpt>
      <trkpt lat="38.3972900" lon="-0.9163070">
        <ele>476.9</ele>
        <time>2020-10-12T11:20:20Z</time>
      </trkpt>
      <trkpt lat="38.3970990" lon="-0.9162820">
        <ele>476.3</ele>
        <time>2020-10-12T11:20:22Z</time>
      </trkpt>
      <trkpt lat="38.3969010" lon="-0.9162760">
        <ele>476.0</ele>
        <time>2020-10-12T11:20:24Z</time>
      </trkpt>
      <trkpt lat="38.3966980" lon="-0.9163080">
        <ele>475.5</ele>
        <time>2020-10-12T11:20:26Z</time>
      </trkpt>
      <trkpt lat="38.3965160" lon="-0.9163860">
        <ele>475.1</ele>
        <time>2020-10-12T11:20:28Z</time>
      </trkpt>
      <trkpt lat="38.3963260" lon="-0.9164780">
        <ele>474.9</ele>
        <time>2020-10-12T11:20:30Z</time>
      </trkpt>
      <trkpt lat="38.3961420" lon="-0.9165650">
        <ele>474.7</ele>
        <time>2020-10-12T11:20:32Z</time>
      </trkpt>
      <trkpt lat="38.3959620" lon="-0.9166490">
        <ele>474.5</ele>
        <time>2020-10-12T11:20:34Z</time>
      </trkpt>
      <trkpt lat="38.3957830" lon="-0.9167210">
        <ele>474.3</ele>
        <time>2020-10-12T11:20:36Z</time>
      </trkpt>
      <trkpt lat="38.3956070" lon="-0.9167910">
        <ele>474.0</ele>
        <time>2020-10-12T11:20:38Z</time>
      </trkpt>
      <trkpt lat="38.3954180" lon="-0.9168530">
        <ele>473.7</ele>
        <time>2020-10-12T11:20:40Z</time>
      </trkpt>
      <trkpt lat="38.3952310" lon="-0.9169050">
        <ele>473.4</ele>
        <time>2020-10-12T11:20:42Z</time>
      </trkpt>
      <trkpt lat="38.3950480" lon="-0.9169530">
        <ele>473.1</ele>
        <time>2020-10-12T11:20:44Z</time>
      </trkpt>
      <trkpt lat="38.3948530" lon="-0.9170070">
        <ele>472.9</ele>
        <time>2020-10-12T11:20:46Z</time>
      </trkpt>
      <trkpt lat="38.3946720" lon="-0.9170610">
        <ele>472.7</ele>
        <time>2020-10-12T11:20:48Z</time>
      </trkpt>
      <trkpt lat="38.3944880" lon="-0.9171080">
        <ele>472.4</ele>
        <time>2020-10-12T11:20:50Z</time>
      </trkpt>
      <trkpt lat="38.3942810" lon="-0.9171180">
        <ele>472.1</ele>
        <time>2020-10-12T11:20:52Z</time>
      </trkpt>
      <trkpt lat="38.3940780" lon="-0.9171040">
        <ele>471.9</ele>
        <time>2020-10-12T11:20:54Z</time>
      </trkpt>
      <trkpt lat="38.3938740" lon="-0.9170800">
        <ele>471.8</ele>
        <time>2020-10-12T11:20:56Z</time>
      </trkpt>
      <trkpt lat="38.3936930" lon="-0.9170600">
        <ele>471.7</ele>
        <time>2020-10-12T11:20:58Z</time>
      </trkpt>
      <trkpt lat="38.3935080" lon="-0.9170450">
        <ele>471.5</ele>
        <time>2020-10-12T11:21:00Z</time>
      </trkpt>
      <trkpt lat="38.3933100" lon="-0.9170300">
        <ele>471.4</ele>
        <time>2020-10-12T11:21:02Z</time>
      </trkpt>
      <trkpt lat="38.3931220" lon="-0.9170130">
        <ele>471.2</ele>
        <time>2020-10-12T11:21:04Z</time>
      </trkpt>
      <trkpt lat="38.3929370" lon="-0.9170020">
        <ele>471.0</ele>
        <time>2020-10-12T11:21:06Z</time>
      </trkpt>
      <trkpt lat="38.3926680" lon="-0.9169860">
        <ele>470.6</ele>
        <time>2020-10-12T11:21:09Z</time>
      </trkpt>
      <trkpt lat="38.3923980" lon="-0.9169650">
        <ele>470.0</ele>
        <time>2020-10-12T11:21:12Z</time>
      </trkpt>
      <trkpt lat="38.3922150" lon="-0.9169490">
        <ele>469.5</ele>
        <time>2020-10-12T11:21:14Z</time>
      </trkpt>
      <trkpt lat="38.3920300" lon="-0.9169390">
        <ele>468.9</ele>
        <time>2020-10-12T11:21:16Z</time>
      </trkpt>
      <trkpt lat="38.3918350" lon="-0.9169290">
        <ele>468.3</ele>
        <time>2020-10-12T11:21:18Z</time>
      </trkpt>
      <trkpt lat="38.3916420" lon="-0.9169130">
        <ele>467.7</ele>
        <time>2020-10-12T11:21:20Z</time>
      </trkpt>
      <trkpt lat="38.3914480" lon="-0.9168960">
        <ele>467.1</ele>
        <time>2020-10-12T11:21:22Z</time>
      </trkpt>
      <trkpt lat="38.3912500" lon="-0.9168770">
        <ele>466.5</ele>
        <time>2020-10-12T11:21:24Z</time>
      </trkpt>
      <trkpt lat="38.3910530" lon="-0.9168640">
        <ele>465.9</ele>
        <time>2020-10-12T11:21:26Z</time>
      </trkpt>
      <trkpt lat="38.3908480" lon="-0.9168470">
        <ele>465.4</ele>
        <time>2020-10-12T11:21:28Z</time>
      </trkpt>
      <trkpt lat="38.3906470" lon="-0.9168320">
        <ele>465.0</ele>
        <time>2020-10-12T11:21:30Z</time>
      </trkpt>
      <trkpt lat="38.3904410" lon="-0.9168020">
        <ele>464.7</ele>
        <time>2020-10-12T11:21:32Z</time>
      </trkpt>
      <trkpt lat="38.3902410" lon="-0.9167400">
        <ele>464.7</ele>
        <time>2020-10-12T11:21:34Z</time>
      </trkpt>
      <trkpt lat="38.3900530" lon="-0.9166530">
        <ele>464.7</ele>
        <time>2020-10-12T11:21:36Z</time>
      </trkpt>
      <trkpt lat="38.3898780" lon="-0.9165260">
        <ele>464.6</ele>
        <time>2020-10-12T11:21:38Z</time>
      </trkpt>
      <trkpt lat="38.3897110" lon="-0.9163990">
        <ele>464.7</ele>
        <time>2020-10-12T11:21:40Z</time>
      </trkpt>
      <trkpt lat="38.3895530" lon="-0.9162730">
        <ele>464.9</ele>
        <time>2020-10-12T11:21:42Z</time>
      </trkpt>
      <trkpt lat="38.3893920" lon="-0.9161450">
        <ele>464.9</ele>
        <time>2020-10-12T11:21:44Z</time>
      </trkpt>
      <trkpt lat="38.3891620" lon="-0.9159870">
        <ele>465.2</ele>
        <time>2020-10-12T11:21:47Z</time>
      </trkpt>
      <trkpt lat="38.3889470" lon="-0.9158130">
        <ele>465.4</ele>
        <time>2020-10-12T11:21:50Z</time>
      </trkpt>
      <trkpt lat="38.3887920" lon="-0.9155740">
        <ele>465.8</ele>
        <time>2020-10-12T11:21:53Z</time>
      </trkpt>
      <trkpt lat="38.3886870" lon="-0.9152670">
        <ele>466.4</ele>
        <time>2020-10-12T11:21:56Z</time>
      </trkpt>
      <trkpt lat="38.3885850" lon="-0.9149840">
        <ele>466.9</ele>
        <time>2020-10-12T11:21:59Z</time>
      </trkpt>
      <trkpt lat="38.3884830" lon="-0.9147080">
        <ele>467.3</ele>
        <time>2020-10-12T11:22:02Z</time>
      </trkpt>
      <trkpt lat="38.3883870" lon="-0.9144780">
        <ele>467.4</ele>
        <time>2020-10-12T11:22:05Z</time>
      </trkpt>
      <trkpt lat="38.3882920" lon="-0.9142560">
        <ele>467.4</ele>
        <time>2020-10-12T11:22:09Z</time>
      </trkpt>
      <trkpt lat="38.3882230" lon="-0.9140250">
        <ele>467.3</ele>
        <time>2020-10-12T11:27:21Z</time>
      </trkpt>
      <trkpt lat="38.3881240" lon="-0.9138100">
        <ele>467.0</ele>
        <time>2020-10-12T11:27:25Z</time>
      </trkpt>
      <trkpt lat="38.3880520" lon="-0.9135950">
        <ele>466.6</ele>
        <time>2020-10-12T11:27:29Z</time>
      </trkpt>
      <trkpt lat="38.3879650" lon="-0.9133840">
        <ele>466.0</ele>
        <time>2020-10-12T11:27:34Z</time>
      </trkpt>
      <trkpt lat="38.3879040" lon="-0.9131430">
        <ele>465.3</ele>
        <time>2020-10-12T11:27:36Z</time>
      </trkpt>
      <trkpt lat="38.3878270" lon="-0.9128640">
        <ele>464.3</ele>
        <time>2020-10-12T11:27:39Z</time>
      </trkpt>
      <trkpt lat="38.3877510" lon="-0.9125920">
        <ele>463.2</ele>
        <time>2020-10-12T11:27:42Z</time>
      </trkpt>
      <trkpt lat="38.3876780" lon="-0.9123210">
        <ele>462.0</ele>
        <time>2020-10-12T11:27:45Z</time>
      </trkpt>
      <trkpt lat="38.3876090" lon="-0.9120480">
        <ele>460.7</ele>
        <time>2020-10-12T11:27:48Z</time>
      </trkpt>
      <trkpt lat="38.3875100" lon="-0.9117760">
        <ele>459.4</ele>
        <time>2020-10-12T11:27:51Z</time>
      </trkpt>
      <trkpt lat="38.3874500" lon="-0.9115560">
        <ele>458.4</ele>
        <time>2020-10-12T11:27:53Z</time>
      </trkpt>
      <trkpt lat="38.3873200" lon="-0.9112500">
        <ele>457.3</ele>
        <time>2020-10-12T11:27:56Z</time>
      </trkpt>
      <trkpt lat="38.3872170" lon="-0.9110510">
        <ele>456.6</ele>
        <time>2020-10-12T11:27:58Z</time>
      </trkpt>
      <trkpt lat="38.3871250" lon="-0.9108480">
        <ele>455.9</ele>
        <time>2020-10-12T11:28:00Z</time>
      </trkpt>
      <trkpt lat="38.3870310" lon="-0.9106440">
        <ele>455.2</ele>
        <time>2020-10-12T11:28:02Z</time>
      </trkpt>
      <trkpt lat="38.3869740" lon="-0.9104240">
        <ele>454.5</ele>
        <time>2020-10-12T11:28:04Z</time>
      </trkpt>
      <trkpt lat="38.3869640" lon="-0.9101910">
        <ele>453.7</ele>
        <time>2020-10-12T11:28:06Z</time>
      </trkpt>
      <trkpt lat="38.3869910" lon="-0.9099470">
        <ele>452.9</ele>
        <time>2020-10-12T11:28:08Z</time>
      </trkpt>
      <trkpt lat="38.3870330" lon="-0.9096920">
        <ele>452.3</ele>
        <time>2020-10-12T11:28:10Z</time>
      </trkpt>
      <trkpt lat="38.3870810" lon="-0.9094410">
        <ele>451.9</ele>
        <time>2020-10-12T11:28:12Z</time>
      </trkpt>
      <trkpt lat="38.3871240" lon="-0.9091980">
        <ele>451.6</ele>
        <time>2020-10-12T11:28:14Z</time>
      </trkpt>
      <trkpt lat="38.3871480" lon="-0.9088960">
        <ele>451.4</ele>
        <time>2020-10-12T11:28:17Z</time>
      </trkpt>
      <trkpt lat="38.3871320" lon="-0.9085720">
        <ele>451.2</ele>
        <time>2020-10-12T11:28:20Z</time>
      </trkpt>
      <trkpt lat="38.3870960" lon="-0.9082450">
        <ele>451.2</ele>
        <time>2020-10-12T11:28:23Z</time>
      </trkpt>
      <trkpt lat="38.3870610" lon="-0.9079250">
        <ele>451.3</ele>
        <time>2020-10-12T11:28:26Z</time>
      </trkpt>
      <trkpt lat="38.3869660" lon="-0.9076330">
        <ele>451.2</ele>
        <time>2020-10-12T11:28:29Z</time>
      </trkpt>
      <trkpt lat="38.3867990" lon="-0.9074060">
        <ele>451.1</ele>
        <time>2020-10-12T11:28:32Z</time>
      </trkpt>
      <trkpt lat="38.3866160" lon="-0.9071870">
        <ele>451.0</ele>
        <time>2020-10-12T11:28:35Z</time>
      </trkpt>
      <trkpt lat="38.3864280" lon="-0.9069700">
        <ele>450.8</ele>
        <time>2020-10-12T11:28:38Z</time>
      </trkpt>
      <trkpt lat="38.3862950" lon="-0.9068140">
        <ele>450.4</ele>
        <time>2020-10-12T11:28:40Z</time>
      </trkpt>
      <trkpt lat="38.3861030" lon="-0.9065850">
        <ele>450.0</ele>
        <time>2020-10-12T11:28:43Z</time>
      </trkpt>
      <trkpt lat="38.3859690" lon="-0.9064310">
        <ele>449.8</ele>
        <time>2020-10-12T11:28:45Z</time>
      </trkpt>
      <trkpt lat="38.3857720" lon="-0.9061940">
        <ele>449.4</ele>
        <time>2020-10-12T11:28:48Z</time>
      </trkpt>
      <trkpt lat="38.3856310" lon="-0.9060450">
        <ele>449.2</ele>
        <time>2020-10-12T11:28:50Z</time>
      </trkpt>
      <trkpt lat="38.3854880" lon="-0.9059040">
        <ele>448.9</ele>
        <time>2020-10-12T11:28:52Z</time>
      </trkpt>
      <trkpt lat="38.3853250" lon="-0.9057930">
        <ele>448.4</ele>
        <time>2020-10-12T11:28:54Z</time>
      </trkpt>
      <trkpt lat="38.3851470" lon="-0.9057100">
        <ele>447.9</ele>
        <time>2020-10-12T11:28:56Z</time>
      </trkpt>
      <trkpt lat="38.3849740" lon="-0.9056230">
        <ele>447.5</ele>
        <time>2020-10-12T11:28:58Z</time>
      </trkpt>
      <trkpt lat="38.3848090" lon="-0.9055190">
        <ele>447.3</ele>
        <time>2020-10-12T11:29:00Z</time>
      </trkpt>
      <trkpt lat="38.3845970" lon="-0.9053160">
        <ele>446.9</ele>
        <time>2020-10-12T11:29:03Z</time>
      </trkpt>
      <trkpt lat="38.3844010" lon="-0.9050910">
        <ele>446.6</ele>
        <time>2020-10-12T11:29:06Z</time>
      </trkpt>
      <trkpt lat="38.3842540" lon="-0.9049580">
        <ele>446.4</ele>
        <time>2020-10-12T11:29:08Z</time>
      </trkpt>
      <trkpt lat="38.3840940" lon="-0.9048490">
        <ele>446.1</ele>
        <time>2020-10-12T11:29:10Z</time>
      </trkpt>
      <trkpt lat="38.3838400" lon="-0.9047470">
        <ele>445.5</ele>
        <time>2020-10-12T11:29:13Z</time>
      </trkpt>
      <trkpt lat="38.3836510" lon="-0.9047470">
        <ele>445.0</ele>
        <time>2020-10-12T11:29:15Z</time>
      </trkpt>
      <trkpt lat="38.3834600" lon="-0.9047660">
        <ele>444.8</ele>
        <time>2020-10-12T11:29:17Z</time>
      </trkpt>
      <trkpt lat="38.3832720" lon="-0.9047850">
        <ele>444.5</ele>
        <time>2020-10-12T11:29:19Z</time>
      </trkpt>
      <trkpt lat="38.3830140" lon="-0.9047690">
        <ele>444.1</ele>
        <time>2020-10-12T11:29:22Z</time>
      </trkpt>
      <trkpt lat="38.3827530" lon="-0.9046930">
        <ele>443.3</ele>
        <time>2020-10-12T11:29:25Z</time>
      </trkpt>
      <trkpt lat="38.3825830" lon="-0.9045980">
        <ele>442.6</ele>
        <time>2020-10-12T11:29:27Z</time>
      </trkpt>
      <trkpt lat="38.3824210" lon="-0.9044860">
        <ele>442.0</ele>
        <time>2020-10-12T11:29:29Z</time>
      </trkpt>
      <trkpt lat="38.3822590" lon="-0.9043730">
        <ele>441.3</ele>
        <time>2020-10-12T11:29:31Z</time>
      </trkpt>
      <trkpt lat="38.3821030" lon="-0.9042430">
        <ele>440.4</ele>
        <time>2020-10-12T11:29:33Z</time>
      </trkpt>
      <trkpt lat="38.3819590" lon="-0.9040780">
        <ele>439.3</ele>
        <time>2020-10-12T11:29:35Z</time>
      </trkpt>
      <trkpt lat="38.3818260" lon="-0.9038820">
        <ele>438.4</ele>
        <time>2020-10-12T11:29:37Z</time>
      </trkpt>
      <trkpt lat="38.3816810" lon="-0.9036780">
        <ele>437.4</ele>
        <time>2020-10-12T11:29:39Z</time>
      </trkpt>
      <trkpt lat="38.3815160" lon="-0.9034650">
        <ele>436.4</ele>
        <time>2020-10-12T11:29:41Z</time>
      </trkpt>
      <trkpt lat="38.3813250" lon="-0.9032950">
        <ele>435.8</ele>
        <time>2020-10-12T11:29:43Z</time>
      </trkpt>
      <trkpt lat="38.3811130" lon="-0.9031900">
        <ele>435.4</ele>
        <time>2020-10-12T11:29:45Z</time>
      </trkpt>
      <trkpt lat="38.3809010" lon="-0.9031350">
        <ele>435.0</ele>
        <time>2020-10-12T11:29:47Z</time>
      </trkpt>
      <trkpt lat="38.3806960" lon="-0.9030780">
        <ele>434.9</ele>
        <time>2020-10-12T11:29:49Z</time>
      </trkpt>
      <trkpt lat="38.3804870" lon="-0.9030120">
        <ele>434.7</ele>
        <time>2020-10-12T11:29:51Z</time>
      </trkpt>
      <trkpt lat="38.3802860" lon="-0.9029060">
        <ele>434.7</ele>
        <time>2020-10-12T11:29:53Z</time>
      </trkpt>
      <trkpt lat="38.3801240" lon="-0.9027620">
        <ele>434.9</ele>
        <time>2020-10-12T11:29:55Z</time>
      </trkpt>
      <trkpt lat="38.3799650" lon="-0.9026080">
        <ele>435.4</ele>
        <time>2020-10-12T11:29:57Z</time>
      </trkpt>
      <trkpt lat="38.3798170" lon="-0.9024500">
        <ele>435.9</ele>
        <time>2020-10-12T11:29:59Z</time>
      </trkpt>
      <trkpt lat="38.3796670" lon="-0.9022990">
        <ele>436.3</ele>
        <time>2020-10-12T11:30:01Z</time>
      </trkpt>
      <trkpt lat="38.3795220" lon="-0.9021510">
        <ele>436.6</ele>
        <time>2020-10-12T11:30:03Z</time>
      </trkpt>
      <trkpt lat="38.3793800" lon="-0.9020050">
        <ele>436.8</ele>
        <time>2020-10-12T11:30:05Z</time>
      </trkpt>
      <trkpt lat="38.3792380" lon="-0.9018540">
        <ele>436.8</ele>
        <time>2020-10-12T11:30:07Z</time>
      </trkpt>
      <trkpt lat="38.3790830" lon="-0.9017010">
        <ele>436.5</ele>
        <time>2020-10-12T11:30:09Z</time>
      </trkpt>
      <trkpt lat="38.3789270" lon="-0.9015320">
        <ele>436.1</ele>
        <time>2020-10-12T11:30:11Z</time>
      </trkpt>
      <trkpt lat="38.3787680" lon="-0.9013670">
        <ele>435.8</ele>
        <time>2020-10-12T11:30:13Z</time>
      </trkpt>
      <trkpt lat="38.3786050" lon="-0.9011970">
        <ele>435.2</ele>
        <time>2020-10-12T11:30:15Z</time>
      </trkpt>
      <trkpt lat="38.3784540" lon="-0.9010310">
        <ele>434.6</ele>
        <time>2020-10-12T11:30:17Z</time>
      </trkpt>
      <trkpt lat="38.3782930" lon="-0.9008610">
        <ele>434.1</ele>
        <time>2020-10-12T11:30:19Z</time>
      </trkpt>
      <trkpt lat="38.3781230" lon="-0.9006930">
        <ele>433.0</ele>
        <time>2020-10-12T11:30:21Z</time>
      </trkpt>
      <trkpt lat="38.3779420" lon="-0.9005180">
        <ele>431.7</ele>
        <time>2020-10-12T11:30:23Z</time>
      </trkpt>
      <trkpt lat="38.3777500" lon="-0.9003390">
        <ele>430.3</ele>
        <time>2020-10-12T11:30:25Z</time>
      </trkpt>
      <trkpt lat="38.3775410" lon="-0.9001530">
        <ele>429.1</ele>
        <time>2020-10-12T11:30:27Z</time>
      </trkpt>
      <trkpt lat="38.3773420" lon="-0.8999660">
        <ele>428.3</ele>
        <time>2020-10-12T11:30:29Z</time>
      </trkpt>
      <trkpt lat="38.3771480" lon="-0.8997830">
        <ele>428.1</ele>
        <time>2020-10-12T11:30:31Z</time>
      </trkpt>
      <trkpt lat="38.3769600" lon="-0.8996040">
        <ele>428.0</ele>
        <time>2020-10-12T11:30:33Z</time>
      </trkpt>
      <trkpt lat="38.3767700" lon="-0.8994300">
        <ele>428.2</ele>
        <time>2020-10-12T11:30:35Z</time>
      </trkpt>
      <trkpt lat="38.3766040" lon="-0.8992560">
        <ele>428.5</ele>
        <time>2020-10-12T11:30:37Z</time>
      </trkpt>
      <trkpt lat="38.3764400" lon="-0.8990850">
        <ele>428.7</ele>
        <time>2020-10-12T11:30:39Z</time>
      </trkpt>
      <trkpt lat="38.3762790" lon="-0.8989210">
        <ele>428.6</ele>
        <time>2020-10-12T11:30:41Z</time>
      </trkpt>
      <trkpt lat="38.3761110" lon="-0.8987700">
        <ele>428.5</ele>
        <time>2020-10-12T11:30:43Z</time>
      </trkpt>
      <trkpt lat="38.3759380" lon="-0.8986340">
        <ele>428.3</ele>
        <time>2020-10-12T11:30:45Z</time>
      </trkpt>
      <trkpt lat="38.3757620" lon="-0.8985010">
        <ele>428.1</ele>
        <time>2020-10-12T11:30:47Z</time>
      </trkpt>
      <trkpt lat="38.3755790" lon="-0.8983770">
        <ele>427.7</ele>
        <time>2020-10-12T11:30:49Z</time>
      </trkpt>
      <trkpt lat="38.3753950" lon="-0.8982560">
        <ele>427.3</ele>
        <time>2020-10-12T11:30:51Z</time>
      </trkpt>
      <trkpt lat="38.3752100" lon="-0.8981430">
        <ele>426.9</ele>
        <time>2020-10-12T11:30:53Z</time>
      </trkpt>
      <trkpt lat="38.3750330" lon="-0.8980250">
        <ele>426.4</ele>
        <time>2020-10-12T11:30:55Z</time>
      </trkpt>
      <trkpt lat="38.3748430" lon="-0.8978960">
        <ele>425.8</ele>
        <time>2020-10-12T11:30:57Z</time>
      </trkpt>
      <trkpt lat="38.3746650" lon="-0.8977800">
        <ele>425.1</ele>
        <time>2020-10-12T11:30:59Z</time>
      </trkpt>
      <trkpt lat="38.3744770" lon="-0.8976760">
        <ele>424.4</ele>
        <time>2020-10-12T11:31:01Z</time>
      </trkpt>
      <trkpt lat="38.3742690" lon="-0.8976020">
        <ele>423.9</ele>
        <time>2020-10-12T11:31:03Z</time>
      </trkpt>
      <trkpt lat="38.3740540" lon="-0.8975590">
        <ele>423.4</ele>
        <time>2020-10-12T11:31:05Z</time>
      </trkpt>
      <trkpt lat="38.3738500" lon="-0.8975410">
        <ele>423.1</ele>
        <time>2020-10-12T11:31:07Z</time>
      </trkpt>
      <trkpt lat="38.3736650" lon="-0.8975270">
        <ele>422.9</ele>
        <time>2020-10-12T11:31:09Z</time>
      </trkpt>
      <trkpt lat="38.3734770" lon="-0.8975120">
        <ele>422.7</ele>
        <time>2020-10-12T11:31:11Z</time>
      </trkpt>
      <trkpt lat="38.3732140" lon="-0.8974510">
        <ele>422.2</ele>
        <time>2020-10-12T11:31:14Z</time>
      </trkpt>
      <trkpt lat="38.3729600" lon="-0.8973570">
        <ele>422.0</ele>
        <time>2020-10-12T11:31:17Z</time>
      </trkpt>
      <trkpt lat="38.3727190" lon="-0.8972870">
        <ele>421.8</ele>
        <time>2020-10-12T11:31:20Z</time>
      </trkpt>
      <trkpt lat="38.3725170" lon="-0.8973060">
        <ele>421.8</ele>
        <time>2020-10-12T11:31:23Z</time>
      </trkpt>
      <trkpt lat="38.3723170" lon="-0.8973540">
        <ele>422.2</ele>
        <time>2020-10-12T11:31:27Z</time>
      </trkpt>
      <trkpt lat="38.3722130" lon="-0.8971190">
        <ele>423.1</ele>
        <time>2020-10-12T11:33:01Z</time>
      </trkpt>
      <trkpt lat="38.3720900" lon="-0.8969230">
        <ele>420.6</ele>
        <time>2020-10-12T11:33:05Z</time>
      </trkpt>
      <trkpt lat="38.3719640" lon="-0.8966770">
        <ele>419.7</ele>
        <time>2020-10-12T11:33:08Z</time>
      </trkpt>
      <trkpt lat="38.3718220" lon="-0.8964340">
        <ele>418.8</ele>
        <time>2020-10-12T11:33:11Z</time>
      </trkpt>
      <trkpt lat="38.3716580" lon="-0.8962040">
        <ele>418.0</ele>
        <time>2020-10-12T11:33:14Z</time>
      </trkpt>
      <trkpt lat="38.3714730" lon="-0.8959750">
        <ele>417.4</ele>
        <time>2020-10-12T11:33:17Z</time>
      </trkpt>
      <trkpt lat="38.3712760" lon="-0.8957600">
        <ele>416.9</ele>
        <time>2020-10-12T11:33:20Z</time>
      </trkpt>
      <trkpt lat="38.3710840" lon="-0.8955500">
        <ele>416.2</ele>
        <time>2020-10-12T11:33:23Z</time>
      </trkpt>
      <trkpt lat="38.3708960" lon="-0.8953420">
        <ele>415.7</ele>
        <time>2020-10-12T11:33:26Z</time>
      </trkpt>
      <trkpt lat="38.3707150" lon="-0.8951420">
        <ele>415.3</ele>
        <time>2020-10-12T11:33:29Z</time>
      </trkpt>
      <trkpt lat="38.3705330" lon="-0.8949540">
        <ele>414.9</ele>
        <time>2020-10-12T11:33:32Z</time>
      </trkpt>
      <trkpt lat="38.3703420" lon="-0.8947500">
        <ele>414.4</ele>
        <time>2020-10-12T11:33:35Z</time>
      </trkpt>
      <trkpt lat="38.3701480" lon="-0.8945500">
        <ele>413.9</ele>
        <time>2020-10-12T11:33:38Z</time>
      </trkpt>
      <trkpt lat="38.3699500" lon="-0.8943430">
        <ele>413.4</ele>
        <time>2020-10-12T11:33:41Z</time>
      </trkpt>
      <trkpt lat="38.3697320" lon="-0.8941570">
        <ele>412.8</ele>
        <time>2020-10-12T11:33:44Z</time>
      </trkpt>
      <trkpt lat="38.3695640" lon="-0.8940350">
        <ele>412.4</ele>
        <time>2020-10-12T11:33:46Z</time>
      </trkpt>
      <trkpt lat="38.3693910" lon="-0.8939240">
        <ele>412.0</ele>
        <time>2020-10-12T11:33:48Z</time>
      </trkpt>
      <trkpt lat="38.3692230" lon="-0.8938140">
        <ele>411.5</ele>
        <time>2020-10-12T11:33:50Z</time>
      </trkpt>
      <trkpt lat="38.3690590" lon="-0.8937080">
        <ele>411.2</ele>
        <time>2020-10-12T11:33:52Z</time>
      </trkpt>
      <trkpt lat="38.3688930" lon="-0.8936020">
        <ele>410.9</ele>
        <time>2020-10-12T11:33:54Z</time>
      </trkpt>
      <trkpt lat="38.3687260" lon="-0.8934960">
        <ele>410.5</ele>
        <time>2020-10-12T11:33:56Z</time>
      </trkpt>
      <trkpt lat="38.3685570" lon="-0.8933910">
        <ele>410.1</ele>
        <time>2020-10-12T11:33:58Z</time>
      </trkpt>
      <trkpt lat="38.3683870" lon="-0.8932850">
        <ele>409.7</ele>
        <time>2020-10-12T11:34:00Z</time>
      </trkpt>
      <trkpt lat="38.3682090" lon="-0.8931640">
        <ele>409.4</ele>
        <time>2020-10-12T11:34:02Z</time>
      </trkpt>
      <trkpt lat="38.3680330" lon="-0.8930400">
        <ele>409.0</ele>
        <time>2020-10-12T11:34:04Z</time>
      </trkpt>
      <trkpt lat="38.3678660" lon="-0.8929270">
        <ele>408.6</ele>
        <time>2020-10-12T11:34:06Z</time>
      </trkpt>
      <trkpt lat="38.3676930" lon="-0.8928160">
        <ele>408.3</ele>
        <time>2020-10-12T11:34:08Z</time>
      </trkpt>
      <trkpt lat="38.3675150" lon="-0.8926990">
        <ele>407.9</ele>
        <time>2020-10-12T11:34:10Z</time>
      </trkpt>
      <trkpt lat="38.3673420" lon="-0.8925860">
        <ele>407.5</ele>
        <time>2020-10-12T11:34:12Z</time>
      </trkpt>
      <trkpt lat="38.3671670" lon="-0.8924780">
        <ele>407.1</ele>
        <time>2020-10-12T11:34:14Z</time>
      </trkpt>
      <trkpt lat="38.3670010" lon="-0.8923700">
        <ele>406.8</ele>
        <time>2020-10-12T11:34:16Z</time>
      </trkpt>
      <trkpt lat="38.3668400" lon="-0.8922640">
        <ele>406.4</ele>
        <time>2020-10-12T11:34:18Z</time>
      </trkpt>
      <trkpt lat="38.3666770" lon="-0.8921500">
        <ele>406.1</ele>
        <time>2020-10-12T11:34:20Z</time>
      </trkpt>
      <trkpt lat="38.3665030" lon="-0.8920430">
        <ele>405.7</ele>
        <time>2020-10-12T11:34:22Z</time>
      </trkpt>
      <trkpt lat="38.3663390" lon="-0.8919350">
        <ele>405.3</ele>
        <time>2020-10-12T11:34:24Z</time>
      </trkpt>
      <trkpt lat="38.3661760" lon="-0.8918140">
        <ele>405.0</ele>
        <time>2020-10-12T11:34:26Z</time>
      </trkpt>
      <trkpt lat="38.3660070" lon="-0.8917120">
        <ele>404.6</ele>
        <time>2020-10-12T11:34:28Z</time>
      </trkpt>
      <trkpt lat="38.3658400" lon="-0.8916050">
        <ele>404.2</ele>
        <time>2020-10-12T11:34:30Z</time>
      </trkpt>
      <trkpt lat="38.3656780" lon="-0.8914930">
        <ele>403.9</ele>
        <time>2020-10-12T11:34:32Z</time>
      </trkpt>
      <trkpt lat="38.3655100" lon="-0.8913870">
        <ele>403.5</ele>
        <time>2020-10-12T11:34:34Z</time>
      </trkpt>
      <trkpt lat="38.3653390" lon="-0.8912820">
        <ele>403.1</ele>
        <time>2020-10-12T11:34:36Z</time>
      </trkpt>
      <trkpt lat="38.3651690" lon="-0.8911620">
        <ele>402.7</ele>
        <time>2020-10-12T11:34:38Z</time>
      </trkpt>
      <trkpt lat="38.3649970" lon="-0.8910500">
        <ele>402.6</ele>
        <time>2020-10-12T11:34:40Z</time>
      </trkpt>
      <trkpt lat="38.3648290" lon="-0.8909580">
        <ele>402.3</ele>
        <time>2020-10-12T11:34:42Z</time>
      </trkpt>
      <trkpt lat="38.3645780" lon="-0.8908740">
        <ele>401.8</ele>
        <time>2020-10-12T11:34:45Z</time>
      </trkpt>
      <trkpt lat="38.3643570" lon="-0.8908620">
        <ele>401.6</ele>
        <time>2020-10-12T11:34:48Z</time>
      </trkpt>
      <trkpt lat="38.3641440" lon="-0.8909150">
        <ele>402.9</ele>
        <time>2020-10-12T11:34:51Z</time>
      </trkpt>
      <trkpt lat="38.3639570" lon="-0.8908810">
        <ele>402.3</ele>
        <time>2020-10-12T11:34:54Z</time>
      </trkpt>
      <trkpt lat="38.3638660" lon="-0.8906370">
        <ele>402.4</ele>
        <time>2020-10-12T11:34:57Z</time>
      </trkpt>
      <trkpt lat="38.3639200" lon="-0.8903180">
        <ele>401.8</ele>
        <time>2020-10-12T11:35:00Z</time>
      </trkpt>
      <trkpt lat="38.3639620" lon="-0.8900900">
        <ele>400.3</ele>
        <time>2020-10-12T11:35:02Z</time>
      </trkpt>
      <trkpt lat="38.3639950" lon="-0.8898560">
        <ele>399.0</ele>
        <time>2020-10-12T11:35:04Z</time>
      </trkpt>
      <trkpt lat="38.3640160" lon="-0.8896110">
        <ele>398.4</ele>
        <time>2020-10-12T11:35:06Z</time>
      </trkpt>
      <trkpt lat="38.3640390" lon="-0.8893800">
        <ele>398.2</ele>
        <time>2020-10-12T11:35:08Z</time>
      </trkpt>
      <trkpt lat="38.3640700" lon="-0.8890440">
        <ele>398.2</ele>
        <time>2020-10-12T11:35:11Z</time>
      </trkpt>
      <trkpt lat="38.3640950" lon="-0.8887180">
        <ele>397.9</ele>
        <time>2020-10-12T11:35:14Z</time>
      </trkpt>
      <trkpt lat="38.3641220" lon="-0.8883910">
        <ele>397.6</ele>
        <time>2020-10-12T11:35:17Z</time>
      </trkpt>
      <trkpt lat="38.3641420" lon="-0.8880510">
        <ele>397.6</ele>
        <time>2020-10-12T11:35:20Z</time>
      </trkpt>
      <trkpt lat="38.3641300" lon="-0.8877150">
        <ele>397.8</ele>
        <time>2020-10-12T11:35:23Z</time>
      </trkpt>
      <trkpt lat="38.3640740" lon="-0.8873830">
        <ele>397.3</ele>
        <time>2020-10-12T11:35:26Z</time>
      </trkpt>
      <trkpt lat="38.3640170" lon="-0.8870420">
        <ele>396.8</ele>
        <time>2020-10-12T11:35:29Z</time>
      </trkpt>
      <trkpt lat="38.3639720" lon="-0.8868110">
        <ele>396.5</ele>
        <time>2020-10-12T11:35:31Z</time>
      </trkpt>
      <trkpt lat="38.3639370" lon="-0.8865720">
        <ele>396.2</ele>
        <time>2020-10-12T11:35:33Z</time>
      </trkpt>
      <trkpt lat="38.3638930" lon="-0.8863410">
        <ele>395.8</ele>
        <time>2020-10-12T11:35:35Z</time>
      </trkpt>
      <trkpt lat="38.3638560" lon="-0.8861000">
        <ele>395.3</ele>
        <time>2020-10-12T11:35:37Z</time>
      </trkpt>
      <trkpt lat="38.3638250" lon="-0.8858520">
        <ele>395.0</ele>
        <time>2020-10-12T11:35:39Z</time>
      </trkpt>
      <trkpt lat="38.3637890" lon="-0.8855960">
        <ele>394.6</ele>
        <time>2020-10-12T11:35:41Z</time>
      </trkpt>
      <trkpt lat="38.3637540" lon="-0.8853410">
        <ele>394.1</ele>
        <time>2020-10-12T11:35:43Z</time>
      </trkpt>
      <trkpt lat="38.3637180" lon="-0.8850830">
        <ele>393.7</ele>
        <time>2020-10-12T11:35:45Z</time>
      </trkpt>
      <trkpt lat="38.3636870" lon="-0.8848280">
        <ele>393.3</ele>
        <time>2020-10-12T11:35:47Z</time>
      </trkpt>
      <trkpt lat="38.3636540" lon="-0.8845620">
        <ele>392.8</ele>
        <time>2020-10-12T11:35:49Z</time>
      </trkpt>
      <trkpt lat="38.3636230" lon="-0.8842950">
        <ele>392.3</ele>
        <time>2020-10-12T11:35:51Z</time>
      </trkpt>
      <trkpt lat="38.3635960" lon="-0.8840160">
        <ele>391.9</ele>
        <time>2020-10-12T11:35:53Z</time>
      </trkpt>
      <trkpt lat="38.3635710" lon="-0.8837410">
        <ele>391.6</ele>
        <time>2020-10-12T11:35:55Z</time>
      </trkpt>
      <trkpt lat="38.3635450" lon="-0.8834630">
        <ele>391.3</ele>
        <time>2020-10-12T11:35:57Z</time>
      </trkpt>
      <trkpt lat="38.3635260" lon="-0.8831820">
        <ele>390.9</ele>
        <time>2020-10-12T11:35:59Z</time>
      </trkpt>
      <trkpt lat="38.3635110" lon="-0.8829000">
        <ele>390.5</ele>
        <time>2020-10-12T11:36:01Z</time>
      </trkpt>
      <trkpt lat="38.3634900" lon="-0.8826200">
        <ele>390.3</ele>
        <time>2020-10-12T11:36:03Z</time>
      </trkpt>
      <trkpt lat="38.3634710" lon="-0.8823500">
        <ele>389.8</ele>
        <time>2020-10-12T11:36:05Z</time>
      </trkpt>
      <trkpt lat="38.3634570" lon="-0.8820800">
        <ele>389.5</ele>
        <time>2020-10-12T11:36:07Z</time>
      </trkpt>
      <trkpt lat="38.3634420" lon="-0.8818020">
        <ele>389.3</ele>
        <time>2020-10-12T11:36:09Z</time>
      </trkpt>
      <trkpt lat="38.3634220" lon="-0.8815270">
        <ele>389.2</ele>
        <time>2020-10-12T11:36:11Z</time>
      </trkpt>
      <trkpt lat="38.3634160" lon="-0.8812480">
        <ele>389.1</ele>
        <time>2020-10-12T11:36:13Z</time>
      </trkpt>
      <trkpt lat="38.3633960" lon="-0.8809880">
        <ele>389.3</ele>
        <time>2020-10-12T11:36:15Z</time>
      </trkpt>
      <trkpt lat="38.3633780" lon="-0.8807360">
        <ele>389.5</ele>
        <time>2020-10-12T11:36:17Z</time>
      </trkpt>
      <trkpt lat="38.3633590" lon="-0.8804900">
        <ele>389.7</ele>
        <time>2020-10-12T11:36:19Z</time>
      </trkpt>
      <trkpt lat="38.3633480" lon="-0.8802580">
        <ele>390.0</ele>
        <time>2020-10-12T11:36:21Z</time>
      </trkpt>
      <trkpt lat="38.3633410" lon="-0.8799180">
        <ele>390.2</ele>
        <time>2020-10-12T11:36:24Z</time>
      </trkpt>
      <trkpt lat="38.3633410" lon="-0.8795800">
        <ele>390.1</ele>
        <time>2020-10-12T11:36:27Z</time>
      </trkpt>
      <trkpt lat="38.3633450" lon="-0.8793500">
        <ele>389.9</ele>
        <time>2020-10-12T11:36:29Z</time>
      </trkpt>
      <trkpt lat="38.3633610" lon="-0.8791180">
        <ele>389.5</ele>
        <time>2020-10-12T11:36:31Z</time>
      </trkpt>
      <trkpt lat="38.3633750" lon="-0.8788860">
        <ele>389.2</ele>
        <time>2020-10-12T11:36:33Z</time>
      </trkpt>
      <trkpt lat="38.3633900" lon="-0.8786530">
        <ele>388.9</ele>
        <time>2020-10-12T11:36:35Z</time>
      </trkpt>
      <trkpt lat="38.3634110" lon="-0.8784220">
        <ele>388.6</ele>
        <time>2020-10-12T11:36:37Z</time>
      </trkpt>
      <trkpt lat="38.3634260" lon="-0.8781910">
        <ele>388.2</ele>
        <time>2020-10-12T11:36:39Z</time>
      </trkpt>
      <trkpt lat="38.3634440" lon="-0.8779580">
        <ele>387.6</ele>
        <time>2020-10-12T11:36:41Z</time>
      </trkpt>
      <trkpt lat="38.3634690" lon="-0.8777190">
        <ele>387.0</ele>
        <time>2020-10-12T11:36:43Z</time>
      </trkpt>
      <trkpt lat="38.3634890" lon="-0.8774760">
        <ele>386.5</ele>
        <time>2020-10-12T11:36:45Z</time>
      </trkpt>
      <trkpt lat="38.3635070" lon="-0.8772230">
        <ele>386.0</ele>
        <time>2020-10-12T11:36:47Z</time>
      </trkpt>
      <trkpt lat="38.3635330" lon="-0.8769750">
        <ele>385.6</ele>
        <time>2020-10-12T11:36:49Z</time>
      </trkpt>
      <trkpt lat="38.3635510" lon="-0.8767220">
        <ele>385.3</ele>
        <time>2020-10-12T11:36:51Z</time>
      </trkpt>
      <trkpt lat="38.3635700" lon="-0.8764750">
        <ele>385.1</ele>
        <time>2020-10-12T11:36:53Z</time>
      </trkpt>
      <trkpt lat="38.3635860" lon="-0.8762280">
        <ele>385.0</ele>
        <time>2020-10-12T11:36:55Z</time>
      </trkpt>
      <trkpt lat="38.3636090" lon="-0.8759880">
        <ele>384.9</ele>
        <time>2020-10-12T11:36:57Z</time>
      </trkpt>
      <trkpt lat="38.3636310" lon="-0.8757520">
        <ele>385.0</ele>
        <time>2020-10-12T11:36:59Z</time>
      </trkpt>
      <trkpt lat="38.3636430" lon="-0.8755180">
        <ele>385.0</ele>
        <time>2020-10-12T11:37:01Z</time>
      </trkpt>
      <trkpt lat="38.3636570" lon="-0.8752840">
        <ele>385.2</ele>
        <time>2020-10-12T11:37:03Z</time>
      </trkpt>
      <trkpt lat="38.3636740" lon="-0.8750530">
        <ele>385.5</ele>
        <time>2020-10-12T11:37:05Z</time>
      </trkpt>
      <trkpt lat="38.3636900" lon="-0.8748220">
        <ele>385.9</ele>
        <time>2020-10-12T11:37:07Z</time>
      </trkpt>
      <trkpt lat="38.3637120" lon="-0.8744870">
        <ele>386.4</ele>
        <time>2020-10-12T11:37:10Z</time>
      </trkpt>
      <trkpt lat="38.3637350" lon="-0.8741600">
        <ele>387.1</ele>
        <time>2020-10-12T11:37:13Z</time>
      </trkpt>
      <trkpt lat="38.3637450" lon="-0.8738460">
        <ele>387.7</ele>
        <time>2020-10-12T11:37:16Z</time>
      </trkpt>
      <trkpt lat="38.3637100" lon="-0.8735470">
        <ele>388.2</ele>
        <time>2020-10-12T11:37:19Z</time>
      </trkpt>
      <trkpt lat="38.3635800" lon="-0.8733050">
        <ele>388.2</ele>
        <time>2020-10-12T11:37:22Z</time>
      </trkpt>
      <trkpt lat="38.3633390" lon="-0.8731950">
        <ele>388.3</ele>
        <time>2020-10-12T11:37:25Z</time>
      </trkpt>
      <trkpt lat="38.3632290" lon="-0.8729050">
        <ele>388.4</ele>
        <time>2020-10-12T11:37:28Z</time>
      </trkpt>
      <trkpt lat="38.3632280" lon="-0.8725940">
        <ele>387.9</ele>
        <time>2020-10-12T11:37:31Z</time>
      </trkpt>
      <trkpt lat="38.3631020" lon="-0.8723000">
        <ele>387.1</ele>
        <time>2020-10-12T11:37:34Z</time>
      </trkpt>
      <trkpt lat="38.3629760" lon="-0.8721160">
        <ele>386.8</ele>
        <time>2020-10-12T11:37:36Z</time>
      </trkpt>
      <trkpt lat="38.3628470" lon="-0.8719200">
        <ele>386.5</ele>
        <time>2020-10-12T11:37:38Z</time>
      </trkpt>
      <trkpt lat="38.3627180" lon="-0.8717270">
        <ele>386.1</ele>
        <time>2020-10-12T11:37:40Z</time>
      </trkpt>
      <trkpt lat="38.3625760" lon="-0.8715500">
        <ele>385.8</ele>
        <time>2020-10-12T11:37:42Z</time>
      </trkpt>
      <trkpt lat="38.3623940" lon="-0.8714460">
        <ele>385.4</ele>
        <time>2020-10-12T11:37:44Z</time>
      </trkpt>
      <trkpt lat="38.3621920" lon="-0.8714420">
        <ele>384.8</ele>
        <time>2020-10-12T11:37:46Z</time>
      </trkpt>
      <trkpt lat="38.3619900" lon="-0.8714790">
        <ele>384.1</ele>
        <time>2020-10-12T11:37:48Z</time>
      </trkpt>
      <trkpt lat="38.3617830" lon="-0.8715300">
        <ele>383.2</ele>
        <time>2020-10-12T11:37:50Z</time>
      </trkpt>
      <trkpt lat="38.3615760" lon="-0.8715910">
        <ele>382.1</ele>
        <time>2020-10-12T11:37:52Z</time>
      </trkpt>
      <trkpt lat="38.3613620" lon="-0.8716560">
        <ele>380.7</ele>
        <time>2020-10-12T11:37:54Z</time>
      </trkpt>
      <trkpt lat="38.3611340" lon="-0.8717220">
        <ele>379.2</ele>
        <time>2020-10-12T11:37:56Z</time>
      </trkpt>
      <trkpt lat="38.3609030" lon="-0.8718000">
        <ele>377.7</ele>
        <time>2020-10-12T11:37:58Z</time>
      </trkpt>
      <trkpt lat="38.3606690" lon="-0.8718790">
        <ele>376.1</ele>
        <time>2020-10-12T11:38:00Z</time>
      </trkpt>
      <trkpt lat="38.3604370" lon="-0.8719530">
        <ele>374.9</ele>
        <time>2020-10-12T11:38:02Z</time>
      </trkpt>
      <trkpt lat="38.3602030" lon="-0.8720100">
        <ele>373.9</ele>
        <time>2020-10-12T11:38:04Z</time>
      </trkpt>
      <trkpt lat="38.3599690" lon="-0.8720060">
        <ele>373.5</ele>
        <time>2020-10-12T11:38:06Z</time>
      </trkpt>
      <trkpt lat="38.3597630" lon="-0.8719020">
        <ele>373.4</ele>
        <time>2020-10-12T11:38:08Z</time>
      </trkpt>
      <trkpt lat="38.3596170" lon="-0.8716870">
        <ele>373.2</ele>
        <time>2020-10-12T11:38:10Z</time>
      </trkpt>
      <trkpt lat="38.3595060" lon="-0.8714330">
        <ele>373.0</ele>
        <time>2020-10-12T11:38:12Z</time>
      </trkpt>
      <trkpt lat="38.3594190" lon="-0.8711570">
        <ele>372.8</ele>
        <time>2020-10-12T11:38:14Z</time>
      </trkpt>
      <trkpt lat="38.3593370" lon="-0.8708750">
        <ele>372.4</ele>
        <time>2020-10-12T11:38:16Z</time>
      </trkpt>
      <trkpt lat="38.3592560" lon="-0.8706070">
        <ele>372.2</ele>
        <time>2020-10-12T11:38:18Z</time>
      </trkpt>
      <trkpt lat="38.3591720" lon="-0.8703420">
        <ele>372.1</ele>
        <time>2020-10-12T11:38:20Z</time>
      </trkpt>
      <trkpt lat="38.3590850" lon="-0.8700750">
        <ele>371.7</ele>
        <time>2020-10-12T11:38:22Z</time>
      </trkpt>
      <trkpt lat="38.3589930" lon="-0.8698180">
        <ele>371.4</ele>
        <time>2020-10-12T11:38:24Z</time>
      </trkpt>
      <trkpt lat="38.3588970" lon="-0.8695510">
        <ele>370.9</ele>
        <time>2020-10-12T11:38:26Z</time>
      </trkpt>
      <trkpt lat="38.3588040" lon="-0.8692910">
        <ele>370.4</ele>
        <time>2020-10-12T11:38:28Z</time>
      </trkpt>
      <trkpt lat="38.3587000" lon="-0.8690410">
        <ele>370.1</ele>
        <time>2020-10-12T11:38:30Z</time>
      </trkpt>
      <trkpt lat="38.3585760" lon="-0.8688050">
        <ele>369.8</ele>
        <time>2020-10-12T11:38:32Z</time>
      </trkpt>
      <trkpt lat="38.3584350" lon="-0.8685870">
        <ele>369.6</ele>
        <time>2020-10-12T11:38:34Z</time>
      </trkpt>
      <trkpt lat="38.3582930" lon="-0.8683710">
        <ele>369.1</ele>
        <time>2020-10-12T11:38:36Z</time>
      </trkpt>
      <trkpt lat="38.3581460" lon="-0.8681810">
        <ele>368.5</ele>
        <time>2020-10-12T11:38:38Z</time>
      </trkpt>
      <trkpt lat="38.3579980" lon="-0.8680010">
        <ele>368.2</ele>
        <time>2020-10-12T11:38:40Z</time>
      </trkpt>
      <trkpt lat="38.3578610" lon="-0.8678090">
        <ele>368.0</ele>
        <time>2020-10-12T11:38:42Z</time>
      </trkpt>
      <trkpt lat="38.3577320" lon="-0.8676090">
        <ele>367.8</ele>
        <time>2020-10-12T11:38:44Z</time>
      </trkpt>
      <trkpt lat="38.3575900" lon="-0.8674060">
        <ele>367.9</ele>
        <time>2020-10-12T11:38:46Z</time>
      </trkpt>
      <trkpt lat="38.3574450" lon="-0.8672190">
        <ele>368.1</ele>
        <time>2020-10-12T11:38:48Z</time>
      </trkpt>
      <trkpt lat="38.3572970" lon="-0.8670510">
        <ele>368.5</ele>
        <time>2020-10-12T11:38:50Z</time>
      </trkpt>
      <trkpt lat="38.3571370" lon="-0.8669190">
        <ele>368.7</ele>
        <time>2020-10-12T11:38:52Z</time>
      </trkpt>
      <trkpt lat="38.3569670" lon="-0.8668250">
        <ele>368.9</ele>
        <time>2020-10-12T11:38:54Z</time>
      </trkpt>
      <trkpt lat="38.3567910" lon="-0.8667540">
        <ele>369.0</ele>
        <time>2020-10-12T11:38:56Z</time>
      </trkpt>
      <trkpt lat="38.3565370" lon="-0.8666400">
        <ele>369.0</ele>
        <time>2020-10-12T11:38:59Z</time>
      </trkpt>
      <trkpt lat="38.3563640" lon="-0.8665600">
        <ele>369.0</ele>
        <time>2020-10-12T11:39:01Z</time>
      </trkpt>
      <trkpt lat="38.3561960" lon="-0.8664710">
        <ele>369.2</ele>
        <time>2020-10-12T11:39:03Z</time>
      </trkpt>
      <trkpt lat="38.3559880" lon="-0.8662710">
        <ele>369.3</ele>
        <time>2020-10-12T11:39:06Z</time>
      </trkpt>
      <trkpt lat="38.3558890" lon="-0.8660780">
        <ele>369.0</ele>
        <time>2020-10-12T11:39:08Z</time>
      </trkpt>
      <trkpt lat="38.3558140" lon="-0.8658460">
        <ele>368.6</ele>
        <time>2020-10-12T11:39:10Z</time>
      </trkpt>
      <trkpt lat="38.3557460" lon="-0.8656200">
        <ele>368.3</ele>
        <time>2020-10-12T11:39:12Z</time>
      </trkpt>
      <trkpt lat="38.3556520" lon="-0.8654160">
        <ele>368.1</ele>
        <time>2020-10-12T11:39:14Z</time>
      </trkpt>
      <trkpt lat="38.3555530" lon="-0.8652110">
        <ele>367.8</ele>
        <time>2020-10-12T11:39:16Z</time>
      </trkpt>
      <trkpt lat="38.3554540" lon="-0.8650080">
        <ele>367.5</ele>
        <time>2020-10-12T11:39:18Z</time>
      </trkpt>
      <trkpt lat="38.3553550" lon="-0.8648070">
        <ele>367.2</ele>
        <time>2020-10-12T11:39:20Z</time>
      </trkpt>
      <trkpt lat="38.3552480" lon="-0.8646020">
        <ele>366.8</ele>
        <time>2020-10-12T11:39:22Z</time>
      </trkpt>
      <trkpt lat="38.3551400" lon="-0.8644060">
        <ele>366.4</ele>
        <time>2020-10-12T11:39:24Z</time>
      </trkpt>
      <trkpt lat="38.3550190" lon="-0.8642250">
        <ele>366.0</ele>
        <time>2020-10-12T11:39:26Z</time>
      </trkpt>
      <trkpt lat="38.3548760" lon="-0.8640500">
        <ele>365.6</ele>
        <time>2020-10-12T11:39:28Z</time>
      </trkpt>
      <trkpt lat="38.3547210" lon="-0.8638870">
        <ele>365.2</ele>
        <time>2020-10-12T11:39:30Z</time>
      </trkpt>
      <trkpt lat="38.3545590" lon="-0.8637450">
        <ele>365.2</ele>
        <time>2020-10-12T11:39:32Z</time>
      </trkpt>
      <trkpt lat="38.3544020" lon="-0.8636120">
        <ele>365.3</ele>
        <time>2020-10-12T11:39:34Z</time>
      </trkpt>
      <trkpt lat="38.3541820" lon="-0.8634220">
        <ele>365.7</ele>
        <time>2020-10-12T11:39:37Z</time>
      </trkpt>
      <trkpt lat="38.3539430" lon="-0.8633420">
        <ele>366.6</ele>
        <time>2020-10-12T11:39:40Z</time>
      </trkpt>
      <trkpt lat="38.3537140" lon="-0.8634020">
        <ele>367.1</ele>
        <time>2020-10-12T11:39:43Z</time>
      </trkpt>
      <trkpt lat="38.3534930" lon="-0.8634970">
        <ele>367.3</ele>
        <time>2020-10-12T11:39:46Z</time>
      </trkpt>
      <trkpt lat="38.3532720" lon="-0.8635930">
        <ele>367.7</ele>
        <time>2020-10-12T11:39:49Z</time>
      </trkpt>
      <trkpt lat="38.3530600" lon="-0.8636870">
        <ele>367.9</ele>
        <time>2020-10-12T11:39:52Z</time>
      </trkpt>
      <trkpt lat="38.3528330" lon="-0.8637610">
        <ele>368.1</ele>
        <time>2020-10-12T11:39:55Z</time>
      </trkpt>
      <trkpt lat="38.3526020" lon="-0.8637830">
        <ele>368.4</ele>
        <time>2020-10-12T11:39:58Z</time>
      </trkpt>
      <trkpt lat="38.3523740" lon="-0.8637740">
        <ele>368.8</ele>
        <time>2020-10-12T11:40:01Z</time>
      </trkpt>
      <trkpt lat="38.3521480" lon="-0.8637380">
        <ele>369.2</ele>
        <time>2020-10-12T11:40:04Z</time>
      </trkpt>
      <trkpt lat="38.3519350" lon="-0.8636520">
        <ele>369.5</ele>
        <time>2020-10-12T11:40:07Z</time>
      </trkpt>
      <trkpt lat="38.3517330" lon="-0.8635130">
        <ele>369.9</ele>
        <time>2020-10-12T11:40:10Z</time>
      </trkpt>
      <trkpt lat="38.3515420" lon="-0.8633790">
        <ele>370.4</ele>
        <time>2020-10-12T11:40:13Z</time>
      </trkpt>
      <trkpt lat="38.3513410" lon="-0.8633270">
        <ele>371.0</ele>
        <time>2020-10-12T11:40:16Z</time>
      </trkpt>
      <trkpt lat="38.3511380" lon="-0.8633460">
        <ele>371.2</ele>
        <time>2020-10-12T11:40:19Z</time>
      </trkpt>
      <trkpt lat="38.3509230" lon="-0.8633770">
        <ele>371.1</ele>
        <time>2020-10-12T11:40:22Z</time>
      </trkpt>
      <trkpt lat="38.3507070" lon="-0.8633950">
        <ele>371.0</ele>
        <time>2020-10-12T11:40:25Z</time>
      </trkpt>
      <trkpt lat="38.3504770" lon="-0.8634020">
        <ele>370.9</ele>
        <time>2020-10-12T11:40:28Z</time>
      </trkpt>
      <trkpt lat="38.3502370" lon="-0.8634110">
        <ele>370.6</ele>
        <time>2020-10-12T11:40:31Z</time>
      </trkpt>
      <trkpt lat="38.3499840" lon="-0.8634030">
        <ele>370.4</ele>
        <time>2020-10-12T11:40:34Z</time>
      </trkpt>
      <trkpt lat="38.3497330" lon="-0.8633730">
        <ele>370.0</ele>
        <time>2020-10-12T11:40:37Z</time>
      </trkpt>
      <trkpt lat="38.3494770" lon="-0.8633390">
        <ele>369.9</ele>
        <time>2020-10-12T11:40:40Z</time>
      </trkpt>
      <trkpt lat="38.3492330" lon="-0.8632860">
        <ele>370.0</ele>
        <time>2020-10-12T11:40:43Z</time>
      </trkpt>
      <trkpt lat="38.3489960" lon="-0.8632280">
        <ele>370.0</ele>
        <time>2020-10-12T11:40:46Z</time>
      </trkpt>
      <trkpt lat="38.3487760" lon="-0.8631310">
        <ele>370.0</ele>
        <time>2020-10-12T11:40:49Z</time>
      </trkpt>
      <trkpt lat="38.3485550" lon="-0.8629770">
        <ele>369.7</ele>
        <time>2020-10-12T11:40:52Z</time>
      </trkpt>
      <trkpt lat="38.3483340" lon="-0.8628010">
        <ele>369.2</ele>
        <time>2020-10-12T11:40:55Z</time>
      </trkpt>
      <trkpt lat="38.3480960" lon="-0.8626330">
        <ele>368.8</ele>
        <time>2020-10-12T11:40:58Z</time>
      </trkpt>
      <trkpt lat="38.3479360" lon="-0.8625160">
        <ele>368.7</ele>
        <time>2020-10-12T11:41:00Z</time>
      </trkpt>
      <trkpt lat="38.3477140" lon="-0.8623440">
        <ele>368.4</ele>
        <time>2020-10-12T11:41:03Z</time>
      </trkpt>
      <trkpt lat="38.3474980" lon="-0.8621840">
        <ele>368.1</ele>
        <time>2020-10-12T11:41:06Z</time>
      </trkpt>
      <trkpt lat="38.3472840" lon="-0.8620430">
        <ele>367.8</ele>
        <time>2020-10-12T11:41:09Z</time>
      </trkpt>
      <trkpt lat="38.3470670" lon="-0.8618910">
        <ele>367.6</ele>
        <time>2020-10-12T11:41:12Z</time>
      </trkpt>
      <trkpt lat="38.3468590" lon="-0.8617270">
        <ele>367.3</ele>
        <time>2020-10-12T11:41:15Z</time>
      </trkpt>
      <trkpt lat="38.3466500" lon="-0.8615740">
        <ele>367.0</ele>
        <time>2020-10-12T11:41:18Z</time>
      </trkpt>
      <trkpt lat="38.3464340" lon="-0.8614170">
        <ele>366.8</ele>
        <time>2020-10-12T11:41:21Z</time>
      </trkpt>
      <trkpt lat="38.3462190" lon="-0.8612550">
        <ele>366.3</ele>
        <time>2020-10-12T11:41:24Z</time>
      </trkpt>
      <trkpt lat="38.3459880" lon="-0.8610930">
        <ele>365.7</ele>
        <time>2020-10-12T11:41:27Z</time>
      </trkpt>
      <trkpt lat="38.3457720" lon="-0.8609290">
        <ele>365.3</ele>
        <time>2020-10-12T11:41:30Z</time>
      </trkpt>
      <trkpt lat="38.3455460" lon="-0.8607640">
        <ele>364.8</ele>
        <time>2020-10-12T11:41:33Z</time>
      </trkpt>
      <trkpt lat="38.3453180" lon="-0.8606080">
        <ele>364.4</ele>
        <time>2020-10-12T11:41:36Z</time>
      </trkpt>
      <trkpt lat="38.3450930" lon="-0.8604550">
        <ele>363.8</ele>
        <time>2020-10-12T11:41:39Z</time>
      </trkpt>
      <trkpt lat="38.3448590" lon="-0.8602870">
        <ele>363.1</ele>
        <time>2020-10-12T11:41:42Z</time>
      </trkpt>
      <trkpt lat="38.3446270" lon="-0.8601270">
        <ele>362.5</ele>
        <time>2020-10-12T11:41:45Z</time>
      </trkpt>
      <trkpt lat="38.3443890" lon="-0.8599650">
        <ele>361.9</ele>
        <time>2020-10-12T11:41:48Z</time>
      </trkpt>
      <trkpt lat="38.3441650" lon="-0.8597880">
        <ele>361.2</ele>
        <time>2020-10-12T11:41:51Z</time>
      </trkpt>
      <trkpt lat="38.3439430" lon="-0.8596180">
        <ele>360.7</ele>
        <time>2020-10-12T11:41:54Z</time>
      </trkpt>
      <trkpt lat="38.3437800" lon="-0.8595150">
        <ele>360.2</ele>
        <time>2020-10-12T11:41:56Z</time>
      </trkpt>
      <trkpt lat="38.3435980" lon="-0.8594450">
        <ele>359.8</ele>
        <time>2020-10-12T11:41:58Z</time>
      </trkpt>
      <trkpt lat="38.3434130" lon="-0.8594160">
        <ele>359.6</ele>
        <time>2020-10-12T11:42:00Z</time>
      </trkpt>
      <trkpt lat="38.3432250" lon="-0.8594260">
        <ele>359.6</ele>
        <time>2020-10-12T11:42:02Z</time>
      </trkpt>
      <trkpt lat="38.3429640" lon="-0.8594860">
        <ele>359.6</ele>
        <time>2020-10-12T11:42:05Z</time>
      </trkpt>
      <trkpt lat="38.3427040" lon="-0.8595530">
        <ele>359.9</ele>
        <time>2020-10-12T11:42:08Z</time>
      </trkpt>
      <trkpt lat="38.3424650" lon="-0.8596260">
        <ele>360.3</ele>
        <time>2020-10-12T11:42:11Z</time>
      </trkpt>
      <trkpt lat="38.3422350" lon="-0.8597010">
        <ele>360.8</ele>
        <time>2020-10-12T11:42:14Z</time>
      </trkpt>
      <trkpt lat="38.3420110" lon="-0.8597750">
        <ele>361.2</ele>
        <time>2020-10-12T11:42:17Z</time>
      </trkpt>
      <trkpt lat="38.3417820" lon="-0.8598680">
        <ele>361.4</ele>
        <time>2020-10-12T11:42:20Z</time>
      </trkpt>
      <trkpt lat="38.3415680" lon="-0.8599860">
        <ele>361.7</ele>
        <time>2020-10-12T11:42:23Z</time>
      </trkpt>
      <trkpt lat="38.3413510" lon="-0.8601070">
        <ele>362.2</ele>
        <time>2020-10-12T11:42:26Z</time>
      </trkpt>
      <trkpt lat="38.3411420" lon="-0.8602370">
        <ele>362.7</ele>
        <time>2020-10-12T11:42:29Z</time>
      </trkpt>
      <trkpt lat="38.3409560" lon="-0.8603510">
        <ele>363.1</ele>
        <time>2020-10-12T11:42:32Z</time>
      </trkpt>
      <trkpt lat="38.3407670" lon="-0.8604730">
        <ele>363.5</ele>
        <time>2020-10-12T11:42:35Z</time>
      </trkpt>
      <trkpt lat="38.3405760" lon="-0.8605960">
        <ele>363.8</ele>
        <time>2020-10-12T11:42:38Z</time>
      </trkpt>
      <trkpt lat="38.3403720" lon="-0.8607080">
        <ele>364.1</ele>
        <time>2020-10-12T11:42:41Z</time>
      </trkpt>
      <trkpt lat="38.3401690" lon="-0.8608410">
        <ele>364.3</ele>
        <time>2020-10-12T11:42:44Z</time>
      </trkpt>
      <trkpt lat="38.3399680" lon="-0.8609650">
        <ele>364.8</ele>
        <time>2020-10-12T11:42:47Z</time>
      </trkpt>
      <trkpt lat="38.3397820" lon="-0.8611000">
        <ele>365.1</ele>
        <time>2020-10-12T11:42:50Z</time>
      </trkpt>
      <trkpt lat="38.3396000" lon="-0.8612400">
        <ele>365.5</ele>
        <time>2020-10-12T11:42:53Z</time>
      </trkpt>
      <trkpt lat="38.3394150" lon="-0.8613790">
        <ele>366.1</ele>
        <time>2020-10-12T11:42:56Z</time>
      </trkpt>
      <trkpt lat="38.3392360" lon="-0.8615120">
        <ele>366.4</ele>
        <time>2020-10-12T11:42:59Z</time>
      </trkpt>
      <trkpt lat="38.3390600" lon="-0.8616450">
        <ele>367.0</ele>
        <time>2020-10-12T11:43:02Z</time>
      </trkpt>
      <trkpt lat="38.3388780" lon="-0.8617840">
        <ele>367.5</ele>
        <time>2020-10-12T11:43:05Z</time>
      </trkpt>
      <trkpt lat="38.3386910" lon="-0.8619230">
        <ele>368.0</ele>
        <time>2020-10-12T11:43:08Z</time>
      </trkpt>
      <trkpt lat="38.3385120" lon="-0.8620680">
        <ele>368.5</ele>
        <time>2020-10-12T11:43:11Z</time>
      </trkpt>
      <trkpt lat="38.3383540" lon="-0.8622170">
        <ele>369.0</ele>
        <time>2020-10-12T11:43:14Z</time>
      </trkpt>
      <trkpt lat="38.3382060" lon="-0.8623850">
        <ele>369.5</ele>
        <time>2020-10-12T11:43:17Z</time>
      </trkpt>
      <trkpt lat="38.3380640" lon="-0.8625500">
        <ele>370.0</ele>
        <time>2020-10-12T11:43:20Z</time>
      </trkpt>
      <trkpt lat="38.3379170" lon="-0.8627140">
        <ele>370.5</ele>
        <time>2020-10-12T11:43:23Z</time>
      </trkpt>
      <trkpt lat="38.3377790" lon="-0.8628890">
        <ele>371.0</ele>
        <time>2020-10-12T11:43:26Z</time>
      </trkpt>
      <trkpt lat="38.3376430" lon="-0.8630490">
        <ele>371.6</ele>
        <time>2020-10-12T11:43:29Z</time>
      </trkpt>
      <trkpt lat="38.3374650" lon="-0.8632410">
        <ele>372.3</ele>
        <time>2020-10-12T11:43:33Z</time>
      </trkpt>
      <trkpt lat="38.3372980" lon="-0.8634340">
        <ele>373.1</ele>
        <time>2020-10-12T11:43:37Z</time>
      </trkpt>
      <trkpt lat="38.3371190" lon="-0.8636280">
        <ele>373.9</ele>
        <time>2020-10-12T11:43:41Z</time>
      </trkpt>
      <trkpt lat="38.3369370" lon="-0.8637950">
        <ele>374.5</ele>
        <time>2020-10-12T11:43:45Z</time>
      </trkpt>
      <trkpt lat="38.3367360" lon="-0.8639420">
        <ele>374.9</ele>
        <time>2020-10-12T11:43:49Z</time>
      </trkpt>
      <trkpt lat="38.3365730" lon="-0.8640700">
        <ele>375.0</ele>
        <time>2020-10-12T11:43:52Z</time>
      </trkpt>
      <trkpt lat="38.3363990" lon="-0.8641920">
        <ele>375.2</ele>
        <time>2020-10-12T11:43:55Z</time>
      </trkpt>
      <trkpt lat="38.3362080" lon="-0.8643010">
        <ele>375.4</ele>
        <time>2020-10-12T11:43:58Z</time>
      </trkpt>
      <trkpt lat="38.3360280" lon="-0.8644080">
        <ele>375.6</ele>
        <time>2020-10-12T11:44:01Z</time>
      </trkpt>
      <trkpt lat="38.3358540" lon="-0.8645040">
        <ele>375.9</ele>
        <time>2020-10-12T11:44:04Z</time>
      </trkpt>
      <trkpt lat="38.3356750" lon="-0.8646030">
        <ele>376.3</ele>
        <time>2020-10-12T11:44:07Z</time>
      </trkpt>
      <trkpt lat="38.3355110" lon="-0.8647100">
        <ele>376.8</ele>
        <time>2020-10-12T11:44:10Z</time>
      </trkpt>
      <trkpt lat="38.3352960" lon="-0.8648220">
        <ele>377.5</ele>
        <time>2020-10-12T11:44:14Z</time>
      </trkpt>
      <trkpt lat="38.3351280" lon="-0.8649080">
        <ele>378.0</ele>
        <time>2020-10-12T11:44:17Z</time>
      </trkpt>
      <trkpt lat="38.3349050" lon="-0.8649930">
        <ele>378.6</ele>
        <time>2020-10-12T11:44:21Z</time>
      </trkpt>
      <trkpt lat="38.3347270" lon="-0.8650650">
        <ele>378.9</ele>
        <time>2020-10-12T11:44:24Z</time>
      </trkpt>
      <trkpt lat="38.3345060" lon="-0.8651600">
        <ele>378.9</ele>
        <time>2020-10-12T11:44:28Z</time>
      </trkpt>
      <trkpt lat="38.3342950" lon="-0.8652620">
        <ele>379.0</ele>
        <time>2020-10-12T11:44:32Z</time>
      </trkpt>
      <trkpt lat="38.3341290" lon="-0.8653500">
        <ele>379.2</ele>
        <time>2020-10-12T11:44:35Z</time>
      </trkpt>
      <trkpt lat="38.3339540" lon="-0.8654490">
        <ele>379.5</ele>
        <time>2020-10-12T11:44:38Z</time>
      </trkpt>
      <trkpt lat="38.3337780" lon="-0.8655590">
        <ele>379.8</ele>
        <time>2020-10-12T11:44:41Z</time>
      </trkpt>
      <trkpt lat="38.3336080" lon="-0.8656660">
        <ele>380.0</ele>
        <time>2020-10-12T11:44:44Z</time>
      </trkpt>
      <trkpt lat="38.3334370" lon="-0.8657790">
        <ele>380.3</ele>
        <time>2020-10-12T11:44:47Z</time>
      </trkpt>
      <trkpt lat="38.3332660" lon="-0.8658780">
        <ele>380.5</ele>
        <time>2020-10-12T11:44:50Z</time>
      </trkpt>
      <trkpt lat="38.3330910" lon="-0.8659880">
        <ele>380.8</ele>
        <time>2020-10-12T11:44:53Z</time>
      </trkpt>
      <trkpt lat="38.3329140" lon="-0.8661030">
        <ele>381.1</ele>
        <time>2020-10-12T11:44:56Z</time>
      </trkpt>
      <trkpt lat="38.3327400" lon="-0.8662100">
        <ele>381.3</ele>
        <time>2020-10-12T11:44:59Z</time>
      </trkpt>
      <trkpt lat="38.3325710" lon="-0.8663130">
        <ele>381.4</ele>
        <time>2020-10-12T11:45:02Z</time>
      </trkpt>
      <trkpt lat="38.3323890" lon="-0.8664170">
        <ele>381.4</ele>
        <time>2020-10-12T11:45:05Z</time>
      </trkpt>
      <trkpt lat="38.3321980" lon="-0.8665180">
        <ele>381.5</ele>
        <time>2020-10-12T11:45:08Z</time>
      </trkpt>
      <trkpt lat="38.3319840" lon="-0.8665990">
        <ele>381.5</ele>
        <time>2020-10-12T11:45:11Z</time>
      </trkpt>
      <trkpt lat="38.3317760" lon="-0.8666740">
        <ele>381.4</ele>
        <time>2020-10-12T11:45:14Z</time>
      </trkpt>
      <trkpt lat="38.3315750" lon="-0.8667780">
        <ele>381.3</ele>
        <time>2020-10-12T11:45:17Z</time>
      </trkpt>
      <trkpt lat="38.3313820" lon="-0.8669080">
        <ele>381.1</ele>
        <time>2020-10-12T11:45:20Z</time>
      </trkpt>
      <trkpt lat="38.3311960" lon="-0.8670580">
        <ele>380.7</ele>
        <time>2020-10-12T11:45:23Z</time>
      </trkpt>
      <trkpt lat="38.3310040" lon="-0.8672200">
        <ele>380.5</ele>
        <time>2020-10-12T11:45:26Z</time>
      </trkpt>
      <trkpt lat="38.3308070" lon="-0.8673720">
        <ele>380.3</ele>
        <time>2020-10-12T11:45:29Z</time>
      </trkpt>
      <trkpt lat="38.3305910" lon="-0.8675320">
        <ele>380.1</ele>
        <time>2020-10-12T11:45:32Z</time>
      </trkpt>
      <trkpt lat="38.3303700" lon="-0.8676820">
        <ele>380.0</ele>
        <time>2020-10-12T11:45:35Z</time>
      </trkpt>
      <trkpt lat="38.3301340" lon="-0.8678020">
        <ele>379.6</ele>
        <time>2020-10-12T11:45:38Z</time>
      </trkpt>
      <trkpt lat="38.3298950" lon="-0.8678940">
        <ele>379.4</ele>
        <time>2020-10-12T11:45:41Z</time>
      </trkpt>
      <trkpt lat="38.3296410" lon="-0.8679550">
        <ele>379.2</ele>
        <time>2020-10-12T11:45:44Z</time>
      </trkpt>
      <trkpt lat="38.3293890" lon="-0.8680160">
        <ele>378.9</ele>
        <time>2020-10-12T11:45:47Z</time>
      </trkpt>
      <trkpt lat="38.3291480" lon="-0.8681000">
        <ele>378.5</ele>
        <time>2020-10-12T11:45:50Z</time>
      </trkpt>
      <trkpt lat="38.3289240" lon="-0.8681950">
        <ele>378.4</ele>
        <time>2020-10-12T11:45:53Z</time>
      </trkpt>
      <trkpt lat="38.3286900" lon="-0.8682900">
        <ele>378.4</ele>
        <time>2020-10-12T11:45:56Z</time>
      </trkpt>
      <trkpt lat="38.3284690" lon="-0.8683830">
        <ele>378.3</ele>
        <time>2020-10-12T11:45:59Z</time>
      </trkpt>
      <trkpt lat="38.3282400" lon="-0.8684960">
        <ele>378.1</ele>
        <time>2020-10-12T11:46:02Z</time>
      </trkpt>
      <trkpt lat="38.3280240" lon="-0.8686280">
        <ele>377.9</ele>
        <time>2020-10-12T11:46:05Z</time>
      </trkpt>
      <trkpt lat="38.3277940" lon="-0.8687860">
        <ele>377.7</ele>
        <time>2020-10-12T11:46:08Z</time>
      </trkpt>
      <trkpt lat="38.3276400" lon="-0.8689070">
        <ele>377.4</ele>
        <time>2020-10-12T11:46:10Z</time>
      </trkpt>
      <trkpt lat="38.3274300" lon="-0.8690810">
        <ele>377.0</ele>
        <time>2020-10-12T11:46:13Z</time>
      </trkpt>
      <trkpt lat="38.3272080" lon="-0.8692510">
        <ele>376.3</ele>
        <time>2020-10-12T11:46:16Z</time>
      </trkpt>
      <trkpt lat="38.3269740" lon="-0.8693860">
        <ele>375.9</ele>
        <time>2020-10-12T11:46:19Z</time>
      </trkpt>
      <trkpt lat="38.3268010" lon="-0.8694720">
        <ele>375.8</ele>
        <time>2020-10-12T11:46:21Z</time>
      </trkpt>
      <trkpt lat="38.3265660" lon="-0.8695870">
        <ele>375.4</ele>
        <time>2020-10-12T11:46:24Z</time>
      </trkpt>
      <trkpt lat="38.3263240" lon="-0.8696980">
        <ele>374.7</ele>
        <time>2020-10-12T11:46:27Z</time>
      </trkpt>
      <trkpt lat="38.3260800" lon="-0.8698120">
        <ele>374.1</ele>
        <time>2020-10-12T11:46:30Z</time>
      </trkpt>
      <trkpt lat="38.3258560" lon="-0.8699410">
        <ele>373.5</ele>
        <time>2020-10-12T11:46:33Z</time>
      </trkpt>
      <trkpt lat="38.3256040" lon="-0.8700560">
        <ele>373.0</ele>
        <time>2020-10-12T11:46:36Z</time>
      </trkpt>
      <trkpt lat="38.3254250" lon="-0.8701210">
        <ele>372.6</ele>
        <time>2020-10-12T11:46:38Z</time>
      </trkpt>
      <trkpt lat="38.3252360" lon="-0.8701470">
        <ele>372.2</ele>
        <time>2020-10-12T11:46:40Z</time>
      </trkpt>
      <trkpt lat="38.3250530" lon="-0.8701380">
        <ele>371.9</ele>
        <time>2020-10-12T11:46:42Z</time>
      </trkpt>
      <trkpt lat="38.3247950" lon="-0.8700930">
        <ele>371.4</ele>
        <time>2020-10-12T11:46:45Z</time>
      </trkpt>
      <trkpt lat="38.3245460" lon="-0.8700250">
        <ele>371.0</ele>
        <time>2020-10-12T11:46:48Z</time>
      </trkpt>
      <trkpt lat="38.3242950" lon="-0.8699310">
        <ele>370.7</ele>
        <time>2020-10-12T11:46:51Z</time>
      </trkpt>
      <trkpt lat="38.3240550" lon="-0.8698220">
        <ele>370.5</ele>
        <time>2020-10-12T11:46:54Z</time>
      </trkpt>
      <trkpt lat="38.3238340" lon="-0.8696500">
        <ele>370.4</ele>
        <time>2020-10-12T11:46:57Z</time>
      </trkpt>
      <trkpt lat="38.3236950" lon="-0.8695040">
        <ele>370.3</ele>
        <time>2020-10-12T11:46:59Z</time>
      </trkpt>
      <trkpt lat="38.3235630" lon="-0.8693460">
        <ele>370.2</ele>
        <time>2020-10-12T11:47:01Z</time>
      </trkpt>
      <trkpt lat="38.3234390" lon="-0.8691800">
        <ele>370.1</ele>
        <time>2020-10-12T11:47:03Z</time>
      </trkpt>
      <trkpt lat="38.3233120" lon="-0.8690130">
        <ele>370.1</ele>
        <time>2020-10-12T11:47:05Z</time>
      </trkpt>
      <trkpt lat="38.3231220" lon="-0.8687750">
        <ele>370.0</ele>
        <time>2020-10-12T11:47:08Z</time>
      </trkpt>
      <trkpt lat="38.3229160" lon="-0.8685630">
        <ele>369.9</ele>
        <time>2020-10-12T11:47:11Z</time>
      </trkpt>
      <trkpt lat="38.3227030" lon="-0.8683910">
        <ele>370.0</ele>
        <time>2020-10-12T11:47:14Z</time>
      </trkpt>
      <trkpt lat="38.3224710" lon="-0.8682880">
        <ele>370.0</ele>
        <time>2020-10-12T11:47:17Z</time>
      </trkpt>
      <trkpt lat="38.3222380" lon="-0.8681930">
        <ele>370.0</ele>
        <time>2020-10-12T11:47:20Z</time>
      </trkpt>
      <trkpt lat="38.3220120" lon="-0.8680710">
        <ele>370.1</ele>
        <time>2020-10-12T11:47:23Z</time>
      </trkpt>
      <trkpt lat="38.3217800" lon="-0.8679330">
        <ele>370.1</ele>
        <time>2020-10-12T11:47:26Z</time>
      </trkpt>
      <trkpt lat="38.3215690" lon="-0.8677770">
        <ele>370.2</ele>
        <time>2020-10-12T11:47:29Z</time>
      </trkpt>
      <trkpt lat="38.3213600" lon="-0.8676030">
        <ele>370.2</ele>
        <time>2020-10-12T11:47:32Z</time>
      </trkpt>
      <trkpt lat="38.3211590" lon="-0.8674220">
        <ele>370.2</ele>
        <time>2020-10-12T11:47:35Z</time>
      </trkpt>
      <trkpt lat="38.3209600" lon="-0.8672410">
        <ele>370.3</ele>
        <time>2020-10-12T11:47:38Z</time>
      </trkpt>
      <trkpt lat="38.3207720" lon="-0.8670570">
        <ele>370.3</ele>
        <time>2020-10-12T11:47:41Z</time>
      </trkpt>
      <trkpt lat="38.3205810" lon="-0.8668740">
        <ele>370.2</ele>
        <time>2020-10-12T11:47:44Z</time>
      </trkpt>
      <trkpt lat="38.3203810" lon="-0.8666920">
        <ele>370.1</ele>
        <time>2020-10-12T11:47:47Z</time>
      </trkpt>
      <trkpt lat="38.3201880" lon="-0.8665070">
        <ele>370.1</ele>
        <time>2020-10-12T11:47:50Z</time>
      </trkpt>
      <trkpt lat="38.3199940" lon="-0.8663210">
        <ele>370.1</ele>
        <time>2020-10-12T11:47:53Z</time>
      </trkpt>
      <trkpt lat="38.3198070" lon="-0.8661390">
        <ele>370.2</ele>
        <time>2020-10-12T11:47:56Z</time>
      </trkpt>
      <trkpt lat="38.3196250" lon="-0.8659640">
        <ele>370.1</ele>
        <time>2020-10-12T11:47:59Z</time>
      </trkpt>
      <trkpt lat="38.3194430" lon="-0.8657900">
        <ele>369.9</ele>
        <time>2020-10-12T11:48:02Z</time>
      </trkpt>
      <trkpt lat="38.3192590" lon="-0.8656070">
        <ele>369.8</ele>
        <time>2020-10-12T11:48:05Z</time>
      </trkpt>
      <trkpt lat="38.3190770" lon="-0.8654280">
        <ele>369.6</ele>
        <time>2020-10-12T11:48:08Z</time>
      </trkpt>
      <trkpt lat="38.3189040" lon="-0.8652560">
        <ele>369.5</ele>
        <time>2020-10-12T11:48:11Z</time>
      </trkpt>
      <trkpt lat="38.3187290" lon="-0.8650870">
        <ele>369.4</ele>
        <time>2020-10-12T11:48:14Z</time>
      </trkpt>
      <trkpt lat="38.3185500" lon="-0.8649210">
        <ele>369.3</ele>
        <time>2020-10-12T11:48:17Z</time>
      </trkpt>
      <trkpt lat="38.3183660" lon="-0.8647520">
        <ele>369.3</ele>
        <time>2020-10-12T11:48:20Z</time>
      </trkpt>
      <trkpt lat="38.3181740" lon="-0.8645840">
        <ele>369.2</ele>
        <time>2020-10-12T11:48:23Z</time>
      </trkpt>
      <trkpt lat="38.3179730" lon="-0.8644190">
        <ele>369.2</ele>
        <time>2020-10-12T11:48:26Z</time>
      </trkpt>
      <trkpt lat="38.3177790" lon="-0.8642780">
        <ele>369.1</ele>
        <time>2020-10-12T11:48:29Z</time>
      </trkpt>
      <trkpt lat="38.3175790" lon="-0.8641450">
        <ele>369.1</ele>
        <time>2020-10-12T11:48:32Z</time>
      </trkpt>
      <trkpt lat="38.3173770" lon="-0.8640030">
        <ele>369.0</ele>
        <time>2020-10-12T11:48:35Z</time>
      </trkpt>
      <trkpt lat="38.3171790" lon="-0.8638670">
        <ele>368.9</ele>
        <time>2020-10-12T11:48:38Z</time>
      </trkpt>
      <trkpt lat="38.3169780" lon="-0.8637290">
        <ele>368.9</ele>
        <time>2020-10-12T11:48:41Z</time>
      </trkpt>
      <trkpt lat="38.3167840" lon="-0.8636000">
        <ele>369.0</ele>
        <time>2020-10-12T11:48:44Z</time>
      </trkpt>
      <trkpt lat="38.3165880" lon="-0.8634670">
        <ele>369.0</ele>
        <time>2020-10-12T11:48:47Z</time>
      </trkpt>
      <trkpt lat="38.3163880" lon="-0.8633270">
        <ele>369.1</ele>
        <time>2020-10-12T11:48:50Z</time>
      </trkpt>
      <trkpt lat="38.3161990" lon="-0.8631750">
        <ele>369.1</ele>
        <time>2020-10-12T11:48:53Z</time>
      </trkpt>
      <trkpt lat="38.3160140" lon="-0.8630110">
        <ele>369.1</ele>
        <time>2020-10-12T11:48:56Z</time>
      </trkpt>
      <trkpt lat="38.3158270" lon="-0.8628520">
        <ele>369.3</ele>
        <time>2020-10-12T11:48:59Z</time>
      </trkpt>
      <trkpt lat="38.3156440" lon="-0.8626880">
        <ele>369.5</ele>
        <time>2020-10-12T11:49:02Z</time>
      </trkpt>
      <trkpt lat="38.3154440" lon="-0.8625210">
        <ele>369.7</ele>
        <time>2020-10-12T11:49:05Z</time>
      </trkpt>
      <trkpt lat="38.3152410" lon="-0.8623680">
        <ele>370.1</ele>
        <time>2020-10-12T11:49:08Z</time>
      </trkpt>
      <trkpt lat="38.3150450" lon="-0.8622150">
        <ele>370.6</ele>
        <time>2020-10-12T11:49:11Z</time>
      </trkpt>
      <trkpt lat="38.3148580" lon="-0.8620610">
        <ele>371.1</ele>
        <time>2020-10-12T11:49:14Z</time>
      </trkpt>
      <trkpt lat="38.3146920" lon="-0.8619040">
        <ele>371.8</ele>
        <time>2020-10-12T11:49:17Z</time>
      </trkpt>
      <trkpt lat="38.3145410" lon="-0.8617370">
        <ele>372.4</ele>
        <time>2020-10-12T11:49:20Z</time>
      </trkpt>
      <trkpt lat="38.3143880" lon="-0.8615610">
        <ele>373.1</ele>
        <time>2020-10-12T11:49:23Z</time>
      </trkpt>
      <trkpt lat="38.3142330" lon="-0.8613810">
        <ele>373.7</ele>
        <time>2020-10-12T11:49:26Z</time>
      </trkpt>
      <trkpt lat="38.3140790" lon="-0.8612110">
        <ele>374.3</ele>
        <time>2020-10-12T11:49:29Z</time>
      </trkpt>
      <trkpt lat="38.3139320" lon="-0.8610330">
        <ele>375.0</ele>
        <time>2020-10-12T11:49:32Z</time>
      </trkpt>
      <trkpt lat="38.3137870" lon="-0.8608510">
        <ele>375.5</ele>
        <time>2020-10-12T11:49:35Z</time>
      </trkpt>
      <trkpt lat="38.3136550" lon="-0.8606560">
        <ele>375.9</ele>
        <time>2020-10-12T11:49:38Z</time>
      </trkpt>
      <trkpt lat="38.3135320" lon="-0.8604580">
        <ele>376.2</ele>
        <time>2020-10-12T11:49:41Z</time>
      </trkpt>
      <trkpt lat="38.3134170" lon="-0.8602580">
        <ele>376.5</ele>
        <time>2020-10-12T11:49:44Z</time>
      </trkpt>
      <trkpt lat="38.3133070" lon="-0.8600480">
        <ele>376.8</ele>
        <time>2020-10-12T11:49:47Z</time>
      </trkpt>
      <trkpt lat="38.3132000" lon="-0.8598280">
        <ele>376.7</ele>
        <time>2020-10-12T11:49:50Z</time>
      </trkpt>
      <trkpt lat="38.3130960" lon="-0.8595980">
        <ele>376.3</ele>
        <time>2020-10-12T11:49:53Z</time>
      </trkpt>
      <trkpt lat="38.3129840" lon="-0.8593560">
        <ele>375.6</ele>
        <time>2020-10-12T11:49:56Z</time>
      </trkpt>
      <trkpt lat="38.3128250" lon="-0.8591210">
        <ele>374.5</ele>
        <time>2020-10-12T11:49:59Z</time>
      </trkpt>
      <trkpt lat="38.3126280" lon="-0.8589080">
        <ele>373.2</ele>
        <time>2020-10-12T11:50:02Z</time>
      </trkpt>
      <trkpt lat="38.3124730" lon="-0.8587720">
        <ele>372.3</ele>
        <time>2020-10-12T11:50:04Z</time>
      </trkpt>
      <trkpt lat="38.3123020" lon="-0.8586450">
        <ele>371.4</ele>
        <time>2020-10-12T11:50:06Z</time>
      </trkpt>
      <trkpt lat="38.3121380" lon="-0.8585310">
        <ele>370.7</ele>
        <time>2020-10-12T11:50:08Z</time>
      </trkpt>
      <trkpt lat="38.3119720" lon="-0.8584150">
        <ele>370.2</ele>
        <time>2020-10-12T11:50:10Z</time>
      </trkpt>
      <trkpt lat="38.3117980" lon="-0.8583020">
        <ele>369.6</ele>
        <time>2020-10-12T11:50:12Z</time>
      </trkpt>
      <trkpt lat="38.3116190" lon="-0.8581820">
        <ele>369.0</ele>
        <time>2020-10-12T11:50:14Z</time>
      </trkpt>
      <trkpt lat="38.3114430" lon="-0.8580680">
        <ele>368.4</ele>
        <time>2020-10-12T11:50:16Z</time>
      </trkpt>
      <trkpt lat="38.3112650" lon="-0.8579520">
        <ele>368.1</ele>
        <time>2020-10-12T11:50:18Z</time>
      </trkpt>
      <trkpt lat="38.3110880" lon="-0.8578340">
        <ele>367.8</ele>
        <time>2020-10-12T11:50:20Z</time>
      </trkpt>
      <trkpt lat="38.3109220" lon="-0.8577160">
        <ele>367.5</ele>
        <time>2020-10-12T11:50:22Z</time>
      </trkpt>
      <trkpt lat="38.3107610" lon="-0.8575970">
        <ele>367.3</ele>
        <time>2020-10-12T11:50:24Z</time>
      </trkpt>
      <trkpt lat="38.3106030" lon="-0.8574680">
        <ele>367.2</ele>
        <time>2020-10-12T11:50:26Z</time>
      </trkpt>
      <trkpt lat="38.3104500" lon="-0.8573340">
        <ele>367.0</ele>
        <time>2020-10-12T11:50:28Z</time>
      </trkpt>
      <trkpt lat="38.3103050" lon="-0.8571940">
        <ele>366.9</ele>
        <time>2020-10-12T11:50:30Z</time>
      </trkpt>
      <trkpt lat="38.3101620" lon="-0.8570470">
        <ele>366.8</ele>
        <time>2020-10-12T11:50:32Z</time>
      </trkpt>
      <trkpt lat="38.3099710" lon="-0.8568110">
        <ele>366.9</ele>
        <time>2020-10-12T11:50:35Z</time>
      </trkpt>
      <trkpt lat="38.3097770" lon="-0.8565950">
        <ele>366.9</ele>
        <time>2020-10-12T11:50:38Z</time>
      </trkpt>
      <trkpt lat="38.3095860" lon="-0.8564040">
        <ele>367.1</ele>
        <time>2020-10-12T11:50:41Z</time>
      </trkpt>
      <trkpt lat="38.3094220" lon="-0.8562490">
        <ele>366.7</ele>
        <time>2020-10-12T11:50:44Z</time>
      </trkpt>
      <trkpt lat="38.3092720" lon="-0.8560900">
        <ele>366.4</ele>
        <time>2020-10-12T11:50:47Z</time>
      </trkpt>
      <trkpt lat="38.3090990" lon="-0.8560210">
        <ele>366.1</ele>
        <time>2020-10-12T11:50:51Z</time>
      </trkpt>
      <trkpt lat="38.3090830" lon="-0.8562820">
        <ele>365.2</ele>
        <time>2020-10-12T11:50:55Z</time>
      </trkpt>
      <trkpt lat="38.3091180" lon="-0.8565310">
        <ele>364.9</ele>
        <time>2020-10-12T11:50:58Z</time>
      </trkpt>
      <trkpt lat="38.3091490" lon="-0.8567810">
        <ele>364.8</ele>
        <time>2020-10-12T11:51:01Z</time>
      </trkpt>
      <trkpt lat="38.3091920" lon="-0.8570450">
        <ele>364.7</ele>
        <time>2020-10-12T11:51:04Z</time>
      </trkpt>
      <trkpt lat="38.3092310" lon="-0.8573130">
        <ele>364.6</ele>
        <time>2020-10-12T11:51:07Z</time>
      </trkpt>
      <trkpt lat="38.3092440" lon="-0.8575740">
        <ele>364.6</ele>
        <time>2020-10-12T11:51:10Z</time>
      </trkpt>
      <trkpt lat="38.3092550" lon="-0.8578340">
        <ele>364.6</ele>
        <time>2020-10-12T11:51:13Z</time>
      </trkpt>
      <trkpt lat="38.3092580" lon="-0.8580900">
        <ele>364.6</ele>
        <time>2020-10-12T11:51:16Z</time>
      </trkpt>
      <trkpt lat="38.3092640" lon="-0.8583490">
        <ele>364.6</ele>
        <time>2020-10-12T11:51:19Z</time>
      </trkpt>
      <trkpt lat="38.3092710" lon="-0.8585960">
        <ele>364.6</ele>
        <time>2020-10-12T11:51:22Z</time>
      </trkpt>
      <trkpt lat="38.3092810" lon="-0.8588520">
        <ele>364.6</ele>
        <time>2020-10-12T11:51:25Z</time>
      </trkpt>
      <trkpt lat="38.3093090" lon="-0.8591080">
        <ele>364.6</ele>
        <time>2020-10-12T11:51:28Z</time>
      </trkpt>
      <trkpt lat="38.3093420" lon="-0.8593530">
        <ele>364.5</ele>
        <time>2020-10-12T11:51:31Z</time>
      </trkpt>
      <trkpt lat="38.3093810" lon="-0.8595920">
        <ele>364.6</ele>
        <time>2020-10-12T11:51:34Z</time>
      </trkpt>
      <trkpt lat="38.3094240" lon="-0.8598210">
        <ele>364.6</ele>
        <time>2020-10-12T11:51:37Z</time>
      </trkpt>
      <trkpt lat="38.3094670" lon="-0.8600590">
        <ele>364.7</ele>
        <time>2020-10-12T11:51:40Z</time>
      </trkpt>
      <trkpt lat="38.3095040" lon="-0.8602930">
        <ele>364.6</ele>
        <time>2020-10-12T11:51:43Z</time>
      </trkpt>
      <trkpt lat="38.3095370" lon="-0.8605290">
        <ele>364.6</ele>
        <time>2020-10-12T11:51:46Z</time>
      </trkpt>
      <trkpt lat="38.3095630" lon="-0.8607710">
        <ele>364.7</ele>
        <time>2020-10-12T11:51:49Z</time>
      </trkpt>
      <trkpt lat="38.3095970" lon="-0.8610060">
        <ele>364.7</ele>
        <time>2020-10-12T11:51:52Z</time>
      </trkpt>
      <trkpt lat="38.3096270" lon="-0.8612520">
        <ele>364.8</ele>
        <time>2020-10-12T11:51:55Z</time>
      </trkpt>
      <trkpt lat="38.3096650" lon="-0.8614900">
        <ele>364.8</ele>
        <time>2020-10-12T11:51:58Z</time>
      </trkpt>
      <trkpt lat="38.3097030" lon="-0.8617300">
        <ele>364.9</ele>
        <time>2020-10-12T11:52:01Z</time>
      </trkpt>
      <trkpt lat="38.3097480" lon="-0.8619790">
        <ele>365.5</ele>
        <time>2020-10-12T11:52:04Z</time>
      </trkpt>
      <trkpt lat="38.3098060" lon="-0.8622220">
        <ele>365.6</ele>
        <time>2020-10-12T11:52:07Z</time>
      </trkpt>
      <trkpt lat="38.3098690" lon="-0.8624700">
        <ele>365.5</ele>
        <time>2020-10-12T11:52:10Z</time>
      </trkpt>
      <trkpt lat="38.3099340" lon="-0.8627070">
        <ele>365.5</ele>
        <time>2020-10-12T11:52:13Z</time>
      </trkpt>
      <trkpt lat="38.3100010" lon="-0.8629620">
        <ele>365.6</ele>
        <time>2020-10-12T11:52:16Z</time>
      </trkpt>
      <trkpt lat="38.3100670" lon="-0.8632060">
        <ele>365.7</ele>
        <time>2020-10-12T11:52:19Z</time>
      </trkpt>
      <trkpt lat="38.3101300" lon="-0.8634570">
        <ele>365.8</ele>
        <time>2020-10-12T11:52:22Z</time>
      </trkpt>
      <trkpt lat="38.3101880" lon="-0.8637030">
        <ele>366.0</ele>
        <time>2020-10-12T11:52:25Z</time>
      </trkpt>
      <trkpt lat="38.3102400" lon="-0.8639330">
        <ele>366.3</ele>
        <time>2020-10-12T11:52:28Z</time>
      </trkpt>
      <trkpt lat="38.3103040" lon="-0.8641650">
        <ele>366.6</ele>
        <time>2020-10-12T11:52:31Z</time>
      </trkpt>
      <trkpt lat="38.3103690" lon="-0.8644100">
        <ele>366.9</ele>
        <time>2020-10-12T11:52:34Z</time>
      </trkpt>
      <trkpt lat="38.3104300" lon="-0.8646800">
        <ele>367.1</ele>
        <time>2020-10-12T11:52:37Z</time>
      </trkpt>
      <trkpt lat="38.3104940" lon="-0.8649250">
        <ele>367.2</ele>
        <time>2020-10-12T11:52:40Z</time>
      </trkpt>
      <trkpt lat="38.3105560" lon="-0.8651440">
        <ele>367.5</ele>
        <time>2020-10-12T11:52:43Z</time>
      </trkpt>
      <trkpt lat="38.3106130" lon="-0.8653690">
        <ele>367.8</ele>
        <time>2020-10-12T11:52:46Z</time>
      </trkpt>
      <trkpt lat="38.3106710" lon="-0.8655900">
        <ele>368.2</ele>
        <time>2020-10-12T11:52:49Z</time>
      </trkpt>
      <trkpt lat="38.3107410" lon="-0.8658430">
        <ele>368.7</ele>
        <time>2020-10-12T11:52:52Z</time>
      </trkpt>
      <trkpt lat="38.3108140" lon="-0.8660810">
        <ele>369.1</ele>
        <time>2020-10-12T11:52:55Z</time>
      </trkpt>
      <trkpt lat="38.3108720" lon="-0.8663080">
        <ele>369.5</ele>
        <time>2020-10-12T11:52:58Z</time>
      </trkpt>
      <trkpt lat="38.3109200" lon="-0.8665300">
        <ele>369.8</ele>
        <time>2020-10-12T11:53:01Z</time>
      </trkpt>
      <trkpt lat="38.3109850" lon="-0.8667570">
        <ele>370.1</ele>
        <time>2020-10-12T11:53:04Z</time>
      </trkpt>
      <trkpt lat="38.3110460" lon="-0.8669730">
        <ele>370.4</ele>
        <time>2020-10-12T11:53:07Z</time>
      </trkpt>
      <trkpt lat="38.3111160" lon="-0.8671920">
        <ele>370.8</ele>
        <time>2020-10-12T11:53:10Z</time>
      </trkpt>
      <trkpt lat="38.3111830" lon="-0.8674140">
        <ele>371.2</ele>
        <time>2020-10-12T11:53:13Z</time>
      </trkpt>
      <trkpt lat="38.3112510" lon="-0.8676400">
        <ele>371.6</ele>
        <time>2020-10-12T11:53:16Z</time>
      </trkpt>
      <trkpt lat="38.3113200" lon="-0.8678540">
        <ele>371.9</ele>
        <time>2020-10-12T11:53:19Z</time>
      </trkpt>
      <trkpt lat="38.3113920" lon="-0.8680940">
        <ele>372.4</ele>
        <time>2020-10-12T11:53:22Z</time>
      </trkpt>
      <trkpt lat="38.3114450" lon="-0.8683410">
        <ele>372.9</ele>
        <time>2020-10-12T11:53:25Z</time>
      </trkpt>
      <trkpt lat="38.3114610" lon="-0.8685780">
        <ele>373.2</ele>
        <time>2020-10-12T11:53:28Z</time>
      </trkpt>
      <trkpt lat="38.3114490" lon="-0.8688390">
        <ele>373.7</ele>
        <time>2020-10-12T11:53:31Z</time>
      </trkpt>
      <trkpt lat="38.3114280" lon="-0.8691010">
        <ele>374.1</ele>
        <time>2020-10-12T11:53:34Z</time>
      </trkpt>
      <trkpt lat="38.3114010" lon="-0.8693430">
        <ele>374.5</ele>
        <time>2020-10-12T11:53:37Z</time>
      </trkpt>
      <trkpt lat="38.3113640" lon="-0.8695760">
        <ele>374.7</ele>
        <time>2020-10-12T11:53:40Z</time>
      </trkpt>
      <trkpt lat="38.3113230" lon="-0.8698150">
        <ele>375.0</ele>
        <time>2020-10-12T11:53:43Z</time>
      </trkpt>
      <trkpt lat="38.3112920" lon="-0.8700540">
        <ele>375.3</ele>
        <time>2020-10-12T11:53:46Z</time>
      </trkpt>
      <trkpt lat="38.3112690" lon="-0.8702880">
        <ele>375.7</ele>
        <time>2020-10-12T11:53:49Z</time>
      </trkpt>
      <trkpt lat="38.3112350" lon="-0.8705250">
        <ele>376.1</ele>
        <time>2020-10-12T11:53:52Z</time>
      </trkpt>
      <trkpt lat="38.3111910" lon="-0.8707710">
        <ele>376.5</ele>
        <time>2020-10-12T11:53:55Z</time>
      </trkpt>
      <trkpt lat="38.3111460" lon="-0.8710220">
        <ele>376.9</ele>
        <time>2020-10-12T11:53:58Z</time>
      </trkpt>
      <trkpt lat="38.3111120" lon="-0.8712630">
        <ele>377.4</ele>
        <time>2020-10-12T11:54:01Z</time>
      </trkpt>
      <trkpt lat="38.3110840" lon="-0.8715150">
        <ele>377.8</ele>
        <time>2020-10-12T11:54:04Z</time>
      </trkpt>
      <trkpt lat="38.3110430" lon="-0.8717560">
        <ele>378.1</ele>
        <time>2020-10-12T11:54:07Z</time>
      </trkpt>
      <trkpt lat="38.3110000" lon="-0.8719950">
        <ele>378.4</ele>
        <time>2020-10-12T11:54:10Z</time>
      </trkpt>
      <trkpt lat="38.3109410" lon="-0.8722290">
        <ele>378.9</ele>
        <time>2020-10-12T11:54:13Z</time>
      </trkpt>
      <trkpt lat="38.3108730" lon="-0.8724590">
        <ele>379.3</ele>
        <time>2020-10-12T11:54:16Z</time>
      </trkpt>
      <trkpt lat="38.3108070" lon="-0.8726740">
        <ele>379.6</ele>
        <time>2020-10-12T11:54:19Z</time>
      </trkpt>
      <trkpt lat="38.3107390" lon="-0.8729040">
        <ele>380.1</ele>
        <time>2020-10-12T11:54:22Z</time>
      </trkpt>
      <trkpt lat="38.3106690" lon="-0.8731380">
        <ele>380.6</ele>
        <time>2020-10-12T11:54:25Z</time>
      </trkpt>
      <trkpt lat="38.3106050" lon="-0.8733640">
        <ele>380.8</ele>
        <time>2020-10-12T11:54:28Z</time>
      </trkpt>
      <trkpt lat="38.3105320" lon="-0.8735980">
        <ele>381.0</ele>
        <time>2020-10-12T11:54:31Z</time>
      </trkpt>
      <trkpt lat="38.3104640" lon="-0.8738350">
        <ele>381.2</ele>
        <time>2020-10-12T11:54:34Z</time>
      </trkpt>
      <trkpt lat="38.3103930" lon="-0.8740650">
        <ele>381.6</ele>
        <time>2020-10-12T11:54:37Z</time>
      </trkpt>
      <trkpt lat="38.3103220" lon="-0.8742990">
        <ele>381.8</ele>
        <time>2020-10-12T11:54:40Z</time>
      </trkpt>
      <trkpt lat="38.3102440" lon="-0.8745440">
        <ele>382.1</ele>
        <time>2020-10-12T11:54:43Z</time>
      </trkpt>
      <trkpt lat="38.3101590" lon="-0.8747850">
        <ele>382.3</ele>
        <time>2020-10-12T11:54:46Z</time>
      </trkpt>
      <trkpt lat="38.3100540" lon="-0.8749930">
        <ele>382.5</ele>
        <time>2020-10-12T11:54:49Z</time>
      </trkpt>
      <trkpt lat="38.3099390" lon="-0.8752000">
        <ele>382.8</ele>
        <time>2020-10-12T11:54:52Z</time>
      </trkpt>
      <trkpt lat="38.3097980" lon="-0.8753840">
        <ele>383.2</ele>
        <time>2020-10-12T11:54:55Z</time>
      </trkpt>
      <trkpt lat="38.3096740" lon="-0.8755830">
        <ele>383.4</ele>
        <time>2020-10-12T11:54:58Z</time>
      </trkpt>
      <trkpt lat="38.3095490" lon="-0.8757700">
        <ele>383.6</ele>
        <time>2020-10-12T11:55:01Z</time>
      </trkpt>
      <trkpt lat="38.3094190" lon="-0.8759490">
        <ele>384.0</ele>
        <time>2020-10-12T11:55:04Z</time>
      </trkpt>
      <trkpt lat="38.3092930" lon="-0.8761320">
        <ele>384.3</ele>
        <time>2020-10-12T11:55:07Z</time>
      </trkpt>
      <trkpt lat="38.3091660" lon="-0.8763230">
        <ele>384.5</ele>
        <time>2020-10-12T11:55:10Z</time>
      </trkpt>
      <trkpt lat="38.3090430" lon="-0.8765240">
        <ele>384.6</ele>
        <time>2020-10-12T11:55:13Z</time>
      </trkpt>
      <trkpt lat="38.3089310" lon="-0.8767370">
        <ele>384.9</ele>
        <time>2020-10-12T11:55:16Z</time>
      </trkpt>
      <trkpt lat="38.3088060" lon="-0.8769430">
        <ele>385.1</ele>
        <time>2020-10-12T11:55:19Z</time>
      </trkpt>
      <trkpt lat="38.3086810" lon="-0.8771550">
        <ele>385.4</ele>
        <time>2020-10-12T11:55:22Z</time>
      </trkpt>
      <trkpt lat="38.3085640" lon="-0.8773500">
        <ele>385.7</ele>
        <time>2020-10-12T11:55:25Z</time>
      </trkpt>
      <trkpt lat="38.3084370" lon="-0.8775410">
        <ele>385.9</ele>
        <time>2020-10-12T11:55:28Z</time>
      </trkpt>
      <trkpt lat="38.3083160" lon="-0.8777350">
        <ele>386.2</ele>
        <time>2020-10-12T11:55:31Z</time>
      </trkpt>
      <trkpt lat="38.3081770" lon="-0.8779230">
        <ele>386.4</ele>
        <time>2020-10-12T11:55:34Z</time>
      </trkpt>
      <trkpt lat="38.3080310" lon="-0.8781160">
        <ele>386.6</ele>
        <time>2020-10-12T11:55:37Z</time>
      </trkpt>
      <trkpt lat="38.3078980" lon="-0.8783110">
        <ele>386.8</ele>
        <time>2020-10-12T11:55:40Z</time>
      </trkpt>
      <trkpt lat="38.3077680" lon="-0.8784960">
        <ele>387.0</ele>
        <time>2020-10-12T11:55:43Z</time>
      </trkpt>
      <trkpt lat="38.3076420" lon="-0.8786880">
        <ele>387.3</ele>
        <time>2020-10-12T11:55:46Z</time>
      </trkpt>
      <trkpt lat="38.3075030" lon="-0.8788700">
        <ele>387.5</ele>
        <time>2020-10-12T11:55:49Z</time>
      </trkpt>
      <trkpt lat="38.3073660" lon="-0.8790700">
        <ele>387.8</ele>
        <time>2020-10-12T11:55:52Z</time>
      </trkpt>
      <trkpt lat="38.3072360" lon="-0.8792650">
        <ele>388.1</ele>
        <time>2020-10-12T11:55:55Z</time>
      </trkpt>
      <trkpt lat="38.3070950" lon="-0.8794540">
        <ele>388.4</ele>
        <time>2020-10-12T11:55:58Z</time>
      </trkpt>
      <trkpt lat="38.3069700" lon="-0.8796460">
        <ele>388.7</ele>
        <time>2020-10-12T11:56:01Z</time>
      </trkpt>
      <trkpt lat="38.3068220" lon="-0.8798440">
        <ele>389.0</ele>
        <time>2020-10-12T11:56:04Z</time>
      </trkpt>
      <trkpt lat="38.3066950" lon="-0.8800230">
        <ele>389.2</ele>
        <time>2020-10-12T11:56:07Z</time>
      </trkpt>
      <trkpt lat="38.3065710" lon="-0.8801990">
        <ele>389.5</ele>
        <time>2020-10-12T11:56:10Z</time>
      </trkpt>
      <trkpt lat="38.3064410" lon="-0.8803860">
        <ele>389.9</ele>
        <time>2020-10-12T11:56:13Z</time>
      </trkpt>
      <trkpt lat="38.3063140" lon="-0.8805620">
        <ele>390.3</ele>
        <time>2020-10-12T11:56:16Z</time>
      </trkpt>
      <trkpt lat="38.3061850" lon="-0.8807320">
        <ele>390.8</ele>
        <time>2020-10-12T11:56:19Z</time>
      </trkpt>
      <trkpt lat="38.3060180" lon="-0.8809500">
        <ele>391.4</ele>
        <time>2020-10-12T11:56:23Z</time>
      </trkpt>
      <trkpt lat="38.3058850" lon="-0.8811170">
        <ele>391.8</ele>
        <time>2020-10-12T11:56:26Z</time>
      </trkpt>
      <trkpt lat="38.3057480" lon="-0.8812880">
        <ele>392.2</ele>
        <time>2020-10-12T11:56:29Z</time>
      </trkpt>
      <trkpt lat="38.3056050" lon="-0.8814440">
        <ele>392.7</ele>
        <time>2020-10-12T11:56:32Z</time>
      </trkpt>
      <trkpt lat="38.3054720" lon="-0.8816120">
        <ele>393.2</ele>
        <time>2020-10-12T11:56:35Z</time>
      </trkpt>
      <trkpt lat="38.3052980" lon="-0.8818220">
        <ele>394.1</ele>
        <time>2020-10-12T11:56:39Z</time>
      </trkpt>
      <trkpt lat="38.3051300" lon="-0.8820350">
        <ele>394.6</ele>
        <time>2020-10-12T11:56:43Z</time>
      </trkpt>
      <trkpt lat="38.3050020" lon="-0.8822170">
        <ele>395.0</ele>
        <time>2020-10-12T11:56:46Z</time>
      </trkpt>
      <trkpt lat="38.3048650" lon="-0.8823980">
        <ele>395.3</ele>
        <time>2020-10-12T11:56:49Z</time>
      </trkpt>
      <trkpt lat="38.3047320" lon="-0.8825560">
        <ele>395.5</ele>
        <time>2020-10-12T11:56:52Z</time>
      </trkpt>
      <trkpt lat="38.3045550" lon="-0.8827620">
        <ele>395.9</ele>
        <time>2020-10-12T11:56:56Z</time>
      </trkpt>
      <trkpt lat="38.3044250" lon="-0.8829240">
        <ele>396.3</ele>
        <time>2020-10-12T11:56:59Z</time>
      </trkpt>
      <trkpt lat="38.3042500" lon="-0.8831290">
        <ele>396.7</ele>
        <time>2020-10-12T11:57:03Z</time>
      </trkpt>
      <trkpt lat="38.3040820" lon="-0.8833470">
        <ele>397.1</ele>
        <time>2020-10-12T11:57:07Z</time>
      </trkpt>
      <trkpt lat="38.3039440" lon="-0.8835030">
        <ele>397.4</ele>
        <time>2020-10-12T11:57:10Z</time>
      </trkpt>
      <trkpt lat="38.3038040" lon="-0.8836730">
        <ele>397.7</ele>
        <time>2020-10-12T11:57:13Z</time>
      </trkpt>
      <trkpt lat="38.3036770" lon="-0.8838380">
        <ele>397.9</ele>
        <time>2020-10-12T11:57:16Z</time>
      </trkpt>
      <trkpt lat="38.3035390" lon="-0.8839960">
        <ele>398.2</ele>
        <time>2020-10-12T11:57:19Z</time>
      </trkpt>
      <trkpt lat="38.3034000" lon="-0.8841530">
        <ele>398.5</ele>
        <time>2020-10-12T11:57:22Z</time>
      </trkpt>
      <trkpt lat="38.3032670" lon="-0.8843280">
        <ele>398.8</ele>
        <time>2020-10-12T11:57:25Z</time>
      </trkpt>
      <trkpt lat="38.3031380" lon="-0.8844890">
        <ele>399.2</ele>
        <time>2020-10-12T11:57:28Z</time>
      </trkpt>
      <trkpt lat="38.3030080" lon="-0.8846550">
        <ele>399.5</ele>
        <time>2020-10-12T11:57:31Z</time>
      </trkpt>
      <trkpt lat="38.3028690" lon="-0.8848240">
        <ele>399.7</ele>
        <time>2020-10-12T11:57:34Z</time>
      </trkpt>
      <trkpt lat="38.3027460" lon="-0.8850010">
        <ele>399.9</ele>
        <time>2020-10-12T11:57:37Z</time>
      </trkpt>
      <trkpt lat="38.3026470" lon="-0.8852070">
        <ele>400.1</ele>
        <time>2020-10-12T11:57:40Z</time>
      </trkpt>
      <trkpt lat="38.3025570" lon="-0.8854210">
        <ele>400.4</ele>
        <time>2020-10-12T11:57:43Z</time>
      </trkpt>
      <trkpt lat="38.3024680" lon="-0.8856280">
        <ele>400.6</ele>
        <time>2020-10-12T11:57:46Z</time>
      </trkpt>
      <trkpt lat="38.3023880" lon="-0.8858460">
        <ele>400.9</ele>
        <time>2020-10-12T11:57:49Z</time>
      </trkpt>
      <trkpt lat="38.3023050" lon="-0.8860570">
        <ele>401.2</ele>
        <time>2020-10-12T11:57:52Z</time>
      </trkpt>
      <trkpt lat="38.3022190" lon="-0.8862700">
        <ele>401.6</ele>
        <time>2020-10-12T11:57:55Z</time>
      </trkpt>
      <trkpt lat="38.3021380" lon="-0.8864840">
        <ele>402.0</ele>
        <time>2020-10-12T11:57:58Z</time>
      </trkpt>
      <trkpt lat="38.3020490" lon="-0.8867120">
        <ele>402.5</ele>
        <time>2020-10-12T11:58:01Z</time>
      </trkpt>
      <trkpt lat="38.3019660" lon="-0.8869270">
        <ele>402.9</ele>
        <time>2020-10-12T11:58:04Z</time>
      </trkpt>
      <trkpt lat="38.3018550" lon="-0.8871960">
        <ele>403.5</ele>
        <time>2020-10-12T11:58:08Z</time>
      </trkpt>
      <trkpt lat="38.3017390" lon="-0.8874620">
        <ele>404.0</ele>
        <time>2020-10-12T11:58:12Z</time>
      </trkpt>
      <trkpt lat="38.3016460" lon="-0.8876750">
        <ele>404.3</ele>
        <time>2020-10-12T11:58:15Z</time>
      </trkpt>
      <trkpt lat="38.3015370" lon="-0.8879470">
        <ele>404.7</ele>
        <time>2020-10-12T11:58:19Z</time>
      </trkpt>
      <trkpt lat="38.3014540" lon="-0.8881610">
        <ele>405.1</ele>
        <time>2020-10-12T11:58:22Z</time>
      </trkpt>
      <trkpt lat="38.3013760" lon="-0.8883870">
        <ele>405.4</ele>
        <time>2020-10-12T11:58:25Z</time>
      </trkpt>
      <trkpt lat="38.3012990" lon="-0.8886020">
        <ele>405.8</ele>
        <time>2020-10-12T11:58:28Z</time>
      </trkpt>
      <trkpt lat="38.3012280" lon="-0.8888340">
        <ele>406.1</ele>
        <time>2020-10-12T11:58:31Z</time>
      </trkpt>
      <trkpt lat="38.3011590" lon="-0.8890550">
        <ele>406.6</ele>
        <time>2020-10-12T11:58:34Z</time>
      </trkpt>
      <trkpt lat="38.3010760" lon="-0.8892700">
        <ele>407.1</ele>
        <time>2020-10-12T11:58:37Z</time>
      </trkpt>
      <trkpt lat="38.3009760" lon="-0.8894810">
        <ele>407.2</ele>
        <time>2020-10-12T11:58:40Z</time>
      </trkpt>
      <trkpt lat="38.3008650" lon="-0.8896980">
        <ele>407.1</ele>
        <time>2020-10-12T11:58:43Z</time>
      </trkpt>
      <trkpt lat="38.3007480" lon="-0.8899000">
        <ele>407.2</ele>
        <time>2020-10-12T11:58:46Z</time>
      </trkpt>
      <trkpt lat="38.3006330" lon="-0.8901000">
        <ele>407.2</ele>
        <time>2020-10-12T11:58:49Z</time>
      </trkpt>
      <trkpt lat="38.3005280" lon="-0.8903080">
        <ele>407.3</ele>
        <time>2020-10-12T11:58:52Z</time>
      </trkpt>
      <trkpt lat="38.3004170" lon="-0.8905100">
        <ele>407.4</ele>
        <time>2020-10-12T11:58:55Z</time>
      </trkpt>
      <trkpt lat="38.3003090" lon="-0.8907190">
        <ele>407.6</ele>
        <time>2020-10-12T11:58:58Z</time>
      </trkpt>
      <trkpt lat="38.3001980" lon="-0.8909400">
        <ele>408.0</ele>
        <time>2020-10-12T11:59:01Z</time>
      </trkpt>
      <trkpt lat="38.3000780" lon="-0.8911450">
        <ele>408.3</ele>
        <time>2020-10-12T11:59:04Z</time>
      </trkpt>
      <trkpt lat="38.2999710" lon="-0.8913610">
        <ele>408.5</ele>
        <time>2020-10-12T11:59:07Z</time>
      </trkpt>
      <trkpt lat="38.2998650" lon="-0.8915740">
        <ele>408.7</ele>
        <time>2020-10-12T11:59:10Z</time>
      </trkpt>
      <trkpt lat="38.2997610" lon="-0.8917900">
        <ele>409.0</ele>
        <time>2020-10-12T11:59:13Z</time>
      </trkpt>
      <trkpt lat="38.2996430" lon="-0.8919760">
        <ele>409.3</ele>
        <time>2020-10-12T11:59:16Z</time>
      </trkpt>
      <trkpt lat="38.2995320" lon="-0.8921670">
        <ele>409.8</ele>
        <time>2020-10-12T11:59:19Z</time>
      </trkpt>
      <trkpt lat="38.2994270" lon="-0.8923810">
        <ele>410.2</ele>
        <time>2020-10-12T11:59:22Z</time>
      </trkpt>
      <trkpt lat="38.2993070" lon="-0.8925700">
        <ele>410.5</ele>
        <time>2020-10-12T11:59:25Z</time>
      </trkpt>
      <trkpt lat="38.2991570" lon="-0.8928480">
        <ele>410.9</ele>
        <time>2020-10-12T11:59:30Z</time>
      </trkpt>
      <trkpt lat="38.2990290" lon="-0.8930680">
        <ele>411.2</ele>
        <time>2020-10-12T11:59:33Z</time>
      </trkpt>
      <trkpt lat="38.2989100" lon="-0.8932610">
        <ele>411.6</ele>
        <time>2020-10-12T11:59:36Z</time>
      </trkpt>
      <trkpt lat="38.2988090" lon="-0.8934700">
        <ele>411.9</ele>
        <time>2020-10-12T11:59:39Z</time>
      </trkpt>
      <trkpt lat="38.2987070" lon="-0.8936670">
        <ele>412.2</ele>
        <time>2020-10-12T11:59:42Z</time>
      </trkpt>
      <trkpt lat="38.2985710" lon="-0.8939050">
        <ele>412.5</ele>
        <time>2020-10-12T11:59:46Z</time>
      </trkpt>
      <trkpt lat="38.2984650" lon="-0.8941000">
        <ele>412.7</ele>
        <time>2020-10-12T11:59:49Z</time>
      </trkpt>
      <trkpt lat="38.2983650" lon="-0.8943020">
        <ele>412.8</ele>
        <time>2020-10-12T11:59:52Z</time>
      </trkpt>
      <trkpt lat="38.2982660" lon="-0.8945130">
        <ele>412.9</ele>
        <time>2020-10-12T11:59:55Z</time>
      </trkpt>
      <trkpt lat="38.2981450" lon="-0.8947200">
        <ele>413.0</ele>
        <time>2020-10-12T11:59:58Z</time>
      </trkpt>
      <trkpt lat="38.2980240" lon="-0.8949320">
        <ele>413.0</ele>
        <time>2020-10-12T12:00:01Z</time>
      </trkpt>
      <trkpt lat="38.2979090" lon="-0.8951390">
        <ele>413.0</ele>
        <time>2020-10-12T12:00:04Z</time>
      </trkpt>
      <trkpt lat="38.2978030" lon="-0.8953540">
        <ele>413.0</ele>
        <time>2020-10-12T12:00:07Z</time>
      </trkpt>
      <trkpt lat="38.2976870" lon="-0.8955690">
        <ele>413.0</ele>
        <time>2020-10-12T12:00:10Z</time>
      </trkpt>
      <trkpt lat="38.2975690" lon="-0.8957820">
        <ele>413.0</ele>
        <time>2020-10-12T12:00:13Z</time>
      </trkpt>
      <trkpt lat="38.2974600" lon="-0.8960040">
        <ele>413.0</ele>
        <time>2020-10-12T12:00:16Z</time>
      </trkpt>
      <trkpt lat="38.2973430" lon="-0.8962230">
        <ele>413.0</ele>
        <time>2020-10-12T12:00:19Z</time>
      </trkpt>
      <trkpt lat="38.2972220" lon="-0.8964370">
        <ele>413.0</ele>
        <time>2020-10-12T12:00:22Z</time>
      </trkpt>
      <trkpt lat="38.2971020" lon="-0.8966590">
        <ele>413.0</ele>
        <time>2020-10-12T12:00:25Z</time>
      </trkpt>
      <trkpt lat="38.2969750" lon="-0.8968860">
        <ele>413.0</ele>
        <time>2020-10-12T12:00:28Z</time>
      </trkpt>
      <trkpt lat="38.2968630" lon="-0.8971010">
        <ele>413.0</ele>
        <time>2020-10-12T12:00:31Z</time>
      </trkpt>
      <trkpt lat="38.2967560" lon="-0.8973120">
        <ele>413.1</ele>
        <time>2020-10-12T12:00:34Z</time>
      </trkpt>
      <trkpt lat="38.2966400" lon="-0.8975220">
        <ele>413.1</ele>
        <time>2020-10-12T12:00:37Z</time>
      </trkpt>
      <trkpt lat="38.2965100" lon="-0.8977220">
        <ele>413.0</ele>
        <time>2020-10-12T12:00:40Z</time>
      </trkpt>
      <trkpt lat="38.2963890" lon="-0.8979370">
        <ele>412.9</ele>
        <time>2020-10-12T12:00:43Z</time>
      </trkpt>
      <trkpt lat="38.2962590" lon="-0.8981470">
        <ele>413.0</ele>
        <time>2020-10-12T12:00:46Z</time>
      </trkpt>
      <trkpt lat="38.2961270" lon="-0.8983510">
        <ele>413.1</ele>
        <time>2020-10-12T12:00:49Z</time>
      </trkpt>
      <trkpt lat="38.2960260" lon="-0.8985680">
        <ele>412.9</ele>
        <time>2020-10-12T12:00:52Z</time>
      </trkpt>
      <trkpt lat="38.2960280" lon="-0.8988260">
        <ele>413.5</ele>
        <time>2020-10-12T12:00:55Z</time>
      </trkpt>
      <trkpt lat="38.2959460" lon="-0.8990510">
        <ele>413.2</ele>
        <time>2020-10-12T12:00:58Z</time>
      </trkpt>
      <trkpt lat="38.2956790" lon="-0.8991890">
        <ele>412.8</ele>
        <time>2020-10-12T12:01:01Z</time>
      </trkpt>
      <trkpt lat="38.2955450" lon="-0.8994430">
        <ele>412.6</ele>
        <time>2020-10-12T12:01:06Z</time>
      </trkpt>
      <trkpt lat="38.2954130" lon="-0.8996860">
        <ele>412.5</ele>
        <time>2020-10-12T12:01:09Z</time>
      </trkpt>
      <trkpt lat="38.2952900" lon="-0.8999090">
        <ele>412.6</ele>
        <time>2020-10-12T12:01:12Z</time>
      </trkpt>
      <trkpt lat="38.2951650" lon="-0.9001350">
        <ele>412.7</ele>
        <time>2020-10-12T12:01:15Z</time>
      </trkpt>
      <trkpt lat="38.2950350" lon="-0.9003670">
        <ele>413.2</ele>
        <time>2020-10-12T12:01:18Z</time>
      </trkpt>
      <trkpt lat="38.2949220" lon="-0.9005930">
        <ele>413.1</ele>
        <time>2020-10-12T12:01:21Z</time>
      </trkpt>
      <trkpt lat="38.2947990" lon="-0.9008240">
        <ele>413.0</ele>
        <time>2020-10-12T12:01:24Z</time>
      </trkpt>
      <trkpt lat="38.2946880" lon="-0.9010540">
        <ele>413.0</ele>
        <time>2020-10-12T12:01:27Z</time>
      </trkpt>
      <trkpt lat="38.2945720" lon="-0.9012870">
        <ele>413.1</ele>
        <time>2020-10-12T12:01:30Z</time>
      </trkpt>
      <trkpt lat="38.2944510" lon="-0.9015250">
        <ele>413.3</ele>
        <time>2020-10-12T12:01:33Z</time>
      </trkpt>
      <trkpt lat="38.2943260" lon="-0.9017600">
        <ele>413.0</ele>
        <time>2020-10-12T12:01:36Z</time>
      </trkpt>
      <trkpt lat="38.2941980" lon="-0.9020100">
        <ele>412.9</ele>
        <time>2020-10-12T12:01:39Z</time>
      </trkpt>
      <trkpt lat="38.2940670" lon="-0.9022440">
        <ele>412.9</ele>
        <time>2020-10-12T12:01:42Z</time>
      </trkpt>
      <trkpt lat="38.2939430" lon="-0.9024740">
        <ele>412.8</ele>
        <time>2020-10-12T12:01:45Z</time>
      </trkpt>
      <trkpt lat="38.2938130" lon="-0.9026990">
        <ele>412.8</ele>
        <time>2020-10-12T12:01:48Z</time>
      </trkpt>
      <trkpt lat="38.2936870" lon="-0.9029260">
        <ele>412.8</ele>
        <time>2020-10-12T12:01:51Z</time>
      </trkpt>
      <trkpt lat="38.2935640" lon="-0.9031650">
        <ele>413.0</ele>
        <time>2020-10-12T12:01:54Z</time>
      </trkpt>
      <trkpt lat="38.2934400" lon="-0.9034180">
        <ele>413.2</ele>
        <time>2020-10-12T12:01:57Z</time>
      </trkpt>
      <trkpt lat="38.2933180" lon="-0.9036560">
        <ele>413.2</ele>
        <time>2020-10-12T12:02:00Z</time>
      </trkpt>
      <trkpt lat="38.2931970" lon="-0.9038940">
        <ele>413.2</ele>
        <time>2020-10-12T12:02:03Z</time>
      </trkpt>
      <trkpt lat="38.2930690" lon="-0.9041310">
        <ele>413.1</ele>
        <time>2020-10-12T12:02:06Z</time>
      </trkpt>
      <trkpt lat="38.2929400" lon="-0.9043700">
        <ele>413.1</ele>
        <time>2020-10-12T12:02:09Z</time>
      </trkpt>
      <trkpt lat="38.2928140" lon="-0.9046120">
        <ele>413.0</ele>
        <time>2020-10-12T12:02:12Z</time>
      </trkpt>
      <trkpt lat="38.2926910" lon="-0.9048530">
        <ele>412.9</ele>
        <time>2020-10-12T12:02:15Z</time>
      </trkpt>
      <trkpt lat="38.2925640" lon="-0.9050900">
        <ele>412.9</ele>
        <time>2020-10-12T12:02:18Z</time>
      </trkpt>
      <trkpt lat="38.2924290" lon="-0.9053260">
        <ele>413.0</ele>
        <time>2020-10-12T12:02:21Z</time>
      </trkpt>
      <trkpt lat="38.2923000" lon="-0.9055600">
        <ele>412.8</ele>
        <time>2020-10-12T12:02:24Z</time>
      </trkpt>
      <trkpt lat="38.2921630" lon="-0.9058040">
        <ele>412.6</ele>
        <time>2020-10-12T12:02:27Z</time>
      </trkpt>
      <trkpt lat="38.2920320" lon="-0.9060400">
        <ele>412.5</ele>
        <time>2020-10-12T12:02:30Z</time>
      </trkpt>
      <trkpt lat="38.2919070" lon="-0.9062970">
        <ele>412.4</ele>
        <time>2020-10-12T12:02:33Z</time>
      </trkpt>
      <trkpt lat="38.2917730" lon="-0.9065520">
        <ele>412.4</ele>
        <time>2020-10-12T12:02:36Z</time>
      </trkpt>
      <trkpt lat="38.2916260" lon="-0.9067960">
        <ele>412.5</ele>
        <time>2020-10-12T12:02:39Z</time>
      </trkpt>
      <trkpt lat="38.2914580" lon="-0.9070280">
        <ele>412.5</ele>
        <time>2020-10-12T12:02:42Z</time>
      </trkpt>
      <trkpt lat="38.2912660" lon="-0.9072140">
        <ele>413.0</ele>
        <time>2020-10-12T12:02:45Z</time>
      </trkpt>
      <trkpt lat="38.2910920" lon="-0.9073920">
        <ele>412.9</ele>
        <time>2020-10-12T12:02:48Z</time>
      </trkpt>
      <trkpt lat="38.2909270" lon="-0.9075860">
        <ele>412.8</ele>
        <time>2020-10-12T12:02:51Z</time>
      </trkpt>
      <trkpt lat="38.2907560" lon="-0.9077770">
        <ele>412.8</ele>
        <time>2020-10-12T12:02:54Z</time>
      </trkpt>
      <trkpt lat="38.2905830" lon="-0.9079710">
        <ele>412.7</ele>
        <time>2020-10-12T12:02:57Z</time>
      </trkpt>
      <trkpt lat="38.2904160" lon="-0.9081610">
        <ele>412.7</ele>
        <time>2020-10-12T12:03:00Z</time>
      </trkpt>
      <trkpt lat="38.2902440" lon="-0.9083340">
        <ele>412.7</ele>
        <time>2020-10-12T12:03:03Z</time>
      </trkpt>
      <trkpt lat="38.2900830" lon="-0.9085070">
        <ele>412.7</ele>
        <time>2020-10-12T12:03:06Z</time>
      </trkpt>
      <trkpt lat="38.2899190" lon="-0.9086850">
        <ele>412.8</ele>
        <time>2020-10-12T12:03:09Z</time>
      </trkpt>
      <trkpt lat="38.2897680" lon="-0.9088530">
        <ele>412.9</ele>
        <time>2020-10-12T12:03:12Z</time>
      </trkpt>
      <trkpt lat="38.2896120" lon="-0.9090220">
        <ele>413.2</ele>
        <time>2020-10-12T12:03:15Z</time>
      </trkpt>
      <trkpt lat="38.2894570" lon="-0.9091930">
        <ele>413.3</ele>
        <time>2020-10-12T12:03:18Z</time>
      </trkpt>
      <trkpt lat="38.2893120" lon="-0.9093700">
        <ele>413.5</ele>
        <time>2020-10-12T12:03:21Z</time>
      </trkpt>
      <trkpt lat="38.2891470" lon="-0.9095340">
        <ele>413.5</ele>
        <time>2020-10-12T12:03:24Z</time>
      </trkpt>
      <trkpt lat="38.2889900" lon="-0.9097080">
        <ele>413.6</ele>
        <time>2020-10-12T12:03:27Z</time>
      </trkpt>
      <trkpt lat="38.2888430" lon="-0.9098670">
        <ele>413.8</ele>
        <time>2020-10-12T12:03:30Z</time>
      </trkpt>
      <trkpt lat="38.2887000" lon="-0.9100440">
        <ele>414.0</ele>
        <time>2020-10-12T12:03:33Z</time>
      </trkpt>
      <trkpt lat="38.2885500" lon="-0.9102180">
        <ele>414.2</ele>
        <time>2020-10-12T12:03:36Z</time>
      </trkpt>
      <trkpt lat="38.2884000" lon="-0.9103930">
        <ele>414.5</ele>
        <time>2020-10-12T12:03:39Z</time>
      </trkpt>
      <trkpt lat="38.2882520" lon="-0.9105620">
        <ele>414.7</ele>
        <time>2020-10-12T12:03:42Z</time>
      </trkpt>
      <trkpt lat="38.2880920" lon="-0.9107280">
        <ele>415.1</ele>
        <time>2020-10-12T12:03:45Z</time>
      </trkpt>
      <trkpt lat="38.2879270" lon="-0.9108820">
        <ele>415.1</ele>
        <time>2020-10-12T12:03:48Z</time>
      </trkpt>
      <trkpt lat="38.2877430" lon="-0.9110300">
        <ele>415.2</ele>
        <time>2020-10-12T12:03:51Z</time>
      </trkpt>
      <trkpt lat="38.2875880" lon="-0.9111810">
        <ele>415.5</ele>
        <time>2020-10-12T12:03:54Z</time>
      </trkpt>
      <trkpt lat="38.2874200" lon="-0.9113220">
        <ele>415.7</ele>
        <time>2020-10-12T12:03:57Z</time>
      </trkpt>
      <trkpt lat="38.2872500" lon="-0.9114870">
        <ele>415.9</ele>
        <time>2020-10-12T12:04:00Z</time>
      </trkpt>
      <trkpt lat="38.2870900" lon="-0.9116490">
        <ele>416.3</ele>
        <time>2020-10-12T12:04:03Z</time>
      </trkpt>
      <trkpt lat="38.2869340" lon="-0.9118090">
        <ele>416.5</ele>
        <time>2020-10-12T12:04:06Z</time>
      </trkpt>
      <trkpt lat="38.2867580" lon="-0.9119810">
        <ele>416.6</ele>
        <time>2020-10-12T12:04:09Z</time>
      </trkpt>
      <trkpt lat="38.2866050" lon="-0.9121410">
        <ele>416.7</ele>
        <time>2020-10-12T12:04:12Z</time>
      </trkpt>
      <trkpt lat="38.2864230" lon="-0.9122880">
        <ele>416.9</ele>
        <time>2020-10-12T12:04:15Z</time>
      </trkpt>
      <trkpt lat="38.2862680" lon="-0.9124120">
        <ele>417.1</ele>
        <time>2020-10-12T12:04:18Z</time>
      </trkpt>
      <trkpt lat="38.2861040" lon="-0.9125530">
        <ele>417.3</ele>
        <time>2020-10-12T12:04:21Z</time>
      </trkpt>
      <trkpt lat="38.2859370" lon="-0.9127200">
        <ele>417.5</ele>
        <time>2020-10-12T12:04:24Z</time>
      </trkpt>
      <trkpt lat="38.2857760" lon="-0.9128930">
        <ele>417.7</ele>
        <time>2020-10-12T12:04:27Z</time>
      </trkpt>
      <trkpt lat="38.2856090" lon="-0.9130620">
        <ele>417.7</ele>
        <time>2020-10-12T12:04:30Z</time>
      </trkpt>
      <trkpt lat="38.2854390" lon="-0.9132300">
        <ele>417.9</ele>
        <time>2020-10-12T12:04:33Z</time>
      </trkpt>
      <trkpt lat="38.2852830" lon="-0.9133970">
        <ele>418.2</ele>
        <time>2020-10-12T12:04:36Z</time>
      </trkpt>
      <trkpt lat="38.2851120" lon="-0.9135630">
        <ele>418.4</ele>
        <time>2020-10-12T12:04:39Z</time>
      </trkpt>
      <trkpt lat="38.2849510" lon="-0.9137280">
        <ele>418.6</ele>
        <time>2020-10-12T12:04:42Z</time>
      </trkpt>
      <trkpt lat="38.2847880" lon="-0.9139060">
        <ele>418.9</ele>
        <time>2020-10-12T12:04:45Z</time>
      </trkpt>
      <trkpt lat="38.2846180" lon="-0.9140690">
        <ele>419.3</ele>
        <time>2020-10-12T12:04:48Z</time>
      </trkpt>
      <trkpt lat="38.2844420" lon="-0.9142310">
        <ele>419.6</ele>
        <time>2020-10-12T12:04:51Z</time>
      </trkpt>
      <trkpt lat="38.2842840" lon="-0.9144140">
        <ele>420.2</ele>
        <time>2020-10-12T12:04:54Z</time>
      </trkpt>
      <trkpt lat="38.2841310" lon="-0.9145800">
        <ele>420.6</ele>
        <time>2020-10-12T12:04:57Z</time>
      </trkpt>
      <trkpt lat="38.2839670" lon="-0.9147360">
        <ele>421.0</ele>
        <time>2020-10-12T12:05:00Z</time>
      </trkpt>
      <trkpt lat="38.2838010" lon="-0.9148860">
        <ele>421.5</ele>
        <time>2020-10-12T12:05:03Z</time>
      </trkpt>
      <trkpt lat="38.2836270" lon="-0.9150340">
        <ele>421.9</ele>
        <time>2020-10-12T12:05:06Z</time>
      </trkpt>
      <trkpt lat="38.2834730" lon="-0.9151900">
        <ele>422.3</ele>
        <time>2020-10-12T12:05:09Z</time>
      </trkpt>
      <trkpt lat="38.2833230" lon="-0.9153410">
        <ele>422.6</ele>
        <time>2020-10-12T12:05:12Z</time>
      </trkpt>
      <trkpt lat="38.2831650" lon="-0.9154940">
        <ele>423.0</ele>
        <time>2020-10-12T12:05:15Z</time>
      </trkpt>
      <trkpt lat="38.2830010" lon="-0.9156420">
        <ele>423.4</ele>
        <time>2020-10-12T12:05:18Z</time>
      </trkpt>
      <trkpt lat="38.2828470" lon="-0.9158000">
        <ele>423.6</ele>
        <time>2020-10-12T12:05:21Z</time>
      </trkpt>
      <trkpt lat="38.2826850" lon="-0.9159610">
        <ele>423.8</ele>
        <time>2020-10-12T12:05:24Z</time>
      </trkpt>
      <trkpt lat="38.2825170" lon="-0.9161200">
        <ele>423.9</ele>
        <time>2020-10-12T12:05:27Z</time>
      </trkpt>
      <trkpt lat="38.2823400" lon="-0.9162810">
        <ele>424.1</ele>
        <time>2020-10-12T12:05:30Z</time>
      </trkpt>
      <trkpt lat="38.2821660" lon="-0.9164430">
        <ele>424.2</ele>
        <time>2020-10-12T12:05:33Z</time>
      </trkpt>
      <trkpt lat="38.2819960" lon="-0.9166180">
        <ele>424.1</ele>
        <time>2020-10-12T12:05:36Z</time>
      </trkpt>
      <trkpt lat="38.2818260" lon="-0.9167840">
        <ele>424.0</ele>
        <time>2020-10-12T12:05:39Z</time>
      </trkpt>
      <trkpt lat="38.2816440" lon="-0.9169580">
        <ele>423.8</ele>
        <time>2020-10-12T12:05:42Z</time>
      </trkpt>
      <trkpt lat="38.2814500" lon="-0.9171440">
        <ele>423.3</ele>
        <time>2020-10-12T12:05:45Z</time>
      </trkpt>
      <trkpt lat="38.2812500" lon="-0.9173190">
        <ele>422.8</ele>
        <time>2020-10-12T12:05:48Z</time>
      </trkpt>
      <trkpt lat="38.2810940" lon="-0.9174930">
        <ele>422.4</ele>
        <time>2020-10-12T12:05:51Z</time>
      </trkpt>
      <trkpt lat="38.2809350" lon="-0.9176460">
        <ele>422.0</ele>
        <time>2020-10-12T12:05:54Z</time>
      </trkpt>
      <trkpt lat="38.2807580" lon="-0.9178150">
        <ele>421.4</ele>
        <time>2020-10-12T12:05:57Z</time>
      </trkpt>
      <trkpt lat="38.2805630" lon="-0.9179970">
        <ele>420.9</ele>
        <time>2020-10-12T12:06:00Z</time>
      </trkpt>
      <trkpt lat="38.2803680" lon="-0.9181900">
        <ele>420.1</ele>
        <time>2020-10-12T12:06:03Z</time>
      </trkpt>
      <trkpt lat="38.2801590" lon="-0.9183810">
        <ele>419.6</ele>
        <time>2020-10-12T12:06:06Z</time>
      </trkpt>
      <trkpt lat="38.2799450" lon="-0.9185830">
        <ele>419.1</ele>
        <time>2020-10-12T12:06:09Z</time>
      </trkpt>
      <trkpt lat="38.2797270" lon="-0.9187840">
        <ele>418.4</ele>
        <time>2020-10-12T12:06:12Z</time>
      </trkpt>
      <trkpt lat="38.2795230" lon="-0.9189780">
        <ele>417.9</ele>
        <time>2020-10-12T12:06:15Z</time>
      </trkpt>
      <trkpt lat="38.2793360" lon="-0.9191630">
        <ele>417.5</ele>
        <time>2020-10-12T12:06:18Z</time>
      </trkpt>
      <trkpt lat="38.2791360" lon="-0.9193470">
        <ele>417.2</ele>
        <time>2020-10-12T12:06:21Z</time>
      </trkpt>
      <trkpt lat="38.2789530" lon="-0.9195320">
        <ele>416.9</ele>
        <time>2020-10-12T12:06:24Z</time>
      </trkpt>
      <trkpt lat="38.2787660" lon="-0.9197060">
        <ele>416.8</ele>
        <time>2020-10-12T12:06:27Z</time>
      </trkpt>
      <trkpt lat="38.2785880" lon="-0.9198770">
        <ele>416.7</ele>
        <time>2020-10-12T12:06:30Z</time>
      </trkpt>
      <trkpt lat="38.2784070" lon="-0.9200430">
        <ele>416.6</ele>
        <time>2020-10-12T12:06:33Z</time>
      </trkpt>
      <trkpt lat="38.2782520" lon="-0.9201860">
        <ele>416.6</ele>
        <time>2020-10-12T12:06:36Z</time>
      </trkpt>
      <trkpt lat="38.2780620" lon="-0.9203730">
        <ele>416.4</ele>
        <time>2020-10-12T12:06:40Z</time>
      </trkpt>
      <trkpt lat="38.2778760" lon="-0.9204650">
        <ele>416.3</ele>
        <time>2020-10-12T12:06:44Z</time>
      </trkpt>
      <trkpt lat="38.2776710" lon="-0.9204950">
        <ele>416.2</ele>
        <time>2020-10-12T12:06:49Z</time>
      </trkpt>
      <trkpt lat="38.2776220" lon="-0.9203900">
        <ele>416.2</ele>
        <time>2020-10-12T12:18:15Z</time>
      </trkpt>
      <trkpt lat="38.2775190" lon="-0.9206770">
        <ele>416.1</ele>
        <time>2020-10-12T12:19:16Z</time>
      </trkpt>
      <trkpt lat="38.2774440" lon="-0.9209170">
        <ele>416.1</ele>
        <time>2020-10-12T12:19:19Z</time>
      </trkpt>
      <trkpt lat="38.2773390" lon="-0.9211150">
        <ele>416.4</ele>
        <time>2020-10-12T12:19:23Z</time>
      </trkpt>
      <trkpt lat="38.2771720" lon="-0.9212640">
        <ele>416.4</ele>
        <time>2020-10-12T12:19:27Z</time>
      </trkpt>
      <trkpt lat="38.2770240" lon="-0.9214080">
        <ele>416.2</ele>
        <time>2020-10-12T12:19:31Z</time>
      </trkpt>
      <trkpt lat="38.2768500" lon="-0.9215800">
        <ele>416.1</ele>
        <time>2020-10-12T12:19:35Z</time>
      </trkpt>
      <trkpt lat="38.2766800" lon="-0.9217390">
        <ele>415.9</ele>
        <time>2020-10-12T12:19:39Z</time>
      </trkpt>
      <trkpt lat="38.2765180" lon="-0.9219200">
        <ele>415.5</ele>
        <time>2020-10-12T12:19:43Z</time>
      </trkpt>
      <trkpt lat="38.2763370" lon="-0.9220900">
        <ele>415.0</ele>
        <time>2020-10-12T12:19:47Z</time>
      </trkpt>
      <trkpt lat="38.2761420" lon="-0.9222570">
        <ele>414.5</ele>
        <time>2020-10-12T12:19:51Z</time>
      </trkpt>
      <trkpt lat="38.2759810" lon="-0.9224020">
        <ele>414.0</ele>
        <time>2020-10-12T12:19:54Z</time>
      </trkpt>
      <trkpt lat="38.2758110" lon="-0.9225570">
        <ele>413.5</ele>
        <time>2020-10-12T12:19:57Z</time>
      </trkpt>
      <trkpt lat="38.2756560" lon="-0.9227180">
        <ele>413.0</ele>
        <time>2020-10-12T12:20:00Z</time>
      </trkpt>
      <trkpt lat="38.2754870" lon="-0.9228590">
        <ele>412.7</ele>
        <time>2020-10-12T12:20:03Z</time>
      </trkpt>
      <trkpt lat="38.2753190" lon="-0.9230250">
        <ele>412.5</ele>
        <time>2020-10-12T12:20:06Z</time>
      </trkpt>
      <trkpt lat="38.2751660" lon="-0.9232050">
        <ele>412.3</ele>
        <time>2020-10-12T12:20:09Z</time>
      </trkpt>
      <trkpt lat="38.2750320" lon="-0.9234160">
        <ele>412.1</ele>
        <time>2020-10-12T12:20:12Z</time>
      </trkpt>
      <trkpt lat="38.2749430" lon="-0.9236680">
        <ele>412.1</ele>
        <time>2020-10-12T12:20:15Z</time>
      </trkpt>
      <trkpt lat="38.2748660" lon="-0.9239210">
        <ele>412.2</ele>
        <time>2020-10-12T12:20:18Z</time>
      </trkpt>
      <trkpt lat="38.2747940" lon="-0.9241640">
        <ele>412.4</ele>
        <time>2020-10-12T12:20:21Z</time>
      </trkpt>
      <trkpt lat="38.2747290" lon="-0.9244050">
        <ele>412.6</ele>
        <time>2020-10-12T12:20:24Z</time>
      </trkpt>
      <trkpt lat="38.2746480" lon="-0.9246560">
        <ele>412.6</ele>
        <time>2020-10-12T12:20:27Z</time>
      </trkpt>
      <trkpt lat="38.2745860" lon="-0.9248820">
        <ele>412.7</ele>
        <time>2020-10-12T12:20:30Z</time>
      </trkpt>
      <trkpt lat="38.2745350" lon="-0.9251100">
        <ele>412.8</ele>
        <time>2020-10-12T12:20:33Z</time>
      </trkpt>
      <trkpt lat="38.2744740" lon="-0.9253310">
        <ele>412.8</ele>
        <time>2020-10-12T12:20:36Z</time>
      </trkpt>
      <trkpt lat="38.2744110" lon="-0.9255650">
        <ele>412.8</ele>
        <time>2020-10-12T12:20:39Z</time>
      </trkpt>
      <trkpt lat="38.2743410" lon="-0.9258070">
        <ele>412.8</ele>
        <time>2020-10-12T12:20:42Z</time>
      </trkpt>
      <trkpt lat="38.2742660" lon="-0.9260370">
        <ele>412.9</ele>
        <time>2020-10-12T12:20:45Z</time>
      </trkpt>
      <trkpt lat="38.2741970" lon="-0.9262540">
        <ele>413.2</ele>
        <time>2020-10-12T12:20:48Z</time>
      </trkpt>
      <trkpt lat="38.2741290" lon="-0.9264830">
        <ele>413.2</ele>
        <time>2020-10-12T12:20:51Z</time>
      </trkpt>
      <trkpt lat="38.2740670" lon="-0.9267290">
        <ele>413.0</ele>
        <time>2020-10-12T12:20:54Z</time>
      </trkpt>
      <trkpt lat="38.2739910" lon="-0.9269710">
        <ele>412.9</ele>
        <time>2020-10-12T12:20:57Z</time>
      </trkpt>
      <trkpt lat="38.2739330" lon="-0.9272000">
        <ele>412.8</ele>
        <time>2020-10-12T12:21:00Z</time>
      </trkpt>
      <trkpt lat="38.2738790" lon="-0.9274230">
        <ele>412.8</ele>
        <time>2020-10-12T12:21:03Z</time>
      </trkpt>
      <trkpt lat="38.2738130" lon="-0.9276530">
        <ele>412.8</ele>
        <time>2020-10-12T12:21:06Z</time>
      </trkpt>
      <trkpt lat="38.2737430" lon="-0.9278700">
        <ele>412.8</ele>
        <time>2020-10-12T12:21:09Z</time>
      </trkpt>
      <trkpt lat="38.2736880" lon="-0.9280970">
        <ele>412.9</ele>
        <time>2020-10-12T12:21:12Z</time>
      </trkpt>
      <trkpt lat="38.2736270" lon="-0.9283450">
        <ele>412.5</ele>
        <time>2020-10-12T12:21:15Z</time>
      </trkpt>
      <trkpt lat="38.2735140" lon="-0.9285400">
        <ele>412.9</ele>
        <time>2020-10-12T12:21:18Z</time>
      </trkpt>
      <trkpt lat="38.2734260" lon="-0.9287490">
        <ele>413.2</ele>
        <time>2020-10-12T12:21:21Z</time>
      </trkpt>
      <trkpt lat="38.2733050" lon="-0.9290110">
        <ele>413.5</ele>
        <time>2020-10-12T12:21:25Z</time>
      </trkpt>
      <trkpt lat="38.2732040" lon="-0.9292310">
        <ele>413.6</ele>
        <time>2020-10-12T12:21:28Z</time>
      </trkpt>
      <trkpt lat="38.2731080" lon="-0.9294390">
        <ele>413.6</ele>
        <time>2020-10-12T12:21:31Z</time>
      </trkpt>
      <trkpt lat="38.2729830" lon="-0.9296960">
        <ele>413.7</ele>
        <time>2020-10-12T12:21:35Z</time>
      </trkpt>
      <trkpt lat="38.2728910" lon="-0.9299000">
        <ele>413.8</ele>
        <time>2020-10-12T12:21:38Z</time>
      </trkpt>
      <trkpt lat="38.2728110" lon="-0.9301180">
        <ele>413.8</ele>
        <time>2020-10-12T12:21:41Z</time>
      </trkpt>
      <trkpt lat="38.2727240" lon="-0.9303370">
        <ele>413.9</ele>
        <time>2020-10-12T12:21:44Z</time>
      </trkpt>
      <trkpt lat="38.2726410" lon="-0.9305520">
        <ele>414.0</ele>
        <time>2020-10-12T12:21:47Z</time>
      </trkpt>
      <trkpt lat="38.2725740" lon="-0.9307710">
        <ele>414.2</ele>
        <time>2020-10-12T12:21:50Z</time>
      </trkpt>
      <trkpt lat="38.2725330" lon="-0.9310600">
        <ele>414.5</ele>
        <time>2020-10-12T12:21:54Z</time>
      </trkpt>
      <trkpt lat="38.2725090" lon="-0.9313450">
        <ele>414.8</ele>
        <time>2020-10-12T12:21:58Z</time>
      </trkpt>
      <trkpt lat="38.2724790" lon="-0.9316320">
        <ele>415.1</ele>
        <time>2020-10-12T12:22:02Z</time>
      </trkpt>
      <trkpt lat="38.2724600" lon="-0.9319290">
        <ele>415.4</ele>
        <time>2020-10-12T12:22:06Z</time>
      </trkpt>
      <trkpt lat="38.2724510" lon="-0.9322190">
        <ele>415.7</ele>
        <time>2020-10-12T12:22:10Z</time>
      </trkpt>
      <trkpt lat="38.2724380" lon="-0.9324960">
        <ele>415.8</ele>
        <time>2020-10-12T12:22:14Z</time>
      </trkpt>
      <trkpt lat="38.2724160" lon="-0.9327820">
        <ele>416.1</ele>
        <time>2020-10-12T12:22:18Z</time>
      </trkpt>
      <trkpt lat="38.2723830" lon="-0.9330670">
        <ele>416.4</ele>
        <time>2020-10-12T12:22:22Z</time>
      </trkpt>
      <trkpt lat="38.2723460" lon="-0.9333440">
        <ele>416.7</ele>
        <time>2020-10-12T12:22:26Z</time>
      </trkpt>
      <trkpt lat="38.2723220" lon="-0.9336280">
        <ele>416.9</ele>
        <time>2020-10-12T12:22:30Z</time>
      </trkpt>
      <trkpt lat="38.2722860" lon="-0.9339210">
        <ele>417.2</ele>
        <time>2020-10-12T12:22:34Z</time>
      </trkpt>
      <trkpt lat="38.2722590" lon="-0.9342050">
        <ele>417.6</ele>
        <time>2020-10-12T12:22:38Z</time>
      </trkpt>
      <trkpt lat="38.2722330" lon="-0.9344910">
        <ele>417.9</ele>
        <time>2020-10-12T12:22:42Z</time>
      </trkpt>
      <trkpt lat="38.2722160" lon="-0.9347660">
        <ele>418.3</ele>
        <time>2020-10-12T12:22:46Z</time>
      </trkpt>
      <trkpt lat="38.2721840" lon="-0.9350320">
        <ele>418.6</ele>
        <time>2020-10-12T12:22:50Z</time>
      </trkpt>
      <trkpt lat="38.2721400" lon="-0.9353040">
        <ele>419.2</ele>
        <time>2020-10-12T12:22:54Z</time>
      </trkpt>
      <trkpt lat="38.2721040" lon="-0.9355750">
        <ele>419.5</ele>
        <time>2020-10-12T12:22:58Z</time>
      </trkpt>
      <trkpt lat="38.2720870" lon="-0.9358490">
        <ele>419.8</ele>
        <time>2020-10-12T12:23:02Z</time>
      </trkpt>
      <trkpt lat="38.2720520" lon="-0.9361040">
        <ele>420.3</ele>
        <time>2020-10-12T12:23:06Z</time>
      </trkpt>
      <trkpt lat="38.2720300" lon="-0.9363710">
        <ele>420.7</ele>
        <time>2020-10-12T12:23:10Z</time>
      </trkpt>
      <trkpt lat="38.2720050" lon="-0.9366430">
        <ele>421.0</ele>
        <time>2020-10-12T12:23:14Z</time>
      </trkpt>
      <trkpt lat="38.2719940" lon="-0.9369130">
        <ele>421.2</ele>
        <time>2020-10-12T12:23:18Z</time>
      </trkpt>
      <trkpt lat="38.2719670" lon="-0.9371980">
        <ele>421.4</ele>
        <time>2020-10-12T12:23:22Z</time>
      </trkpt>
      <trkpt lat="38.2719400" lon="-0.9374800">
        <ele>421.5</ele>
        <time>2020-10-12T12:23:26Z</time>
      </trkpt>
      <trkpt lat="38.2719030" lon="-0.9377580">
        <ele>421.5</ele>
        <time>2020-10-12T12:23:30Z</time>
      </trkpt>
      <trkpt lat="38.2718730" lon="-0.9380480">
        <ele>421.5</ele>
        <time>2020-10-12T12:23:34Z</time>
      </trkpt>
      <trkpt lat="38.2718510" lon="-0.9382780">
        <ele>421.3</ele>
        <time>2020-10-12T12:23:37Z</time>
      </trkpt>
      <trkpt lat="38.2718330" lon="-0.9385760">
        <ele>420.8</ele>
        <time>2020-10-12T12:23:41Z</time>
      </trkpt>
      <trkpt lat="38.2718170" lon="-0.9388130">
        <ele>420.6</ele>
        <time>2020-10-12T12:23:44Z</time>
      </trkpt>
      <trkpt lat="38.2718000" lon="-0.9390630">
        <ele>420.5</ele>
        <time>2020-10-12T12:23:47Z</time>
      </trkpt>
      <trkpt lat="38.2717950" lon="-0.9393040">
        <ele>420.4</ele>
        <time>2020-10-12T12:23:50Z</time>
      </trkpt>
      <trkpt lat="38.2717750" lon="-0.9395550">
        <ele>420.3</ele>
        <time>2020-10-12T12:23:53Z</time>
      </trkpt>
      <trkpt lat="38.2717360" lon="-0.9398000">
        <ele>420.1</ele>
        <time>2020-10-12T12:23:56Z</time>
      </trkpt>
      <trkpt lat="38.2717160" lon="-0.9400590">
        <ele>420.0</ele>
        <time>2020-10-12T12:23:59Z</time>
      </trkpt>
      <trkpt lat="38.2716930" lon="-0.9403280">
        <ele>419.9</ele>
        <time>2020-10-12T12:24:02Z</time>
      </trkpt>
      <trkpt lat="38.2716500" lon="-0.9405920">
        <ele>419.8</ele>
        <time>2020-10-12T12:24:05Z</time>
      </trkpt>
      <trkpt lat="38.2716160" lon="-0.9408470">
        <ele>419.6</ele>
        <time>2020-10-12T12:24:08Z</time>
      </trkpt>
      <trkpt lat="38.2715900" lon="-0.9411000">
        <ele>419.5</ele>
        <time>2020-10-12T12:24:11Z</time>
      </trkpt>
      <trkpt lat="38.2715610" lon="-0.9413440">
        <ele>419.3</ele>
        <time>2020-10-12T12:24:14Z</time>
      </trkpt>
      <trkpt lat="38.2715350" lon="-0.9415990">
        <ele>419.2</ele>
        <time>2020-10-12T12:24:17Z</time>
      </trkpt>
      <trkpt lat="38.2715160" lon="-0.9418520">
        <ele>419.1</ele>
        <time>2020-10-12T12:24:20Z</time>
      </trkpt>
      <trkpt lat="38.2714860" lon="-0.9421130">
        <ele>418.9</ele>
        <time>2020-10-12T12:24:23Z</time>
      </trkpt>
      <trkpt lat="38.2714320" lon="-0.9423800">
        <ele>418.8</ele>
        <time>2020-10-12T12:24:26Z</time>
      </trkpt>
      <trkpt lat="38.2714010" lon="-0.9426320">
        <ele>418.9</ele>
        <time>2020-10-12T12:24:29Z</time>
      </trkpt>
      <trkpt lat="38.2713810" lon="-0.9428770">
        <ele>418.9</ele>
        <time>2020-10-12T12:24:32Z</time>
      </trkpt>
      <trkpt lat="38.2713860" lon="-0.9431390">
        <ele>418.7</ele>
        <time>2020-10-12T12:24:35Z</time>
      </trkpt>
      <trkpt lat="38.2714380" lon="-0.9433840">
        <ele>418.6</ele>
        <time>2020-10-12T12:24:38Z</time>
      </trkpt>
      <trkpt lat="38.2715030" lon="-0.9436240">
        <ele>418.5</ele>
        <time>2020-10-12T12:24:41Z</time>
      </trkpt>
      <trkpt lat="38.2715890" lon="-0.9438690">
        <ele>418.5</ele>
        <time>2020-10-12T12:24:44Z</time>
      </trkpt>
      <trkpt lat="38.2716600" lon="-0.9441100">
        <ele>418.5</ele>
        <time>2020-10-12T12:24:47Z</time>
      </trkpt>
      <trkpt lat="38.2717430" lon="-0.9443530">
        <ele>418.7</ele>
        <time>2020-10-12T12:24:50Z</time>
      </trkpt>
      <trkpt lat="38.2718250" lon="-0.9445940">
        <ele>418.7</ele>
        <time>2020-10-12T12:24:53Z</time>
      </trkpt>
      <trkpt lat="38.2719070" lon="-0.9448390">
        <ele>418.7</ele>
        <time>2020-10-12T12:24:56Z</time>
      </trkpt>
      <trkpt lat="38.2719710" lon="-0.9450820">
        <ele>418.7</ele>
        <time>2020-10-12T12:24:59Z</time>
      </trkpt>
      <trkpt lat="38.2720250" lon="-0.9453130">
        <ele>418.7</ele>
        <time>2020-10-12T12:25:02Z</time>
      </trkpt>
      <trkpt lat="38.2721040" lon="-0.9455460">
        <ele>418.7</ele>
        <time>2020-10-12T12:25:05Z</time>
      </trkpt>
      <trkpt lat="38.2722010" lon="-0.9457930">
        <ele>418.7</ele>
        <time>2020-10-12T12:25:08Z</time>
      </trkpt>
      <trkpt lat="38.2722930" lon="-0.9460390">
        <ele>418.5</ele>
        <time>2020-10-12T12:25:11Z</time>
      </trkpt>
      <trkpt lat="38.2723880" lon="-0.9463030">
        <ele>418.3</ele>
        <time>2020-10-12T12:25:14Z</time>
      </trkpt>
      <trkpt lat="38.2724670" lon="-0.9465650">
        <ele>418.2</ele>
        <time>2020-10-12T12:25:17Z</time>
      </trkpt>
      <trkpt lat="38.2725330" lon="-0.9468050">
        <ele>418.0</ele>
        <time>2020-10-12T12:25:20Z</time>
      </trkpt>
      <trkpt lat="38.2725940" lon="-0.9470510">
        <ele>417.9</ele>
        <time>2020-10-12T12:25:23Z</time>
      </trkpt>
      <trkpt lat="38.2726720" lon="-0.9472830">
        <ele>417.7</ele>
        <time>2020-10-12T12:25:26Z</time>
      </trkpt>
      <trkpt lat="38.2727630" lon="-0.9475330">
        <ele>417.7</ele>
        <time>2020-10-12T12:25:29Z</time>
      </trkpt>
      <trkpt lat="38.2728440" lon="-0.9477840">
        <ele>417.5</ele>
        <time>2020-10-12T12:25:32Z</time>
      </trkpt>
      <trkpt lat="38.2729220" lon="-0.9480230">
        <ele>417.3</ele>
        <time>2020-10-12T12:25:35Z</time>
      </trkpt>
      <trkpt lat="38.2730080" lon="-0.9482850">
        <ele>417.0</ele>
        <time>2020-10-12T12:25:38Z</time>
      </trkpt>
      <trkpt lat="38.2730930" lon="-0.9485450">
        <ele>416.7</ele>
        <time>2020-10-12T12:25:41Z</time>
      </trkpt>
      <trkpt lat="38.2731790" lon="-0.9488030">
        <ele>416.4</ele>
        <time>2020-10-12T12:25:44Z</time>
      </trkpt>
      <trkpt lat="38.2732500" lon="-0.9490540">
        <ele>416.1</ele>
        <time>2020-10-12T12:25:47Z</time>
      </trkpt>
      <trkpt lat="38.2733330" lon="-0.9493160">
        <ele>415.9</ele>
        <time>2020-10-12T12:25:50Z</time>
      </trkpt>
      <trkpt lat="38.2733830" lon="-0.9495830">
        <ele>415.8</ele>
        <time>2020-10-12T12:25:53Z</time>
      </trkpt>
      <trkpt lat="38.2734270" lon="-0.9498800">
        <ele>415.6</ele>
        <time>2020-10-12T12:25:56Z</time>
      </trkpt>
      <trkpt lat="38.2734640" lon="-0.9501520">
        <ele>415.5</ele>
        <time>2020-10-12T12:25:59Z</time>
      </trkpt>
      <trkpt lat="38.2735050" lon="-0.9504250">
        <ele>415.4</ele>
        <time>2020-10-12T12:26:02Z</time>
      </trkpt>
      <trkpt lat="38.2735430" lon="-0.9506900">
        <ele>415.1</ele>
        <time>2020-10-12T12:26:05Z</time>
      </trkpt>
      <trkpt lat="38.2735850" lon="-0.9509640">
        <ele>414.4</ele>
        <time>2020-10-12T12:26:08Z</time>
      </trkpt>
      <trkpt lat="38.2736380" lon="-0.9512460">
        <ele>414.2</ele>
        <time>2020-10-12T12:26:11Z</time>
      </trkpt>
      <trkpt lat="38.2736890" lon="-0.9515290">
        <ele>413.8</ele>
        <time>2020-10-12T12:26:14Z</time>
      </trkpt>
      <trkpt lat="38.2737290" lon="-0.9518020">
        <ele>413.4</ele>
        <time>2020-10-12T12:26:17Z</time>
      </trkpt>
      <trkpt lat="38.2737650" lon="-0.9520840">
        <ele>413.0</ele>
        <time>2020-10-12T12:26:20Z</time>
      </trkpt>
      <trkpt lat="38.2738090" lon="-0.9523740">
        <ele>412.4</ele>
        <time>2020-10-12T12:26:23Z</time>
      </trkpt>
      <trkpt lat="38.2738500" lon="-0.9526330">
        <ele>412.0</ele>
        <time>2020-10-12T12:26:26Z</time>
      </trkpt>
      <trkpt lat="38.2738830" lon="-0.9529190">
        <ele>411.6</ele>
        <time>2020-10-12T12:26:29Z</time>
      </trkpt>
      <trkpt lat="38.2739280" lon="-0.9532020">
        <ele>411.1</ele>
        <time>2020-10-12T12:26:32Z</time>
      </trkpt>
      <trkpt lat="38.2739680" lon="-0.9534970">
        <ele>410.5</ele>
        <time>2020-10-12T12:26:35Z</time>
      </trkpt>
      <trkpt lat="38.2740180" lon="-0.9537860">
        <ele>410.1</ele>
        <time>2020-10-12T12:26:38Z</time>
      </trkpt>
      <trkpt lat="38.2740610" lon="-0.9541060">
        <ele>409.6</ele>
        <time>2020-10-12T12:26:41Z</time>
      </trkpt>
      <trkpt lat="38.2741150" lon="-0.9544120">
        <ele>409.2</ele>
        <time>2020-10-12T12:26:44Z</time>
      </trkpt>
      <trkpt lat="38.2741590" lon="-0.9547210">
        <ele>408.6</ele>
        <time>2020-10-12T12:26:47Z</time>
      </trkpt>
      <trkpt lat="38.2741960" lon="-0.9550210">
        <ele>408.1</ele>
        <time>2020-10-12T12:26:50Z</time>
      </trkpt>
      <trkpt lat="38.2742220" lon="-0.9553240">
        <ele>407.6</ele>
        <time>2020-10-12T12:26:53Z</time>
      </trkpt>
      <trkpt lat="38.2742640" lon="-0.9556280">
        <ele>407.0</ele>
        <time>2020-10-12T12:26:56Z</time>
      </trkpt>
      <trkpt lat="38.2743360" lon="-0.9559310">
        <ele>406.3</ele>
        <time>2020-10-12T12:26:59Z</time>
      </trkpt>
      <trkpt lat="38.2743820" lon="-0.9562340">
        <ele>405.9</ele>
        <time>2020-10-12T12:27:02Z</time>
      </trkpt>
      <trkpt lat="38.2744260" lon="-0.9565170">
        <ele>405.2</ele>
        <time>2020-10-12T12:27:05Z</time>
      </trkpt>
      <trkpt lat="38.2744860" lon="-0.9568100">
        <ele>404.8</ele>
        <time>2020-10-12T12:27:08Z</time>
      </trkpt>
      <trkpt lat="38.2745560" lon="-0.9571060">
        <ele>404.3</ele>
        <time>2020-10-12T12:27:11Z</time>
      </trkpt>
      <trkpt lat="38.2746360" lon="-0.9574050">
        <ele>403.7</ele>
        <time>2020-10-12T12:27:14Z</time>
      </trkpt>
      <trkpt lat="38.2747150" lon="-0.9577050">
        <ele>403.4</ele>
        <time>2020-10-12T12:27:17Z</time>
      </trkpt>
      <trkpt lat="38.2747880" lon="-0.9579980">
        <ele>403.0</ele>
        <time>2020-10-12T12:27:20Z</time>
      </trkpt>
      <trkpt lat="38.2748590" lon="-0.9583010">
        <ele>402.7</ele>
        <time>2020-10-12T12:27:23Z</time>
      </trkpt>
      <trkpt lat="38.2749220" lon="-0.9585830">
        <ele>402.3</ele>
        <time>2020-10-12T12:27:26Z</time>
      </trkpt>
      <trkpt lat="38.2749900" lon="-0.9588710">
        <ele>401.9</ele>
        <time>2020-10-12T12:27:29Z</time>
      </trkpt>
      <trkpt lat="38.2750650" lon="-0.9591600">
        <ele>401.7</ele>
        <time>2020-10-12T12:27:32Z</time>
      </trkpt>
      <trkpt lat="38.2751290" lon="-0.9594400">
        <ele>401.3</ele>
        <time>2020-10-12T12:27:35Z</time>
      </trkpt>
      <trkpt lat="38.2752050" lon="-0.9597300">
        <ele>400.9</ele>
        <time>2020-10-12T12:27:38Z</time>
      </trkpt>
      <trkpt lat="38.2752790" lon="-0.9600200">
        <ele>400.6</ele>
        <time>2020-10-12T12:27:41Z</time>
      </trkpt>
      <trkpt lat="38.2753470" lon="-0.9602940">
        <ele>400.3</ele>
        <time>2020-10-12T12:27:44Z</time>
      </trkpt>
      <trkpt lat="38.2754120" lon="-0.9605680">
        <ele>400.1</ele>
        <time>2020-10-12T12:27:47Z</time>
      </trkpt>
      <trkpt lat="38.2754800" lon="-0.9608390">
        <ele>399.8</ele>
        <time>2020-10-12T12:27:50Z</time>
      </trkpt>
      <trkpt lat="38.2755430" lon="-0.9611010">
        <ele>399.6</ele>
        <time>2020-10-12T12:27:53Z</time>
      </trkpt>
      <trkpt lat="38.2756060" lon="-0.9613760">
        <ele>399.7</ele>
        <time>2020-10-12T12:27:56Z</time>
      </trkpt>
      <trkpt lat="38.2756720" lon="-0.9616480">
        <ele>399.6</ele>
        <time>2020-10-12T12:27:59Z</time>
      </trkpt>
      <trkpt lat="38.2757160" lon="-0.9619170">
        <ele>399.6</ele>
        <time>2020-10-12T12:28:02Z</time>
      </trkpt>
      <trkpt lat="38.2757720" lon="-0.9621750">
        <ele>399.4</ele>
        <time>2020-10-12T12:28:05Z</time>
      </trkpt>
      <trkpt lat="38.2758430" lon="-0.9624330">
        <ele>399.3</ele>
        <time>2020-10-12T12:28:08Z</time>
      </trkpt>
      <trkpt lat="38.2759100" lon="-0.9627030">
        <ele>399.3</ele>
        <time>2020-10-12T12:28:11Z</time>
      </trkpt>
      <trkpt lat="38.2759730" lon="-0.9629590">
        <ele>399.4</ele>
        <time>2020-10-12T12:28:14Z</time>
      </trkpt>
      <trkpt lat="38.2760290" lon="-0.9632130">
        <ele>399.5</ele>
        <time>2020-10-12T12:28:17Z</time>
      </trkpt>
      <trkpt lat="38.2760780" lon="-0.9634490">
        <ele>399.5</ele>
        <time>2020-10-12T12:28:20Z</time>
      </trkpt>
      <trkpt lat="38.2761420" lon="-0.9636740">
        <ele>399.5</ele>
        <time>2020-10-12T12:28:23Z</time>
      </trkpt>
      <trkpt lat="38.2762010" lon="-0.9639330">
        <ele>399.6</ele>
        <time>2020-10-12T12:28:26Z</time>
      </trkpt>
      <trkpt lat="38.2762560" lon="-0.9641690">
        <ele>399.5</ele>
        <time>2020-10-12T12:28:29Z</time>
      </trkpt>
      <trkpt lat="38.2763150" lon="-0.9643950">
        <ele>399.6</ele>
        <time>2020-10-12T12:28:32Z</time>
      </trkpt>
      <trkpt lat="38.2763670" lon="-0.9646300">
        <ele>399.8</ele>
        <time>2020-10-12T12:28:35Z</time>
      </trkpt>
      <trkpt lat="38.2764280" lon="-0.9649250">
        <ele>400.1</ele>
        <time>2020-10-12T12:28:39Z</time>
      </trkpt>
      <trkpt lat="38.2764910" lon="-0.9652160">
        <ele>400.5</ele>
        <time>2020-10-12T12:28:43Z</time>
      </trkpt>
      <trkpt lat="38.2765470" lon="-0.9654870">
        <ele>400.8</ele>
        <time>2020-10-12T12:28:47Z</time>
      </trkpt>
      <trkpt lat="38.2766200" lon="-0.9657720">
        <ele>401.2</ele>
        <time>2020-10-12T12:28:51Z</time>
      </trkpt>
      <trkpt lat="38.2766650" lon="-0.9660480">
        <ele>401.6</ele>
        <time>2020-10-12T12:28:55Z</time>
      </trkpt>
      <trkpt lat="38.2767240" lon="-0.9663260">
        <ele>401.7</ele>
        <time>2020-10-12T12:28:59Z</time>
      </trkpt>
      <trkpt lat="38.2767670" lon="-0.9666160">
        <ele>401.6</ele>
        <time>2020-10-12T12:29:03Z</time>
      </trkpt>
      <trkpt lat="38.2768120" lon="-0.9668420">
        <ele>401.6</ele>
        <time>2020-10-12T12:29:06Z</time>
      </trkpt>
      <trkpt lat="38.2768760" lon="-0.9671280">
        <ele>401.4</ele>
        <time>2020-10-12T12:29:10Z</time>
      </trkpt>
      <trkpt lat="38.2769230" lon="-0.9674000">
        <ele>401.4</ele>
        <time>2020-10-12T12:29:14Z</time>
      </trkpt>
      <trkpt lat="38.2769970" lon="-0.9676790">
        <ele>401.2</ele>
        <time>2020-10-12T12:29:18Z</time>
      </trkpt>
      <trkpt lat="38.2770610" lon="-0.9679290">
        <ele>401.2</ele>
        <time>2020-10-12T12:29:21Z</time>
      </trkpt>
      <trkpt lat="38.2771130" lon="-0.9681770">
        <ele>401.3</ele>
        <time>2020-10-12T12:29:24Z</time>
      </trkpt>
      <trkpt lat="38.2771490" lon="-0.9684800">
        <ele>400.9</ele>
        <time>2020-10-12T12:29:28Z</time>
      </trkpt>
      <trkpt lat="38.2771610" lon="-0.9687750">
        <ele>400.9</ele>
        <time>2020-10-12T12:29:32Z</time>
      </trkpt>
      <trkpt lat="38.2771490" lon="-0.9690180">
        <ele>401.0</ele>
        <time>2020-10-12T12:29:35Z</time>
      </trkpt>
      <trkpt lat="38.2771520" lon="-0.9692620">
        <ele>401.2</ele>
        <time>2020-10-12T12:29:38Z</time>
      </trkpt>
      <trkpt lat="38.2771440" lon="-0.9694950">
        <ele>401.2</ele>
        <time>2020-10-12T12:29:41Z</time>
      </trkpt>
      <trkpt lat="38.2771440" lon="-0.9697420">
        <ele>401.3</ele>
        <time>2020-10-12T12:29:44Z</time>
      </trkpt>
      <trkpt lat="38.2771400" lon="-0.9699860">
        <ele>401.3</ele>
        <time>2020-10-12T12:29:47Z</time>
      </trkpt>
      <trkpt lat="38.2771300" lon="-0.9702190">
        <ele>401.4</ele>
        <time>2020-10-12T12:29:50Z</time>
      </trkpt>
      <trkpt lat="38.2770840" lon="-0.9704950">
        <ele>401.4</ele>
        <time>2020-10-12T12:29:54Z</time>
      </trkpt>
      <trkpt lat="38.2770700" lon="-0.9707310">
        <ele>401.4</ele>
        <time>2020-10-12T12:29:57Z</time>
      </trkpt>
      <trkpt lat="38.2770540" lon="-0.9709730">
        <ele>401.4</ele>
        <time>2020-10-12T12:30:00Z</time>
      </trkpt>
      <trkpt lat="38.2770360" lon="-0.9712060">
        <ele>401.3</ele>
        <time>2020-10-12T12:30:03Z</time>
      </trkpt>
      <trkpt lat="38.2770470" lon="-0.9714360">
        <ele>401.2</ele>
        <time>2020-10-12T12:30:06Z</time>
      </trkpt>
      <trkpt lat="38.2770380" lon="-0.9716840">
        <ele>401.1</ele>
        <time>2020-10-12T12:30:09Z</time>
      </trkpt>
      <trkpt lat="38.2770190" lon="-0.9719360">
        <ele>400.9</ele>
        <time>2020-10-12T12:30:12Z</time>
      </trkpt>
      <trkpt lat="38.2770250" lon="-0.9721800">
        <ele>400.7</ele>
        <time>2020-10-12T12:30:15Z</time>
      </trkpt>
      <trkpt lat="38.2770160" lon="-0.9724270">
        <ele>400.6</ele>
        <time>2020-10-12T12:30:18Z</time>
      </trkpt>
      <trkpt lat="38.2769960" lon="-0.9726890">
        <ele>400.3</ele>
        <time>2020-10-12T12:30:21Z</time>
      </trkpt>
      <trkpt lat="38.2769840" lon="-0.9729510">
        <ele>400.0</ele>
        <time>2020-10-12T12:30:24Z</time>
      </trkpt>
      <trkpt lat="38.2769580" lon="-0.9732170">
        <ele>399.8</ele>
        <time>2020-10-12T12:30:27Z</time>
      </trkpt>
      <trkpt lat="38.2769440" lon="-0.9734820">
        <ele>399.6</ele>
        <time>2020-10-12T12:30:30Z</time>
      </trkpt>
      <trkpt lat="38.2769320" lon="-0.9737530">
        <ele>399.3</ele>
        <time>2020-10-12T12:30:33Z</time>
      </trkpt>
      <trkpt lat="38.2769040" lon="-0.9740180">
        <ele>399.0</ele>
        <time>2020-10-12T12:30:36Z</time>
      </trkpt>
      <trkpt lat="38.2768830" lon="-0.9742860">
        <ele>398.8</ele>
        <time>2020-10-12T12:30:39Z</time>
      </trkpt>
      <trkpt lat="38.2768650" lon="-0.9745560">
        <ele>398.6</ele>
        <time>2020-10-12T12:30:42Z</time>
      </trkpt>
      <trkpt lat="38.2768570" lon="-0.9748260">
        <ele>398.1</ele>
        <time>2020-10-12T12:30:45Z</time>
      </trkpt>
      <trkpt lat="38.2768490" lon="-0.9751010">
        <ele>397.5</ele>
        <time>2020-10-12T12:30:48Z</time>
      </trkpt>
      <trkpt lat="38.2768510" lon="-0.9753660">
        <ele>396.8</ele>
        <time>2020-10-12T12:30:51Z</time>
      </trkpt>
      <trkpt lat="38.2768380" lon="-0.9756350">
        <ele>396.6</ele>
        <time>2020-10-12T12:30:54Z</time>
      </trkpt>
      <trkpt lat="38.2768350" lon="-0.9759220">
        <ele>396.1</ele>
        <time>2020-10-12T12:30:57Z</time>
      </trkpt>
      <trkpt lat="38.2768360" lon="-0.9762060">
        <ele>395.4</ele>
        <time>2020-10-12T12:31:00Z</time>
      </trkpt>
      <trkpt lat="38.2768140" lon="-0.9764990">
        <ele>394.8</ele>
        <time>2020-10-12T12:31:03Z</time>
      </trkpt>
      <trkpt lat="38.2767940" lon="-0.9767920">
        <ele>394.1</ele>
        <time>2020-10-12T12:31:06Z</time>
      </trkpt>
      <trkpt lat="38.2767620" lon="-0.9770890">
        <ele>393.4</ele>
        <time>2020-10-12T12:31:09Z</time>
      </trkpt>
      <trkpt lat="38.2767320" lon="-0.9773980">
        <ele>392.5</ele>
        <time>2020-10-12T12:31:12Z</time>
      </trkpt>
      <trkpt lat="38.2767070" lon="-0.9777200">
        <ele>391.8</ele>
        <time>2020-10-12T12:31:15Z</time>
      </trkpt>
      <trkpt lat="38.2766810" lon="-0.9780440">
        <ele>391.4</ele>
        <time>2020-10-12T12:31:18Z</time>
      </trkpt>
      <trkpt lat="38.2766430" lon="-0.9783750">
        <ele>391.1</ele>
        <time>2020-10-12T12:31:21Z</time>
      </trkpt>
      <trkpt lat="38.2766050" lon="-0.9787030">
        <ele>390.8</ele>
        <time>2020-10-12T12:31:24Z</time>
      </trkpt>
      <trkpt lat="38.2765780" lon="-0.9790270">
        <ele>390.6</ele>
        <time>2020-10-12T12:31:27Z</time>
      </trkpt>
      <trkpt lat="38.2765420" lon="-0.9793260">
        <ele>390.5</ele>
        <time>2020-10-12T12:31:30Z</time>
      </trkpt>
      <trkpt lat="38.2765140" lon="-0.9796170">
        <ele>390.3</ele>
        <time>2020-10-12T12:31:33Z</time>
      </trkpt>
      <trkpt lat="38.2764980" lon="-0.9799050">
        <ele>390.3</ele>
        <time>2020-10-12T12:31:36Z</time>
      </trkpt>
      <trkpt lat="38.2764820" lon="-0.9801920">
        <ele>390.4</ele>
        <time>2020-10-12T12:31:39Z</time>
      </trkpt>
      <trkpt lat="38.2764480" lon="-0.9804750">
        <ele>390.3</ele>
        <time>2020-10-12T12:31:42Z</time>
      </trkpt>
      <trkpt lat="38.2764250" lon="-0.9807360">
        <ele>390.3</ele>
        <time>2020-10-12T12:31:45Z</time>
      </trkpt>
      <trkpt lat="38.2764150" lon="-0.9810140">
        <ele>390.3</ele>
        <time>2020-10-12T12:31:49Z</time>
      </trkpt>
      <trkpt lat="38.2764520" lon="-0.9812490">
        <ele>392.9</ele>
        <time>2020-10-12T12:31:54Z</time>
      </trkpt>
      <trkpt lat="38.2762360" lon="-0.9812770">
        <ele>390.2</ele>
        <time>2020-10-12T12:32:06Z</time>
      </trkpt>
      <trkpt lat="38.2760410" lon="-0.9811320">
        <ele>392.0</ele>
        <time>2020-10-12T12:32:10Z</time>
      </trkpt>
      <trkpt lat="38.2758250" lon="-0.9811390">
        <ele>391.8</ele>
        <time>2020-10-12T12:32:14Z</time>
      </trkpt>
      <trkpt lat="38.2756370" lon="-0.9811650">
        <ele>391.3</ele>
        <time>2020-10-12T12:32:17Z</time>
      </trkpt>
      <trkpt lat="38.2754310" lon="-0.9811950">
        <ele>390.7</ele>
        <time>2020-10-12T12:32:20Z</time>
      </trkpt>
      <trkpt lat="38.2752100" lon="-0.9811840">
        <ele>390.2</ele>
        <time>2020-10-12T12:32:23Z</time>
      </trkpt>
      <trkpt lat="38.2749920" lon="-0.9811890">
        <ele>389.9</ele>
        <time>2020-10-12T12:32:26Z</time>
      </trkpt>
      <trkpt lat="38.2747830" lon="-0.9812470">
        <ele>389.6</ele>
        <time>2020-10-12T12:32:29Z</time>
      </trkpt>
      <trkpt lat="38.2745780" lon="-0.9813650">
        <ele>389.4</ele>
        <time>2020-10-12T12:32:32Z</time>
      </trkpt>
      <trkpt lat="38.2743940" lon="-0.9815500">
        <ele>389.3</ele>
        <time>2020-10-12T12:32:35Z</time>
      </trkpt>
      <trkpt lat="38.2742520" lon="-0.9817660">
        <ele>389.2</ele>
        <time>2020-10-12T12:32:38Z</time>
      </trkpt>
      <trkpt lat="38.2741250" lon="-0.9819860">
        <ele>389.1</ele>
        <time>2020-10-12T12:32:41Z</time>
      </trkpt>
      <trkpt lat="38.2739960" lon="-0.9821930">
        <ele>389.2</ele>
        <time>2020-10-12T12:32:44Z</time>
      </trkpt>
      <trkpt lat="38.2738590" lon="-0.9824160">
        <ele>389.2</ele>
        <time>2020-10-12T12:32:47Z</time>
      </trkpt>
      <trkpt lat="38.2737190" lon="-0.9826340">
        <ele>389.2</ele>
        <time>2020-10-12T12:32:50Z</time>
      </trkpt>
      <trkpt lat="38.2735810" lon="-0.9828370">
        <ele>389.1</ele>
        <time>2020-10-12T12:32:53Z</time>
      </trkpt>
      <trkpt lat="38.2734320" lon="-0.9830100">
        <ele>388.8</ele>
        <time>2020-10-12T12:32:56Z</time>
      </trkpt>
      <trkpt lat="38.2732640" lon="-0.9832120">
        <ele>388.3</ele>
        <time>2020-10-12T12:32:59Z</time>
      </trkpt>
      <trkpt lat="38.2730950" lon="-0.9834290">
        <ele>387.9</ele>
        <time>2020-10-12T12:33:02Z</time>
      </trkpt>
      <trkpt lat="38.2729260" lon="-0.9836360">
        <ele>387.6</ele>
        <time>2020-10-12T12:33:05Z</time>
      </trkpt>
      <trkpt lat="38.2727550" lon="-0.9838400">
        <ele>387.2</ele>
        <time>2020-10-12T12:33:08Z</time>
      </trkpt>
      <trkpt lat="38.2725840" lon="-0.9840550">
        <ele>386.8</ele>
        <time>2020-10-12T12:33:11Z</time>
      </trkpt>
      <trkpt lat="38.2724220" lon="-0.9842590">
        <ele>386.5</ele>
        <time>2020-10-12T12:33:14Z</time>
      </trkpt>
      <trkpt lat="38.2722450" lon="-0.9844800">
        <ele>386.0</ele>
        <time>2020-10-12T12:33:17Z</time>
      </trkpt>
      <trkpt lat="38.2720430" lon="-0.9847270">
        <ele>385.6</ele>
        <time>2020-10-12T12:33:20Z</time>
      </trkpt>
      <trkpt lat="38.2719170" lon="-0.9848930">
        <ele>385.3</ele>
        <time>2020-10-12T12:33:22Z</time>
      </trkpt>
      <trkpt lat="38.2717650" lon="-0.9851680">
        <ele>384.8</ele>
        <time>2020-10-12T12:33:25Z</time>
      </trkpt>
      <trkpt lat="38.2716530" lon="-0.9854610">
        <ele>384.5</ele>
        <time>2020-10-12T12:33:28Z</time>
      </trkpt>
      <trkpt lat="38.2715720" lon="-0.9857590">
        <ele>384.1</ele>
        <time>2020-10-12T12:33:31Z</time>
      </trkpt>
      <trkpt lat="38.2714900" lon="-0.9860410">
        <ele>384.0</ele>
        <time>2020-10-12T12:33:34Z</time>
      </trkpt>
      <trkpt lat="38.2714040" lon="-0.9863380">
        <ele>383.7</ele>
        <time>2020-10-12T12:33:37Z</time>
      </trkpt>
      <trkpt lat="38.2713110" lon="-0.9866320">
        <ele>383.5</ele>
        <time>2020-10-12T12:33:40Z</time>
      </trkpt>
      <trkpt lat="38.2712230" lon="-0.9869210">
        <ele>383.3</ele>
        <time>2020-10-12T12:33:43Z</time>
      </trkpt>
      <trkpt lat="38.2711390" lon="-0.9872120">
        <ele>382.9</ele>
        <time>2020-10-12T12:33:46Z</time>
      </trkpt>
      <trkpt lat="38.2710580" lon="-0.9875070">
        <ele>382.6</ele>
        <time>2020-10-12T12:33:49Z</time>
      </trkpt>
      <trkpt lat="38.2709520" lon="-0.9878050">
        <ele>382.1</ele>
        <time>2020-10-12T12:33:52Z</time>
      </trkpt>
      <trkpt lat="38.2708220" lon="-0.9880810">
        <ele>381.8</ele>
        <time>2020-10-12T12:33:55Z</time>
      </trkpt>
      <trkpt lat="38.2706570" lon="-0.9883060">
        <ele>381.5</ele>
        <time>2020-10-12T12:33:58Z</time>
      </trkpt>
      <trkpt lat="38.2704410" lon="-0.9885000">
        <ele>381.2</ele>
        <time>2020-10-12T12:34:01Z</time>
      </trkpt>
      <trkpt lat="38.2702920" lon="-0.9886300">
        <ele>380.9</ele>
        <time>2020-10-12T12:34:03Z</time>
      </trkpt>
      <trkpt lat="38.2700830" lon="-0.9888080">
        <ele>380.5</ele>
        <time>2020-10-12T12:34:06Z</time>
      </trkpt>
      <trkpt lat="38.2698650" lon="-0.9889740">
        <ele>379.9</ele>
        <time>2020-10-12T12:34:09Z</time>
      </trkpt>
      <trkpt lat="38.2697110" lon="-0.9890970">
        <ele>379.5</ele>
        <time>2020-10-12T12:34:11Z</time>
      </trkpt>
      <trkpt lat="38.2694940" lon="-0.9892830">
        <ele>379.1</ele>
        <time>2020-10-12T12:34:14Z</time>
      </trkpt>
      <trkpt lat="38.2692940" lon="-0.9894790">
        <ele>378.7</ele>
        <time>2020-10-12T12:34:17Z</time>
      </trkpt>
      <trkpt lat="38.2691080" lon="-0.9896990">
        <ele>378.1</ele>
        <time>2020-10-12T12:34:20Z</time>
      </trkpt>
      <trkpt lat="38.2689270" lon="-0.9899150">
        <ele>377.5</ele>
        <time>2020-10-12T12:34:23Z</time>
      </trkpt>
      <trkpt lat="38.2687420" lon="-0.9901300">
        <ele>376.5</ele>
        <time>2020-10-12T12:34:26Z</time>
      </trkpt>
      <trkpt lat="38.2685580" lon="-0.9903460">
        <ele>375.1</ele>
        <time>2020-10-12T12:34:29Z</time>
      </trkpt>
      <trkpt lat="38.2683690" lon="-0.9905830">
        <ele>373.3</ele>
        <time>2020-10-12T12:34:32Z</time>
      </trkpt>
      <trkpt lat="38.2681970" lon="-0.9908480">
        <ele>371.7</ele>
        <time>2020-10-12T12:34:35Z</time>
      </trkpt>
      <trkpt lat="38.2681640" lon="-0.9910850">
        <ele>371.1</ele>
        <time>2020-10-12T12:34:37Z</time>
      </trkpt>
      <trkpt lat="38.2682120" lon="-0.9913450">
        <ele>370.7</ele>
        <time>2020-10-12T12:34:39Z</time>
      </trkpt>
      <trkpt lat="38.2682770" lon="-0.9915860">
        <ele>370.3</ele>
        <time>2020-10-12T12:34:41Z</time>
      </trkpt>
      <trkpt lat="38.2683170" lon="-0.9918150">
        <ele>369.8</ele>
        <time>2020-10-12T12:34:43Z</time>
      </trkpt>
      <trkpt lat="38.2682260" lon="-0.9921330">
        <ele>368.3</ele>
        <time>2020-10-12T12:34:46Z</time>
      </trkpt>
      <trkpt lat="38.2680930" lon="-0.9923180">
        <ele>367.0</ele>
        <time>2020-10-12T12:34:48Z</time>
      </trkpt>
      <trkpt lat="38.2679530" lon="-0.9924850">
        <ele>365.7</ele>
        <time>2020-10-12T12:34:50Z</time>
      </trkpt>
      <trkpt lat="38.2677940" lon="-0.9926560">
        <ele>364.2</ele>
        <time>2020-10-12T12:34:52Z</time>
      </trkpt>
      <trkpt lat="38.2676080" lon="-0.9928220">
        <ele>362.6</ele>
        <time>2020-10-12T12:34:54Z</time>
      </trkpt>
      <trkpt lat="38.2674370" lon="-0.9929850">
        <ele>361.3</ele>
        <time>2020-10-12T12:34:56Z</time>
      </trkpt>
      <trkpt lat="38.2672680" lon="-0.9931190">
        <ele>360.2</ele>
        <time>2020-10-12T12:34:58Z</time>
      </trkpt>
      <trkpt lat="38.2670850" lon="-0.9932730">
        <ele>359.1</ele>
        <time>2020-10-12T12:35:00Z</time>
      </trkpt>
      <trkpt lat="38.2669060" lon="-0.9934420">
        <ele>357.8</ele>
        <time>2020-10-12T12:35:02Z</time>
      </trkpt>
      <trkpt lat="38.2667640" lon="-0.9936360">
        <ele>356.8</ele>
        <time>2020-10-12T12:35:04Z</time>
      </trkpt>
      <trkpt lat="38.2666310" lon="-0.9938500">
        <ele>355.6</ele>
        <time>2020-10-12T12:35:06Z</time>
      </trkpt>
      <trkpt lat="38.2665530" lon="-0.9941150">
        <ele>354.5</ele>
        <time>2020-10-12T12:35:08Z</time>
      </trkpt>
      <trkpt lat="38.2665320" lon="-0.9944030">
        <ele>353.6</ele>
        <time>2020-10-12T12:35:10Z</time>
      </trkpt>
      <trkpt lat="38.2665190" lon="-0.9946900">
        <ele>353.0</ele>
        <time>2020-10-12T12:35:12Z</time>
      </trkpt>
      <trkpt lat="38.2665300" lon="-0.9949780">
        <ele>352.4</ele>
        <time>2020-10-12T12:35:14Z</time>
      </trkpt>
      <trkpt lat="38.2665260" lon="-0.9952540">
        <ele>352.0</ele>
        <time>2020-10-12T12:35:16Z</time>
      </trkpt>
      <trkpt lat="38.2665090" lon="-0.9955300">
        <ele>351.5</ele>
        <time>2020-10-12T12:35:18Z</time>
      </trkpt>
      <trkpt lat="38.2664880" lon="-0.9957950">
        <ele>351.1</ele>
        <time>2020-10-12T12:35:20Z</time>
      </trkpt>
      <trkpt lat="38.2664470" lon="-0.9960480">
        <ele>350.6</ele>
        <time>2020-10-12T12:35:22Z</time>
      </trkpt>
      <trkpt lat="38.2663820" lon="-0.9962890">
        <ele>350.1</ele>
        <time>2020-10-12T12:35:24Z</time>
      </trkpt>
      <trkpt lat="38.2663430" lon="-0.9965560">
        <ele>349.6</ele>
        <time>2020-10-12T12:35:26Z</time>
      </trkpt>
      <trkpt lat="38.2662950" lon="-0.9968210">
        <ele>349.3</ele>
        <time>2020-10-12T12:35:28Z</time>
      </trkpt>
      <trkpt lat="38.2662490" lon="-0.9970590">
        <ele>349.0</ele>
        <time>2020-10-12T12:35:30Z</time>
      </trkpt>
      <trkpt lat="38.2661890" lon="-0.9972800">
        <ele>348.6</ele>
        <time>2020-10-12T12:35:32Z</time>
      </trkpt>
      <trkpt lat="38.2660910" lon="-0.9974810">
        <ele>348.2</ele>
        <time>2020-10-12T12:35:34Z</time>
      </trkpt>
      <trkpt lat="38.2659770" lon="-0.9976640">
        <ele>347.9</ele>
        <time>2020-10-12T12:35:36Z</time>
      </trkpt>
      <trkpt lat="38.2658540" lon="-0.9978350">
        <ele>347.7</ele>
        <time>2020-10-12T12:35:38Z</time>
      </trkpt>
      <trkpt lat="38.2657300" lon="-0.9980100">
        <ele>347.7</ele>
        <time>2020-10-12T12:35:40Z</time>
      </trkpt>
      <trkpt lat="38.2655560" lon="-0.9982540">
        <ele>347.6</ele>
        <time>2020-10-12T12:35:43Z</time>
      </trkpt>
      <trkpt lat="38.2653970" lon="-0.9984870">
        <ele>347.6</ele>
        <time>2020-10-12T12:35:46Z</time>
      </trkpt>
      <trkpt lat="38.2652440" lon="-0.9987250">
        <ele>348.0</ele>
        <time>2020-10-12T12:35:49Z</time>
      </trkpt>
      <trkpt lat="38.2650840" lon="-0.9989480">
        <ele>348.9</ele>
        <time>2020-10-12T12:35:52Z</time>
      </trkpt>
      <trkpt lat="38.2649440" lon="-0.9991420">
        <ele>349.9</ele>
        <time>2020-10-12T12:35:55Z</time>
      </trkpt>
      <trkpt lat="38.2648190" lon="-0.9993070">
        <ele>350.7</ele>
        <time>2020-10-12T12:35:58Z</time>
      </trkpt>
      <trkpt lat="38.2646780" lon="-0.9995040">
        <ele>351.4</ele>
        <time>2020-10-12T12:36:02Z</time>
      </trkpt>
      <trkpt lat="38.2645240" lon="-0.9997100">
        <ele>351.5</ele>
        <time>2020-10-12T12:36:06Z</time>
      </trkpt>
      <trkpt lat="38.2643220" lon="-0.9998780">
        <ele>351.2</ele>
        <time>2020-10-12T12:36:10Z</time>
      </trkpt>
      <trkpt lat="38.2641700" lon="-1.0000190">
        <ele>351.0</ele>
        <time>2020-10-12T12:36:13Z</time>
      </trkpt>
      <trkpt lat="38.2639920" lon="-1.0001960">
        <ele>350.8</ele>
        <time>2020-10-12T12:36:17Z</time>
      </trkpt>
      <trkpt lat="38.2638470" lon="-1.0003700">
        <ele>350.7</ele>
        <time>2020-10-12T12:36:20Z</time>
      </trkpt>
      <trkpt lat="38.2636920" lon="-1.0005340">
        <ele>351.2</ele>
        <time>2020-10-12T12:36:23Z</time>
      </trkpt>
      <trkpt lat="38.2635290" lon="-1.0006580">
        <ele>351.8</ele>
        <time>2020-10-12T12:36:26Z</time>
      </trkpt>
      <trkpt lat="38.2633590" lon="-1.0007650">
        <ele>352.5</ele>
        <time>2020-10-12T12:36:29Z</time>
      </trkpt>
      <trkpt lat="38.2631400" lon="-1.0008680">
        <ele>353.4</ele>
        <time>2020-10-12T12:36:33Z</time>
      </trkpt>
      <trkpt lat="38.2629880" lon="-1.0010120">
        <ele>354.0</ele>
        <time>2020-10-12T12:36:37Z</time>
      </trkpt>
      <trkpt lat="38.2629030" lon="-1.0012760">
        <ele>354.4</ele>
        <time>2020-10-12T12:36:41Z</time>
      </trkpt>
      <trkpt lat="38.2629120" lon="-1.0015710">
        <ele>354.7</ele>
        <time>2020-10-12T12:36:45Z</time>
      </trkpt>
      <trkpt lat="38.2629260" lon="-1.0018000">
        <ele>354.8</ele>
        <time>2020-10-12T12:36:48Z</time>
      </trkpt>
      <trkpt lat="38.2629330" lon="-1.0020490">
        <ele>355.1</ele>
        <time>2020-10-12T12:36:51Z</time>
      </trkpt>
      <trkpt lat="38.2629270" lon="-1.0023060">
        <ele>355.6</ele>
        <time>2020-10-12T12:36:54Z</time>
      </trkpt>
      <trkpt lat="38.2629450" lon="-1.0025590">
        <ele>356.2</ele>
        <time>2020-10-12T12:36:57Z</time>
      </trkpt>
      <trkpt lat="38.2629500" lon="-1.0028470">
        <ele>357.6</ele>
        <time>2020-10-12T12:37:01Z</time>
      </trkpt>
      <trkpt lat="38.2629510" lon="-1.0031090">
        <ele>359.1</ele>
        <time>2020-10-12T12:37:05Z</time>
      </trkpt>
      <trkpt lat="38.2629550" lon="-1.0033600">
        <ele>360.6</ele>
        <time>2020-10-12T12:37:09Z</time>
      </trkpt>
      <trkpt lat="38.2629700" lon="-1.0036170">
        <ele>362.2</ele>
        <time>2020-10-12T12:37:16Z</time>
      </trkpt>
      <trkpt lat="38.2629990" lon="-1.0038870">
        <ele>364.0</ele>
        <time>2020-10-12T12:37:22Z</time>
      </trkpt>
      <trkpt lat="38.2630290" lon="-1.0041570">
        <ele>365.7</ele>
        <time>2020-10-12T12:37:27Z</time>
      </trkpt>
      <trkpt lat="38.2630240" lon="-1.0044590">
        <ele>367.2</ele>
        <time>2020-10-12T12:37:30Z</time>
      </trkpt>
      <trkpt lat="38.2630120" lon="-1.0047030">
        <ele>367.4</ele>
        <time>2020-10-12T12:37:34Z</time>
      </trkpt>
      <trkpt lat="38.2629510" lon="-1.0049620">
        <ele>366.6</ele>
        <time>2020-10-12T12:37:39Z</time>
      </trkpt>
      <trkpt lat="38.2628520" lon="-1.0052970">
        <ele>365.5</ele>
        <time>2020-10-12T12:37:43Z</time>
      </trkpt>
      <trkpt lat="38.2627810" lon="-1.0055310">
        <ele>364.7</ele>
        <time>2020-10-12T12:37:45Z</time>
      </trkpt>
      <trkpt lat="38.2626930" lon="-1.0058070">
        <ele>363.7</ele>
        <time>2020-10-12T12:37:48Z</time>
      </trkpt>
      <trkpt lat="38.2626640" lon="-1.0060770">
        <ele>362.9</ele>
        <time>2020-10-12T12:37:51Z</time>
      </trkpt>
      <trkpt lat="38.2627970" lon="-1.0063290">
        <ele>362.4</ele>
        <time>2020-10-12T12:37:54Z</time>
      </trkpt>
      <trkpt lat="38.2628850" lon="-1.0066110">
        <ele>362.4</ele>
        <time>2020-10-12T12:37:57Z</time>
      </trkpt>
      <trkpt lat="38.2628200" lon="-1.0068790">
        <ele>362.8</ele>
        <time>2020-10-12T12:38:00Z</time>
      </trkpt>
      <trkpt lat="38.2626470" lon="-1.0070090">
        <ele>363.0</ele>
        <time>2020-10-12T12:38:03Z</time>
      </trkpt>
      <trkpt lat="38.2624520" lon="-1.0070140">
        <ele>363.4</ele>
        <time>2020-10-12T12:38:06Z</time>
      </trkpt>
      <trkpt lat="38.2622620" lon="-1.0069700">
        <ele>364.1</ele>
        <time>2020-10-12T12:38:09Z</time>
      </trkpt>
      <trkpt lat="38.2620610" lon="-1.0068390">
        <ele>365.2</ele>
        <time>2020-10-12T12:38:13Z</time>
      </trkpt>
      <trkpt lat="38.2618810" lon="-1.0066930">
        <ele>366.4</ele>
        <time>2020-10-12T12:38:17Z</time>
      </trkpt>
      <trkpt lat="38.2616770" lon="-1.0065550">
        <ele>367.6</ele>
        <time>2020-10-12T12:38:21Z</time>
      </trkpt>
      <trkpt lat="38.2614480" lon="-1.0065770">
        <ele>368.7</ele>
        <time>2020-10-12T12:38:25Z</time>
      </trkpt>
      <trkpt lat="38.2612710" lon="-1.0067680">
        <ele>369.7</ele>
        <time>2020-10-12T12:38:29Z</time>
      </trkpt>
      <trkpt lat="38.2611540" lon="-1.0069550">
        <ele>370.5</ele>
        <time>2020-10-12T12:38:32Z</time>
      </trkpt>
      <trkpt lat="38.2610690" lon="-1.0071930">
        <ele>371.5</ele>
        <time>2020-10-12T12:38:36Z</time>
      </trkpt>
      <trkpt lat="38.2609960" lon="-1.0074070">
        <ele>372.5</ele>
        <time>2020-10-12T12:38:40Z</time>
      </trkpt>
      <trkpt lat="38.2609070" lon="-1.0076110">
        <ele>373.5</ele>
        <time>2020-10-12T12:38:44Z</time>
      </trkpt>
      <trkpt lat="38.2608440" lon="-1.0078370">
        <ele>374.4</ele>
        <time>2020-10-12T12:38:52Z</time>
      </trkpt>
      <trkpt lat="38.2607660" lon="-1.0080520">
        <ele>375.3</ele>
        <time>2020-10-12T12:38:56Z</time>
      </trkpt>
      <trkpt lat="38.2606540" lon="-1.0083610">
        <ele>376.8</ele>
        <time>2020-10-12T12:39:00Z</time>
      </trkpt>
      <trkpt lat="38.2605770" lon="-1.0086020">
        <ele>377.9</ele>
        <time>2020-10-12T12:39:03Z</time>
      </trkpt>
      <trkpt lat="38.2604860" lon="-1.0088210">
        <ele>378.9</ele>
        <time>2020-10-12T12:39:06Z</time>
      </trkpt>
      <trkpt lat="38.2603820" lon="-1.0090580">
        <ele>379.8</ele>
        <time>2020-10-12T12:39:09Z</time>
      </trkpt>
      <trkpt lat="38.2602800" lon="-1.0092650">
        <ele>380.5</ele>
        <time>2020-10-12T12:39:13Z</time>
      </trkpt>
      <trkpt lat="38.2601960" lon="-1.0094850">
        <ele>380.5</ele>
        <time>2020-10-12T12:39:21Z</time>
      </trkpt>
      <trkpt lat="38.2600710" lon="-1.0097040">
        <ele>379.9</ele>
        <time>2020-10-12T12:39:26Z</time>
      </trkpt>
      <trkpt lat="38.2599320" lon="-1.0098680">
        <ele>378.4</ele>
        <time>2020-10-12T12:39:30Z</time>
      </trkpt>
      <trkpt lat="38.2596710" lon="-1.0100940">
        <ele>376.6</ele>
        <time>2020-10-12T12:39:32Z</time>
      </trkpt>
      <trkpt lat="38.2594870" lon="-1.0102300">
        <ele>375.9</ele>
        <time>2020-10-12T12:39:34Z</time>
      </trkpt>
      <trkpt lat="38.2592540" lon="-1.0103790">
        <ele>375.6</ele>
        <time>2020-10-12T12:39:37Z</time>
      </trkpt>
      <trkpt lat="38.2590570" lon="-1.0105050">
        <ele>375.8</ele>
        <time>2020-10-12T12:39:40Z</time>
      </trkpt>
      <trkpt lat="38.2588740" lon="-1.0105450">
        <ele>375.7</ele>
        <time>2020-10-12T12:39:43Z</time>
      </trkpt>
      <trkpt lat="38.2586810" lon="-1.0104870">
        <ele>375.4</ele>
        <time>2020-10-12T12:39:46Z</time>
      </trkpt>
      <trkpt lat="38.2585020" lon="-1.0103690">
        <ele>374.5</ele>
        <time>2020-10-12T12:39:49Z</time>
      </trkpt>
      <trkpt lat="38.2583210" lon="-1.0102290">
        <ele>373.3</ele>
        <time>2020-10-12T12:39:52Z</time>
      </trkpt>
      <trkpt lat="38.2581170" lon="-1.0101420">
        <ele>371.9</ele>
        <time>2020-10-12T12:39:55Z</time>
      </trkpt>
      <trkpt lat="38.2578880" lon="-1.0101820">
        <ele>370.6</ele>
        <time>2020-10-12T12:39:58Z</time>
      </trkpt>
      <trkpt lat="38.2578000" lon="-1.0104580">
        <ele>369.2</ele>
        <time>2020-10-12T12:40:00Z</time>
      </trkpt>
      <trkpt lat="38.2577460" lon="-1.0107100">
        <ele>368.1</ele>
        <time>2020-10-12T12:40:02Z</time>
      </trkpt>
      <trkpt lat="38.2576950" lon="-1.0109400">
        <ele>366.9</ele>
        <time>2020-10-12T12:40:04Z</time>
      </trkpt>
      <trkpt lat="38.2575940" lon="-1.0111340">
        <ele>365.7</ele>
        <time>2020-10-12T12:40:06Z</time>
      </trkpt>
      <trkpt lat="38.2574510" lon="-1.0112850">
        <ele>364.4</ele>
        <time>2020-10-12T12:40:08Z</time>
      </trkpt>
      <trkpt lat="38.2572890" lon="-1.0114140">
        <ele>362.9</ele>
        <time>2020-10-12T12:40:10Z</time>
      </trkpt>
      <trkpt lat="38.2571400" lon="-1.0115820">
        <ele>361.3</ele>
        <time>2020-10-12T12:40:12Z</time>
      </trkpt>
      <trkpt lat="38.2569850" lon="-1.0117530">
        <ele>359.7</ele>
        <time>2020-10-12T12:40:14Z</time>
      </trkpt>
      <trkpt lat="38.2568330" lon="-1.0119270">
        <ele>357.9</ele>
        <time>2020-10-12T12:40:16Z</time>
      </trkpt>
      <trkpt lat="38.2566850" lon="-1.0121080">
        <ele>356.3</ele>
        <time>2020-10-12T12:40:18Z</time>
      </trkpt>
      <trkpt lat="38.2564860" lon="-1.0122370">
        <ele>355.1</ele>
        <time>2020-10-12T12:40:20Z</time>
      </trkpt>
      <trkpt lat="38.2562770" lon="-1.0123560">
        <ele>354.1</ele>
        <time>2020-10-12T12:40:22Z</time>
      </trkpt>
      <trkpt lat="38.2560920" lon="-1.0125340">
        <ele>353.9</ele>
        <time>2020-10-12T12:40:24Z</time>
      </trkpt>
      <trkpt lat="38.2559160" lon="-1.0127440">
        <ele>354.4</ele>
        <time>2020-10-12T12:40:26Z</time>
      </trkpt>
      <trkpt lat="38.2557550" lon="-1.0129160">
        <ele>355.2</ele>
        <time>2020-10-12T12:40:28Z</time>
      </trkpt>
      <trkpt lat="38.2555920" lon="-1.0130480">
        <ele>355.9</ele>
        <time>2020-10-12T12:40:30Z</time>
      </trkpt>
      <trkpt lat="38.2554300" lon="-1.0131530">
        <ele>356.3</ele>
        <time>2020-10-12T12:40:32Z</time>
      </trkpt>
      <trkpt lat="38.2551960" lon="-1.0132870">
        <ele>356.8</ele>
        <time>2020-10-12T12:40:35Z</time>
      </trkpt>
      <trkpt lat="38.2549950" lon="-1.0134510">
        <ele>357.0</ele>
        <time>2020-10-12T12:40:38Z</time>
      </trkpt>
      <trkpt lat="38.2548050" lon="-1.0136290">
        <ele>356.2</ele>
        <time>2020-10-12T12:40:41Z</time>
      </trkpt>
      <trkpt lat="38.2546590" lon="-1.0137630">
        <ele>355.4</ele>
        <time>2020-10-12T12:40:43Z</time>
      </trkpt>
      <trkpt lat="38.2544610" lon="-1.0139750">
        <ele>353.9</ele>
        <time>2020-10-12T12:40:46Z</time>
      </trkpt>
      <trkpt lat="38.2543250" lon="-1.0141270">
        <ele>352.8</ele>
        <time>2020-10-12T12:40:48Z</time>
      </trkpt>
      <trkpt lat="38.2541610" lon="-1.0142680">
        <ele>351.5</ele>
        <time>2020-10-12T12:40:50Z</time>
      </trkpt>
      <trkpt lat="38.2539700" lon="-1.0143850">
        <ele>350.2</ele>
        <time>2020-10-12T12:40:52Z</time>
      </trkpt>
      <trkpt lat="38.2537710" lon="-1.0144780">
        <ele>348.9</ele>
        <time>2020-10-12T12:40:54Z</time>
      </trkpt>
      <trkpt lat="38.2535730" lon="-1.0145920">
        <ele>347.7</ele>
        <time>2020-10-12T12:40:56Z</time>
      </trkpt>
      <trkpt lat="38.2533580" lon="-1.0146790">
        <ele>346.6</ele>
        <time>2020-10-12T12:40:58Z</time>
      </trkpt>
      <trkpt lat="38.2531390" lon="-1.0147280">
        <ele>345.5</ele>
        <time>2020-10-12T12:41:00Z</time>
      </trkpt>
      <trkpt lat="38.2529230" lon="-1.0147320">
        <ele>344.4</ele>
        <time>2020-10-12T12:41:02Z</time>
      </trkpt>
      <trkpt lat="38.2527070" lon="-1.0146790">
        <ele>343.0</ele>
        <time>2020-10-12T12:41:04Z</time>
      </trkpt>
      <trkpt lat="38.2524820" lon="-1.0145970">
        <ele>341.6</ele>
        <time>2020-10-12T12:41:06Z</time>
      </trkpt>
      <trkpt lat="38.2522540" lon="-1.0145060">
        <ele>340.0</ele>
        <time>2020-10-12T12:41:08Z</time>
      </trkpt>
      <trkpt lat="38.2520260" lon="-1.0144120">
        <ele>338.5</ele>
        <time>2020-10-12T12:41:10Z</time>
      </trkpt>
      <trkpt lat="38.2517840" lon="-1.0142750">
        <ele>336.8</ele>
        <time>2020-10-12T12:41:12Z</time>
      </trkpt>
      <trkpt lat="38.2515470" lon="-1.0141550">
        <ele>335.3</ele>
        <time>2020-10-12T12:41:14Z</time>
      </trkpt>
      <trkpt lat="38.2513050" lon="-1.0140330">
        <ele>333.9</ele>
        <time>2020-10-12T12:41:16Z</time>
      </trkpt>
      <trkpt lat="38.2510840" lon="-1.0139120">
        <ele>332.6</ele>
        <time>2020-10-12T12:41:18Z</time>
      </trkpt>
      <trkpt lat="38.2508570" lon="-1.0137830">
        <ele>331.2</ele>
        <time>2020-10-12T12:41:20Z</time>
      </trkpt>
      <trkpt lat="38.2506340" lon="-1.0136910">
        <ele>329.9</ele>
        <time>2020-10-12T12:41:22Z</time>
      </trkpt>
      <trkpt lat="38.2504290" lon="-1.0137000">
        <ele>328.7</ele>
        <time>2020-10-12T12:41:24Z</time>
      </trkpt>
      <trkpt lat="38.2502510" lon="-1.0138000">
        <ele>327.3</ele>
        <time>2020-10-12T12:41:26Z</time>
      </trkpt>
      <trkpt lat="38.2501300" lon="-1.0140360">
        <ele>325.6</ele>
        <time>2020-10-12T12:41:28Z</time>
      </trkpt>
      <trkpt lat="38.2499710" lon="-1.0142000">
        <ele>324.0</ele>
        <time>2020-10-12T12:41:30Z</time>
      </trkpt>
      <trkpt lat="38.2497750" lon="-1.0142910">
        <ele>322.7</ele>
        <time>2020-10-12T12:41:32Z</time>
      </trkpt>
      <trkpt lat="38.2495510" lon="-1.0142500">
        <ele>321.6</ele>
        <time>2020-10-12T12:41:34Z</time>
      </trkpt>
      <trkpt lat="38.2493140" lon="-1.0141250">
        <ele>321.1</ele>
        <time>2020-10-12T12:41:36Z</time>
      </trkpt>
      <trkpt lat="38.2490910" lon="-1.0139820">
        <ele>320.9</ele>
        <time>2020-10-12T12:41:38Z</time>
      </trkpt>
      <trkpt lat="38.2488770" lon="-1.0138830">
        <ele>320.3</ele>
        <time>2020-10-12T12:41:40Z</time>
      </trkpt>
      <trkpt lat="38.2486570" lon="-1.0138730">
        <ele>319.5</ele>
        <time>2020-10-12T12:41:42Z</time>
      </trkpt>
      <trkpt lat="38.2484490" lon="-1.0140130">
        <ele>318.3</ele>
        <time>2020-10-12T12:41:44Z</time>
      </trkpt>
      <trkpt lat="38.2482600" lon="-1.0141370">
        <ele>317.1</ele>
        <time>2020-10-12T12:41:46Z</time>
      </trkpt>
      <trkpt lat="38.2480850" lon="-1.0142550">
        <ele>315.9</ele>
        <time>2020-10-12T12:41:48Z</time>
      </trkpt>
      <trkpt lat="38.2478770" lon="-1.0144140">
        <ele>314.4</ele>
        <time>2020-10-12T12:41:50Z</time>
      </trkpt>
      <trkpt lat="38.2476710" lon="-1.0145750">
        <ele>313.0</ele>
        <time>2020-10-12T12:41:52Z</time>
      </trkpt>
      <trkpt lat="38.2474530" lon="-1.0147570">
        <ele>311.4</ele>
        <time>2020-10-12T12:41:54Z</time>
      </trkpt>
      <trkpt lat="38.2472600" lon="-1.0149260">
        <ele>309.8</ele>
        <time>2020-10-12T12:41:56Z</time>
      </trkpt>
      <trkpt lat="38.2470430" lon="-1.0151020">
        <ele>307.8</ele>
        <time>2020-10-12T12:41:58Z</time>
      </trkpt>
      <trkpt lat="38.2468140" lon="-1.0152750">
        <ele>305.7</ele>
        <time>2020-10-12T12:42:00Z</time>
      </trkpt>
      <trkpt lat="38.2465850" lon="-1.0154540">
        <ele>303.8</ele>
        <time>2020-10-12T12:42:02Z</time>
      </trkpt>
      <trkpt lat="38.2463670" lon="-1.0156220">
        <ele>302.0</ele>
        <time>2020-10-12T12:42:04Z</time>
      </trkpt>
      <trkpt lat="38.2461240" lon="-1.0157560">
        <ele>300.5</ele>
        <time>2020-10-12T12:42:06Z</time>
      </trkpt>
      <trkpt lat="38.2458960" lon="-1.0159000">
        <ele>299.5</ele>
        <time>2020-10-12T12:42:08Z</time>
      </trkpt>
      <trkpt lat="38.2456760" lon="-1.0160480">
        <ele>299.0</ele>
        <time>2020-10-12T12:42:10Z</time>
      </trkpt>
      <trkpt lat="38.2454690" lon="-1.0161790">
        <ele>298.6</ele>
        <time>2020-10-12T12:42:12Z</time>
      </trkpt>
      <trkpt lat="38.2452700" lon="-1.0163030">
        <ele>298.1</ele>
        <time>2020-10-12T12:42:14Z</time>
      </trkpt>
      <trkpt lat="38.2450810" lon="-1.0164210">
        <ele>297.8</ele>
        <time>2020-10-12T12:42:16Z</time>
      </trkpt>
      <trkpt lat="38.2449110" lon="-1.0165470">
        <ele>297.7</ele>
        <time>2020-10-12T12:42:18Z</time>
      </trkpt>
      <trkpt lat="38.2447790" lon="-1.0167540">
        <ele>297.7</ele>
        <time>2020-10-12T12:42:20Z</time>
      </trkpt>
      <trkpt lat="38.2447370" lon="-1.0170150">
        <ele>297.6</ele>
        <time>2020-10-12T12:42:22Z</time>
      </trkpt>
      <trkpt lat="38.2447240" lon="-1.0172680">
        <ele>297.5</ele>
        <time>2020-10-12T12:42:24Z</time>
      </trkpt>
      <trkpt lat="38.2447060" lon="-1.0175280">
        <ele>297.4</ele>
        <time>2020-10-12T12:42:26Z</time>
      </trkpt>
      <trkpt lat="38.2446960" lon="-1.0177850">
        <ele>297.2</ele>
        <time>2020-10-12T12:42:28Z</time>
      </trkpt>
      <trkpt lat="38.2447100" lon="-1.0180420">
        <ele>297.0</ele>
        <time>2020-10-12T12:42:30Z</time>
      </trkpt>
      <trkpt lat="38.2447480" lon="-1.0182890">
        <ele>296.8</ele>
        <time>2020-10-12T12:42:32Z</time>
      </trkpt>
      <trkpt lat="38.2448100" lon="-1.0185260">
        <ele>296.5</ele>
        <time>2020-10-12T12:42:34Z</time>
      </trkpt>
      <trkpt lat="38.2448780" lon="-1.0187490">
        <ele>296.3</ele>
        <time>2020-10-12T12:42:36Z</time>
      </trkpt>
      <trkpt lat="38.2449430" lon="-1.0189810">
        <ele>296.1</ele>
        <time>2020-10-12T12:42:38Z</time>
      </trkpt>
      <trkpt lat="38.2450050" lon="-1.0192100">
        <ele>295.9</ele>
        <time>2020-10-12T12:42:40Z</time>
      </trkpt>
      <trkpt lat="38.2450650" lon="-1.0194470">
        <ele>295.7</ele>
        <time>2020-10-12T12:42:42Z</time>
      </trkpt>
      <trkpt lat="38.2451310" lon="-1.0196810">
        <ele>295.4</ele>
        <time>2020-10-12T12:42:44Z</time>
      </trkpt>
      <trkpt lat="38.2451940" lon="-1.0199130">
        <ele>294.9</ele>
        <time>2020-10-12T12:42:46Z</time>
      </trkpt>
      <trkpt lat="38.2452150" lon="-1.0201460">
        <ele>294.2</ele>
        <time>2020-10-12T12:42:48Z</time>
      </trkpt>
      <trkpt lat="38.2451510" lon="-1.0204790">
        <ele>293.2</ele>
        <time>2020-10-12T12:42:51Z</time>
      </trkpt>
      <trkpt lat="38.2451180" lon="-1.0207240">
        <ele>292.4</ele>
        <time>2020-10-12T12:42:53Z</time>
      </trkpt>
      <trkpt lat="38.2451610" lon="-1.0209860">
        <ele>291.6</ele>
        <time>2020-10-12T12:42:55Z</time>
      </trkpt>
      <trkpt lat="38.2452110" lon="-1.0212360">
        <ele>291.0</ele>
        <time>2020-10-12T12:42:57Z</time>
      </trkpt>
      <trkpt lat="38.2452310" lon="-1.0214920">
        <ele>290.4</ele>
        <time>2020-10-12T12:42:59Z</time>
      </trkpt>
      <trkpt lat="38.2452370" lon="-1.0217330">
        <ele>289.9</ele>
        <time>2020-10-12T12:43:01Z</time>
      </trkpt>
      <trkpt lat="38.2452370" lon="-1.0219750">
        <ele>289.6</ele>
        <time>2020-10-12T12:43:03Z</time>
      </trkpt>
      <trkpt lat="38.2452100" lon="-1.0222060">
        <ele>289.1</ele>
        <time>2020-10-12T12:43:05Z</time>
      </trkpt>
      <trkpt lat="38.2451210" lon="-1.0224210">
        <ele>288.8</ele>
        <time>2020-10-12T12:43:07Z</time>
      </trkpt>
      <trkpt lat="38.2449540" lon="-1.0226660">
        <ele>288.3</ele>
        <time>2020-10-12T12:43:10Z</time>
      </trkpt>
      <trkpt lat="38.2447290" lon="-1.0228510">
        <ele>287.4</ele>
        <time>2020-10-12T12:43:13Z</time>
      </trkpt>
      <trkpt lat="38.2445650" lon="-1.0229570">
        <ele>286.6</ele>
        <time>2020-10-12T12:43:15Z</time>
      </trkpt>
      <trkpt lat="38.2444060" lon="-1.0230880">
        <ele>285.4</ele>
        <time>2020-10-12T12:43:17Z</time>
      </trkpt>
      <trkpt lat="38.2442860" lon="-1.0232810">
        <ele>283.8</ele>
        <time>2020-10-12T12:43:19Z</time>
      </trkpt>
      <trkpt lat="38.2441960" lon="-1.0235170">
        <ele>282.1</ele>
        <time>2020-10-12T12:43:21Z</time>
      </trkpt>
      <trkpt lat="38.2441180" lon="-1.0237580">
        <ele>280.6</ele>
        <time>2020-10-12T12:43:23Z</time>
      </trkpt>
      <trkpt lat="38.2440800" lon="-1.0240240">
        <ele>279.3</ele>
        <time>2020-10-12T12:43:25Z</time>
      </trkpt>
      <trkpt lat="38.2440740" lon="-1.0243020">
        <ele>278.3</ele>
        <time>2020-10-12T12:43:27Z</time>
      </trkpt>
      <trkpt lat="38.2440110" lon="-1.0245560">
        <ele>278.1</ele>
        <time>2020-10-12T12:43:29Z</time>
      </trkpt>
      <trkpt lat="38.2439400" lon="-1.0247880">
        <ele>278.3</ele>
        <time>2020-10-12T12:43:31Z</time>
      </trkpt>
      <trkpt lat="38.2439580" lon="-1.0251120">
        <ele>279.2</ele>
        <time>2020-10-12T12:43:34Z</time>
      </trkpt>
      <trkpt lat="38.2440340" lon="-1.0253940">
        <ele>280.3</ele>
        <time>2020-10-12T12:43:37Z</time>
      </trkpt>
      <trkpt lat="38.2440990" lon="-1.0256740">
        <ele>281.2</ele>
        <time>2020-10-12T12:43:40Z</time>
      </trkpt>
      <trkpt lat="38.2441420" lon="-1.0259570">
        <ele>281.6</ele>
        <time>2020-10-12T12:43:43Z</time>
      </trkpt>
      <trkpt lat="38.2441230" lon="-1.0262440">
        <ele>281.2</ele>
        <time>2020-10-12T12:43:46Z</time>
      </trkpt>
      <trkpt lat="38.2440850" lon="-1.0265560">
        <ele>280.6</ele>
        <time>2020-10-12T12:43:49Z</time>
      </trkpt>
      <trkpt lat="38.2440180" lon="-1.0268770">
        <ele>280.0</ele>
        <time>2020-10-12T12:43:52Z</time>
      </trkpt>
      <trkpt lat="38.2439630" lon="-1.0271900">
        <ele>279.4</ele>
        <time>2020-10-12T12:43:55Z</time>
      </trkpt>
      <trkpt lat="38.2439030" lon="-1.0274950">
        <ele>278.8</ele>
        <time>2020-10-12T12:43:58Z</time>
      </trkpt>
      <trkpt lat="38.2438510" lon="-1.0277990">
        <ele>278.2</ele>
        <time>2020-10-12T12:44:01Z</time>
      </trkpt>
      <trkpt lat="38.2437980" lon="-1.0281070">
        <ele>277.7</ele>
        <time>2020-10-12T12:44:04Z</time>
      </trkpt>
      <trkpt lat="38.2437460" lon="-1.0284240">
        <ele>277.4</ele>
        <time>2020-10-12T12:44:07Z</time>
      </trkpt>
      <trkpt lat="38.2436930" lon="-1.0287530">
        <ele>277.1</ele>
        <time>2020-10-12T12:44:10Z</time>
      </trkpt>
      <trkpt lat="38.2436380" lon="-1.0290720">
        <ele>277.0</ele>
        <time>2020-10-12T12:44:13Z</time>
      </trkpt>
      <trkpt lat="38.2435810" lon="-1.0293630">
        <ele>277.0</ele>
        <time>2020-10-12T12:44:16Z</time>
      </trkpt>
      <trkpt lat="38.2435300" lon="-1.0296460">
        <ele>277.0</ele>
        <time>2020-10-12T12:44:19Z</time>
      </trkpt>
      <trkpt lat="38.2435170" lon="-1.0299330">
        <ele>276.7</ele>
        <time>2020-10-12T12:44:22Z</time>
      </trkpt>
      <trkpt lat="38.2435390" lon="-1.0302250">
        <ele>276.4</ele>
        <time>2020-10-12T12:44:25Z</time>
      </trkpt>
      <trkpt lat="38.2435670" lon="-1.0305300">
        <ele>276.0</ele>
        <time>2020-10-12T12:44:28Z</time>
      </trkpt>
      <trkpt lat="38.2435780" lon="-1.0308440">
        <ele>275.5</ele>
        <time>2020-10-12T12:44:31Z</time>
      </trkpt>
      <trkpt lat="38.2435960" lon="-1.0311540">
        <ele>275.1</ele>
        <time>2020-10-12T12:44:34Z</time>
      </trkpt>
      <trkpt lat="38.2436320" lon="-1.0314320">
        <ele>274.6</ele>
        <time>2020-10-12T12:44:37Z</time>
      </trkpt>
      <trkpt lat="38.2436550" lon="-1.0317330">
        <ele>273.8</ele>
        <time>2020-10-12T12:44:40Z</time>
      </trkpt>
      <trkpt lat="38.2437090" lon="-1.0320420">
        <ele>272.7</ele>
        <time>2020-10-12T12:44:43Z</time>
      </trkpt>
      <trkpt lat="38.2438160" lon="-1.0323240">
        <ele>271.5</ele>
        <time>2020-10-12T12:44:46Z</time>
      </trkpt>
      <trkpt lat="38.2439220" lon="-1.0326050">
        <ele>270.1</ele>
        <time>2020-10-12T12:44:49Z</time>
      </trkpt>
      <trkpt lat="38.2439870" lon="-1.0328980">
        <ele>268.5</ele>
        <time>2020-10-12T12:44:52Z</time>
      </trkpt>
      <trkpt lat="38.2439720" lon="-1.0332370">
        <ele>266.7</ele>
        <time>2020-10-12T12:44:55Z</time>
      </trkpt>
      <trkpt lat="38.2439040" lon="-1.0334650">
        <ele>265.4</ele>
        <time>2020-10-12T12:44:57Z</time>
      </trkpt>
      <trkpt lat="38.2438270" lon="-1.0337130">
        <ele>264.4</ele>
        <time>2020-10-12T12:44:59Z</time>
      </trkpt>
      <trkpt lat="38.2437660" lon="-1.0339670">
        <ele>263.6</ele>
        <time>2020-10-12T12:45:01Z</time>
      </trkpt>
      <trkpt lat="38.2437020" lon="-1.0342080">
        <ele>263.2</ele>
        <time>2020-10-12T12:45:03Z</time>
      </trkpt>
      <trkpt lat="38.2436550" lon="-1.0344410">
        <ele>262.8</ele>
        <time>2020-10-12T12:45:05Z</time>
      </trkpt>
      <trkpt lat="38.2435820" lon="-1.0347540">
        <ele>261.4</ele>
        <time>2020-10-12T12:45:08Z</time>
      </trkpt>
      <trkpt lat="38.2435030" lon="-1.0350700">
        <ele>259.5</ele>
        <time>2020-10-12T12:45:11Z</time>
      </trkpt>
      <trkpt lat="38.2434530" lon="-1.0353890">
        <ele>257.4</ele>
        <time>2020-10-12T12:45:14Z</time>
      </trkpt>
      <trkpt lat="38.2434220" lon="-1.0356310">
        <ele>255.9</ele>
        <time>2020-10-12T12:45:16Z</time>
      </trkpt>
      <trkpt lat="38.2433580" lon="-1.0358760">
        <ele>254.5</ele>
        <time>2020-10-12T12:45:18Z</time>
      </trkpt>
      <trkpt lat="38.2432320" lon="-1.0360930">
        <ele>253.4</ele>
        <time>2020-10-12T12:45:20Z</time>
      </trkpt>
      <trkpt lat="38.2430610" lon="-1.0362720">
        <ele>252.5</ele>
        <time>2020-10-12T12:45:22Z</time>
      </trkpt>
      <trkpt lat="38.2428830" lon="-1.0364310">
        <ele>252.1</ele>
        <time>2020-10-12T12:45:24Z</time>
      </trkpt>
      <trkpt lat="38.2427140" lon="-1.0365750">
        <ele>251.9</ele>
        <time>2020-10-12T12:45:26Z</time>
      </trkpt>
      <trkpt lat="38.2425500" lon="-1.0367070">
        <ele>251.7</ele>
        <time>2020-10-12T12:45:28Z</time>
      </trkpt>
      <trkpt lat="38.2423450" lon="-1.0369100">
        <ele>251.2</ele>
        <time>2020-10-12T12:45:31Z</time>
      </trkpt>
      <trkpt lat="38.2421730" lon="-1.0371470">
        <ele>250.6</ele>
        <time>2020-10-12T12:45:34Z</time>
      </trkpt>
      <trkpt lat="38.2420810" lon="-1.0373450">
        <ele>250.0</ele>
        <time>2020-10-12T12:45:36Z</time>
      </trkpt>
      <trkpt lat="38.2419910" lon="-1.0375440">
        <ele>249.5</ele>
        <time>2020-10-12T12:45:38Z</time>
      </trkpt>
      <trkpt lat="38.2419070" lon="-1.0377570">
        <ele>249.0</ele>
        <time>2020-10-12T12:45:40Z</time>
      </trkpt>
      <trkpt lat="38.2417720" lon="-1.0380460">
        <ele>248.4</ele>
        <time>2020-10-12T12:45:43Z</time>
      </trkpt>
      <trkpt lat="38.2416460" lon="-1.0383190">
        <ele>248.1</ele>
        <time>2020-10-12T12:45:46Z</time>
      </trkpt>
      <trkpt lat="38.2415200" lon="-1.0385780">
        <ele>247.8</ele>
        <time>2020-10-12T12:45:49Z</time>
      </trkpt>
      <trkpt lat="38.2413560" lon="-1.0388200">
        <ele>247.1</ele>
        <time>2020-10-12T12:45:52Z</time>
      </trkpt>
      <trkpt lat="38.2411770" lon="-1.0390140">
        <ele>246.3</ele>
        <time>2020-10-12T12:45:55Z</time>
      </trkpt>
      <trkpt lat="38.2409780" lon="-1.0391980">
        <ele>245.5</ele>
        <time>2020-10-12T12:45:58Z</time>
      </trkpt>
      <trkpt lat="38.2407700" lon="-1.0393630">
        <ele>244.7</ele>
        <time>2020-10-12T12:46:01Z</time>
      </trkpt>
      <trkpt lat="38.2405580" lon="-1.0395180">
        <ele>244.1</ele>
        <time>2020-10-12T12:46:04Z</time>
      </trkpt>
      <trkpt lat="38.2403560" lon="-1.0396620">
        <ele>243.8</ele>
        <time>2020-10-12T12:46:07Z</time>
      </trkpt>
      <trkpt lat="38.2401400" lon="-1.0398260">
        <ele>243.4</ele>
        <time>2020-10-12T12:46:10Z</time>
      </trkpt>
      <trkpt lat="38.2399330" lon="-1.0399780">
        <ele>243.1</ele>
        <time>2020-10-12T12:46:13Z</time>
      </trkpt>
      <trkpt lat="38.2397230" lon="-1.0401200">
        <ele>242.5</ele>
        <time>2020-10-12T12:46:16Z</time>
      </trkpt>
      <trkpt lat="38.2395090" lon="-1.0402140">
        <ele>242.0</ele>
        <time>2020-10-12T12:46:19Z</time>
      </trkpt>
      <trkpt lat="38.2392960" lon="-1.0403140">
        <ele>241.5</ele>
        <time>2020-10-12T12:46:22Z</time>
      </trkpt>
      <trkpt lat="38.2390950" lon="-1.0404080">
        <ele>241.0</ele>
        <time>2020-10-12T12:46:25Z</time>
      </trkpt>
      <trkpt lat="38.2388860" lon="-1.0405460">
        <ele>240.3</ele>
        <time>2020-10-12T12:46:28Z</time>
      </trkpt>
      <trkpt lat="38.2386730" lon="-1.0407150">
        <ele>240.1</ele>
        <time>2020-10-12T12:46:31Z</time>
      </trkpt>
      <trkpt lat="38.2384660" lon="-1.0408880">
        <ele>240.0</ele>
        <time>2020-10-12T12:46:34Z</time>
      </trkpt>
      <trkpt lat="38.2382670" lon="-1.0410680">
        <ele>240.1</ele>
        <time>2020-10-12T12:46:37Z</time>
      </trkpt>
      <trkpt lat="38.2380710" lon="-1.0412250">
        <ele>240.1</ele>
        <time>2020-10-12T12:46:40Z</time>
      </trkpt>
      <trkpt lat="38.2378610" lon="-1.0413610">
        <ele>240.1</ele>
        <time>2020-10-12T12:46:43Z</time>
      </trkpt>
      <trkpt lat="38.2376580" lon="-1.0414960">
        <ele>240.1</ele>
        <time>2020-10-12T12:46:46Z</time>
      </trkpt>
      <trkpt lat="38.2374550" lon="-1.0416370">
        <ele>240.1</ele>
        <time>2020-10-12T12:46:49Z</time>
      </trkpt>
      <trkpt lat="38.2372520" lon="-1.0417680">
        <ele>239.8</ele>
        <time>2020-10-12T12:46:52Z</time>
      </trkpt>
      <trkpt lat="38.2370520" lon="-1.0419070">
        <ele>239.4</ele>
        <time>2020-10-12T12:46:55Z</time>
      </trkpt>
      <trkpt lat="38.2368580" lon="-1.0420540">
        <ele>238.9</ele>
        <time>2020-10-12T12:46:58Z</time>
      </trkpt>
      <trkpt lat="38.2366560" lon="-1.0421940">
        <ele>238.3</ele>
        <time>2020-10-12T12:47:01Z</time>
      </trkpt>
      <trkpt lat="38.2364550" lon="-1.0422590">
        <ele>237.8</ele>
        <time>2020-10-12T12:47:04Z</time>
      </trkpt>
      <trkpt lat="38.2362300" lon="-1.0423550">
        <ele>237.0</ele>
        <time>2020-10-12T12:47:07Z</time>
      </trkpt>
      <trkpt lat="38.2360070" lon="-1.0425000">
        <ele>236.2</ele>
        <time>2020-10-12T12:47:10Z</time>
      </trkpt>
      <trkpt lat="38.2357970" lon="-1.0426460">
        <ele>235.5</ele>
        <time>2020-10-12T12:47:13Z</time>
      </trkpt>
      <trkpt lat="38.2355870" lon="-1.0427920">
        <ele>234.8</ele>
        <time>2020-10-12T12:47:16Z</time>
      </trkpt>
      <trkpt lat="38.2353850" lon="-1.0429490">
        <ele>233.9</ele>
        <time>2020-10-12T12:47:19Z</time>
      </trkpt>
      <trkpt lat="38.2351830" lon="-1.0430950">
        <ele>232.8</ele>
        <time>2020-10-12T12:47:22Z</time>
      </trkpt>
      <trkpt lat="38.2349770" lon="-1.0432790">
        <ele>232.0</ele>
        <time>2020-10-12T12:47:25Z</time>
      </trkpt>
      <trkpt lat="38.2347580" lon="-1.0434500">
        <ele>231.2</ele>
        <time>2020-10-12T12:47:28Z</time>
      </trkpt>
      <trkpt lat="38.2345420" lon="-1.0436030">
        <ele>230.3</ele>
        <time>2020-10-12T12:47:31Z</time>
      </trkpt>
      <trkpt lat="38.2343730" lon="-1.0437400">
        <ele>229.3</ele>
        <time>2020-10-12T12:47:34Z</time>
      </trkpt>
      <trkpt lat="38.2341880" lon="-1.0439680">
        <ele>228.0</ele>
        <time>2020-10-12T12:47:37Z</time>
      </trkpt>
      <trkpt lat="38.2340340" lon="-1.0442280">
        <ele>227.0</ele>
        <time>2020-10-12T12:47:40Z</time>
      </trkpt>
      <trkpt lat="38.2338840" lon="-1.0444810">
        <ele>226.4</ele>
        <time>2020-10-12T12:47:43Z</time>
      </trkpt>
      <trkpt lat="38.2337160" lon="-1.0447310">
        <ele>226.1</ele>
        <time>2020-10-12T12:47:46Z</time>
      </trkpt>
      <trkpt lat="38.2336160" lon="-1.0449230">
        <ele>226.0</ele>
        <time>2020-10-12T12:47:48Z</time>
      </trkpt>
      <trkpt lat="38.2335270" lon="-1.0451410">
        <ele>225.8</ele>
        <time>2020-10-12T12:47:50Z</time>
      </trkpt>
      <trkpt lat="38.2334600" lon="-1.0453600">
        <ele>225.5</ele>
        <time>2020-10-12T12:47:52Z</time>
      </trkpt>
      <trkpt lat="38.2333800" lon="-1.0456660">
        <ele>225.2</ele>
        <time>2020-10-12T12:47:55Z</time>
      </trkpt>
      <trkpt lat="38.2332860" lon="-1.0459800">
        <ele>224.9</ele>
        <time>2020-10-12T12:47:58Z</time>
      </trkpt>
      <trkpt lat="38.2332000" lon="-1.0462710">
        <ele>224.6</ele>
        <time>2020-10-12T12:48:01Z</time>
      </trkpt>
      <trkpt lat="38.2331310" lon="-1.0465470">
        <ele>224.3</ele>
        <time>2020-10-12T12:48:04Z</time>
      </trkpt>
      <trkpt lat="38.2330500" lon="-1.0468120">
        <ele>223.8</ele>
        <time>2020-10-12T12:48:07Z</time>
      </trkpt>
      <trkpt lat="38.2329630" lon="-1.0470680">
        <ele>223.2</ele>
        <time>2020-10-12T12:48:10Z</time>
      </trkpt>
      <trkpt lat="38.2328650" lon="-1.0473180">
        <ele>222.3</ele>
        <time>2020-10-12T12:48:13Z</time>
      </trkpt>
      <trkpt lat="38.2327690" lon="-1.0475860">
        <ele>221.5</ele>
        <time>2020-10-12T12:48:16Z</time>
      </trkpt>
      <trkpt lat="38.2326570" lon="-1.0478780">
        <ele>220.7</ele>
        <time>2020-10-12T12:48:19Z</time>
      </trkpt>
      <trkpt lat="38.2325470" lon="-1.0481830">
        <ele>220.3</ele>
        <time>2020-10-12T12:48:22Z</time>
      </trkpt>
      <trkpt lat="38.2324370" lon="-1.0484810">
        <ele>219.9</ele>
        <time>2020-10-12T12:48:25Z</time>
      </trkpt>
      <trkpt lat="38.2323270" lon="-1.0487790">
        <ele>219.2</ele>
        <time>2020-10-12T12:48:28Z</time>
      </trkpt>
      <trkpt lat="38.2322240" lon="-1.0490670">
        <ele>218.2</ele>
        <time>2020-10-12T12:48:31Z</time>
      </trkpt>
      <trkpt lat="38.2321280" lon="-1.0493550">
        <ele>217.1</ele>
        <time>2020-10-12T12:48:34Z</time>
      </trkpt>
      <trkpt lat="38.2320280" lon="-1.0496630">
        <ele>215.7</ele>
        <time>2020-10-12T12:48:37Z</time>
      </trkpt>
      <trkpt lat="38.2318970" lon="-1.0499580">
        <ele>213.9</ele>
        <time>2020-10-12T12:48:40Z</time>
      </trkpt>
      <trkpt lat="38.2317270" lon="-1.0501980">
        <ele>211.9</ele>
        <time>2020-10-12T12:48:43Z</time>
      </trkpt>
      <trkpt lat="38.2315190" lon="-1.0504120">
        <ele>209.7</ele>
        <time>2020-10-12T12:48:46Z</time>
      </trkpt>
      <trkpt lat="38.2313390" lon="-1.0505180">
        <ele>208.2</ele>
        <time>2020-10-12T12:48:48Z</time>
      </trkpt>
      <trkpt lat="38.2311410" lon="-1.0505890">
        <ele>206.5</ele>
        <time>2020-10-12T12:48:50Z</time>
      </trkpt>
      <trkpt lat="38.2309520" lon="-1.0506750">
        <ele>204.6</ele>
        <time>2020-10-12T12:48:52Z</time>
      </trkpt>
      <trkpt lat="38.2308170" lon="-1.0508640">
        <ele>202.6</ele>
        <time>2020-10-12T12:48:54Z</time>
      </trkpt>
      <trkpt lat="38.2307010" lon="-1.0510820">
        <ele>201.1</ele>
        <time>2020-10-12T12:48:56Z</time>
      </trkpt>
      <trkpt lat="38.2305710" lon="-1.0513210">
        <ele>199.7</ele>
        <time>2020-10-12T12:48:58Z</time>
      </trkpt>
      <trkpt lat="38.2304130" lon="-1.0515220">
        <ele>198.6</ele>
        <time>2020-10-12T12:49:00Z</time>
      </trkpt>
      <trkpt lat="38.2302030" lon="-1.0516230">
        <ele>198.2</ele>
        <time>2020-10-12T12:49:02Z</time>
      </trkpt>
      <trkpt lat="38.2299950" lon="-1.0516320">
        <ele>198.4</ele>
        <time>2020-10-12T12:49:04Z</time>
      </trkpt>
      <trkpt lat="38.2297970" lon="-1.0515770">
        <ele>199.1</ele>
        <time>2020-10-12T12:49:06Z</time>
      </trkpt>
      <trkpt lat="38.2296180" lon="-1.0514980">
        <ele>199.8</ele>
        <time>2020-10-12T12:49:08Z</time>
      </trkpt>
      <trkpt lat="38.2293950" lon="-1.0513380">
        <ele>200.5</ele>
        <time>2020-10-12T12:49:11Z</time>
      </trkpt>
      <trkpt lat="38.2292230" lon="-1.0511540">
        <ele>201.0</ele>
        <time>2020-10-12T12:49:14Z</time>
      </trkpt>
      <trkpt lat="38.2290580" lon="-1.0509680">
        <ele>201.4</ele>
        <time>2020-10-12T12:49:17Z</time>
      </trkpt>
      <trkpt lat="38.2289050" lon="-1.0507930">
        <ele>201.8</ele>
        <time>2020-10-12T12:49:20Z</time>
      </trkpt>
      <trkpt lat="38.2287570" lon="-1.0505950">
        <ele>202.1</ele>
        <time>2020-10-12T12:49:23Z</time>
      </trkpt>
      <trkpt lat="38.2286060" lon="-1.0504270">
        <ele>202.3</ele>
        <time>2020-10-12T12:49:26Z</time>
      </trkpt>
      <trkpt lat="38.2284560" lon="-1.0502570">
        <ele>202.6</ele>
        <time>2020-10-12T12:49:29Z</time>
      </trkpt>
      <trkpt lat="38.2283060" lon="-1.0501060">
        <ele>203.0</ele>
        <time>2020-10-12T12:49:32Z</time>
      </trkpt>
      <trkpt lat="38.2281450" lon="-1.0499830">
        <ele>203.4</ele>
        <time>2020-10-12T12:49:35Z</time>
      </trkpt>
      <trkpt lat="38.2279750" lon="-1.0498570">
        <ele>204.1</ele>
        <time>2020-10-12T12:49:38Z</time>
      </trkpt>
      <trkpt lat="38.2278250" lon="-1.0497260">
        <ele>205.0</ele>
        <time>2020-10-12T12:49:41Z</time>
      </trkpt>
      <trkpt lat="38.2276320" lon="-1.0495870">
        <ele>206.3</ele>
        <time>2020-10-12T12:49:45Z</time>
      </trkpt>
      <trkpt lat="38.2274140" lon="-1.0495870">
        <ele>207.5</ele>
        <time>2020-10-12T12:49:49Z</time>
      </trkpt>
      <trkpt lat="38.2272280" lon="-1.0496620">
        <ele>208.4</ele>
        <time>2020-10-12T12:49:53Z</time>
      </trkpt>
      <trkpt lat="38.2270420" lon="-1.0497050">
        <ele>209.3</ele>
        <time>2020-10-12T12:50:01Z</time>
      </trkpt>
      <trkpt lat="38.2268200" lon="-1.0497530">
        <ele>210.3</ele>
        <time>2020-10-12T12:50:07Z</time>
      </trkpt>
      <trkpt lat="38.2265750" lon="-1.0498240">
        <ele>211.2</ele>
        <time>2020-10-12T12:50:10Z</time>
      </trkpt>
      <trkpt lat="38.2263430" lon="-1.0498450">
        <ele>212.4</ele>
        <time>2020-10-12T12:50:15Z</time>
      </trkpt>
      <trkpt lat="38.2261410" lon="-1.0498300">
        <ele>213.1</ele>
        <time>2020-10-12T12:50:19Z</time>
      </trkpt>
      <trkpt lat="38.2259580" lon="-1.0496940">
        <ele>213.3</ele>
        <time>2020-10-12T12:50:23Z</time>
      </trkpt>
      <trkpt lat="38.2258140" lon="-1.0495150">
        <ele>213.1</ele>
        <time>2020-10-12T12:50:28Z</time>
      </trkpt>
      <trkpt lat="38.2256440" lon="-1.0492540">
        <ele>212.8</ele>
        <time>2020-10-12T12:50:31Z</time>
      </trkpt>
      <trkpt lat="38.2255140" lon="-1.0490250">
        <ele>212.5</ele>
        <time>2020-10-12T12:50:34Z</time>
      </trkpt>
      <trkpt lat="38.2254060" lon="-1.0488290">
        <ele>212.3</ele>
        <time>2020-10-12T12:50:37Z</time>
      </trkpt>
      <trkpt lat="38.2252620" lon="-1.0486760">
        <ele>212.2</ele>
        <time>2020-10-12T12:50:40Z</time>
      </trkpt>
      <trkpt lat="38.2250700" lon="-1.0486570">
        <ele>212.0</ele>
        <time>2020-10-12T12:50:43Z</time>
      </trkpt>
      <trkpt lat="38.2248830" lon="-1.0487310">
        <ele>212.0</ele>
        <time>2020-10-12T12:50:46Z</time>
      </trkpt>
      <trkpt lat="38.2247020" lon="-1.0487940">
        <ele>212.0</ele>
        <time>2020-10-12T12:50:49Z</time>
      </trkpt>
      <trkpt lat="38.2245240" lon="-1.0488410">
        <ele>212.0</ele>
        <time>2020-10-12T12:50:52Z</time>
      </trkpt>
      <trkpt lat="38.2243210" lon="-1.0488420">
        <ele>211.9</ele>
        <time>2020-10-12T12:50:55Z</time>
      </trkpt>
      <trkpt lat="38.2241220" lon="-1.0488190">
        <ele>211.8</ele>
        <time>2020-10-12T12:50:58Z</time>
      </trkpt>
      <trkpt lat="38.2239290" lon="-1.0487970">
        <ele>211.7</ele>
        <time>2020-10-12T12:51:01Z</time>
      </trkpt>
      <trkpt lat="38.2237310" lon="-1.0487690">
        <ele>211.5</ele>
        <time>2020-10-12T12:51:04Z</time>
      </trkpt>
      <trkpt lat="38.2235270" lon="-1.0487660">
        <ele>211.2</ele>
        <time>2020-10-12T12:51:07Z</time>
      </trkpt>
      <trkpt lat="38.2233150" lon="-1.0487740">
        <ele>210.9</ele>
        <time>2020-10-12T12:51:10Z</time>
      </trkpt>
      <trkpt lat="38.2231170" lon="-1.0488260">
        <ele>210.4</ele>
        <time>2020-10-12T12:51:13Z</time>
      </trkpt>
      <trkpt lat="38.2229340" lon="-1.0489040">
        <ele>209.9</ele>
        <time>2020-10-12T12:51:16Z</time>
      </trkpt>
      <trkpt lat="38.2227600" lon="-1.0490410">
        <ele>209.0</ele>
        <time>2020-10-12T12:51:19Z</time>
      </trkpt>
      <trkpt lat="38.2225920" lon="-1.0491990">
        <ele>207.8</ele>
        <time>2020-10-12T12:51:22Z</time>
      </trkpt>
      <trkpt lat="38.2223940" lon="-1.0493770">
        <ele>206.1</ele>
        <time>2020-10-12T12:51:25Z</time>
      </trkpt>
      <trkpt lat="38.2221770" lon="-1.0495250">
        <ele>204.2</ele>
        <time>2020-10-12T12:51:28Z</time>
      </trkpt>
      <trkpt lat="38.2219140" lon="-1.0496010">
        <ele>202.0</ele>
        <time>2020-10-12T12:51:31Z</time>
      </trkpt>
      <trkpt lat="38.2216850" lon="-1.0497720">
        <ele>199.5</ele>
        <time>2020-10-12T12:51:34Z</time>
      </trkpt>
      <trkpt lat="38.2216150" lon="-1.0500370">
        <ele>197.4</ele>
        <time>2020-10-12T12:51:36Z</time>
      </trkpt>
      <trkpt lat="38.2215110" lon="-1.0503070">
        <ele>195.5</ele>
        <time>2020-10-12T12:51:38Z</time>
      </trkpt>
      <trkpt lat="38.2213380" lon="-1.0504950">
        <ele>193.9</ele>
        <time>2020-10-12T12:51:40Z</time>
      </trkpt>
      <trkpt lat="38.2211300" lon="-1.0506020">
        <ele>192.4</ele>
        <time>2020-10-12T12:51:42Z</time>
      </trkpt>
      <trkpt lat="38.2209330" lon="-1.0507160">
        <ele>191.0</ele>
        <time>2020-10-12T12:51:44Z</time>
      </trkpt>
      <trkpt lat="38.2207640" lon="-1.0508520">
        <ele>189.8</ele>
        <time>2020-10-12T12:51:46Z</time>
      </trkpt>
      <trkpt lat="38.2206180" lon="-1.0510260">
        <ele>188.7</ele>
        <time>2020-10-12T12:51:48Z</time>
      </trkpt>
      <trkpt lat="38.2204420" lon="-1.0511360">
        <ele>188.0</ele>
        <time>2020-10-12T12:51:50Z</time>
      </trkpt>
      <trkpt lat="38.2202440" lon="-1.0511210">
        <ele>187.7</ele>
        <time>2020-10-12T12:51:52Z</time>
      </trkpt>
      <trkpt lat="38.2200490" lon="-1.0510310">
        <ele>188.5</ele>
        <time>2020-10-12T12:51:54Z</time>
      </trkpt>
      <trkpt lat="38.2197860" lon="-1.0510290">
        <ele>190.1</ele>
        <time>2020-10-12T12:51:57Z</time>
      </trkpt>
      <trkpt lat="38.2195610" lon="-1.0510640">
        <ele>191.9</ele>
        <time>2020-10-12T12:52:00Z</time>
      </trkpt>
      <trkpt lat="38.2193630" lon="-1.0510370">
        <ele>193.9</ele>
        <time>2020-10-12T12:52:03Z</time>
      </trkpt>
      <trkpt lat="38.2192100" lon="-1.0508210">
        <ele>196.1</ele>
        <time>2020-10-12T12:52:07Z</time>
      </trkpt>
      <trkpt lat="38.2192060" lon="-1.0505400">
        <ele>197.4</ele>
        <time>2020-10-12T12:52:11Z</time>
      </trkpt>
      <trkpt lat="38.2192680" lon="-1.0502950">
        <ele>198.6</ele>
        <time>2020-10-12T12:52:15Z</time>
      </trkpt>
      <trkpt lat="38.2193270" lon="-1.0500700">
        <ele>200.0</ele>
        <time>2020-10-12T12:52:19Z</time>
      </trkpt>
      <trkpt lat="38.2193510" lon="-1.0498190">
        <ele>201.2</ele>
        <time>2020-10-12T12:52:23Z</time>
      </trkpt>
      <trkpt lat="38.2192090" lon="-1.0496130">
        <ele>201.9</ele>
        <time>2020-10-12T12:52:27Z</time>
      </trkpt>
      <trkpt lat="38.2190410" lon="-1.0495270">
        <ele>202.5</ele>
        <time>2020-10-12T12:52:30Z</time>
      </trkpt>
      <trkpt lat="38.2188500" lon="-1.0494380">
        <ele>203.3</ele>
        <time>2020-10-12T12:52:34Z</time>
      </trkpt>
      <trkpt lat="38.2186810" lon="-1.0493550">
        <ele>204.1</ele>
        <time>2020-10-12T12:52:39Z</time>
      </trkpt>
      <trkpt lat="38.2184680" lon="-1.0492750">
        <ele>205.0</ele>
        <time>2020-10-12T12:52:47Z</time>
      </trkpt>
      <trkpt lat="38.2182890" lon="-1.0492200">
        <ele>205.3</ele>
        <time>2020-10-12T12:52:49Z</time>
      </trkpt>
      <trkpt lat="38.2180670" lon="-1.0491380">
        <ele>204.8</ele>
        <time>2020-10-12T12:52:52Z</time>
      </trkpt>
      <trkpt lat="38.2179050" lon="-1.0490230">
        <ele>204.1</ele>
        <time>2020-10-12T12:52:55Z</time>
      </trkpt>
      <trkpt lat="38.2176750" lon="-1.0488530">
        <ele>203.1</ele>
        <time>2020-10-12T12:52:59Z</time>
      </trkpt>
      <trkpt lat="38.2174660" lon="-1.0486590">
        <ele>202.2</ele>
        <time>2020-10-12T12:53:02Z</time>
      </trkpt>
      <trkpt lat="38.2172540" lon="-1.0485510">
        <ele>202.0</ele>
        <time>2020-10-12T12:53:05Z</time>
      </trkpt>
      <trkpt lat="38.2170570" lon="-1.0484360">
        <ele>202.1</ele>
        <time>2020-10-12T12:53:08Z</time>
      </trkpt>
      <trkpt lat="38.2168860" lon="-1.0482790">
        <ele>202.2</ele>
        <time>2020-10-12T12:53:11Z</time>
      </trkpt>
      <trkpt lat="38.2167490" lon="-1.0481130">
        <ele>202.2</ele>
        <time>2020-10-12T12:53:14Z</time>
      </trkpt>
      <trkpt lat="38.2165900" lon="-1.0479400">
        <ele>202.1</ele>
        <time>2020-10-12T12:53:17Z</time>
      </trkpt>
      <trkpt lat="38.2163870" lon="-1.0478300">
        <ele>201.9</ele>
        <time>2020-10-12T12:53:20Z</time>
      </trkpt>
      <trkpt lat="38.2161660" lon="-1.0478320">
        <ele>202.0</ele>
        <time>2020-10-12T12:53:23Z</time>
      </trkpt>
      <trkpt lat="38.2159600" lon="-1.0478220">
        <ele>202.2</ele>
        <time>2020-10-12T12:53:26Z</time>
      </trkpt>
      <trkpt lat="38.2157660" lon="-1.0478340">
        <ele>202.5</ele>
        <time>2020-10-12T12:53:29Z</time>
      </trkpt>
      <trkpt lat="38.2155850" lon="-1.0478190">
        <ele>202.8</ele>
        <time>2020-10-12T12:53:32Z</time>
      </trkpt>
      <trkpt lat="38.2154000" lon="-1.0477740">
        <ele>202.6</ele>
        <time>2020-10-12T12:53:35Z</time>
      </trkpt>
      <trkpt lat="38.2151980" lon="-1.0476110">
        <ele>201.4</ele>
        <time>2020-10-12T12:53:39Z</time>
      </trkpt>
      <trkpt lat="38.2151360" lon="-1.0473560">
        <ele>199.9</ele>
        <time>2020-10-12T12:53:42Z</time>
      </trkpt>
      <trkpt lat="38.2151550" lon="-1.0470460">
        <ele>198.3</ele>
        <time>2020-10-12T12:53:45Z</time>
      </trkpt>
      <trkpt lat="38.2151900" lon="-1.0467160">
        <ele>196.8</ele>
        <time>2020-10-12T12:53:48Z</time>
      </trkpt>
      <trkpt lat="38.2152510" lon="-1.0464800">
        <ele>196.1</ele>
        <time>2020-10-12T12:53:50Z</time>
      </trkpt>
      <trkpt lat="38.2152810" lon="-1.0462310">
        <ele>195.8</ele>
        <time>2020-10-12T12:53:52Z</time>
      </trkpt>
      <trkpt lat="38.2152270" lon="-1.0460000">
        <ele>195.9</ele>
        <time>2020-10-12T12:53:54Z</time>
      </trkpt>
      <trkpt lat="38.2151520" lon="-1.0457900">
        <ele>196.2</ele>
        <time>2020-10-12T12:53:56Z</time>
      </trkpt>
      <trkpt lat="38.2149890" lon="-1.0455240">
        <ele>196.8</ele>
        <time>2020-10-12T12:53:59Z</time>
      </trkpt>
      <trkpt lat="38.2147660" lon="-1.0454970">
        <ele>197.3</ele>
        <time>2020-10-12T12:54:02Z</time>
      </trkpt>
      <trkpt lat="38.2146730" lon="-1.0457740">
        <ele>198.3</ele>
        <time>2020-10-12T12:54:05Z</time>
      </trkpt>
      <trkpt lat="38.2146160" lon="-1.0460220">
        <ele>199.2</ele>
        <time>2020-10-12T12:54:08Z</time>
      </trkpt>
      <trkpt lat="38.2144330" lon="-1.0461000">
        <ele>199.4</ele>
        <time>2020-10-12T12:54:11Z</time>
      </trkpt>
      <trkpt lat="38.2142390" lon="-1.0460880">
        <ele>199.9</ele>
        <time>2020-10-12T12:54:14Z</time>
      </trkpt>
      <trkpt lat="38.2140400" lon="-1.0461390">
        <ele>200.6</ele>
        <time>2020-10-12T12:54:17Z</time>
      </trkpt>
      <trkpt lat="38.2138690" lon="-1.0462630">
        <ele>201.4</ele>
        <time>2020-10-12T12:54:20Z</time>
      </trkpt>
      <trkpt lat="38.2137370" lon="-1.0464870">
        <ele>202.2</ele>
        <time>2020-10-12T12:54:24Z</time>
      </trkpt>
      <trkpt lat="38.2135640" lon="-1.0466460">
        <ele>202.9</ele>
        <time>2020-10-12T12:54:28Z</time>
      </trkpt>
      <trkpt lat="38.2133420" lon="-1.0466230">
        <ele>203.3</ele>
        <time>2020-10-12T12:54:33Z</time>
      </trkpt>
      <trkpt lat="38.2131410" lon="-1.0466040">
        <ele>203.7</ele>
        <time>2020-10-12T12:54:37Z</time>
      </trkpt>
      <trkpt lat="38.2129590" lon="-1.0465700">
        <ele>204.1</ele>
        <time>2020-10-12T12:54:42Z</time>
      </trkpt>
      <trkpt lat="38.2127670" lon="-1.0465540">
        <ele>204.6</ele>
        <time>2020-10-12T12:54:47Z</time>
      </trkpt>
      <trkpt lat="38.2125430" lon="-1.0465980">
        <ele>205.2</ele>
        <time>2020-10-12T12:54:52Z</time>
      </trkpt>
      <trkpt lat="38.2123480" lon="-1.0466330">
        <ele>205.5</ele>
        <time>2020-10-12T12:54:55Z</time>
      </trkpt>
      <trkpt lat="38.2121370" lon="-1.0466620">
        <ele>206.0</ele>
        <time>2020-10-12T12:54:58Z</time>
      </trkpt>
      <trkpt lat="38.2119270" lon="-1.0466930">
        <ele>206.4</ele>
        <time>2020-10-12T12:55:01Z</time>
      </trkpt>
      <trkpt lat="38.2117430" lon="-1.0467130">
        <ele>206.7</ele>
        <time>2020-10-12T12:55:04Z</time>
      </trkpt>
      <trkpt lat="38.2115440" lon="-1.0467410">
        <ele>206.9</ele>
        <time>2020-10-12T12:55:07Z</time>
      </trkpt>
      <trkpt lat="38.2113080" lon="-1.0467520">
        <ele>207.2</ele>
        <time>2020-10-12T12:55:11Z</time>
      </trkpt>
      <trkpt lat="38.2110840" lon="-1.0466920">
        <ele>207.5</ele>
        <time>2020-10-12T12:55:15Z</time>
      </trkpt>
      <trkpt lat="38.2108590" lon="-1.0466000">
        <ele>207.9</ele>
        <time>2020-10-12T12:55:19Z</time>
      </trkpt>
      <trkpt lat="38.2106760" lon="-1.0465250">
        <ele>208.4</ele>
        <time>2020-10-12T12:55:25Z</time>
      </trkpt>
      <trkpt lat="38.2104530" lon="-1.0464630">
        <ele>209.2</ele>
        <time>2020-10-12T12:55:29Z</time>
      </trkpt>
      <trkpt lat="38.2102740" lon="-1.0463770">
        <ele>209.7</ele>
        <time>2020-10-12T12:55:31Z</time>
      </trkpt>
      <trkpt lat="38.2100870" lon="-1.0462600">
        <ele>209.9</ele>
        <time>2020-10-12T12:55:34Z</time>
      </trkpt>
      <trkpt lat="38.2099390" lon="-1.0461110">
        <ele>210.1</ele>
        <time>2020-10-12T12:55:37Z</time>
      </trkpt>
      <trkpt lat="38.2098150" lon="-1.0459380">
        <ele>210.4</ele>
        <time>2020-10-12T12:55:40Z</time>
      </trkpt>
      <trkpt lat="38.2096890" lon="-1.0457330">
        <ele>211.2</ele>
        <time>2020-10-12T12:55:43Z</time>
      </trkpt>
      <trkpt lat="38.2095310" lon="-1.0455890">
        <ele>212.4</ele>
        <time>2020-10-12T12:55:46Z</time>
      </trkpt>
      <trkpt lat="38.2093180" lon="-1.0456520">
        <ele>213.8</ele>
        <time>2020-10-12T12:55:50Z</time>
      </trkpt>
      <trkpt lat="38.2091680" lon="-1.0458480">
        <ele>215.1</ele>
        <time>2020-10-12T12:55:54Z</time>
      </trkpt>
      <trkpt lat="38.2090050" lon="-1.0459910">
        <ele>216.4</ele>
        <time>2020-10-12T12:56:01Z</time>
      </trkpt>
      <trkpt lat="38.2088200" lon="-1.0459940">
        <ele>217.3</ele>
        <time>2020-10-12T12:56:06Z</time>
      </trkpt>
      <trkpt lat="38.2086630" lon="-1.0458640">
        <ele>217.9</ele>
        <time>2020-10-12T12:56:10Z</time>
      </trkpt>
      <trkpt lat="38.2084990" lon="-1.0456140">
        <ele>217.7</ele>
        <time>2020-10-12T12:56:15Z</time>
      </trkpt>
      <trkpt lat="38.2084020" lon="-1.0454090">
        <ele>216.9</ele>
        <time>2020-10-12T12:56:18Z</time>
      </trkpt>
      <trkpt lat="38.2082880" lon="-1.0452200">
        <ele>215.7</ele>
        <time>2020-10-12T12:56:21Z</time>
      </trkpt>
      <trkpt lat="38.2081340" lon="-1.0450180">
        <ele>214.4</ele>
        <time>2020-10-12T12:56:24Z</time>
      </trkpt>
      <trkpt lat="38.2079600" lon="-1.0447880">
        <ele>213.2</ele>
        <time>2020-10-12T12:56:27Z</time>
      </trkpt>
      <trkpt lat="38.2077800" lon="-1.0445530">
        <ele>212.2</ele>
        <time>2020-10-12T12:56:30Z</time>
      </trkpt>
      <trkpt lat="38.2076480" lon="-1.0443930">
        <ele>212.1</ele>
        <time>2020-10-12T12:56:32Z</time>
      </trkpt>
      <trkpt lat="38.2074660" lon="-1.0441550">
        <ele>212.5</ele>
        <time>2020-10-12T12:56:35Z</time>
      </trkpt>
      <trkpt lat="38.2073010" lon="-1.0439560">
        <ele>213.0</ele>
        <time>2020-10-12T12:56:38Z</time>
      </trkpt>
      <trkpt lat="38.2070980" lon="-1.0439180">
        <ele>213.5</ele>
        <time>2020-10-12T12:56:41Z</time>
      </trkpt>
      <trkpt lat="38.2069040" lon="-1.0439100">
        <ele>213.2</ele>
        <time>2020-10-12T12:56:44Z</time>
      </trkpt>
      <trkpt lat="38.2067050" lon="-1.0438930">
        <ele>212.9</ele>
        <time>2020-10-12T12:56:47Z</time>
      </trkpt>
      <trkpt lat="38.2064970" lon="-1.0438240">
        <ele>212.5</ele>
        <time>2020-10-12T12:56:50Z</time>
      </trkpt>
      <trkpt lat="38.2063030" lon="-1.0437440">
        <ele>212.3</ele>
        <time>2020-10-12T12:56:53Z</time>
      </trkpt>
      <trkpt lat="38.2061200" lon="-1.0437090">
        <ele>212.3</ele>
        <time>2020-10-12T12:56:59Z</time>
      </trkpt>
      <trkpt lat="38.2059850" lon="-1.0438700">
        <ele>211.7</ele>
        <time>2020-10-12T12:57:02Z</time>
      </trkpt>
      <trkpt lat="38.2058080" lon="-1.0440280">
        <ele>210.8</ele>
        <time>2020-10-12T12:57:06Z</time>
      </trkpt>
      <trkpt lat="38.2056250" lon="-1.0441400">
        <ele>209.6</ele>
        <time>2020-10-12T12:57:09Z</time>
      </trkpt>
      <trkpt lat="38.2054000" lon="-1.0442340">
        <ele>207.9</ele>
        <time>2020-10-12T12:57:12Z</time>
      </trkpt>
      <trkpt lat="38.2052090" lon="-1.0443840">
        <ele>206.1</ele>
        <time>2020-10-12T12:57:15Z</time>
      </trkpt>
      <trkpt lat="38.2051040" lon="-1.0446480">
        <ele>204.1</ele>
        <time>2020-10-12T12:57:18Z</time>
      </trkpt>
      <trkpt lat="38.2050210" lon="-1.0449880">
        <ele>201.3</ele>
        <time>2020-10-12T12:57:21Z</time>
      </trkpt>
      <trkpt lat="38.2049820" lon="-1.0452440">
        <ele>199.5</ele>
        <time>2020-10-12T12:57:23Z</time>
      </trkpt>
      <trkpt lat="38.2049620" lon="-1.0455240">
        <ele>197.5</ele>
        <time>2020-10-12T12:57:25Z</time>
      </trkpt>
      <trkpt lat="38.2049710" lon="-1.0457980">
        <ele>195.5</ele>
        <time>2020-10-12T12:57:27Z</time>
      </trkpt>
      <trkpt lat="38.2049850" lon="-1.0460730">
        <ele>193.6</ele>
        <time>2020-10-12T12:57:29Z</time>
      </trkpt>
      <trkpt lat="38.2049890" lon="-1.0463470">
        <ele>192.0</ele>
        <time>2020-10-12T12:57:31Z</time>
      </trkpt>
      <trkpt lat="38.2049720" lon="-1.0466380">
        <ele>190.4</ele>
        <time>2020-10-12T12:57:33Z</time>
      </trkpt>
      <trkpt lat="38.2049260" lon="-1.0469200">
        <ele>189.2</ele>
        <time>2020-10-12T12:57:35Z</time>
      </trkpt>
      <trkpt lat="38.2048530" lon="-1.0471600">
        <ele>188.4</ele>
        <time>2020-10-12T12:57:37Z</time>
      </trkpt>
      <trkpt lat="38.2047610" lon="-1.0473610">
        <ele>187.7</ele>
        <time>2020-10-12T12:57:39Z</time>
      </trkpt>
      <trkpt lat="38.2046810" lon="-1.0475680">
        <ele>187.1</ele>
        <time>2020-10-12T12:57:41Z</time>
      </trkpt>
      <trkpt lat="38.2045840" lon="-1.0478640">
        <ele>186.8</ele>
        <time>2020-10-12T12:57:44Z</time>
      </trkpt>
      <trkpt lat="38.2045250" lon="-1.0481500">
        <ele>187.1</ele>
        <time>2020-10-12T12:57:47Z</time>
      </trkpt>
      <trkpt lat="38.2045080" lon="-1.0484420">
        <ele>187.4</ele>
        <time>2020-10-12T12:57:50Z</time>
      </trkpt>
      <trkpt lat="38.2045580" lon="-1.0486930">
        <ele>187.8</ele>
        <time>2020-10-12T12:57:53Z</time>
      </trkpt>
      <trkpt lat="38.2047050" lon="-1.0488550">
        <ele>188.4</ele>
        <time>2020-10-12T12:57:56Z</time>
      </trkpt>
      <trkpt lat="38.2048950" lon="-1.0489400">
        <ele>188.8</ele>
        <time>2020-10-12T12:57:59Z</time>
      </trkpt>
      <trkpt lat="38.2050390" lon="-1.0490910">
        <ele>189.0</ele>
        <time>2020-10-12T12:58:02Z</time>
      </trkpt>
      <trkpt lat="38.2050750" lon="-1.0493630">
        <ele>189.6</ele>
        <time>2020-10-12T12:58:06Z</time>
      </trkpt>
      <trkpt lat="38.2050110" lon="-1.0496040">
        <ele>188.8</ele>
        <time>2020-10-12T12:58:13Z</time>
      </trkpt>
      <trkpt lat="38.2049760" lon="-1.0498520">
        <ele>187.8</ele>
        <time>2020-10-12T13:00:25Z</time>
      </trkpt>
      <trkpt lat="38.2049460" lon="-1.0501390">
        <ele>186.9</ele>
        <time>2020-10-12T13:00:29Z</time>
      </trkpt>
      <trkpt lat="38.2049200" lon="-1.0504020">
        <ele>186.0</ele>
        <time>2020-10-12T13:00:32Z</time>
      </trkpt>
      <trkpt lat="38.2048860" lon="-1.0506840">
        <ele>185.0</ele>
        <time>2020-10-12T13:00:35Z</time>
      </trkpt>
      <trkpt lat="38.2048060" lon="-1.0509780">
        <ele>184.2</ele>
        <time>2020-10-12T13:00:38Z</time>
      </trkpt>
      <trkpt lat="38.2047110" lon="-1.0512470">
        <ele>183.6</ele>
        <time>2020-10-12T13:00:41Z</time>
      </trkpt>
      <trkpt lat="38.2045840" lon="-1.0514930">
        <ele>183.2</ele>
        <time>2020-10-12T13:00:44Z</time>
      </trkpt>
      <trkpt lat="38.2045360" lon="-1.0515620">
        <ele>183.0</ele>
        <time>2020-10-12T13:00:45Z</time>
      </trkpt>
      <trkpt lat="38.2043430" lon="-1.0518380">
        <ele>182.7</ele>
        <time>2020-10-12T13:00:49Z</time>
      </trkpt>
      <trkpt lat="38.2041950" lon="-1.0519900">
        <ele>182.3</ele>
        <time>2020-10-12T13:00:51Z</time>
      </trkpt>
      <trkpt lat="38.2039920" lon="-1.0521540">
        <ele>182.0</ele>
        <time>2020-10-12T13:00:54Z</time>
      </trkpt>
      <trkpt lat="38.2037610" lon="-1.0522780">
        <ele>181.8</ele>
        <time>2020-10-12T13:00:57Z</time>
      </trkpt>
      <trkpt lat="38.2035460" lon="-1.0523800">
        <ele>181.6</ele>
        <time>2020-10-12T13:01:00Z</time>
      </trkpt>
      <trkpt lat="38.2033320" lon="-1.0524890">
        <ele>181.4</ele>
        <time>2020-10-12T13:01:03Z</time>
      </trkpt>
      <trkpt lat="38.2031240" lon="-1.0526320">
        <ele>181.2</ele>
        <time>2020-10-12T13:01:06Z</time>
      </trkpt>
      <trkpt lat="38.2029220" lon="-1.0528150">
        <ele>180.9</ele>
        <time>2020-10-12T13:01:09Z</time>
      </trkpt>
      <trkpt lat="38.2027350" lon="-1.0530010">
        <ele>180.4</ele>
        <time>2020-10-12T13:01:12Z</time>
      </trkpt>
      <trkpt lat="38.2025660" lon="-1.0532030">
        <ele>179.7</ele>
        <time>2020-10-12T13:01:15Z</time>
      </trkpt>
      <trkpt lat="38.2023990" lon="-1.0534110">
        <ele>178.9</ele>
        <time>2020-10-12T13:01:18Z</time>
      </trkpt>
      <trkpt lat="38.2022210" lon="-1.0536270">
        <ele>177.8</ele>
        <time>2020-10-12T13:01:21Z</time>
      </trkpt>
      <trkpt lat="38.2020280" lon="-1.0538440">
        <ele>176.3</ele>
        <time>2020-10-12T13:01:24Z</time>
      </trkpt>
      <trkpt lat="38.2018290" lon="-1.0540880">
        <ele>174.5</ele>
        <time>2020-10-12T13:01:27Z</time>
      </trkpt>
      <trkpt lat="38.2016840" lon="-1.0542610">
        <ele>173.1</ele>
        <time>2020-10-12T13:01:29Z</time>
      </trkpt>
      <trkpt lat="38.2015380" lon="-1.0544400">
        <ele>172.3</ele>
        <time>2020-10-12T13:01:31Z</time>
      </trkpt>
      <trkpt lat="38.2013800" lon="-1.0546250">
        <ele>170.5</ele>
        <time>2020-10-12T13:01:33Z</time>
      </trkpt>
      <trkpt lat="38.2012220" lon="-1.0548080">
        <ele>168.6</ele>
        <time>2020-10-12T13:01:35Z</time>
      </trkpt>
      <trkpt lat="38.2010570" lon="-1.0549980">
        <ele>166.6</ele>
        <time>2020-10-12T13:01:37Z</time>
      </trkpt>
      <trkpt lat="38.2008890" lon="-1.0552140">
        <ele>164.4</ele>
        <time>2020-10-12T13:01:39Z</time>
      </trkpt>
      <trkpt lat="38.2007310" lon="-1.0554450">
        <ele>162.2</ele>
        <time>2020-10-12T13:01:41Z</time>
      </trkpt>
      <trkpt lat="38.2005990" lon="-1.0557070">
        <ele>160.1</ele>
        <time>2020-10-12T13:01:43Z</time>
      </trkpt>
      <trkpt lat="38.2004790" lon="-1.0559940">
        <ele>158.2</ele>
        <time>2020-10-12T13:01:45Z</time>
      </trkpt>
      <trkpt lat="38.2003770" lon="-1.0562780">
        <ele>156.9</ele>
        <time>2020-10-12T13:01:47Z</time>
      </trkpt>
      <trkpt lat="38.2002890" lon="-1.0565530">
        <ele>156.1</ele>
        <time>2020-10-12T13:01:49Z</time>
      </trkpt>
      <trkpt lat="38.2002090" lon="-1.0568230">
        <ele>155.5</ele>
        <time>2020-10-12T13:01:51Z</time>
      </trkpt>
      <trkpt lat="38.2001390" lon="-1.0570760">
        <ele>155.0</ele>
        <time>2020-10-12T13:01:53Z</time>
      </trkpt>
      <trkpt lat="38.2000760" lon="-1.0573310">
        <ele>154.5</ele>
        <time>2020-10-12T13:01:55Z</time>
      </trkpt>
      <trkpt lat="38.2000150" lon="-1.0575760">
        <ele>154.2</ele>
        <time>2020-10-12T13:01:57Z</time>
      </trkpt>
      <trkpt lat="38.1999710" lon="-1.0578050">
        <ele>154.2</ele>
        <time>2020-10-12T13:01:59Z</time>
      </trkpt>
      <trkpt lat="38.1999430" lon="-1.0580310">
        <ele>154.6</ele>
        <time>2020-10-12T13:02:01Z</time>
      </trkpt>
      <trkpt lat="38.1999050" lon="-1.0583510">
        <ele>155.5</ele>
        <time>2020-10-12T13:02:04Z</time>
      </trkpt>
      <trkpt lat="38.1998760" lon="-1.0586370">
        <ele>156.0</ele>
        <time>2020-10-12T13:02:07Z</time>
      </trkpt>
      <trkpt lat="38.1998300" lon="-1.0589060">
        <ele>156.6</ele>
        <time>2020-10-12T13:02:10Z</time>
      </trkpt>
      <trkpt lat="38.1997890" lon="-1.0591770">
        <ele>157.5</ele>
        <time>2020-10-12T13:02:13Z</time>
      </trkpt>
      <trkpt lat="38.1997260" lon="-1.0594400">
        <ele>158.3</ele>
        <time>2020-10-12T13:02:16Z</time>
      </trkpt>
      <trkpt lat="38.1996580" lon="-1.0597160">
        <ele>159.2</ele>
        <time>2020-10-12T13:02:19Z</time>
      </trkpt>
      <trkpt lat="38.1995820" lon="-1.0599640">
        <ele>160.0</ele>
        <time>2020-10-12T13:02:22Z</time>
      </trkpt>
      <trkpt lat="38.1994990" lon="-1.0602010">
        <ele>160.6</ele>
        <time>2020-10-12T13:02:25Z</time>
      </trkpt>
      <trkpt lat="38.1994260" lon="-1.0604380">
        <ele>161.4</ele>
        <time>2020-10-12T13:02:28Z</time>
      </trkpt>
      <trkpt lat="38.1993580" lon="-1.0606620">
        <ele>162.1</ele>
        <time>2020-10-12T13:02:31Z</time>
      </trkpt>
      <trkpt lat="38.1992980" lon="-1.0608830">
        <ele>162.8</ele>
        <time>2020-10-12T13:02:34Z</time>
      </trkpt>
      <trkpt lat="38.1992250" lon="-1.0611650">
        <ele>163.4</ele>
        <time>2020-10-12T13:02:38Z</time>
      </trkpt>
      <trkpt lat="38.1991940" lon="-1.0613990">
        <ele>163.8</ele>
        <time>2020-10-12T13:02:41Z</time>
      </trkpt>
      <trkpt lat="38.1991820" lon="-1.0616470">
        <ele>163.7</ele>
        <time>2020-10-12T13:02:44Z</time>
      </trkpt>
      <trkpt lat="38.1991770" lon="-1.0618920">
        <ele>163.6</ele>
        <time>2020-10-12T13:02:47Z</time>
      </trkpt>
      <trkpt lat="38.1991780" lon="-1.0621300">
        <ele>163.5</ele>
        <time>2020-10-12T13:02:50Z</time>
      </trkpt>
      <trkpt lat="38.1991920" lon="-1.0623740">
        <ele>163.3</ele>
        <time>2020-10-12T13:02:53Z</time>
      </trkpt>
      <trkpt lat="38.1992200" lon="-1.0626360">
        <ele>163.1</ele>
        <time>2020-10-12T13:02:56Z</time>
      </trkpt>
      <trkpt lat="38.1992670" lon="-1.0629140">
        <ele>162.6</ele>
        <time>2020-10-12T13:02:59Z</time>
      </trkpt>
      <trkpt lat="38.1993240" lon="-1.0632160">
        <ele>161.8</ele>
        <time>2020-10-12T13:03:02Z</time>
      </trkpt>
      <trkpt lat="38.1993780" lon="-1.0635320">
        <ele>161.1</ele>
        <time>2020-10-12T13:03:05Z</time>
      </trkpt>
      <trkpt lat="38.1994340" lon="-1.0638600">
        <ele>160.5</ele>
        <time>2020-10-12T13:03:08Z</time>
      </trkpt>
      <trkpt lat="38.1994570" lon="-1.0640910">
        <ele>159.9</ele>
        <time>2020-10-12T13:03:10Z</time>
      </trkpt>
      <trkpt lat="38.1994710" lon="-1.0643250">
        <ele>159.2</ele>
        <time>2020-10-12T13:03:12Z</time>
      </trkpt>
      <trkpt lat="38.1994630" lon="-1.0645540">
        <ele>158.6</ele>
        <time>2020-10-12T13:03:14Z</time>
      </trkpt>
      <trkpt lat="38.1994340" lon="-1.0647820">
        <ele>158.1</ele>
        <time>2020-10-12T13:03:16Z</time>
      </trkpt>
      <trkpt lat="38.1993960" lon="-1.0651160">
        <ele>157.4</ele>
        <time>2020-10-12T13:03:19Z</time>
      </trkpt>
      <trkpt lat="38.1993530" lon="-1.0654420">
        <ele>156.7</ele>
        <time>2020-10-12T13:03:22Z</time>
      </trkpt>
      <trkpt lat="38.1993230" lon="-1.0657660">
        <ele>156.1</ele>
        <time>2020-10-12T13:03:25Z</time>
      </trkpt>
      <trkpt lat="38.1992780" lon="-1.0660980">
        <ele>155.4</ele>
        <time>2020-10-12T13:03:28Z</time>
      </trkpt>
      <trkpt lat="38.1992260" lon="-1.0664230">
        <ele>154.7</ele>
        <time>2020-10-12T13:03:31Z</time>
      </trkpt>
      <trkpt lat="38.1991840" lon="-1.0667160">
        <ele>154.1</ele>
        <time>2020-10-12T13:03:34Z</time>
      </trkpt>
      <trkpt lat="38.1991430" lon="-1.0670320">
        <ele>153.6</ele>
        <time>2020-10-12T13:03:37Z</time>
      </trkpt>
      <trkpt lat="38.1990650" lon="-1.0673380">
        <ele>153.2</ele>
        <time>2020-10-12T13:03:40Z</time>
      </trkpt>
      <trkpt lat="38.1989320" lon="-1.0676270">
        <ele>152.6</ele>
        <time>2020-10-12T13:03:43Z</time>
      </trkpt>
      <trkpt lat="38.1987950" lon="-1.0678860">
        <ele>152.3</ele>
        <time>2020-10-12T13:03:46Z</time>
      </trkpt>
      <trkpt lat="38.1986380" lon="-1.0681330">
        <ele>152.1</ele>
        <time>2020-10-12T13:03:49Z</time>
      </trkpt>
      <trkpt lat="38.1984650" lon="-1.0683420">
        <ele>152.2</ele>
        <time>2020-10-12T13:03:52Z</time>
      </trkpt>
      <trkpt lat="38.1982760" lon="-1.0685340">
        <ele>151.9</ele>
        <time>2020-10-12T13:03:55Z</time>
      </trkpt>
      <trkpt lat="38.1981050" lon="-1.0687320">
        <ele>151.7</ele>
        <time>2020-10-12T13:03:58Z</time>
      </trkpt>
      <trkpt lat="38.1979020" lon="-1.0689350">
        <ele>151.9</ele>
        <time>2020-10-12T13:04:01Z</time>
      </trkpt>
      <trkpt lat="38.1977360" lon="-1.0691140">
        <ele>152.4</ele>
        <time>2020-10-12T13:04:04Z</time>
      </trkpt>
      <trkpt lat="38.1975740" lon="-1.0692800">
        <ele>153.0</ele>
        <time>2020-10-12T13:04:07Z</time>
      </trkpt>
      <trkpt lat="38.1974330" lon="-1.0694350">
        <ele>153.6</ele>
        <time>2020-10-12T13:04:10Z</time>
      </trkpt>
      <trkpt lat="38.1972560" lon="-1.0696220">
        <ele>154.5</ele>
        <time>2020-10-12T13:04:14Z</time>
      </trkpt>
      <trkpt lat="38.1971220" lon="-1.0697960">
        <ele>155.2</ele>
        <time>2020-10-12T13:04:17Z</time>
      </trkpt>
      <trkpt lat="38.1969600" lon="-1.0700070">
        <ele>156.1</ele>
        <time>2020-10-12T13:04:21Z</time>
      </trkpt>
      <trkpt lat="38.1968200" lon="-1.0702360">
        <ele>156.9</ele>
        <time>2020-10-12T13:04:25Z</time>
      </trkpt>
      <trkpt lat="38.1967140" lon="-1.0704720">
        <ele>157.6</ele>
        <time>2020-10-12T13:04:29Z</time>
      </trkpt>
      <trkpt lat="38.1966290" lon="-1.0707330">
        <ele>158.4</ele>
        <time>2020-10-12T13:04:33Z</time>
      </trkpt>
      <trkpt lat="38.1965690" lon="-1.0710000">
        <ele>159.2</ele>
        <time>2020-10-12T13:04:37Z</time>
      </trkpt>
      <trkpt lat="38.1965330" lon="-1.0712980">
        <ele>159.8</ele>
        <time>2020-10-12T13:04:41Z</time>
      </trkpt>
      <trkpt lat="38.1965140" lon="-1.0715700">
        <ele>160.4</ele>
        <time>2020-10-12T13:04:45Z</time>
      </trkpt>
      <trkpt lat="38.1965000" lon="-1.0718610">
        <ele>160.9</ele>
        <time>2020-10-12T13:04:49Z</time>
      </trkpt>
      <trkpt lat="38.1964690" lon="-1.0721400">
        <ele>161.2</ele>
        <time>2020-10-12T13:04:53Z</time>
      </trkpt>
      <trkpt lat="38.1964380" lon="-1.0724180">
        <ele>161.5</ele>
        <time>2020-10-12T13:04:57Z</time>
      </trkpt>
      <trkpt lat="38.1963930" lon="-1.0727050">
        <ele>161.8</ele>
        <time>2020-10-12T13:05:01Z</time>
      </trkpt>
      <trkpt lat="38.1963530" lon="-1.0729830">
        <ele>161.9</ele>
        <time>2020-10-12T13:05:05Z</time>
      </trkpt>
      <trkpt lat="38.1962550" lon="-1.0732340">
        <ele>161.8</ele>
        <time>2020-10-12T13:05:09Z</time>
      </trkpt>
      <trkpt lat="38.1961370" lon="-1.0734930">
        <ele>161.8</ele>
        <time>2020-10-12T13:05:13Z</time>
      </trkpt>
      <trkpt lat="38.1960260" lon="-1.0736780">
        <ele>161.9</ele>
        <time>2020-10-12T13:05:16Z</time>
      </trkpt>
      <trkpt lat="38.1958730" lon="-1.0738880">
        <ele>162.1</ele>
        <time>2020-10-12T13:05:20Z</time>
      </trkpt>
      <trkpt lat="38.1957170" lon="-1.0741100">
        <ele>162.3</ele>
        <time>2020-10-12T13:05:24Z</time>
      </trkpt>
      <trkpt lat="38.1955630" lon="-1.0743220">
        <ele>162.7</ele>
        <time>2020-10-12T13:05:28Z</time>
      </trkpt>
      <trkpt lat="38.1954210" lon="-1.0745440">
        <ele>163.1</ele>
        <time>2020-10-12T13:05:32Z</time>
      </trkpt>
      <trkpt lat="38.1952630" lon="-1.0747690">
        <ele>163.5</ele>
        <time>2020-10-12T13:05:36Z</time>
      </trkpt>
      <trkpt lat="38.1951160" lon="-1.0749950">
        <ele>164.1</ele>
        <time>2020-10-12T13:05:40Z</time>
      </trkpt>
      <trkpt lat="38.1949660" lon="-1.0752250">
        <ele>164.9</ele>
        <time>2020-10-12T13:05:44Z</time>
      </trkpt>
      <trkpt lat="38.1948200" lon="-1.0754390">
        <ele>165.8</ele>
        <time>2020-10-12T13:05:48Z</time>
      </trkpt>
      <trkpt lat="38.1946700" lon="-1.0756320">
        <ele>166.8</ele>
        <time>2020-10-12T13:05:52Z</time>
      </trkpt>
      <trkpt lat="38.1945330" lon="-1.0758140">
        <ele>167.8</ele>
        <time>2020-10-12T13:05:56Z</time>
      </trkpt>
      <trkpt lat="38.1943970" lon="-1.0759840">
        <ele>168.9</ele>
        <time>2020-10-12T13:06:00Z</time>
      </trkpt>
      <trkpt lat="38.1942730" lon="-1.0761540">
        <ele>169.9</ele>
        <time>2020-10-12T13:06:05Z</time>
      </trkpt>
      <trkpt lat="38.1941480" lon="-1.0763480">
        <ele>171.1</ele>
        <time>2020-10-12T13:06:12Z</time>
      </trkpt>
      <trkpt lat="38.1939880" lon="-1.0765760">
        <ele>172.6</ele>
        <time>2020-10-12T13:06:15Z</time>
      </trkpt>
      <trkpt lat="38.1938790" lon="-1.0767730">
        <ele>173.8</ele>
        <time>2020-10-12T13:06:21Z</time>
      </trkpt>
      <trkpt lat="38.1936630" lon="-1.0770220">
        <ele>175.5</ele>
        <time>2020-10-12T13:06:26Z</time>
      </trkpt>
      <trkpt lat="38.1935340" lon="-1.0772250">
        <ele>176.7</ele>
        <time>2020-10-12T13:06:30Z</time>
      </trkpt>
      <trkpt lat="38.1934240" lon="-1.0774420">
        <ele>177.9</ele>
        <time>2020-10-12T13:06:35Z</time>
      </trkpt>
      <trkpt lat="38.1933250" lon="-1.0776600">
        <ele>179.1</ele>
        <time>2020-10-12T13:06:40Z</time>
      </trkpt>
      <trkpt lat="38.1932560" lon="-1.0779060">
        <ele>180.2</ele>
        <time>2020-10-12T13:06:47Z</time>
      </trkpt>
      <trkpt lat="38.1932160" lon="-1.0781580">
        <ele>181.2</ele>
        <time>2020-10-12T13:06:51Z</time>
      </trkpt>
      <trkpt lat="38.1931870" lon="-1.0783840">
        <ele>182.0</ele>
        <time>2020-10-12T13:06:56Z</time>
      </trkpt>
      <trkpt lat="38.1931730" lon="-1.0786480">
        <ele>182.8</ele>
        <time>2020-10-12T13:07:00Z</time>
      </trkpt>
      <trkpt lat="38.1931650" lon="-1.0788840">
        <ele>183.3</ele>
        <time>2020-10-12T13:07:05Z</time>
      </trkpt>
      <trkpt lat="38.1931530" lon="-1.0791400">
        <ele>183.8</ele>
        <time>2020-10-12T13:07:09Z</time>
      </trkpt>
      <trkpt lat="38.1931520" lon="-1.0794150">
        <ele>184.3</ele>
        <time>2020-10-12T13:07:14Z</time>
      </trkpt>
      <trkpt lat="38.1931400" lon="-1.0796820">
        <ele>184.6</ele>
        <time>2020-10-12T13:07:18Z</time>
      </trkpt>
      <trkpt lat="38.1931060" lon="-1.0799520">
        <ele>184.8</ele>
        <time>2020-10-12T13:07:23Z</time>
      </trkpt>
      <trkpt lat="38.1931240" lon="-1.0801930">
        <ele>184.8</ele>
        <time>2020-10-12T13:07:26Z</time>
      </trkpt>
      <trkpt lat="38.1931240" lon="-1.0804570">
        <ele>184.6</ele>
        <time>2020-10-12T13:07:30Z</time>
      </trkpt>
      <trkpt lat="38.1931090" lon="-1.0808360">
        <ele>184.3</ele>
        <time>2020-10-12T13:07:34Z</time>
      </trkpt>
      <trkpt lat="38.1931060" lon="-1.0811470">
        <ele>184.0</ele>
        <time>2020-10-12T13:07:37Z</time>
      </trkpt>
      <trkpt lat="38.1930940" lon="-1.0814120">
        <ele>183.7</ele>
        <time>2020-10-12T13:07:40Z</time>
      </trkpt>
      <trkpt lat="38.1930560" lon="-1.0816660">
        <ele>183.4</ele>
        <time>2020-10-12T13:07:43Z</time>
      </trkpt>
      <trkpt lat="38.1930040" lon="-1.0819280">
        <ele>183.1</ele>
        <time>2020-10-12T13:07:46Z</time>
      </trkpt>
      <trkpt lat="38.1929320" lon="-1.0822090">
        <ele>182.6</ele>
        <time>2020-10-12T13:07:49Z</time>
      </trkpt>
      <trkpt lat="38.1928520" lon="-1.0824740">
        <ele>182.6</ele>
        <time>2020-10-12T13:07:52Z</time>
      </trkpt>
      <trkpt lat="38.1927760" lon="-1.0827510">
        <ele>182.3</ele>
        <time>2020-10-12T13:07:55Z</time>
      </trkpt>
      <trkpt lat="38.1927240" lon="-1.0830410">
        <ele>182.0</ele>
        <time>2020-10-12T13:07:58Z</time>
      </trkpt>
      <trkpt lat="38.1926850" lon="-1.0833220">
        <ele>181.8</ele>
        <time>2020-10-12T13:08:01Z</time>
      </trkpt>
      <trkpt lat="38.1926890" lon="-1.0836100">
        <ele>181.6</ele>
        <time>2020-10-12T13:08:04Z</time>
      </trkpt>
      <trkpt lat="38.1927520" lon="-1.0838930">
        <ele>181.3</ele>
        <time>2020-10-12T13:08:07Z</time>
      </trkpt>
      <trkpt lat="38.1928390" lon="-1.0841870">
        <ele>181.1</ele>
        <time>2020-10-12T13:08:10Z</time>
      </trkpt>
      <trkpt lat="38.1929170" lon="-1.0844520">
        <ele>180.8</ele>
        <time>2020-10-12T13:08:13Z</time>
      </trkpt>
      <trkpt lat="38.1929840" lon="-1.0847320">
        <ele>180.3</ele>
        <time>2020-10-12T13:08:16Z</time>
      </trkpt>
      <trkpt lat="38.1930630" lon="-1.0850010">
        <ele>179.8</ele>
        <time>2020-10-12T13:08:19Z</time>
      </trkpt>
      <trkpt lat="38.1931500" lon="-1.0852870">
        <ele>179.3</ele>
        <time>2020-10-12T13:08:22Z</time>
      </trkpt>
      <trkpt lat="38.1932100" lon="-1.0855750">
        <ele>178.9</ele>
        <time>2020-10-12T13:08:25Z</time>
      </trkpt>
      <trkpt lat="38.1932460" lon="-1.0858680">
        <ele>178.2</ele>
        <time>2020-10-12T13:08:28Z</time>
      </trkpt>
      <trkpt lat="38.1932710" lon="-1.0861980">
        <ele>177.3</ele>
        <time>2020-10-12T13:08:31Z</time>
      </trkpt>
      <trkpt lat="38.1932500" lon="-1.0865350">
        <ele>176.5</ele>
        <time>2020-10-12T13:08:34Z</time>
      </trkpt>
      <trkpt lat="38.1931810" lon="-1.0868590">
        <ele>175.7</ele>
        <time>2020-10-12T13:08:37Z</time>
      </trkpt>
      <trkpt lat="38.1930840" lon="-1.0871670">
        <ele>174.8</ele>
        <time>2020-10-12T13:08:40Z</time>
      </trkpt>
      <trkpt lat="38.1929750" lon="-1.0874600">
        <ele>173.9</ele>
        <time>2020-10-12T13:08:43Z</time>
      </trkpt>
      <trkpt lat="38.1928770" lon="-1.0877680">
        <ele>173.1</ele>
        <time>2020-10-12T13:08:46Z</time>
      </trkpt>
      <trkpt lat="38.1927870" lon="-1.0880800">
        <ele>172.3</ele>
        <time>2020-10-12T13:08:49Z</time>
      </trkpt>
      <trkpt lat="38.1926880" lon="-1.0883910">
        <ele>171.7</ele>
        <time>2020-10-12T13:08:52Z</time>
      </trkpt>
      <trkpt lat="38.1925850" lon="-1.0886830">
        <ele>171.3</ele>
        <time>2020-10-12T13:08:55Z</time>
      </trkpt>
      <trkpt lat="38.1924720" lon="-1.0889610">
        <ele>170.9</ele>
        <time>2020-10-12T13:08:58Z</time>
      </trkpt>
      <trkpt lat="38.1923240" lon="-1.0892130">
        <ele>170.7</ele>
        <time>2020-10-12T13:09:01Z</time>
      </trkpt>
      <trkpt lat="38.1921690" lon="-1.0894510">
        <ele>170.5</ele>
        <time>2020-10-12T13:09:04Z</time>
      </trkpt>
      <trkpt lat="38.1920150" lon="-1.0896600">
        <ele>170.5</ele>
        <time>2020-10-12T13:09:07Z</time>
      </trkpt>
      <trkpt lat="38.1918630" lon="-1.0898830">
        <ele>170.8</ele>
        <time>2020-10-12T13:09:10Z</time>
      </trkpt>
      <trkpt lat="38.1917450" lon="-1.0901210">
        <ele>170.9</ele>
        <time>2020-10-12T13:09:13Z</time>
      </trkpt>
      <trkpt lat="38.1916530" lon="-1.0903730">
        <ele>171.1</ele>
        <time>2020-10-12T13:09:16Z</time>
      </trkpt>
      <trkpt lat="38.1915890" lon="-1.0906390">
        <ele>171.4</ele>
        <time>2020-10-12T13:09:19Z</time>
      </trkpt>
      <trkpt lat="38.1915440" lon="-1.0909090">
        <ele>171.7</ele>
        <time>2020-10-12T13:09:22Z</time>
      </trkpt>
      <trkpt lat="38.1914960" lon="-1.0911890">
        <ele>172.3</ele>
        <time>2020-10-12T13:09:25Z</time>
      </trkpt>
      <trkpt lat="38.1914570" lon="-1.0914590">
        <ele>172.7</ele>
        <time>2020-10-12T13:09:28Z</time>
      </trkpt>
      <trkpt lat="38.1914160" lon="-1.0917120">
        <ele>173.1</ele>
        <time>2020-10-12T13:09:31Z</time>
      </trkpt>
      <trkpt lat="38.1913640" lon="-1.0919600">
        <ele>173.3</ele>
        <time>2020-10-12T13:09:34Z</time>
      </trkpt>
      <trkpt lat="38.1913100" lon="-1.0922190">
        <ele>173.2</ele>
        <time>2020-10-12T13:09:37Z</time>
      </trkpt>
      <trkpt lat="38.1912770" lon="-1.0924760">
        <ele>172.9</ele>
        <time>2020-10-12T13:09:40Z</time>
      </trkpt>
      <trkpt lat="38.1912600" lon="-1.0927450">
        <ele>172.4</ele>
        <time>2020-10-12T13:09:43Z</time>
      </trkpt>
      <trkpt lat="38.1912840" lon="-1.0930250">
        <ele>172.0</ele>
        <time>2020-10-12T13:09:46Z</time>
      </trkpt>
      <trkpt lat="38.1913040" lon="-1.0933000">
        <ele>171.5</ele>
        <time>2020-10-12T13:09:49Z</time>
      </trkpt>
      <trkpt lat="38.1913350" lon="-1.0935780">
        <ele>171.0</ele>
        <time>2020-10-12T13:09:52Z</time>
      </trkpt>
      <trkpt lat="38.1913650" lon="-1.0938600">
        <ele>170.6</ele>
        <time>2020-10-12T13:09:55Z</time>
      </trkpt>
      <trkpt lat="38.1913880" lon="-1.0941480">
        <ele>170.0</ele>
        <time>2020-10-12T13:09:58Z</time>
      </trkpt>
      <trkpt lat="38.1914140" lon="-1.0944400">
        <ele>169.5</ele>
        <time>2020-10-12T13:10:01Z</time>
      </trkpt>
      <trkpt lat="38.1914300" lon="-1.0947590">
        <ele>168.8</ele>
        <time>2020-10-12T13:10:04Z</time>
      </trkpt>
      <trkpt lat="38.1914300" lon="-1.0950880">
        <ele>168.5</ele>
        <time>2020-10-12T13:10:07Z</time>
      </trkpt>
      <trkpt lat="38.1913930" lon="-1.0954020">
        <ele>168.4</ele>
        <time>2020-10-12T13:10:10Z</time>
      </trkpt>
      <trkpt lat="38.1913500" lon="-1.0956880">
        <ele>168.4</ele>
        <time>2020-10-12T13:10:13Z</time>
      </trkpt>
      <trkpt lat="38.1913030" lon="-1.0959450">
        <ele>168.7</ele>
        <time>2020-10-12T13:10:16Z</time>
      </trkpt>
      <trkpt lat="38.1912560" lon="-1.0962020">
        <ele>169.0</ele>
        <time>2020-10-12T13:10:19Z</time>
      </trkpt>
      <trkpt lat="38.1912270" lon="-1.0964540">
        <ele>169.6</ele>
        <time>2020-10-12T13:10:22Z</time>
      </trkpt>
      <trkpt lat="38.1911960" lon="-1.0967390">
        <ele>170.5</ele>
        <time>2020-10-12T13:10:26Z</time>
      </trkpt>
      <trkpt lat="38.1911810" lon="-1.0970240">
        <ele>170.9</ele>
        <time>2020-10-12T13:10:30Z</time>
      </trkpt>
      <trkpt lat="38.1911790" lon="-1.0972800">
        <ele>171.9</ele>
        <time>2020-10-12T13:10:34Z</time>
      </trkpt>
      <trkpt lat="38.1911730" lon="-1.0975120">
        <ele>172.9</ele>
        <time>2020-10-12T13:10:38Z</time>
      </trkpt>
      <trkpt lat="38.1911610" lon="-1.0977490">
        <ele>174.1</ele>
        <time>2020-10-12T13:10:42Z</time>
      </trkpt>
      <trkpt lat="38.1911270" lon="-1.0979990">
        <ele>175.1</ele>
        <time>2020-10-12T13:10:46Z</time>
      </trkpt>
      <trkpt lat="38.1910940" lon="-1.0982400">
        <ele>175.9</ele>
        <time>2020-10-12T13:10:50Z</time>
      </trkpt>
      <trkpt lat="38.1910610" lon="-1.0984730">
        <ele>176.5</ele>
        <time>2020-10-12T13:10:54Z</time>
      </trkpt>
      <trkpt lat="38.1910190" lon="-1.0987120">
        <ele>177.2</ele>
        <time>2020-10-12T13:10:58Z</time>
      </trkpt>
      <trkpt lat="38.1910190" lon="-1.0989510">
        <ele>178.1</ele>
        <time>2020-10-12T13:11:02Z</time>
      </trkpt>
      <trkpt lat="38.1910530" lon="-1.0992130">
        <ele>179.4</ele>
        <time>2020-10-12T13:11:07Z</time>
      </trkpt>
      <trkpt lat="38.1910790" lon="-1.0994420">
        <ele>180.8</ele>
        <time>2020-10-12T13:11:14Z</time>
      </trkpt>
      <trkpt lat="38.1911220" lon="-1.0996660">
        <ele>182.4</ele>
        <time>2020-10-12T13:11:18Z</time>
      </trkpt>
      <trkpt lat="38.1911730" lon="-1.0998860">
        <ele>183.9</ele>
        <time>2020-10-12T13:11:22Z</time>
      </trkpt>
      <trkpt lat="38.1912320" lon="-1.1001280">
        <ele>185.2</ele>
        <time>2020-10-12T13:11:27Z</time>
      </trkpt>
      <trkpt lat="38.1912720" lon="-1.1003570">
        <ele>186.0</ele>
        <time>2020-10-12T13:11:33Z</time>
      </trkpt>
      <trkpt lat="38.1912940" lon="-1.1006180">
        <ele>186.8</ele>
        <time>2020-10-12T13:11:38Z</time>
      </trkpt>
      <trkpt lat="38.1913100" lon="-1.1008880">
        <ele>187.2</ele>
        <time>2020-10-12T13:11:42Z</time>
      </trkpt>
      <trkpt lat="38.1913100" lon="-1.1011530">
        <ele>187.1</ele>
        <time>2020-10-12T13:11:46Z</time>
      </trkpt>
      <trkpt lat="38.1912650" lon="-1.1014320">
        <ele>186.1</ele>
        <time>2020-10-12T13:11:50Z</time>
      </trkpt>
      <trkpt lat="38.1911750" lon="-1.1016930">
        <ele>184.9</ele>
        <time>2020-10-12T13:11:54Z</time>
      </trkpt>
      <trkpt lat="38.1910640" lon="-1.1019420">
        <ele>183.7</ele>
        <time>2020-10-12T13:11:57Z</time>
      </trkpt>
      <trkpt lat="38.1909480" lon="-1.1022190">
        <ele>182.1</ele>
        <time>2020-10-12T13:12:00Z</time>
      </trkpt>
      <trkpt lat="38.1908630" lon="-1.1025190">
        <ele>180.6</ele>
        <time>2020-10-12T13:12:03Z</time>
      </trkpt>
      <trkpt lat="38.1908030" lon="-1.1028320">
        <ele>179.6</ele>
        <time>2020-10-12T13:12:06Z</time>
      </trkpt>
      <trkpt lat="38.1907430" lon="-1.1031410">
        <ele>178.8</ele>
        <time>2020-10-12T13:12:09Z</time>
      </trkpt>
      <trkpt lat="38.1906740" lon="-1.1034510">
        <ele>178.2</ele>
        <time>2020-10-12T13:12:12Z</time>
      </trkpt>
      <trkpt lat="38.1905860" lon="-1.1037320">
        <ele>178.0</ele>
        <time>2020-10-12T13:12:15Z</time>
      </trkpt>
      <trkpt lat="38.1904930" lon="-1.1039940">
        <ele>178.0</ele>
        <time>2020-10-12T13:12:18Z</time>
      </trkpt>
      <trkpt lat="38.1904040" lon="-1.1042320">
        <ele>178.1</ele>
        <time>2020-10-12T13:12:21Z</time>
      </trkpt>
      <trkpt lat="38.1903040" lon="-1.1044650">
        <ele>178.3</ele>
        <time>2020-10-12T13:12:24Z</time>
      </trkpt>
      <trkpt lat="38.1901980" lon="-1.1046830">
        <ele>178.4</ele>
        <time>2020-10-12T13:12:27Z</time>
      </trkpt>
      <trkpt lat="38.1900830" lon="-1.1049030">
        <ele>178.7</ele>
        <time>2020-10-12T13:12:30Z</time>
      </trkpt>
      <trkpt lat="38.1899560" lon="-1.1051120">
        <ele>179.2</ele>
        <time>2020-10-12T13:12:33Z</time>
      </trkpt>
      <trkpt lat="38.1898230" lon="-1.1053010">
        <ele>179.8</ele>
        <time>2020-10-12T13:12:36Z</time>
      </trkpt>
      <trkpt lat="38.1896610" lon="-1.1055000">
        <ele>180.8</ele>
        <time>2020-10-12T13:12:40Z</time>
      </trkpt>
      <trkpt lat="38.1894780" lon="-1.1056730">
        <ele>182.1</ele>
        <time>2020-10-12T13:12:44Z</time>
      </trkpt>
      <trkpt lat="38.1892870" lon="-1.1058220">
        <ele>183.4</ele>
        <time>2020-10-12T13:12:48Z</time>
      </trkpt>
      <trkpt lat="38.1890870" lon="-1.1059680">
        <ele>184.4</ele>
        <time>2020-10-12T13:12:52Z</time>
      </trkpt>
      <trkpt lat="38.1888800" lon="-1.1060830">
        <ele>185.1</ele>
        <time>2020-10-12T13:12:56Z</time>
      </trkpt>
      <trkpt lat="38.1886540" lon="-1.1061790">
        <ele>185.3</ele>
        <time>2020-10-12T13:13:00Z</time>
      </trkpt>
      <trkpt lat="38.1884770" lon="-1.1062430">
        <ele>185.1</ele>
        <time>2020-10-12T13:13:03Z</time>
      </trkpt>
      <trkpt lat="38.1882910" lon="-1.1062920">
        <ele>184.7</ele>
        <time>2020-10-12T13:13:06Z</time>
      </trkpt>
      <trkpt lat="38.1881090" lon="-1.1063750">
        <ele>184.4</ele>
        <time>2020-10-12T13:13:09Z</time>
      </trkpt>
      <trkpt lat="38.1879550" lon="-1.1065350">
        <ele>184.3</ele>
        <time>2020-10-12T13:13:12Z</time>
      </trkpt>
      <trkpt lat="38.1878200" lon="-1.1067360">
        <ele>184.4</ele>
        <time>2020-10-12T13:13:15Z</time>
      </trkpt>
      <trkpt lat="38.1877550" lon="-1.1069780">
        <ele>184.6</ele>
        <time>2020-10-12T13:13:18Z</time>
      </trkpt>
      <trkpt lat="38.1877270" lon="-1.1072220">
        <ele>184.9</ele>
        <time>2020-10-12T13:13:21Z</time>
      </trkpt>
      <trkpt lat="38.1877500" lon="-1.1074610">
        <ele>185.2</ele>
        <time>2020-10-12T13:13:24Z</time>
      </trkpt>
      <trkpt lat="38.1879620" lon="-1.1075920">
        <ele>185.5</ele>
        <time>2020-10-12T13:13:28Z</time>
      </trkpt>
      <trkpt lat="38.1881450" lon="-1.1076160">
        <ele>185.9</ele>
        <time>2020-10-12T13:13:31Z</time>
      </trkpt>
      <trkpt lat="38.1883340" lon="-1.1077640">
        <ele>186.5</ele>
        <time>2020-10-12T13:13:35Z</time>
      </trkpt>
      <trkpt lat="38.1884300" lon="-1.1080390">
        <ele>186.7</ele>
        <time>2020-10-12T13:13:39Z</time>
      </trkpt>
      <trkpt lat="38.1884050" lon="-1.1082990">
        <ele>186.4</ele>
        <time>2020-10-12T13:13:42Z</time>
      </trkpt>
      <trkpt lat="38.1882870" lon="-1.1085360">
        <ele>186.3</ele>
        <time>2020-10-12T13:13:45Z</time>
      </trkpt>
      <trkpt lat="38.1880740" lon="-1.1086330">
        <ele>185.6</ele>
        <time>2020-10-12T13:13:48Z</time>
      </trkpt>
      <trkpt lat="38.1878500" lon="-1.1086310">
        <ele>185.4</ele>
        <time>2020-10-12T13:13:51Z</time>
      </trkpt>
      <trkpt lat="38.1876500" lon="-1.1086440">
        <ele>184.9</ele>
        <time>2020-10-12T13:13:54Z</time>
      </trkpt>
      <trkpt lat="38.1874080" lon="-1.1087340">
        <ele>183.2</ele>
        <time>2020-10-12T13:13:57Z</time>
      </trkpt>
      <trkpt lat="38.1872330" lon="-1.1088010">
        <ele>181.6</ele>
        <time>2020-10-12T13:13:59Z</time>
      </trkpt>
      <trkpt lat="38.1870470" lon="-1.1088810">
        <ele>179.9</ele>
        <time>2020-10-12T13:14:01Z</time>
      </trkpt>
      <trkpt lat="38.1868560" lon="-1.1089740">
        <ele>178.5</ele>
        <time>2020-10-12T13:14:03Z</time>
      </trkpt>
      <trkpt lat="38.1866770" lon="-1.1090830">
        <ele>177.5</ele>
        <time>2020-10-12T13:14:05Z</time>
      </trkpt>
      <trkpt lat="38.1865090" lon="-1.1091830">
        <ele>177.1</ele>
        <time>2020-10-12T13:14:07Z</time>
      </trkpt>
      <trkpt lat="38.1862610" lon="-1.1093160">
        <ele>176.4</ele>
        <time>2020-10-12T13:14:10Z</time>
      </trkpt>
      <trkpt lat="38.1860250" lon="-1.1094350">
        <ele>175.4</ele>
        <time>2020-10-12T13:14:13Z</time>
      </trkpt>
      <trkpt lat="38.1857840" lon="-1.1095630">
        <ele>174.7</ele>
        <time>2020-10-12T13:14:16Z</time>
      </trkpt>
      <trkpt lat="38.1855460" lon="-1.1096900">
        <ele>174.1</ele>
        <time>2020-10-12T13:14:19Z</time>
      </trkpt>
      <trkpt lat="38.1853150" lon="-1.1097980">
        <ele>173.6</ele>
        <time>2020-10-12T13:14:22Z</time>
      </trkpt>
      <trkpt lat="38.1850850" lon="-1.1098990">
        <ele>173.0</ele>
        <time>2020-10-12T13:14:25Z</time>
      </trkpt>
      <trkpt lat="38.1848590" lon="-1.1100100">
        <ele>172.6</ele>
        <time>2020-10-12T13:14:28Z</time>
      </trkpt>
      <trkpt lat="38.1846250" lon="-1.1101190">
        <ele>172.1</ele>
        <time>2020-10-12T13:14:31Z</time>
      </trkpt>
      <trkpt lat="38.1843840" lon="-1.1102340">
        <ele>171.6</ele>
        <time>2020-10-12T13:14:34Z</time>
      </trkpt>
      <trkpt lat="38.1841460" lon="-1.1103560">
        <ele>171.1</ele>
        <time>2020-10-12T13:14:37Z</time>
      </trkpt>
      <trkpt lat="38.1839230" lon="-1.1104660">
        <ele>170.5</ele>
        <time>2020-10-12T13:14:40Z</time>
      </trkpt>
      <trkpt lat="38.1836900" lon="-1.1105740">
        <ele>170.1</ele>
        <time>2020-10-12T13:14:43Z</time>
      </trkpt>
      <trkpt lat="38.1835190" lon="-1.1106450">
        <ele>169.8</ele>
        <time>2020-10-12T13:14:45Z</time>
      </trkpt>
      <trkpt lat="38.1832770" lon="-1.1107400">
        <ele>169.3</ele>
        <time>2020-10-12T13:14:48Z</time>
      </trkpt>
      <trkpt lat="38.1830300" lon="-1.1108360">
        <ele>168.9</ele>
        <time>2020-10-12T13:14:51Z</time>
      </trkpt>
      <trkpt lat="38.1827860" lon="-1.1109280">
        <ele>168.6</ele>
        <time>2020-10-12T13:14:54Z</time>
      </trkpt>
      <trkpt lat="38.1825380" lon="-1.1110280">
        <ele>168.3</ele>
        <time>2020-10-12T13:14:57Z</time>
      </trkpt>
      <trkpt lat="38.1822900" lon="-1.1111050">
        <ele>168.3</ele>
        <time>2020-10-12T13:15:00Z</time>
      </trkpt>
      <trkpt lat="38.1820550" lon="-1.1111790">
        <ele>168.2</ele>
        <time>2020-10-12T13:15:03Z</time>
      </trkpt>
      <trkpt lat="38.1818250" lon="-1.1112600">
        <ele>168.1</ele>
        <time>2020-10-12T13:15:06Z</time>
      </trkpt>
      <trkpt lat="38.1815960" lon="-1.1113380">
        <ele>168.2</ele>
        <time>2020-10-12T13:15:09Z</time>
      </trkpt>
      <trkpt lat="38.1813680" lon="-1.1114110">
        <ele>168.3</ele>
        <time>2020-10-12T13:15:12Z</time>
      </trkpt>
      <trkpt lat="38.1811470" lon="-1.1114790">
        <ele>168.4</ele>
        <time>2020-10-12T13:15:15Z</time>
      </trkpt>
      <trkpt lat="38.1809280" lon="-1.1115410">
        <ele>168.5</ele>
        <time>2020-10-12T13:15:18Z</time>
      </trkpt>
      <trkpt lat="38.1807060" lon="-1.1116220">
        <ele>168.6</ele>
        <time>2020-10-12T13:15:21Z</time>
      </trkpt>
      <trkpt lat="38.1804840" lon="-1.1116810">
        <ele>168.5</ele>
        <time>2020-10-12T13:15:24Z</time>
      </trkpt>
      <trkpt lat="38.1802760" lon="-1.1117470">
        <ele>168.6</ele>
        <time>2020-10-12T13:15:27Z</time>
      </trkpt>
      <trkpt lat="38.1800660" lon="-1.1118030">
        <ele>168.8</ele>
        <time>2020-10-12T13:15:30Z</time>
      </trkpt>
      <trkpt lat="38.1798380" lon="-1.1118600">
        <ele>168.1</ele>
        <time>2020-10-12T13:15:33Z</time>
      </trkpt>
      <trkpt lat="38.1796320" lon="-1.1118860">
        <ele>167.9</ele>
        <time>2020-10-12T13:15:36Z</time>
      </trkpt>
      <trkpt lat="38.1794200" lon="-1.1119250">
        <ele>167.7</ele>
        <time>2020-10-12T13:15:39Z</time>
      </trkpt>
      <trkpt lat="38.1792010" lon="-1.1119670">
        <ele>167.5</ele>
        <time>2020-10-12T13:15:42Z</time>
      </trkpt>
      <trkpt lat="38.1789820" lon="-1.1120010">
        <ele>167.3</ele>
        <time>2020-10-12T13:15:45Z</time>
      </trkpt>
      <trkpt lat="38.1787490" lon="-1.1120560">
        <ele>167.1</ele>
        <time>2020-10-12T13:15:48Z</time>
      </trkpt>
      <trkpt lat="38.1785280" lon="-1.1121110">
        <ele>166.9</ele>
        <time>2020-10-12T13:15:51Z</time>
      </trkpt>
      <trkpt lat="38.1782910" lon="-1.1121500">
        <ele>166.6</ele>
        <time>2020-10-12T13:15:54Z</time>
      </trkpt>
      <trkpt lat="38.1780470" lon="-1.1121700">
        <ele>166.3</ele>
        <time>2020-10-12T13:15:57Z</time>
      </trkpt>
      <trkpt lat="38.1778200" lon="-1.1121870">
        <ele>166.1</ele>
        <time>2020-10-12T13:16:00Z</time>
      </trkpt>
      <trkpt lat="38.1775990" lon="-1.1122140">
        <ele>165.9</ele>
        <time>2020-10-12T13:16:03Z</time>
      </trkpt>
      <trkpt lat="38.1773630" lon="-1.1122420">
        <ele>165.8</ele>
        <time>2020-10-12T13:16:06Z</time>
      </trkpt>
      <trkpt lat="38.1771230" lon="-1.1122770">
        <ele>165.8</ele>
        <time>2020-10-12T13:16:09Z</time>
      </trkpt>
      <trkpt lat="38.1768950" lon="-1.1123030">
        <ele>165.8</ele>
        <time>2020-10-12T13:16:12Z</time>
      </trkpt>
      <trkpt lat="38.1766770" lon="-1.1123220">
        <ele>165.9</ele>
        <time>2020-10-12T13:16:15Z</time>
      </trkpt>
      <trkpt lat="38.1764680" lon="-1.1123550">
        <ele>166.0</ele>
        <time>2020-10-12T13:16:18Z</time>
      </trkpt>
      <trkpt lat="38.1762550" lon="-1.1123690">
        <ele>166.2</ele>
        <time>2020-10-12T13:16:21Z</time>
      </trkpt>
      <trkpt lat="38.1760390" lon="-1.1123800">
        <ele>166.4</ele>
        <time>2020-10-12T13:16:24Z</time>
      </trkpt>
      <trkpt lat="38.1758170" lon="-1.1124040">
        <ele>166.5</ele>
        <time>2020-10-12T13:16:27Z</time>
      </trkpt>
      <trkpt lat="38.1755910" lon="-1.1124240">
        <ele>166.7</ele>
        <time>2020-10-12T13:16:30Z</time>
      </trkpt>
      <trkpt lat="38.1753670" lon="-1.1124430">
        <ele>166.8</ele>
        <time>2020-10-12T13:16:33Z</time>
      </trkpt>
      <trkpt lat="38.1751500" lon="-1.1124650">
        <ele>166.8</ele>
        <time>2020-10-12T13:16:36Z</time>
      </trkpt>
      <trkpt lat="38.1749530" lon="-1.1124810">
        <ele>166.9</ele>
        <time>2020-10-12T13:16:39Z</time>
      </trkpt>
      <trkpt lat="38.1747490" lon="-1.1124920">
        <ele>166.9</ele>
        <time>2020-10-12T13:16:42Z</time>
      </trkpt>
      <trkpt lat="38.1745340" lon="-1.1125080">
        <ele>166.9</ele>
        <time>2020-10-12T13:16:45Z</time>
      </trkpt>
      <trkpt lat="38.1743250" lon="-1.1125280">
        <ele>166.8</ele>
        <time>2020-10-12T13:16:48Z</time>
      </trkpt>
      <trkpt lat="38.1741160" lon="-1.1125470">
        <ele>166.8</ele>
        <time>2020-10-12T13:16:51Z</time>
      </trkpt>
      <trkpt lat="38.1738980" lon="-1.1125630">
        <ele>166.4</ele>
        <time>2020-10-12T13:16:54Z</time>
      </trkpt>
      <trkpt lat="38.1736790" lon="-1.1125870">
        <ele>165.6</ele>
        <time>2020-10-12T13:16:57Z</time>
      </trkpt>
      <trkpt lat="38.1734600" lon="-1.1126030">
        <ele>165.1</ele>
        <time>2020-10-12T13:17:00Z</time>
      </trkpt>
      <trkpt lat="38.1732480" lon="-1.1126230">
        <ele>164.7</ele>
        <time>2020-10-12T13:17:03Z</time>
      </trkpt>
      <trkpt lat="38.1730360" lon="-1.1126450">
        <ele>164.3</ele>
        <time>2020-10-12T13:17:06Z</time>
      </trkpt>
      <trkpt lat="38.1728040" lon="-1.1126630">
        <ele>164.0</ele>
        <time>2020-10-12T13:17:09Z</time>
      </trkpt>
      <trkpt lat="38.1725750" lon="-1.1127040">
        <ele>163.6</ele>
        <time>2020-10-12T13:17:12Z</time>
      </trkpt>
      <trkpt lat="38.1723380" lon="-1.1127480">
        <ele>163.3</ele>
        <time>2020-10-12T13:17:15Z</time>
      </trkpt>
      <trkpt lat="38.1720990" lon="-1.1127890">
        <ele>163.1</ele>
        <time>2020-10-12T13:17:18Z</time>
      </trkpt>
      <trkpt lat="38.1718610" lon="-1.1128130">
        <ele>163.1</ele>
        <time>2020-10-12T13:17:21Z</time>
      </trkpt>
      <trkpt lat="38.1716650" lon="-1.1128500">
        <ele>163.1</ele>
        <time>2020-10-12T13:17:24Z</time>
      </trkpt>
      <trkpt lat="38.1714490" lon="-1.1128890">
        <ele>163.0</ele>
        <time>2020-10-12T13:17:27Z</time>
      </trkpt>
      <trkpt lat="38.1712310" lon="-1.1129320">
        <ele>163.2</ele>
        <time>2020-10-12T13:17:30Z</time>
      </trkpt>
      <trkpt lat="38.1710120" lon="-1.1129840">
        <ele>163.3</ele>
        <time>2020-10-12T13:17:33Z</time>
      </trkpt>
      <trkpt lat="38.1707970" lon="-1.1130340">
        <ele>163.7</ele>
        <time>2020-10-12T13:17:36Z</time>
      </trkpt>
      <trkpt lat="38.1705760" lon="-1.1130910">
        <ele>163.2</ele>
        <time>2020-10-12T13:17:39Z</time>
      </trkpt>
      <trkpt lat="38.1703790" lon="-1.1131530">
        <ele>163.0</ele>
        <time>2020-10-12T13:17:42Z</time>
      </trkpt>
      <trkpt lat="38.1701670" lon="-1.1132090">
        <ele>163.1</ele>
        <time>2020-10-12T13:17:45Z</time>
      </trkpt>
      <trkpt lat="38.1699680" lon="-1.1132700">
        <ele>163.3</ele>
        <time>2020-10-12T13:17:48Z</time>
      </trkpt>
      <trkpt lat="38.1697880" lon="-1.1133190">
        <ele>163.6</ele>
        <time>2020-10-12T13:17:51Z</time>
      </trkpt>
      <trkpt lat="38.1695500" lon="-1.1133980">
        <ele>164.1</ele>
        <time>2020-10-12T13:17:55Z</time>
      </trkpt>
      <trkpt lat="38.1693460" lon="-1.1134850">
        <ele>164.6</ele>
        <time>2020-10-12T13:17:58Z</time>
      </trkpt>
      <trkpt lat="38.1691440" lon="-1.1135570">
        <ele>165.6</ele>
        <time>2020-10-12T13:18:01Z</time>
      </trkpt>
      <trkpt lat="38.1689530" lon="-1.1136380">
        <ele>166.2</ele>
        <time>2020-10-12T13:18:04Z</time>
      </trkpt>
      <trkpt lat="38.1687800" lon="-1.1137210">
        <ele>166.5</ele>
        <time>2020-10-12T13:18:07Z</time>
      </trkpt>
      <trkpt lat="38.1686030" lon="-1.1137900">
        <ele>166.9</ele>
        <time>2020-10-12T13:18:10Z</time>
      </trkpt>
      <trkpt lat="38.1684240" lon="-1.1138700">
        <ele>167.3</ele>
        <time>2020-10-12T13:18:13Z</time>
      </trkpt>
      <trkpt lat="38.1682070" lon="-1.1139690">
        <ele>167.8</ele>
        <time>2020-10-12T13:18:17Z</time>
      </trkpt>
      <trkpt lat="38.1679890" lon="-1.1140700">
        <ele>168.4</ele>
        <time>2020-10-12T13:18:21Z</time>
      </trkpt>
      <trkpt lat="38.1677840" lon="-1.1141910">
        <ele>168.9</ele>
        <time>2020-10-12T13:18:25Z</time>
      </trkpt>
      <trkpt lat="38.1675760" lon="-1.1142880">
        <ele>169.5</ele>
        <time>2020-10-12T13:18:29Z</time>
      </trkpt>
      <trkpt lat="38.1673730" lon="-1.1143970">
        <ele>170.0</ele>
        <time>2020-10-12T13:18:33Z</time>
      </trkpt>
      <trkpt lat="38.1671570" lon="-1.1145110">
        <ele>170.5</ele>
        <time>2020-10-12T13:18:37Z</time>
      </trkpt>
      <trkpt lat="38.1669370" lon="-1.1146230">
        <ele>170.9</ele>
        <time>2020-10-12T13:18:41Z</time>
      </trkpt>
      <trkpt lat="38.1667360" lon="-1.1147330">
        <ele>171.2</ele>
        <time>2020-10-12T13:18:45Z</time>
      </trkpt>
      <trkpt lat="38.1665560" lon="-1.1148570">
        <ele>171.4</ele>
        <time>2020-10-12T13:18:49Z</time>
      </trkpt>
      <trkpt lat="38.1663470" lon="-1.1149820">
        <ele>171.6</ele>
        <time>2020-10-12T13:18:53Z</time>
      </trkpt>
      <trkpt lat="38.1661440" lon="-1.1151110">
        <ele>171.7</ele>
        <time>2020-10-12T13:18:57Z</time>
      </trkpt>
      <trkpt lat="38.1659740" lon="-1.1152320">
        <ele>171.8</ele>
        <time>2020-10-12T13:19:01Z</time>
      </trkpt>
      <trkpt lat="38.1658240" lon="-1.1153690">
        <ele>171.8</ele>
        <time>2020-10-12T13:19:09Z</time>
      </trkpt>
      <trkpt lat="38.1656390" lon="-1.1155380">
        <ele>171.7</ele>
        <time>2020-10-12T13:19:12Z</time>
      </trkpt>
      <trkpt lat="38.1654460" lon="-1.1156950">
        <ele>171.6</ele>
        <time>2020-10-12T13:19:14Z</time>
      </trkpt>
      <trkpt lat="38.1652890" lon="-1.1158260">
        <ele>171.4</ele>
        <time>2020-10-12T13:19:16Z</time>
      </trkpt>
      <trkpt lat="38.1650870" lon="-1.1159680">
        <ele>171.1</ele>
        <time>2020-10-12T13:19:19Z</time>
      </trkpt>
      <trkpt lat="38.1649270" lon="-1.1160950">
        <ele>170.8</ele>
        <time>2020-10-12T13:19:22Z</time>
      </trkpt>
      <trkpt lat="38.1647570" lon="-1.1162390">
        <ele>170.3</ele>
        <time>2020-10-12T13:19:25Z</time>
      </trkpt>
      <trkpt lat="38.1645880" lon="-1.1163940">
        <ele>169.8</ele>
        <time>2020-10-12T13:19:28Z</time>
      </trkpt>
      <trkpt lat="38.1644030" lon="-1.1165570">
        <ele>169.3</ele>
        <time>2020-10-12T13:19:31Z</time>
      </trkpt>
      <trkpt lat="38.1642150" lon="-1.1167330">
        <ele>168.5</ele>
        <time>2020-10-12T13:19:34Z</time>
      </trkpt>
      <trkpt lat="38.1640300" lon="-1.1169140">
        <ele>168.0</ele>
        <time>2020-10-12T13:19:37Z</time>
      </trkpt>
      <trkpt lat="38.1638350" lon="-1.1170910">
        <ele>167.5</ele>
        <time>2020-10-12T13:19:40Z</time>
      </trkpt>
      <trkpt lat="38.1636420" lon="-1.1172820">
        <ele>167.2</ele>
        <time>2020-10-12T13:19:43Z</time>
      </trkpt>
      <trkpt lat="38.1634660" lon="-1.1174710">
        <ele>167.0</ele>
        <time>2020-10-12T13:19:46Z</time>
      </trkpt>
      <trkpt lat="38.1632890" lon="-1.1176540">
        <ele>166.9</ele>
        <time>2020-10-12T13:19:49Z</time>
      </trkpt>
      <trkpt lat="38.1631100" lon="-1.1178130">
        <ele>167.0</ele>
        <time>2020-10-12T13:19:52Z</time>
      </trkpt>
      <trkpt lat="38.1629420" lon="-1.1179680">
        <ele>167.5</ele>
        <time>2020-10-12T13:19:55Z</time>
      </trkpt>
      <trkpt lat="38.1627840" lon="-1.1181390">
        <ele>168.0</ele>
        <time>2020-10-12T13:19:58Z</time>
      </trkpt>
      <trkpt lat="38.1626350" lon="-1.1183020">
        <ele>168.5</ele>
        <time>2020-10-12T13:20:01Z</time>
      </trkpt>
      <trkpt lat="38.1624540" lon="-1.1185030">
        <ele>169.0</ele>
        <time>2020-10-12T13:20:05Z</time>
      </trkpt>
      <trkpt lat="38.1623030" lon="-1.1186630">
        <ele>169.5</ele>
        <time>2020-10-12T13:20:08Z</time>
      </trkpt>
      <trkpt lat="38.1621500" lon="-1.1188270">
        <ele>170.0</ele>
        <time>2020-10-12T13:20:11Z</time>
      </trkpt>
      <trkpt lat="38.1619990" lon="-1.1189880">
        <ele>170.5</ele>
        <time>2020-10-12T13:20:14Z</time>
      </trkpt>
      <trkpt lat="38.1618550" lon="-1.1191570">
        <ele>170.9</ele>
        <time>2020-10-12T13:20:17Z</time>
      </trkpt>
      <trkpt lat="38.1617060" lon="-1.1193140">
        <ele>171.2</ele>
        <time>2020-10-12T13:20:20Z</time>
      </trkpt>
      <trkpt lat="38.1615610" lon="-1.1194690">
        <ele>171.4</ele>
        <time>2020-10-12T13:20:23Z</time>
      </trkpt>
      <trkpt lat="38.1614190" lon="-1.1196170">
        <ele>171.6</ele>
        <time>2020-10-12T13:20:26Z</time>
      </trkpt>
      <trkpt lat="38.1612830" lon="-1.1197740">
        <ele>171.6</ele>
        <time>2020-10-12T13:20:29Z</time>
      </trkpt>
      <trkpt lat="38.1611410" lon="-1.1199450">
        <ele>171.7</ele>
        <time>2020-10-12T13:20:32Z</time>
      </trkpt>
      <trkpt lat="38.1610050" lon="-1.1201060">
        <ele>171.7</ele>
        <time>2020-10-12T13:20:35Z</time>
      </trkpt>
      <trkpt lat="38.1608640" lon="-1.1202700">
        <ele>171.6</ele>
        <time>2020-10-12T13:20:38Z</time>
      </trkpt>
      <trkpt lat="38.1607050" lon="-1.1204340">
        <ele>171.3</ele>
        <time>2020-10-12T13:20:41Z</time>
      </trkpt>
      <trkpt lat="38.1605340" lon="-1.1206210">
        <ele>170.9</ele>
        <time>2020-10-12T13:20:44Z</time>
      </trkpt>
      <trkpt lat="38.1603580" lon="-1.1207980">
        <ele>170.5</ele>
        <time>2020-10-12T13:20:47Z</time>
      </trkpt>
      <trkpt lat="38.1601810" lon="-1.1209710">
        <ele>170.0</ele>
        <time>2020-10-12T13:20:50Z</time>
      </trkpt>
      <trkpt lat="38.1599910" lon="-1.1211480">
        <ele>169.4</ele>
        <time>2020-10-12T13:20:53Z</time>
      </trkpt>
      <trkpt lat="38.1597790" lon="-1.1212990">
        <ele>168.6</ele>
        <time>2020-10-12T13:20:56Z</time>
      </trkpt>
      <trkpt lat="38.1595600" lon="-1.1214440">
        <ele>167.8</ele>
        <time>2020-10-12T13:20:59Z</time>
      </trkpt>
      <trkpt lat="38.1593290" lon="-1.1215740">
        <ele>167.0</ele>
        <time>2020-10-12T13:21:02Z</time>
      </trkpt>
      <trkpt lat="38.1590990" lon="-1.1217070">
        <ele>166.3</ele>
        <time>2020-10-12T13:21:05Z</time>
      </trkpt>
      <trkpt lat="38.1588690" lon="-1.1218160">
        <ele>165.7</ele>
        <time>2020-10-12T13:21:08Z</time>
      </trkpt>
      <trkpt lat="38.1586370" lon="-1.1218860">
        <ele>165.1</ele>
        <time>2020-10-12T13:21:11Z</time>
      </trkpt>
      <trkpt lat="38.1583790" lon="-1.1219260">
        <ele>164.5</ele>
        <time>2020-10-12T13:21:14Z</time>
      </trkpt>
      <trkpt lat="38.1581370" lon="-1.1219600">
        <ele>164.0</ele>
        <time>2020-10-12T13:21:17Z</time>
      </trkpt>
      <trkpt lat="38.1578740" lon="-1.1219840">
        <ele>163.4</ele>
        <time>2020-10-12T13:21:20Z</time>
      </trkpt>
      <trkpt lat="38.1576940" lon="-1.1219980">
        <ele>163.0</ele>
        <time>2020-10-12T13:21:22Z</time>
      </trkpt>
      <trkpt lat="38.1574280" lon="-1.1220120">
        <ele>162.5</ele>
        <time>2020-10-12T13:21:25Z</time>
      </trkpt>
      <trkpt lat="38.1571750" lon="-1.1220120">
        <ele>162.0</ele>
        <time>2020-10-12T13:21:28Z</time>
      </trkpt>
      <trkpt lat="38.1569190" lon="-1.1219930">
        <ele>161.4</ele>
        <time>2020-10-12T13:21:31Z</time>
      </trkpt>
      <trkpt lat="38.1566620" lon="-1.1219960">
        <ele>160.9</ele>
        <time>2020-10-12T13:21:34Z</time>
      </trkpt>
      <trkpt lat="38.1564070" lon="-1.1219940">
        <ele>160.4</ele>
        <time>2020-10-12T13:21:37Z</time>
      </trkpt>
      <trkpt lat="38.1561710" lon="-1.1219950">
        <ele>159.9</ele>
        <time>2020-10-12T13:21:40Z</time>
      </trkpt>
      <trkpt lat="38.1559470" lon="-1.1219890">
        <ele>159.5</ele>
        <time>2020-10-12T13:21:43Z</time>
      </trkpt>
      <trkpt lat="38.1557140" lon="-1.1219900">
        <ele>158.9</ele>
        <time>2020-10-12T13:21:46Z</time>
      </trkpt>
      <trkpt lat="38.1554790" lon="-1.1219850">
        <ele>158.3</ele>
        <time>2020-10-12T13:21:49Z</time>
      </trkpt>
      <trkpt lat="38.1552400" lon="-1.1219830">
        <ele>158.0</ele>
        <time>2020-10-12T13:21:52Z</time>
      </trkpt>
      <trkpt lat="38.1549950" lon="-1.1219640">
        <ele>157.8</ele>
        <time>2020-10-12T13:21:55Z</time>
      </trkpt>
      <trkpt lat="38.1547480" lon="-1.1219300">
        <ele>157.2</ele>
        <time>2020-10-12T13:21:58Z</time>
      </trkpt>
      <trkpt lat="38.1544940" lon="-1.1218810">
        <ele>156.6</ele>
        <time>2020-10-12T13:22:01Z</time>
      </trkpt>
      <trkpt lat="38.1542530" lon="-1.1218040">
        <ele>156.1</ele>
        <time>2020-10-12T13:22:04Z</time>
      </trkpt>
      <trkpt lat="38.1540100" lon="-1.1217270">
        <ele>155.9</ele>
        <time>2020-10-12T13:22:07Z</time>
      </trkpt>
      <trkpt lat="38.1537710" lon="-1.1216520">
        <ele>155.7</ele>
        <time>2020-10-12T13:22:10Z</time>
      </trkpt>
      <trkpt lat="38.1535420" lon="-1.1215490">
        <ele>155.7</ele>
        <time>2020-10-12T13:22:13Z</time>
      </trkpt>
      <trkpt lat="38.1533130" lon="-1.1214540">
        <ele>155.7</ele>
        <time>2020-10-12T13:22:16Z</time>
      </trkpt>
      <trkpt lat="38.1530890" lon="-1.1213570">
        <ele>155.7</ele>
        <time>2020-10-12T13:22:19Z</time>
      </trkpt>
      <trkpt lat="38.1528600" lon="-1.1212720">
        <ele>155.8</ele>
        <time>2020-10-12T13:22:22Z</time>
      </trkpt>
      <trkpt lat="38.1526360" lon="-1.1211800">
        <ele>155.9</ele>
        <time>2020-10-12T13:22:25Z</time>
      </trkpt>
      <trkpt lat="38.1524150" lon="-1.1210990">
        <ele>156.1</ele>
        <time>2020-10-12T13:22:28Z</time>
      </trkpt>
      <trkpt lat="38.1521960" lon="-1.1210200">
        <ele>156.1</ele>
        <time>2020-10-12T13:22:31Z</time>
      </trkpt>
      <trkpt lat="38.1519730" lon="-1.1209340">
        <ele>155.9</ele>
        <time>2020-10-12T13:22:34Z</time>
      </trkpt>
      <trkpt lat="38.1517450" lon="-1.1208390">
        <ele>155.8</ele>
        <time>2020-10-12T13:22:37Z</time>
      </trkpt>
      <trkpt lat="38.1515280" lon="-1.1207470">
        <ele>155.6</ele>
        <time>2020-10-12T13:22:40Z</time>
      </trkpt>
      <trkpt lat="38.1513120" lon="-1.1206530">
        <ele>155.3</ele>
        <time>2020-10-12T13:22:43Z</time>
      </trkpt>
      <trkpt lat="38.1510940" lon="-1.1205790">
        <ele>154.8</ele>
        <time>2020-10-12T13:22:46Z</time>
      </trkpt>
      <trkpt lat="38.1508650" lon="-1.1205400">
        <ele>154.4</ele>
        <time>2020-10-12T13:22:49Z</time>
      </trkpt>
      <trkpt lat="38.1506170" lon="-1.1204740">
        <ele>153.8</ele>
        <time>2020-10-12T13:22:52Z</time>
      </trkpt>
      <trkpt lat="38.1503650" lon="-1.1204440">
        <ele>153.0</ele>
        <time>2020-10-12T13:22:55Z</time>
      </trkpt>
      <trkpt lat="38.1500900" lon="-1.1203960">
        <ele>152.1</ele>
        <time>2020-10-12T13:22:58Z</time>
      </trkpt>
      <trkpt lat="38.1498970" lon="-1.1203810">
        <ele>151.4</ele>
        <time>2020-10-12T13:23:00Z</time>
      </trkpt>
      <trkpt lat="38.1497010" lon="-1.1203530">
        <ele>150.6</ele>
        <time>2020-10-12T13:23:02Z</time>
      </trkpt>
      <trkpt lat="38.1495050" lon="-1.1203520">
        <ele>149.8</ele>
        <time>2020-10-12T13:23:04Z</time>
      </trkpt>
      <trkpt lat="38.1493140" lon="-1.1203780">
        <ele>149.0</ele>
        <time>2020-10-12T13:23:06Z</time>
      </trkpt>
      <trkpt lat="38.1491310" lon="-1.1204090">
        <ele>148.2</ele>
        <time>2020-10-12T13:23:08Z</time>
      </trkpt>
      <trkpt lat="38.1489200" lon="-1.1204520">
        <ele>147.1</ele>
        <time>2020-10-12T13:23:10Z</time>
      </trkpt>
      <trkpt lat="38.1487340" lon="-1.1205100">
        <ele>146.2</ele>
        <time>2020-10-12T13:23:12Z</time>
      </trkpt>
      <trkpt lat="38.1485450" lon="-1.1205850">
        <ele>145.4</ele>
        <time>2020-10-12T13:23:14Z</time>
      </trkpt>
      <trkpt lat="38.1483590" lon="-1.1206760">
        <ele>144.7</ele>
        <time>2020-10-12T13:23:16Z</time>
      </trkpt>
      <trkpt lat="38.1481130" lon="-1.1208180">
        <ele>143.9</ele>
        <time>2020-10-12T13:23:19Z</time>
      </trkpt>
      <trkpt lat="38.1479470" lon="-1.1209410">
        <ele>143.5</ele>
        <time>2020-10-12T13:23:21Z</time>
      </trkpt>
      <trkpt lat="38.1477980" lon="-1.1210750">
        <ele>143.3</ele>
        <time>2020-10-12T13:23:23Z</time>
      </trkpt>
      <trkpt lat="38.1475970" lon="-1.1212780">
        <ele>143.0</ele>
        <time>2020-10-12T13:23:26Z</time>
      </trkpt>
      <trkpt lat="38.1474210" lon="-1.1215010">
        <ele>143.0</ele>
        <time>2020-10-12T13:23:29Z</time>
      </trkpt>
      <trkpt lat="38.1472520" lon="-1.1217130">
        <ele>143.2</ele>
        <time>2020-10-12T13:23:32Z</time>
      </trkpt>
      <trkpt lat="38.1471000" lon="-1.1219150">
        <ele>143.6</ele>
        <time>2020-10-12T13:23:35Z</time>
      </trkpt>
      <trkpt lat="38.1469910" lon="-1.1221500">
        <ele>143.9</ele>
        <time>2020-10-12T13:23:38Z</time>
      </trkpt>
      <trkpt lat="38.1469510" lon="-1.1224030">
        <ele>144.1</ele>
        <time>2020-10-12T13:23:41Z</time>
      </trkpt>
      <trkpt lat="38.1469700" lon="-1.1226400">
        <ele>144.2</ele>
        <time>2020-10-12T13:23:44Z</time>
      </trkpt>
      <trkpt lat="38.1469040" lon="-1.1228620">
        <ele>144.2</ele>
        <time>2020-10-12T13:23:47Z</time>
      </trkpt>
      <trkpt lat="38.1467570" lon="-1.1230300">
        <ele>145.1</ele>
        <time>2020-10-12T13:23:50Z</time>
      </trkpt>
      <trkpt lat="38.1465580" lon="-1.1231230">
        <ele>145.0</ele>
        <time>2020-10-12T13:23:53Z</time>
      </trkpt>
      <trkpt lat="38.1463800" lon="-1.1232260">
        <ele>146.1</ele>
        <time>2020-10-12T13:23:56Z</time>
      </trkpt>
      <trkpt lat="38.1462690" lon="-1.1234250">
        <ele>147.7</ele>
        <time>2020-10-12T13:23:59Z</time>
      </trkpt>
      <trkpt lat="38.1461940" lon="-1.1236440">
        <ele>149.3</ele>
        <time>2020-10-12T13:24:02Z</time>
      </trkpt>
      <trkpt lat="38.1461450" lon="-1.1238950">
        <ele>150.5</ele>
        <time>2020-10-12T13:24:06Z</time>
      </trkpt>
      <trkpt lat="38.1460900" lon="-1.1241710">
        <ele>151.6</ele>
        <time>2020-10-12T13:24:10Z</time>
      </trkpt>
      <trkpt lat="38.1460200" lon="-1.1244570">
        <ele>152.5</ele>
        <time>2020-10-12T13:24:14Z</time>
      </trkpt>
      <trkpt lat="38.1459370" lon="-1.1247240">
        <ele>153.4</ele>
        <time>2020-10-12T13:24:18Z</time>
      </trkpt>
      <trkpt lat="38.1458650" lon="-1.1249830">
        <ele>154.0</ele>
        <time>2020-10-12T13:24:22Z</time>
      </trkpt>
      <trkpt lat="38.1458120" lon="-1.1252550">
        <ele>154.6</ele>
        <time>2020-10-12T13:24:26Z</time>
      </trkpt>
      <trkpt lat="38.1457380" lon="-1.1255250">
        <ele>155.0</ele>
        <time>2020-10-12T13:24:30Z</time>
      </trkpt>
      <trkpt lat="38.1456740" lon="-1.1257960">
        <ele>155.3</ele>
        <time>2020-10-12T13:24:34Z</time>
      </trkpt>
      <trkpt lat="38.1455910" lon="-1.1260660">
        <ele>155.5</ele>
        <time>2020-10-12T13:24:38Z</time>
      </trkpt>
      <trkpt lat="38.1455000" lon="-1.1263270">
        <ele>155.5</ele>
        <time>2020-10-12T13:24:42Z</time>
      </trkpt>
      <trkpt lat="38.1453930" lon="-1.1265720">
        <ele>155.5</ele>
        <time>2020-10-12T13:24:46Z</time>
      </trkpt>
      <trkpt lat="38.1452520" lon="-1.1267860">
        <ele>155.2</ele>
        <time>2020-10-12T13:24:50Z</time>
      </trkpt>
      <trkpt lat="38.1450470" lon="-1.1269550">
        <ele>155.0</ele>
        <time>2020-10-12T13:24:54Z</time>
      </trkpt>
      <trkpt lat="38.1448610" lon="-1.1270580">
        <ele>154.8</ele>
        <time>2020-10-12T13:24:57Z</time>
      </trkpt>
      <trkpt lat="38.1446650" lon="-1.1271650">
        <ele>154.5</ele>
        <time>2020-10-12T13:25:00Z</time>
      </trkpt>
      <trkpt lat="38.1444880" lon="-1.1272760">
        <ele>154.3</ele>
        <time>2020-10-12T13:25:03Z</time>
      </trkpt>
      <trkpt lat="38.1443250" lon="-1.1273870">
        <ele>154.1</ele>
        <time>2020-10-12T13:25:06Z</time>
      </trkpt>
      <trkpt lat="38.1441670" lon="-1.1275250">
        <ele>153.9</ele>
        <time>2020-10-12T13:25:09Z</time>
      </trkpt>
      <trkpt lat="38.1440220" lon="-1.1276920">
        <ele>153.6</ele>
        <time>2020-10-12T13:25:12Z</time>
      </trkpt>
      <trkpt lat="38.1438830" lon="-1.1278830">
        <ele>153.4</ele>
        <time>2020-10-12T13:25:15Z</time>
      </trkpt>
      <trkpt lat="38.1437540" lon="-1.1280530">
        <ele>153.2</ele>
        <time>2020-10-12T13:25:18Z</time>
      </trkpt>
      <trkpt lat="38.1435960" lon="-1.1282090">
        <ele>153.1</ele>
        <time>2020-10-12T13:25:21Z</time>
      </trkpt>
      <trkpt lat="38.1434230" lon="-1.1283400">
        <ele>153.0</ele>
        <time>2020-10-12T13:25:24Z</time>
      </trkpt>
      <trkpt lat="38.1432280" lon="-1.1284380">
        <ele>152.9</ele>
        <time>2020-10-12T13:25:27Z</time>
      </trkpt>
      <trkpt lat="38.1430280" lon="-1.1285320">
        <ele>152.7</ele>
        <time>2020-10-12T13:25:30Z</time>
      </trkpt>
      <trkpt lat="38.1428220" lon="-1.1286290">
        <ele>152.5</ele>
        <time>2020-10-12T13:25:33Z</time>
      </trkpt>
      <trkpt lat="38.1426200" lon="-1.1287230">
        <ele>152.4</ele>
        <time>2020-10-12T13:25:36Z</time>
      </trkpt>
      <trkpt lat="38.1424170" lon="-1.1288290">
        <ele>152.1</ele>
        <time>2020-10-12T13:25:39Z</time>
      </trkpt>
      <trkpt lat="38.1422250" lon="-1.1289640">
        <ele>151.9</ele>
        <time>2020-10-12T13:25:42Z</time>
      </trkpt>
      <trkpt lat="38.1420690" lon="-1.1291210">
        <ele>151.8</ele>
        <time>2020-10-12T13:25:45Z</time>
      </trkpt>
      <trkpt lat="38.1419220" lon="-1.1292900">
        <ele>151.7</ele>
        <time>2020-10-12T13:25:48Z</time>
      </trkpt>
      <trkpt lat="38.1417670" lon="-1.1294770">
        <ele>151.5</ele>
        <time>2020-10-12T13:25:51Z</time>
      </trkpt>
      <trkpt lat="38.1416250" lon="-1.1296800">
        <ele>151.5</ele>
        <time>2020-10-12T13:25:54Z</time>
      </trkpt>
      <trkpt lat="38.1414980" lon="-1.1299030">
        <ele>151.4</ele>
        <time>2020-10-12T13:25:57Z</time>
      </trkpt>
      <trkpt lat="38.1413740" lon="-1.1301330">
        <ele>151.4</ele>
        <time>2020-10-12T13:26:00Z</time>
      </trkpt>
      <trkpt lat="38.1412740" lon="-1.1303770">
        <ele>151.3</ele>
        <time>2020-10-12T13:26:03Z</time>
      </trkpt>
      <trkpt lat="38.1411500" lon="-1.1306100">
        <ele>151.1</ele>
        <time>2020-10-12T13:26:06Z</time>
      </trkpt>
      <trkpt lat="38.1410400" lon="-1.1308300">
        <ele>151.0</ele>
        <time>2020-10-12T13:26:09Z</time>
      </trkpt>
      <trkpt lat="38.1409260" lon="-1.1310500">
        <ele>150.8</ele>
        <time>2020-10-12T13:26:12Z</time>
      </trkpt>
      <trkpt lat="38.1408050" lon="-1.1312570">
        <ele>150.6</ele>
        <time>2020-10-12T13:26:15Z</time>
      </trkpt>
      <trkpt lat="38.1406670" lon="-1.1314480">
        <ele>150.1</ele>
        <time>2020-10-12T13:26:18Z</time>
      </trkpt>
      <trkpt lat="38.1405040" lon="-1.1316170">
        <ele>149.4</ele>
        <time>2020-10-12T13:26:21Z</time>
      </trkpt>
      <trkpt lat="38.1403250" lon="-1.1317770">
        <ele>148.9</ele>
        <time>2020-10-12T13:26:24Z</time>
      </trkpt>
      <trkpt lat="38.1401410" lon="-1.1319500">
        <ele>148.1</ele>
        <time>2020-10-12T13:26:27Z</time>
      </trkpt>
      <trkpt lat="38.1399480" lon="-1.1321110">
        <ele>147.3</ele>
        <time>2020-10-12T13:26:30Z</time>
      </trkpt>
      <trkpt lat="38.1397560" lon="-1.1322900">
        <ele>146.5</ele>
        <time>2020-10-12T13:26:33Z</time>
      </trkpt>
      <trkpt lat="38.1395840" lon="-1.1325110">
        <ele>145.8</ele>
        <time>2020-10-12T13:26:36Z</time>
      </trkpt>
      <trkpt lat="38.1394220" lon="-1.1327470">
        <ele>145.0</ele>
        <time>2020-10-12T13:26:39Z</time>
      </trkpt>
      <trkpt lat="38.1392770" lon="-1.1329990">
        <ele>144.7</ele>
        <time>2020-10-12T13:26:42Z</time>
      </trkpt>
      <trkpt lat="38.1391700" lon="-1.1332710">
        <ele>144.5</ele>
        <time>2020-10-12T13:26:45Z</time>
      </trkpt>
      <trkpt lat="38.1390820" lon="-1.1335390">
        <ele>144.4</ele>
        <time>2020-10-12T13:26:48Z</time>
      </trkpt>
      <trkpt lat="38.1389870" lon="-1.1338010">
        <ele>144.4</ele>
        <time>2020-10-12T13:26:51Z</time>
      </trkpt>
      <trkpt lat="38.1388760" lon="-1.1340360">
        <ele>144.5</ele>
        <time>2020-10-12T13:26:54Z</time>
      </trkpt>
      <trkpt lat="38.1387820" lon="-1.1342830">
        <ele>144.5</ele>
        <time>2020-10-12T13:26:57Z</time>
      </trkpt>
      <trkpt lat="38.1386780" lon="-1.1345180">
        <ele>144.5</ele>
        <time>2020-10-12T13:27:00Z</time>
      </trkpt>
      <trkpt lat="38.1385550" lon="-1.1347540">
        <ele>144.4</ele>
        <time>2020-10-12T13:27:03Z</time>
      </trkpt>
      <trkpt lat="38.1384310" lon="-1.1349720">
        <ele>144.4</ele>
        <time>2020-10-12T13:27:06Z</time>
      </trkpt>
      <trkpt lat="38.1382910" lon="-1.1351480">
        <ele>144.3</ele>
        <time>2020-10-12T13:27:09Z</time>
      </trkpt>
      <trkpt lat="38.1381310" lon="-1.1353050">
        <ele>144.2</ele>
        <time>2020-10-12T13:27:12Z</time>
      </trkpt>
      <trkpt lat="38.1379640" lon="-1.1354520">
        <ele>144.1</ele>
        <time>2020-10-12T13:27:15Z</time>
      </trkpt>
      <trkpt lat="38.1377960" lon="-1.1355560">
        <ele>144.1</ele>
        <time>2020-10-12T13:27:18Z</time>
      </trkpt>
      <trkpt lat="38.1376070" lon="-1.1356250">
        <ele>144.0</ele>
        <time>2020-10-12T13:27:21Z</time>
      </trkpt>
      <trkpt lat="38.1374090" lon="-1.1356460">
        <ele>143.9</ele>
        <time>2020-10-12T13:27:24Z</time>
      </trkpt>
      <trkpt lat="38.1371970" lon="-1.1356600">
        <ele>143.8</ele>
        <time>2020-10-12T13:27:27Z</time>
      </trkpt>
      <trkpt lat="38.1369860" lon="-1.1356040">
        <ele>143.6</ele>
        <time>2020-10-12T13:27:30Z</time>
      </trkpt>
      <trkpt lat="38.1367730" lon="-1.1355000">
        <ele>143.6</ele>
        <time>2020-10-12T13:27:33Z</time>
      </trkpt>
      <trkpt lat="38.1365660" lon="-1.1353460">
        <ele>143.4</ele>
        <time>2020-10-12T13:27:36Z</time>
      </trkpt>
      <trkpt lat="38.1363670" lon="-1.1351810">
        <ele>143.0</ele>
        <time>2020-10-12T13:27:39Z</time>
      </trkpt>
      <trkpt lat="38.1361620" lon="-1.1349950">
        <ele>142.5</ele>
        <time>2020-10-12T13:27:42Z</time>
      </trkpt>
      <trkpt lat="38.1359550" lon="-1.1348400">
        <ele>141.9</ele>
        <time>2020-10-12T13:27:45Z</time>
      </trkpt>
      <trkpt lat="38.1357260" lon="-1.1347030">
        <ele>140.9</ele>
        <time>2020-10-12T13:27:48Z</time>
      </trkpt>
      <trkpt lat="38.1354700" lon="-1.1346620">
        <ele>139.4</ele>
        <time>2020-10-12T13:27:51Z</time>
      </trkpt>
      <trkpt lat="38.1352890" lon="-1.1346750">
        <ele>138.1</ele>
        <time>2020-10-12T13:27:53Z</time>
      </trkpt>
      <trkpt lat="38.1351040" lon="-1.1347130">
        <ele>136.2</ele>
        <time>2020-10-12T13:27:55Z</time>
      </trkpt>
      <trkpt lat="38.1349280" lon="-1.1347920">
        <ele>134.9</ele>
        <time>2020-10-12T13:27:57Z</time>
      </trkpt>
      <trkpt lat="38.1347370" lon="-1.1348800">
        <ele>133.0</ele>
        <time>2020-10-12T13:27:59Z</time>
      </trkpt>
      <trkpt lat="38.1345280" lon="-1.1349520">
        <ele>131.2</ele>
        <time>2020-10-12T13:28:01Z</time>
      </trkpt>
      <trkpt lat="38.1343430" lon="-1.1350370">
        <ele>129.7</ele>
        <time>2020-10-12T13:28:03Z</time>
      </trkpt>
      <trkpt lat="38.1341480" lon="-1.1351130">
        <ele>128.6</ele>
        <time>2020-10-12T13:28:05Z</time>
      </trkpt>
      <trkpt lat="38.1339580" lon="-1.1351670">
        <ele>127.8</ele>
        <time>2020-10-12T13:28:07Z</time>
      </trkpt>
      <trkpt lat="38.1337680" lon="-1.1351910">
        <ele>127.1</ele>
        <time>2020-10-12T13:28:09Z</time>
      </trkpt>
      <trkpt lat="38.1335690" lon="-1.1351930">
        <ele>126.7</ele>
        <time>2020-10-12T13:28:11Z</time>
      </trkpt>
      <trkpt lat="38.1333860" lon="-1.1351900">
        <ele>126.4</ele>
        <time>2020-10-12T13:28:13Z</time>
      </trkpt>
      <trkpt lat="38.1331910" lon="-1.1352190">
        <ele>126.4</ele>
        <time>2020-10-12T13:28:15Z</time>
      </trkpt>
      <trkpt lat="38.1330070" lon="-1.1352510">
        <ele>126.4</ele>
        <time>2020-10-12T13:28:17Z</time>
      </trkpt>
      <trkpt lat="38.1328240" lon="-1.1353120">
        <ele>126.5</ele>
        <time>2020-10-12T13:28:19Z</time>
      </trkpt>
      <trkpt lat="38.1325910" lon="-1.1354430">
        <ele>126.8</ele>
        <time>2020-10-12T13:28:22Z</time>
      </trkpt>
      <trkpt lat="38.1324020" lon="-1.1356340">
        <ele>127.1</ele>
        <time>2020-10-12T13:28:25Z</time>
      </trkpt>
      <trkpt lat="38.1322660" lon="-1.1358430">
        <ele>127.2</ele>
        <time>2020-10-12T13:28:28Z</time>
      </trkpt>
      <trkpt lat="38.1321720" lon="-1.1360970">
        <ele>127.3</ele>
        <time>2020-10-12T13:28:31Z</time>
      </trkpt>
      <trkpt lat="38.1320940" lon="-1.1363520">
        <ele>127.2</ele>
        <time>2020-10-12T13:28:34Z</time>
      </trkpt>
      <trkpt lat="38.1320070" lon="-1.1366070">
        <ele>126.9</ele>
        <time>2020-10-12T13:28:37Z</time>
      </trkpt>
      <trkpt lat="38.1319160" lon="-1.1368670">
        <ele>126.6</ele>
        <time>2020-10-12T13:28:40Z</time>
      </trkpt>
      <trkpt lat="38.1318060" lon="-1.1371450">
        <ele>126.2</ele>
        <time>2020-10-12T13:28:43Z</time>
      </trkpt>
      <trkpt lat="38.1317260" lon="-1.1374040">
        <ele>126.1</ele>
        <time>2020-10-12T13:28:46Z</time>
      </trkpt>
      <trkpt lat="38.1316420" lon="-1.1376690">
        <ele>125.9</ele>
        <time>2020-10-12T13:28:49Z</time>
      </trkpt>
      <trkpt lat="38.1315470" lon="-1.1379380">
        <ele>125.1</ele>
        <time>2020-10-12T13:28:52Z</time>
      </trkpt>
      <trkpt lat="38.1314340" lon="-1.1381930">
        <ele>124.5</ele>
        <time>2020-10-12T13:28:55Z</time>
      </trkpt>
      <trkpt lat="38.1313160" lon="-1.1384330">
        <ele>124.2</ele>
        <time>2020-10-12T13:28:58Z</time>
      </trkpt>
      <trkpt lat="38.1311840" lon="-1.1386640">
        <ele>124.0</ele>
        <time>2020-10-12T13:29:01Z</time>
      </trkpt>
      <trkpt lat="38.1310330" lon="-1.1388700">
        <ele>124.1</ele>
        <time>2020-10-12T13:29:04Z</time>
      </trkpt>
      <trkpt lat="38.1308740" lon="-1.1390470">
        <ele>124.6</ele>
        <time>2020-10-12T13:29:07Z</time>
      </trkpt>
      <trkpt lat="38.1307040" lon="-1.1391970">
        <ele>125.2</ele>
        <time>2020-10-12T13:29:10Z</time>
      </trkpt>
      <trkpt lat="38.1305200" lon="-1.1393080">
        <ele>126.2</ele>
        <time>2020-10-12T13:29:13Z</time>
      </trkpt>
      <trkpt lat="38.1303500" lon="-1.1394140">
        <ele>127.1</ele>
        <time>2020-10-12T13:29:16Z</time>
      </trkpt>
      <trkpt lat="38.1301410" lon="-1.1395220">
        <ele>128.3</ele>
        <time>2020-10-12T13:29:20Z</time>
      </trkpt>
      <trkpt lat="38.1299550" lon="-1.1396610">
        <ele>129.3</ele>
        <time>2020-10-12T13:29:24Z</time>
      </trkpt>
      <trkpt lat="38.1297710" lon="-1.1398170">
        <ele>130.4</ele>
        <time>2020-10-12T13:29:28Z</time>
      </trkpt>
      <trkpt lat="38.1296310" lon="-1.1400030">
        <ele>131.2</ele>
        <time>2020-10-12T13:29:32Z</time>
      </trkpt>
      <trkpt lat="38.1294850" lon="-1.1401990">
        <ele>131.9</ele>
        <time>2020-10-12T13:29:36Z</time>
      </trkpt>
      <trkpt lat="38.1293490" lon="-1.1403920">
        <ele>132.6</ele>
        <time>2020-10-12T13:29:40Z</time>
      </trkpt>
      <trkpt lat="38.1292290" lon="-1.1405920">
        <ele>133.3</ele>
        <time>2020-10-12T13:29:44Z</time>
      </trkpt>
      <trkpt lat="38.1291140" lon="-1.1408100">
        <ele>134.1</ele>
        <time>2020-10-12T13:29:48Z</time>
      </trkpt>
      <trkpt lat="38.1290260" lon="-1.1410460">
        <ele>134.8</ele>
        <time>2020-10-12T13:29:52Z</time>
      </trkpt>
      <trkpt lat="38.1289700" lon="-1.1413010">
        <ele>135.3</ele>
        <time>2020-10-12T13:29:56Z</time>
      </trkpt>
      <trkpt lat="38.1289140" lon="-1.1415390">
        <ele>135.8</ele>
        <time>2020-10-12T13:30:00Z</time>
      </trkpt>
      <trkpt lat="38.1288410" lon="-1.1418140">
        <ele>136.6</ele>
        <time>2020-10-12T13:30:05Z</time>
      </trkpt>
      <trkpt lat="38.1287840" lon="-1.1420390">
        <ele>137.1</ele>
        <time>2020-10-12T13:30:11Z</time>
      </trkpt>
      <trkpt lat="38.1286930" lon="-1.1422750">
        <ele>137.5</ele>
        <time>2020-10-12T13:30:17Z</time>
      </trkpt>
      <trkpt lat="38.1285970" lon="-1.1424890">
        <ele>137.8</ele>
        <time>2020-10-12T13:30:20Z</time>
      </trkpt>
      <trkpt lat="38.1285000" lon="-1.1426900">
        <ele>138.0</ele>
        <time>2020-10-12T13:30:23Z</time>
      </trkpt>
      <trkpt lat="38.1283710" lon="-1.1429190">
        <ele>138.3</ele>
        <time>2020-10-12T13:30:27Z</time>
      </trkpt>
      <trkpt lat="38.1282280" lon="-1.1431300">
        <ele>138.5</ele>
        <time>2020-10-12T13:30:31Z</time>
      </trkpt>
      <trkpt lat="38.1280610" lon="-1.1433380">
        <ele>138.8</ele>
        <time>2020-10-12T13:30:35Z</time>
      </trkpt>
      <trkpt lat="38.1279300" lon="-1.1435120">
        <ele>139.1</ele>
        <time>2020-10-12T13:30:38Z</time>
      </trkpt>
      <trkpt lat="38.1278000" lon="-1.1436770">
        <ele>139.4</ele>
        <time>2020-10-12T13:30:41Z</time>
      </trkpt>
      <trkpt lat="38.1276490" lon="-1.1438840">
        <ele>139.7</ele>
        <time>2020-10-12T13:30:45Z</time>
      </trkpt>
      <trkpt lat="38.1275210" lon="-1.1441050">
        <ele>139.7</ele>
        <time>2020-10-12T13:30:49Z</time>
      </trkpt>
      <trkpt lat="38.1274200" lon="-1.1443500">
        <ele>139.7</ele>
        <time>2020-10-12T13:30:53Z</time>
      </trkpt>
      <trkpt lat="38.1273310" lon="-1.1446140">
        <ele>139.8</ele>
        <time>2020-10-12T13:30:57Z</time>
      </trkpt>
      <trkpt lat="38.1272580" lon="-1.1448920">
        <ele>140.1</ele>
        <time>2020-10-12T13:31:01Z</time>
      </trkpt>
      <trkpt lat="38.1271920" lon="-1.1451620">
        <ele>140.3</ele>
        <time>2020-10-12T13:31:05Z</time>
      </trkpt>
      <trkpt lat="38.1271110" lon="-1.1454370">
        <ele>140.4</ele>
        <time>2020-10-12T13:31:09Z</time>
      </trkpt>
      <trkpt lat="38.1270540" lon="-1.1457110">
        <ele>140.5</ele>
        <time>2020-10-12T13:31:13Z</time>
      </trkpt>
      <trkpt lat="38.1270210" lon="-1.1459860">
        <ele>140.8</ele>
        <time>2020-10-12T13:31:17Z</time>
      </trkpt>
      <trkpt lat="38.1270340" lon="-1.1462860">
        <ele>141.0</ele>
        <time>2020-10-12T13:31:21Z</time>
      </trkpt>
      <trkpt lat="38.1270580" lon="-1.1465620">
        <ele>141.2</ele>
        <time>2020-10-12T13:31:25Z</time>
      </trkpt>
      <trkpt lat="38.1271060" lon="-1.1468340">
        <ele>141.4</ele>
        <time>2020-10-12T13:31:29Z</time>
      </trkpt>
      <trkpt lat="38.1271530" lon="-1.1471050">
        <ele>141.6</ele>
        <time>2020-10-12T13:31:33Z</time>
      </trkpt>
      <trkpt lat="38.1271940" lon="-1.1473780">
        <ele>141.8</ele>
        <time>2020-10-12T13:31:37Z</time>
      </trkpt>
      <trkpt lat="38.1272290" lon="-1.1476520">
        <ele>142.1</ele>
        <time>2020-10-12T13:31:41Z</time>
      </trkpt>
      <trkpt lat="38.1272410" lon="-1.1479570">
        <ele>142.4</ele>
        <time>2020-10-12T13:31:45Z</time>
      </trkpt>
      <trkpt lat="38.1272160" lon="-1.1482590">
        <ele>142.7</ele>
        <time>2020-10-12T13:31:49Z</time>
      </trkpt>
      <trkpt lat="38.1271470" lon="-1.1485270">
        <ele>143.0</ele>
        <time>2020-10-12T13:31:53Z</time>
      </trkpt>
      <trkpt lat="38.1270540" lon="-1.1487840">
        <ele>143.5</ele>
        <time>2020-10-12T13:31:57Z</time>
      </trkpt>
      <trkpt lat="38.1269620" lon="-1.1489920">
        <ele>144.0</ele>
        <time>2020-10-12T13:32:00Z</time>
      </trkpt>
      <trkpt lat="38.1268150" lon="-1.1492130">
        <ele>144.5</ele>
        <time>2020-10-12T13:32:04Z</time>
      </trkpt>
      <trkpt lat="38.1266380" lon="-1.1494090">
        <ele>144.5</ele>
        <time>2020-10-12T13:32:08Z</time>
      </trkpt>
      <trkpt lat="38.1264610" lon="-1.1495820">
        <ele>144.8</ele>
        <time>2020-10-12T13:32:12Z</time>
      </trkpt>
      <trkpt lat="38.1262790" lon="-1.1497520">
        <ele>145.1</ele>
        <time>2020-10-12T13:32:16Z</time>
      </trkpt>
      <trkpt lat="38.1261260" lon="-1.1499330">
        <ele>145.4</ele>
        <time>2020-10-12T13:32:20Z</time>
      </trkpt>
      <trkpt lat="38.1259820" lon="-1.1501430">
        <ele>145.6</ele>
        <time>2020-10-12T13:32:24Z</time>
      </trkpt>
      <trkpt lat="38.1258790" lon="-1.1503330">
        <ele>145.6</ele>
        <time>2020-10-12T13:32:27Z</time>
      </trkpt>
      <trkpt lat="38.1257580" lon="-1.1505870">
        <ele>145.4</ele>
        <time>2020-10-12T13:32:31Z</time>
      </trkpt>
      <trkpt lat="38.1256650" lon="-1.1507880">
        <ele>145.3</ele>
        <time>2020-10-12T13:32:34Z</time>
      </trkpt>
      <trkpt lat="38.1255660" lon="-1.1509930">
        <ele>145.2</ele>
        <time>2020-10-12T13:32:37Z</time>
      </trkpt>
      <trkpt lat="38.1254680" lon="-1.1512120">
        <ele>144.4</ele>
        <time>2020-10-12T13:32:40Z</time>
      </trkpt>
      <trkpt lat="38.1253710" lon="-1.1514410">
        <ele>143.6</ele>
        <time>2020-10-12T13:32:43Z</time>
      </trkpt>
      <trkpt lat="38.1252670" lon="-1.1516800">
        <ele>142.9</ele>
        <time>2020-10-12T13:32:46Z</time>
      </trkpt>
      <trkpt lat="38.1251650" lon="-1.1519230">
        <ele>142.2</ele>
        <time>2020-10-12T13:32:49Z</time>
      </trkpt>
      <trkpt lat="38.1250360" lon="-1.1521540">
        <ele>141.6</ele>
        <time>2020-10-12T13:32:52Z</time>
      </trkpt>
      <trkpt lat="38.1248850" lon="-1.1523840">
        <ele>141.1</ele>
        <time>2020-10-12T13:32:55Z</time>
      </trkpt>
      <trkpt lat="38.1247060" lon="-1.1525830">
        <ele>140.9</ele>
        <time>2020-10-12T13:32:58Z</time>
      </trkpt>
      <trkpt lat="38.1245300" lon="-1.1527480">
        <ele>141.2</ele>
        <time>2020-10-12T13:33:01Z</time>
      </trkpt>
      <trkpt lat="38.1243550" lon="-1.1528920">
        <ele>141.7</ele>
        <time>2020-10-12T13:33:04Z</time>
      </trkpt>
      <trkpt lat="38.1241840" lon="-1.1530070">
        <ele>142.4</ele>
        <time>2020-10-12T13:33:07Z</time>
      </trkpt>
      <trkpt lat="38.1239830" lon="-1.1531190">
        <ele>143.5</ele>
        <time>2020-10-12T13:33:11Z</time>
      </trkpt>
      <trkpt lat="38.1237940" lon="-1.1532190">
        <ele>144.6</ele>
        <time>2020-10-12T13:33:15Z</time>
      </trkpt>
      <trkpt lat="38.1236260" lon="-1.1533080">
        <ele>145.6</ele>
        <time>2020-10-12T13:33:19Z</time>
      </trkpt>
      <trkpt lat="38.1234730" lon="-1.1534300">
        <ele>146.7</ele>
        <time>2020-10-12T13:33:25Z</time>
      </trkpt>
      <trkpt lat="38.1232950" lon="-1.1535070">
        <ele>147.7</ele>
        <time>2020-10-12T13:33:32Z</time>
      </trkpt>
      <trkpt lat="38.1230660" lon="-1.1536400">
        <ele>148.9</ele>
        <time>2020-10-12T13:33:35Z</time>
      </trkpt>
      <trkpt lat="38.1228310" lon="-1.1537610">
        <ele>149.9</ele>
        <time>2020-10-12T13:33:38Z</time>
      </trkpt>
      <trkpt lat="38.1225980" lon="-1.1538810">
        <ele>150.9</ele>
        <time>2020-10-12T13:33:41Z</time>
      </trkpt>
      <trkpt lat="38.1224040" lon="-1.1539840">
        <ele>151.5</ele>
        <time>2020-10-12T13:33:44Z</time>
      </trkpt>
      <trkpt lat="38.1222200" lon="-1.1540850">
        <ele>152.0</ele>
        <time>2020-10-12T13:33:47Z</time>
      </trkpt>
      <trkpt lat="38.1220160" lon="-1.1542130">
        <ele>152.6</ele>
        <time>2020-10-12T13:33:51Z</time>
      </trkpt>
      <trkpt lat="38.1218390" lon="-1.1543140">
        <ele>153.1</ele>
        <time>2020-10-12T13:33:55Z</time>
      </trkpt>
      <trkpt lat="38.1216590" lon="-1.1544210">
        <ele>153.5</ele>
        <time>2020-10-12T13:33:59Z</time>
      </trkpt>
      <trkpt lat="38.1214600" lon="-1.1545290">
        <ele>154.1</ele>
        <time>2020-10-12T13:34:03Z</time>
      </trkpt>
      <trkpt lat="38.1212620" lon="-1.1546350">
        <ele>154.6</ele>
        <time>2020-10-12T13:34:07Z</time>
      </trkpt>
      <trkpt lat="38.1210680" lon="-1.1547440">
        <ele>155.0</ele>
        <time>2020-10-12T13:34:11Z</time>
      </trkpt>
      <trkpt lat="38.1208830" lon="-1.1548530">
        <ele>155.5</ele>
        <time>2020-10-12T13:34:15Z</time>
      </trkpt>
      <trkpt lat="38.1206910" lon="-1.1549800">
        <ele>155.9</ele>
        <time>2020-10-12T13:34:19Z</time>
      </trkpt>
      <trkpt lat="38.1205020" lon="-1.1550840">
        <ele>156.4</ele>
        <time>2020-10-12T13:34:23Z</time>
      </trkpt>
      <trkpt lat="38.1203260" lon="-1.1551790">
        <ele>156.9</ele>
        <time>2020-10-12T13:34:27Z</time>
      </trkpt>
      <trkpt lat="38.1201230" lon="-1.1552800">
        <ele>157.5</ele>
        <time>2020-10-12T13:34:31Z</time>
      </trkpt>
      <trkpt lat="38.1199190" lon="-1.1553910">
        <ele>158.0</ele>
        <time>2020-10-12T13:34:35Z</time>
      </trkpt>
      <trkpt lat="38.1197210" lon="-1.1555110">
        <ele>158.5</ele>
        <time>2020-10-12T13:34:39Z</time>
      </trkpt>
      <trkpt lat="38.1195260" lon="-1.1556160">
        <ele>159.1</ele>
        <time>2020-10-12T13:34:43Z</time>
      </trkpt>
      <trkpt lat="38.1193330" lon="-1.1557190">
        <ele>159.6</ele>
        <time>2020-10-12T13:34:47Z</time>
      </trkpt>
      <trkpt lat="38.1191160" lon="-1.1558240">
        <ele>160.2</ele>
        <time>2020-10-12T13:34:53Z</time>
      </trkpt>
      <trkpt lat="38.1189460" lon="-1.1559180">
        <ele>160.7</ele>
        <time>2020-10-12T13:34:56Z</time>
      </trkpt>
      <trkpt lat="38.1187290" lon="-1.1560440">
        <ele>161.2</ele>
        <time>2020-10-12T13:35:00Z</time>
      </trkpt>
      <trkpt lat="38.1185640" lon="-1.1561410">
        <ele>161.7</ele>
        <time>2020-10-12T13:35:03Z</time>
      </trkpt>
      <trkpt lat="38.1183480" lon="-1.1562490">
        <ele>162.3</ele>
        <time>2020-10-12T13:35:07Z</time>
      </trkpt>
      <trkpt lat="38.1181390" lon="-1.1563440">
        <ele>162.8</ele>
        <time>2020-10-12T13:35:11Z</time>
      </trkpt>
      <trkpt lat="38.1179330" lon="-1.1564510">
        <ele>163.3</ele>
        <time>2020-10-12T13:35:15Z</time>
      </trkpt>
      <trkpt lat="38.1177180" lon="-1.1565740">
        <ele>163.8</ele>
        <time>2020-10-12T13:35:19Z</time>
      </trkpt>
      <trkpt lat="38.1175340" lon="-1.1566860">
        <ele>164.1</ele>
        <time>2020-10-12T13:35:23Z</time>
      </trkpt>
      <trkpt lat="38.1173460" lon="-1.1567910">
        <ele>164.3</ele>
        <time>2020-10-12T13:35:27Z</time>
      </trkpt>
      <trkpt lat="38.1171400" lon="-1.1569200">
        <ele>164.5</ele>
        <time>2020-10-12T13:35:31Z</time>
      </trkpt>
      <trkpt lat="38.1169440" lon="-1.1570980">
        <ele>164.5</ele>
        <time>2020-10-12T13:35:35Z</time>
      </trkpt>
      <trkpt lat="38.1168010" lon="-1.1572660">
        <ele>164.2</ele>
        <time>2020-10-12T13:35:38Z</time>
      </trkpt>
      <trkpt lat="38.1166660" lon="-1.1574570">
        <ele>164.1</ele>
        <time>2020-10-12T13:35:41Z</time>
      </trkpt>
      <trkpt lat="38.1165480" lon="-1.1576610">
        <ele>164.1</ele>
        <time>2020-10-12T13:35:44Z</time>
      </trkpt>
      <trkpt lat="38.1164540" lon="-1.1578800">
        <ele>164.1</ele>
        <time>2020-10-12T13:35:47Z</time>
      </trkpt>
      <trkpt lat="38.1163640" lon="-1.1581110">
        <ele>164.2</ele>
        <time>2020-10-12T13:35:50Z</time>
      </trkpt>
      <trkpt lat="38.1162860" lon="-1.1583390">
        <ele>164.5</ele>
        <time>2020-10-12T13:35:53Z</time>
      </trkpt>
      <trkpt lat="38.1162130" lon="-1.1585540">
        <ele>164.9</ele>
        <time>2020-10-12T13:35:56Z</time>
      </trkpt>
      <trkpt lat="38.1160930" lon="-1.1588000">
        <ele>165.4</ele>
        <time>2020-10-12T13:36:00Z</time>
      </trkpt>
      <trkpt lat="38.1159620" lon="-1.1590050">
        <ele>166.0</ele>
        <time>2020-10-12T13:36:04Z</time>
      </trkpt>
      <trkpt lat="38.1158010" lon="-1.1591790">
        <ele>166.9</ele>
        <time>2020-10-12T13:36:08Z</time>
      </trkpt>
      <trkpt lat="38.1156470" lon="-1.1593430">
        <ele>167.9</ele>
        <time>2020-10-12T13:36:12Z</time>
      </trkpt>
      <trkpt lat="38.1154790" lon="-1.1594770">
        <ele>168.9</ele>
        <time>2020-10-12T13:36:16Z</time>
      </trkpt>
      <trkpt lat="38.1153100" lon="-1.1596200">
        <ele>170.0</ele>
        <time>2020-10-12T13:36:20Z</time>
      </trkpt>
      <trkpt lat="38.1151490" lon="-1.1597520">
        <ele>171.1</ele>
        <time>2020-10-12T13:36:24Z</time>
      </trkpt>
      <trkpt lat="38.1149920" lon="-1.1599040">
        <ele>172.3</ele>
        <time>2020-10-12T13:36:32Z</time>
      </trkpt>
      <trkpt lat="38.1148500" lon="-1.1600510">
        <ele>173.5</ele>
        <time>2020-10-12T13:36:36Z</time>
      </trkpt>
      <trkpt lat="38.1146750" lon="-1.1602360">
        <ele>174.9</ele>
        <time>2020-10-12T13:36:41Z</time>
      </trkpt>
      <trkpt lat="38.1145130" lon="-1.1603960">
        <ele>176.1</ele>
        <time>2020-10-12T13:36:45Z</time>
      </trkpt>
      <trkpt lat="38.1143540" lon="-1.1605470">
        <ele>177.3</ele>
        <time>2020-10-12T13:36:48Z</time>
      </trkpt>
      <trkpt lat="38.1141860" lon="-1.1606790">
        <ele>178.5</ele>
        <time>2020-10-12T13:36:53Z</time>
      </trkpt>
      <trkpt lat="38.1140230" lon="-1.1607940">
        <ele>179.6</ele>
        <time>2020-10-12T13:36:57Z</time>
      </trkpt>
      <trkpt lat="38.1138570" lon="-1.1608940">
        <ele>180.6</ele>
        <time>2020-10-12T13:37:01Z</time>
      </trkpt>
      <trkpt lat="38.1136690" lon="-1.1609790">
        <ele>181.6</ele>
        <time>2020-10-12T13:37:06Z</time>
      </trkpt>
      <trkpt lat="38.1134810" lon="-1.1610430">
        <ele>182.6</ele>
        <time>2020-10-12T13:37:10Z</time>
      </trkpt>
      <trkpt lat="38.1132870" lon="-1.1610840">
        <ele>183.5</ele>
        <time>2020-10-12T13:37:15Z</time>
      </trkpt>
      <trkpt lat="38.1130950" lon="-1.1611090">
        <ele>184.2</ele>
        <time>2020-10-12T13:37:20Z</time>
      </trkpt>
      <trkpt lat="38.1129160" lon="-1.1611430">
        <ele>184.9</ele>
        <time>2020-10-12T13:37:24Z</time>
      </trkpt>
      <trkpt lat="38.1127190" lon="-1.1611910">
        <ele>185.7</ele>
        <time>2020-10-12T13:37:29Z</time>
      </trkpt>
      <trkpt lat="38.1125250" lon="-1.1612500">
        <ele>186.4</ele>
        <time>2020-10-12T13:37:34Z</time>
      </trkpt>
      <trkpt lat="38.1123250" lon="-1.1613090">
        <ele>187.0</ele>
        <time>2020-10-12T13:37:38Z</time>
      </trkpt>
      <trkpt lat="38.1121280" lon="-1.1613660">
        <ele>187.6</ele>
        <time>2020-10-12T13:37:43Z</time>
      </trkpt>
      <trkpt lat="38.1119310" lon="-1.1614170">
        <ele>188.1</ele>
        <time>2020-10-12T13:37:47Z</time>
      </trkpt>
      <trkpt lat="38.1117540" lon="-1.1614810">
        <ele>188.6</ele>
        <time>2020-10-12T13:37:51Z</time>
      </trkpt>
      <trkpt lat="38.1115840" lon="-1.1615690">
        <ele>188.9</ele>
        <time>2020-10-12T13:37:55Z</time>
      </trkpt>
      <trkpt lat="38.1114300" lon="-1.1616870">
        <ele>189.2</ele>
        <time>2020-10-12T13:37:59Z</time>
      </trkpt>
      <trkpt lat="38.1112660" lon="-1.1618710">
        <ele>189.2</ele>
        <time>2020-10-12T13:38:04Z</time>
      </trkpt>
      <trkpt lat="38.1111440" lon="-1.1620480">
        <ele>189.1</ele>
        <time>2020-10-12T13:38:08Z</time>
      </trkpt>
      <trkpt lat="38.1109990" lon="-1.1622520">
        <ele>188.6</ele>
        <time>2020-10-12T13:38:12Z</time>
      </trkpt>
      <trkpt lat="38.1108820" lon="-1.1624310">
        <ele>188.2</ele>
        <time>2020-10-12T13:38:16Z</time>
      </trkpt>
      <trkpt lat="38.1107190" lon="-1.1626510">
        <ele>187.5</ele>
        <time>2020-10-12T13:38:19Z</time>
      </trkpt>
      <trkpt lat="38.1105660" lon="-1.1628620">
        <ele>186.6</ele>
        <time>2020-10-12T13:38:22Z</time>
      </trkpt>
      <trkpt lat="38.1104160" lon="-1.1630780">
        <ele>185.7</ele>
        <time>2020-10-12T13:38:25Z</time>
      </trkpt>
      <trkpt lat="38.1102700" lon="-1.1632910">
        <ele>184.8</ele>
        <time>2020-10-12T13:38:28Z</time>
      </trkpt>
      <trkpt lat="38.1101190" lon="-1.1635170">
        <ele>183.8</ele>
        <time>2020-10-12T13:38:31Z</time>
      </trkpt>
      <trkpt lat="38.1099490" lon="-1.1637450">
        <ele>182.8</ele>
        <time>2020-10-12T13:38:34Z</time>
      </trkpt>
      <trkpt lat="38.1097700" lon="-1.1639660">
        <ele>181.7</ele>
        <time>2020-10-12T13:38:37Z</time>
      </trkpt>
      <trkpt lat="38.1095730" lon="-1.1641750">
        <ele>180.6</ele>
        <time>2020-10-12T13:38:40Z</time>
      </trkpt>
      <trkpt lat="38.1094210" lon="-1.1643110">
        <ele>179.8</ele>
        <time>2020-10-12T13:38:42Z</time>
      </trkpt>
      <trkpt lat="38.1091880" lon="-1.1644620">
        <ele>178.6</ele>
        <time>2020-10-12T13:38:45Z</time>
      </trkpt>
      <trkpt lat="38.1089550" lon="-1.1645930">
        <ele>177.5</ele>
        <time>2020-10-12T13:38:48Z</time>
      </trkpt>
      <trkpt lat="38.1087810" lon="-1.1646720">
        <ele>176.8</ele>
        <time>2020-10-12T13:38:50Z</time>
      </trkpt>
      <trkpt lat="38.1086080" lon="-1.1647550">
        <ele>176.3</ele>
        <time>2020-10-12T13:38:52Z</time>
      </trkpt>
      <trkpt lat="38.1084250" lon="-1.1648490">
        <ele>175.7</ele>
        <time>2020-10-12T13:38:54Z</time>
      </trkpt>
      <trkpt lat="38.1082480" lon="-1.1649420">
        <ele>175.4</ele>
        <time>2020-10-12T13:38:56Z</time>
      </trkpt>
      <trkpt lat="38.1080720" lon="-1.1650430">
        <ele>175.2</ele>
        <time>2020-10-12T13:38:58Z</time>
      </trkpt>
      <trkpt lat="38.1079100" lon="-1.1651570">
        <ele>175.3</ele>
        <time>2020-10-12T13:39:00Z</time>
      </trkpt>
      <trkpt lat="38.1076980" lon="-1.1653300">
        <ele>175.4</ele>
        <time>2020-10-12T13:39:03Z</time>
      </trkpt>
      <trkpt lat="38.1075250" lon="-1.1655210">
        <ele>175.2</ele>
        <time>2020-10-12T13:39:06Z</time>
      </trkpt>
      <trkpt lat="38.1073620" lon="-1.1657300">
        <ele>175.3</ele>
        <time>2020-10-12T13:39:09Z</time>
      </trkpt>
      <trkpt lat="38.1072070" lon="-1.1659550">
        <ele>175.6</ele>
        <time>2020-10-12T13:39:12Z</time>
      </trkpt>
      <trkpt lat="38.1070810" lon="-1.1661920">
        <ele>176.0</ele>
        <time>2020-10-12T13:39:15Z</time>
      </trkpt>
      <trkpt lat="38.1069710" lon="-1.1664370">
        <ele>176.5</ele>
        <time>2020-10-12T13:39:18Z</time>
      </trkpt>
      <trkpt lat="38.1068910" lon="-1.1666670">
        <ele>177.0</ele>
        <time>2020-10-12T13:39:21Z</time>
      </trkpt>
      <trkpt lat="38.1068100" lon="-1.1668880">
        <ele>177.5</ele>
        <time>2020-10-12T13:39:24Z</time>
      </trkpt>
      <trkpt lat="38.1067160" lon="-1.1671060">
        <ele>177.9</ele>
        <time>2020-10-12T13:39:27Z</time>
      </trkpt>
      <trkpt lat="38.1066200" lon="-1.1673220">
        <ele>178.3</ele>
        <time>2020-10-12T13:39:30Z</time>
      </trkpt>
      <trkpt lat="38.1065180" lon="-1.1675520">
        <ele>178.6</ele>
        <time>2020-10-12T13:39:33Z</time>
      </trkpt>
      <trkpt lat="38.1064160" lon="-1.1677700">
        <ele>179.1</ele>
        <time>2020-10-12T13:39:36Z</time>
      </trkpt>
      <trkpt lat="38.1063290" lon="-1.1679830">
        <ele>179.5</ele>
        <time>2020-10-12T13:39:39Z</time>
      </trkpt>
      <trkpt lat="38.1062550" lon="-1.1682030">
        <ele>179.8</ele>
        <time>2020-10-12T13:39:42Z</time>
      </trkpt>
      <trkpt lat="38.1061790" lon="-1.1684250">
        <ele>180.1</ele>
        <time>2020-10-12T13:39:45Z</time>
      </trkpt>
      <trkpt lat="38.1060800" lon="-1.1686470">
        <ele>180.5</ele>
        <time>2020-10-12T13:39:48Z</time>
      </trkpt>
      <trkpt lat="38.1059860" lon="-1.1688570">
        <ele>180.7</ele>
        <time>2020-10-12T13:39:51Z</time>
      </trkpt>
      <trkpt lat="38.1058720" lon="-1.1690560">
        <ele>180.9</ele>
        <time>2020-10-12T13:39:54Z</time>
      </trkpt>
      <trkpt lat="38.1057250" lon="-1.1692310">
        <ele>181.2</ele>
        <time>2020-10-12T13:39:57Z</time>
      </trkpt>
      <trkpt lat="38.1055640" lon="-1.1693600">
        <ele>181.6</ele>
        <time>2020-10-12T13:40:00Z</time>
      </trkpt>
      <trkpt lat="38.1053830" lon="-1.1694770">
        <ele>182.1</ele>
        <time>2020-10-12T13:40:03Z</time>
      </trkpt>
      <trkpt lat="38.1052090" lon="-1.1695710">
        <ele>182.4</ele>
        <time>2020-10-12T13:40:06Z</time>
      </trkpt>
      <trkpt lat="38.1050280" lon="-1.1696540">
        <ele>182.7</ele>
        <time>2020-10-12T13:40:09Z</time>
      </trkpt>
      <trkpt lat="38.1048570" lon="-1.1697520">
        <ele>182.9</ele>
        <time>2020-10-12T13:40:12Z</time>
      </trkpt>
      <trkpt lat="38.1046730" lon="-1.1698490">
        <ele>183.0</ele>
        <time>2020-10-12T13:40:15Z</time>
      </trkpt>
      <trkpt lat="38.1044760" lon="-1.1699480">
        <ele>182.8</ele>
        <time>2020-10-12T13:40:18Z</time>
      </trkpt>
      <trkpt lat="38.1042890" lon="-1.1700470">
        <ele>182.2</ele>
        <time>2020-10-12T13:40:21Z</time>
      </trkpt>
      <trkpt lat="38.1041300" lon="-1.1701870">
        <ele>181.2</ele>
        <time>2020-10-12T13:40:24Z</time>
      </trkpt>
      <trkpt lat="38.1039480" lon="-1.1703410">
        <ele>180.2</ele>
        <time>2020-10-12T13:40:27Z</time>
      </trkpt>
      <trkpt lat="38.1037310" lon="-1.1705100">
        <ele>178.7</ele>
        <time>2020-10-12T13:40:30Z</time>
      </trkpt>
      <trkpt lat="38.1035070" lon="-1.1706640">
        <ele>177.2</ele>
        <time>2020-10-12T13:40:33Z</time>
      </trkpt>
      <trkpt lat="38.1033230" lon="-1.1707800">
        <ele>175.8</ele>
        <time>2020-10-12T13:40:35Z</time>
      </trkpt>
      <trkpt lat="38.1031200" lon="-1.1708910">
        <ele>174.6</ele>
        <time>2020-10-12T13:40:37Z</time>
      </trkpt>
      <trkpt lat="38.1029170" lon="-1.1709950">
        <ele>173.7</ele>
        <time>2020-10-12T13:40:39Z</time>
      </trkpt>
      <trkpt lat="38.1027220" lon="-1.1710890">
        <ele>173.0</ele>
        <time>2020-10-12T13:40:41Z</time>
      </trkpt>
      <trkpt lat="38.1025280" lon="-1.1711780">
        <ele>172.5</ele>
        <time>2020-10-12T13:40:43Z</time>
      </trkpt>
      <trkpt lat="38.1023470" lon="-1.1712700">
        <ele>172.2</ele>
        <time>2020-10-12T13:40:45Z</time>
      </trkpt>
      <trkpt lat="38.1021720" lon="-1.1713570">
        <ele>172.0</ele>
        <time>2020-10-12T13:40:47Z</time>
      </trkpt>
      <trkpt lat="38.1019920" lon="-1.1714420">
        <ele>171.8</ele>
        <time>2020-10-12T13:40:49Z</time>
      </trkpt>
      <trkpt lat="38.1018270" lon="-1.1715340">
        <ele>171.7</ele>
        <time>2020-10-12T13:40:51Z</time>
      </trkpt>
      <trkpt lat="38.1016570" lon="-1.1716290">
        <ele>171.5</ele>
        <time>2020-10-12T13:40:53Z</time>
      </trkpt>
      <trkpt lat="38.1014270" lon="-1.1717610">
        <ele>171.5</ele>
        <time>2020-10-12T13:40:56Z</time>
      </trkpt>
      <trkpt lat="38.1012020" lon="-1.1718780">
        <ele>171.7</ele>
        <time>2020-10-12T13:40:59Z</time>
      </trkpt>
      <trkpt lat="38.1009690" lon="-1.1719810">
        <ele>171.8</ele>
        <time>2020-10-12T13:41:02Z</time>
      </trkpt>
      <trkpt lat="38.1007370" lon="-1.1721030">
        <ele>171.9</ele>
        <time>2020-10-12T13:41:05Z</time>
      </trkpt>
      <trkpt lat="38.1005200" lon="-1.1722340">
        <ele>172.1</ele>
        <time>2020-10-12T13:41:08Z</time>
      </trkpt>
      <trkpt lat="38.1003190" lon="-1.1723640">
        <ele>172.2</ele>
        <time>2020-10-12T13:41:11Z</time>
      </trkpt>
      <trkpt lat="38.1001040" lon="-1.1724960">
        <ele>172.4</ele>
        <time>2020-10-12T13:41:14Z</time>
      </trkpt>
      <trkpt lat="38.0999040" lon="-1.1726180">
        <ele>172.3</ele>
        <time>2020-10-12T13:41:17Z</time>
      </trkpt>
      <trkpt lat="38.0997140" lon="-1.1727370">
        <ele>172.3</ele>
        <time>2020-10-12T13:41:20Z</time>
      </trkpt>
      <trkpt lat="38.0995250" lon="-1.1728550">
        <ele>172.3</ele>
        <time>2020-10-12T13:41:23Z</time>
      </trkpt>
      <trkpt lat="38.0993430" lon="-1.1729870">
        <ele>172.3</ele>
        <time>2020-10-12T13:41:26Z</time>
      </trkpt>
      <trkpt lat="38.0991800" lon="-1.1731500">
        <ele>172.3</ele>
        <time>2020-10-12T13:41:29Z</time>
      </trkpt>
      <trkpt lat="38.0990030" lon="-1.1733070">
        <ele>173.1</ele>
        <time>2020-10-12T13:41:33Z</time>
      </trkpt>
      <trkpt lat="38.0988500" lon="-1.1731740">
        <ele>172.7</ele>
        <time>2020-10-12T13:41:36Z</time>
      </trkpt>
      <trkpt lat="38.0988770" lon="-1.1729350">
        <ele>173.1</ele>
        <time>2020-10-12T13:41:38Z</time>
      </trkpt>
      <trkpt lat="38.0989350" lon="-1.1726440">
        <ele>173.5</ele>
        <time>2020-10-12T13:41:41Z</time>
      </trkpt>
      <trkpt lat="38.0989720" lon="-1.1724150">
        <ele>174.0</ele>
        <time>2020-10-12T13:41:44Z</time>
      </trkpt>
      <trkpt lat="38.0989890" lon="-1.1721710">
        <ele>174.5</ele>
        <time>2020-10-12T13:41:47Z</time>
      </trkpt>
      <trkpt lat="38.0989840" lon="-1.1719420">
        <ele>175.2</ele>
        <time>2020-10-12T13:41:50Z</time>
      </trkpt>
      <trkpt lat="38.0989790" lon="-1.1716890">
        <ele>175.6</ele>
        <time>2020-10-12T13:41:53Z</time>
      </trkpt>
      <trkpt lat="38.0989590" lon="-1.1714090">
        <ele>176.1</ele>
        <time>2020-10-12T13:41:57Z</time>
      </trkpt>
      <trkpt lat="38.0988920" lon="-1.1711530">
        <ele>176.5</ele>
        <time>2020-10-12T13:42:01Z</time>
      </trkpt>
      <trkpt lat="38.0988190" lon="-1.1709430">
        <ele>176.8</ele>
        <time>2020-10-12T13:42:04Z</time>
      </trkpt>
      <trkpt lat="38.0987560" lon="-1.1707120">
        <ele>177.2</ele>
        <time>2020-10-12T13:42:07Z</time>
      </trkpt>
      <trkpt lat="38.0986700" lon="-1.1704560">
        <ele>177.8</ele>
        <time>2020-10-12T13:42:11Z</time>
      </trkpt>
      <trkpt lat="38.0986050" lon="-1.1702310">
        <ele>178.3</ele>
        <time>2020-10-12T13:42:14Z</time>
      </trkpt>
      <trkpt lat="38.0985520" lon="-1.1699860">
        <ele>178.9</ele>
        <time>2020-10-12T13:42:17Z</time>
      </trkpt>
      <trkpt lat="38.0984870" lon="-1.1697640">
        <ele>179.3</ele>
        <time>2020-10-12T13:42:20Z</time>
      </trkpt>
      <trkpt lat="38.0983960" lon="-1.1695240">
        <ele>179.8</ele>
        <time>2020-10-12T13:42:24Z</time>
      </trkpt>
      <trkpt lat="38.0983070" lon="-1.1692440">
        <ele>180.3</ele>
        <time>2020-10-12T13:42:28Z</time>
      </trkpt>
      <trkpt lat="38.0982250" lon="-1.1690270">
        <ele>180.7</ele>
        <time>2020-10-12T13:42:31Z</time>
      </trkpt>
      <trkpt lat="38.0981120" lon="-1.1688320">
        <ele>181.0</ele>
        <time>2020-10-12T13:42:34Z</time>
      </trkpt>
      <trkpt lat="38.0980070" lon="-1.1686300">
        <ele>181.4</ele>
        <time>2020-10-12T13:42:37Z</time>
      </trkpt>
      <trkpt lat="38.0978840" lon="-1.1684350">
        <ele>181.9</ele>
        <time>2020-10-12T13:42:40Z</time>
      </trkpt>
      <trkpt lat="38.0977430" lon="-1.1682770">
        <ele>182.2</ele>
        <time>2020-10-12T13:42:43Z</time>
      </trkpt>
      <trkpt lat="38.0975920" lon="-1.1681380">
        <ele>182.5</ele>
        <time>2020-10-12T13:42:46Z</time>
      </trkpt>
      <trkpt lat="38.0973840" lon="-1.1679840">
        <ele>182.8</ele>
        <time>2020-10-12T13:42:50Z</time>
      </trkpt>
      <trkpt lat="38.0971770" lon="-1.1678310">
        <ele>183.0</ele>
        <time>2020-10-12T13:42:54Z</time>
      </trkpt>
      <trkpt lat="38.0970020" lon="-1.1676790">
        <ele>183.1</ele>
        <time>2020-10-12T13:42:58Z</time>
      </trkpt>
      <trkpt lat="38.0968400" lon="-1.1675560">
        <ele>183.1</ele>
        <time>2020-10-12T13:43:01Z</time>
      </trkpt>
      <trkpt lat="38.0966760" lon="-1.1674230">
        <ele>183.1</ele>
        <time>2020-10-12T13:43:04Z</time>
      </trkpt>
      <trkpt lat="38.0964910" lon="-1.1672890">
        <ele>183.1</ele>
        <time>2020-10-12T13:43:07Z</time>
      </trkpt>
      <trkpt lat="38.0963110" lon="-1.1671570">
        <ele>183.2</ele>
        <time>2020-10-12T13:43:10Z</time>
      </trkpt>
      <trkpt lat="38.0961380" lon="-1.1670270">
        <ele>183.3</ele>
        <time>2020-10-12T13:43:13Z</time>
      </trkpt>
      <trkpt lat="38.0959640" lon="-1.1668770">
        <ele>183.4</ele>
        <time>2020-10-12T13:43:16Z</time>
      </trkpt>
      <trkpt lat="38.0958020" lon="-1.1667430">
        <ele>183.6</ele>
        <time>2020-10-12T13:43:19Z</time>
      </trkpt>
      <trkpt lat="38.0956350" lon="-1.1666280">
        <ele>183.8</ele>
        <time>2020-10-12T13:43:22Z</time>
      </trkpt>
      <trkpt lat="38.0954710" lon="-1.1665070">
        <ele>184.2</ele>
        <time>2020-10-12T13:43:25Z</time>
      </trkpt>
      <trkpt lat="38.0952860" lon="-1.1663400">
        <ele>184.8</ele>
        <time>2020-10-12T13:43:29Z</time>
      </trkpt>
      <trkpt lat="38.0951270" lon="-1.1665240">
        <ele>182.9</ele>
        <time>2020-10-12T13:43:33Z</time>
      </trkpt>
      <trkpt lat="38.0950270" lon="-1.1667600">
        <ele>181.5</ele>
        <time>2020-10-12T13:43:36Z</time>
      </trkpt>
      <trkpt lat="38.0949180" lon="-1.1670170">
        <ele>180.8</ele>
        <time>2020-10-12T13:43:39Z</time>
      </trkpt>
      <trkpt lat="38.0948030" lon="-1.1672710">
        <ele>180.2</ele>
        <time>2020-10-12T13:43:42Z</time>
      </trkpt>
      <trkpt lat="38.0946950" lon="-1.1675210">
        <ele>179.5</ele>
        <time>2020-10-12T13:43:45Z</time>
      </trkpt>
      <trkpt lat="38.0945770" lon="-1.1677680">
        <ele>179.1</ele>
        <time>2020-10-12T13:43:48Z</time>
      </trkpt>
      <trkpt lat="38.0944570" lon="-1.1679960">
        <ele>178.6</ele>
        <time>2020-10-12T13:43:51Z</time>
      </trkpt>
      <trkpt lat="38.0943440" lon="-1.1682170">
        <ele>178.3</ele>
        <time>2020-10-12T13:43:54Z</time>
      </trkpt>
      <trkpt lat="38.0942250" lon="-1.1684340">
        <ele>177.8</ele>
        <time>2020-10-12T13:43:57Z</time>
      </trkpt>
      <trkpt lat="38.0941070" lon="-1.1686430">
        <ele>177.4</ele>
        <time>2020-10-12T13:44:00Z</time>
      </trkpt>
      <trkpt lat="38.0940060" lon="-1.1688480">
        <ele>177.0</ele>
        <time>2020-10-12T13:44:03Z</time>
      </trkpt>
    </trkseg>
  </trk>
</gpx>
